<?xml version='1.0' encoding='UTF-8'?><gpx version="1.1" creator="JPX - https://github.com/jenetics/jpx" xmlns="http://www.topografix.com/GPX/1/1"><trk><trkseg><trkpt lat="45.4684775" lon="11.1780268"><ele>167.0</ele><time>2026-04-06T06:39:38.388Z</time></trkpt><trkpt lat="45.4685385" lon="11.1780039"><ele>167.0</ele><time>2026-04-06T06:40:32.311Z</time></trkpt><trkpt lat="45.4684602" lon="11.1780435"><ele>167.0</ele><time>2026-04-06T06:41:17.344Z</time></trkpt><trkpt lat="45.4684143" lon="11.1781232"><ele>167.0</ele><time>2026-04-06T06:41:45.253Z</time></trkpt><trkpt lat="45.468447" lon="11.1780371"><ele>167.0</ele><time>2026-04-06T06:44:17.343Z</time></trkpt><trkpt lat="45.4684438" lon="11.1778939"><ele>167.0</ele><time>2026-04-06T06:44:21.411Z</time></trkpt><trkpt lat="45.4684816" lon="11.1778206"><ele>167.0</ele><time>2026-04-06T06:44:26.388Z</time></trkpt><trkpt lat="45.4684075" lon="11.1778231"><ele>167.0</ele><time>2026-04-06T06:44:51.357Z</time></trkpt><trkpt lat="45.4683673" lon="11.1779338"><ele>167.0</ele><time>2026-04-06T06:44:55.395Z</time></trkpt><trkpt lat="45.4683636" lon="11.1780252"><ele>167.0</ele><time>2026-04-06T06:44:58.4Z</time></trkpt><trkpt lat="45.4684853" lon="11.1780999"><ele>167.0</ele><time>2026-04-06T06:45:20.35Z</time></trkpt><trkpt lat="45.4685592" lon="11.1780987"><ele>167.0</ele><time>2026-04-06T06:45:22.34Z</time></trkpt><trkpt lat="45.4686395" lon="11.1781157"><ele>167.0</ele><time>2026-04-06T06:45:24.352Z</time></trkpt><trkpt lat="45.4687272" lon="11.1781119"><ele>167.0</ele><time>2026-04-06T06:45:26.412Z</time></trkpt><trkpt lat="45.4688137" lon="11.1781135"><ele>167.0</ele><time>2026-04-06T06:45:28.406Z</time></trkpt><trkpt lat="45.4689008" lon="11.1781252"><ele>167.0</ele><time>2026-04-06T06:45:30.346Z</time></trkpt><trkpt lat="45.4689925" lon="11.1781308"><ele>167.0</ele><time>2026-04-06T06:45:32.389Z</time></trkpt><trkpt lat="45.4690804" lon="11.1781271"><ele>167.0</ele><time>2026-04-06T06:45:34.358Z</time></trkpt><trkpt lat="45.4691464" lon="11.1781329"><ele>167.6</ele><time>2026-04-06T06:45:36.344Z</time></trkpt><trkpt lat="45.4692108" lon="11.1781687"><ele>168.2</ele><time>2026-04-06T06:45:39.352Z</time></trkpt><trkpt lat="45.4692984" lon="11.1782092"><ele>168.8</ele><time>2026-04-06T06:45:41.394Z</time></trkpt><trkpt lat="45.4693903" lon="11.1782327"><ele>169.4</ele><time>2026-04-06T06:45:43.358Z</time></trkpt><trkpt lat="45.4694818" lon="11.1782304"><ele>170.0</ele><time>2026-04-06T06:45:45.352Z</time></trkpt><trkpt lat="45.4696249" lon="11.1782319"><ele>170.33333333333331</ele><time>2026-04-06T06:45:48.346Z</time></trkpt><trkpt lat="45.4697194" lon="11.1782407"><ele>170.66666666666666</ele><time>2026-04-06T06:45:50.39Z</time></trkpt><trkpt lat="45.4698032" lon="11.1782453"><ele>171.0</ele><time>2026-04-06T06:45:52.381Z</time></trkpt><trkpt lat="45.4698765" lon="11.1782299"><ele>171.33333333333334</ele><time>2026-04-06T06:45:54.352Z</time></trkpt><trkpt lat="45.4699589" lon="11.1782744"><ele>171.66666666666669</ele><time>2026-04-06T06:45:57.348Z</time></trkpt><trkpt lat="45.4700255" lon="11.1783098"><ele>172.0</ele><time>2026-04-06T06:45:59.358Z</time></trkpt><trkpt lat="45.4701169" lon="11.1783355"><ele>172.0</ele><time>2026-04-06T06:46:02.352Z</time></trkpt><trkpt lat="45.4701896" lon="11.1783792"><ele>172.0</ele><time>2026-04-06T06:46:04.385Z</time></trkpt><trkpt lat="45.4702683" lon="11.1784123"><ele>172.0</ele><time>2026-04-06T06:46:06.354Z</time></trkpt><trkpt lat="45.4703417" lon="11.178447"><ele>172.0</ele><time>2026-04-06T06:46:08.39Z</time></trkpt><trkpt lat="45.4704121" lon="11.1784651"><ele>172.0</ele><time>2026-04-06T06:46:10.351Z</time></trkpt><trkpt lat="45.470482" lon="11.1784809"><ele>172.0</ele><time>2026-04-06T06:46:12.394Z</time></trkpt><trkpt lat="45.4705569" lon="11.1784873"><ele>172.5</ele><time>2026-04-06T06:46:14.376Z</time></trkpt><trkpt lat="45.4706312" lon="11.178499"><ele>173.0</ele><time>2026-04-06T06:46:16.355Z</time></trkpt><trkpt lat="45.4707128" lon="11.1785109"><ele>173.5</ele><time>2026-04-06T06:46:18.381Z</time></trkpt><trkpt lat="45.4707929" lon="11.1785288"><ele>174.0</ele><time>2026-04-06T06:46:20.367Z</time></trkpt><trkpt lat="45.4708559" lon="11.1785426"><ele>174.5</ele><time>2026-04-06T06:46:22.349Z</time></trkpt><trkpt lat="45.4709095" lon="11.1786408"><ele>175.0</ele><time>2026-04-06T06:46:25.338Z</time></trkpt><trkpt lat="45.4709169" lon="11.1787418"><ele>175.0</ele><time>2026-04-06T06:46:27.371Z</time></trkpt><trkpt lat="45.4709102" lon="11.1788494"><ele>175.0</ele><time>2026-04-06T06:46:29.403Z</time></trkpt><trkpt lat="45.4709066" lon="11.1789598"><ele>175.0</ele><time>2026-04-06T06:46:31.36Z</time></trkpt><trkpt lat="45.4709119" lon="11.1790753"><ele>175.0</ele><time>2026-04-06T06:46:33.354Z</time></trkpt><trkpt lat="45.4709246" lon="11.1792068"><ele>175.0</ele><time>2026-04-06T06:46:35.41Z</time></trkpt><trkpt lat="45.4709184" lon="11.1793417"><ele>175.0</ele><time>2026-04-06T06:46:37.355Z</time></trkpt><trkpt lat="45.4709367" lon="11.1794543"><ele>175.16666666666669</ele><time>2026-04-06T06:46:39.454Z</time></trkpt><trkpt lat="45.4710057" lon="11.1795255"><ele>175.33333333333334</ele><time>2026-04-06T06:46:41.404Z</time></trkpt><trkpt lat="45.4711002" lon="11.1795418"><ele>175.5</ele><time>2026-04-06T06:46:43.352Z</time></trkpt><trkpt lat="45.4711757" lon="11.1795602"><ele>175.66666666666666</ele><time>2026-04-06T06:46:45.353Z</time></trkpt><trkpt lat="45.4712537" lon="11.1795819"><ele>175.83333333333331</ele><time>2026-04-06T06:46:47.348Z</time></trkpt><trkpt lat="45.471336" lon="11.1795839"><ele>176.0</ele><time>2026-04-06T06:46:50.201Z</time></trkpt><trkpt lat="45.4714203" lon="11.1795958"><ele>176.16666666666666</ele><time>2026-04-06T06:46:51.374Z</time></trkpt><trkpt lat="45.4715048" lon="11.1795998"><ele>176.33333333333331</ele><time>2026-04-06T06:46:53.348Z</time></trkpt><trkpt lat="45.4715824" lon="11.1795942"><ele>176.5</ele><time>2026-04-06T06:46:55.381Z</time></trkpt><trkpt lat="45.4716506" lon="11.1796442"><ele>176.66666666666666</ele><time>2026-04-06T06:46:57.355Z</time></trkpt><trkpt lat="45.4716741" lon="11.1797383"><ele>176.83333333333334</ele><time>2026-04-06T06:46:59.397Z</time></trkpt><trkpt lat="45.471669" lon="11.1798424"><ele>177.0</ele><time>2026-04-06T06:47:01.397Z</time></trkpt><trkpt lat="45.4716616" lon="11.1799552"><ele>177.16666666666666</ele><time>2026-04-06T06:47:03.349Z</time></trkpt><trkpt lat="45.4716652" lon="11.1800829"><ele>177.33333333333334</ele><time>2026-04-06T06:47:05.353Z</time></trkpt><trkpt lat="45.4716766" lon="11.1802095"><ele>177.5</ele><time>2026-04-06T06:47:07.346Z</time></trkpt><trkpt lat="45.4716758" lon="11.180333"><ele>177.66666666666669</ele><time>2026-04-06T06:47:09.341Z</time></trkpt><trkpt lat="45.4716707" lon="11.1804508"><ele>177.83333333333334</ele><time>2026-04-06T06:47:11.338Z</time></trkpt><trkpt lat="45.4716799" lon="11.1805608"><ele>178.0</ele><time>2026-04-06T06:47:13.334Z</time></trkpt><trkpt lat="45.4717326" lon="11.180635"><ele>178.0</ele><time>2026-04-06T06:47:15.34Z</time></trkpt><trkpt lat="45.4718044" lon="11.180684"><ele>178.0</ele><time>2026-04-06T06:47:17.399Z</time></trkpt><trkpt lat="45.4718626" lon="11.1807401"><ele>178.0</ele><time>2026-04-06T06:47:19.342Z</time></trkpt><trkpt lat="45.4719097" lon="11.1808006"><ele>178.0</ele><time>2026-04-06T06:47:23.349Z</time></trkpt><trkpt lat="45.4719947" lon="11.1808646"><ele>178.0</ele><time>2026-04-06T06:47:29.348Z</time></trkpt><trkpt lat="45.4720732" lon="11.1808589"><ele>178.0</ele><time>2026-04-06T06:47:31.345Z</time></trkpt><trkpt lat="45.4721674" lon="11.1808877"><ele>178.4</ele><time>2026-04-06T06:47:33.338Z</time></trkpt><trkpt lat="45.4722617" lon="11.1809105"><ele>178.8</ele><time>2026-04-06T06:47:35.345Z</time></trkpt><trkpt lat="45.4723598" lon="11.1809313"><ele>179.2</ele><time>2026-04-06T06:47:37.353Z</time></trkpt><trkpt lat="45.4724497" lon="11.1809614"><ele>179.6</ele><time>2026-04-06T06:47:39.348Z</time></trkpt><trkpt lat="45.4725411" lon="11.1810178"><ele>180.0</ele><time>2026-04-06T06:47:41.343Z</time></trkpt><trkpt lat="45.4726383" lon="11.1810205"><ele>180.0</ele><time>2026-04-06T06:47:43.341Z</time></trkpt><trkpt lat="45.4727083" lon="11.1810618"><ele>180.0</ele><time>2026-04-06T06:47:45.351Z</time></trkpt><trkpt lat="45.4727875" lon="11.1811085"><ele>180.0</ele><time>2026-04-06T06:47:47.351Z</time></trkpt><trkpt lat="45.4728384" lon="11.1811976"><ele>180.0</ele><time>2026-04-06T06:47:49.346Z</time></trkpt><trkpt lat="45.472872" lon="11.1813018"><ele>180.0</ele><time>2026-04-06T06:47:51.352Z</time></trkpt><trkpt lat="45.4729075" lon="11.1814125"><ele>180.0</ele><time>2026-04-06T06:47:53.339Z</time></trkpt><trkpt lat="45.4729595" lon="11.1815147"><ele>180.33333333333334</ele><time>2026-04-06T06:47:55.355Z</time></trkpt><trkpt lat="45.4729995" lon="11.1816039"><ele>180.66666666666666</ele><time>2026-04-06T06:47:57.348Z</time></trkpt><trkpt lat="45.4730461" lon="11.1816754"><ele>181.0</ele><time>2026-04-06T06:47:58.345Z</time></trkpt><trkpt lat="45.4731257" lon="11.181757"><ele>181.33333333333331</ele><time>2026-04-06T06:48:00.354Z</time></trkpt><trkpt lat="45.4732047" lon="11.1818433"><ele>181.66666666666666</ele><time>2026-04-06T06:48:02.347Z</time></trkpt><trkpt lat="45.4732728" lon="11.1819268"><ele>182.0</ele><time>2026-04-06T06:48:04.351Z</time></trkpt><trkpt lat="45.4733431" lon="11.1819978"><ele>182.0</ele><time>2026-04-06T06:48:06.341Z</time></trkpt><trkpt lat="45.4734146" lon="11.1820707"><ele>182.0</ele><time>2026-04-06T06:48:08.348Z</time></trkpt><trkpt lat="45.4734886" lon="11.1821329"><ele>182.0</ele><time>2026-04-06T06:48:10.348Z</time></trkpt><trkpt lat="45.4735822" lon="11.1821983"><ele>182.0</ele><time>2026-04-06T06:48:12.346Z</time></trkpt><trkpt lat="45.4736344" lon="11.182257"><ele>182.0</ele><time>2026-04-06T06:48:13.35Z</time></trkpt><trkpt lat="45.4737127" lon="11.1823174"><ele>182.0</ele><time>2026-04-06T06:48:15.35Z</time></trkpt><trkpt lat="45.473805" lon="11.1823993"><ele>182.2</ele><time>2026-04-06T06:48:17.351Z</time></trkpt><trkpt lat="45.4738804" lon="11.1824687"><ele>182.39999999999998</ele><time>2026-04-06T06:48:19.349Z</time></trkpt><trkpt lat="45.4739658" lon="11.1825404"><ele>182.60000000000002</ele><time>2026-04-06T06:48:21.354Z</time></trkpt><trkpt lat="45.4740354" lon="11.1826146"><ele>182.8</ele><time>2026-04-06T06:48:23.349Z</time></trkpt><trkpt lat="45.4741179" lon="11.1826843"><ele>183.0</ele><time>2026-04-06T06:48:25.351Z</time></trkpt><trkpt lat="45.4741945" lon="11.1827652"><ele>183.0</ele><time>2026-04-06T06:48:27.351Z</time></trkpt><trkpt lat="45.4742782" lon="11.182832"><ele>183.0</ele><time>2026-04-06T06:48:29.348Z</time></trkpt><trkpt lat="45.4743539" lon="11.1829152"><ele>183.0</ele><time>2026-04-06T06:48:31.347Z</time></trkpt><trkpt lat="45.4744346" lon="11.1829884"><ele>183.0</ele><time>2026-04-06T06:48:33.357Z</time></trkpt><trkpt lat="45.4745218" lon="11.1830742"><ele>183.0</ele><time>2026-04-06T06:48:35.417Z</time></trkpt><trkpt lat="45.4745923" lon="11.1831651"><ele>183.4</ele><time>2026-04-06T06:48:37.364Z</time></trkpt><trkpt lat="45.4746599" lon="11.1832405"><ele>183.8</ele><time>2026-04-06T06:48:39.355Z</time></trkpt><trkpt lat="45.4747436" lon="11.1833365"><ele>184.2</ele><time>2026-04-06T06:48:41.357Z</time></trkpt><trkpt lat="45.4748162" lon="11.1834266"><ele>184.6</ele><time>2026-04-06T06:48:43.331Z</time></trkpt><trkpt lat="45.4748789" lon="11.1835201"><ele>185.0</ele><time>2026-04-06T06:48:45.376Z</time></trkpt><trkpt lat="45.4749588" lon="11.1836043"><ele>185.0</ele><time>2026-04-06T06:48:47.371Z</time></trkpt><trkpt lat="45.4750441" lon="11.1836788"><ele>185.0</ele><time>2026-04-06T06:48:49.386Z</time></trkpt><trkpt lat="45.4751365" lon="11.1837255"><ele>185.0</ele><time>2026-04-06T06:48:51.404Z</time></trkpt><trkpt lat="45.475227" lon="11.1837663"><ele>185.0</ele><time>2026-04-06T06:48:53.437Z</time></trkpt><trkpt lat="45.4753196" lon="11.1837925"><ele>185.0</ele><time>2026-04-06T06:48:55.405Z</time></trkpt><trkpt lat="45.4754209" lon="11.1838296"><ele>185.5</ele><time>2026-04-06T06:48:57.353Z</time></trkpt><trkpt lat="45.4755757" lon="11.1838932"><ele>186.0</ele><time>2026-04-06T06:49:00.392Z</time></trkpt><trkpt lat="45.4756731" lon="11.1839299"><ele>186.5</ele><time>2026-04-06T06:49:02.413Z</time></trkpt><trkpt lat="45.4757651" lon="11.1839506"><ele>187.0</ele><time>2026-04-06T06:49:04.387Z</time></trkpt><trkpt lat="45.4758577" lon="11.1839887"><ele>186.8</ele><time>2026-04-06T06:49:06.42Z</time></trkpt><trkpt lat="45.4759577" lon="11.1840476"><ele>186.6</ele><time>2026-04-06T06:49:08.357Z</time></trkpt><trkpt lat="45.4760487" lon="11.184099"><ele>186.4</ele><time>2026-04-06T06:49:10.399Z</time></trkpt><trkpt lat="45.4761457" lon="11.1841356"><ele>186.20000000000002</ele><time>2026-04-06T06:49:12.343Z</time></trkpt><trkpt lat="45.4762522" lon="11.1841728"><ele>186.0</ele><time>2026-04-06T06:49:14.433Z</time></trkpt><trkpt lat="45.4763468" lon="11.1842247"><ele>186.60000000000002</ele><time>2026-04-06T06:49:16.36Z</time></trkpt><trkpt lat="45.4764474" lon="11.1842588"><ele>187.2</ele><time>2026-04-06T06:49:18.345Z</time></trkpt><trkpt lat="45.4765453" lon="11.1842957"><ele>187.8</ele><time>2026-04-06T06:49:20.418Z</time></trkpt><trkpt lat="45.4766409" lon="11.1843537"><ele>188.39999999999998</ele><time>2026-04-06T06:49:22.406Z</time></trkpt><trkpt lat="45.4767296" lon="11.1844257"><ele>189.0</ele><time>2026-04-06T06:49:24.352Z</time></trkpt><trkpt lat="45.4768166" lon="11.184483"><ele>189.0</ele><time>2026-04-06T06:49:26.511Z</time></trkpt><trkpt lat="45.4768812" lon="11.1845648"><ele>189.0</ele><time>2026-04-06T06:49:28.356Z</time></trkpt><trkpt lat="45.4769693" lon="11.1846371"><ele>189.0</ele><time>2026-04-06T06:49:30.353Z</time></trkpt><trkpt lat="45.4770591" lon="11.1846777"><ele>189.0</ele><time>2026-04-06T06:49:32.353Z</time></trkpt><trkpt lat="45.4771517" lon="11.1846511"><ele>189.0</ele><time>2026-04-06T06:49:34.354Z</time></trkpt><trkpt lat="45.4772297" lon="11.184612"><ele>189.2</ele><time>2026-04-06T06:49:36.421Z</time></trkpt><trkpt lat="45.4773198" lon="11.1845565"><ele>189.39999999999998</ele><time>2026-04-06T06:49:38.357Z</time></trkpt><trkpt lat="45.4774039" lon="11.1844967"><ele>189.6</ele><time>2026-04-06T06:49:40.414Z</time></trkpt><trkpt lat="45.4774897" lon="11.1844282"><ele>189.8</ele><time>2026-04-06T06:49:42.355Z</time></trkpt><trkpt lat="45.4775795" lon="11.1843684"><ele>190.0</ele><time>2026-04-06T06:49:44.424Z</time></trkpt><trkpt lat="45.4776606" lon="11.1843235"><ele>190.0</ele><time>2026-04-06T06:49:46.371Z</time></trkpt><trkpt lat="45.4777452" lon="11.184273"><ele>190.0</ele><time>2026-04-06T06:49:48.384Z</time></trkpt><trkpt lat="45.4778322" lon="11.1842183"><ele>190.0</ele><time>2026-04-06T06:49:50.344Z</time></trkpt><trkpt lat="45.477897" lon="11.184162"><ele>190.0</ele><time>2026-04-06T06:49:52.364Z</time></trkpt><trkpt lat="45.4779666" lon="11.1841023"><ele>190.0</ele><time>2026-04-06T06:49:54.349Z</time></trkpt><trkpt lat="45.4780407" lon="11.1840694"><ele>190.0</ele><time>2026-04-06T06:49:56.391Z</time></trkpt><trkpt lat="45.4781082" lon="11.1840242"><ele>191.0</ele><time>2026-04-06T06:49:58.355Z</time></trkpt><trkpt lat="45.4781415" lon="11.1839426"><ele>192.0</ele><time>2026-04-06T06:50:00.393Z</time></trkpt><trkpt lat="45.4781446" lon="11.1838347"><ele>193.0</ele><time>2026-04-06T06:50:02.455Z</time></trkpt><trkpt lat="45.4781258" lon="11.1837214"><ele>194.0</ele><time>2026-04-06T06:50:04.348Z</time></trkpt><trkpt lat="45.4781095" lon="11.183603"><ele>194.99999999999997</ele><time>2026-04-06T06:50:06.397Z</time></trkpt><trkpt lat="45.4780924" lon="11.1834161"><ele>196.0</ele><time>2026-04-06T06:50:09.35Z</time></trkpt><trkpt lat="45.4780967" lon="11.1832954"><ele>196.33333333333331</ele><time>2026-04-06T06:50:11.412Z</time></trkpt><trkpt lat="45.4781337" lon="11.18318"><ele>196.66666666666666</ele><time>2026-04-06T06:50:13.394Z</time></trkpt><trkpt lat="45.4781949" lon="11.1831016"><ele>197.0</ele><time>2026-04-06T06:50:15.351Z</time></trkpt><trkpt lat="45.4782708" lon="11.1830657"><ele>197.33333333333331</ele><time>2026-04-06T06:50:17.392Z</time></trkpt><trkpt lat="45.4783521" lon="11.1830343"><ele>197.66666666666666</ele><time>2026-04-06T06:50:19.354Z</time></trkpt><trkpt lat="45.4784309" lon="11.183004"><ele>198.0</ele><time>2026-04-06T06:50:21.395Z</time></trkpt><trkpt lat="45.478509" lon="11.1829776"><ele>198.0</ele><time>2026-04-06T06:50:23.402Z</time></trkpt><trkpt lat="45.4785902" lon="11.1829553"><ele>198.0</ele><time>2026-04-06T06:50:25.342Z</time></trkpt><trkpt lat="45.4786679" lon="11.1829299"><ele>198.0</ele><time>2026-04-06T06:50:27.414Z</time></trkpt><trkpt lat="45.4787409" lon="11.1828912"><ele>198.0</ele><time>2026-04-06T06:50:29.355Z</time></trkpt><trkpt lat="45.4788184" lon="11.182844"><ele>198.0</ele><time>2026-04-06T06:50:31.348Z</time></trkpt><trkpt lat="45.4788958" lon="11.1827971"><ele>198.0</ele><time>2026-04-06T06:50:33.374Z</time></trkpt><trkpt lat="45.478974" lon="11.1827529"><ele>198.2</ele><time>2026-04-06T06:50:35.347Z</time></trkpt><trkpt lat="45.4790534" lon="11.1827119"><ele>198.4</ele><time>2026-04-06T06:50:37.384Z</time></trkpt><trkpt lat="45.4791459" lon="11.1826598"><ele>198.6</ele><time>2026-04-06T06:50:39.417Z</time></trkpt><trkpt lat="45.4792261" lon="11.1826046"><ele>198.79999999999998</ele><time>2026-04-06T06:50:41.349Z</time></trkpt><trkpt lat="45.4793161" lon="11.1825478"><ele>199.0</ele><time>2026-04-06T06:50:43.347Z</time></trkpt><trkpt lat="45.4794097" lon="11.1825036"><ele>198.99999999999997</ele><time>2026-04-06T06:50:45.353Z</time></trkpt><trkpt lat="45.4794707" lon="11.1824717"><ele>199.0</ele><time>2026-04-06T06:50:46.34Z</time></trkpt><trkpt lat="45.4795614" lon="11.1824725"><ele>199.0</ele><time>2026-04-06T06:50:48.344Z</time></trkpt><trkpt lat="45.4796477" lon="11.1824751"><ele>199.0</ele><time>2026-04-06T06:50:50.348Z</time></trkpt><trkpt lat="45.4797356" lon="11.182473"><ele>198.99999999999997</ele><time>2026-04-06T06:50:52.35Z</time></trkpt><trkpt lat="45.4798276" lon="11.1824516"><ele>199.0</ele><time>2026-04-06T06:50:54.384Z</time></trkpt><trkpt lat="45.4799143" lon="11.1824252"><ele>199.16666666666666</ele><time>2026-04-06T06:50:56.344Z</time></trkpt><trkpt lat="45.4800044" lon="11.1823929"><ele>199.33333333333331</ele><time>2026-04-06T06:50:58.34Z</time></trkpt><trkpt lat="45.4800896" lon="11.1823635"><ele>199.5</ele><time>2026-04-06T06:51:00.355Z</time></trkpt><trkpt lat="45.4801835" lon="11.1823065"><ele>199.66666666666669</ele><time>2026-04-06T06:51:02.348Z</time></trkpt><trkpt lat="45.4802489" lon="11.1822817"><ele>199.83333333333334</ele><time>2026-04-06T06:51:04.353Z</time></trkpt><trkpt lat="45.4803176" lon="11.182255"><ele>200.0</ele><time>2026-04-06T06:51:06.341Z</time></trkpt><trkpt lat="45.480387" lon="11.1822211"><ele>200.2857142857143</ele><time>2026-04-06T06:51:08.346Z</time></trkpt><trkpt lat="45.4804501" lon="11.1821905"><ele>200.57142857142858</ele><time>2026-04-06T06:51:10.414Z</time></trkpt><trkpt lat="45.4805122" lon="11.1821477"><ele>200.85714285714286</ele><time>2026-04-06T06:51:12.35Z</time></trkpt><trkpt lat="45.4805835" lon="11.1821126"><ele>201.14285714285717</ele><time>2026-04-06T06:51:14.465Z</time></trkpt><trkpt lat="45.4806537" lon="11.1820773"><ele>201.42857142857142</ele><time>2026-04-06T06:51:16.407Z</time></trkpt><trkpt lat="45.4807216" lon="11.1820411"><ele>201.71428571428572</ele><time>2026-04-06T06:51:18.36Z</time></trkpt><trkpt lat="45.4807924" lon="11.1820112"><ele>202.0</ele><time>2026-04-06T06:51:20.387Z</time></trkpt><trkpt lat="45.4808628" lon="11.1819769"><ele>201.99999999999997</ele><time>2026-04-06T06:51:22.35Z</time></trkpt><trkpt lat="45.4809271" lon="11.1819321"><ele>202.0</ele><time>2026-04-06T06:51:24.35Z</time></trkpt><trkpt lat="45.4809967" lon="11.181902"><ele>202.0</ele><time>2026-04-06T06:51:26.352Z</time></trkpt><trkpt lat="45.4810545" lon="11.1818627"><ele>202.0</ele><time>2026-04-06T06:51:28.341Z</time></trkpt><trkpt lat="45.4811319" lon="11.1818216"><ele>201.99999999999997</ele><time>2026-04-06T06:51:31.346Z</time></trkpt><trkpt lat="45.4812175" lon="11.1817809"><ele>202.0</ele><time>2026-04-06T06:51:34.35Z</time></trkpt><trkpt lat="45.4812865" lon="11.1817398"><ele>202.85714285714286</ele><time>2026-04-06T06:51:36.348Z</time></trkpt><trkpt lat="45.481354" lon="11.1817011"><ele>203.71428571428572</ele><time>2026-04-06T06:51:38.34Z</time></trkpt><trkpt lat="45.4814271" lon="11.181683"><ele>204.57142857142856</ele><time>2026-04-06T06:51:40.349Z</time></trkpt><trkpt lat="45.4814944" lon="11.1816488"><ele>205.42857142857144</ele><time>2026-04-06T06:51:42.35Z</time></trkpt><trkpt lat="45.4815553" lon="11.1816136"><ele>206.2857142857143</ele><time>2026-04-06T06:51:44.346Z</time></trkpt><trkpt lat="45.4816155" lon="11.1815818"><ele>207.14285714285714</ele><time>2026-04-06T06:51:46.351Z</time></trkpt><trkpt lat="45.4816783" lon="11.1815485"><ele>208.0</ele><time>2026-04-06T06:51:48.348Z</time></trkpt><trkpt lat="45.4817389" lon="11.1815123"><ele>208.0</ele><time>2026-04-06T06:51:50.347Z</time></trkpt><trkpt lat="45.481802" lon="11.1814811"><ele>208.0</ele><time>2026-04-06T06:51:52.353Z</time></trkpt><trkpt lat="45.4818716" lon="11.1814583"><ele>208.0</ele><time>2026-04-06T06:51:54.35Z</time></trkpt><trkpt lat="45.4819324" lon="11.1814295"><ele>208.0</ele><time>2026-04-06T06:51:56.345Z</time></trkpt><trkpt lat="45.4819916" lon="11.1813841"><ele>208.0</ele><time>2026-04-06T06:51:58.344Z</time></trkpt><trkpt lat="45.4820693" lon="11.1813352"><ele>208.0</ele><time>2026-04-06T06:52:00.349Z</time></trkpt><trkpt lat="45.4821459" lon="11.1812816"><ele>208.0</ele><time>2026-04-06T06:52:02.353Z</time></trkpt><trkpt lat="45.4822161" lon="11.1812377"><ele>208.49999999999997</ele><time>2026-04-06T06:52:04.347Z</time></trkpt><trkpt lat="45.4823003" lon="11.1812157"><ele>209.0</ele><time>2026-04-06T06:52:07.347Z</time></trkpt><trkpt lat="45.4823602" lon="11.181252"><ele>209.5</ele><time>2026-04-06T06:52:11.348Z</time></trkpt><trkpt lat="45.4824577" lon="11.181287"><ele>210.0</ele><time>2026-04-06T06:53:10.34Z</time></trkpt><trkpt lat="45.4825209" lon="11.1813074"><ele>210.49999999999997</ele><time>2026-04-06T07:05:38.353Z</time></trkpt><trkpt lat="45.4824638" lon="11.1812631"><ele>211.0</ele><time>2026-04-06T07:11:53.355Z</time></trkpt><trkpt lat="45.4828059" lon="11.1808756"><ele>210.99999999999997</ele><time>2026-04-06T07:17:38.355Z</time></trkpt><trkpt lat="45.4827425" lon="11.180775"><ele>211.0</ele><time>2026-04-06T07:17:41.418Z</time></trkpt><trkpt lat="45.4827748" lon="11.180694"><ele>211.0</ele><time>2026-04-06T07:17:43.422Z</time></trkpt><trkpt lat="45.4827884" lon="11.180564"><ele>211.0</ele><time>2026-04-06T07:17:46.391Z</time></trkpt><trkpt lat="45.4828078" lon="11.1804402"><ele>210.99999999999997</ele><time>2026-04-06T07:17:49.35Z</time></trkpt><trkpt lat="45.4828194" lon="11.180313"><ele>211.0</ele><time>2026-04-06T07:17:52.406Z</time></trkpt><trkpt lat="45.4828141" lon="11.1801897"><ele>210.99999999999997</ele><time>2026-04-06T07:17:55.355Z</time></trkpt><trkpt lat="45.4828085" lon="11.1800652"><ele>211.0</ele><time>2026-04-06T07:17:58.468Z</time></trkpt><trkpt lat="45.4828086" lon="11.1799713"><ele>211.0</ele><time>2026-04-06T07:18:00.358Z</time></trkpt><trkpt lat="45.4827982" lon="11.1798363"><ele>211.0</ele><time>2026-04-06T07:18:03.403Z</time></trkpt><trkpt lat="45.4827924" lon="11.1797046"><ele>210.99999999999997</ele><time>2026-04-06T07:18:06.358Z</time></trkpt><trkpt lat="45.4827702" lon="11.1796101"><ele>211.0</ele><time>2026-04-06T07:18:09.421Z</time></trkpt><trkpt lat="45.4827647" lon="11.1795198"><ele>210.99999999999997</ele><time>2026-04-06T07:18:11.347Z</time></trkpt><trkpt lat="45.4827579" lon="11.1793991"><ele>211.0</ele><time>2026-04-06T07:18:13.357Z</time></trkpt><trkpt lat="45.4827641" lon="11.1792578"><ele>211.0</ele><time>2026-04-06T07:18:15.361Z</time></trkpt><trkpt lat="45.482764" lon="11.179153"><ele>211.0</ele><time>2026-04-06T07:18:17.35Z</time></trkpt><trkpt lat="45.4827505" lon="11.179049"><ele>210.99999999999997</ele><time>2026-04-06T07:18:19.353Z</time></trkpt><trkpt lat="45.4827424" lon="11.1789222"><ele>211.0</ele><time>2026-04-06T07:18:22.353Z</time></trkpt><trkpt lat="45.482736" lon="11.1788255"><ele>211.16666666666666</ele><time>2026-04-06T07:18:24.352Z</time></trkpt><trkpt lat="45.4827274" lon="11.1787156"><ele>211.33333333333331</ele><time>2026-04-06T07:18:26.346Z</time></trkpt><trkpt lat="45.4827222" lon="11.1786217"><ele>211.5</ele><time>2026-04-06T07:18:28.355Z</time></trkpt><trkpt lat="45.4827024" lon="11.1785195"><ele>211.66666666666669</ele><time>2026-04-06T07:18:30.353Z</time></trkpt><trkpt lat="45.4826838" lon="11.1784213"><ele>211.83333333333334</ele><time>2026-04-06T07:18:32.356Z</time></trkpt><trkpt lat="45.4826651" lon="11.1783293"><ele>212.0</ele><time>2026-04-06T07:18:34.355Z</time></trkpt><trkpt lat="45.4826297" lon="11.1782011"><ele>212.00000000000003</ele><time>2026-04-06T07:18:37.344Z</time></trkpt><trkpt lat="45.4825914" lon="11.178113"><ele>212.0</ele><time>2026-04-06T07:18:39.353Z</time></trkpt><trkpt lat="45.482595" lon="11.1779958"><ele>212.0</ele><time>2026-04-06T07:18:42.353Z</time></trkpt><trkpt lat="45.4825858" lon="11.1778924"><ele>212.0</ele><time>2026-04-06T07:18:51.351Z</time></trkpt><trkpt lat="45.4825588" lon="11.1778016"><ele>212.00000000000003</ele><time>2026-04-06T07:19:05.348Z</time></trkpt><trkpt lat="45.4824879" lon="11.1777024"><ele>212.0</ele><time>2026-04-06T07:19:08.356Z</time></trkpt><trkpt lat="45.4824329" lon="11.1775486"><ele>212.0</ele><time>2026-04-06T07:19:10.355Z</time></trkpt><trkpt lat="45.4824026" lon="11.1774078"><ele>212.0</ele><time>2026-04-06T07:19:12.411Z</time></trkpt><trkpt lat="45.4823673" lon="11.1772733"><ele>212.0</ele><time>2026-04-06T07:19:14.36Z</time></trkpt><trkpt lat="45.4823363" lon="11.1771319"><ele>212.0</ele><time>2026-04-06T07:19:16.438Z</time></trkpt><trkpt lat="45.4823198" lon="11.1769835"><ele>212.0</ele><time>2026-04-06T07:19:18.359Z</time></trkpt><trkpt lat="45.4822894" lon="11.1768605"><ele>211.83333333333334</ele><time>2026-04-06T07:19:20.355Z</time></trkpt><trkpt lat="45.4822733" lon="11.1767282"><ele>211.66666666666669</ele><time>2026-04-06T07:19:22.375Z</time></trkpt><trkpt lat="45.482256" lon="11.176594"><ele>211.5</ele><time>2026-04-06T07:19:24.383Z</time></trkpt><trkpt lat="45.4822208" lon="11.1765144"><ele>211.33333333333331</ele><time>2026-04-06T07:19:25.347Z</time></trkpt><trkpt lat="45.4822164" lon="11.1764012"><ele>211.16666666666666</ele><time>2026-04-06T07:19:27.363Z</time></trkpt><trkpt lat="45.482224" lon="11.176255"><ele>211.0</ele><time>2026-04-06T07:19:29.358Z</time></trkpt><trkpt lat="45.4821842" lon="11.1761821"><ele>210.66666666666666</ele><time>2026-04-06T07:19:30.354Z</time></trkpt><trkpt lat="45.4821483" lon="11.1761078"><ele>210.33333333333331</ele><time>2026-04-06T07:19:31.361Z</time></trkpt><trkpt lat="45.4821196" lon="11.1759806"><ele>210.0</ele><time>2026-04-06T07:19:33.388Z</time></trkpt><trkpt lat="45.4820865" lon="11.1758722"><ele>209.66666666666669</ele><time>2026-04-06T07:19:35.461Z</time></trkpt><trkpt lat="45.4820667" lon="11.1757708"><ele>209.33333333333334</ele><time>2026-04-06T07:19:37.349Z</time></trkpt><trkpt lat="45.4820538" lon="11.1756352"><ele>209.0</ele><time>2026-04-06T07:19:39.348Z</time></trkpt><trkpt lat="45.4820294" lon="11.1755258"><ele>209.0</ele><time>2026-04-06T07:19:41.357Z</time></trkpt><trkpt lat="45.4819821" lon="11.1754354"><ele>209.0</ele><time>2026-04-06T07:19:43.348Z</time></trkpt><trkpt lat="45.4819155" lon="11.1753377"><ele>209.0</ele><time>2026-04-06T07:19:45.351Z</time></trkpt><trkpt lat="45.4818545" lon="11.1752611"><ele>209.0</ele><time>2026-04-06T07:19:47.387Z</time></trkpt><trkpt lat="45.4817716" lon="11.1752096"><ele>209.0</ele><time>2026-04-06T07:19:49.361Z</time></trkpt><trkpt lat="45.4816676" lon="11.1751859"><ele>209.00000000000003</ele><time>2026-04-06T07:19:51.351Z</time></trkpt><trkpt lat="45.4816047" lon="11.1751943"><ele>209.0</ele><time>2026-04-06T07:19:52.351Z</time></trkpt><trkpt lat="45.481527" lon="11.1752168"><ele>209.0</ele><time>2026-04-06T07:19:54.359Z</time></trkpt><trkpt lat="45.4814431" lon="11.1752404"><ele>209.0</ele><time>2026-04-06T07:19:56.368Z</time></trkpt><trkpt lat="45.481373" lon="11.1752462"><ele>209.00000000000003</ele><time>2026-04-06T07:19:57.399Z</time></trkpt><trkpt lat="45.4812743" lon="11.1752626"><ele>209.0</ele><time>2026-04-06T07:19:59.407Z</time></trkpt><trkpt lat="45.4811896" lon="11.1752693"><ele>209.0</ele><time>2026-04-06T07:20:01.383Z</time></trkpt><trkpt lat="45.4810646" lon="11.1752514"><ele>209.0</ele><time>2026-04-06T07:20:03.347Z</time></trkpt><trkpt lat="45.4809867" lon="11.1751897"><ele>209.0</ele><time>2026-04-06T07:20:05.361Z</time></trkpt><trkpt lat="45.4809433" lon="11.1750602"><ele>209.0</ele><time>2026-04-06T07:20:07.968Z</time></trkpt><trkpt lat="45.4809064" lon="11.1749185"><ele>209.0</ele><time>2026-04-06T07:20:09.392Z</time></trkpt><trkpt lat="45.4808425" lon="11.1748171"><ele>209.0</ele><time>2026-04-06T07:20:10.406Z</time></trkpt><trkpt lat="45.4808061" lon="11.174665"><ele>209.0</ele><time>2026-04-06T07:20:12.355Z</time></trkpt><trkpt lat="45.480791" lon="11.1745354"><ele>209.0</ele><time>2026-04-06T07:20:14.418Z</time></trkpt><trkpt lat="45.4807706" lon="11.1744095"><ele>209.0</ele><time>2026-04-06T07:20:16.396Z</time></trkpt><trkpt lat="45.48076" lon="11.1742327"><ele>209.0</ele><time>2026-04-06T07:20:19.347Z</time></trkpt><trkpt lat="45.4807181" lon="11.1741013"><ele>208.79999999999998</ele><time>2026-04-06T07:20:21.413Z</time></trkpt><trkpt lat="45.480725" lon="11.1739678"><ele>208.6</ele><time>2026-04-06T07:20:23.347Z</time></trkpt><trkpt lat="45.4807017" lon="11.1738149"><ele>208.4</ele><time>2026-04-06T07:20:25.417Z</time></trkpt><trkpt lat="45.4806732" lon="11.1737073"><ele>208.2</ele><time>2026-04-06T07:20:27.383Z</time></trkpt><trkpt lat="45.4806712" lon="11.1736171"><ele>208.0</ele><time>2026-04-06T07:20:28.352Z</time></trkpt><trkpt lat="45.4806473" lon="11.173475"><ele>208.0</ele><time>2026-04-06T07:20:30.432Z</time></trkpt><trkpt lat="45.4806279" lon="11.1733388"><ele>208.0</ele><time>2026-04-06T07:20:32.39Z</time></trkpt><trkpt lat="45.4805987" lon="11.1731924"><ele>208.0</ele><time>2026-04-06T07:20:34.408Z</time></trkpt><trkpt lat="45.4805561" lon="11.1730478"><ele>208.0</ele><time>2026-04-06T07:20:36.406Z</time></trkpt><trkpt lat="45.4805392" lon="11.1729355"><ele>208.0</ele><time>2026-04-06T07:20:38.39Z</time></trkpt><trkpt lat="45.4805312" lon="11.1727877"><ele>208.0</ele><time>2026-04-06T07:20:40.391Z</time></trkpt><trkpt lat="45.4805103" lon="11.1726434"><ele>208.0</ele><time>2026-04-06T07:20:42.376Z</time></trkpt><trkpt lat="45.4805162" lon="11.1725343"><ele>208.0</ele><time>2026-04-06T07:20:44.395Z</time></trkpt><trkpt lat="45.4805254" lon="11.1724158"><ele>208.0</ele><time>2026-04-06T07:20:46.365Z</time></trkpt><trkpt lat="45.480513" lon="11.1722969"><ele>208.0</ele><time>2026-04-06T07:20:48.384Z</time></trkpt><trkpt lat="45.4805324" lon="11.17214"><ele>208.2</ele><time>2026-04-06T07:20:50.397Z</time></trkpt><trkpt lat="45.4805499" lon="11.171997"><ele>208.4</ele><time>2026-04-06T07:20:52.359Z</time></trkpt><trkpt lat="45.4805437" lon="11.1718424"><ele>208.6</ele><time>2026-04-06T07:20:54.358Z</time></trkpt><trkpt lat="45.4805378" lon="11.1717142"><ele>208.79999999999998</ele><time>2026-04-06T07:20:56.409Z</time></trkpt><trkpt lat="45.4805489" lon="11.1715842"><ele>209.0</ele><time>2026-04-06T07:20:58.352Z</time></trkpt><trkpt lat="45.480555" lon="11.1714568"><ele>209.0</ele><time>2026-04-06T07:21:00.462Z</time></trkpt><trkpt lat="45.4805407" lon="11.1712956"><ele>209.0</ele><time>2026-04-06T07:21:02.359Z</time></trkpt><trkpt lat="45.4805145" lon="11.1711469"><ele>209.0</ele><time>2026-04-06T07:21:04.359Z</time></trkpt><trkpt lat="45.4805254" lon="11.1709591"><ele>209.0</ele><time>2026-04-06T07:21:06.408Z</time></trkpt><trkpt lat="45.4805356" lon="11.1708045"><ele>208.6</ele><time>2026-04-06T07:21:08.429Z</time></trkpt><trkpt lat="45.4805383" lon="11.1706507"><ele>208.2</ele><time>2026-04-06T07:21:10.412Z</time></trkpt><trkpt lat="45.4805469" lon="11.1705198"><ele>207.79999999999998</ele><time>2026-04-06T07:21:12.384Z</time></trkpt><trkpt lat="45.4805596" lon="11.1703536"><ele>207.39999999999998</ele><time>2026-04-06T07:21:15.361Z</time></trkpt><trkpt lat="45.4805464" lon="11.1702358"><ele>207.0</ele><time>2026-04-06T07:21:17.348Z</time></trkpt><trkpt lat="45.4805421" lon="11.1701187"><ele>207.0</ele><time>2026-04-06T07:21:19.35Z</time></trkpt><trkpt lat="45.4805506" lon="11.1700098"><ele>207.0</ele><time>2026-04-06T07:21:21.379Z</time></trkpt><trkpt lat="45.4805699" lon="11.1698306"><ele>207.0</ele><time>2026-04-06T07:21:23.348Z</time></trkpt><trkpt lat="45.4805845" lon="11.1696875"><ele>207.0</ele><time>2026-04-06T07:21:25.354Z</time></trkpt><trkpt lat="45.4805993" lon="11.1695479"><ele>207.0</ele><time>2026-04-06T07:21:27.38Z</time></trkpt><trkpt lat="45.4806211" lon="11.1694018"><ele>207.0</ele><time>2026-04-06T07:21:29.36Z</time></trkpt><trkpt lat="45.4806465" lon="11.1692757"><ele>207.0</ele><time>2026-04-06T07:21:31.355Z</time></trkpt><trkpt lat="45.4806983" lon="11.1691323"><ele>207.0</ele><time>2026-04-06T07:21:33.354Z</time></trkpt><trkpt lat="45.4807416" lon="11.1690362"><ele>207.0</ele><time>2026-04-06T07:21:35.349Z</time></trkpt><trkpt lat="45.4807819" lon="11.1689318"><ele>207.0</ele><time>2026-04-06T07:21:37.351Z</time></trkpt><trkpt lat="45.480881" lon="11.1688364"><ele>207.2</ele><time>2026-04-06T07:21:39.352Z</time></trkpt><trkpt lat="45.4809607" lon="11.1687119"><ele>207.39999999999998</ele><time>2026-04-06T07:21:41.357Z</time></trkpt><trkpt lat="45.4810258" lon="11.1685926"><ele>207.60000000000002</ele><time>2026-04-06T07:21:43.353Z</time></trkpt><trkpt lat="45.4810628" lon="11.1685177"><ele>207.8</ele><time>2026-04-06T07:21:45.361Z</time></trkpt><trkpt lat="45.4811438" lon="11.168403"><ele>208.0</ele><time>2026-04-06T07:21:47.347Z</time></trkpt><trkpt lat="45.4811664" lon="11.1683135"><ele>208.2</ele><time>2026-04-06T07:21:49.359Z</time></trkpt><trkpt lat="45.4812092" lon="11.1681919"><ele>208.4</ele><time>2026-04-06T07:21:51.445Z</time></trkpt><trkpt lat="45.4812431" lon="11.1680437"><ele>208.6</ele><time>2026-04-06T07:21:53.377Z</time></trkpt><trkpt lat="45.4812811" lon="11.1679079"><ele>208.79999999999998</ele><time>2026-04-06T07:21:55.451Z</time></trkpt><trkpt lat="45.4813308" lon="11.1677512"><ele>209.0</ele><time>2026-04-06T07:21:57.389Z</time></trkpt><trkpt lat="45.4813654" lon="11.1675817"><ele>209.50000000000003</ele><time>2026-04-06T07:22:00.348Z</time></trkpt><trkpt lat="45.4813982" lon="11.1674635"><ele>210.0</ele><time>2026-04-06T07:22:02.354Z</time></trkpt><trkpt lat="45.4814446" lon="11.1673463"><ele>210.5</ele><time>2026-04-06T07:22:04.414Z</time></trkpt><trkpt lat="45.4814944" lon="11.1672228"><ele>211.0</ele><time>2026-04-06T07:22:06.395Z</time></trkpt><trkpt lat="45.4815215" lon="11.1671136"><ele>211.50000000000003</ele><time>2026-04-06T07:22:08.411Z</time></trkpt><trkpt lat="45.4815612" lon="11.1670241"><ele>212.0</ele><time>2026-04-06T07:22:10.354Z</time></trkpt><trkpt lat="45.4815927" lon="11.1669242"><ele>212.0</ele><time>2026-04-06T07:22:12.364Z</time></trkpt><trkpt lat="45.4816868" lon="11.1667274"><ele>212.0</ele><time>2026-04-06T07:22:15.406Z</time></trkpt><trkpt lat="45.4817022" lon="11.1665979"><ele>212.0</ele><time>2026-04-06T07:22:17.408Z</time></trkpt><trkpt lat="45.4817582" lon="11.16644"><ele>212.0</ele><time>2026-04-06T07:22:20.219Z</time></trkpt><trkpt lat="45.4817909" lon="11.1663289"><ele>212.2</ele><time>2026-04-06T07:22:21.416Z</time></trkpt><trkpt lat="45.4818279" lon="11.1662326"><ele>212.39999999999998</ele><time>2026-04-06T07:22:23.346Z</time></trkpt><trkpt lat="45.4819126" lon="11.1661469"><ele>212.60000000000002</ele><time>2026-04-06T07:22:26.367Z</time></trkpt><trkpt lat="45.4819879" lon="11.1660433"><ele>212.8</ele><time>2026-04-06T07:22:28.357Z</time></trkpt><trkpt lat="45.4820525" lon="11.1659278"><ele>213.0</ele><time>2026-04-06T07:22:31.225Z</time></trkpt><trkpt lat="45.4820997" lon="11.165828"><ele>213.0</ele><time>2026-04-06T07:22:32.387Z</time></trkpt><trkpt lat="45.4821499" lon="11.1657424"><ele>213.0</ele><time>2026-04-06T07:22:34.383Z</time></trkpt><trkpt lat="45.4822011" lon="11.1656358"><ele>213.0</ele><time>2026-04-06T07:22:36.391Z</time></trkpt><trkpt lat="45.4822818" lon="11.1655387"><ele>213.0</ele><time>2026-04-06T07:22:38.372Z</time></trkpt><trkpt lat="45.4823237" lon="11.1654405"><ele>213.0</ele><time>2026-04-06T07:22:40.351Z</time></trkpt><trkpt lat="45.4824138" lon="11.165337"><ele>213.16666666666666</ele><time>2026-04-06T07:22:42.353Z</time></trkpt><trkpt lat="45.4824494" lon="11.1652494"><ele>213.33333333333331</ele><time>2026-04-06T07:22:44.356Z</time></trkpt><trkpt lat="45.4824934" lon="11.1651538"><ele>213.5</ele><time>2026-04-06T07:22:46.415Z</time></trkpt><trkpt lat="45.4825318" lon="11.1650697"><ele>213.66666666666666</ele><time>2026-04-06T07:22:48.385Z</time></trkpt><trkpt lat="45.4825723" lon="11.1649916"><ele>213.83333333333331</ele><time>2026-04-06T07:22:50.343Z</time></trkpt><trkpt lat="45.482624" lon="11.1648779"><ele>214.0</ele><time>2026-04-06T07:22:52.425Z</time></trkpt><trkpt lat="45.4826691" lon="11.1647947"><ele>213.99999999999997</ele><time>2026-04-06T07:22:54.367Z</time></trkpt><trkpt lat="45.4827217" lon="11.1647128"><ele>214.0</ele><time>2026-04-06T07:22:56.406Z</time></trkpt><trkpt lat="45.4827747" lon="11.1646315"><ele>214.0</ele><time>2026-04-06T07:22:58.471Z</time></trkpt><trkpt lat="45.4828231" lon="11.1645467"><ele>214.0</ele><time>2026-04-06T07:23:01.344Z</time></trkpt><trkpt lat="45.4828787" lon="11.1644668"><ele>213.99999999999997</ele><time>2026-04-06T07:23:03.43Z</time></trkpt><trkpt lat="45.4829317" lon="11.1643898"><ele>214.0</ele><time>2026-04-06T07:23:05.366Z</time></trkpt><trkpt lat="45.4829796" lon="11.164318"><ele>214.57142857142858</ele><time>2026-04-06T07:23:07.369Z</time></trkpt><trkpt lat="45.4830174" lon="11.1642358"><ele>215.14285714285714</ele><time>2026-04-06T07:23:10.354Z</time></trkpt><trkpt lat="45.483054" lon="11.1641297"><ele>215.71428571428572</ele><time>2026-04-06T07:23:14.401Z</time></trkpt><trkpt lat="45.4830964" lon="11.1640395"><ele>216.28571428571428</ele><time>2026-04-06T07:23:17.46Z</time></trkpt><trkpt lat="45.4831209" lon="11.1639363"><ele>216.85714285714286</ele><time>2026-04-06T07:23:21.366Z</time></trkpt><trkpt lat="45.4831472" lon="11.1638505"><ele>217.42857142857144</ele><time>2026-04-06T07:23:24.377Z</time></trkpt><trkpt lat="45.483177" lon="11.1637545"><ele>218.0</ele><time>2026-04-06T07:23:27.364Z</time></trkpt><trkpt lat="45.4831786" lon="11.1636614"><ele>218.16666666666669</ele><time>2026-04-06T07:23:28.352Z</time></trkpt><trkpt lat="45.4831885" lon="11.1635676"><ele>218.33333333333334</ele><time>2026-04-06T07:23:30.357Z</time></trkpt><trkpt lat="45.4832257" lon="11.1634801"><ele>218.5</ele><time>2026-04-06T07:23:34.372Z</time></trkpt><trkpt lat="45.4832358" lon="11.1633799"><ele>218.66666666666669</ele><time>2026-04-06T07:23:37.382Z</time></trkpt><trkpt lat="45.4832387" lon="11.1632553"><ele>218.83333333333334</ele><time>2026-04-06T07:23:40.356Z</time></trkpt><trkpt lat="45.4832461" lon="11.1631106"><ele>219.0</ele><time>2026-04-06T07:23:44.367Z</time></trkpt><trkpt lat="45.4832509" lon="11.1629976"><ele>219.33333333333334</ele><time>2026-04-06T07:23:47.4Z</time></trkpt><trkpt lat="45.4832584" lon="11.1628871"><ele>219.66666666666669</ele><time>2026-04-06T07:23:50.366Z</time></trkpt><trkpt lat="45.4832714" lon="11.162779"><ele>220.0</ele><time>2026-04-06T07:23:53.387Z</time></trkpt><trkpt lat="45.4832515" lon="11.1626817"><ele>220.33333333333334</ele><time>2026-04-06T07:23:56.359Z</time></trkpt><trkpt lat="45.4832384" lon="11.1625685"><ele>220.66666666666669</ele><time>2026-04-06T07:23:59.425Z</time></trkpt><trkpt lat="45.4832352" lon="11.1624598"><ele>221.0</ele><time>2026-04-06T07:24:02.356Z</time></trkpt><trkpt lat="45.4832457" lon="11.1623504"><ele>221.16666666666669</ele><time>2026-04-06T07:24:05.385Z</time></trkpt><trkpt lat="45.4832484" lon="11.1622269"><ele>221.33333333333334</ele><time>2026-04-06T07:24:08.39Z</time></trkpt><trkpt lat="45.483254" lon="11.1621243"><ele>221.5</ele><time>2026-04-06T07:24:11.347Z</time></trkpt><trkpt lat="45.4832943" lon="11.1620057"><ele>221.66666666666669</ele><time>2026-04-06T07:24:14.35Z</time></trkpt><trkpt lat="45.4833246" lon="11.161909"><ele>221.83333333333334</ele><time>2026-04-06T07:24:16.36Z</time></trkpt><trkpt lat="45.4833206" lon="11.161799"><ele>222.0</ele><time>2026-04-06T07:24:19.427Z</time></trkpt><trkpt lat="45.4833019" lon="11.1617091"><ele>222.0</ele><time>2026-04-06T07:24:23.344Z</time></trkpt><trkpt lat="45.483311" lon="11.1615939"><ele>222.0</ele><time>2026-04-06T07:24:27.356Z</time></trkpt><trkpt lat="45.4833328" lon="11.1615006"><ele>222.0</ele><time>2026-04-06T07:24:29.401Z</time></trkpt><trkpt lat="45.4833376" lon="11.1613945"><ele>222.0</ele><time>2026-04-06T07:24:32.373Z</time></trkpt><trkpt lat="45.483356" lon="11.1612729"><ele>222.0</ele><time>2026-04-06T07:24:35.397Z</time></trkpt><trkpt lat="45.4833768" lon="11.1611763"><ele>222.0</ele><time>2026-04-06T07:24:38.36Z</time></trkpt><trkpt lat="45.4833942" lon="11.1610278"><ele>222.66666666666666</ele><time>2026-04-06T07:24:42.445Z</time></trkpt><trkpt lat="45.4833947" lon="11.1609101"><ele>223.33333333333331</ele><time>2026-04-06T07:24:45.357Z</time></trkpt><trkpt lat="45.4834013" lon="11.160787"><ele>224.0</ele><time>2026-04-06T07:24:48.358Z</time></trkpt><trkpt lat="45.4833938" lon="11.1606614"><ele>224.66666666666666</ele><time>2026-04-06T07:24:52.471Z</time></trkpt><trkpt lat="45.483411" lon="11.160541"><ele>225.33333333333331</ele><time>2026-04-06T07:24:55.354Z</time></trkpt><trkpt lat="45.4834173" lon="11.1604422"><ele>226.0</ele><time>2026-04-06T07:24:57.419Z</time></trkpt><trkpt lat="45.4834354" lon="11.1603351"><ele>226.85714285714286</ele><time>2026-04-06T07:25:01.446Z</time></trkpt><trkpt lat="45.4834871" lon="11.1602483"><ele>227.71428571428572</ele><time>2026-04-06T07:25:04.363Z</time></trkpt><trkpt lat="45.4835296" lon="11.1601644"><ele>228.57142857142858</ele><time>2026-04-06T07:25:07.467Z</time></trkpt><trkpt lat="45.4835577" lon="11.1600684"><ele>229.42857142857144</ele><time>2026-04-06T07:25:11.361Z</time></trkpt><trkpt lat="45.4835863" lon="11.1599652"><ele>230.28571428571428</ele><time>2026-04-06T07:25:14.406Z</time></trkpt><trkpt lat="45.4836114" lon="11.1598802"><ele>231.14285714285717</ele><time>2026-04-06T07:25:17.351Z</time></trkpt><trkpt lat="45.4836371" lon="11.159792"><ele>232.00000000000003</ele><time>2026-04-06T07:25:20.351Z</time></trkpt><trkpt lat="45.4836688" lon="11.1597041"><ele>233.00000000000003</ele><time>2026-04-06T07:25:23.358Z</time></trkpt><trkpt lat="45.4837106" lon="11.1596283"><ele>234.0</ele><time>2026-04-06T07:25:26.354Z</time></trkpt><trkpt lat="45.4837416" lon="11.1595479"><ele>235.00000000000003</ele><time>2026-04-06T07:25:29.353Z</time></trkpt><trkpt lat="45.4837815" lon="11.1594458"><ele>236.00000000000003</ele><time>2026-04-06T07:25:33.441Z</time></trkpt><trkpt lat="45.4838249" lon="11.1593628"><ele>237.0</ele><time>2026-04-06T07:25:36.354Z</time></trkpt><trkpt lat="45.4838796" lon="11.1592643"><ele>238.00000000000003</ele><time>2026-04-06T07:25:39.351Z</time></trkpt><trkpt lat="45.4839046" lon="11.1591813"><ele>239.00000000000003</ele><time>2026-04-06T07:25:42.351Z</time></trkpt><trkpt lat="45.4839187" lon="11.1590899"><ele>240.8571428571429</ele><time>2026-04-06T07:25:46.355Z</time></trkpt><trkpt lat="45.4839289" lon="11.1589882"><ele>242.71428571428572</ele><time>2026-04-06T07:25:50.354Z</time></trkpt><trkpt lat="45.4839455" lon="11.1588863"><ele>244.57142857142858</ele><time>2026-04-06T07:25:54.354Z</time></trkpt><trkpt lat="45.4839718" lon="11.1588033"><ele>246.42857142857144</ele><time>2026-04-06T07:25:59.368Z</time></trkpt><trkpt lat="45.4840098" lon="11.1587192"><ele>248.28571428571428</ele><time>2026-04-06T07:26:04.351Z</time></trkpt><trkpt lat="45.4840571" lon="11.1586334"><ele>250.14285714285714</ele><time>2026-04-06T07:26:08.46Z</time></trkpt><trkpt lat="45.484107" lon="11.1585576"><ele>252.0</ele><time>2026-04-06T07:26:11.358Z</time></trkpt><trkpt lat="45.4841754" lon="11.1584577"><ele>252.0</ele><time>2026-04-06T07:26:17.343Z</time></trkpt><trkpt lat="45.484226" lon="11.1583798"><ele>252.0</ele><time>2026-04-06T07:26:24.348Z</time></trkpt><trkpt lat="45.4842805" lon="11.1582591"><ele>252.0</ele><time>2026-04-06T07:26:30.345Z</time></trkpt><trkpt lat="45.4843246" lon="11.1581811"><ele>252.0</ele><time>2026-04-06T07:26:34.423Z</time></trkpt><trkpt lat="45.484366" lon="11.1580995"><ele>252.0</ele><time>2026-04-06T07:26:37.357Z</time></trkpt><trkpt lat="45.4844117" lon="11.1580346"><ele>252.0</ele><time>2026-04-06T07:26:41.356Z</time></trkpt><trkpt lat="45.4843744" lon="11.157939"><ele>254.0</ele><time>2026-04-06T07:26:48.362Z</time></trkpt><trkpt lat="45.4843055" lon="11.1578953"><ele>256.0</ele><time>2026-04-06T07:26:54.354Z</time></trkpt><trkpt lat="45.4842402" lon="11.157883"><ele>258.0</ele><time>2026-04-06T07:26:57.363Z</time></trkpt><trkpt lat="45.4841759" lon="11.1578748"><ele>260.0</ele><time>2026-04-06T07:27:02.35Z</time></trkpt><trkpt lat="45.4841141" lon="11.157851"><ele>262.0</ele><time>2026-04-06T07:27:06.391Z</time></trkpt><trkpt lat="45.4840496" lon="11.1578254"><ele>264.0</ele><time>2026-04-06T07:27:12.353Z</time></trkpt><trkpt lat="45.4839778" lon="11.1577931"><ele>266.0</ele><time>2026-04-06T07:27:17.462Z</time></trkpt><trkpt lat="45.4839166" lon="11.1577514"><ele>266.0</ele><time>2026-04-06T07:27:21.356Z</time></trkpt><trkpt lat="45.4838474" lon="11.1577316"><ele>266.0</ele><time>2026-04-06T07:27:25.367Z</time></trkpt><trkpt lat="45.4837715" lon="11.1577017"><ele>266.0</ele><time>2026-04-06T07:27:30.471Z</time></trkpt><trkpt lat="45.483704" lon="11.1576589"><ele>266.0</ele><time>2026-04-06T07:27:34.356Z</time></trkpt><trkpt lat="45.4836406" lon="11.1576073"><ele>266.0</ele><time>2026-04-06T07:27:39.401Z</time></trkpt><trkpt lat="45.4835907" lon="11.1575467"><ele>266.0</ele><time>2026-04-06T07:27:44.353Z</time></trkpt><trkpt lat="45.4835351" lon="11.1574877"><ele>266.0</ele><time>2026-04-06T07:27:50.41Z</time></trkpt><trkpt lat="45.48347" lon="11.1574467"><ele>266.57142857142856</ele><time>2026-04-06T07:27:57.349Z</time></trkpt><trkpt lat="45.4834064" lon="11.1574232"><ele>267.1428571428571</ele><time>2026-04-06T07:28:03.363Z</time></trkpt><trkpt lat="45.4833458" lon="11.1573806"><ele>267.7142857142857</ele><time>2026-04-06T07:28:09.351Z</time></trkpt><trkpt lat="45.4832771" lon="11.1573523"><ele>268.2857142857143</ele><time>2026-04-06T07:28:17.354Z</time></trkpt><trkpt lat="45.4832077" lon="11.1573267"><ele>268.85714285714283</ele><time>2026-04-06T07:28:23.347Z</time></trkpt><trkpt lat="45.4831325" lon="11.1573193"><ele>269.42857142857144</ele><time>2026-04-06T07:28:28.359Z</time></trkpt><trkpt lat="45.4830692" lon="11.1572857"><ele>270.0</ele><time>2026-04-06T07:28:34.352Z</time></trkpt><trkpt lat="45.4829967" lon="11.1572492"><ele>272.0</ele><time>2026-04-06T07:28:39.347Z</time></trkpt><trkpt lat="45.4829378" lon="11.1572118"><ele>274.0</ele><time>2026-04-06T07:28:44.411Z</time></trkpt><trkpt lat="45.4828781" lon="11.1571709"><ele>276.0</ele><time>2026-04-06T07:28:49.355Z</time></trkpt><trkpt lat="45.4828146" lon="11.157138"><ele>278.0</ele><time>2026-04-06T07:28:54.36Z</time></trkpt><trkpt lat="45.4827509" lon="11.157097"><ele>280.0</ele><time>2026-04-06T07:28:59.355Z</time></trkpt><trkpt lat="45.4827146" lon="11.1570206"><ele>282.0</ele><time>2026-04-06T07:29:05.354Z</time></trkpt><trkpt lat="45.4826667" lon="11.1569616"><ele>284.0</ele><time>2026-04-06T07:29:11.353Z</time></trkpt><trkpt lat="45.4826142" lon="11.1569084"><ele>284.0</ele><time>2026-04-06T07:29:17.356Z</time></trkpt><trkpt lat="45.4825666" lon="11.1568437"><ele>284.0</ele><time>2026-04-06T07:29:23.35Z</time></trkpt><trkpt lat="45.482527" lon="11.1567652"><ele>284.0</ele><time>2026-04-06T07:29:29.363Z</time></trkpt><trkpt lat="45.482486" lon="11.1566955"><ele>284.0</ele><time>2026-04-06T07:29:34.35Z</time></trkpt><trkpt lat="45.4824537" lon="11.1566121"><ele>284.0</ele><time>2026-04-06T07:29:40.381Z</time></trkpt><trkpt lat="45.4824184" lon="11.1565343"><ele>284.0</ele><time>2026-04-06T07:29:46.349Z</time></trkpt><trkpt lat="45.4823544" lon="11.1564734"><ele>284.0</ele><time>2026-04-06T07:29:51.353Z</time></trkpt><trkpt lat="45.4822982" lon="11.1564308"><ele>284.85714285714283</ele><time>2026-04-06T07:29:56.349Z</time></trkpt><trkpt lat="45.4822422" lon="11.156364"><ele>285.71428571428567</ele><time>2026-04-06T07:30:01.414Z</time></trkpt><trkpt lat="45.4821788" lon="11.1562982"><ele>286.57142857142856</ele><time>2026-04-06T07:30:05.347Z</time></trkpt><trkpt lat="45.4821329" lon="11.1562298"><ele>287.42857142857144</ele><time>2026-04-06T07:30:08.355Z</time></trkpt><trkpt lat="45.4820736" lon="11.1561575"><ele>288.28571428571433</ele><time>2026-04-06T07:30:13.357Z</time></trkpt><trkpt lat="45.4820235" lon="11.1560892"><ele>289.14285714285717</ele><time>2026-04-06T07:30:19.352Z</time></trkpt><trkpt lat="45.4819653" lon="11.1560335"><ele>290.0</ele><time>2026-04-06T07:30:25.398Z</time></trkpt><trkpt lat="45.481902" lon="11.1559857"><ele>290.0</ele><time>2026-04-06T07:30:30.407Z</time></trkpt><trkpt lat="45.4818469" lon="11.1559275"><ele>290.0</ele><time>2026-04-06T07:30:34.4Z</time></trkpt><trkpt lat="45.481796" lon="11.155857"><ele>290.0</ele><time>2026-04-06T07:30:38.368Z</time></trkpt><trkpt lat="45.4817386" lon="11.1558109"><ele>290.0</ele><time>2026-04-06T07:30:42.355Z</time></trkpt><trkpt lat="45.4816787" lon="11.155754"><ele>290.0</ele><time>2026-04-06T07:30:47.4Z</time></trkpt><trkpt lat="45.4816216" lon="11.1556941"><ele>290.0</ele><time>2026-04-06T07:30:52.36Z</time></trkpt><trkpt lat="45.4815718" lon="11.1556338"><ele>290.0</ele><time>2026-04-06T07:30:56.35Z</time></trkpt><trkpt lat="45.4815184" lon="11.1555461"><ele>292.7142857142857</ele><time>2026-04-06T07:31:02.405Z</time></trkpt><trkpt lat="45.4814634" lon="11.1554819"><ele>295.42857142857144</ele><time>2026-04-06T07:31:06.357Z</time></trkpt><trkpt lat="45.4814071" lon="11.1554193"><ele>298.14285714285717</ele><time>2026-04-06T07:31:10.356Z</time></trkpt><trkpt lat="45.4813514" lon="11.155364"><ele>300.8571428571429</ele><time>2026-04-06T07:31:14.412Z</time></trkpt><trkpt lat="45.4812946" lon="11.1553104"><ele>303.57142857142856</ele><time>2026-04-06T07:31:18.355Z</time></trkpt><trkpt lat="45.481239" lon="11.1552482"><ele>306.28571428571433</ele><time>2026-04-06T07:31:23.431Z</time></trkpt><trkpt lat="45.4811793" lon="11.1551864"><ele>309.0</ele><time>2026-04-06T07:31:28.345Z</time></trkpt><trkpt lat="45.4811391" lon="11.1551054"><ele>309.00000000000006</ele><time>2026-04-06T07:31:32.367Z</time></trkpt><trkpt lat="45.4810991" lon="11.155027"><ele>309.0</ele><time>2026-04-06T07:31:37.357Z</time></trkpt><trkpt lat="45.4810578" lon="11.1549463"><ele>309.0</ele><time>2026-04-06T07:31:40.364Z</time></trkpt><trkpt lat="45.4810422" lon="11.1548433"><ele>309.0</ele><time>2026-04-06T07:31:47.356Z</time></trkpt><trkpt lat="45.4810594" lon="11.1547316"><ele>309.0</ele><time>2026-04-06T07:31:52.406Z</time></trkpt><trkpt lat="45.4809912" lon="11.1547314"><ele>309.00000000000006</ele><time>2026-04-06T07:31:55.357Z</time></trkpt><trkpt lat="45.4809292" lon="11.1547658"><ele>309.0</ele><time>2026-04-06T07:33:39.356Z</time></trkpt><trkpt lat="45.4808785" lon="11.1548396"><ele>309.0</ele><time>2026-04-06T07:33:45.354Z</time></trkpt><trkpt lat="45.4808447" lon="11.1549329"><ele>309.0</ele><time>2026-04-06T07:33:50.359Z</time></trkpt><trkpt lat="45.4808112" lon="11.1550178"><ele>309.0</ele><time>2026-04-06T07:33:54.356Z</time></trkpt><trkpt lat="45.4807479" lon="11.155097"><ele>309.0</ele><time>2026-04-06T07:33:57.352Z</time></trkpt><trkpt lat="45.4806951" lon="11.155161"><ele>309.0</ele><time>2026-04-06T07:33:59.372Z</time></trkpt><trkpt lat="45.4806349" lon="11.1552396"><ele>309.0</ele><time>2026-04-06T07:34:01.358Z</time></trkpt><trkpt lat="45.4805827" lon="11.1553125"><ele>309.0</ele><time>2026-04-06T07:34:03.354Z</time></trkpt><trkpt lat="45.4805099" lon="11.1553888"><ele>309.0</ele><time>2026-04-06T07:34:05.351Z</time></trkpt><trkpt lat="45.4804392" lon="11.1554624"><ele>309.0</ele><time>2026-04-06T07:34:07.356Z</time></trkpt><trkpt lat="45.4803691" lon="11.1555303"><ele>309.0</ele><time>2026-04-06T07:34:09.355Z</time></trkpt><trkpt lat="45.480336" lon="11.1556216"><ele>309.0</ele><time>2026-04-06T07:34:13.362Z</time></trkpt><trkpt lat="45.4802773" lon="11.1557094"><ele>309.0</ele><time>2026-04-06T07:34:16.355Z</time></trkpt><trkpt lat="45.4802163" lon="11.1557755"><ele>310.00000000000006</ele><time>2026-04-06T07:34:18.358Z</time></trkpt><trkpt lat="45.4801579" lon="11.1558246"><ele>311.0</ele><time>2026-04-06T07:34:20.354Z</time></trkpt><trkpt lat="45.4800964" lon="11.1558705"><ele>312.0</ele><time>2026-04-06T07:34:22.349Z</time></trkpt><trkpt lat="45.4800213" lon="11.1559201"><ele>313.0</ele><time>2026-04-06T07:34:24.438Z</time></trkpt><trkpt lat="45.4799525" lon="11.1559604"><ele>314.0</ele><time>2026-04-06T07:34:26.362Z</time></trkpt><trkpt lat="45.4798874" lon="11.1559971"><ele>315.00000000000006</ele><time>2026-04-06T07:34:28.364Z</time></trkpt><trkpt lat="45.4798266" lon="11.1560544"><ele>316.0</ele><time>2026-04-06T07:34:30.366Z</time></trkpt><trkpt lat="45.4797468" lon="11.156094"><ele>316.0</ele><time>2026-04-06T07:34:33.357Z</time></trkpt><trkpt lat="45.479649" lon="11.156048"><ele>316.0</ele><time>2026-04-06T07:34:36.36Z</time></trkpt><trkpt lat="45.4796199" lon="11.1559454"><ele>316.0</ele><time>2026-04-06T07:34:39.359Z</time></trkpt><trkpt lat="45.4796205" lon="11.1558392"><ele>316.0</ele><time>2026-04-06T07:34:43.35Z</time></trkpt><trkpt lat="45.4796488" lon="11.1557554"><ele>316.0</ele><time>2026-04-06T07:34:45.357Z</time></trkpt><trkpt lat="45.479688" lon="11.15565"><ele>316.0</ele><time>2026-04-06T07:34:48.358Z</time></trkpt><trkpt lat="45.4797369" lon="11.155555"><ele>318.0</ele><time>2026-04-06T07:34:51.355Z</time></trkpt><trkpt lat="45.4797835" lon="11.1554467"><ele>320.0</ele><time>2026-04-06T07:34:54.347Z</time></trkpt><trkpt lat="45.4798319" lon="11.155342"><ele>322.0</ele><time>2026-04-06T07:34:57.354Z</time></trkpt><trkpt lat="45.4798886" lon="11.1552473"><ele>324.0</ele><time>2026-04-06T07:34:59.357Z</time></trkpt><trkpt lat="45.4799437" lon="11.1551375"><ele>326.0</ele><time>2026-04-06T07:35:02.357Z</time></trkpt><trkpt lat="45.4800111" lon="11.1550591"><ele>328.0</ele><time>2026-04-06T07:35:05.345Z</time></trkpt><trkpt lat="45.480056" lon="11.1549916"><ele>328.0</ele><time>2026-04-06T07:35:07.354Z</time></trkpt><trkpt lat="45.480106" lon="11.1548933"><ele>328.0</ele><time>2026-04-06T07:35:10.358Z</time></trkpt><trkpt lat="45.4801475" lon="11.1547914"><ele>328.0</ele><time>2026-04-06T07:35:13.345Z</time></trkpt><trkpt lat="45.4801973" lon="11.1546828"><ele>328.0</ele><time>2026-04-06T07:35:16.349Z</time></trkpt><trkpt lat="45.480228" lon="11.154572"><ele>328.0</ele><time>2026-04-06T07:35:19.43Z</time></trkpt><trkpt lat="45.4802535" lon="11.1544644"><ele>328.0</ele><time>2026-04-06T07:35:22.349Z</time></trkpt><trkpt lat="45.4802864" lon="11.1543553"><ele>329.4285714285714</ele><time>2026-04-06T07:35:25.379Z</time></trkpt><trkpt lat="45.480301" lon="11.1542579"><ele>330.85714285714283</ele><time>2026-04-06T07:35:29.352Z</time></trkpt><trkpt lat="45.4803093" lon="11.154167"><ele>332.2857142857143</ele><time>2026-04-06T07:35:33.351Z</time></trkpt><trkpt lat="45.4803249" lon="11.1540726"><ele>333.71428571428567</ele><time>2026-04-06T07:35:36.359Z</time></trkpt><trkpt lat="45.4803433" lon="11.1539839"><ele>335.1428571428571</ele><time>2026-04-06T07:35:39.367Z</time></trkpt><trkpt lat="45.480368" lon="11.153884"><ele>336.57142857142856</ele><time>2026-04-06T07:35:43.392Z</time></trkpt><trkpt lat="45.4803746" lon="11.1537846"><ele>338.0</ele><time>2026-04-06T07:35:48.352Z</time></trkpt><trkpt lat="45.4803884" lon="11.1536863"><ele>338.7142857142857</ele><time>2026-04-06T07:35:52.354Z</time></trkpt><trkpt lat="45.4804005" lon="11.1535922"><ele>339.42857142857144</ele><time>2026-04-06T07:35:56.355Z</time></trkpt><trkpt lat="45.4803821" lon="11.1534912"><ele>340.1428571428571</ele><time>2026-04-06T07:36:01.366Z</time></trkpt><trkpt lat="45.4803671" lon="11.1533806"><ele>340.8571428571429</ele><time>2026-04-06T07:36:06.352Z</time></trkpt><trkpt lat="45.4803565" lon="11.1532914"><ele>341.57142857142856</ele><time>2026-04-06T07:36:09.35Z</time></trkpt><trkpt lat="45.4803426" lon="11.1531844"><ele>342.2857142857143</ele><time>2026-04-06T07:36:12.371Z</time></trkpt><trkpt lat="45.4803073" lon="11.153089"><ele>343.0</ele><time>2026-04-06T07:36:16.353Z</time></trkpt><trkpt lat="45.480278" lon="11.1530089"><ele>343.66666666666663</ele><time>2026-04-06T07:36:19.35Z</time></trkpt><trkpt lat="45.4802433" lon="11.1529234"><ele>344.3333333333333</ele><time>2026-04-06T07:36:22.353Z</time></trkpt><trkpt lat="45.4801944" lon="11.1528321"><ele>345.0</ele><time>2026-04-06T07:36:25.369Z</time></trkpt><trkpt lat="45.4801685" lon="11.1527273"><ele>345.6666666666667</ele><time>2026-04-06T07:36:28.356Z</time></trkpt><trkpt lat="45.4801285" lon="11.1526452"><ele>346.33333333333337</ele><time>2026-04-06T07:36:32.352Z</time></trkpt><trkpt lat="45.4801357" lon="11.1525364"><ele>347.0</ele><time>2026-04-06T07:36:35.357Z</time></trkpt><trkpt lat="45.4801635" lon="11.1524184"><ele>347.0</ele><time>2026-04-06T07:36:38.369Z</time></trkpt><trkpt lat="45.4801817" lon="11.1523242"><ele>347.0</ele><time>2026-04-06T07:36:42.351Z</time></trkpt><trkpt lat="45.480246" lon="11.1523262"><ele>347.0</ele><time>2026-04-06T07:36:49.36Z</time></trkpt><trkpt lat="45.4803114" lon="11.1523678"><ele>347.0</ele><time>2026-04-06T07:36:52.35Z</time></trkpt><trkpt lat="45.4803739" lon="11.1524442"><ele>347.0</ele><time>2026-04-06T07:36:56.352Z</time></trkpt><trkpt lat="45.4804412" lon="11.1524832"><ele>347.0</ele><time>2026-04-06T07:37:00.359Z</time></trkpt><trkpt lat="45.4805123" lon="11.1525238"><ele>347.0</ele><time>2026-04-06T07:37:03.356Z</time></trkpt><trkpt lat="45.4805855" lon="11.1525596"><ele>347.5714285714286</ele><time>2026-04-06T07:37:07.36Z</time></trkpt><trkpt lat="45.4806411" lon="11.1526071"><ele>348.1428571428571</ele><time>2026-04-06T07:37:10.362Z</time></trkpt><trkpt lat="45.480718" lon="11.1526569"><ele>348.7142857142857</ele><time>2026-04-06T07:37:14.355Z</time></trkpt><trkpt lat="45.4807829" lon="11.1526798"><ele>349.28571428571433</ele><time>2026-04-06T07:37:17.412Z</time></trkpt><trkpt lat="45.4808506" lon="11.1526861"><ele>349.8571428571429</ele><time>2026-04-06T07:37:20.396Z</time></trkpt><trkpt lat="45.4809143" lon="11.152696"><ele>350.42857142857144</ele><time>2026-04-06T07:37:23.388Z</time></trkpt><trkpt lat="45.4809854" lon="11.1527229"><ele>351.0</ele><time>2026-04-06T07:37:26.357Z</time></trkpt><trkpt lat="45.4810459" lon="11.1527771"><ele>351.0</ele><time>2026-04-06T07:37:29.404Z</time></trkpt><trkpt lat="45.4811134" lon="11.152835"><ele>351.0</ele><time>2026-04-06T07:37:32.476Z</time></trkpt><trkpt lat="45.4811744" lon="11.1528635"><ele>351.0</ele><time>2026-04-06T07:37:35.38Z</time></trkpt><trkpt lat="45.4812389" lon="11.1528991"><ele>351.0</ele><time>2026-04-06T07:37:38.441Z</time></trkpt><trkpt lat="45.4813057" lon="11.1529579"><ele>351.0</ele><time>2026-04-06T07:37:42.391Z</time></trkpt><trkpt lat="45.4813861" lon="11.1530222"><ele>351.0</ele><time>2026-04-06T07:37:45.475Z</time></trkpt><trkpt lat="45.481469" lon="11.1530655"><ele>350.8333333333333</ele><time>2026-04-06T07:37:48.396Z</time></trkpt><trkpt lat="45.4815387" lon="11.1530942"><ele>350.6666666666667</ele><time>2026-04-06T07:37:51.363Z</time></trkpt><trkpt lat="45.4816137" lon="11.1531261"><ele>350.5</ele><time>2026-04-06T07:37:55.374Z</time></trkpt><trkpt lat="45.4816868" lon="11.1531774"><ele>350.33333333333337</ele><time>2026-04-06T07:37:59.391Z</time></trkpt><trkpt lat="45.4817652" lon="11.1532188"><ele>350.1666666666667</ele><time>2026-04-06T07:38:03.399Z</time></trkpt><trkpt lat="45.481821" lon="11.1532627"><ele>350.0</ele><time>2026-04-06T07:38:06.39Z</time></trkpt><trkpt lat="45.4820026" lon="11.153348"><ele>350.0</ele><time>2026-04-06T07:38:13.356Z</time></trkpt><trkpt lat="45.4820906" lon="11.1533682"><ele>350.0</ele><time>2026-04-06T07:38:16.354Z</time></trkpt><trkpt lat="45.4821732" lon="11.1533846"><ele>350.0</ele><time>2026-04-06T07:38:20.358Z</time></trkpt><trkpt lat="45.4822521" lon="11.1533998"><ele>350.0</ele><time>2026-04-06T07:38:23.398Z</time></trkpt><trkpt lat="45.4823336" lon="11.1534052"><ele>350.0</ele><time>2026-04-06T07:38:27.376Z</time></trkpt><trkpt lat="45.4824055" lon="11.1534248"><ele>350.0</ele><time>2026-04-06T07:38:31.396Z</time></trkpt><trkpt lat="45.4824694" lon="11.1534174"><ele>351.57142857142856</ele><time>2026-04-06T07:38:34.406Z</time></trkpt><trkpt lat="45.4825532" lon="11.1533969"><ele>353.1428571428571</ele><time>2026-04-06T07:38:37.425Z</time></trkpt><trkpt lat="45.4826236" lon="11.1534213"><ele>354.7142857142857</ele><time>2026-04-06T07:38:40.465Z</time></trkpt><trkpt lat="45.4827023" lon="11.1534262"><ele>356.2857142857143</ele><time>2026-04-06T07:38:43.369Z</time></trkpt><trkpt lat="45.4827706" lon="11.15341"><ele>357.85714285714283</ele><time>2026-04-06T07:38:46.466Z</time></trkpt><trkpt lat="45.4828331" lon="11.1533952"><ele>359.42857142857144</ele><time>2026-04-06T07:38:50.364Z</time></trkpt><trkpt lat="45.4828939" lon="11.1533675"><ele>361.0</ele><time>2026-04-06T07:38:52.397Z</time></trkpt><trkpt lat="45.4829649" lon="11.1533308"><ele>361.14285714285717</ele><time>2026-04-06T07:38:56.349Z</time></trkpt><trkpt lat="45.4830313" lon="11.1532933"><ele>361.2857142857143</ele><time>2026-04-06T07:39:00.454Z</time></trkpt><trkpt lat="45.4830969" lon="11.1532759"><ele>361.42857142857144</ele><time>2026-04-06T07:39:04.385Z</time></trkpt><trkpt lat="45.4831589" lon="11.1532458"><ele>361.57142857142856</ele><time>2026-04-06T07:39:10.351Z</time></trkpt><trkpt lat="45.4832289" lon="11.1532102"><ele>361.71428571428567</ele><time>2026-04-06T07:39:14.346Z</time></trkpt><trkpt lat="45.4832912" lon="11.1531807"><ele>361.85714285714283</ele><time>2026-04-06T07:39:19.358Z</time></trkpt><trkpt lat="45.4833461" lon="11.1531334"><ele>362.0</ele><time>2026-04-06T07:39:23.361Z</time></trkpt><trkpt lat="45.4833991" lon="11.1530719"><ele>362.7142857142857</ele><time>2026-04-06T07:39:27.347Z</time></trkpt><trkpt lat="45.4834483" lon="11.1529966"><ele>363.42857142857144</ele><time>2026-04-06T07:39:32.362Z</time></trkpt><trkpt lat="45.4835051" lon="11.1529276"><ele>364.1428571428571</ele><time>2026-04-06T07:39:38.368Z</time></trkpt><trkpt lat="45.4835609" lon="11.1528597"><ele>364.8571428571429</ele><time>2026-04-06T07:39:43.348Z</time></trkpt><trkpt lat="45.4836157" lon="11.1527998"><ele>365.5714285714286</ele><time>2026-04-06T07:39:46.356Z</time></trkpt><trkpt lat="45.4836728" lon="11.1527571"><ele>366.2857142857143</ele><time>2026-04-06T07:39:49.388Z</time></trkpt><trkpt lat="45.4837267" lon="11.1526911"><ele>367.0</ele><time>2026-04-06T07:39:53.349Z</time></trkpt><trkpt lat="45.4837709" lon="11.1526252"><ele>367.0</ele><time>2026-04-06T07:39:56.782Z</time></trkpt><trkpt lat="45.4838417" lon="11.1525376"><ele>367.0</ele><time>2026-04-06T07:39:59.359Z</time></trkpt><trkpt lat="45.4839085" lon="11.152465"><ele>367.0</ele><time>2026-04-06T07:40:02.368Z</time></trkpt><trkpt lat="45.4839657" lon="11.1524204"><ele>367.0</ele><time>2026-04-06T07:40:05.36Z</time></trkpt><trkpt lat="45.4840234" lon="11.1523646"><ele>367.0</ele><time>2026-04-06T07:40:07.352Z</time></trkpt><trkpt lat="45.4840919" lon="11.1523001"><ele>367.0</ele><time>2026-04-06T07:40:09.361Z</time></trkpt><trkpt lat="45.4842223" lon="11.152195"><ele>367.5</ele><time>2026-04-06T07:40:12.408Z</time></trkpt><trkpt lat="45.4843059" lon="11.1521221"><ele>368.0</ele><time>2026-04-06T07:40:14.357Z</time></trkpt><trkpt lat="45.4843825" lon="11.1520536"><ele>368.5</ele><time>2026-04-06T07:40:16.36Z</time></trkpt><trkpt lat="45.4844611" lon="11.151994"><ele>369.0</ele><time>2026-04-06T07:40:19.382Z</time></trkpt><trkpt lat="45.4845236" lon="11.1519614"><ele>369.5</ele><time>2026-04-06T07:40:21.363Z</time></trkpt><trkpt lat="45.4846" lon="11.1519195"><ele>370.0</ele><time>2026-04-06T07:40:24.385Z</time></trkpt><trkpt lat="45.484671" lon="11.1518533"><ele>370.0</ele><time>2026-04-06T07:40:27.363Z</time></trkpt><trkpt lat="45.4847482" lon="11.1517896"><ele>370.0</ele><time>2026-04-06T07:40:30.369Z</time></trkpt><trkpt lat="45.4848212" lon="11.1517268"><ele>370.0</ele><time>2026-04-06T07:40:32.36Z</time></trkpt><trkpt lat="45.4848775" lon="11.1516861"><ele>370.0</ele><time>2026-04-06T07:40:34.362Z</time></trkpt><trkpt lat="45.4849409" lon="11.1516306"><ele>370.0</ele><time>2026-04-06T07:40:37.389Z</time></trkpt><trkpt lat="45.4850007" lon="11.15159"><ele>370.0</ele><time>2026-04-06T07:40:39.391Z</time></trkpt><trkpt lat="45.4850794" lon="11.1515684"><ele>370.16666666666663</ele><time>2026-04-06T07:40:41.458Z</time></trkpt><trkpt lat="45.4851542" lon="11.151537"><ele>370.3333333333333</ele><time>2026-04-06T07:40:43.387Z</time></trkpt><trkpt lat="45.4852334" lon="11.1514959"><ele>370.5</ele><time>2026-04-06T07:40:45.403Z</time></trkpt><trkpt lat="45.4853161" lon="11.1514518"><ele>370.6666666666667</ele><time>2026-04-06T07:40:47.411Z</time></trkpt><trkpt lat="45.4853996" lon="11.151427"><ele>370.83333333333337</ele><time>2026-04-06T07:40:49.363Z</time></trkpt><trkpt lat="45.4854705" lon="11.1514172"><ele>371.0</ele><time>2026-04-06T07:40:51.366Z</time></trkpt><trkpt lat="45.4855445" lon="11.1514004"><ele>371.0</ele><time>2026-04-06T07:40:54.463Z</time></trkpt><trkpt lat="45.4856184" lon="11.1513885"><ele>371.0</ele><time>2026-04-06T07:40:57.471Z</time></trkpt><trkpt lat="45.4856988" lon="11.1513655"><ele>371.0</ele><time>2026-04-06T07:41:01.431Z</time></trkpt><trkpt lat="45.4857761" lon="11.1513899"><ele>371.0</ele><time>2026-04-06T07:41:05.36Z</time></trkpt><trkpt lat="45.4858631" lon="11.1513792"><ele>371.0</ele><time>2026-04-06T07:41:08.354Z</time></trkpt><trkpt lat="45.4859236" lon="11.1513351"><ele>371.0</ele><time>2026-04-06T07:41:10.355Z</time></trkpt><trkpt lat="45.4860143" lon="11.1512775"><ele>371.0</ele><time>2026-04-06T07:41:13.357Z</time></trkpt><trkpt lat="45.4860941" lon="11.1512316"><ele>371.0</ele><time>2026-04-06T07:41:16.356Z</time></trkpt><trkpt lat="45.4861728" lon="11.1512037"><ele>371.0</ele><time>2026-04-06T07:41:18.357Z</time></trkpt><trkpt lat="45.4862508" lon="11.1511819"><ele>371.0</ele><time>2026-04-06T07:41:20.351Z</time></trkpt><trkpt lat="45.4863383" lon="11.1511541"><ele>371.0</ele><time>2026-04-06T07:41:23.356Z</time></trkpt><trkpt lat="45.4864185" lon="11.151125"><ele>371.0</ele><time>2026-04-06T07:41:26.365Z</time></trkpt><trkpt lat="45.4864853" lon="11.1510913"><ele>371.1666666666667</ele><time>2026-04-06T07:41:29.359Z</time></trkpt><trkpt lat="45.4865722" lon="11.1510451"><ele>371.33333333333337</ele><time>2026-04-06T07:41:32.36Z</time></trkpt><trkpt lat="45.4866441" lon="11.1509965"><ele>371.5</ele><time>2026-04-06T07:41:35.357Z</time></trkpt><trkpt lat="45.4867088" lon="11.1509678"><ele>371.6666666666667</ele><time>2026-04-06T07:41:37.356Z</time></trkpt><trkpt lat="45.4867744" lon="11.1509504"><ele>371.8333333333333</ele><time>2026-04-06T07:41:39.36Z</time></trkpt><trkpt lat="45.4868738" lon="11.1509189"><ele>372.0</ele><time>2026-04-06T07:41:42.36Z</time></trkpt><trkpt lat="45.4869648" lon="11.1508761"><ele>372.0</ele><time>2026-04-06T07:41:44.368Z</time></trkpt><trkpt lat="45.4870444" lon="11.1508439"><ele>372.0</ele><time>2026-04-06T07:41:46.362Z</time></trkpt><trkpt lat="45.4871191" lon="11.1508151"><ele>372.0</ele><time>2026-04-06T07:41:48.356Z</time></trkpt><trkpt lat="45.4871948" lon="11.1507837"><ele>372.0</ele><time>2026-04-06T07:41:50.364Z</time></trkpt><trkpt lat="45.4872642" lon="11.1507399"><ele>372.0</ele><time>2026-04-06T07:41:52.358Z</time></trkpt><trkpt lat="45.487339" lon="11.1507144"><ele>372.0</ele><time>2026-04-06T07:41:54.362Z</time></trkpt><trkpt lat="45.4874187" lon="11.1506909"><ele>372.6</ele><time>2026-04-06T07:41:56.355Z</time></trkpt><trkpt lat="45.4875035" lon="11.150659"><ele>373.20000000000005</ele><time>2026-04-06T07:41:58.359Z</time></trkpt><trkpt lat="45.4875803" lon="11.1505994"><ele>373.8</ele><time>2026-04-06T07:42:00.357Z</time></trkpt><trkpt lat="45.4876727" lon="11.1505449"><ele>374.4</ele><time>2026-04-06T07:42:02.352Z</time></trkpt><trkpt lat="45.4877687" lon="11.1505113"><ele>375.0</ele><time>2026-04-06T07:42:04.365Z</time></trkpt><trkpt lat="45.4879077" lon="11.1504498"><ele>375.8</ele><time>2026-04-06T07:42:07.383Z</time></trkpt><trkpt lat="45.4880205" lon="11.1504436"><ele>376.6</ele><time>2026-04-06T07:42:09.378Z</time></trkpt><trkpt lat="45.488128" lon="11.1504288"><ele>377.4</ele><time>2026-04-06T07:42:11.392Z</time></trkpt><trkpt lat="45.4882225" lon="11.1504191"><ele>378.2</ele><time>2026-04-06T07:42:13.367Z</time></trkpt><trkpt lat="45.4883441" lon="11.1504402"><ele>379.0</ele><time>2026-04-06T07:42:15.357Z</time></trkpt><trkpt lat="45.4884885" lon="11.1504611"><ele>379.0</ele><time>2026-04-06T07:42:18.353Z</time></trkpt><trkpt lat="45.4885635" lon="11.1504649"><ele>379.0</ele><time>2026-04-06T07:42:20.465Z</time></trkpt><trkpt lat="45.4886424" lon="11.1504612"><ele>379.0</ele><time>2026-04-06T07:42:22.471Z</time></trkpt><trkpt lat="45.4887228" lon="11.150466"><ele>379.0</ele><time>2026-04-06T07:42:24.437Z</time></trkpt><trkpt lat="45.4888053" lon="11.1504722"><ele>379.0</ele><time>2026-04-06T07:42:26.428Z</time></trkpt><trkpt lat="45.4889091" lon="11.15047"><ele>379.0</ele><time>2026-04-06T07:42:29.402Z</time></trkpt><trkpt lat="45.4889945" lon="11.1504593"><ele>379.28571428571433</ele><time>2026-04-06T07:42:32.478Z</time></trkpt><trkpt lat="45.4890629" lon="11.150451"><ele>379.57142857142856</ele><time>2026-04-06T07:42:34.346Z</time></trkpt><trkpt lat="45.4891311" lon="11.1504422"><ele>379.8571428571429</ele><time>2026-04-06T07:42:36.423Z</time></trkpt><trkpt lat="45.4892031" lon="11.1504253"><ele>380.14285714285717</ele><time>2026-04-06T07:42:38.424Z</time></trkpt><trkpt lat="45.4892746" lon="11.1503964"><ele>380.42857142857144</ele><time>2026-04-06T07:42:40.413Z</time></trkpt><trkpt lat="45.48934" lon="11.1503657"><ele>380.7142857142857</ele><time>2026-04-06T07:42:42.401Z</time></trkpt><trkpt lat="45.4894263" lon="11.1503173"><ele>381.0</ele><time>2026-04-06T07:42:45.366Z</time></trkpt><trkpt lat="45.489496" lon="11.1502874"><ele>381.0</ele><time>2026-04-06T07:42:47.365Z</time></trkpt><trkpt lat="45.489558" lon="11.1502574"><ele>381.0</ele><time>2026-04-06T07:42:49.392Z</time></trkpt><trkpt lat="45.4896194" lon="11.1502226"><ele>381.0</ele><time>2026-04-06T07:42:51.451Z</time></trkpt><trkpt lat="45.4896925" lon="11.1501655"><ele>381.0</ele><time>2026-04-06T07:42:54.378Z</time></trkpt><trkpt lat="45.4897742" lon="11.1501085"><ele>381.0</ele><time>2026-04-06T07:42:57.361Z</time></trkpt><trkpt lat="45.4898548" lon="11.1500749"><ele>381.0</ele><time>2026-04-06T07:43:00.359Z</time></trkpt><trkpt lat="45.4899155" lon="11.1500154"><ele>380.3333333333333</ele><time>2026-04-06T07:43:03.409Z</time></trkpt><trkpt lat="45.4899719" lon="11.1499689"><ele>379.6666666666667</ele><time>2026-04-06T07:43:05.389Z</time></trkpt><trkpt lat="45.4900717" lon="11.14992"><ele>379.0</ele><time>2026-04-06T07:43:08.441Z</time></trkpt><trkpt lat="45.4901519" lon="11.1498883"><ele>378.33333333333337</ele><time>2026-04-06T07:43:11.443Z</time></trkpt><trkpt lat="45.4902256" lon="11.149845"><ele>377.6666666666667</ele><time>2026-04-06T07:43:14.39Z</time></trkpt><trkpt lat="45.4902843" lon="11.1498103"><ele>377.0</ele><time>2026-04-06T07:43:16.455Z</time></trkpt><trkpt lat="45.4903506" lon="11.1497732"><ele>377.83333333333337</ele><time>2026-04-06T07:43:18.384Z</time></trkpt><trkpt lat="45.490426" lon="11.1497273"><ele>378.6666666666667</ele><time>2026-04-06T07:43:21.408Z</time></trkpt><trkpt lat="45.4905145" lon="11.1496808"><ele>379.5</ele><time>2026-04-06T07:43:24.362Z</time></trkpt><trkpt lat="45.4905729" lon="11.1496389"><ele>380.3333333333333</ele><time>2026-04-06T07:43:26.36Z</time></trkpt><trkpt lat="45.4906515" lon="11.1495816"><ele>381.16666666666663</ele><time>2026-04-06T07:43:29.467Z</time></trkpt><trkpt lat="45.4907185" lon="11.1495313"><ele>382.0</ele><time>2026-04-06T07:43:32.466Z</time></trkpt><trkpt lat="45.4907858" lon="11.1494819"><ele>382.0</ele><time>2026-04-06T07:43:35.423Z</time></trkpt><trkpt lat="45.4908595" lon="11.149428"><ele>382.0</ele><time>2026-04-06T07:43:38.363Z</time></trkpt><trkpt lat="45.4909323" lon="11.1493821"><ele>382.0</ele><time>2026-04-06T07:43:41.417Z</time></trkpt><trkpt lat="45.4910001" lon="11.1493514"><ele>382.0</ele><time>2026-04-06T07:43:43.423Z</time></trkpt><trkpt lat="45.4910691" lon="11.1493155"><ele>382.0</ele><time>2026-04-06T07:43:45.4Z</time></trkpt><trkpt lat="45.4911336" lon="11.1492868"><ele>382.0</ele><time>2026-04-06T07:43:47.422Z</time></trkpt><trkpt lat="45.4912289" lon="11.1492784"><ele>381.16666666666663</ele><time>2026-04-06T07:43:51.402Z</time></trkpt><trkpt lat="45.491308" lon="11.1492522"><ele>380.3333333333333</ele><time>2026-04-06T07:43:54.427Z</time></trkpt><trkpt lat="45.4913921" lon="11.1492092"><ele>379.5</ele><time>2026-04-06T07:43:57.413Z</time></trkpt><trkpt lat="45.4914527" lon="11.1491672"><ele>378.6666666666667</ele><time>2026-04-06T07:43:59.393Z</time></trkpt><trkpt lat="45.4915117" lon="11.1491161"><ele>377.83333333333337</ele><time>2026-04-06T07:44:02.41Z</time></trkpt><trkpt lat="45.4915856" lon="11.1490587"><ele>377.0</ele><time>2026-04-06T07:44:05.481Z</time></trkpt><trkpt lat="45.4916644" lon="11.1489879"><ele>378.6666666666667</ele><time>2026-04-06T07:44:08.404Z</time></trkpt><trkpt lat="45.4917325" lon="11.1489185"><ele>380.33333333333337</ele><time>2026-04-06T07:44:11.422Z</time></trkpt><trkpt lat="45.4918038" lon="11.1488379"><ele>382.0</ele><time>2026-04-06T07:44:14.356Z</time></trkpt><trkpt lat="45.4918543" lon="11.1487744"><ele>383.6666666666667</ele><time>2026-04-06T07:44:16.361Z</time></trkpt><trkpt lat="45.4919055" lon="11.1487036"><ele>385.3333333333333</ele><time>2026-04-06T07:44:18.357Z</time></trkpt><trkpt lat="45.4919648" lon="11.1486305"><ele>387.0</ele><time>2026-04-06T07:44:20.357Z</time></trkpt><trkpt lat="45.4920109" lon="11.1485472"><ele>387.0</ele><time>2026-04-06T07:44:22.364Z</time></trkpt><trkpt lat="45.4920576" lon="11.14846"><ele>387.0</ele><time>2026-04-06T07:44:24.359Z</time></trkpt><trkpt lat="45.4921193" lon="11.1483462"><ele>387.0</ele><time>2026-04-06T07:44:26.355Z</time></trkpt><trkpt lat="45.492171" lon="11.1482427"><ele>387.0</ele><time>2026-04-06T07:44:28.363Z</time></trkpt><trkpt lat="45.49222" lon="11.1481305"><ele>387.0</ele><time>2026-04-06T07:44:30.357Z</time></trkpt><trkpt lat="45.4922513" lon="11.1480384"><ele>387.0</ele><time>2026-04-06T07:44:32.365Z</time></trkpt><trkpt lat="45.4922843" lon="11.1479288"><ele>386.3333333333333</ele><time>2026-04-06T07:44:34.358Z</time></trkpt><trkpt lat="45.4923261" lon="11.1478149"><ele>385.6666666666667</ele><time>2026-04-06T07:44:36.357Z</time></trkpt><trkpt lat="45.4923773" lon="11.1477217"><ele>385.0</ele><time>2026-04-06T07:44:38.362Z</time></trkpt><trkpt lat="45.4924298" lon="11.1476572"><ele>384.33333333333337</ele><time>2026-04-06T07:44:40.364Z</time></trkpt><trkpt lat="45.4924932" lon="11.1475854"><ele>383.6666666666667</ele><time>2026-04-06T07:44:42.361Z</time></trkpt><trkpt lat="45.4925526" lon="11.1474924"><ele>383.0</ele><time>2026-04-06T07:44:44.374Z</time></trkpt><trkpt lat="45.4926104" lon="11.1474091"><ele>383.0</ele><time>2026-04-06T07:44:46.42Z</time></trkpt><trkpt lat="45.492669" lon="11.1473298"><ele>383.0</ele><time>2026-04-06T07:44:48.505Z</time></trkpt><trkpt lat="45.4927226" lon="11.1472479"><ele>383.0</ele><time>2026-04-06T07:44:50.984Z</time></trkpt><trkpt lat="45.492787" lon="11.1471688"><ele>383.0</ele><time>2026-04-06T07:44:52.421Z</time></trkpt><trkpt lat="45.4928495" lon="11.1470992"><ele>383.0</ele><time>2026-04-06T07:44:54.364Z</time></trkpt><trkpt lat="45.4929065" lon="11.1470333"><ele>383.0</ele><time>2026-04-06T07:44:56.406Z</time></trkpt><trkpt lat="45.4929559" lon="11.1469701"><ele>383.0</ele><time>2026-04-06T07:44:58.355Z</time></trkpt><trkpt lat="45.4930102" lon="11.1468842"><ele>383.0</ele><time>2026-04-06T07:45:00.362Z</time></trkpt><trkpt lat="45.4930616" lon="11.1468056"><ele>383.0</ele><time>2026-04-06T07:45:02.366Z</time></trkpt><trkpt lat="45.4931261" lon="11.1467279"><ele>383.0</ele><time>2026-04-06T07:45:04.361Z</time></trkpt><trkpt lat="45.4931975" lon="11.1466453"><ele>383.0</ele><time>2026-04-06T07:45:06.364Z</time></trkpt><trkpt lat="45.4932763" lon="11.1465588"><ele>383.0</ele><time>2026-04-06T07:45:08.357Z</time></trkpt><trkpt lat="45.4933836" lon="11.1464172"><ele>383.59999999999997</ele><time>2026-04-06T07:45:11.391Z</time></trkpt><trkpt lat="45.4934497" lon="11.1463359"><ele>384.2</ele><time>2026-04-06T07:45:13.395Z</time></trkpt><trkpt lat="45.4935607" lon="11.1462223"><ele>384.8</ele><time>2026-04-06T07:45:16.379Z</time></trkpt><trkpt lat="45.4936583" lon="11.146124"><ele>385.4</ele><time>2026-04-06T07:45:19.404Z</time></trkpt><trkpt lat="45.4937253" lon="11.146071"><ele>386.0</ele><time>2026-04-06T07:45:21.479Z</time></trkpt><trkpt lat="45.4937923" lon="11.1460231"><ele>386.14285714285717</ele><time>2026-04-06T07:45:23.379Z</time></trkpt><trkpt lat="45.4938571" lon="11.1459957"><ele>386.2857142857143</ele><time>2026-04-06T07:45:25.406Z</time></trkpt><trkpt lat="45.4939284" lon="11.1459767"><ele>386.42857142857144</ele><time>2026-04-06T07:45:27.415Z</time></trkpt><trkpt lat="45.4940027" lon="11.1459655"><ele>386.57142857142856</ele><time>2026-04-06T07:45:29.393Z</time></trkpt><trkpt lat="45.4940806" lon="11.1459378"><ele>386.7142857142857</ele><time>2026-04-06T07:45:33.229Z</time></trkpt><trkpt lat="45.494158" lon="11.1459236"><ele>386.8571428571429</ele><time>2026-04-06T07:45:35.345Z</time></trkpt><trkpt lat="45.4942295" lon="11.1459108"><ele>387.0</ele><time>2026-04-06T07:45:38.352Z</time></trkpt><trkpt lat="45.4942983" lon="11.1459069"><ele>387.0</ele><time>2026-04-06T07:45:41.486Z</time></trkpt><trkpt lat="45.4943825" lon="11.1459026"><ele>387.0</ele><time>2026-04-06T07:45:44.356Z</time></trkpt><trkpt lat="45.4944678" lon="11.1458999"><ele>387.0</ele><time>2026-04-06T07:45:47.437Z</time></trkpt><trkpt lat="45.4945535" lon="11.1459064"><ele>387.0</ele><time>2026-04-06T07:45:50.375Z</time></trkpt><trkpt lat="45.4946276" lon="11.1458992"><ele>387.0</ele><time>2026-04-06T07:45:53.387Z</time></trkpt><trkpt lat="45.4946988" lon="11.1458843"><ele>387.0</ele><time>2026-04-06T07:45:56.39Z</time></trkpt><trkpt lat="45.4947618" lon="11.1458444"><ele>387.7142857142857</ele><time>2026-04-06T07:46:01.394Z</time></trkpt><trkpt lat="45.4947898" lon="11.1457511"><ele>388.42857142857144</ele><time>2026-04-06T07:46:06.481Z</time></trkpt><trkpt lat="45.49477" lon="11.1456512"><ele>389.1428571428571</ele><time>2026-04-06T07:46:10.356Z</time></trkpt><trkpt lat="45.494794" lon="11.1455632"><ele>389.8571428571429</ele><time>2026-04-06T07:46:21.353Z</time></trkpt><trkpt lat="45.4948648" lon="11.1455852"><ele>390.57142857142856</ele><time>2026-04-06T07:46:25.408Z</time></trkpt><trkpt lat="45.4949421" lon="11.1455935"><ele>391.2857142857143</ele><time>2026-04-06T07:46:29.394Z</time></trkpt><trkpt lat="45.4950067" lon="11.1456073"><ele>392.0</ele><time>2026-04-06T07:46:32.427Z</time></trkpt><trkpt lat="45.495072" lon="11.1456215"><ele>392.7142857142857</ele><time>2026-04-06T07:46:35.379Z</time></trkpt><trkpt lat="45.4951445" lon="11.1456502"><ele>393.42857142857144</ele><time>2026-04-06T07:46:39.391Z</time></trkpt><trkpt lat="45.4952074" lon="11.1456799"><ele>394.1428571428571</ele><time>2026-04-06T07:46:42.361Z</time></trkpt><trkpt lat="45.4952874" lon="11.1456983"><ele>394.8571428571429</ele><time>2026-04-06T07:46:46.36Z</time></trkpt><trkpt lat="45.4953557" lon="11.1456939"><ele>395.57142857142856</ele><time>2026-04-06T07:46:50.362Z</time></trkpt><trkpt lat="45.4954348" lon="11.1456657"><ele>396.2857142857143</ele><time>2026-04-06T07:46:56.4Z</time></trkpt><trkpt lat="45.4955094" lon="11.1456644"><ele>397.0</ele><time>2026-04-06T07:47:02.392Z</time></trkpt><trkpt lat="45.4955798" lon="11.1456616"><ele>398.57142857142856</ele><time>2026-04-06T07:47:10.356Z</time></trkpt><trkpt lat="45.4956525" lon="11.1456692"><ele>400.1428571428571</ele><time>2026-04-06T07:47:13.41Z</time></trkpt><trkpt lat="45.495715" lon="11.1456857"><ele>401.7142857142857</ele><time>2026-04-06T07:47:16.381Z</time></trkpt><trkpt lat="45.4957935" lon="11.1456935"><ele>403.2857142857143</ele><time>2026-04-06T07:47:21.462Z</time></trkpt><trkpt lat="45.4958652" lon="11.1456826"><ele>404.8571428571429</ele><time>2026-04-06T07:47:25.437Z</time></trkpt><trkpt lat="45.4959438" lon="11.1456674"><ele>406.42857142857144</ele><time>2026-04-06T07:47:30.412Z</time></trkpt><trkpt lat="45.4960151" lon="11.1456431"><ele>408.0</ele><time>2026-04-06T07:47:34.391Z</time></trkpt><trkpt lat="45.4960838" lon="11.1455942"><ele>408.0</ele><time>2026-04-06T07:47:38.355Z</time></trkpt><trkpt lat="45.4961483" lon="11.1455629"><ele>408.0</ele><time>2026-04-06T07:47:42.477Z</time></trkpt><trkpt lat="45.4962034" lon="11.1455157"><ele>408.0</ele><time>2026-04-06T07:47:45.39Z</time></trkpt><trkpt lat="45.4962707" lon="11.1454558"><ele>408.0</ele><time>2026-04-06T07:47:49.453Z</time></trkpt><trkpt lat="45.4963192" lon="11.1453982"><ele>408.0</ele><time>2026-04-06T07:47:52.448Z</time></trkpt><trkpt lat="45.4963844" lon="11.145353"><ele>408.0</ele><time>2026-04-06T07:47:55.397Z</time></trkpt><trkpt lat="45.4964503" lon="11.1453051"><ele>408.0</ele><time>2026-04-06T07:47:59.393Z</time></trkpt><trkpt lat="45.4965326" lon="11.1452555"><ele>408.7142857142857</ele><time>2026-04-06T07:48:04.417Z</time></trkpt><trkpt lat="45.4965979" lon="11.145266"><ele>409.42857142857144</ele><time>2026-04-06T07:48:13.405Z</time></trkpt><trkpt lat="45.4966686" lon="11.1452483"><ele>410.1428571428571</ele><time>2026-04-06T07:48:17.396Z</time></trkpt><trkpt lat="45.4967449" lon="11.1452314"><ele>410.8571428571429</ele><time>2026-04-06T07:48:21.399Z</time></trkpt><trkpt lat="45.4968134" lon="11.1452301"><ele>411.57142857142856</ele><time>2026-04-06T07:48:25.394Z</time></trkpt><trkpt lat="45.4968857" lon="11.1452365"><ele>412.2857142857143</ele><time>2026-04-06T07:48:29.479Z</time></trkpt><trkpt lat="45.4969655" lon="11.1452268"><ele>413.0</ele><time>2026-04-06T07:48:33.404Z</time></trkpt><trkpt lat="45.4970386" lon="11.1452459"><ele>414.14285714285717</ele><time>2026-04-06T07:48:37.431Z</time></trkpt><trkpt lat="45.4971186" lon="11.1452635"><ele>415.2857142857143</ele><time>2026-04-06T07:48:41.363Z</time></trkpt><trkpt lat="45.4971902" lon="11.1452567"><ele>416.42857142857144</ele><time>2026-04-06T07:48:47.414Z</time></trkpt><trkpt lat="45.4972539" lon="11.1452551"><ele>417.57142857142856</ele><time>2026-04-06T07:48:51.414Z</time></trkpt><trkpt lat="45.4973242" lon="11.1452622"><ele>418.7142857142857</ele><time>2026-04-06T07:48:55.367Z</time></trkpt><trkpt lat="45.497392" lon="11.1452717"><ele>419.8571428571429</ele><time>2026-04-06T07:48:59.363Z</time></trkpt><trkpt lat="45.4974632" lon="11.1452866"><ele>421.0</ele><time>2026-04-06T07:49:03.381Z</time></trkpt><trkpt lat="45.4975278" lon="11.1453066"><ele>421.00000000000006</ele><time>2026-04-06T07:49:06.373Z</time></trkpt><trkpt lat="45.4975939" lon="11.1453018"><ele>421.0</ele><time>2026-04-06T07:49:10.4Z</time></trkpt><trkpt lat="45.4976623" lon="11.1452953"><ele>421.0</ele><time>2026-04-06T07:49:14.395Z</time></trkpt><trkpt lat="45.4977855" lon="11.1452912"><ele>421.0</ele><time>2026-04-06T07:49:21.409Z</time></trkpt><trkpt lat="45.4978597" lon="11.1452987"><ele>421.00000000000006</ele><time>2026-04-06T07:49:25.411Z</time></trkpt><trkpt lat="45.4979372" lon="11.1453103"><ele>421.0</ele><time>2026-04-06T07:49:29.355Z</time></trkpt><trkpt lat="45.4980486" lon="11.1453157"><ele>423.0</ele><time>2026-04-06T07:49:36.359Z</time></trkpt><trkpt lat="45.4981278" lon="11.1453226"><ele>425.0</ele><time>2026-04-06T07:49:40.364Z</time></trkpt><trkpt lat="45.4983447" lon="11.1453343"><ele>427.0</ele><time>2026-04-06T07:49:53.401Z</time></trkpt><trkpt lat="45.4984123" lon="11.1453458"><ele>429.0</ele><time>2026-04-06T07:49:56.43Z</time></trkpt><trkpt lat="45.4985077" lon="11.1453458"><ele>429.0</ele><time>2026-04-06T07:50:01.443Z</time></trkpt><trkpt lat="45.4985911" lon="11.1453503"><ele>429.0</ele><time>2026-04-06T07:50:05.438Z</time></trkpt><trkpt lat="45.4986557" lon="11.1453556"><ele>429.0</ele><time>2026-04-06T07:50:09.415Z</time></trkpt><trkpt lat="45.4987209" lon="11.1453729"><ele>429.0</ele><time>2026-04-06T07:50:14.374Z</time></trkpt><trkpt lat="45.4987848" lon="11.1453808"><ele>429.0</ele><time>2026-04-06T07:50:18.371Z</time></trkpt><trkpt lat="45.4988585" lon="11.1453843"><ele>429.0</ele><time>2026-04-06T07:50:23.38Z</time></trkpt><trkpt lat="45.4989428" lon="11.1453942"><ele>429.0</ele><time>2026-04-06T07:50:27.377Z</time></trkpt><trkpt lat="45.4990196" lon="11.1453936"><ele>431.0</ele><time>2026-04-06T07:50:31.39Z</time></trkpt><trkpt lat="45.4990894" lon="11.1454118"><ele>433.0</ele><time>2026-04-06T07:50:34.412Z</time></trkpt><trkpt lat="45.4991532" lon="11.1454254"><ele>435.0</ele><time>2026-04-06T07:50:37.406Z</time></trkpt><trkpt lat="45.4992276" lon="11.1454335"><ele>437.0</ele><time>2026-04-06T07:50:41.407Z</time></trkpt><trkpt lat="45.4994386" lon="11.1454735"><ele>439.0</ele><time>2026-04-06T07:50:52.41Z</time></trkpt><trkpt lat="45.4995204" lon="11.1454937"><ele>440.1428571428571</ele><time>2026-04-06T07:50:56.41Z</time></trkpt><trkpt lat="45.4995852" lon="11.1455206"><ele>441.2857142857143</ele><time>2026-04-06T07:51:00.377Z</time></trkpt><trkpt lat="45.4996477" lon="11.1455354"><ele>442.42857142857144</ele><time>2026-04-06T07:51:03.418Z</time></trkpt><trkpt lat="45.4997132" lon="11.1455485"><ele>443.57142857142856</ele><time>2026-04-06T07:51:06.449Z</time></trkpt><trkpt lat="45.4997941" lon="11.1455613"><ele>444.7142857142857</ele><time>2026-04-06T07:51:10.402Z</time></trkpt><trkpt lat="45.4998632" lon="11.1455742"><ele>445.85714285714283</ele><time>2026-04-06T07:51:13.36Z</time></trkpt><trkpt lat="45.4999377" lon="11.1455987"><ele>447.0</ele><time>2026-04-06T07:51:16.358Z</time></trkpt><trkpt lat="45.5000198" lon="11.1456272"><ele>447.0</ele><time>2026-04-06T07:51:19.353Z</time></trkpt><trkpt lat="45.5001042" lon="11.1456467"><ele>447.0</ele><time>2026-04-06T07:51:22.354Z</time></trkpt><trkpt lat="45.5001862" lon="11.1456819"><ele>447.0</ele><time>2026-04-06T07:51:25.362Z</time></trkpt><trkpt lat="45.5002681" lon="11.1457251"><ele>447.0</ele><time>2026-04-06T07:51:28.352Z</time></trkpt><trkpt lat="45.500347" lon="11.1457649"><ele>447.0</ele><time>2026-04-06T07:51:31.349Z</time></trkpt><trkpt lat="45.5004235" lon="11.1457926"><ele>447.0</ele><time>2026-04-06T07:51:34.362Z</time></trkpt><trkpt lat="45.5005074" lon="11.1458353"><ele>446.1666666666667</ele><time>2026-04-06T07:51:38.36Z</time></trkpt><trkpt lat="45.5005878" lon="11.1458617"><ele>445.33333333333337</ele><time>2026-04-06T07:51:41.364Z</time></trkpt><trkpt lat="45.5006661" lon="11.1458998"><ele>444.5</ele><time>2026-04-06T07:51:44.361Z</time></trkpt><trkpt lat="45.5007341" lon="11.145933"><ele>443.6666666666667</ele><time>2026-04-06T07:51:47.369Z</time></trkpt><trkpt lat="45.5008126" lon="11.1459609"><ele>442.83333333333337</ele><time>2026-04-06T07:51:50.364Z</time></trkpt><trkpt lat="45.5008904" lon="11.1460073"><ele>442.0</ele><time>2026-04-06T07:51:53.39Z</time></trkpt><trkpt lat="45.5009709" lon="11.1460499"><ele>442.00000000000006</ele><time>2026-04-06T07:51:56.364Z</time></trkpt><trkpt lat="45.5010573" lon="11.1460797"><ele>442.0</ele><time>2026-04-06T07:51:59.366Z</time></trkpt><trkpt lat="45.5011489" lon="11.1461272"><ele>442.0</ele><time>2026-04-06T07:52:02.361Z</time></trkpt><trkpt lat="45.5012102" lon="11.1461587"><ele>442.0</ele><time>2026-04-06T07:52:04.376Z</time></trkpt><trkpt lat="45.5012719" lon="11.1461868"><ele>442.00000000000006</ele><time>2026-04-06T07:52:06.365Z</time></trkpt><trkpt lat="45.5013373" lon="11.1462102"><ele>442.0</ele><time>2026-04-06T07:52:08.363Z</time></trkpt><trkpt lat="45.5014292" lon="11.1462412"><ele>443.1666666666667</ele><time>2026-04-06T07:52:11.363Z</time></trkpt><trkpt lat="45.5014894" lon="11.1462682"><ele>444.33333333333337</ele><time>2026-04-06T07:52:13.357Z</time></trkpt><trkpt lat="45.5015782" lon="11.1463096"><ele>445.5</ele><time>2026-04-06T07:52:16.368Z</time></trkpt><trkpt lat="45.5016662" lon="11.1463399"><ele>446.66666666666663</ele><time>2026-04-06T07:52:19.36Z</time></trkpt><trkpt lat="45.5017325" lon="11.1463705"><ele>447.8333333333333</ele><time>2026-04-06T07:52:21.367Z</time></trkpt><trkpt lat="45.5018015" lon="11.1463992"><ele>449.0</ele><time>2026-04-06T07:52:23.364Z</time></trkpt><trkpt lat="45.5018725" lon="11.146421"><ele>449.0</ele><time>2026-04-06T07:52:25.358Z</time></trkpt><trkpt lat="45.5019405" lon="11.1464439"><ele>448.99999999999994</ele><time>2026-04-06T07:52:27.359Z</time></trkpt><trkpt lat="45.5020059" lon="11.1464705"><ele>449.0</ele><time>2026-04-06T07:52:29.363Z</time></trkpt><trkpt lat="45.5020722" lon="11.1465034"><ele>449.0</ele><time>2026-04-06T07:52:31.367Z</time></trkpt><trkpt lat="45.5021417" lon="11.1465281"><ele>448.99999999999994</ele><time>2026-04-06T07:52:33.361Z</time></trkpt><trkpt lat="45.5022118" lon="11.1465575"><ele>449.0</ele><time>2026-04-06T07:52:35.361Z</time></trkpt><trkpt lat="45.5022783" lon="11.1465854"><ele>449.0</ele><time>2026-04-06T07:52:37.356Z</time></trkpt><trkpt lat="45.5023433" lon="11.1466115"><ele>448.0</ele><time>2026-04-06T07:52:39.398Z</time></trkpt><trkpt lat="45.5024078" lon="11.1466439"><ele>446.99999999999994</ele><time>2026-04-06T07:52:41.389Z</time></trkpt><trkpt lat="45.5024753" lon="11.1466666"><ele>446.0</ele><time>2026-04-06T07:52:43.364Z</time></trkpt><trkpt lat="45.502545" lon="11.1466906"><ele>445.0</ele><time>2026-04-06T07:52:45.404Z</time></trkpt><trkpt lat="45.5026125" lon="11.1467154"><ele>444.0</ele><time>2026-04-06T07:52:47.401Z</time></trkpt><trkpt lat="45.5026808" lon="11.1467409"><ele>443.0</ele><time>2026-04-06T07:52:49.418Z</time></trkpt><trkpt lat="45.5027437" lon="11.1467622"><ele>442.0</ele><time>2026-04-06T07:52:51.443Z</time></trkpt><trkpt lat="45.5028331" lon="11.1467957"><ele>443.6</ele><time>2026-04-06T07:52:54.402Z</time></trkpt><trkpt lat="45.5029254" lon="11.1468163"><ele>445.20000000000005</ele><time>2026-04-06T07:52:57.403Z</time></trkpt><trkpt lat="45.503018" lon="11.1468187"><ele>446.8</ele><time>2026-04-06T07:53:00.404Z</time></trkpt><trkpt lat="45.5031064" lon="11.1467968"><ele>448.4</ele><time>2026-04-06T07:53:03.398Z</time></trkpt><trkpt lat="45.5031908" lon="11.1467679"><ele>450.0</ele><time>2026-04-06T07:53:06.365Z</time></trkpt><trkpt lat="45.5032704" lon="11.1467169"><ele>450.0</ele><time>2026-04-06T07:53:09.405Z</time></trkpt><trkpt lat="45.5033317" lon="11.1466795"><ele>450.0</ele><time>2026-04-06T07:53:11.403Z</time></trkpt><trkpt lat="45.5034277" lon="11.1466225"><ele>450.0</ele><time>2026-04-06T07:53:14.406Z</time></trkpt><trkpt lat="45.5035015" lon="11.1465964"><ele>450.0</ele><time>2026-04-06T07:53:15.426Z</time></trkpt><trkpt lat="45.503581" lon="11.1465378"><ele>450.0</ele><time>2026-04-06T07:53:18.364Z</time></trkpt><trkpt lat="45.5036451" lon="11.146497"><ele>450.0</ele><time>2026-04-06T07:53:20.422Z</time></trkpt><trkpt lat="45.5037113" lon="11.1464669"><ele>451.28571428571433</ele><time>2026-04-06T07:53:22.359Z</time></trkpt><trkpt lat="45.5037718" lon="11.146436"><ele>452.57142857142856</ele><time>2026-04-06T07:53:24.369Z</time></trkpt><trkpt lat="45.5038303" lon="11.1463961"><ele>453.8571428571429</ele><time>2026-04-06T07:53:26.356Z</time></trkpt><trkpt lat="45.5038979" lon="11.146367"><ele>455.14285714285717</ele><time>2026-04-06T07:53:28.365Z</time></trkpt><trkpt lat="45.5039714" lon="11.1463486"><ele>456.42857142857144</ele><time>2026-04-06T07:53:30.376Z</time></trkpt><trkpt lat="45.5040435" lon="11.1463318"><ele>457.7142857142857</ele><time>2026-04-06T07:53:32.419Z</time></trkpt><trkpt lat="45.5041214" lon="11.1463196"><ele>459.0</ele><time>2026-04-06T07:53:34.364Z</time></trkpt><trkpt lat="45.5042128" lon="11.1463179"><ele>459.0</ele><time>2026-04-06T07:53:37.368Z</time></trkpt><trkpt lat="45.5042842" lon="11.1463089"><ele>459.0</ele><time>2026-04-06T07:53:39.427Z</time></trkpt><trkpt lat="45.5043584" lon="11.1462944"><ele>459.0</ele><time>2026-04-06T07:53:41.451Z</time></trkpt><trkpt lat="45.5044326" lon="11.1462987"><ele>459.0</ele><time>2026-04-06T07:53:43.36Z</time></trkpt><trkpt lat="45.5045012" lon="11.1463039"><ele>459.0</ele><time>2026-04-06T07:53:45.465Z</time></trkpt><trkpt lat="45.5045835" lon="11.1463183"><ele>459.0</ele><time>2026-04-06T07:53:47.399Z</time></trkpt><trkpt lat="45.5046594" lon="11.1463219"><ele>459.0</ele><time>2026-04-06T07:53:49.362Z</time></trkpt><trkpt lat="45.5047362" lon="11.1463256"><ele>458.6666666666667</ele><time>2026-04-06T07:53:51.377Z</time></trkpt><trkpt lat="45.5048037" lon="11.1463294"><ele>458.33333333333337</ele><time>2026-04-06T07:53:53.414Z</time></trkpt><trkpt lat="45.5048744" lon="11.1463194"><ele>458.0</ele><time>2026-04-06T07:53:55.359Z</time></trkpt><trkpt lat="45.5049546" lon="11.1463107"><ele>457.6666666666667</ele><time>2026-04-06T07:53:57.467Z</time></trkpt><trkpt lat="45.505023" lon="11.1462908"><ele>457.33333333333337</ele><time>2026-04-06T07:53:59.39Z</time></trkpt><trkpt lat="45.5051027" lon="11.1462783"><ele>457.0</ele><time>2026-04-06T07:54:01.388Z</time></trkpt><trkpt lat="45.5051936" lon="11.1462771"><ele>457.00000000000006</ele><time>2026-04-06T07:54:03.36Z</time></trkpt><trkpt lat="45.5052723" lon="11.1462846"><ele>457.0</ele><time>2026-04-06T07:54:05.418Z</time></trkpt><trkpt lat="45.5053579" lon="11.1462816"><ele>457.0</ele><time>2026-04-06T07:54:07.353Z</time></trkpt><trkpt lat="45.5054425" lon="11.1463019"><ele>457.0</ele><time>2026-04-06T07:54:09.353Z</time></trkpt><trkpt lat="45.5055336" lon="11.1462975"><ele>457.00000000000006</ele><time>2026-04-06T07:54:11.361Z</time></trkpt><trkpt lat="45.5056222" lon="11.146309"><ele>457.0</ele><time>2026-04-06T07:54:13.351Z</time></trkpt><trkpt lat="45.5057029" lon="11.1463368"><ele>455.6666666666667</ele><time>2026-04-06T07:54:15.483Z</time></trkpt><trkpt lat="45.5057852" lon="11.1463231"><ele>454.33333333333337</ele><time>2026-04-06T07:54:17.388Z</time></trkpt><trkpt lat="45.5058555" lon="11.1463143"><ele>453.0</ele><time>2026-04-06T07:54:19.395Z</time></trkpt><trkpt lat="45.5059283" lon="11.1463012"><ele>451.66666666666663</ele><time>2026-04-06T07:54:21.399Z</time></trkpt><trkpt lat="45.506006" lon="11.1462915"><ele>450.3333333333333</ele><time>2026-04-06T07:54:23.369Z</time></trkpt><trkpt lat="45.5060936" lon="11.1463044"><ele>449.0</ele><time>2026-04-06T07:54:25.364Z</time></trkpt><trkpt lat="45.5061729" lon="11.1462992"><ele>448.16666666666663</ele><time>2026-04-06T07:54:27.427Z</time></trkpt><trkpt lat="45.5062618" lon="11.1462982"><ele>447.3333333333333</ele><time>2026-04-06T07:54:29.42Z</time></trkpt><trkpt lat="45.5063467" lon="11.1463163"><ele>446.5</ele><time>2026-04-06T07:54:31.422Z</time></trkpt><trkpt lat="45.5064323" lon="11.1463327"><ele>445.66666666666663</ele><time>2026-04-06T07:54:33.367Z</time></trkpt><trkpt lat="45.506513" lon="11.1463525"><ele>444.8333333333333</ele><time>2026-04-06T07:54:35.429Z</time></trkpt><trkpt lat="45.5065913" lon="11.1463837"><ele>444.0</ele><time>2026-04-06T07:54:37.402Z</time></trkpt><trkpt lat="45.5066753" lon="11.1464161"><ele>444.0</ele><time>2026-04-06T07:54:39.398Z</time></trkpt><trkpt lat="45.5067473" lon="11.1464528"><ele>444.0</ele><time>2026-04-06T07:54:41.39Z</time></trkpt><trkpt lat="45.5068166" lon="11.1464828"><ele>444.0</ele><time>2026-04-06T07:54:43.432Z</time></trkpt><trkpt lat="45.506895" lon="11.1465099"><ele>444.0</ele><time>2026-04-06T07:54:45.396Z</time></trkpt><trkpt lat="45.5069684" lon="11.1465207"><ele>444.0</ele><time>2026-04-06T07:54:47.364Z</time></trkpt><trkpt lat="45.5070507" lon="11.1465407"><ele>444.0</ele><time>2026-04-06T07:54:49.393Z</time></trkpt><trkpt lat="45.5071372" lon="11.1465625"><ele>444.71428571428567</ele><time>2026-04-06T07:54:51.39Z</time></trkpt><trkpt lat="45.5072111" lon="11.1465787"><ele>445.42857142857144</ele><time>2026-04-06T07:54:53.361Z</time></trkpt><trkpt lat="45.5072828" lon="11.1465955"><ele>446.1428571428571</ele><time>2026-04-06T07:54:55.398Z</time></trkpt><trkpt lat="45.5073512" lon="11.1466294"><ele>446.85714285714283</ele><time>2026-04-06T07:54:57.386Z</time></trkpt><trkpt lat="45.5074145" lon="11.146672"><ele>447.57142857142856</ele><time>2026-04-06T07:54:59.399Z</time></trkpt><trkpt lat="45.5074763" lon="11.1467018"><ele>448.2857142857143</ele><time>2026-04-06T07:55:01.386Z</time></trkpt><trkpt lat="45.5075376" lon="11.146733"><ele>449.0</ele><time>2026-04-06T07:55:03.389Z</time></trkpt><trkpt lat="45.5076114" lon="11.14674"><ele>448.99999999999994</ele><time>2026-04-06T07:55:05.397Z</time></trkpt><trkpt lat="45.5076966" lon="11.1467517"><ele>449.0</ele><time>2026-04-06T07:55:07.394Z</time></trkpt><trkpt lat="45.5077773" lon="11.146721"><ele>449.0</ele><time>2026-04-06T07:55:09.399Z</time></trkpt><trkpt lat="45.5078662" lon="11.1467075"><ele>449.0</ele><time>2026-04-06T07:55:11.469Z</time></trkpt><trkpt lat="45.5079434" lon="11.1467144"><ele>448.99999999999994</ele><time>2026-04-06T07:55:13.396Z</time></trkpt><trkpt lat="45.5080238" lon="11.1466991"><ele>449.0</ele><time>2026-04-06T07:55:15.423Z</time></trkpt><trkpt lat="45.5081025" lon="11.1466665"><ele>448.99999999999994</ele><time>2026-04-06T07:55:17.405Z</time></trkpt><trkpt lat="45.5081771" lon="11.1466153"><ele>449.0</ele><time>2026-04-06T07:55:19.396Z</time></trkpt><trkpt lat="45.5082458" lon="11.1465442"><ele>449.0</ele><time>2026-04-06T07:55:22.225Z</time></trkpt><trkpt lat="45.5083269" lon="11.1464855"><ele>449.0</ele><time>2026-04-06T07:55:23.412Z</time></trkpt><trkpt lat="45.508402" lon="11.1464415"><ele>448.99999999999994</ele><time>2026-04-06T07:55:25.402Z</time></trkpt><trkpt lat="45.5084733" lon="11.1464064"><ele>449.0</ele><time>2026-04-06T07:55:27.407Z</time></trkpt><trkpt lat="45.5085474" lon="11.1463515"><ele>448.6</ele><time>2026-04-06T07:55:29.391Z</time></trkpt><trkpt lat="45.508615" lon="11.1462906"><ele>448.2</ele><time>2026-04-06T07:55:31.415Z</time></trkpt><trkpt lat="45.5087009" lon="11.1462182"><ele>447.80000000000007</ele><time>2026-04-06T07:55:33.478Z</time></trkpt><trkpt lat="45.5087837" lon="11.1461506"><ele>447.40000000000003</ele><time>2026-04-06T07:55:35.368Z</time></trkpt><trkpt lat="45.5088527" lon="11.1461192"><ele>447.0</ele><time>2026-04-06T07:55:37.354Z</time></trkpt><trkpt lat="45.5089533" lon="11.1460781"><ele>448.0</ele><time>2026-04-06T07:55:40.468Z</time></trkpt><trkpt lat="45.5090137" lon="11.1460453"><ele>449.0</ele><time>2026-04-06T07:55:42.365Z</time></trkpt><trkpt lat="45.5090872" lon="11.1459946"><ele>450.0</ele><time>2026-04-06T07:55:44.42Z</time></trkpt><trkpt lat="45.5091655" lon="11.1459337"><ele>451.0</ele><time>2026-04-06T07:55:46.42Z</time></trkpt><trkpt lat="45.5092335" lon="11.1458849"><ele>452.0</ele><time>2026-04-06T07:55:48.383Z</time></trkpt><trkpt lat="45.5092996" lon="11.1458402"><ele>453.0</ele><time>2026-04-06T07:55:50.365Z</time></trkpt><trkpt lat="45.5093668" lon="11.1457925"><ele>453.0</ele><time>2026-04-06T07:55:52.366Z</time></trkpt><trkpt lat="45.5094538" lon="11.1457211"><ele>453.0</ele><time>2026-04-06T07:55:55.402Z</time></trkpt><trkpt lat="45.5095174" lon="11.1456924"><ele>453.0</ele><time>2026-04-06T07:55:59.393Z</time></trkpt><trkpt lat="45.5095804" lon="11.1456689"><ele>453.0</ele><time>2026-04-06T07:56:01.419Z</time></trkpt><trkpt lat="45.5096446" lon="11.1456277"><ele>453.0</ele><time>2026-04-06T07:56:03.433Z</time></trkpt><trkpt lat="45.509715" lon="11.1455818"><ele>453.0</ele><time>2026-04-06T07:56:05.362Z</time></trkpt><trkpt lat="45.5097878" lon="11.1455416"><ele>453.6666666666667</ele><time>2026-04-06T07:56:07.451Z</time></trkpt><trkpt lat="45.509864" lon="11.1454927"><ele>454.33333333333337</ele><time>2026-04-06T07:56:09.443Z</time></trkpt><trkpt lat="45.5099302" lon="11.1454648"><ele>455.0</ele><time>2026-04-06T07:56:11.458Z</time></trkpt><trkpt lat="45.5099962" lon="11.1454223"><ele>455.6666666666667</ele><time>2026-04-06T07:56:13.362Z</time></trkpt><trkpt lat="45.5100705" lon="11.1453822"><ele>456.33333333333337</ele><time>2026-04-06T07:56:15.395Z</time></trkpt><trkpt lat="45.5101472" lon="11.1453291"><ele>457.0</ele><time>2026-04-06T07:56:17.45Z</time></trkpt><trkpt lat="45.510214" lon="11.1452905"><ele>457.00000000000006</ele><time>2026-04-06T07:56:20.389Z</time></trkpt><trkpt lat="45.5103032" lon="11.1452158"><ele>457.0</ele><time>2026-04-06T07:56:22.416Z</time></trkpt><trkpt lat="45.5103891" lon="11.1451492"><ele>457.0</ele><time>2026-04-06T07:56:24.401Z</time></trkpt><trkpt lat="45.5104554" lon="11.1450986"><ele>457.0</ele><time>2026-04-06T07:56:26.368Z</time></trkpt><trkpt lat="45.5105194" lon="11.1450579"><ele>457.00000000000006</ele><time>2026-04-06T07:56:28.402Z</time></trkpt><trkpt lat="45.5105824" lon="11.1450298"><ele>457.0</ele><time>2026-04-06T07:56:31.366Z</time></trkpt><trkpt lat="45.5106616" lon="11.1449917"><ele>457.83333333333337</ele><time>2026-04-06T07:56:34.423Z</time></trkpt><trkpt lat="45.5107304" lon="11.1449726"><ele>458.6666666666667</ele><time>2026-04-06T07:56:37.408Z</time></trkpt><trkpt lat="45.5108134" lon="11.1449655"><ele>459.5</ele><time>2026-04-06T07:56:41.422Z</time></trkpt><trkpt lat="45.5108913" lon="11.1449721"><ele>460.33333333333337</ele><time>2026-04-06T07:56:46.434Z</time></trkpt><trkpt lat="45.5109889" lon="11.1449722"><ele>461.1666666666667</ele><time>2026-04-06T07:56:54.403Z</time></trkpt><trkpt lat="45.5110751" lon="11.144975"><ele>462.0</ele><time>2026-04-06T07:57:02.361Z</time></trkpt><trkpt lat="45.5111537" lon="11.1450228"><ele>462.0</ele><time>2026-04-06T07:57:07.405Z</time></trkpt><trkpt lat="45.5112204" lon="11.1450385"><ele>462.0</ele><time>2026-04-06T07:57:10.428Z</time></trkpt><trkpt lat="45.5112984" lon="11.1450544"><ele>462.0</ele><time>2026-04-06T07:57:17.363Z</time></trkpt><trkpt lat="45.5113692" lon="11.1450596"><ele>462.0</ele><time>2026-04-06T07:57:24.386Z</time></trkpt><trkpt lat="45.5114469" lon="11.1450773"><ele>462.0</ele><time>2026-04-06T07:57:28.377Z</time></trkpt><trkpt lat="45.5115985" lon="11.1450771"><ele>462.0</ele><time>2026-04-06T07:57:40.39Z</time></trkpt><trkpt lat="45.5117003" lon="11.1450819"><ele>464.0</ele><time>2026-04-06T07:57:49.407Z</time></trkpt><trkpt lat="45.511795" lon="11.1451122"><ele>466.0</ele><time>2026-04-06T07:57:58.41Z</time></trkpt><trkpt lat="45.511861" lon="11.1450697"><ele>468.0</ele><time>2026-04-06T07:58:06.362Z</time></trkpt><trkpt lat="45.5119149" lon="11.144998"><ele>470.0</ele><time>2026-04-06T07:58:14.365Z</time></trkpt><trkpt lat="45.511991" lon="11.1449378"><ele>472.0</ele><time>2026-04-06T07:58:22.371Z</time></trkpt><trkpt lat="45.5120571" lon="11.1449138"><ele>474.0</ele><time>2026-04-06T07:58:28.357Z</time></trkpt><trkpt lat="45.5121179" lon="11.1448671"><ele>475.42857142857133</ele><time>2026-04-06T07:58:33.417Z</time></trkpt><trkpt lat="45.5121867" lon="11.14483"><ele>476.85714285714283</ele><time>2026-04-06T07:58:39.431Z</time></trkpt><trkpt lat="45.5122461" lon="11.144788"><ele>478.2857142857142</ele><time>2026-04-06T07:58:43.361Z</time></trkpt><trkpt lat="45.5123053" lon="11.1447556"><ele>479.71428571428567</ele><time>2026-04-06T07:58:48.359Z</time></trkpt><trkpt lat="45.5123606" lon="11.1447098"><ele>481.1428571428571</ele><time>2026-04-06T07:58:53.356Z</time></trkpt><trkpt lat="45.5124163" lon="11.1446569"><ele>482.57142857142856</ele><time>2026-04-06T07:58:57.406Z</time></trkpt><trkpt lat="45.5124763" lon="11.144593"><ele>484.0</ele><time>2026-04-06T07:59:03.356Z</time></trkpt><trkpt lat="45.5125388" lon="11.144528"><ele>484.0</ele><time>2026-04-06T07:59:08.422Z</time></trkpt><trkpt lat="45.512592" lon="11.1444765"><ele>483.99999999999994</ele><time>2026-04-06T07:59:12.359Z</time></trkpt><trkpt lat="45.512645" lon="11.1444203"><ele>484.0</ele><time>2026-04-06T07:59:18.365Z</time></trkpt><trkpt lat="45.512697" lon="11.1443518"><ele>484.0</ele><time>2026-04-06T07:59:25.361Z</time></trkpt><trkpt lat="45.5127546" lon="11.1443021"><ele>483.99999999999994</ele><time>2026-04-06T07:59:29.419Z</time></trkpt><trkpt lat="45.5128122" lon="11.1442557"><ele>484.0</ele><time>2026-04-06T07:59:35.355Z</time></trkpt><trkpt lat="45.512871" lon="11.1442216"><ele>484.0</ele><time>2026-04-06T07:59:38.41Z</time></trkpt><trkpt lat="45.5129341" lon="11.1441879"><ele>486.0</ele><time>2026-04-06T07:59:43.362Z</time></trkpt><trkpt lat="45.513004" lon="11.1441692"><ele>487.99999999999994</ele><time>2026-04-06T07:59:47.413Z</time></trkpt><trkpt lat="45.5130729" lon="11.1441552"><ele>490.0</ele><time>2026-04-06T07:59:52.362Z</time></trkpt><trkpt lat="45.5131423" lon="11.1441411"><ele>492.0</ele><time>2026-04-06T07:59:57.402Z</time></trkpt><trkpt lat="45.5132155" lon="11.1441235"><ele>493.99999999999994</ele><time>2026-04-06T08:00:03.358Z</time></trkpt><trkpt lat="45.5132934" lon="11.1441271"><ele>496.0</ele><time>2026-04-06T08:00:08.422Z</time></trkpt><trkpt lat="45.5133597" lon="11.1441465"><ele>498.0</ele><time>2026-04-06T08:00:14.415Z</time></trkpt><trkpt lat="45.5134247" lon="11.1441613"><ele>498.0</ele><time>2026-04-06T08:00:19.423Z</time></trkpt><trkpt lat="45.5135117" lon="11.1441774"><ele>498.0</ele><time>2026-04-06T08:00:26.373Z</time></trkpt><trkpt lat="45.5135783" lon="11.1442156"><ele>498.0</ele><time>2026-04-06T08:00:32.359Z</time></trkpt><trkpt lat="45.5136352" lon="11.1442676"><ele>498.0</ele><time>2026-04-06T08:00:38.355Z</time></trkpt><trkpt lat="45.5136834" lon="11.144346"><ele>498.0</ele><time>2026-04-06T08:01:06.359Z</time></trkpt><trkpt lat="45.5137479" lon="11.1443922"><ele>498.0</ele><time>2026-04-06T08:01:09.358Z</time></trkpt><trkpt lat="45.5138178" lon="11.1444579"><ele>499.71428571428567</ele><time>2026-04-06T08:01:11.367Z</time></trkpt><trkpt lat="45.5138842" lon="11.144493"><ele>501.4285714285714</ele><time>2026-04-06T08:01:14.357Z</time></trkpt><trkpt lat="45.5139435" lon="11.1445364"><ele>503.1428571428571</ele><time>2026-04-06T08:01:17.353Z</time></trkpt><trkpt lat="45.5140129" lon="11.1445696"><ele>504.8571428571429</ele><time>2026-04-06T08:01:20.365Z</time></trkpt><trkpt lat="45.5140754" lon="11.1445501"><ele>506.5714285714286</ele><time>2026-04-06T08:01:22.356Z</time></trkpt><trkpt lat="45.5141553" lon="11.1445282"><ele>508.28571428571433</ele><time>2026-04-06T08:01:25.372Z</time></trkpt><trkpt lat="45.5142189" lon="11.144504"><ele>510.0</ele><time>2026-04-06T08:01:27.368Z</time></trkpt><trkpt lat="45.5142879" lon="11.1444727"><ele>510.0</ele><time>2026-04-06T08:01:30.369Z</time></trkpt><trkpt lat="45.5143613" lon="11.1444487"><ele>510.0</ele><time>2026-04-06T08:01:33.415Z</time></trkpt><trkpt lat="45.5144454" lon="11.1444139"><ele>510.0</ele><time>2026-04-06T08:01:36.367Z</time></trkpt><trkpt lat="45.5146064" lon="11.1444043"><ele>510.0</ele><time>2026-04-06T08:01:42.373Z</time></trkpt><trkpt lat="45.5146882" lon="11.144389"><ele>510.0</ele><time>2026-04-06T08:01:45.368Z</time></trkpt><trkpt lat="45.5147551" lon="11.144371"><ele>510.3333333333333</ele><time>2026-04-06T08:01:47.373Z</time></trkpt><trkpt lat="45.5148318" lon="11.1443431"><ele>510.66666666666663</ele><time>2026-04-06T08:01:49.364Z</time></trkpt><trkpt lat="45.5149029" lon="11.1443138"><ele>511.0</ele><time>2026-04-06T08:01:51.384Z</time></trkpt><trkpt lat="45.514976" lon="11.1442802"><ele>511.3333333333333</ele><time>2026-04-06T08:01:53.364Z</time></trkpt><trkpt lat="45.5150712" lon="11.1442526"><ele>511.66666666666663</ele><time>2026-04-06T08:01:56.425Z</time></trkpt><trkpt lat="45.5151584" lon="11.1442203"><ele>512.0</ele><time>2026-04-06T08:01:58.363Z</time></trkpt><trkpt lat="45.5152438" lon="11.1441956"><ele>512.0</ele><time>2026-04-06T08:02:00.365Z</time></trkpt><trkpt lat="45.5153248" lon="11.1441662"><ele>512.0</ele><time>2026-04-06T08:02:02.365Z</time></trkpt><trkpt lat="45.5154071" lon="11.1441364"><ele>512.0</ele><time>2026-04-06T08:02:04.365Z</time></trkpt><trkpt lat="45.5156026" lon="11.1441098"><ele>512.0</ele><time>2026-04-06T08:02:09.512Z</time></trkpt><trkpt lat="45.5156724" lon="11.144084"><ele>512.0</ele><time>2026-04-06T08:02:11.373Z</time></trkpt><trkpt lat="45.5157411" lon="11.1440424"><ele>509.99999999999994</ele><time>2026-04-06T08:02:13.361Z</time></trkpt><trkpt lat="45.515814" lon="11.1440048"><ele>508.0</ele><time>2026-04-06T08:02:15.356Z</time></trkpt><trkpt lat="45.515879" lon="11.1439767"><ele>506.0</ele><time>2026-04-06T08:02:17.357Z</time></trkpt><trkpt lat="45.5159626" lon="11.1439301"><ele>504.0</ele><time>2026-04-06T08:02:20.359Z</time></trkpt><trkpt lat="45.5160411" lon="11.1438684"><ele>501.99999999999994</ele><time>2026-04-06T08:02:23.366Z</time></trkpt><trkpt lat="45.5160974" lon="11.1438248"><ele>500.0</ele><time>2026-04-06T08:02:25.362Z</time></trkpt><trkpt lat="45.5161971" lon="11.1437853"><ele>500.99999999999994</ele><time>2026-04-06T08:02:28.364Z</time></trkpt><trkpt lat="45.5162797" lon="11.1437375"><ele>502.0</ele><time>2026-04-06T08:02:31.365Z</time></trkpt><trkpt lat="45.5163405" lon="11.1437031"><ele>503.0</ele><time>2026-04-06T08:02:34.36Z</time></trkpt><trkpt lat="45.5164011" lon="11.1436364"><ele>504.0</ele><time>2026-04-06T08:02:37.366Z</time></trkpt><trkpt lat="45.5164667" lon="11.1435956"><ele>504.99999999999994</ele><time>2026-04-06T08:02:39.358Z</time></trkpt><trkpt lat="45.5165235" lon="11.1435407"><ele>506.0</ele><time>2026-04-06T08:02:41.362Z</time></trkpt><trkpt lat="45.5166112" lon="11.1435016"><ele>506.0</ele><time>2026-04-06T08:02:44.357Z</time></trkpt><trkpt lat="45.5166783" lon="11.1434663"><ele>506.0</ele><time>2026-04-06T08:02:47.359Z</time></trkpt><trkpt lat="45.5167546" lon="11.1434383"><ele>506.0</ele><time>2026-04-06T08:02:52.358Z</time></trkpt><trkpt lat="45.5168476" lon="11.1434386"><ele>506.0</ele><time>2026-04-06T08:02:55.359Z</time></trkpt><trkpt lat="45.5169613" lon="11.1434173"><ele>506.0</ele><time>2026-04-06T08:02:57.36Z</time></trkpt><trkpt lat="45.5170535" lon="11.143395"><ele>505.3333333333333</ele><time>2026-04-06T08:02:59.368Z</time></trkpt><trkpt lat="45.5171327" lon="11.1433658"><ele>504.66666666666663</ele><time>2026-04-06T08:03:01.362Z</time></trkpt><trkpt lat="45.5172055" lon="11.1433286"><ele>504.0</ele><time>2026-04-06T08:03:03.359Z</time></trkpt><trkpt lat="45.5172698" lon="11.1432937"><ele>503.33333333333337</ele><time>2026-04-06T08:03:05.366Z</time></trkpt><trkpt lat="45.5173375" lon="11.1432493"><ele>502.6666666666667</ele><time>2026-04-06T08:03:08.356Z</time></trkpt><trkpt lat="45.5174088" lon="11.1432016"><ele>502.0</ele><time>2026-04-06T08:03:11.36Z</time></trkpt><trkpt lat="45.5174863" lon="11.143161"><ele>502.00000000000006</ele><time>2026-04-06T08:03:15.36Z</time></trkpt><trkpt lat="45.5175518" lon="11.1431114"><ele>502.0</ele><time>2026-04-06T08:03:18.356Z</time></trkpt><trkpt lat="45.5176272" lon="11.1430949"><ele>502.0</ele><time>2026-04-06T08:03:21.361Z</time></trkpt><trkpt lat="45.5176953" lon="11.1430777"><ele>502.0</ele><time>2026-04-06T08:03:24.367Z</time></trkpt><trkpt lat="45.5177759" lon="11.1430507"><ele>502.00000000000006</ele><time>2026-04-06T08:03:27.362Z</time></trkpt><trkpt lat="45.5178636" lon="11.1430198"><ele>502.0</ele><time>2026-04-06T08:03:30.368Z</time></trkpt><trkpt lat="45.5179545" lon="11.1429944"><ele>503.33333333333337</ele><time>2026-04-06T08:03:33.361Z</time></trkpt><trkpt lat="45.5180264" lon="11.1429776"><ele>504.6666666666667</ele><time>2026-04-06T08:03:36.455Z</time></trkpt><trkpt lat="45.5180931" lon="11.1429436"><ele>506.0</ele><time>2026-04-06T08:03:38.397Z</time></trkpt><trkpt lat="45.5181563" lon="11.1429222"><ele>507.33333333333337</ele><time>2026-04-06T08:03:40.382Z</time></trkpt><trkpt lat="45.518237" lon="11.1429036"><ele>508.6666666666667</ele><time>2026-04-06T08:03:43.448Z</time></trkpt><trkpt lat="45.5183068" lon="11.1428833"><ele>510.0</ele><time>2026-04-06T08:03:45.363Z</time></trkpt><trkpt lat="45.5183981" lon="11.1428506"><ele>510.0</ele><time>2026-04-06T08:03:48.371Z</time></trkpt><trkpt lat="45.5184682" lon="11.1428095"><ele>510.00000000000006</ele><time>2026-04-06T08:03:50.362Z</time></trkpt><trkpt lat="45.5185266" lon="11.1427449"><ele>510.0</ele><time>2026-04-06T08:03:52.393Z</time></trkpt><trkpt lat="45.5185965" lon="11.1426878"><ele>510.0</ele><time>2026-04-06T08:03:54.358Z</time></trkpt><trkpt lat="45.5186577" lon="11.1426551"><ele>510.00000000000006</ele><time>2026-04-06T08:03:56.357Z</time></trkpt><trkpt lat="45.5187087" lon="11.1425924"><ele>510.0</ele><time>2026-04-06T08:03:59.36Z</time></trkpt><trkpt lat="45.5187779" lon="11.1425748"><ele>510.0</ele><time>2026-04-06T08:04:03.372Z</time></trkpt><trkpt lat="45.5188182" lon="11.1424884"><ele>510.3333333333333</ele><time>2026-04-06T08:04:06.422Z</time></trkpt><trkpt lat="45.5188769" lon="11.1424499"><ele>510.66666666666663</ele><time>2026-04-06T08:04:09.392Z</time></trkpt><trkpt lat="45.5189477" lon="11.1423787"><ele>511.0</ele><time>2026-04-06T08:04:13.374Z</time></trkpt><trkpt lat="45.519007" lon="11.1423018"><ele>511.3333333333333</ele><time>2026-04-06T08:04:16.472Z</time></trkpt><trkpt lat="45.5190687" lon="11.1422219"><ele>511.66666666666663</ele><time>2026-04-06T08:04:18.435Z</time></trkpt><trkpt lat="45.5190955" lon="11.1421263"><ele>512.0</ele><time>2026-04-06T08:04:19.388Z</time></trkpt><trkpt lat="45.5191711" lon="11.1420406"><ele>511.99999999999994</ele><time>2026-04-06T08:04:21.365Z</time></trkpt><trkpt lat="45.5192823" lon="11.1419385"><ele>512.0</ele><time>2026-04-06T08:04:23.475Z</time></trkpt><trkpt lat="45.5193358" lon="11.1418884"><ele>512.0</ele><time>2026-04-06T08:04:24.406Z</time></trkpt><trkpt lat="45.5194049" lon="11.141849"><ele>512.0</ele><time>2026-04-06T08:04:25.441Z</time></trkpt><trkpt lat="45.5194742" lon="11.1417872"><ele>511.99999999999994</ele><time>2026-04-06T08:04:26.483Z</time></trkpt><trkpt lat="45.5195626" lon="11.1417434"><ele>512.0</ele><time>2026-04-06T08:04:28.477Z</time></trkpt><trkpt lat="45.5196502" lon="11.1417061"><ele>512.6666666666666</ele><time>2026-04-06T08:04:30.44Z</time></trkpt><trkpt lat="45.5197302" lon="11.1416819"><ele>513.3333333333333</ele><time>2026-04-06T08:04:32.357Z</time></trkpt><trkpt lat="45.5198073" lon="11.1416659"><ele>514.0</ele><time>2026-04-06T08:04:34.424Z</time></trkpt><trkpt lat="45.5199012" lon="11.1415984"><ele>514.6666666666666</ele><time>2026-04-06T08:04:37.352Z</time></trkpt><trkpt lat="45.5199803" lon="11.1415546"><ele>515.3333333333334</ele><time>2026-04-06T08:04:40.361Z</time></trkpt><trkpt lat="45.5200442" lon="11.1415137"><ele>516.0</ele><time>2026-04-06T08:04:42.366Z</time></trkpt><trkpt lat="45.5201229" lon="11.1414809"><ele>516.3333333333334</ele><time>2026-04-06T08:04:44.405Z</time></trkpt><trkpt lat="45.5202293" lon="11.1414061"><ele>516.6666666666666</ele><time>2026-04-06T08:04:48.385Z</time></trkpt><trkpt lat="45.5202984" lon="11.1413728"><ele>517.0</ele><time>2026-04-06T08:04:51.357Z</time></trkpt><trkpt lat="45.5203593" lon="11.141339"><ele>517.3333333333333</ele><time>2026-04-06T08:04:54.371Z</time></trkpt><trkpt lat="45.5204201" lon="11.1412839"><ele>517.6666666666666</ele><time>2026-04-06T08:04:57.422Z</time></trkpt><trkpt lat="45.5204732" lon="11.1412298"><ele>518.0</ele><time>2026-04-06T08:05:00.372Z</time></trkpt><trkpt lat="45.5205329" lon="11.1411968"><ele>518.0</ele><time>2026-04-06T08:05:03.389Z</time></trkpt><trkpt lat="45.5206082" lon="11.1411619"><ele>518.0</ele><time>2026-04-06T08:05:06.41Z</time></trkpt><trkpt lat="45.5206835" lon="11.14115"><ele>518.0</ele><time>2026-04-06T08:05:09.423Z</time></trkpt><trkpt lat="45.5207572" lon="11.1411596"><ele>518.0</ele><time>2026-04-06T08:05:12.458Z</time></trkpt><trkpt lat="45.5208232" lon="11.1411388"><ele>518.0</ele><time>2026-04-06T08:05:15.373Z</time></trkpt><trkpt lat="45.5209028" lon="11.1411059"><ele>518.0</ele><time>2026-04-06T08:05:18.363Z</time></trkpt><trkpt lat="45.5209964" lon="11.1410837"><ele>518.0</ele><time>2026-04-06T08:05:21.398Z</time></trkpt><trkpt lat="45.5210644" lon="11.1410385"><ele>518.0</ele><time>2026-04-06T08:05:24.382Z</time></trkpt><trkpt lat="45.5211211" lon="11.1409978"><ele>518.0</ele><time>2026-04-06T08:05:27.413Z</time></trkpt><trkpt lat="45.5211778" lon="11.1409544"><ele>518.0</ele><time>2026-04-06T08:05:30.367Z</time></trkpt><trkpt lat="45.5212399" lon="11.1409179"><ele>518.0</ele><time>2026-04-06T08:05:33.417Z</time></trkpt><trkpt lat="45.5213043" lon="11.1408869"><ele>518.0</ele><time>2026-04-06T08:05:36.402Z</time></trkpt><trkpt lat="45.5213643" lon="11.1408557"><ele>518.0</ele><time>2026-04-06T08:05:40.379Z</time></trkpt><trkpt lat="45.5214445" lon="11.1408299"><ele>517.8571428571429</ele><time>2026-04-06T08:05:44.396Z</time></trkpt><trkpt lat="45.5215101" lon="11.140816"><ele>517.7142857142858</ele><time>2026-04-06T08:05:47.409Z</time></trkpt><trkpt lat="45.5215748" lon="11.1408116"><ele>517.5714285714286</ele><time>2026-04-06T08:05:49.4Z</time></trkpt><trkpt lat="45.5216645" lon="11.1408095"><ele>517.4285714285714</ele><time>2026-04-06T08:05:52.473Z</time></trkpt><trkpt lat="45.5217296" lon="11.1408095"><ele>517.2857142857143</ele><time>2026-04-06T08:05:55.424Z</time></trkpt><trkpt lat="45.5218191" lon="11.140769"><ele>517.1428571428571</ele><time>2026-04-06T08:06:00.37Z</time></trkpt><trkpt lat="45.5218808" lon="11.1407503"><ele>517.0</ele><time>2026-04-06T08:06:03.394Z</time></trkpt><trkpt lat="45.5219239" lon="11.140663"><ele>517.0</ele><time>2026-04-06T08:06:08.39Z</time></trkpt><trkpt lat="45.5219975" lon="11.1406086"><ele>517.0</ele><time>2026-04-06T08:06:12.368Z</time></trkpt><trkpt lat="45.5220445" lon="11.1405445"><ele>517.0</ele><time>2026-04-06T08:06:15.412Z</time></trkpt><trkpt lat="45.5220904" lon="11.1404752"><ele>517.0</ele><time>2026-04-06T08:06:18.39Z</time></trkpt><trkpt lat="45.5221467" lon="11.1403962"><ele>517.0</ele><time>2026-04-06T08:06:22.368Z</time></trkpt><trkpt lat="45.5222068" lon="11.1403208"><ele>517.0</ele><time>2026-04-06T08:06:25.366Z</time></trkpt><trkpt lat="45.5222603" lon="11.1402505"><ele>517.0</ele><time>2026-04-06T08:06:28.376Z</time></trkpt><trkpt lat="45.5223179" lon="11.1402018"><ele>517.1428571428571</ele><time>2026-04-06T08:06:31.364Z</time></trkpt><trkpt lat="45.5223792" lon="11.1401409"><ele>517.2857142857143</ele><time>2026-04-06T08:06:34.396Z</time></trkpt><trkpt lat="45.5224419" lon="11.1400813"><ele>517.4285714285714</ele><time>2026-04-06T08:06:38.46Z</time></trkpt><trkpt lat="45.5225122" lon="11.1400117"><ele>517.5714285714286</ele><time>2026-04-06T08:06:43.411Z</time></trkpt><trkpt lat="45.5225771" lon="11.1399715"><ele>517.7142857142858</ele><time>2026-04-06T08:06:46.378Z</time></trkpt><trkpt lat="45.522635" lon="11.1399219"><ele>517.8571428571429</ele><time>2026-04-06T08:06:49.399Z</time></trkpt><trkpt lat="45.522664" lon="11.1398417"><ele>518.0</ele><time>2026-04-06T08:06:53.422Z</time></trkpt><trkpt lat="45.5227079" lon="11.1397753"><ele>518.0</ele><time>2026-04-06T08:06:56.467Z</time></trkpt><trkpt lat="45.5227594" lon="11.1397145"><ele>518.0</ele><time>2026-04-06T08:06:59.47Z</time></trkpt><trkpt lat="45.5228134" lon="11.1396567"><ele>518.0</ele><time>2026-04-06T08:07:01.468Z</time></trkpt><trkpt lat="45.5228706" lon="11.1395693"><ele>518.0</ele><time>2026-04-06T08:07:04.369Z</time></trkpt><trkpt lat="45.5229301" lon="11.139515"><ele>518.0</ele><time>2026-04-06T08:07:07.367Z</time></trkpt><trkpt lat="45.5229892" lon="11.1394708"><ele>518.0</ele><time>2026-04-06T08:07:10.391Z</time></trkpt><trkpt lat="45.5230572" lon="11.139423"><ele>518.0</ele><time>2026-04-06T08:07:13.401Z</time></trkpt><trkpt lat="45.5231303" lon="11.1393803"><ele>521.3333333333333</ele><time>2026-04-06T08:07:16.393Z</time></trkpt><trkpt lat="45.523214" lon="11.1393525"><ele>524.6666666666666</ele><time>2026-04-06T08:07:19.478Z</time></trkpt><trkpt lat="45.5232884" lon="11.1392968"><ele>528.0</ele><time>2026-04-06T08:07:22.474Z</time></trkpt><trkpt lat="45.5233439" lon="11.1392429"><ele>531.3333333333334</ele><time>2026-04-06T08:07:24.374Z</time></trkpt><trkpt lat="45.5233916" lon="11.1391806"><ele>534.6666666666667</ele><time>2026-04-06T08:07:27.384Z</time></trkpt><trkpt lat="45.5234644" lon="11.139141"><ele>538.0</ele><time>2026-04-06T08:07:30.354Z</time></trkpt><trkpt lat="45.5235352" lon="11.13912"><ele>538.0</ele><time>2026-04-06T08:07:33.366Z</time></trkpt><trkpt lat="45.5236044" lon="11.139117"><ele>538.0</ele><time>2026-04-06T08:07:36.355Z</time></trkpt><trkpt lat="45.5236902" lon="11.1391095"><ele>538.0</ele><time>2026-04-06T08:07:40.417Z</time></trkpt><trkpt lat="45.523781" lon="11.1391105"><ele>538.0</ele><time>2026-04-06T08:07:43.444Z</time></trkpt><trkpt lat="45.5238792" lon="11.1391242"><ele>538.0</ele><time>2026-04-06T08:07:46.46Z</time></trkpt><trkpt lat="45.5239444" lon="11.1391398"><ele>538.0</ele><time>2026-04-06T08:07:48.39Z</time></trkpt><trkpt lat="45.5240148" lon="11.1391408"><ele>536.6666666666667</ele><time>2026-04-06T08:07:51.405Z</time></trkpt><trkpt lat="45.5240811" lon="11.1391086"><ele>535.3333333333334</ele><time>2026-04-06T08:07:54.464Z</time></trkpt><trkpt lat="45.5241606" lon="11.139085"><ele>534.0</ele><time>2026-04-06T08:07:57.4Z</time></trkpt><trkpt lat="45.5242385" lon="11.1390502"><ele>532.6666666666666</ele><time>2026-04-06T08:08:00.453Z</time></trkpt><trkpt lat="45.5242965" lon="11.1390141"><ele>531.3333333333333</ele><time>2026-04-06T08:08:03.357Z</time></trkpt><trkpt lat="45.5243775" lon="11.1390129"><ele>530.0</ele><time>2026-04-06T08:08:06.371Z</time></trkpt><trkpt lat="45.5244566" lon="11.139003"><ele>530.0</ele><time>2026-04-06T08:08:08.414Z</time></trkpt><trkpt lat="45.5245229" lon="11.1390102"><ele>530.0</ele><time>2026-04-06T08:08:11.223Z</time></trkpt><trkpt lat="45.5246101" lon="11.1390098"><ele>530.0</ele><time>2026-04-06T08:08:13.368Z</time></trkpt><trkpt lat="45.5246841" lon="11.1390072"><ele>530.0</ele><time>2026-04-06T08:08:15.369Z</time></trkpt><trkpt lat="45.5247454" lon="11.1389338"><ele>530.0</ele><time>2026-04-06T08:08:18.361Z</time></trkpt><trkpt lat="45.5247919" lon="11.1388591"><ele>530.0</ele><time>2026-04-06T08:08:21.36Z</time></trkpt><trkpt lat="45.5248321" lon="11.1387629"><ele>530.5</ele><time>2026-04-06T08:08:24.357Z</time></trkpt><trkpt lat="45.5248744" lon="11.1386654"><ele>531.0</ele><time>2026-04-06T08:08:27.361Z</time></trkpt><trkpt lat="45.5249165" lon="11.138559"><ele>531.5</ele><time>2026-04-06T08:08:30.376Z</time></trkpt><trkpt lat="45.5249571" lon="11.1384575"><ele>532.0</ele><time>2026-04-06T08:08:33.377Z</time></trkpt><trkpt lat="45.5250115" lon="11.1383515"><ele>532.5</ele><time>2026-04-06T08:08:36.365Z</time></trkpt><trkpt lat="45.5250605" lon="11.1382745"><ele>533.0</ele><time>2026-04-06T08:08:38.363Z</time></trkpt><trkpt lat="45.5251123" lon="11.1382053"><ele>533.0</ele><time>2026-04-06T08:08:40.356Z</time></trkpt><trkpt lat="45.5251643" lon="11.1381397"><ele>533.0</ele><time>2026-04-06T08:08:42.361Z</time></trkpt><trkpt lat="45.5252158" lon="11.1380726"><ele>533.0</ele><time>2026-04-06T08:08:44.44Z</time></trkpt><trkpt lat="45.5252704" lon="11.1380083"><ele>533.0</ele><time>2026-04-06T08:08:46.412Z</time></trkpt><trkpt lat="45.525321" lon="11.1379411"><ele>533.0</ele><time>2026-04-06T08:08:48.427Z</time></trkpt><trkpt lat="45.5253709" lon="11.137875"><ele>533.0</ele><time>2026-04-06T08:08:50.423Z</time></trkpt><trkpt lat="45.5254214" lon="11.1378115"><ele>533.0</ele><time>2026-04-06T08:08:52.431Z</time></trkpt><trkpt lat="45.5254731" lon="11.1377539"><ele>533.1428571428571</ele><time>2026-04-06T08:08:54.359Z</time></trkpt><trkpt lat="45.5255113" lon="11.1376799"><ele>533.2857142857142</ele><time>2026-04-06T08:08:56.438Z</time></trkpt><trkpt lat="45.5255548" lon="11.1376045"><ele>533.4285714285714</ele><time>2026-04-06T08:08:59.425Z</time></trkpt><trkpt lat="45.5256208" lon="11.1375506"><ele>533.5714285714286</ele><time>2026-04-06T08:09:02.431Z</time></trkpt><trkpt lat="45.5256851" lon="11.1375015"><ele>533.7142857142858</ele><time>2026-04-06T08:09:05.387Z</time></trkpt><trkpt lat="45.5257416" lon="11.137451"><ele>533.8571428571429</ele><time>2026-04-06T08:09:07.368Z</time></trkpt><trkpt lat="45.5258061" lon="11.1374003"><ele>534.0</ele><time>2026-04-06T08:09:10.42Z</time></trkpt><trkpt lat="45.5258695" lon="11.1373527"><ele>534.0</ele><time>2026-04-06T08:09:12.434Z</time></trkpt><trkpt lat="45.525933" lon="11.137304"><ele>534.0</ele><time>2026-04-06T08:09:15.434Z</time></trkpt><trkpt lat="45.5260163" lon="11.1372607"><ele>534.0</ele><time>2026-04-06T08:09:18.375Z</time></trkpt><trkpt lat="45.5260982" lon="11.1372314"><ele>534.0</ele><time>2026-04-06T08:09:21.438Z</time></trkpt><trkpt lat="45.5261665" lon="11.1372011"><ele>534.0</ele><time>2026-04-06T08:09:24.372Z</time></trkpt><trkpt lat="45.5262352" lon="11.137172"><ele>534.0</ele><time>2026-04-06T08:09:27.396Z</time></trkpt><trkpt lat="45.5263028" lon="11.1371433"><ele>536.5714285714287</ele><time>2026-04-06T08:09:30.399Z</time></trkpt><trkpt lat="45.526369" lon="11.1371175"><ele>539.1428571428571</ele><time>2026-04-06T08:09:33.397Z</time></trkpt><trkpt lat="45.5264318" lon="11.1370919"><ele>541.7142857142858</ele><time>2026-04-06T08:09:36.412Z</time></trkpt><trkpt lat="45.526496" lon="11.1370446"><ele>544.2857142857143</ele><time>2026-04-06T08:09:40.411Z</time></trkpt><trkpt lat="45.5265485" lon="11.1369814"><ele>546.8571428571429</ele><time>2026-04-06T08:09:44.41Z</time></trkpt><trkpt lat="45.5266033" lon="11.136917"><ele>549.4285714285714</ele><time>2026-04-06T08:09:47.43Z</time></trkpt><trkpt lat="45.5266576" lon="11.1368698"><ele>552.0</ele><time>2026-04-06T08:09:50.432Z</time></trkpt><trkpt lat="45.5267082" lon="11.1368032"><ele>552.0</ele><time>2026-04-06T08:09:54.424Z</time></trkpt><trkpt lat="45.5267701" lon="11.1367712"><ele>552.0</ele><time>2026-04-06T08:09:58.421Z</time></trkpt><trkpt lat="45.5268408" lon="11.1367361"><ele>552.0</ele><time>2026-04-06T08:10:03.42Z</time></trkpt><trkpt lat="45.5269309" lon="11.1367536"><ele>552.0</ele><time>2026-04-06T08:10:07.472Z</time></trkpt><trkpt lat="45.5269989" lon="11.1367564"><ele>552.0</ele><time>2026-04-06T08:10:10.447Z</time></trkpt><trkpt lat="45.52708" lon="11.1368018"><ele>552.0</ele><time>2026-04-06T08:10:13.392Z</time></trkpt><trkpt lat="45.5271548" lon="11.1367879"><ele>553.1428571428571</ele><time>2026-04-06T08:10:18.428Z</time></trkpt><trkpt lat="45.5271927" lon="11.1367028"><ele>554.2857142857143</ele><time>2026-04-06T08:10:24.422Z</time></trkpt><trkpt lat="45.527258" lon="11.1366515"><ele>555.4285714285714</ele><time>2026-04-06T08:10:29.354Z</time></trkpt><trkpt lat="45.5273169" lon="11.1366151"><ele>556.5714285714286</ele><time>2026-04-06T08:10:32.375Z</time></trkpt><trkpt lat="45.5273878" lon="11.1365971"><ele>557.7142857142858</ele><time>2026-04-06T08:10:36.363Z</time></trkpt><trkpt lat="45.5274547" lon="11.1365609"><ele>558.8571428571429</ele><time>2026-04-06T08:10:41.376Z</time></trkpt><trkpt lat="45.5275287" lon="11.1365143"><ele>560.0</ele><time>2026-04-06T08:10:45.375Z</time></trkpt><trkpt lat="45.5275902" lon="11.1364792"><ele>560.0</ele><time>2026-04-06T08:10:50.36Z</time></trkpt><trkpt lat="45.5276284" lon="11.1363838"><ele>560.0</ele><time>2026-04-06T08:10:57.371Z</time></trkpt><trkpt lat="45.5276529" lon="11.1362884"><ele>560.0</ele><time>2026-04-06T08:11:01.372Z</time></trkpt><trkpt lat="45.5276505" lon="11.1361888"><ele>560.0</ele><time>2026-04-06T08:11:07.353Z</time></trkpt><trkpt lat="45.5276593" lon="11.1360947"><ele>560.0</ele><time>2026-04-06T08:11:13.362Z</time></trkpt><trkpt lat="45.5276796" lon="11.1359881"><ele>560.0</ele><time>2026-04-06T08:11:22.356Z</time></trkpt><trkpt lat="45.527718" lon="11.1359004"><ele>560.0</ele><time>2026-04-06T08:11:26.36Z</time></trkpt><trkpt lat="45.5277586" lon="11.1358282"><ele>560.0</ele><time>2026-04-06T08:11:30.366Z</time></trkpt><trkpt lat="45.5278058" lon="11.1357606"><ele>560.0</ele><time>2026-04-06T08:11:35.354Z</time></trkpt><trkpt lat="45.5278538" lon="11.1356953"><ele>560.0</ele><time>2026-04-06T08:11:39.354Z</time></trkpt><trkpt lat="45.527899" lon="11.1356255"><ele>560.0</ele><time>2026-04-06T08:11:44.357Z</time></trkpt><trkpt lat="45.5279444" lon="11.1355443"><ele>560.0</ele><time>2026-04-06T08:11:48.352Z</time></trkpt><trkpt lat="45.5279897" lon="11.1354652"><ele>560.0</ele><time>2026-04-06T08:11:51.363Z</time></trkpt><trkpt lat="45.5280385" lon="11.1353954"><ele>560.0</ele><time>2026-04-06T08:11:55.364Z</time></trkpt><trkpt lat="45.5280898" lon="11.1353227"><ele>562.0</ele><time>2026-04-06T08:11:59.354Z</time></trkpt><trkpt lat="45.5281356" lon="11.1352594"><ele>564.0</ele><time>2026-04-06T08:12:04.353Z</time></trkpt><trkpt lat="45.5282014" lon="11.1352347"><ele>566.0</ele><time>2026-04-06T08:12:08.356Z</time></trkpt><trkpt lat="45.5282672" lon="11.1352055"><ele>568.0</ele><time>2026-04-06T08:12:12.35Z</time></trkpt><trkpt lat="45.5283306" lon="11.1351591"><ele>570.0</ele><time>2026-04-06T08:12:17.352Z</time></trkpt><trkpt lat="45.5283902" lon="11.1351161"><ele>572.0</ele><time>2026-04-06T08:12:23.358Z</time></trkpt><trkpt lat="45.528448" lon="11.1350738"><ele>574.0</ele><time>2026-04-06T08:12:28.371Z</time></trkpt><trkpt lat="45.5285078" lon="11.1350235"><ele>574.0</ele><time>2026-04-06T08:12:32.391Z</time></trkpt><trkpt lat="45.5285686" lon="11.1349738"><ele>574.0</ele><time>2026-04-06T08:12:37.35Z</time></trkpt><trkpt lat="45.5286308" lon="11.1349436"><ele>574.0</ele><time>2026-04-06T08:12:41.404Z</time></trkpt><trkpt lat="45.5286873" lon="11.1348827"><ele>574.0</ele><time>2026-04-06T08:12:45.363Z</time></trkpt><trkpt lat="45.5287598" lon="11.1348374"><ele>574.0</ele><time>2026-04-06T08:12:49.409Z</time></trkpt><trkpt lat="45.5288247" lon="11.1347786"><ele>574.0</ele><time>2026-04-06T08:12:53.408Z</time></trkpt><trkpt lat="45.5288814" lon="11.1347088"><ele>574.0</ele><time>2026-04-06T08:12:57.385Z</time></trkpt><trkpt lat="45.5289334" lon="11.1346309"><ele>575.1428571428571</ele><time>2026-04-06T08:13:01.361Z</time></trkpt><trkpt lat="45.5289738" lon="11.134553"><ele>576.2857142857142</ele><time>2026-04-06T08:13:05.352Z</time></trkpt><trkpt lat="45.5290074" lon="11.1344679"><ele>577.4285714285714</ele><time>2026-04-06T08:13:09.358Z</time></trkpt><trkpt lat="45.5290424" lon="11.1343723"><ele>578.5714285714286</ele><time>2026-04-06T08:13:13.363Z</time></trkpt><trkpt lat="45.5290836" lon="11.1343042"><ele>579.7142857142857</ele><time>2026-04-06T08:13:16.363Z</time></trkpt><trkpt lat="45.5291276" lon="11.134232"><ele>580.8571428571429</ele><time>2026-04-06T08:13:19.367Z</time></trkpt><trkpt lat="45.529183" lon="11.1341715"><ele>582.0</ele><time>2026-04-06T08:13:22.355Z</time></trkpt><trkpt lat="45.5292488" lon="11.1341237"><ele>582.0</ele><time>2026-04-06T08:13:26.351Z</time></trkpt><trkpt lat="45.5293141" lon="11.1340982"><ele>582.0</ele><time>2026-04-06T08:13:29.361Z</time></trkpt><trkpt lat="45.5293875" lon="11.1340919"><ele>582.0</ele><time>2026-04-06T08:13:32.374Z</time></trkpt><trkpt lat="45.5294669" lon="11.1340945"><ele>582.0</ele><time>2026-04-06T08:13:36.361Z</time></trkpt><trkpt lat="45.5295361" lon="11.1341052"><ele>582.0</ele><time>2026-04-06T08:13:39.357Z</time></trkpt><trkpt lat="45.529605" lon="11.1341142"><ele>582.0</ele><time>2026-04-06T08:13:43.365Z</time></trkpt><trkpt lat="45.5296771" lon="11.1341105"><ele>582.0</ele><time>2026-04-06T08:13:46.359Z</time></trkpt><trkpt lat="45.5297493" lon="11.1340956"><ele>583.3333333333334</ele><time>2026-04-06T08:13:49.371Z</time></trkpt><trkpt lat="45.5298306" lon="11.1340619"><ele>584.6666666666666</ele><time>2026-04-06T08:13:53.424Z</time></trkpt><trkpt lat="45.5299188" lon="11.1340793"><ele>586.0</ele><time>2026-04-06T08:13:56.423Z</time></trkpt><trkpt lat="45.5299909" lon="11.134089"><ele>587.3333333333333</ele><time>2026-04-06T08:13:59.364Z</time></trkpt><trkpt lat="45.5300628" lon="11.1340921"><ele>588.6666666666666</ele><time>2026-04-06T08:14:02.364Z</time></trkpt><trkpt lat="45.5301335" lon="11.1341048"><ele>590.0</ele><time>2026-04-06T08:14:05.43Z</time></trkpt><trkpt lat="45.5302017" lon="11.1341018"><ele>590.0</ele><time>2026-04-06T08:14:09.369Z</time></trkpt><trkpt lat="45.5302714" lon="11.1341265"><ele>590.0</ele><time>2026-04-06T08:14:13.368Z</time></trkpt><trkpt lat="45.5303391" lon="11.1341357"><ele>590.0</ele><time>2026-04-06T08:14:16.364Z</time></trkpt><trkpt lat="45.5304308" lon="11.1341315"><ele>590.0</ele><time>2026-04-06T08:14:20.36Z</time></trkpt><trkpt lat="45.530493" lon="11.1341504"><ele>590.0</ele><time>2026-04-06T08:14:23.376Z</time></trkpt><trkpt lat="45.5305789" lon="11.1341641"><ele>590.0</ele><time>2026-04-06T08:14:26.364Z</time></trkpt><trkpt lat="45.5306591" lon="11.1341706"><ele>589.5</ele><time>2026-04-06T08:14:29.358Z</time></trkpt><trkpt lat="45.5307516" lon="11.1342137"><ele>589.0</ele><time>2026-04-06T08:14:32.362Z</time></trkpt><trkpt lat="45.5308217" lon="11.1342483"><ele>588.5</ele><time>2026-04-06T08:14:34.362Z</time></trkpt><trkpt lat="45.5308864" lon="11.1342778"><ele>588.0</ele><time>2026-04-06T08:14:36.362Z</time></trkpt><trkpt lat="45.5309583" lon="11.1343165"><ele>587.5</ele><time>2026-04-06T08:14:39.423Z</time></trkpt><trkpt lat="45.5310286" lon="11.1343438"><ele>587.0</ele><time>2026-04-06T08:14:42.405Z</time></trkpt><trkpt lat="45.531111" lon="11.1343481"><ele>587.0</ele><time>2026-04-06T08:14:45.363Z</time></trkpt><trkpt lat="45.5312022" lon="11.1343714"><ele>587.0</ele><time>2026-04-06T08:14:48.363Z</time></trkpt><trkpt lat="45.531277" lon="11.1344318"><ele>587.0</ele><time>2026-04-06T08:14:52.363Z</time></trkpt><trkpt lat="45.5313556" lon="11.134497"><ele>587.0</ele><time>2026-04-06T08:14:55.366Z</time></trkpt><trkpt lat="45.531421" lon="11.1345333"><ele>587.0</ele><time>2026-04-06T08:14:57.359Z</time></trkpt><trkpt lat="45.5314933" lon="11.1345637"><ele>587.0</ele><time>2026-04-06T08:15:00.358Z</time></trkpt><trkpt lat="45.5315658" lon="11.1345709"><ele>585.3333333333333</ele><time>2026-04-06T08:15:03.364Z</time></trkpt><trkpt lat="45.5316406" lon="11.1345797"><ele>583.6666666666666</ele><time>2026-04-06T08:15:06.371Z</time></trkpt><trkpt lat="45.5317312" lon="11.1345861"><ele>582.0</ele><time>2026-04-06T08:15:09.361Z</time></trkpt><trkpt lat="45.5318001" lon="11.1346104"><ele>580.3333333333334</ele><time>2026-04-06T08:15:11.362Z</time></trkpt><trkpt lat="45.5318713" lon="11.1346248"><ele>578.6666666666667</ele><time>2026-04-06T08:15:13.38Z</time></trkpt><trkpt lat="45.531935" lon="11.1346366"><ele>577.0</ele><time>2026-04-06T08:15:15.365Z</time></trkpt><trkpt lat="45.5320135" lon="11.1346478"><ele>577.5</ele><time>2026-04-06T08:15:18.362Z</time></trkpt><trkpt lat="45.5320947" lon="11.1346735"><ele>578.0</ele><time>2026-04-06T08:15:21.405Z</time></trkpt><trkpt lat="45.5321778" lon="11.1346628"><ele>578.5</ele><time>2026-04-06T08:15:24.363Z</time></trkpt><trkpt lat="45.5322605" lon="11.1346297"><ele>579.0</ele><time>2026-04-06T08:15:27.359Z</time></trkpt><trkpt lat="45.5323495" lon="11.1345887"><ele>579.5</ele><time>2026-04-06T08:15:30.363Z</time></trkpt><trkpt lat="45.5324287" lon="11.1345456"><ele>580.0</ele><time>2026-04-06T08:15:33.403Z</time></trkpt><trkpt lat="45.5325088" lon="11.134502"><ele>580.0</ele><time>2026-04-06T08:15:36.361Z</time></trkpt><trkpt lat="45.5325904" lon="11.1344759"><ele>580.0</ele><time>2026-04-06T08:15:39.357Z</time></trkpt><trkpt lat="45.5328073" lon="11.1344665"><ele>580.0</ele><time>2026-04-06T08:15:45.365Z</time></trkpt><trkpt lat="45.5328758" lon="11.1344513"><ele>580.0</ele><time>2026-04-06T08:15:47.412Z</time></trkpt><trkpt lat="45.5329613" lon="11.1344286"><ele>582.0</ele><time>2026-04-06T08:15:50.357Z</time></trkpt><trkpt lat="45.5330478" lon="11.1344184"><ele>584.0</ele><time>2026-04-06T08:15:53.364Z</time></trkpt><trkpt lat="45.5331304" lon="11.1344091"><ele>586.0</ele><time>2026-04-06T08:15:56.373Z</time></trkpt><trkpt lat="45.533206" lon="11.1343996"><ele>588.0</ele><time>2026-04-06T08:15:59.357Z</time></trkpt><trkpt lat="45.5332974" lon="11.1343691"><ele>590.0</ele><time>2026-04-06T08:16:02.366Z</time></trkpt><trkpt lat="45.5334824" lon="11.134361"><ele>590.0</ele><time>2026-04-06T08:16:09.424Z</time></trkpt><trkpt lat="45.5335562" lon="11.1343572"><ele>590.0</ele><time>2026-04-06T08:16:12.372Z</time></trkpt><trkpt lat="45.5336394" lon="11.1343432"><ele>590.0</ele><time>2026-04-06T08:16:15.363Z</time></trkpt><trkpt lat="45.5337291" lon="11.1343328"><ele>590.0</ele><time>2026-04-06T08:16:18.397Z</time></trkpt><trkpt lat="45.5337963" lon="11.1343163"><ele>590.0</ele><time>2026-04-06T08:16:20.367Z</time></trkpt><trkpt lat="45.5339024" lon="11.1342659"><ele>590.0</ele><time>2026-04-06T08:16:24.36Z</time></trkpt><trkpt lat="45.5339643" lon="11.1342181"><ele>588.7142857142858</ele><time>2026-04-06T08:16:26.359Z</time></trkpt><trkpt lat="45.5340208" lon="11.1341716"><ele>587.4285714285714</ele><time>2026-04-06T08:16:28.378Z</time></trkpt><trkpt lat="45.5340854" lon="11.1341023"><ele>586.1428571428571</ele><time>2026-04-06T08:16:30.361Z</time></trkpt><trkpt lat="45.5341442" lon="11.1340386"><ele>584.8571428571429</ele><time>2026-04-06T08:16:32.364Z</time></trkpt><trkpt lat="45.5341962" lon="11.1339829"><ele>583.5714285714286</ele><time>2026-04-06T08:16:34.361Z</time></trkpt><trkpt lat="45.5342718" lon="11.1339128"><ele>582.2857142857143</ele><time>2026-04-06T08:16:37.362Z</time></trkpt><trkpt lat="45.5343312" lon="11.1338572"><ele>581.0</ele><time>2026-04-06T08:16:40.367Z</time></trkpt><trkpt lat="45.5343983" lon="11.1337933"><ele>581.0</ele><time>2026-04-06T08:16:43.37Z</time></trkpt><trkpt lat="45.5344588" lon="11.1337494"><ele>581.0</ele><time>2026-04-06T08:16:46.361Z</time></trkpt><trkpt lat="45.5345454" lon="11.1337213"><ele>581.0</ele><time>2026-04-06T08:16:49.364Z</time></trkpt><trkpt lat="45.5346108" lon="11.1336858"><ele>581.0</ele><time>2026-04-06T08:16:54.367Z</time></trkpt><trkpt lat="45.5346923" lon="11.1336668"><ele>581.0</ele><time>2026-04-06T08:16:58.362Z</time></trkpt><trkpt lat="45.5347789" lon="11.1336671"><ele>581.0</ele><time>2026-04-06T08:17:01.364Z</time></trkpt><trkpt lat="45.5348595" lon="11.1336699"><ele>581.5</ele><time>2026-04-06T08:17:05.384Z</time></trkpt><trkpt lat="45.5349313" lon="11.1336934"><ele>582.0</ele><time>2026-04-06T08:17:09.399Z</time></trkpt><trkpt lat="45.53501" lon="11.1337796"><ele>582.5</ele><time>2026-04-06T08:17:12.357Z</time></trkpt><trkpt lat="45.5350815" lon="11.1338447"><ele>583.0</ele><time>2026-04-06T08:17:15.401Z</time></trkpt><trkpt lat="45.5351448" lon="11.1339181"><ele>583.5</ele><time>2026-04-06T08:17:18.358Z</time></trkpt><trkpt lat="45.5352011" lon="11.1340003"><ele>584.0</ele><time>2026-04-06T08:17:21.365Z</time></trkpt><trkpt lat="45.5352926" lon="11.1340389"><ele>586.5</ele><time>2026-04-06T08:17:25.358Z</time></trkpt><trkpt lat="45.5353791" lon="11.1340798"><ele>589.0</ele><time>2026-04-06T08:17:27.361Z</time></trkpt><trkpt lat="45.5354412" lon="11.134109"><ele>591.5</ele><time>2026-04-06T08:17:29.362Z</time></trkpt><trkpt lat="45.5355223" lon="11.1341236"><ele>594.0</ele><time>2026-04-06T08:17:32.368Z</time></trkpt><trkpt lat="45.5356049" lon="11.134108"><ele>596.5</ele><time>2026-04-06T08:17:35.36Z</time></trkpt><trkpt lat="45.5356941" lon="11.1340877"><ele>599.0</ele><time>2026-04-06T08:17:38.386Z</time></trkpt><trkpt lat="45.5357722" lon="11.1340632"><ele>598.5</ele><time>2026-04-06T08:17:41.415Z</time></trkpt><trkpt lat="45.5358545" lon="11.1340444"><ele>598.0</ele><time>2026-04-06T08:17:44.357Z</time></trkpt><trkpt lat="45.535923" lon="11.134014"><ele>597.5</ele><time>2026-04-06T08:17:47.358Z</time></trkpt><trkpt lat="45.5359937" lon="11.1339764"><ele>597.0</ele><time>2026-04-06T08:17:50.357Z</time></trkpt><trkpt lat="45.5360743" lon="11.1339509"><ele>596.5</ele><time>2026-04-06T08:17:53.358Z</time></trkpt><trkpt lat="45.5361576" lon="11.1339214"><ele>596.0</ele><time>2026-04-06T08:17:56.364Z</time></trkpt><trkpt lat="45.5362405" lon="11.1339027"><ele>596.0</ele><time>2026-04-06T08:17:59.363Z</time></trkpt><trkpt lat="45.5363156" lon="11.1338792"><ele>596.0</ele><time>2026-04-06T08:18:02.365Z</time></trkpt><trkpt lat="45.5363964" lon="11.1338564"><ele>596.0</ele><time>2026-04-06T08:18:05.373Z</time></trkpt><trkpt lat="45.5364838" lon="11.1338381"><ele>596.0</ele><time>2026-04-06T08:18:08.361Z</time></trkpt><trkpt lat="45.5365482" lon="11.1338401"><ele>596.0</ele><time>2026-04-06T08:18:10.388Z</time></trkpt><trkpt lat="45.5366326" lon="11.1338519"><ele>596.0</ele><time>2026-04-06T08:18:13.409Z</time></trkpt><trkpt lat="45.5366966" lon="11.1338781"><ele>596.0</ele><time>2026-04-06T08:18:15.358Z</time></trkpt><trkpt lat="45.5367631" lon="11.1338699"><ele>596.0</ele><time>2026-04-06T08:18:18.362Z</time></trkpt><trkpt lat="45.5368357" lon="11.1338608"><ele>596.0</ele><time>2026-04-06T08:18:21.367Z</time></trkpt><trkpt lat="45.5368994" lon="11.1338647"><ele>596.0</ele><time>2026-04-06T08:18:23.379Z</time></trkpt><trkpt lat="45.5369875" lon="11.1338794"><ele>596.0</ele><time>2026-04-06T08:18:26.364Z</time></trkpt><trkpt lat="45.5370526" lon="11.133891"><ele>596.0</ele><time>2026-04-06T08:18:28.423Z</time></trkpt><trkpt lat="45.5371199" lon="11.1339051"><ele>596.0</ele><time>2026-04-06T08:18:30.363Z</time></trkpt><trkpt lat="45.5371835" lon="11.1339139"><ele>595.8571428571429</ele><time>2026-04-06T08:18:32.368Z</time></trkpt><trkpt lat="45.537248" lon="11.1339337"><ele>595.7142857142857</ele><time>2026-04-06T08:18:34.426Z</time></trkpt><trkpt lat="45.5373186" lon="11.1339715"><ele>595.5714285714286</ele><time>2026-04-06T08:18:37.434Z</time></trkpt><trkpt lat="45.5373685" lon="11.1340284"><ele>595.4285714285714</ele><time>2026-04-06T08:18:40.369Z</time></trkpt><trkpt lat="45.537425" lon="11.1340915"><ele>595.2857142857142</ele><time>2026-04-06T08:18:44.36Z</time></trkpt><trkpt lat="45.537501" lon="11.1340801"><ele>595.1428571428571</ele><time>2026-04-06T08:18:48.364Z</time></trkpt><trkpt lat="45.5375758" lon="11.134052"><ele>595.0</ele><time>2026-04-06T08:18:52.416Z</time></trkpt><trkpt lat="45.5376632" lon="11.1340444"><ele>595.0</ele><time>2026-04-06T08:18:55.392Z</time></trkpt><trkpt lat="45.537752" lon="11.1340045"><ele>595.0</ele><time>2026-04-06T08:18:58.358Z</time></trkpt><trkpt lat="45.5378131" lon="11.1339814"><ele>595.0</ele><time>2026-04-06T08:19:01.366Z</time></trkpt><trkpt lat="45.5378832" lon="11.1339479"><ele>595.0</ele><time>2026-04-06T08:19:05.411Z</time></trkpt><trkpt lat="45.5379612" lon="11.1339009"><ele>595.0</ele><time>2026-04-06T08:19:08.367Z</time></trkpt><trkpt lat="45.5380417" lon="11.1338408"><ele>595.0</ele><time>2026-04-06T08:19:11.358Z</time></trkpt><trkpt lat="45.5381055" lon="11.1337901"><ele>595.1666666666667</ele><time>2026-04-06T08:19:13.397Z</time></trkpt><trkpt lat="45.5381623" lon="11.1337494"><ele>595.3333333333334</ele><time>2026-04-06T08:19:15.362Z</time></trkpt><trkpt lat="45.5382175" lon="11.1337009"><ele>595.5</ele><time>2026-04-06T08:19:17.356Z</time></trkpt><trkpt lat="45.5382849" lon="11.1336554"><ele>595.6666666666666</ele><time>2026-04-06T08:19:19.392Z</time></trkpt><trkpt lat="45.538358" lon="11.1335787"><ele>595.8333333333333</ele><time>2026-04-06T08:19:22.376Z</time></trkpt><trkpt lat="45.5384237" lon="11.133509"><ele>596.0</ele><time>2026-04-06T08:19:25.364Z</time></trkpt><trkpt lat="45.5384931" lon="11.1334426"><ele>596.0</ele><time>2026-04-06T08:19:28.364Z</time></trkpt><trkpt lat="45.5385512" lon="11.1333819"><ele>596.0</ele><time>2026-04-06T08:19:31.36Z</time></trkpt><trkpt lat="45.5386021" lon="11.1333122"><ele>596.0</ele><time>2026-04-06T08:19:34.365Z</time></trkpt><trkpt lat="45.5386642" lon="11.133223"><ele>596.0</ele><time>2026-04-06T08:19:37.445Z</time></trkpt><trkpt lat="45.5387272" lon="11.133143"><ele>596.0</ele><time>2026-04-06T08:19:40.367Z</time></trkpt><trkpt lat="45.5387882" lon="11.1330835"><ele>596.0</ele><time>2026-04-06T08:19:43.364Z</time></trkpt><trkpt lat="45.5388519" lon="11.1330248"><ele>596.8333333333333</ele><time>2026-04-06T08:19:46.366Z</time></trkpt><trkpt lat="45.5389226" lon="11.1329428"><ele>597.6666666666666</ele><time>2026-04-06T08:19:49.363Z</time></trkpt><trkpt lat="45.5389842" lon="11.1328682"><ele>598.5</ele><time>2026-04-06T08:19:52.374Z</time></trkpt><trkpt lat="45.5390565" lon="11.1328232"><ele>599.3333333333334</ele><time>2026-04-06T08:19:56.377Z</time></trkpt><trkpt lat="45.5391259" lon="11.1328086"><ele>600.1666666666667</ele><time>2026-04-06T08:20:02.375Z</time></trkpt><trkpt lat="45.539183" lon="11.1328641"><ele>601.0</ele><time>2026-04-06T08:20:08.42Z</time></trkpt><trkpt lat="45.539203" lon="11.1329664"><ele>601.0</ele><time>2026-04-06T08:20:12.375Z</time></trkpt><trkpt lat="45.539264" lon="11.1330138"><ele>601.0</ele><time>2026-04-06T08:20:17.37Z</time></trkpt><trkpt lat="45.5393007" lon="11.1329288"><ele>601.0</ele><time>2026-04-06T08:20:22.362Z</time></trkpt><trkpt lat="45.5393365" lon="11.1328514"><ele>601.0</ele><time>2026-04-06T08:20:26.364Z</time></trkpt><trkpt lat="45.5393754" lon="11.1327628"><ele>601.0</ele><time>2026-04-06T08:20:30.373Z</time></trkpt><trkpt lat="45.5394367" lon="11.132735"><ele>601.0</ele><time>2026-04-06T08:20:33.372Z</time></trkpt><trkpt lat="45.5394995" lon="11.1327087"><ele>601.0</ele><time>2026-04-06T08:20:37.369Z</time></trkpt><trkpt lat="45.5395541" lon="11.1326463"><ele>604.2857142857142</ele><time>2026-04-06T08:20:44.366Z</time></trkpt><trkpt lat="45.5396064" lon="11.1325861"><ele>607.5714285714287</ele><time>2026-04-06T08:20:50.362Z</time></trkpt><trkpt lat="45.5396647" lon="11.1325447"><ele>610.8571428571429</ele><time>2026-04-06T08:20:57.399Z</time></trkpt><trkpt lat="45.5397313" lon="11.1325131"><ele>614.1428571428571</ele><time>2026-04-06T08:21:05.372Z</time></trkpt><trkpt lat="45.5397976" lon="11.1325118"><ele>617.4285714285713</ele><time>2026-04-06T08:21:13.36Z</time></trkpt><trkpt lat="45.539868" lon="11.1325223"><ele>620.7142857142858</ele><time>2026-04-06T08:21:21.4Z</time></trkpt><trkpt lat="45.5399375" lon="11.1325169"><ele>624.0</ele><time>2026-04-06T08:21:28.409Z</time></trkpt><trkpt lat="45.5400035" lon="11.132521"><ele>624.0</ele><time>2026-04-06T08:21:34.358Z</time></trkpt><trkpt lat="45.5400706" lon="11.1325289"><ele>624.0</ele><time>2026-04-06T08:21:40.366Z</time></trkpt><trkpt lat="45.5401351" lon="11.1325034"><ele>624.0</ele><time>2026-04-06T08:21:48.456Z</time></trkpt><trkpt lat="45.5402018" lon="11.1324724"><ele>624.0</ele><time>2026-04-06T08:21:56.365Z</time></trkpt><trkpt lat="45.5402606" lon="11.1325209"><ele>624.0</ele><time>2026-04-06T08:22:02.462Z</time></trkpt><trkpt lat="45.5403241" lon="11.1325779"><ele>624.0</ele><time>2026-04-06T08:22:09.367Z</time></trkpt><trkpt lat="45.540388" lon="11.132613"><ele>624.0</ele><time>2026-04-06T08:22:17.365Z</time></trkpt><trkpt lat="45.5404507" lon="11.1326431"><ele>626.5714285714286</ele><time>2026-04-06T08:22:22.356Z</time></trkpt><trkpt lat="45.5405171" lon="11.1326673"><ele>629.1428571428571</ele><time>2026-04-06T08:22:27.38Z</time></trkpt><trkpt lat="45.5405781" lon="11.1327324"><ele>631.7142857142857</ele><time>2026-04-06T08:22:37.364Z</time></trkpt><trkpt lat="45.5406489" lon="11.132775"><ele>634.2857142857142</ele><time>2026-04-06T08:22:41.371Z</time></trkpt><trkpt lat="45.5407097" lon="11.132826"><ele>636.8571428571429</ele><time>2026-04-06T08:22:46.374Z</time></trkpt><trkpt lat="45.5407731" lon="11.1328755"><ele>639.4285714285713</ele><time>2026-04-06T08:22:50.371Z</time></trkpt><trkpt lat="45.5408388" lon="11.1329088"><ele>642.0</ele><time>2026-04-06T08:22:55.362Z</time></trkpt><trkpt lat="45.5409088" lon="11.1329748"><ele>641.9999999999999</ele><time>2026-04-06T08:23:49.379Z</time></trkpt><trkpt lat="45.5409677" lon="11.1330201"><ele>642.0</ele><time>2026-04-06T08:25:16.374Z</time></trkpt><trkpt lat="45.5410357" lon="11.133074"><ele>642.0</ele><time>2026-04-06T08:25:23.361Z</time></trkpt><trkpt lat="45.5410947" lon="11.1331219"><ele>642.0</ele><time>2026-04-06T08:25:29.37Z</time></trkpt><trkpt lat="45.541171" lon="11.1331474"><ele>642.0</ele><time>2026-04-06T08:25:35.362Z</time></trkpt><trkpt lat="45.5412453" lon="11.1331903"><ele>641.9999999999999</ele><time>2026-04-06T08:25:41.374Z</time></trkpt><trkpt lat="45.5413095" lon="11.1332293"><ele>642.0</ele><time>2026-04-06T08:25:43.361Z</time></trkpt><trkpt lat="45.5415201" lon="11.1333547"><ele>641.1666666666666</ele><time>2026-04-06T08:25:45.361Z</time></trkpt><trkpt lat="45.5415898" lon="11.1333823"><ele>640.3333333333334</ele><time>2026-04-06T08:25:47.458Z</time></trkpt><trkpt lat="45.5416628" lon="11.1334336"><ele>639.5</ele><time>2026-04-06T08:25:49.374Z</time></trkpt><trkpt lat="45.541725" lon="11.1334755"><ele>638.6666666666667</ele><time>2026-04-06T08:25:51.371Z</time></trkpt><trkpt lat="45.5417863" lon="11.1335189"><ele>637.8333333333334</ele><time>2026-04-06T08:25:53.364Z</time></trkpt><trkpt lat="45.5418487" lon="11.1335617"><ele>637.0</ele><time>2026-04-06T08:25:55.373Z</time></trkpt><trkpt lat="45.5419324" lon="11.1336155"><ele>637.0</ele><time>2026-04-06T08:25:58.366Z</time></trkpt><trkpt lat="45.5420031" lon="11.1336965"><ele>637.0</ele><time>2026-04-06T08:26:01.37Z</time></trkpt><trkpt lat="45.5420671" lon="11.1337371"><ele>637.0</ele><time>2026-04-06T08:26:03.369Z</time></trkpt><trkpt lat="45.5421282" lon="11.1337665"><ele>637.0</ele><time>2026-04-06T08:26:05.372Z</time></trkpt><trkpt lat="45.5422156" lon="11.1338052"><ele>637.0</ele><time>2026-04-06T08:26:08.373Z</time></trkpt><trkpt lat="45.5422892" lon="11.1338269"><ele>637.0</ele><time>2026-04-06T08:26:10.365Z</time></trkpt><trkpt lat="45.5423653" lon="11.1338506"><ele>638.0</ele><time>2026-04-06T08:26:12.395Z</time></trkpt><trkpt lat="45.5424454" lon="11.1338631"><ele>639.0</ele><time>2026-04-06T08:26:14.371Z</time></trkpt><trkpt lat="45.5425388" lon="11.1338713"><ele>640.0</ele><time>2026-04-06T08:26:16.367Z</time></trkpt><trkpt lat="45.5426115" lon="11.1338833"><ele>641.0</ele><time>2026-04-06T08:26:19.358Z</time></trkpt><trkpt lat="45.5426695" lon="11.1338354"><ele>642.0</ele><time>2026-04-06T08:26:24.367Z</time></trkpt><trkpt lat="45.5427496" lon="11.1337831"><ele>643.0</ele><time>2026-04-06T08:26:28.355Z</time></trkpt><trkpt lat="45.5428128" lon="11.1337612"><ele>643.0</ele><time>2026-04-06T08:26:30.36Z</time></trkpt><trkpt lat="45.5428774" lon="11.1337672"><ele>643.0</ele><time>2026-04-06T08:26:32.362Z</time></trkpt><trkpt lat="45.5429441" lon="11.1337927"><ele>643.0</ele><time>2026-04-06T08:26:34.416Z</time></trkpt><trkpt lat="45.5430286" lon="11.1337944"><ele>643.0</ele><time>2026-04-06T08:26:37.383Z</time></trkpt><trkpt lat="45.5431156" lon="11.1337876"><ele>643.0</ele><time>2026-04-06T08:26:40.373Z</time></trkpt><trkpt lat="45.5431941" lon="11.1337832"><ele>643.0</ele><time>2026-04-06T08:26:43.362Z</time></trkpt><trkpt lat="45.5432591" lon="11.1337885"><ele>643.0</ele><time>2026-04-06T08:26:46.367Z</time></trkpt><trkpt lat="45.5433265" lon="11.1337676"><ele>643.1666666666667</ele><time>2026-04-06T08:26:49.367Z</time></trkpt><trkpt lat="45.5434042" lon="11.1337359"><ele>643.3333333333334</ele><time>2026-04-06T08:26:52.374Z</time></trkpt><trkpt lat="45.5434727" lon="11.133696"><ele>643.5</ele><time>2026-04-06T08:26:55.368Z</time></trkpt><trkpt lat="45.5435429" lon="11.133672"><ele>643.6666666666666</ele><time>2026-04-06T08:26:58.362Z</time></trkpt><trkpt lat="45.5436201" lon="11.1336673"><ele>643.8333333333333</ele><time>2026-04-06T08:27:01.364Z</time></trkpt><trkpt lat="45.5436991" lon="11.1336596"><ele>644.0</ele><time>2026-04-06T08:27:04.37Z</time></trkpt><trkpt lat="45.5437816" lon="11.133657"><ele>644.4285714285714</ele><time>2026-04-06T08:27:07.362Z</time></trkpt><trkpt lat="45.5438479" lon="11.1336635"><ele>644.8571428571429</ele><time>2026-04-06T08:27:09.4Z</time></trkpt><trkpt lat="45.5439229" lon="11.1336672"><ele>645.2857142857142</ele><time>2026-04-06T08:27:12.369Z</time></trkpt><trkpt lat="45.5439951" lon="11.1336746"><ele>645.7142857142858</ele><time>2026-04-06T08:27:15.37Z</time></trkpt><trkpt lat="45.5440644" lon="11.1336915"><ele>646.1428571428571</ele><time>2026-04-06T08:27:18.424Z</time></trkpt><trkpt lat="45.5441425" lon="11.1336936"><ele>646.5714285714286</ele><time>2026-04-06T08:27:22.373Z</time></trkpt><trkpt lat="45.5442114" lon="11.1336881"><ele>647.0</ele><time>2026-04-06T08:27:26.422Z</time></trkpt><trkpt lat="45.5442443" lon="11.1336106"><ele>647.0</ele><time>2026-04-06T08:27:30.366Z</time></trkpt><trkpt lat="45.5442245" lon="11.1335202"><ele>647.0</ele><time>2026-04-06T08:27:34.366Z</time></trkpt><trkpt lat="45.5442554" lon="11.1334232"><ele>647.0</ele><time>2026-04-06T08:27:39.415Z</time></trkpt><trkpt lat="45.5442772" lon="11.1333321"><ele>647.0</ele><time>2026-04-06T08:27:44.367Z</time></trkpt><trkpt lat="45.5443062" lon="11.133248"><ele>647.0</ele><time>2026-04-06T08:27:49.363Z</time></trkpt><trkpt lat="45.5443597" lon="11.1331585"><ele>647.0</ele><time>2026-04-06T08:28:30.355Z</time></trkpt><trkpt lat="45.544414" lon="11.1330784"><ele>647.0</ele><time>2026-04-06T08:29:20.358Z</time></trkpt><trkpt lat="45.544456" lon="11.1330068"><ele>645.6666666666666</ele><time>2026-04-06T08:29:23.368Z</time></trkpt><trkpt lat="45.5445162" lon="11.1329131"><ele>644.3333333333333</ele><time>2026-04-06T08:29:26.362Z</time></trkpt><trkpt lat="45.5445676" lon="11.1328245"><ele>643.0</ele><time>2026-04-06T08:29:28.432Z</time></trkpt><trkpt lat="45.5446158" lon="11.1327319"><ele>641.6666666666666</ele><time>2026-04-06T08:29:30.369Z</time></trkpt><trkpt lat="45.544671" lon="11.132645"><ele>640.3333333333334</ele><time>2026-04-06T08:29:32.361Z</time></trkpt><trkpt lat="45.5447473" lon="11.1325403"><ele>639.0</ele><time>2026-04-06T08:29:34.369Z</time></trkpt><trkpt lat="45.5447954" lon="11.132482"><ele>639.0</ele><time>2026-04-06T08:29:35.428Z</time></trkpt><trkpt lat="45.544853" lon="11.1324285"><ele>639.0</ele><time>2026-04-06T08:29:36.47Z</time></trkpt><trkpt lat="45.5449074" lon="11.1323703"><ele>639.0</ele><time>2026-04-06T08:29:37.432Z</time></trkpt><trkpt lat="45.5449536" lon="11.1322923"><ele>639.0</ele><time>2026-04-06T08:29:38.413Z</time></trkpt><trkpt lat="45.5450003" lon="11.1322048"><ele>639.0</ele><time>2026-04-06T08:29:39.44Z</time></trkpt><trkpt lat="45.5450634" lon="11.1320729"><ele>639.0</ele><time>2026-04-06T08:29:41.361Z</time></trkpt><trkpt lat="45.5450965" lon="11.1319797"><ele>639.5</ele><time>2026-04-06T08:29:43.414Z</time></trkpt><trkpt lat="45.5451311" lon="11.1318765"><ele>640.0</ele><time>2026-04-06T08:29:45.354Z</time></trkpt><trkpt lat="45.5451715" lon="11.1317615"><ele>640.5</ele><time>2026-04-06T08:29:48.485Z</time></trkpt><trkpt lat="45.5451881" lon="11.1316532"><ele>641.0</ele><time>2026-04-06T08:29:51.359Z</time></trkpt><trkpt lat="45.5451887" lon="11.1315597"><ele>641.5</ele><time>2026-04-06T08:29:54.483Z</time></trkpt><trkpt lat="45.5451692" lon="11.1314428"><ele>642.0</ele><time>2026-04-06T08:29:58.438Z</time></trkpt><trkpt lat="45.5451601" lon="11.1312995"><ele>642.0</ele><time>2026-04-06T08:30:00.429Z</time></trkpt><trkpt lat="45.5451264" lon="11.1311757"><ele>642.0</ele><time>2026-04-06T08:30:02.445Z</time></trkpt><trkpt lat="45.5450788" lon="11.1309734"><ele>642.0</ele><time>2026-04-06T08:30:04.356Z</time></trkpt><trkpt lat="45.545042" lon="11.1308669"><ele>642.0</ele><time>2026-04-06T08:30:05.359Z</time></trkpt><trkpt lat="45.545023" lon="11.1307296"><ele>642.0</ele><time>2026-04-06T08:30:06.377Z</time></trkpt><trkpt lat="45.5450071" lon="11.1306286"><ele>642.0</ele><time>2026-04-06T08:30:07.393Z</time></trkpt><trkpt lat="45.5449864" lon="11.1305351"><ele>642.0</ele><time>2026-04-06T08:30:08.369Z</time></trkpt><trkpt lat="45.5449643" lon="11.130439"><ele>642.0</ele><time>2026-04-06T08:30:09.372Z</time></trkpt><trkpt lat="45.5449817" lon="11.1303348"><ele>642.0</ele><time>2026-04-06T08:30:11.374Z</time></trkpt><trkpt lat="45.5449971" lon="11.1302335"><ele>642.0</ele><time>2026-04-06T08:30:13.353Z</time></trkpt><trkpt lat="45.5450021" lon="11.130088"><ele>642.0</ele><time>2026-04-06T08:30:16.371Z</time></trkpt><trkpt lat="45.5450186" lon="11.129999"><ele>642.5</ele><time>2026-04-06T08:30:18.367Z</time></trkpt><trkpt lat="45.5450341" lon="11.1298725"><ele>643.0</ele><time>2026-04-06T08:30:21.38Z</time></trkpt><trkpt lat="45.545039" lon="11.129771"><ele>643.5</ele><time>2026-04-06T08:30:26.387Z</time></trkpt><trkpt lat="45.5450324" lon="11.1296589"><ele>644.0</ele><time>2026-04-06T08:30:30.41Z</time></trkpt><trkpt lat="45.5450462" lon="11.1295422"><ele>644.5</ele><time>2026-04-06T08:30:33.383Z</time></trkpt><trkpt lat="45.5450668" lon="11.1294179"><ele>645.0</ele><time>2026-04-06T08:30:36.404Z</time></trkpt><trkpt lat="45.5450861" lon="11.1293276"><ele>645.0</ele><time>2026-04-06T08:30:38.401Z</time></trkpt><trkpt lat="45.545107" lon="11.1292101"><ele>645.0</ele><time>2026-04-06T08:30:41.423Z</time></trkpt><trkpt lat="45.5451341" lon="11.1291012"><ele>645.0</ele><time>2026-04-06T08:30:44.414Z</time></trkpt><trkpt lat="45.5451684" lon="11.1289906"><ele>645.0</ele><time>2026-04-06T08:30:47.405Z</time></trkpt><trkpt lat="45.5452133" lon="11.1288383"><ele>645.0</ele><time>2026-04-06T08:30:50.41Z</time></trkpt><trkpt lat="45.5452504" lon="11.1287388"><ele>645.0</ele><time>2026-04-06T08:30:52.407Z</time></trkpt><trkpt lat="45.5452829" lon="11.1286415"><ele>646.0</ele><time>2026-04-06T08:30:54.414Z</time></trkpt><trkpt lat="45.5453192" lon="11.1285428"><ele>647.0</ele><time>2026-04-06T08:30:56.413Z</time></trkpt><trkpt lat="45.5453502" lon="11.1284521"><ele>648.0</ele><time>2026-04-06T08:30:58.468Z</time></trkpt><trkpt lat="45.5453839" lon="11.1283415"><ele>649.0</ele><time>2026-04-06T08:31:01.406Z</time></trkpt><trkpt lat="45.545405" lon="11.1282275"><ele>650.0</ele><time>2026-04-06T08:31:04.397Z</time></trkpt><trkpt lat="45.5454349" lon="11.1281259"><ele>651.0</ele><time>2026-04-06T08:31:07.416Z</time></trkpt><trkpt lat="45.5454571" lon="11.128016"><ele>648.5</ele><time>2026-04-06T08:31:11.399Z</time></trkpt><trkpt lat="45.5454775" lon="11.1279109"><ele>646.0</ele><time>2026-04-06T08:31:15.393Z</time></trkpt><trkpt lat="45.5454925" lon="11.1277853"><ele>643.5</ele><time>2026-04-06T08:31:18.413Z</time></trkpt><trkpt lat="45.5454988" lon="11.1276616"><ele>641.0</ele><time>2026-04-06T08:31:21.387Z</time></trkpt><trkpt lat="45.5454895" lon="11.1275358"><ele>638.5</ele><time>2026-04-06T08:31:24.366Z</time></trkpt><trkpt lat="45.5454916" lon="11.1274348"><ele>636.0</ele><time>2026-04-06T08:31:26.361Z</time></trkpt><trkpt lat="45.545489" lon="11.1273235"><ele>635.3333333333334</ele><time>2026-04-06T08:31:28.353Z</time></trkpt><trkpt lat="45.5454813" lon="11.1272168"><ele>634.6666666666666</ele><time>2026-04-06T08:31:29.349Z</time></trkpt><trkpt lat="45.5454735" lon="11.1270726"><ele>634.0</ele><time>2026-04-06T08:31:31.358Z</time></trkpt><trkpt lat="45.5454631" lon="11.1269628"><ele>633.3333333333333</ele><time>2026-04-06T08:31:33.357Z</time></trkpt><trkpt lat="45.5454367" lon="11.1268657"><ele>632.6666666666666</ele><time>2026-04-06T08:31:35.354Z</time></trkpt><trkpt lat="45.5454196" lon="11.1267721"><ele>632.0</ele><time>2026-04-06T08:31:37.364Z</time></trkpt><trkpt lat="45.5453961" lon="11.126675"><ele>632.0</ele><time>2026-04-06T08:31:39.352Z</time></trkpt><trkpt lat="45.5453889" lon="11.1265718"><ele>632.0</ele><time>2026-04-06T08:31:41.353Z</time></trkpt><trkpt lat="45.5453626" lon="11.1264688"><ele>632.0</ele><time>2026-04-06T08:31:43.352Z</time></trkpt><trkpt lat="45.5453253" lon="11.12636"><ele>632.0</ele><time>2026-04-06T08:31:46.366Z</time></trkpt><trkpt lat="45.5452983" lon="11.1262691"><ele>632.0</ele><time>2026-04-06T08:31:49.357Z</time></trkpt><trkpt lat="45.5452745" lon="11.126183"><ele>632.0</ele><time>2026-04-06T08:31:52.355Z</time></trkpt><trkpt lat="45.5452334" lon="11.1260715"><ele>634.6666666666666</ele><time>2026-04-06T08:31:55.357Z</time></trkpt><trkpt lat="45.5451934" lon="11.1259634"><ele>637.3333333333333</ele><time>2026-04-06T08:31:58.365Z</time></trkpt><trkpt lat="45.5451594" lon="11.1258706"><ele>640.0</ele><time>2026-04-06T08:32:01.352Z</time></trkpt><trkpt lat="45.5451174" lon="11.1257793"><ele>642.6666666666666</ele><time>2026-04-06T08:32:04.355Z</time></trkpt><trkpt lat="45.5450965" lon="11.1256791"><ele>645.3333333333334</ele><time>2026-04-06T08:32:07.413Z</time></trkpt><trkpt lat="45.545096" lon="11.125577"><ele>648.0</ele><time>2026-04-06T08:32:10.424Z</time></trkpt><trkpt lat="45.545077" lon="11.125459"><ele>648.5</ele><time>2026-04-06T08:32:13.373Z</time></trkpt><trkpt lat="45.5450595" lon="11.1253414"><ele>649.0</ele><time>2026-04-06T08:32:16.373Z</time></trkpt><trkpt lat="45.5450434" lon="11.1252401"><ele>649.5</ele><time>2026-04-06T08:32:19.443Z</time></trkpt><trkpt lat="45.545011" lon="11.1251307"><ele>650.0</ele><time>2026-04-06T08:32:22.39Z</time></trkpt><trkpt lat="45.5449739" lon="11.1250214"><ele>650.5</ele><time>2026-04-06T08:32:25.373Z</time></trkpt><trkpt lat="45.5449293" lon="11.1249342"><ele>651.0</ele><time>2026-04-06T08:32:28.357Z</time></trkpt><trkpt lat="45.544898" lon="11.1248391"><ele>651.5714285714286</ele><time>2026-04-06T08:32:31.374Z</time></trkpt><trkpt lat="45.5448646" lon="11.1247544"><ele>652.1428571428571</ele><time>2026-04-06T08:32:34.395Z</time></trkpt><trkpt lat="45.5448321" lon="11.1246632"><ele>652.7142857142858</ele><time>2026-04-06T08:32:37.361Z</time></trkpt><trkpt lat="45.5447923" lon="11.1245852"><ele>653.2857142857142</ele><time>2026-04-06T08:32:41.415Z</time></trkpt><trkpt lat="45.5447691" lon="11.1244977"><ele>653.8571428571429</ele><time>2026-04-06T08:32:44.399Z</time></trkpt><trkpt lat="45.5447717" lon="11.1243962"><ele>654.4285714285714</ele><time>2026-04-06T08:32:47.449Z</time></trkpt><trkpt lat="45.5448255" lon="11.1243346"><ele>655.0</ele><time>2026-04-06T08:32:54.359Z</time></trkpt><trkpt lat="45.5449075" lon="11.1242748"><ele>655.0</ele><time>2026-04-06T08:32:59.36Z</time></trkpt><trkpt lat="45.5449828" lon="11.1242461"><ele>655.0</ele><time>2026-04-06T08:33:04.395Z</time></trkpt><trkpt lat="45.5450492" lon="11.1242106"><ele>655.0</ele><time>2026-04-06T08:33:08.357Z</time></trkpt><trkpt lat="45.5451101" lon="11.1241638"><ele>655.0</ele><time>2026-04-06T08:33:12.363Z</time></trkpt><trkpt lat="45.5451568" lon="11.1241015"><ele>655.0</ele><time>2026-04-06T08:33:16.4Z</time></trkpt><trkpt lat="45.5451967" lon="11.1240109"><ele>655.0</ele><time>2026-04-06T08:33:21.425Z</time></trkpt><trkpt lat="45.5452631" lon="11.1239529"><ele>655.0</ele><time>2026-04-06T08:33:28.417Z</time></trkpt><trkpt lat="45.545301" lon="11.1238766"><ele>655.1428571428571</ele><time>2026-04-06T08:33:33.353Z</time></trkpt><trkpt lat="45.5453475" lon="11.1238008"><ele>655.2857142857142</ele><time>2026-04-06T08:33:38.403Z</time></trkpt><trkpt lat="45.5453576" lon="11.1237098"><ele>655.4285714285713</ele><time>2026-04-06T08:33:43.357Z</time></trkpt><trkpt lat="45.5453866" lon="11.1236231"><ele>655.5714285714286</ele><time>2026-04-06T08:33:47.362Z</time></trkpt><trkpt lat="45.545387" lon="11.1235095"><ele>655.7142857142857</ele><time>2026-04-06T08:33:52.356Z</time></trkpt><trkpt lat="45.545398" lon="11.1234134"><ele>655.8571428571428</ele><time>2026-04-06T08:33:55.36Z</time></trkpt><trkpt lat="45.5454312" lon="11.1233319"><ele>656.0</ele><time>2026-04-06T08:33:58.436Z</time></trkpt><trkpt lat="45.5454887" lon="11.1232611"><ele>657.6666666666666</ele><time>2026-04-06T08:34:01.433Z</time></trkpt><trkpt lat="45.5455479" lon="11.1232124"><ele>659.3333333333333</ele><time>2026-04-06T08:34:04.357Z</time></trkpt><trkpt lat="45.5456226" lon="11.1231596"><ele>661.0</ele><time>2026-04-06T08:34:08.462Z</time></trkpt><trkpt lat="45.5456895" lon="11.1231056"><ele>662.6666666666666</ele><time>2026-04-06T08:34:12.361Z</time></trkpt><trkpt lat="45.545753" lon="11.1230598"><ele>664.3333333333334</ele><time>2026-04-06T08:34:16.374Z</time></trkpt><trkpt lat="45.5458202" lon="11.1230066"><ele>666.0</ele><time>2026-04-06T08:34:20.372Z</time></trkpt><trkpt lat="45.5458872" lon="11.1229632"><ele>666.0</ele><time>2026-04-06T08:34:24.361Z</time></trkpt><trkpt lat="45.5459582" lon="11.1229323"><ele>666.0</ele><time>2026-04-06T08:34:28.363Z</time></trkpt><trkpt lat="45.546017" lon="11.122898"><ele>666.0</ele><time>2026-04-06T08:34:31.359Z</time></trkpt><trkpt lat="45.5460821" lon="11.1228465"><ele>666.0</ele><time>2026-04-06T08:34:35.37Z</time></trkpt><trkpt lat="45.5461395" lon="11.1227961"><ele>666.0</ele><time>2026-04-06T08:34:38.359Z</time></trkpt><trkpt lat="45.5462173" lon="11.1227367"><ele>666.0</ele><time>2026-04-06T08:34:42.359Z</time></trkpt><trkpt lat="45.5462967" lon="11.122709"><ele>666.0</ele><time>2026-04-06T08:34:46.45Z</time></trkpt><trkpt lat="45.5463657" lon="11.1226762"><ele>666.25</ele><time>2026-04-06T08:34:50.363Z</time></trkpt><trkpt lat="45.546591" lon="11.1225451"><ele>666.5</ele><time>2026-04-06T08:35:04.37Z</time></trkpt><trkpt lat="45.5465939" lon="11.1224477"><ele>666.75</ele><time>2026-04-06T08:35:08.407Z</time></trkpt><trkpt lat="45.5465762" lon="11.1223359"><ele>667.0</ele><time>2026-04-06T08:35:13.375Z</time></trkpt><trkpt lat="45.5465694" lon="11.1222454"><ele>667.4285714285714</ele><time>2026-04-06T08:35:16.362Z</time></trkpt><trkpt lat="45.5465499" lon="11.1221529"><ele>667.8571428571429</ele><time>2026-04-06T08:35:19.363Z</time></trkpt><trkpt lat="45.5465687" lon="11.122057"><ele>668.2857142857142</ele><time>2026-04-06T08:35:22.375Z</time></trkpt><trkpt lat="45.5466323" lon="11.1220181"><ele>668.7142857142858</ele><time>2026-04-06T08:35:25.373Z</time></trkpt><trkpt lat="45.5467062" lon="11.1220157"><ele>669.1428571428571</ele><time>2026-04-06T08:35:29.408Z</time></trkpt><trkpt lat="45.5467818" lon="11.1220215"><ele>669.5714285714286</ele><time>2026-04-06T08:35:31.362Z</time></trkpt><trkpt lat="45.5468486" lon="11.1220315"><ele>670.0</ele><time>2026-04-06T08:35:34.363Z</time></trkpt><trkpt lat="45.5469236" lon="11.1220333"><ele>669.9999999999999</ele><time>2026-04-06T08:35:37.362Z</time></trkpt><trkpt lat="45.5469969" lon="11.1220227"><ele>670.0</ele><time>2026-04-06T08:35:40.368Z</time></trkpt><trkpt lat="45.5470666" lon="11.1220035"><ele>670.0</ele><time>2026-04-06T08:35:43.359Z</time></trkpt><trkpt lat="45.5471364" lon="11.1219837"><ele>670.0</ele><time>2026-04-06T08:35:46.367Z</time></trkpt><trkpt lat="45.547201" lon="11.1219363"><ele>670.0</ele><time>2026-04-06T08:35:49.369Z</time></trkpt><trkpt lat="45.5472695" lon="11.1218954"><ele>669.9999999999999</ele><time>2026-04-06T08:35:52.356Z</time></trkpt><trkpt lat="45.5473458" lon="11.1218841"><ele>670.0</ele><time>2026-04-06T08:35:56.416Z</time></trkpt><trkpt lat="45.5474279" lon="11.1218891"><ele>670.8571428571428</ele><time>2026-04-06T08:36:00.418Z</time></trkpt><trkpt lat="45.5474991" lon="11.1218706"><ele>671.7142857142857</ele><time>2026-04-06T08:36:03.456Z</time></trkpt><trkpt lat="45.5475626" lon="11.1218207"><ele>672.5714285714286</ele><time>2026-04-06T08:36:06.431Z</time></trkpt><trkpt lat="45.547623" lon="11.1217896"><ele>673.4285714285713</ele><time>2026-04-06T08:36:09.373Z</time></trkpt><trkpt lat="45.5476989" lon="11.1217897"><ele>674.2857142857142</ele><time>2026-04-06T08:36:13.418Z</time></trkpt><trkpt lat="45.5477673" lon="11.1217654"><ele>675.1428571428571</ele><time>2026-04-06T08:36:16.355Z</time></trkpt><trkpt lat="45.547848" lon="11.1217516"><ele>676.0</ele><time>2026-04-06T08:36:20.364Z</time></trkpt><trkpt lat="45.5479346" lon="11.1217658"><ele>676.5</ele><time>2026-04-06T08:36:23.363Z</time></trkpt><trkpt lat="45.5480211" lon="11.1217765"><ele>677.0</ele><time>2026-04-06T08:36:27.385Z</time></trkpt><trkpt lat="45.5481034" lon="11.1217829"><ele>677.5</ele><time>2026-04-06T08:36:31.366Z</time></trkpt><trkpt lat="45.5481702" lon="11.1217887"><ele>678.0</ele><time>2026-04-06T08:36:34.417Z</time></trkpt><trkpt lat="45.5482406" lon="11.1217773"><ele>678.5</ele><time>2026-04-06T08:36:38.422Z</time></trkpt><trkpt lat="45.5483196" lon="11.1217604"><ele>679.0</ele><time>2026-04-06T08:36:42.361Z</time></trkpt><trkpt lat="45.5483983" lon="11.1217346"><ele>679.0</ele><time>2026-04-06T08:36:46.414Z</time></trkpt><trkpt lat="45.5484724" lon="11.1217143"><ele>679.0</ele><time>2026-04-06T08:36:50.361Z</time></trkpt><trkpt lat="45.5485527" lon="11.1217289"><ele>679.0</ele><time>2026-04-06T08:36:54.391Z</time></trkpt><trkpt lat="45.5486245" lon="11.1217436"><ele>679.0</ele><time>2026-04-06T08:36:57.358Z</time></trkpt><trkpt lat="45.5486982" lon="11.1217562"><ele>679.0</ele><time>2026-04-06T08:37:00.364Z</time></trkpt><trkpt lat="45.5487759" lon="11.1217652"><ele>679.0</ele><time>2026-04-06T08:37:03.395Z</time></trkpt><trkpt lat="45.5488753" lon="11.1217567"><ele>679.2857142857143</ele><time>2026-04-06T08:37:07.391Z</time></trkpt><trkpt lat="45.5489459" lon="11.1217567"><ele>679.5714285714286</ele><time>2026-04-06T08:37:10.425Z</time></trkpt><trkpt lat="45.5490118" lon="11.1217494"><ele>679.8571428571429</ele><time>2026-04-06T08:37:13.461Z</time></trkpt><trkpt lat="45.5490847" lon="11.1217412"><ele>680.1428571428571</ele><time>2026-04-06T08:37:16.369Z</time></trkpt><trkpt lat="45.5491538" lon="11.1217211"><ele>680.4285714285714</ele><time>2026-04-06T08:37:19.367Z</time></trkpt><trkpt lat="45.5492198" lon="11.1217107"><ele>680.7142857142858</ele><time>2026-04-06T08:37:23.365Z</time></trkpt><trkpt lat="45.5492988" lon="11.12168"><ele>681.0</ele><time>2026-04-06T08:37:27.371Z</time></trkpt><trkpt lat="45.5493659" lon="11.1216648"><ele>681.0</ele><time>2026-04-06T08:37:30.375Z</time></trkpt><trkpt lat="45.5494381" lon="11.1216518"><ele>681.0</ele><time>2026-04-06T08:37:33.366Z</time></trkpt><trkpt lat="45.5495132" lon="11.1216222"><ele>681.0</ele><time>2026-04-06T08:37:36.39Z</time></trkpt><trkpt lat="45.5495954" lon="11.1215787"><ele>681.0</ele><time>2026-04-06T08:37:39.39Z</time></trkpt><trkpt lat="45.5496729" lon="11.121514"><ele>681.0</ele><time>2026-04-06T08:37:42.372Z</time></trkpt><trkpt lat="45.5497425" lon="11.1214608"><ele>681.0</ele><time>2026-04-06T08:37:45.372Z</time></trkpt><trkpt lat="45.5498112" lon="11.1214312"><ele>682.1428571428572</ele><time>2026-04-06T08:37:48.379Z</time></trkpt><trkpt lat="45.5498788" lon="11.1213912"><ele>683.2857142857143</ele><time>2026-04-06T08:37:50.367Z</time></trkpt><trkpt lat="45.5499472" lon="11.1213575"><ele>684.4285714285714</ele><time>2026-04-06T08:37:53.369Z</time></trkpt><trkpt lat="45.5500149" lon="11.1213338"><ele>685.5714285714287</ele><time>2026-04-06T08:37:57.37Z</time></trkpt><trkpt lat="45.5500805" lon="11.1213041"><ele>686.7142857142858</ele><time>2026-04-06T08:38:00.363Z</time></trkpt><trkpt lat="45.5501556" lon="11.1212657"><ele>687.8571428571429</ele><time>2026-04-06T08:38:03.362Z</time></trkpt><trkpt lat="45.5502195" lon="11.1212351"><ele>689.0</ele><time>2026-04-06T08:38:06.368Z</time></trkpt><trkpt lat="45.5502801" lon="11.1211974"><ele>689.0</ele><time>2026-04-06T08:38:09.36Z</time></trkpt><trkpt lat="45.5503442" lon="11.1211688"><ele>689.0</ele><time>2026-04-06T08:38:12.359Z</time></trkpt><trkpt lat="45.550411" lon="11.1211602"><ele>689.0</ele><time>2026-04-06T08:38:15.366Z</time></trkpt><trkpt lat="45.5504873" lon="11.1211521"><ele>689.0</ele><time>2026-04-06T08:38:18.362Z</time></trkpt><trkpt lat="45.5505519" lon="11.1211568"><ele>689.0</ele><time>2026-04-06T08:38:21.365Z</time></trkpt><trkpt lat="45.5506169" lon="11.1211558"><ele>689.0</ele><time>2026-04-06T08:38:24.353Z</time></trkpt><trkpt lat="45.5506776" lon="11.1211094"><ele>689.0</ele><time>2026-04-06T08:38:28.363Z</time></trkpt><trkpt lat="45.5507064" lon="11.1210263"><ele>689.8571428571429</ele><time>2026-04-06T08:38:32.364Z</time></trkpt><trkpt lat="45.5507347" lon="11.1209367"><ele>690.7142857142858</ele><time>2026-04-06T08:38:36.362Z</time></trkpt><trkpt lat="45.5507567" lon="11.1208414"><ele>691.5714285714287</ele><time>2026-04-06T08:38:40.365Z</time></trkpt><trkpt lat="45.5507903" lon="11.1207613"><ele>692.4285714285714</ele><time>2026-04-06T08:38:44.363Z</time></trkpt><trkpt lat="45.550826" lon="11.1206799"><ele>693.2857142857143</ele><time>2026-04-06T08:38:49.369Z</time></trkpt><trkpt lat="45.5508703" lon="11.1206006"><ele>694.1428571428572</ele><time>2026-04-06T08:38:55.363Z</time></trkpt><trkpt lat="45.550927" lon="11.1205394"><ele>695.0</ele><time>2026-04-06T08:39:00.367Z</time></trkpt><trkpt lat="45.5509848" lon="11.1204719"><ele>695.0000000000001</ele><time>2026-04-06T08:39:05.353Z</time></trkpt><trkpt lat="45.5510011" lon="11.1203797"><ele>695.0</ele><time>2026-04-06T08:39:11.36Z</time></trkpt><trkpt lat="45.55106" lon="11.1203426"><ele>695.0</ele><time>2026-04-06T08:39:15.406Z</time></trkpt><trkpt lat="45.5511252" lon="11.1203027"><ele>695.0</ele><time>2026-04-06T08:39:20.373Z</time></trkpt><trkpt lat="45.5511866" lon="11.1202673"><ele>695.0</ele><time>2026-04-06T08:39:24.368Z</time></trkpt><trkpt lat="45.5512438" lon="11.1202288"><ele>695.0000000000001</ele><time>2026-04-06T08:39:29.368Z</time></trkpt><trkpt lat="45.5513099" lon="11.1201844"><ele>695.0</ele><time>2026-04-06T08:39:34.37Z</time></trkpt><trkpt lat="45.5513772" lon="11.120184"><ele>696.7142857142858</ele><time>2026-04-06T08:39:38.421Z</time></trkpt><trkpt lat="45.5514507" lon="11.1201732"><ele>698.4285714285714</ele><time>2026-04-06T08:39:43.362Z</time></trkpt><trkpt lat="45.5515146" lon="11.120133"><ele>700.1428571428571</ele><time>2026-04-06T08:39:48.362Z</time></trkpt><trkpt lat="45.5515784" lon="11.1201027"><ele>701.8571428571429</ele><time>2026-04-06T08:39:53.371Z</time></trkpt><trkpt lat="45.5516475" lon="11.1200969"><ele>703.5714285714286</ele><time>2026-04-06T08:39:58.372Z</time></trkpt><trkpt lat="45.551695" lon="11.1200354"><ele>705.2857142857143</ele><time>2026-04-06T08:40:03.365Z</time></trkpt><trkpt lat="45.5517584" lon="11.1200135"><ele>707.0</ele><time>2026-04-06T08:40:08.365Z</time></trkpt><trkpt lat="45.5518189" lon="11.119953"><ele>706.7142857142857</ele><time>2026-04-06T08:40:14.371Z</time></trkpt><trkpt lat="45.5518708" lon="11.1198882"><ele>706.4285714285714</ele><time>2026-04-06T08:40:19.363Z</time></trkpt><trkpt lat="45.5519317" lon="11.1198223"><ele>706.1428571428571</ele><time>2026-04-06T08:40:26.392Z</time></trkpt><trkpt lat="45.5519569" lon="11.1197288"><ele>705.8571428571429</ele><time>2026-04-06T08:40:31.369Z</time></trkpt><trkpt lat="45.5520093" lon="11.1196603"><ele>705.5714285714286</ele><time>2026-04-06T08:40:36.376Z</time></trkpt><trkpt lat="45.5520668" lon="11.1196063"><ele>705.2857142857142</ele><time>2026-04-06T08:40:41.429Z</time></trkpt><trkpt lat="45.5520878" lon="11.1195122"><ele>705.0</ele><time>2026-04-06T08:40:48.354Z</time></trkpt><trkpt lat="45.5520573" lon="11.1194136"><ele>707.1428571428571</ele><time>2026-04-06T08:40:52.389Z</time></trkpt><trkpt lat="45.5520728" lon="11.1193148"><ele>709.2857142857142</ele><time>2026-04-06T08:40:57.441Z</time></trkpt><trkpt lat="45.5520979" lon="11.1192286"><ele>711.4285714285713</ele><time>2026-04-06T08:41:00.396Z</time></trkpt><trkpt lat="45.5521415" lon="11.1191382"><ele>713.5714285714286</ele><time>2026-04-06T08:41:04.435Z</time></trkpt><trkpt lat="45.552187" lon="11.1190692"><ele>715.7142857142858</ele><time>2026-04-06T08:41:08.487Z</time></trkpt><trkpt lat="45.5522146" lon="11.1189864"><ele>717.8571428571428</ele><time>2026-04-06T08:41:14.478Z</time></trkpt><trkpt lat="45.5522732" lon="11.1189247"><ele>720.0</ele><time>2026-04-06T08:41:19.369Z</time></trkpt><trkpt lat="45.5523254" lon="11.1188557"><ele>720.7142857142857</ele><time>2026-04-06T08:41:27.363Z</time></trkpt><trkpt lat="45.5523873" lon="11.1188068"><ele>721.4285714285714</ele><time>2026-04-06T08:41:32.356Z</time></trkpt><trkpt lat="45.5524507" lon="11.1187768"><ele>722.1428571428571</ele><time>2026-04-06T08:41:40.365Z</time></trkpt><trkpt lat="45.5525007" lon="11.1187217"><ele>722.8571428571429</ele><time>2026-04-06T08:41:45.362Z</time></trkpt><trkpt lat="45.5525576" lon="11.1186808"><ele>723.5714285714287</ele><time>2026-04-06T08:41:50.36Z</time></trkpt><trkpt lat="45.5526279" lon="11.1186435"><ele>724.2857142857143</ele><time>2026-04-06T08:41:56.365Z</time></trkpt><trkpt lat="45.5526898" lon="11.1186147"><ele>725.0</ele><time>2026-04-06T08:42:01.361Z</time></trkpt><trkpt lat="45.5527536" lon="11.1185613"><ele>725.0</ele><time>2026-04-06T08:42:07.361Z</time></trkpt><trkpt lat="45.5528273" lon="11.1185433"><ele>725.0</ele><time>2026-04-06T08:42:12.364Z</time></trkpt><trkpt lat="45.5528874" lon="11.1185159"><ele>725.0</ele><time>2026-04-06T08:42:17.359Z</time></trkpt><trkpt lat="45.5529532" lon="11.1184883"><ele>725.0</ele><time>2026-04-06T08:42:22.363Z</time></trkpt><trkpt lat="45.5530066" lon="11.1184235"><ele>725.0</ele><time>2026-04-06T08:42:27.364Z</time></trkpt><trkpt lat="45.5530688" lon="11.1183688"><ele>725.0</ele><time>2026-04-06T08:42:32.366Z</time></trkpt><trkpt lat="45.5531327" lon="11.1183138"><ele>725.0</ele><time>2026-04-06T08:42:37.36Z</time></trkpt><trkpt lat="45.5532355" lon="11.118299"><ele>725.7142857142858</ele><time>2026-04-06T08:42:43.359Z</time></trkpt><trkpt lat="45.5533074" lon="11.118286"><ele>726.4285714285714</ele><time>2026-04-06T08:42:47.366Z</time></trkpt><trkpt lat="45.5533715" lon="11.1182699"><ele>727.1428571428571</ele><time>2026-04-06T08:42:50.362Z</time></trkpt><trkpt lat="45.5534372" lon="11.1182488"><ele>727.8571428571429</ele><time>2026-04-06T08:42:54.367Z</time></trkpt><trkpt lat="45.5535161" lon="11.1182336"><ele>728.5714285714286</ele><time>2026-04-06T08:42:58.365Z</time></trkpt><trkpt lat="45.5535865" lon="11.1182107"><ele>729.2857142857143</ele><time>2026-04-06T08:43:02.364Z</time></trkpt><trkpt lat="45.5536606" lon="11.1181866"><ele>730.0</ele><time>2026-04-06T08:43:06.382Z</time></trkpt><trkpt lat="45.5537313" lon="11.1181634"><ele>730.1666666666667</ele><time>2026-04-06T08:43:10.405Z</time></trkpt><trkpt lat="45.5537979" lon="11.1181381"><ele>730.3333333333334</ele><time>2026-04-06T08:43:13.406Z</time></trkpt><trkpt lat="45.5538707" lon="11.1181107"><ele>730.5</ele><time>2026-04-06T08:43:17.409Z</time></trkpt><trkpt lat="45.5539456" lon="11.1180668"><ele>730.6666666666666</ele><time>2026-04-06T08:43:21.351Z</time></trkpt><trkpt lat="45.5540165" lon="11.1180059"><ele>730.8333333333333</ele><time>2026-04-06T08:43:26.369Z</time></trkpt><trkpt lat="45.5540744" lon="11.1179565"><ele>731.0</ele><time>2026-04-06T08:43:30.365Z</time></trkpt><trkpt lat="45.5541481" lon="11.1179299"><ele>731.0</ele><time>2026-04-06T08:43:35.366Z</time></trkpt><trkpt lat="45.5542242" lon="11.1179161"><ele>731.0</ele><time>2026-04-06T08:43:40.376Z</time></trkpt><trkpt lat="45.5542886" lon="11.1179177"><ele>731.0</ele><time>2026-04-06T08:43:44.376Z</time></trkpt><trkpt lat="45.5544416" lon="11.1179774"><ele>731.0</ele><time>2026-04-06T08:43:55.373Z</time></trkpt><trkpt lat="45.5545119" lon="11.1179606"><ele>731.0</ele><time>2026-04-06T08:44:00.388Z</time></trkpt><trkpt lat="45.5547066" lon="11.1179768"><ele>731.7142857142857</ele><time>2026-04-06T08:44:15.431Z</time></trkpt><trkpt lat="45.5547721" lon="11.1179998"><ele>732.4285714285713</ele><time>2026-04-06T08:44:20.376Z</time></trkpt><trkpt lat="45.554831" lon="11.1180375"><ele>733.1428571428571</ele><time>2026-04-06T08:44:24.407Z</time></trkpt><trkpt lat="45.5548969" lon="11.1180632"><ele>733.8571428571429</ele><time>2026-04-06T08:44:29.372Z</time></trkpt><trkpt lat="45.5549706" lon="11.1180773"><ele>734.5714285714286</ele><time>2026-04-06T08:44:34.366Z</time></trkpt><trkpt lat="45.5550363" lon="11.1180982"><ele>735.2857142857143</ele><time>2026-04-06T08:44:38.373Z</time></trkpt><trkpt lat="45.5550993" lon="11.118109"><ele>736.0</ele><time>2026-04-06T08:44:42.371Z</time></trkpt><trkpt lat="45.5551739" lon="11.1181139"><ele>736.0</ele><time>2026-04-06T08:44:46.372Z</time></trkpt><trkpt lat="45.5552499" lon="11.1181296"><ele>736.0</ele><time>2026-04-06T08:44:50.421Z</time></trkpt><trkpt lat="45.5553169" lon="11.1181235"><ele>736.0</ele><time>2026-04-06T08:44:54.369Z</time></trkpt><trkpt lat="45.5553805" lon="11.1181115"><ele>736.0</ele><time>2026-04-06T08:44:58.428Z</time></trkpt><trkpt lat="45.5554436" lon="11.1181138"><ele>736.0</ele><time>2026-04-06T08:45:02.379Z</time></trkpt><trkpt lat="45.5555165" lon="11.118131"><ele>736.0</ele><time>2026-04-06T08:45:06.372Z</time></trkpt><trkpt lat="45.5556008" lon="11.1180944"><ele>736.0</ele><time>2026-04-06T08:45:11.409Z</time></trkpt><trkpt lat="45.555661" lon="11.1180527"><ele>737.8571428571429</ele><time>2026-04-06T08:45:15.376Z</time></trkpt><trkpt lat="45.5557301" lon="11.1180259"><ele>739.7142857142857</ele><time>2026-04-06T08:45:19.369Z</time></trkpt><trkpt lat="45.5557998" lon="11.1180082"><ele>741.5714285714286</ele><time>2026-04-06T08:45:23.392Z</time></trkpt><trkpt lat="45.5558671" lon="11.1179772"><ele>743.4285714285714</ele><time>2026-04-06T08:45:27.376Z</time></trkpt><trkpt lat="45.5559368" lon="11.1179587"><ele>745.2857142857142</ele><time>2026-04-06T08:45:31.364Z</time></trkpt><trkpt lat="45.5560028" lon="11.1179381"><ele>747.1428571428571</ele><time>2026-04-06T08:45:35.4Z</time></trkpt><trkpt lat="45.5560635" lon="11.1179075"><ele>749.0</ele><time>2026-04-06T08:45:39.386Z</time></trkpt><trkpt lat="45.5561207" lon="11.1178527"><ele>749.0</ele><time>2026-04-06T08:45:44.37Z</time></trkpt><trkpt lat="45.5562013" lon="11.1178507"><ele>749.0</ele><time>2026-04-06T08:45:49.403Z</time></trkpt><trkpt lat="45.556263" lon="11.1178147"><ele>749.0</ele><time>2026-04-06T08:45:54.371Z</time></trkpt><trkpt lat="45.5563333" lon="11.117775"><ele>749.0</ele><time>2026-04-06T08:45:59.368Z</time></trkpt><trkpt lat="45.556374" lon="11.1177014"><ele>749.0</ele><time>2026-04-06T08:46:03.41Z</time></trkpt><trkpt lat="45.5563947" lon="11.117613"><ele>749.0</ele><time>2026-04-06T08:46:06.376Z</time></trkpt><trkpt lat="45.5564489" lon="11.1175517"><ele>749.0</ele><time>2026-04-06T08:46:10.36Z</time></trkpt><trkpt lat="45.5565088" lon="11.1174959"><ele>751.6666666666666</ele><time>2026-04-06T08:46:14.377Z</time></trkpt><trkpt lat="45.5565659" lon="11.1174511"><ele>754.3333333333333</ele><time>2026-04-06T08:46:18.375Z</time></trkpt><trkpt lat="45.5566233" lon="11.1174132"><ele>757.0</ele><time>2026-04-06T08:46:22.41Z</time></trkpt><trkpt lat="45.5566885" lon="11.1174499"><ele>759.6666666666666</ele><time>2026-04-06T08:46:26.376Z</time></trkpt><trkpt lat="45.5566705" lon="11.1175824"><ele>762.3333333333334</ele><time>2026-04-06T08:46:38.386Z</time></trkpt><trkpt lat="45.5566236" lon="11.1176658"><ele>765.0</ele><time>2026-04-06T08:46:48.371Z</time></trkpt><trkpt lat="45.5564714" lon="11.1179805"><ele>765.0000000000001</ele><time>2026-04-06T08:46:49.366Z</time></trkpt><trkpt lat="45.5564237" lon="11.1180593"><ele>765.0</ele><time>2026-04-06T08:46:52.358Z</time></trkpt><trkpt lat="45.5563841" lon="11.1181568"><ele>765.0</ele><time>2026-04-06T08:46:55.417Z</time></trkpt><trkpt lat="45.5563177" lon="11.1182216"><ele>765.0</ele><time>2026-04-06T08:46:58.455Z</time></trkpt><trkpt lat="45.556265" lon="11.1182866"><ele>765.0</ele><time>2026-04-06T08:47:01.427Z</time></trkpt><trkpt lat="45.5562144" lon="11.1183456"><ele>765.0000000000001</ele><time>2026-04-06T08:47:04.381Z</time></trkpt><trkpt lat="45.5561766" lon="11.1184198"><ele>765.0</ele><time>2026-04-06T08:47:07.375Z</time></trkpt><trkpt lat="45.5561498" lon="11.1185128"><ele>765.1428571428572</ele><time>2026-04-06T08:47:10.428Z</time></trkpt><trkpt lat="45.5561207" lon="11.1186012"><ele>765.2857142857143</ele><time>2026-04-06T08:47:13.373Z</time></trkpt><trkpt lat="45.5560824" lon="11.1186769"><ele>765.4285714285714</ele><time>2026-04-06T08:47:16.419Z</time></trkpt><trkpt lat="45.5560348" lon="11.1187666"><ele>765.5714285714287</ele><time>2026-04-06T08:47:19.369Z</time></trkpt><trkpt lat="45.5559826" lon="11.1188571"><ele>765.7142857142857</ele><time>2026-04-06T08:47:22.375Z</time></trkpt><trkpt lat="45.5559276" lon="11.1189163"><ele>765.8571428571429</ele><time>2026-04-06T08:47:25.377Z</time></trkpt><trkpt lat="45.5558699" lon="11.1189993"><ele>766.0</ele><time>2026-04-06T08:47:29.37Z</time></trkpt><trkpt lat="45.5558207" lon="11.1191007"><ele>766.8333333333334</ele><time>2026-04-06T08:47:32.386Z</time></trkpt><trkpt lat="45.5558099" lon="11.1191915"><ele>767.6666666666667</ele><time>2026-04-06T08:47:37.373Z</time></trkpt><trkpt lat="45.5558731" lon="11.1193458"><ele>768.5</ele><time>2026-04-06T08:53:04.362Z</time></trkpt><trkpt lat="45.5558559" lon="11.1192334"><ele>769.3333333333334</ele><time>2026-04-06T08:58:46.448Z</time></trkpt><trkpt lat="45.5559029" lon="11.1193268"><ele>770.1666666666666</ele><time>2026-04-06T09:02:45.375Z</time></trkpt><trkpt lat="45.5558624" lon="11.1192272"><ele>771.0</ele><time>2026-04-06T09:02:58.363Z</time></trkpt><trkpt lat="45.5558987" lon="11.1193091"><ele>771.0</ele><time>2026-04-06T09:03:51.404Z</time></trkpt><trkpt lat="45.5558452" lon="11.11936"><ele>771.0</ele><time>2026-04-06T09:17:55.407Z</time></trkpt><trkpt lat="45.5558426" lon="11.1194594"><ele>771.0</ele><time>2026-04-06T09:19:00.356Z</time></trkpt><trkpt lat="45.5559083" lon="11.1195156"><ele>771.0</ele><time>2026-04-06T09:19:07.405Z</time></trkpt><trkpt lat="45.5559748" lon="11.1195041"><ele>771.0</ele><time>2026-04-06T09:19:10.367Z</time></trkpt><trkpt lat="45.5560496" lon="11.1194714"><ele>771.0</ele><time>2026-04-06T09:19:14.475Z</time></trkpt><trkpt lat="45.5561088" lon="11.119418"><ele>771.0</ele><time>2026-04-06T09:19:18.381Z</time></trkpt><trkpt lat="45.5561384" lon="11.1193319"><ele>771.0</ele><time>2026-04-06T09:19:23.38Z</time></trkpt><trkpt lat="45.5561929" lon="11.1192823"><ele>771.0</ele><time>2026-04-06T09:19:27.373Z</time></trkpt><trkpt lat="45.556263" lon="11.1192305"><ele>771.0</ele><time>2026-04-06T09:19:32.369Z</time></trkpt><trkpt lat="45.556326" lon="11.1191735"><ele>771.0</ele><time>2026-04-06T09:19:36.375Z</time></trkpt><trkpt lat="45.5563798" lon="11.1191193"><ele>771.0</ele><time>2026-04-06T09:19:41.477Z</time></trkpt><trkpt lat="45.5564218" lon="11.1190413"><ele>771.0</ele><time>2026-04-06T09:19:48.393Z</time></trkpt><trkpt lat="45.5564873" lon="11.1189892"><ele>771.0</ele><time>2026-04-06T09:19:53.366Z</time></trkpt><trkpt lat="45.5565457" lon="11.1189551"><ele>772.1428571428572</ele><time>2026-04-06T09:19:57.462Z</time></trkpt><trkpt lat="45.5566052" lon="11.11891"><ele>773.2857142857142</ele><time>2026-04-06T09:20:02.371Z</time></trkpt><trkpt lat="45.5566762" lon="11.1188683"><ele>774.4285714285714</ele><time>2026-04-06T09:20:06.373Z</time></trkpt><trkpt lat="45.5567478" lon="11.1188523"><ele>775.5714285714287</ele><time>2026-04-06T09:20:11.364Z</time></trkpt><trkpt lat="45.5568102" lon="11.118826"><ele>776.7142857142858</ele><time>2026-04-06T09:20:16.364Z</time></trkpt><trkpt lat="45.5568757" lon="11.1187918"><ele>777.8571428571429</ele><time>2026-04-06T09:20:21.369Z</time></trkpt><trkpt lat="45.5569343" lon="11.1187516"><ele>779.0</ele><time>2026-04-06T09:20:26.38Z</time></trkpt><trkpt lat="45.5569943" lon="11.1187076"><ele>781.4285714285714</ele><time>2026-04-06T09:20:32.37Z</time></trkpt><trkpt lat="45.5570511" lon="11.1186671"><ele>783.8571428571429</ele><time>2026-04-06T09:20:37.364Z</time></trkpt><trkpt lat="45.5571089" lon="11.1186263"><ele>786.2857142857142</ele><time>2026-04-06T09:20:43.368Z</time></trkpt><trkpt lat="45.5571736" lon="11.1185968"><ele>788.7142857142858</ele><time>2026-04-06T09:20:49.368Z</time></trkpt><trkpt lat="45.5572339" lon="11.1185493"><ele>791.1428571428571</ele><time>2026-04-06T09:20:55.37Z</time></trkpt><trkpt lat="45.5572972" lon="11.1185322"><ele>793.5714285714286</ele><time>2026-04-06T09:21:01.366Z</time></trkpt><trkpt lat="45.5573644" lon="11.1185119"><ele>796.0</ele><time>2026-04-06T09:21:07.365Z</time></trkpt><trkpt lat="45.5574285" lon="11.118484"><ele>795.9999999999999</ele><time>2026-04-06T09:21:13.363Z</time></trkpt><trkpt lat="45.5574981" lon="11.1184816"><ele>796.0</ele><time>2026-04-06T09:21:19.366Z</time></trkpt><trkpt lat="45.5575634" lon="11.1184762"><ele>796.0</ele><time>2026-04-06T09:21:25.357Z</time></trkpt><trkpt lat="45.5576275" lon="11.1184558"><ele>796.0</ele><time>2026-04-06T09:21:30.358Z</time></trkpt><trkpt lat="45.5576861" lon="11.118409"><ele>796.0</ele><time>2026-04-06T09:21:36.362Z</time></trkpt><trkpt lat="45.5577512" lon="11.1183643"><ele>795.9999999999999</ele><time>2026-04-06T09:21:42.424Z</time></trkpt><trkpt lat="45.5578084" lon="11.1183091"><ele>796.0</ele><time>2026-04-06T09:21:48.368Z</time></trkpt><trkpt lat="45.5578759" lon="11.1182697"><ele>796.1428571428571</ele><time>2026-04-06T09:21:55.37Z</time></trkpt><trkpt lat="45.5579411" lon="11.1182595"><ele>796.2857142857142</ele><time>2026-04-06T09:22:01.368Z</time></trkpt><trkpt lat="45.5580112" lon="11.1182603"><ele>796.4285714285713</ele><time>2026-04-06T09:22:06.368Z</time></trkpt><trkpt lat="45.5580848" lon="11.1182516"><ele>796.5714285714286</ele><time>2026-04-06T09:22:13.367Z</time></trkpt><trkpt lat="45.5581529" lon="11.118238"><ele>796.7142857142858</ele><time>2026-04-06T09:22:19.368Z</time></trkpt><trkpt lat="45.5582227" lon="11.1182284"><ele>796.8571428571428</ele><time>2026-04-06T09:22:25.366Z</time></trkpt><trkpt lat="45.5582859" lon="11.118214"><ele>797.0</ele><time>2026-04-06T09:22:31.367Z</time></trkpt><trkpt lat="45.5583505" lon="11.1182144"><ele>797.0</ele><time>2026-04-06T09:22:37.382Z</time></trkpt><trkpt lat="45.5584202" lon="11.1181994"><ele>797.0</ele><time>2026-04-06T09:22:44.403Z</time></trkpt><trkpt lat="45.5584889" lon="11.1181843"><ele>797.0</ele><time>2026-04-06T09:22:52.367Z</time></trkpt><trkpt lat="45.5585534" lon="11.1181461"><ele>797.0</ele><time>2026-04-06T09:23:00.368Z</time></trkpt><trkpt lat="45.5586221" lon="11.1181458"><ele>797.0</ele><time>2026-04-06T09:23:06.365Z</time></trkpt><trkpt lat="45.5586915" lon="11.1181062"><ele>797.0</ele><time>2026-04-06T09:23:13.37Z</time></trkpt><trkpt lat="45.5587583" lon="11.1180848"><ele>797.0</ele><time>2026-04-06T09:23:19.368Z</time></trkpt><trkpt lat="45.5588244" lon="11.118056"><ele>799.1428571428571</ele><time>2026-04-06T09:23:26.371Z</time></trkpt><trkpt lat="45.5588914" lon="11.1180275"><ele>801.2857142857143</ele><time>2026-04-06T09:23:32.358Z</time></trkpt><trkpt lat="45.5589549" lon="11.1179951"><ele>803.4285714285714</ele><time>2026-04-06T09:23:38.423Z</time></trkpt><trkpt lat="45.5590294" lon="11.1179855"><ele>805.5714285714286</ele><time>2026-04-06T09:23:44.42Z</time></trkpt><trkpt lat="45.559102" lon="11.1179894"><ele>807.7142857142858</ele><time>2026-04-06T09:23:50.364Z</time></trkpt><trkpt lat="45.559174" lon="11.1180044"><ele>809.8571428571429</ele><time>2026-04-06T09:23:56.363Z</time></trkpt><trkpt lat="45.5592469" lon="11.1180083"><ele>812.0</ele><time>2026-04-06T09:24:03.375Z</time></trkpt><trkpt lat="45.5593101" lon="11.1180012"><ele>812.0</ele><time>2026-04-06T09:24:09.366Z</time></trkpt><trkpt lat="45.5593701" lon="11.118032"><ele>812.0</ele><time>2026-04-06T09:24:14.366Z</time></trkpt><trkpt lat="45.5594419" lon="11.1180359"><ele>812.0</ele><time>2026-04-06T09:24:20.431Z</time></trkpt><trkpt lat="45.5595044" lon="11.1180684"><ele>812.0</ele><time>2026-04-06T09:24:25.444Z</time></trkpt><trkpt lat="45.5595629" lon="11.118108"><ele>812.0</ele><time>2026-04-06T09:24:30.364Z</time></trkpt><trkpt lat="45.5596264" lon="11.1181412"><ele>812.0</ele><time>2026-04-06T09:24:36.371Z</time></trkpt><trkpt lat="45.5596827" lon="11.1182032"><ele>812.0</ele><time>2026-04-06T09:24:42.373Z</time></trkpt><trkpt lat="45.5597397" lon="11.1182433"><ele>815.5714285714286</ele><time>2026-04-06T09:24:48.42Z</time></trkpt><trkpt lat="45.5598035" lon="11.1182859"><ele>819.1428571428571</ele><time>2026-04-06T09:24:56.419Z</time></trkpt><trkpt lat="45.5598615" lon="11.1183439"><ele>822.7142857142858</ele><time>2026-04-06T09:25:04.367Z</time></trkpt><trkpt lat="45.559894" lon="11.1184259"><ele>826.2857142857142</ele><time>2026-04-06T09:25:09.417Z</time></trkpt><trkpt lat="45.5599192" lon="11.1185228"><ele>829.8571428571429</ele><time>2026-04-06T09:25:17.404Z</time></trkpt><trkpt lat="45.5599172" lon="11.1186152"><ele>833.4285714285714</ele><time>2026-04-06T09:25:23.411Z</time></trkpt><trkpt lat="45.5598808" lon="11.1186936"><ele>837.0</ele><time>2026-04-06T09:25:29.366Z</time></trkpt><trkpt lat="45.5598654" lon="11.1187899"><ele>837.0</ele><time>2026-04-06T09:25:35.374Z</time></trkpt><trkpt lat="45.5598402" lon="11.1188857"><ele>837.0</ele><time>2026-04-06T09:25:41.419Z</time></trkpt><trkpt lat="45.5598276" lon="11.1189926"><ele>837.0</ele><time>2026-04-06T09:25:47.363Z</time></trkpt><trkpt lat="45.5598254" lon="11.1190825"><ele>837.0</ele><time>2026-04-06T09:25:53.37Z</time></trkpt><trkpt lat="45.5598057" lon="11.1191726"><ele>837.0</ele><time>2026-04-06T09:26:00.372Z</time></trkpt><trkpt lat="45.5598018" lon="11.119266"><ele>837.0</ele><time>2026-04-06T09:26:05.433Z</time></trkpt><trkpt lat="45.5598222" lon="11.1193629"><ele>837.0</ele><time>2026-04-06T09:26:12.366Z</time></trkpt><trkpt lat="45.5598443" lon="11.1194532"><ele>839.5714285714286</ele><time>2026-04-06T09:26:17.442Z</time></trkpt><trkpt lat="45.5598735" lon="11.1195437"><ele>842.1428571428571</ele><time>2026-04-06T09:26:24.411Z</time></trkpt><trkpt lat="45.5599221" lon="11.119615"><ele>844.7142857142858</ele><time>2026-04-06T09:26:29.367Z</time></trkpt><trkpt lat="45.5599748" lon="11.1197035"><ele>847.2857142857142</ele><time>2026-04-06T09:26:37.383Z</time></trkpt><trkpt lat="45.5600226" lon="11.1197877"><ele>849.8571428571428</ele><time>2026-04-06T09:26:44.47Z</time></trkpt><trkpt lat="45.560066" lon="11.1198675"><ele>852.4285714285714</ele><time>2026-04-06T09:26:50.369Z</time></trkpt><trkpt lat="45.560112" lon="11.1199463"><ele>855.0</ele><time>2026-04-06T09:26:54.386Z</time></trkpt><trkpt lat="45.5601556" lon="11.1200155"><ele>855.4285714285714</ele><time>2026-04-06T09:26:59.371Z</time></trkpt><trkpt lat="45.560203" lon="11.1200846"><ele>855.8571428571428</ele><time>2026-04-06T09:27:04.368Z</time></trkpt><trkpt lat="45.5602659" lon="11.1201205"><ele>856.2857142857142</ele><time>2026-04-06T09:27:09.414Z</time></trkpt><trkpt lat="45.5603291" lon="11.1201487"><ele>856.7142857142858</ele><time>2026-04-06T09:27:17.375Z</time></trkpt><trkpt lat="45.5603954" lon="11.1201894"><ele>857.1428571428571</ele><time>2026-04-06T09:27:23.368Z</time></trkpt><trkpt lat="45.5604616" lon="11.1202186"><ele>857.5714285714286</ele><time>2026-04-06T09:27:29.369Z</time></trkpt><trkpt lat="45.5605237" lon="11.1202369"><ele>858.0</ele><time>2026-04-06T09:27:34.412Z</time></trkpt><trkpt lat="45.560601" lon="11.1202463"><ele>860.5714285714286</ele><time>2026-04-06T09:27:39.37Z</time></trkpt><trkpt lat="45.5606652" lon="11.1202409"><ele>863.1428571428571</ele><time>2026-04-06T09:27:44.376Z</time></trkpt><trkpt lat="45.560736" lon="11.12029"><ele>865.7142857142858</ele><time>2026-04-06T09:27:50.372Z</time></trkpt><trkpt lat="45.560804" lon="11.1203002"><ele>868.2857142857142</ele><time>2026-04-06T09:27:55.378Z</time></trkpt><trkpt lat="45.5608717" lon="11.1203315"><ele>870.8571428571428</ele><time>2026-04-06T09:28:01.376Z</time></trkpt><trkpt lat="45.5609529" lon="11.1203385"><ele>873.4285714285714</ele><time>2026-04-06T09:28:07.373Z</time></trkpt><trkpt lat="45.5610297" lon="11.1203297"><ele>876.0</ele><time>2026-04-06T09:28:12.379Z</time></trkpt><trkpt lat="45.561096" lon="11.1203076"><ele>876.0</ele><time>2026-04-06T09:28:16.381Z</time></trkpt><trkpt lat="45.5611611" lon="11.1202792"><ele>876.0</ele><time>2026-04-06T09:28:21.415Z</time></trkpt><trkpt lat="45.5612284" lon="11.1202491"><ele>876.0</ele><time>2026-04-06T09:28:28.372Z</time></trkpt><trkpt lat="45.5612978" lon="11.1202217"><ele>876.0</ele><time>2026-04-06T09:28:33.384Z</time></trkpt><trkpt lat="45.5613709" lon="11.1201843"><ele>876.0</ele><time>2026-04-06T09:28:38.427Z</time></trkpt><trkpt lat="45.5614315" lon="11.1201562"><ele>876.0</ele><time>2026-04-06T09:28:45.38Z</time></trkpt><trkpt lat="45.561497" lon="11.1201248"><ele>876.0</ele><time>2026-04-06T09:28:51.389Z</time></trkpt><trkpt lat="45.5615642" lon="11.1200818"><ele>875.5999999999999</ele><time>2026-04-06T09:28:55.373Z</time></trkpt><trkpt lat="45.5616689" lon="11.1200596"><ele>875.1999999999999</ele><time>2026-04-06T09:29:01.367Z</time></trkpt><trkpt lat="45.5617287" lon="11.1200021"><ele>874.8000000000001</ele><time>2026-04-06T09:29:05.422Z</time></trkpt><trkpt lat="45.5619017" lon="11.119897"><ele>874.4000000000001</ele><time>2026-04-06T09:29:18.361Z</time></trkpt><trkpt lat="45.5619629" lon="11.1198654"><ele>874.0</ele><time>2026-04-06T09:29:22.382Z</time></trkpt><trkpt lat="45.562033" lon="11.1198104"><ele>875.4999999999999</ele><time>2026-04-06T09:29:27.372Z</time></trkpt><trkpt lat="45.5620332" lon="11.1199107"><ele>877.0</ele><time>2026-04-06T09:29:33.382Z</time></trkpt><trkpt lat="45.5620135" lon="11.1200166"><ele>878.5</ele><time>2026-04-06T09:29:36.372Z</time></trkpt><trkpt lat="45.5620465" lon="11.1201137"><ele>880.0</ele><time>2026-04-06T09:29:40.425Z</time></trkpt><trkpt lat="45.5620542" lon="11.1202288"><ele>881.4999999999999</ele><time>2026-04-06T09:29:44.377Z</time></trkpt><trkpt lat="45.5620891" lon="11.1203275"><ele>883.0</ele><time>2026-04-06T09:29:47.435Z</time></trkpt><trkpt lat="45.5621673" lon="11.1203702"><ele>882.6666666666666</ele><time>2026-04-06T09:29:49.378Z</time></trkpt><trkpt lat="45.5622332" lon="11.1204163"><ele>882.3333333333333</ele><time>2026-04-06T09:29:51.382Z</time></trkpt><trkpt lat="45.5622782" lon="11.1204847"><ele>882.0</ele><time>2026-04-06T09:29:53.378Z</time></trkpt><trkpt lat="45.5623527" lon="11.1205592"><ele>881.6666666666667</ele><time>2026-04-06T09:29:56.373Z</time></trkpt><trkpt lat="45.5624166" lon="11.1206151"><ele>881.3333333333334</ele><time>2026-04-06T09:29:58.378Z</time></trkpt><trkpt lat="45.5624282" lon="11.1207135"><ele>881.0</ele><time>2026-04-06T09:30:00.372Z</time></trkpt><trkpt lat="45.5623897" lon="11.1208319"><ele>881.0</ele><time>2026-04-06T09:30:03.382Z</time></trkpt><trkpt lat="45.5623789" lon="11.120954"><ele>880.9999999999999</ele><time>2026-04-06T09:30:05.374Z</time></trkpt><trkpt lat="45.5623659" lon="11.1210662"><ele>880.9999999999999</ele><time>2026-04-06T09:30:07.441Z</time></trkpt><trkpt lat="45.5623452" lon="11.1211915"><ele>881.0</ele><time>2026-04-06T09:30:09.366Z</time></trkpt><trkpt lat="45.5623255" lon="11.1213317"><ele>881.0</ele><time>2026-04-06T09:30:11.372Z</time></trkpt><trkpt lat="45.5623424" lon="11.121489"><ele>877.8</ele><time>2026-04-06T09:30:13.372Z</time></trkpt><trkpt lat="45.562404" lon="11.121636"><ele>874.5999999999999</ele><time>2026-04-06T09:30:15.375Z</time></trkpt><trkpt lat="45.5624739" lon="11.1217644"><ele>871.4</ele><time>2026-04-06T09:30:17.372Z</time></trkpt><trkpt lat="45.5625215" lon="11.1218295"><ele>868.2</ele><time>2026-04-06T09:30:18.37Z</time></trkpt><trkpt lat="45.5626041" lon="11.1219303"><ele>865.0</ele><time>2026-04-06T09:30:20.37Z</time></trkpt><trkpt lat="45.5626885" lon="11.1219713"><ele>864.9999999999999</ele><time>2026-04-06T09:30:22.359Z</time></trkpt><trkpt lat="45.5627618" lon="11.1220431"><ele>865.0</ele><time>2026-04-06T09:30:24.373Z</time></trkpt><trkpt lat="45.5628453" lon="11.1221295"><ele>865.0</ele><time>2026-04-06T09:30:26.372Z</time></trkpt><trkpt lat="45.5628879" lon="11.1221993"><ele>865.0</ele><time>2026-04-06T09:30:28.366Z</time></trkpt><trkpt lat="45.562947" lon="11.122264"><ele>864.9999999999999</ele><time>2026-04-06T09:30:31.364Z</time></trkpt><trkpt lat="45.5629767" lon="11.1223541"><ele>865.0</ele><time>2026-04-06T09:30:35.368Z</time></trkpt><trkpt lat="45.5630263" lon="11.1224221"><ele>865.0</ele><time>2026-04-06T09:30:46.366Z</time></trkpt><trkpt lat="45.5630641" lon="11.1224991"><ele>865.0</ele><time>2026-04-06T09:30:52.372Z</time></trkpt><trkpt lat="45.5630648" lon="11.122591"><ele>865.0</ele><time>2026-04-06T09:30:57.376Z</time></trkpt><trkpt lat="45.5631201" lon="11.1226452"><ele>865.0</ele><time>2026-04-06T09:31:04.376Z</time></trkpt><trkpt lat="45.5631578" lon="11.1227199"><ele>865.0</ele><time>2026-04-06T09:31:10.37Z</time></trkpt><trkpt lat="45.5632135" lon="11.1227982"><ele>865.0</ele><time>2026-04-06T09:31:13.395Z</time></trkpt><trkpt lat="45.5632711" lon="11.1228454"><ele>865.0</ele><time>2026-04-06T09:31:15.389Z</time></trkpt><trkpt lat="45.5633242" lon="11.1229169"><ele>865.0</ele><time>2026-04-06T09:31:17.381Z</time></trkpt><trkpt lat="45.563382" lon="11.1229796"><ele>865.0</ele><time>2026-04-06T09:31:19.41Z</time></trkpt><trkpt lat="45.5634411" lon="11.1230332"><ele>865.0</ele><time>2026-04-06T09:31:21.403Z</time></trkpt><trkpt lat="45.5635102" lon="11.1230964"><ele>865.0</ele><time>2026-04-06T09:31:24.41Z</time></trkpt><trkpt lat="45.5635604" lon="11.1231639"><ele>865.0</ele><time>2026-04-06T09:31:28.415Z</time></trkpt><trkpt lat="45.5636124" lon="11.1232159"><ele>865.0</ele><time>2026-04-06T09:31:32.414Z</time></trkpt><trkpt lat="45.5636784" lon="11.1232428"><ele>865.0</ele><time>2026-04-06T09:31:37.413Z</time></trkpt><trkpt lat="45.5637526" lon="11.1232957"><ele>865.8333333333333</ele><time>2026-04-06T09:31:40.417Z</time></trkpt><trkpt lat="45.5638186" lon="11.1233657"><ele>866.6666666666666</ele><time>2026-04-06T09:31:44.443Z</time></trkpt><trkpt lat="45.563845" lon="11.1234713"><ele>867.5</ele><time>2026-04-06T09:31:47.42Z</time></trkpt><trkpt lat="45.5638623" lon="11.1235708"><ele>868.3333333333333</ele><time>2026-04-06T09:31:49.407Z</time></trkpt><trkpt lat="45.5638978" lon="11.1237481"><ele>869.1666666666666</ele><time>2026-04-06T09:31:53.432Z</time></trkpt><trkpt lat="45.5639315" lon="11.1238297"><ele>870.0</ele><time>2026-04-06T09:31:55.407Z</time></trkpt><trkpt lat="45.5639632" lon="11.1239085"><ele>870.0000000000001</ele><time>2026-04-06T09:31:57.442Z</time></trkpt><trkpt lat="45.5639765" lon="11.1240041"><ele>870.0</ele><time>2026-04-06T09:32:15.445Z</time></trkpt><trkpt lat="45.563983" lon="11.1240953"><ele>870.0</ele><time>2026-04-06T09:32:49.378Z</time></trkpt><trkpt lat="45.5639913" lon="11.1241861"><ele>870.0</ele><time>2026-04-06T09:32:51.367Z</time></trkpt><trkpt lat="45.5640286" lon="11.1242662"><ele>870.0</ele><time>2026-04-06T09:32:53.403Z</time></trkpt><trkpt lat="45.5640798" lon="11.1243672"><ele>870.0000000000001</ele><time>2026-04-06T09:32:56.38Z</time></trkpt><trkpt lat="45.564122" lon="11.1244664"><ele>870.0</ele><time>2026-04-06T09:32:59.383Z</time></trkpt><trkpt lat="45.5641487" lon="11.1245768"><ele>866.4</ele><time>2026-04-06T09:33:01.421Z</time></trkpt><trkpt lat="45.5641723" lon="11.1247077"><ele>862.8</ele><time>2026-04-06T09:33:03.38Z</time></trkpt><trkpt lat="45.5642038" lon="11.1248351"><ele>859.2</ele><time>2026-04-06T09:33:05.385Z</time></trkpt><trkpt lat="45.5642511" lon="11.124926"><ele>855.6</ele><time>2026-04-06T09:33:07.418Z</time></trkpt><trkpt lat="45.5643004" lon="11.1249973"><ele>852.0</ele><time>2026-04-06T09:33:09.426Z</time></trkpt><trkpt lat="45.5643743" lon="11.1251195"><ele>850.1666666666666</ele><time>2026-04-06T09:33:11.373Z</time></trkpt><trkpt lat="45.5644334" lon="11.1252371"><ele>848.3333333333333</ele><time>2026-04-06T09:33:13.371Z</time></trkpt><trkpt lat="45.5644855" lon="11.1253229"><ele>846.5</ele><time>2026-04-06T09:33:15.375Z</time></trkpt><trkpt lat="45.5645292" lon="11.1254267"><ele>844.6666666666666</ele><time>2026-04-06T09:33:18.373Z</time></trkpt><trkpt lat="45.5645704" lon="11.1255225"><ele>842.8333333333333</ele><time>2026-04-06T09:33:20.369Z</time></trkpt><trkpt lat="45.5646127" lon="11.1256139"><ele>841.0</ele><time>2026-04-06T09:33:22.371Z</time></trkpt><trkpt lat="45.564661" lon="11.1256969"><ele>837.6666666666666</ele><time>2026-04-06T09:33:24.372Z</time></trkpt><trkpt lat="45.5647129" lon="11.125767"><ele>834.3333333333333</ele><time>2026-04-06T09:33:26.377Z</time></trkpt><trkpt lat="45.5647235" lon="11.1258934"><ele>831.0</ele><time>2026-04-06T09:33:29.373Z</time></trkpt><trkpt lat="45.5646924" lon="11.1260285"><ele>827.6666666666667</ele><time>2026-04-06T09:33:31.376Z</time></trkpt><trkpt lat="45.5646845" lon="11.1261631"><ele>824.3333333333334</ele><time>2026-04-06T09:33:33.399Z</time></trkpt><trkpt lat="45.5646897" lon="11.1262608"><ele>821.0</ele><time>2026-04-06T09:33:35.359Z</time></trkpt><trkpt lat="45.5647119" lon="11.1263698"><ele>821.0</ele><time>2026-04-06T09:33:37.367Z</time></trkpt><trkpt lat="45.5647125" lon="11.1264706"><ele>821.0</ele><time>2026-04-06T09:33:39.374Z</time></trkpt><trkpt lat="45.5647184" lon="11.1266235"><ele>821.0</ele><time>2026-04-06T09:33:41.39Z</time></trkpt><trkpt lat="45.5647476" lon="11.126721"><ele>821.0</ele><time>2026-04-06T09:33:42.376Z</time></trkpt><trkpt lat="45.5647868" lon="11.1268741"><ele>821.0</ele><time>2026-04-06T09:33:44.387Z</time></trkpt><trkpt lat="45.5648497" lon="11.1270383"><ele>819.3333333333334</ele><time>2026-04-06T09:33:46.381Z</time></trkpt><trkpt lat="45.564897" lon="11.1271029"><ele>817.6666666666667</ele><time>2026-04-06T09:33:47.381Z</time></trkpt><trkpt lat="45.5649462" lon="11.1271673"><ele>816.0</ele><time>2026-04-06T09:33:48.44Z</time></trkpt><trkpt lat="45.564997" lon="11.1272236"><ele>814.3333333333333</ele><time>2026-04-06T09:33:49.382Z</time></trkpt><trkpt lat="45.5650805" lon="11.1273414"><ele>812.6666666666666</ele><time>2026-04-06T09:33:51.376Z</time></trkpt><trkpt lat="45.5651479" lon="11.1274703"><ele>811.0</ele><time>2026-04-06T09:33:53.385Z</time></trkpt><trkpt lat="45.5652086" lon="11.1275242"><ele>810.4999999999999</ele><time>2026-04-06T09:33:54.377Z</time></trkpt><trkpt lat="45.5652447" lon="11.1276046"><ele>810.0</ele><time>2026-04-06T09:33:55.377Z</time></trkpt><trkpt lat="45.5653259" lon="11.1277325"><ele>809.5</ele><time>2026-04-06T09:33:57.376Z</time></trkpt><trkpt lat="45.5653549" lon="11.12782"><ele>809.0</ele><time>2026-04-06T09:33:59.389Z</time></trkpt><trkpt lat="45.5654126" lon="11.1278712"><ele>808.4999999999999</ele><time>2026-04-06T09:34:01.371Z</time></trkpt><trkpt lat="45.5653907" lon="11.1279783"><ele>808.0</ele><time>2026-04-06T09:34:03.401Z</time></trkpt><trkpt lat="45.5653593" lon="11.1280635"><ele>807.4</ele><time>2026-04-06T09:34:04.398Z</time></trkpt><trkpt lat="45.5652813" lon="11.1282132"><ele>806.8</ele><time>2026-04-06T09:34:06.378Z</time></trkpt><trkpt lat="45.5652444" lon="11.1283082"><ele>806.2</ele><time>2026-04-06T09:34:07.387Z</time></trkpt><trkpt lat="45.5652011" lon="11.1284137"><ele>805.6</ele><time>2026-04-06T09:34:08.363Z</time></trkpt><trkpt lat="45.5651646" lon="11.1285273"><ele>805.0</ele><time>2026-04-06T09:34:09.404Z</time></trkpt><trkpt lat="45.5651223" lon="11.1286366"><ele>802.5</ele><time>2026-04-06T09:34:10.409Z</time></trkpt><trkpt lat="45.565074" lon="11.1287608"><ele>800.0</ele><time>2026-04-06T09:34:11.373Z</time></trkpt><trkpt lat="45.5650151" lon="11.1288864"><ele>797.5</ele><time>2026-04-06T09:34:12.405Z</time></trkpt><trkpt lat="45.5649469" lon="11.1290028"><ele>795.0</ele><time>2026-04-06T09:34:13.376Z</time></trkpt><trkpt lat="45.5647994" lon="11.1291932"><ele>793.2</ele><time>2026-04-06T09:34:15.388Z</time></trkpt><trkpt lat="45.5647192" lon="11.1292904"><ele>791.4</ele><time>2026-04-06T09:34:16.401Z</time></trkpt><trkpt lat="45.5646516" lon="11.1293699"><ele>789.5999999999999</ele><time>2026-04-06T09:34:17.401Z</time></trkpt><trkpt lat="45.5646041" lon="11.1294812"><ele>787.8</ele><time>2026-04-06T09:34:18.396Z</time></trkpt><trkpt lat="45.5645408" lon="11.1295891"><ele>786.0</ele><time>2026-04-06T09:34:19.42Z</time></trkpt><trkpt lat="45.5644832" lon="11.1296809"><ele>783.3333333333334</ele><time>2026-04-06T09:34:20.418Z</time></trkpt><trkpt lat="45.5644233" lon="11.1297719"><ele>780.6666666666667</ele><time>2026-04-06T09:34:21.374Z</time></trkpt><trkpt lat="45.5643625" lon="11.129851"><ele>778.0</ele><time>2026-04-06T09:34:22.38Z</time></trkpt><trkpt lat="45.564293" lon="11.1299021"><ele>775.3333333333334</ele><time>2026-04-06T09:34:23.378Z</time></trkpt><trkpt lat="45.5642242" lon="11.1299202"><ele>772.6666666666667</ele><time>2026-04-06T09:34:24.372Z</time></trkpt><trkpt lat="45.5641507" lon="11.1299447"><ele>770.0</ele><time>2026-04-06T09:34:25.38Z</time></trkpt><trkpt lat="45.5640817" lon="11.1299869"><ele>769.1666666666667</ele><time>2026-04-06T09:34:26.371Z</time></trkpt><trkpt lat="45.5640135" lon="11.1300547"><ele>768.3333333333334</ele><time>2026-04-06T09:34:27.382Z</time></trkpt><trkpt lat="45.5639547" lon="11.1301414"><ele>767.5</ele><time>2026-04-06T09:34:28.376Z</time></trkpt><trkpt lat="45.5639073" lon="11.1302359"><ele>766.6666666666667</ele><time>2026-04-06T09:34:29.374Z</time></trkpt><trkpt lat="45.5638544" lon="11.1303507"><ele>765.8333333333334</ele><time>2026-04-06T09:34:30.375Z</time></trkpt><trkpt lat="45.5638096" lon="11.13046"><ele>765.0</ele><time>2026-04-06T09:34:31.373Z</time></trkpt><trkpt lat="45.563762" lon="11.1305863"><ele>765.0</ele><time>2026-04-06T09:34:32.376Z</time></trkpt><trkpt lat="45.5637172" lon="11.1306919"><ele>765.0</ele><time>2026-04-06T09:34:33.376Z</time></trkpt><trkpt lat="45.5636594" lon="11.1307844"><ele>765.0</ele><time>2026-04-06T09:34:34.368Z</time></trkpt><trkpt lat="45.5635876" lon="11.1308776"><ele>765.0</ele><time>2026-04-06T09:34:35.378Z</time></trkpt><trkpt lat="45.5635074" lon="11.1309522"><ele>765.0</ele><time>2026-04-06T09:34:36.37Z</time></trkpt><trkpt lat="45.5634455" lon="11.1310246"><ele>765.0</ele><time>2026-04-06T09:34:37.373Z</time></trkpt><trkpt lat="45.5633984" lon="11.1311132"><ele>762.1666666666666</ele><time>2026-04-06T09:34:38.371Z</time></trkpt><trkpt lat="45.5633685" lon="11.1311953"><ele>759.3333333333334</ele><time>2026-04-06T09:34:39.37Z</time></trkpt><trkpt lat="45.5633415" lon="11.1312949"><ele>756.5</ele><time>2026-04-06T09:34:40.369Z</time></trkpt><trkpt lat="45.56333" lon="11.1313857"><ele>753.6666666666667</ele><time>2026-04-06T09:34:41.371Z</time></trkpt><trkpt lat="45.5632987" lon="11.1315684"><ele>750.8333333333334</ele><time>2026-04-06T09:34:43.371Z</time></trkpt><trkpt lat="45.5632837" lon="11.1316588"><ele>748.0</ele><time>2026-04-06T09:34:44.373Z</time></trkpt><trkpt lat="45.5632651" lon="11.1318228"><ele>748.0</ele><time>2026-04-06T09:34:46.369Z</time></trkpt><trkpt lat="45.5632503" lon="11.1319125"><ele>748.0</ele><time>2026-04-06T09:34:47.378Z</time></trkpt><trkpt lat="45.5632544" lon="11.1320274"><ele>748.0</ele><time>2026-04-06T09:34:48.37Z</time></trkpt><trkpt lat="45.563245" lon="11.1321294"><ele>748.0</ele><time>2026-04-06T09:34:49.382Z</time></trkpt><trkpt lat="45.5632331" lon="11.1322282"><ele>748.0</ele><time>2026-04-06T09:34:50.377Z</time></trkpt><trkpt lat="45.5632095" lon="11.1323252"><ele>748.0</ele><time>2026-04-06T09:34:51.383Z</time></trkpt><trkpt lat="45.5632108" lon="11.1324362"><ele>748.0</ele><time>2026-04-06T09:34:52.361Z</time></trkpt><trkpt lat="45.5631914" lon="11.1326231"><ele>746.6666666666667</ele><time>2026-04-06T09:34:54.363Z</time></trkpt><trkpt lat="45.5631808" lon="11.1327222"><ele>745.3333333333334</ele><time>2026-04-06T09:34:55.37Z</time></trkpt><trkpt lat="45.5631459" lon="11.1329163"><ele>744.0</ele><time>2026-04-06T09:34:57.378Z</time></trkpt><trkpt lat="45.563122" lon="11.1330149"><ele>742.6666666666666</ele><time>2026-04-06T09:34:58.372Z</time></trkpt><trkpt lat="45.5630942" lon="11.1331034"><ele>741.3333333333333</ele><time>2026-04-06T09:34:59.37Z</time></trkpt><trkpt lat="45.5630687" lon="11.1331895"><ele>740.0</ele><time>2026-04-06T09:35:00.368Z</time></trkpt><trkpt lat="45.5630355" lon="11.1332894"><ele>738.9999999999999</ele><time>2026-04-06T09:35:01.369Z</time></trkpt><trkpt lat="45.5629969" lon="11.1333652"><ele>738.0</ele><time>2026-04-06T09:35:02.366Z</time></trkpt><trkpt lat="45.562942" lon="11.1334552"><ele>737.0</ele><time>2026-04-06T09:35:03.375Z</time></trkpt><trkpt lat="45.562887" lon="11.1335209"><ele>736.0</ele><time>2026-04-06T09:35:04.373Z</time></trkpt><trkpt lat="45.5628389" lon="11.1335829"><ele>735.0</ele><time>2026-04-06T09:35:05.371Z</time></trkpt><trkpt lat="45.5627751" lon="11.1336478"><ele>733.9999999999999</ele><time>2026-04-06T09:35:06.369Z</time></trkpt><trkpt lat="45.5627166" lon="11.1337059"><ele>733.0</ele><time>2026-04-06T09:35:07.38Z</time></trkpt><trkpt lat="45.5626526" lon="11.1337456"><ele>733.0</ele><time>2026-04-06T09:35:08.371Z</time></trkpt><trkpt lat="45.5625911" lon="11.133788"><ele>733.0</ele><time>2026-04-06T09:35:09.36Z</time></trkpt><trkpt lat="45.5625193" lon="11.1338231"><ele>733.0</ele><time>2026-04-06T09:35:10.373Z</time></trkpt><trkpt lat="45.5624566" lon="11.1338472"><ele>733.0</ele><time>2026-04-06T09:35:11.373Z</time></trkpt><trkpt lat="45.5623982" lon="11.1338815"><ele>733.0</ele><time>2026-04-06T09:35:12.391Z</time></trkpt><trkpt lat="45.5622781" lon="11.1339885"><ele>733.0</ele><time>2026-04-06T09:35:14.418Z</time></trkpt><trkpt lat="45.5622316" lon="11.1340661"><ele>731.8</ele><time>2026-04-06T09:35:15.417Z</time></trkpt><trkpt lat="45.5621912" lon="11.1341523"><ele>730.5999999999999</ele><time>2026-04-06T09:35:16.411Z</time></trkpt><trkpt lat="45.5621331" lon="11.1342582"><ele>729.4000000000001</ele><time>2026-04-06T09:35:17.404Z</time></trkpt><trkpt lat="45.5620825" lon="11.1343857"><ele>728.2</ele><time>2026-04-06T09:35:18.415Z</time></trkpt><trkpt lat="45.562043" lon="11.1345107"><ele>727.0</ele><time>2026-04-06T09:35:19.448Z</time></trkpt><trkpt lat="45.5620014" lon="11.1346345"><ele>723.2</ele><time>2026-04-06T09:35:20.381Z</time></trkpt><trkpt lat="45.5619798" lon="11.1348141"><ele>719.4000000000001</ele><time>2026-04-06T09:35:21.377Z</time></trkpt><trkpt lat="45.5619403" lon="11.1349464"><ele>715.5999999999999</ele><time>2026-04-06T09:35:22.371Z</time></trkpt><trkpt lat="45.5619059" lon="11.1350674"><ele>711.8</ele><time>2026-04-06T09:35:23.455Z</time></trkpt><trkpt lat="45.5618677" lon="11.1351585"><ele>708.0</ele><time>2026-04-06T09:35:24.4Z</time></trkpt><trkpt lat="45.5618224" lon="11.1352375"><ele>708.0</ele><time>2026-04-06T09:35:25.397Z</time></trkpt><trkpt lat="45.5617396" lon="11.1353247"><ele>708.0</ele><time>2026-04-06T09:35:27.391Z</time></trkpt><trkpt lat="45.561681" lon="11.1354178"><ele>708.0</ele><time>2026-04-06T09:35:30.375Z</time></trkpt><trkpt lat="45.5616634" lon="11.1355383"><ele>708.0</ele><time>2026-04-06T09:35:33.433Z</time></trkpt><trkpt lat="45.561668" lon="11.1356327"><ele>708.0</ele><time>2026-04-06T09:35:35.484Z</time></trkpt><trkpt lat="45.5617119" lon="11.1357371"><ele>708.0</ele><time>2026-04-06T09:35:37.41Z</time></trkpt><trkpt lat="45.5617465" lon="11.1358447"><ele>708.2</ele><time>2026-04-06T09:35:39.378Z</time></trkpt><trkpt lat="45.5618105" lon="11.135965"><ele>708.4</ele><time>2026-04-06T09:35:41.406Z</time></trkpt><trkpt lat="45.5618888" lon="11.1360219"><ele>708.6</ele><time>2026-04-06T09:35:43.434Z</time></trkpt><trkpt lat="45.5619712" lon="11.1361466"><ele>708.8000000000001</ele><time>2026-04-06T09:35:45.423Z</time></trkpt><trkpt lat="45.5620006" lon="11.1362268"><ele>709.0</ele><time>2026-04-06T09:35:46.441Z</time></trkpt><trkpt lat="45.5620567" lon="11.1363923"><ele>707.0</ele><time>2026-04-06T09:35:48.41Z</time></trkpt><trkpt lat="45.5620835" lon="11.1365092"><ele>705.0</ele><time>2026-04-06T09:35:49.42Z</time></trkpt><trkpt lat="45.5621127" lon="11.1366066"><ele>703.0</ele><time>2026-04-06T09:35:50.42Z</time></trkpt><trkpt lat="45.5621579" lon="11.1367114"><ele>701.0</ele><time>2026-04-06T09:35:51.402Z</time></trkpt><trkpt lat="45.5621854" lon="11.1368019"><ele>699.0</ele><time>2026-04-06T09:35:52.452Z</time></trkpt><trkpt lat="45.5622269" lon="11.1368942"><ele>697.0</ele><time>2026-04-06T09:35:53.43Z</time></trkpt><trkpt lat="45.56227" lon="11.1369932"><ele>695.2</ele><time>2026-04-06T09:35:54.419Z</time></trkpt><trkpt lat="45.5623209" lon="11.1370908"><ele>693.4000000000001</ele><time>2026-04-06T09:35:55.427Z</time></trkpt><trkpt lat="45.5623773" lon="11.1371986"><ele>691.5999999999999</ele><time>2026-04-06T09:35:56.465Z</time></trkpt><trkpt lat="45.5624321" lon="11.1372901"><ele>689.8</ele><time>2026-04-06T09:35:57.417Z</time></trkpt><trkpt lat="45.5625064" lon="11.1374399"><ele>688.0</ele><time>2026-04-06T09:35:59.373Z</time></trkpt><trkpt lat="45.5625575" lon="11.1375543"><ele>686.8333333333334</ele><time>2026-04-06T09:36:00.398Z</time></trkpt><trkpt lat="45.5626085" lon="11.1376432"><ele>685.6666666666667</ele><time>2026-04-06T09:36:01.378Z</time></trkpt><trkpt lat="45.5626426" lon="11.1377293"><ele>684.5</ele><time>2026-04-06T09:36:02.372Z</time></trkpt><trkpt lat="45.5627109" lon="11.1378344"><ele>683.3333333333334</ele><time>2026-04-06T09:36:03.376Z</time></trkpt><trkpt lat="45.562752" lon="11.1379265"><ele>682.1666666666666</ele><time>2026-04-06T09:36:04.416Z</time></trkpt><trkpt lat="45.5627865" lon="11.1380103"><ele>681.0</ele><time>2026-04-06T09:36:05.398Z</time></trkpt><trkpt lat="45.5628559" lon="11.1381116"><ele>679.8</ele><time>2026-04-06T09:36:06.413Z</time></trkpt><trkpt lat="45.5628943" lon="11.1381847"><ele>678.5999999999999</ele><time>2026-04-06T09:36:07.42Z</time></trkpt><trkpt lat="45.5629293" lon="11.1382623"><ele>677.4</ele><time>2026-04-06T09:36:08.409Z</time></trkpt><trkpt lat="45.5629871" lon="11.1384213"><ele>676.2</ele><time>2026-04-06T09:36:10.959Z</time></trkpt><trkpt lat="45.5630629" lon="11.1386385"><ele>675.0</ele><time>2026-04-06T09:36:12.385Z</time></trkpt><trkpt lat="45.5631247" lon="11.1388191"><ele>675.0</ele><time>2026-04-06T09:36:14.403Z</time></trkpt><trkpt lat="45.5631763" lon="11.1389141"><ele>675.0</ele><time>2026-04-06T09:36:15.39Z</time></trkpt><trkpt lat="45.5632357" lon="11.1390786"><ele>675.0</ele><time>2026-04-06T09:36:17.422Z</time></trkpt><trkpt lat="45.5632792" lon="11.139179"><ele>675.0</ele><time>2026-04-06T09:36:18.417Z</time></trkpt><trkpt lat="45.5633246" lon="11.1392832"><ele>675.0</ele><time>2026-04-06T09:36:19.482Z</time></trkpt><trkpt lat="45.5633396" lon="11.1393763"><ele>675.0</ele><time>2026-04-06T09:36:20.426Z</time></trkpt><trkpt lat="45.5633581" lon="11.1394705"><ele>674.8333333333334</ele><time>2026-04-06T09:36:21.452Z</time></trkpt><trkpt lat="45.5633805" lon="11.1395816"><ele>674.6666666666666</ele><time>2026-04-06T09:36:22.424Z</time></trkpt><trkpt lat="45.5634056" lon="11.1397009"><ele>674.5</ele><time>2026-04-06T09:36:23.44Z</time></trkpt><trkpt lat="45.5634156" lon="11.1398248"><ele>674.3333333333333</ele><time>2026-04-06T09:36:24.411Z</time></trkpt><trkpt lat="45.5634251" lon="11.139949"><ele>674.1666666666666</ele><time>2026-04-06T09:36:25.394Z</time></trkpt><trkpt lat="45.5634299" lon="11.1400879"><ele>674.0</ele><time>2026-04-06T09:36:26.408Z</time></trkpt><trkpt lat="45.5634409" lon="11.1402127"><ele>671.75</ele><time>2026-04-06T09:36:27.405Z</time></trkpt><trkpt lat="45.5634479" lon="11.140356"><ele>669.5</ele><time>2026-04-06T09:36:28.377Z</time></trkpt><trkpt lat="45.5634528" lon="11.1406069"><ele>667.25</ele><time>2026-04-06T09:36:30.408Z</time></trkpt><trkpt lat="45.5634568" lon="11.1407509"><ele>665.0</ele><time>2026-04-06T09:36:32.374Z</time></trkpt><trkpt lat="45.5634509" lon="11.1408958"><ele>662.75</ele><time>2026-04-06T09:36:34.4Z</time></trkpt><trkpt lat="45.5634491" lon="11.1409858"><ele>660.5</ele><time>2026-04-06T09:36:35.408Z</time></trkpt><trkpt lat="45.5634388" lon="11.1412776"><ele>658.25</ele><time>2026-04-06T09:36:38.423Z</time></trkpt><trkpt lat="45.563449" lon="11.1414617"><ele>656.0</ele><time>2026-04-06T09:36:40.438Z</time></trkpt><trkpt lat="45.5634468" lon="11.1415687"><ele>654.5</ele><time>2026-04-06T09:36:41.417Z</time></trkpt><trkpt lat="45.5634344" lon="11.1418177"><ele>653.0</ele><time>2026-04-06T09:36:44.417Z</time></trkpt><trkpt lat="45.5634672" lon="11.1419831"><ele>651.5</ele><time>2026-04-06T09:36:47.2Z</time></trkpt><trkpt lat="45.5634679" lon="11.1421484"><ele>650.0</ele><time>2026-04-06T09:36:48.4Z</time></trkpt><trkpt lat="45.5634825" lon="11.1422646"><ele>650.0</ele><time>2026-04-06T09:36:50.414Z</time></trkpt><trkpt lat="45.5634842" lon="11.1423754"><ele>650.0</ele><time>2026-04-06T09:36:52.43Z</time></trkpt><trkpt lat="45.5634965" lon="11.1424826"><ele>650.0</ele><time>2026-04-06T09:36:54.388Z</time></trkpt><trkpt lat="45.5634441" lon="11.1425336"><ele>650.0</ele><time>2026-04-06T09:36:58.484Z</time></trkpt><trkpt lat="45.5633696" lon="11.142566"><ele>650.0</ele><time>2026-04-06T09:37:07.368Z</time></trkpt><trkpt lat="45.5632997" lon="11.1425908"><ele>650.0</ele><time>2026-04-06T09:37:10.399Z</time></trkpt><trkpt lat="45.5632261" lon="11.1426315"><ele>650.0</ele><time>2026-04-06T09:37:13.446Z</time></trkpt><trkpt lat="45.5631578" lon="11.1426393"><ele>650.0</ele><time>2026-04-06T09:37:15.482Z</time></trkpt><trkpt lat="45.563091" lon="11.1426161"><ele>650.0</ele><time>2026-04-06T09:37:16.428Z</time></trkpt><trkpt lat="45.5630223" lon="11.142531"><ele>650.0</ele><time>2026-04-06T09:37:18.412Z</time></trkpt><trkpt lat="45.5629411" lon="11.1424371"><ele>650.0</ele><time>2026-04-06T09:37:20.364Z</time></trkpt><trkpt lat="45.5628938" lon="11.1422564"><ele>650.0</ele><time>2026-04-06T09:37:22.372Z</time></trkpt><trkpt lat="45.5628231" lon="11.1421074"><ele>646.3333333333333</ele><time>2026-04-06T09:37:24.407Z</time></trkpt><trkpt lat="45.5627408" lon="11.1420228"><ele>642.6666666666666</ele><time>2026-04-06T09:37:26.461Z</time></trkpt><trkpt lat="45.5626913" lon="11.1419642"><ele>639.0</ele><time>2026-04-06T09:37:28.472Z</time></trkpt><trkpt lat="45.5626516" lon="11.1418704"><ele>635.3333333333334</ele><time>2026-04-06T09:37:30.412Z</time></trkpt><trkpt lat="45.5625787" lon="11.1418377"><ele>631.6666666666667</ele><time>2026-04-06T09:37:34.372Z</time></trkpt><trkpt lat="45.5625087" lon="11.1418879"><ele>628.0</ele><time>2026-04-06T09:37:37.47Z</time></trkpt><trkpt lat="45.5624578" lon="11.1420038"><ele>627.9999999999999</ele><time>2026-04-06T09:37:40.404Z</time></trkpt><trkpt lat="45.5624414" lon="11.1420975"><ele>628.0</ele><time>2026-04-06T09:37:42.395Z</time></trkpt><trkpt lat="45.5624021" lon="11.1421831"><ele>628.0</ele><time>2026-04-06T09:37:45.41Z</time></trkpt><trkpt lat="45.5624025" lon="11.1422754"><ele>628.0</ele><time>2026-04-06T09:37:49.402Z</time></trkpt><trkpt lat="45.5624355" lon="11.1423776"><ele>628.0</ele><time>2026-04-06T09:37:52.477Z</time></trkpt><trkpt lat="45.5624416" lon="11.142471"><ele>627.9999999999999</ele><time>2026-04-06T09:37:54.417Z</time></trkpt><trkpt lat="45.5624732" lon="11.1425544"><ele>628.0</ele><time>2026-04-06T09:37:56.427Z</time></trkpt><trkpt lat="45.5625103" lon="11.1426749"><ele>625.6666666666667</ele><time>2026-04-06T09:37:59.413Z</time></trkpt><trkpt lat="45.562504" lon="11.1427708"><ele>623.3333333333334</ele><time>2026-04-06T09:38:01.425Z</time></trkpt><trkpt lat="45.5624911" lon="11.142883"><ele>621.0</ele><time>2026-04-06T09:38:03.483Z</time></trkpt><trkpt lat="45.5624754" lon="11.1429808"><ele>618.6666666666666</ele><time>2026-04-06T09:38:05.481Z</time></trkpt><trkpt lat="45.562464" lon="11.1430815"><ele>616.3333333333333</ele><time>2026-04-06T09:38:07.391Z</time></trkpt><trkpt lat="45.5624768" lon="11.1432123"><ele>614.0</ele><time>2026-04-06T09:38:10.423Z</time></trkpt><trkpt lat="45.5624638" lon="11.143313"><ele>612.7142857142857</ele><time>2026-04-06T09:38:14.496Z</time></trkpt><trkpt lat="45.5624727" lon="11.1434067"><ele>611.4285714285714</ele><time>2026-04-06T09:38:17.375Z</time></trkpt><trkpt lat="45.5624879" lon="11.1435049"><ele>610.1428571428571</ele><time>2026-04-06T09:38:31.369Z</time></trkpt><trkpt lat="45.5625032" lon="11.1436121"><ele>608.8571428571429</ele><time>2026-04-06T09:38:34.391Z</time></trkpt><trkpt lat="45.562499" lon="11.143714"><ele>607.5714285714286</ele><time>2026-04-06T09:38:36.39Z</time></trkpt><trkpt lat="45.5624839" lon="11.1438092"><ele>606.2857142857142</ele><time>2026-04-06T09:38:39.396Z</time></trkpt><trkpt lat="45.5624694" lon="11.1439148"><ele>605.0</ele><time>2026-04-06T09:38:42.397Z</time></trkpt><trkpt lat="45.5624653" lon="11.1440354"><ele>604.0</ele><time>2026-04-06T09:38:46.414Z</time></trkpt><trkpt lat="45.5624464" lon="11.1441316"><ele>603.0</ele><time>2026-04-06T09:38:49.476Z</time></trkpt><trkpt lat="45.5624131" lon="11.1442164"><ele>602.0</ele><time>2026-04-06T09:38:53.424Z</time></trkpt><trkpt lat="45.5623785" lon="11.1443177"><ele>601.0</ele><time>2026-04-06T09:38:57.443Z</time></trkpt><trkpt lat="45.5623331" lon="11.1444072"><ele>600.0</ele><time>2026-04-06T09:38:59.413Z</time></trkpt><trkpt lat="45.5622658" lon="11.1444211"><ele>599.0</ele><time>2026-04-06T09:39:02.387Z</time></trkpt><trkpt lat="45.5621981" lon="11.1444253"><ele>598.0</ele><time>2026-04-06T09:39:05.418Z</time></trkpt><trkpt lat="45.5621296" lon="11.1444183"><ele>598.0</ele><time>2026-04-06T09:39:09.423Z</time></trkpt><trkpt lat="45.5620646" lon="11.1444024"><ele>598.0</ele><time>2026-04-06T09:39:14.38Z</time></trkpt><trkpt lat="45.5620568" lon="11.1442851"><ele>598.0</ele><time>2026-04-06T09:39:19.488Z</time></trkpt><trkpt lat="45.5620588" lon="11.1441693"><ele>598.0</ele><time>2026-04-06T09:39:22.484Z</time></trkpt><trkpt lat="45.5619962" lon="11.1441934"><ele>598.0</ele><time>2026-04-06T09:39:28.443Z</time></trkpt><trkpt lat="45.5619449" lon="11.1442639"><ele>598.0</ele><time>2026-04-06T09:39:31.365Z</time></trkpt><trkpt lat="45.561888" lon="11.1443371"><ele>598.0</ele><time>2026-04-06T09:39:34.417Z</time></trkpt><trkpt lat="45.5618535" lon="11.1444125"><ele>593.8333333333334</ele><time>2026-04-06T09:39:36.398Z</time></trkpt><trkpt lat="45.5618247" lon="11.144508"><ele>589.6666666666667</ele><time>2026-04-06T09:39:38.487Z</time></trkpt><trkpt lat="45.5617835" lon="11.1446267"><ele>585.5</ele><time>2026-04-06T09:39:40.387Z</time></trkpt><trkpt lat="45.5617371" lon="11.144731"><ele>581.3333333333334</ele><time>2026-04-06T09:39:42.424Z</time></trkpt><trkpt lat="45.5617015" lon="11.144837"><ele>577.1666666666666</ele><time>2026-04-06T09:39:46.417Z</time></trkpt><trkpt lat="45.5616967" lon="11.1449578"><ele>573.0</ele><time>2026-04-06T09:39:50.408Z</time></trkpt><trkpt lat="45.5617115" lon="11.1450716"><ele>573.0</ele><time>2026-04-06T09:39:54.414Z</time></trkpt><trkpt lat="45.5616977" lon="11.1451751"><ele>573.0</ele><time>2026-04-06T09:39:56.372Z</time></trkpt><trkpt lat="45.5616748" lon="11.1452622"><ele>573.0</ele><time>2026-04-06T09:39:58.421Z</time></trkpt><trkpt lat="45.5616581" lon="11.1453754"><ele>573.0</ele><time>2026-04-06T09:40:01.409Z</time></trkpt><trkpt lat="45.5616989" lon="11.1454599"><ele>573.0</ele><time>2026-04-06T09:40:05.405Z</time></trkpt><trkpt lat="45.561768" lon="11.1455426"><ele>573.0</ele><time>2026-04-06T09:40:08.411Z</time></trkpt><trkpt lat="45.5618342" lon="11.1456074"><ele>573.0</ele><time>2026-04-06T09:40:11.408Z</time></trkpt><trkpt lat="45.5619084" lon="11.1456646"><ele>573.0</ele><time>2026-04-06T09:40:14.475Z</time></trkpt><trkpt lat="45.5619876" lon="11.1457072"><ele>573.0</ele><time>2026-04-06T09:40:18.374Z</time></trkpt><trkpt lat="45.562067" lon="11.1457307"><ele>573.0</ele><time>2026-04-06T09:40:21.39Z</time></trkpt><trkpt lat="45.5621335" lon="11.1457469"><ele>573.0</ele><time>2026-04-06T09:40:25.375Z</time></trkpt><trkpt lat="45.5621967" lon="11.1457551"><ele>573.0</ele><time>2026-04-06T09:40:36.417Z</time></trkpt><trkpt lat="45.562265" lon="11.145772"><ele>571.5</ele><time>2026-04-06T09:40:41.432Z</time></trkpt><trkpt lat="45.5623578" lon="11.1458034"><ele>570.0</ele><time>2026-04-06T09:41:08.389Z</time></trkpt><trkpt lat="45.5624265" lon="11.1458296"><ele>568.5</ele><time>2026-04-06T09:41:14.372Z</time></trkpt><trkpt lat="45.5624897" lon="11.145841"><ele>567.0</ele><time>2026-04-06T09:41:22.385Z</time></trkpt><trkpt lat="45.5625679" lon="11.1457317"><ele>565.5</ele><time>2026-04-06T09:41:36.372Z</time></trkpt><trkpt lat="45.5626264" lon="11.1456689"><ele>564.0</ele><time>2026-04-06T09:41:45.407Z</time></trkpt><trkpt lat="45.5627115" lon="11.1456214"><ele>567.1666666666666</ele><time>2026-04-06T09:41:49.408Z</time></trkpt><trkpt lat="45.5628014" lon="11.1456042"><ele>570.3333333333334</ele><time>2026-04-06T09:41:52.405Z</time></trkpt><trkpt lat="45.5628687" lon="11.145567"><ele>573.5</ele><time>2026-04-06T09:41:54.391Z</time></trkpt><trkpt lat="45.5629335" lon="11.1455268"><ele>576.6666666666667</ele><time>2026-04-06T09:41:56.486Z</time></trkpt><trkpt lat="45.562999" lon="11.1455008"><ele>579.8333333333334</ele><time>2026-04-06T09:41:58.418Z</time></trkpt><trkpt lat="45.563087" lon="11.1454861"><ele>583.0</ele><time>2026-04-06T09:42:01.398Z</time></trkpt><trkpt lat="45.5631543" lon="11.1454887"><ele>583.0000000000001</ele><time>2026-04-06T09:42:05.439Z</time></trkpt><trkpt lat="45.563221" lon="11.1454739"><ele>583.0</ele><time>2026-04-06T09:42:10.409Z</time></trkpt><trkpt lat="45.5632804" lon="11.14551"><ele>583.0</ele><time>2026-04-06T09:42:26.412Z</time></trkpt><trkpt lat="45.5633334" lon="11.1455623"><ele>583.0</ele><time>2026-04-06T09:42:30.371Z</time></trkpt><trkpt lat="45.5633943" lon="11.1456479"><ele>583.0</ele><time>2026-04-06T09:42:36.401Z</time></trkpt><trkpt lat="45.5634471" lon="11.1457045"><ele>583.0000000000001</ele><time>2026-04-06T09:42:39.372Z</time></trkpt><trkpt lat="45.5635059" lon="11.1457605"><ele>583.0</ele><time>2026-04-06T09:42:45.368Z</time></trkpt><trkpt lat="45.5635597" lon="11.1458212"><ele>578.8333333333334</ele><time>2026-04-06T09:42:51.428Z</time></trkpt><trkpt lat="45.5636316" lon="11.1458714"><ele>574.6666666666667</ele><time>2026-04-06T09:43:04.418Z</time></trkpt><trkpt lat="45.5636823" lon="11.1459469"><ele>570.5</ele><time>2026-04-06T09:43:07.372Z</time></trkpt><trkpt lat="45.5637413" lon="11.1460272"><ele>566.3333333333334</ele><time>2026-04-06T09:43:10.373Z</time></trkpt><trkpt lat="45.5638102" lon="11.1461114"><ele>562.1666666666666</ele><time>2026-04-06T09:43:13.416Z</time></trkpt><trkpt lat="45.563862" lon="11.1461772"><ele>558.0</ele><time>2026-04-06T09:43:16.495Z</time></trkpt><trkpt lat="45.5639121" lon="11.1462327"><ele>557.9999999999999</ele><time>2026-04-06T09:43:25.408Z</time></trkpt><trkpt lat="45.5639348" lon="11.146322"><ele>558.0</ele><time>2026-04-06T09:43:30.39Z</time></trkpt><trkpt lat="45.5639755" lon="11.1464074"><ele>558.0</ele><time>2026-04-06T09:43:34.406Z</time></trkpt><trkpt lat="45.5640586" lon="11.1464592"><ele>558.0</ele><time>2026-04-06T09:43:54.401Z</time></trkpt><trkpt lat="45.5641163" lon="11.1464219"><ele>558.0</ele><time>2026-04-06T09:45:20.371Z</time></trkpt><trkpt lat="45.5641773" lon="11.146374"><ele>557.9999999999999</ele><time>2026-04-06T09:45:23.375Z</time></trkpt><trkpt lat="45.5642318" lon="11.1463208"><ele>558.0</ele><time>2026-04-06T09:45:25.438Z</time></trkpt><trkpt lat="45.5642905" lon="11.1462554"><ele>558.0</ele><time>2026-04-06T09:45:27.419Z</time></trkpt><trkpt lat="45.5643469" lon="11.1462043"><ele>558.0</ele><time>2026-04-06T09:45:29.429Z</time></trkpt><trkpt lat="45.5644258" lon="11.1461638"><ele>558.0</ele><time>2026-04-06T09:45:31.411Z</time></trkpt><trkpt lat="45.5645089" lon="11.1461379"><ele>558.0</ele><time>2026-04-06T09:45:33.416Z</time></trkpt><trkpt lat="45.5646136" lon="11.1461202"><ele>558.0</ele><time>2026-04-06T09:45:35.435Z</time></trkpt><trkpt lat="45.5647249" lon="11.146106"><ele>553.8</ele><time>2026-04-06T09:45:37.433Z</time></trkpt><trkpt lat="45.5647992" lon="11.1460848"><ele>549.5999999999999</ele><time>2026-04-06T09:45:38.378Z</time></trkpt><trkpt lat="45.5648623" lon="11.1460593"><ele>545.4000000000001</ele><time>2026-04-06T09:45:39.378Z</time></trkpt><trkpt lat="45.5649852" lon="11.1460464"><ele>541.2</ele><time>2026-04-06T09:45:41.415Z</time></trkpt><trkpt lat="45.5650514" lon="11.1460171"><ele>537.0</ele><time>2026-04-06T09:45:42.48Z</time></trkpt><trkpt lat="45.5652118" lon="11.1459726"><ele>537.0</ele><time>2026-04-06T09:45:45.491Z</time></trkpt><trkpt lat="45.5653204" lon="11.1459402"><ele>537.0</ele><time>2026-04-06T09:45:47.487Z</time></trkpt><trkpt lat="45.5653984" lon="11.1459307"><ele>537.0</ele><time>2026-04-06T09:45:49.372Z</time></trkpt><trkpt lat="45.5654646" lon="11.1459598"><ele>537.0</ele><time>2026-04-06T09:45:50.371Z</time></trkpt><trkpt lat="45.5655461" lon="11.1459997"><ele>537.0</ele><time>2026-04-06T09:45:52.393Z</time></trkpt><trkpt lat="45.5656361" lon="11.1460183"><ele>537.0</ele><time>2026-04-06T09:45:54.47Z</time></trkpt><trkpt lat="45.5657102" lon="11.1460179"><ele>534.8333333333334</ele><time>2026-04-06T09:45:56.423Z</time></trkpt><trkpt lat="45.5657685" lon="11.1460701"><ele>532.6666666666666</ele><time>2026-04-06T09:46:00.405Z</time></trkpt><trkpt lat="45.5658053" lon="11.1461604"><ele>530.5</ele><time>2026-04-06T09:46:05.402Z</time></trkpt><trkpt lat="45.5658914" lon="11.1462182"><ele>528.3333333333333</ele><time>2026-04-06T09:46:08.478Z</time></trkpt><trkpt lat="45.5659709" lon="11.1462667"><ele>526.1666666666666</ele><time>2026-04-06T09:46:11.398Z</time></trkpt><trkpt lat="45.5660457" lon="11.1463294"><ele>524.0</ele><time>2026-04-06T09:46:14.431Z</time></trkpt><trkpt lat="45.5661068" lon="11.1462898"><ele>524.0</ele><time>2026-04-06T09:46:17.376Z</time></trkpt><trkpt lat="45.5661571" lon="11.1462303"><ele>524.0</ele><time>2026-04-06T09:46:19.418Z</time></trkpt><trkpt lat="45.5662146" lon="11.1462758"><ele>524.0</ele><time>2026-04-06T09:46:22.365Z</time></trkpt><trkpt lat="45.566231" lon="11.1463774"><ele>524.0</ele><time>2026-04-06T09:46:25.417Z</time></trkpt><trkpt lat="45.5661907" lon="11.1464493"><ele>524.0</ele><time>2026-04-06T09:46:28.362Z</time></trkpt><trkpt lat="45.5661464" lon="11.1465254"><ele>524.0</ele><time>2026-04-06T09:46:31.38Z</time></trkpt><trkpt lat="45.5661911" lon="11.1466122"><ele>524.0</ele><time>2026-04-06T09:46:34.38Z</time></trkpt><trkpt lat="45.5662744" lon="11.1465716"><ele>519.8571428571429</ele><time>2026-04-06T09:46:39.438Z</time></trkpt><trkpt lat="45.5663404" lon="11.1465154"><ele>515.7142857142858</ele><time>2026-04-06T09:46:42.387Z</time></trkpt><trkpt lat="45.5664112" lon="11.1464744"><ele>511.57142857142856</ele><time>2026-04-06T09:46:45.432Z</time></trkpt><trkpt lat="45.5664869" lon="11.1464338"><ele>507.42857142857144</ele><time>2026-04-06T09:46:47.506Z</time></trkpt><trkpt lat="45.5665517" lon="11.1464099"><ele>503.2857142857143</ele><time>2026-04-06T09:46:49.422Z</time></trkpt><trkpt lat="45.5666084" lon="11.1463646"><ele>499.1428571428571</ele><time>2026-04-06T09:46:51.402Z</time></trkpt><trkpt lat="45.5666259" lon="11.1462733"><ele>494.99999999999994</ele><time>2026-04-06T09:46:53.388Z</time></trkpt><trkpt lat="45.5666165" lon="11.1460589"><ele>495.0</ele><time>2026-04-06T09:46:56.399Z</time></trkpt><trkpt lat="45.5666223" lon="11.1458959"><ele>495.0</ele><time>2026-04-06T09:46:58.375Z</time></trkpt><trkpt lat="45.5666337" lon="11.1457946"><ele>495.0</ele><time>2026-04-06T09:47:00.404Z</time></trkpt><trkpt lat="45.5667" lon="11.1457685"><ele>495.0</ele><time>2026-04-06T09:47:04.366Z</time></trkpt><trkpt lat="45.5667158" lon="11.145859"><ele>495.0</ele><time>2026-04-06T09:47:10.49Z</time></trkpt><trkpt lat="45.5667486" lon="11.1459573"><ele>495.0</ele><time>2026-04-06T09:47:15.486Z</time></trkpt><trkpt lat="45.5667797" lon="11.1460578"><ele>495.0</ele><time>2026-04-06T09:47:18.367Z</time></trkpt><trkpt lat="45.5668237" lon="11.1461368"><ele>495.0</ele><time>2026-04-06T09:47:20.379Z</time></trkpt><trkpt lat="45.5668795" lon="11.1462256"><ele>495.0</ele><time>2026-04-06T09:47:22.483Z</time></trkpt><trkpt lat="45.566945" lon="11.1463476"><ele>495.0</ele><time>2026-04-06T09:47:24.382Z</time></trkpt><trkpt lat="45.5670254" lon="11.1464536"><ele>495.0</ele><time>2026-04-06T09:47:26.447Z</time></trkpt><trkpt lat="45.5670963" lon="11.1465646"><ele>492.2</ele><time>2026-04-06T09:47:28.362Z</time></trkpt><trkpt lat="45.5671408" lon="11.1466896"><ele>489.4</ele><time>2026-04-06T09:47:30.439Z</time></trkpt><trkpt lat="45.5671718" lon="11.1468053"><ele>486.6</ele><time>2026-04-06T09:47:32.438Z</time></trkpt><trkpt lat="45.5671933" lon="11.1469573"><ele>483.8</ele><time>2026-04-06T09:47:34.381Z</time></trkpt><trkpt lat="45.5671819" lon="11.1470726"><ele>481.0</ele><time>2026-04-06T09:47:36.491Z</time></trkpt><trkpt lat="45.5671524" lon="11.1471777"><ele>481.00000000000006</ele><time>2026-04-06T09:47:38.369Z</time></trkpt><trkpt lat="45.5671357" lon="11.1473014"><ele>481.0</ele><time>2026-04-06T09:47:40.377Z</time></trkpt><trkpt lat="45.5671224" lon="11.1474257"><ele>481.0</ele><time>2026-04-06T09:47:42.488Z</time></trkpt><trkpt lat="45.5671128" lon="11.1475427"><ele>481.0</ele><time>2026-04-06T09:47:44.375Z</time></trkpt><trkpt lat="45.5671136" lon="11.1476487"><ele>481.00000000000006</ele><time>2026-04-06T09:47:46.465Z</time></trkpt><trkpt lat="45.5671394" lon="11.1477548"><ele>481.0</ele><time>2026-04-06T09:47:49.392Z</time></trkpt><trkpt lat="45.5671678" lon="11.1478486"><ele>480.6666666666667</ele><time>2026-04-06T09:47:52.374Z</time></trkpt><trkpt lat="45.5671899" lon="11.1479523"><ele>480.33333333333337</ele><time>2026-04-06T09:47:56.412Z</time></trkpt><trkpt lat="45.5672067" lon="11.148051"><ele>480.0</ele><time>2026-04-06T09:48:03.383Z</time></trkpt><trkpt lat="45.5672397" lon="11.148152"><ele>479.66666666666663</ele><time>2026-04-06T09:48:10.478Z</time></trkpt><trkpt lat="45.5672618" lon="11.1482408"><ele>479.3333333333333</ele><time>2026-04-06T09:48:13.399Z</time></trkpt><trkpt lat="45.5672891" lon="11.1483437"><ele>479.0</ele><time>2026-04-06T09:48:15.403Z</time></trkpt><trkpt lat="45.5673458" lon="11.1484572"><ele>478.85714285714283</ele><time>2026-04-06T09:48:17.41Z</time></trkpt><trkpt lat="45.567289" lon="11.1485087"><ele>478.7142857142858</ele><time>2026-04-06T09:48:19.413Z</time></trkpt><trkpt lat="45.5672195" lon="11.1485538"><ele>478.5714285714286</ele><time>2026-04-06T09:48:23.437Z</time></trkpt><trkpt lat="45.5671634" lon="11.1486132"><ele>478.42857142857144</ele><time>2026-04-06T09:48:26.492Z</time></trkpt><trkpt lat="45.5671232" lon="11.1486827"><ele>478.28571428571433</ele><time>2026-04-06T09:48:29.404Z</time></trkpt><trkpt lat="45.5670698" lon="11.1487366"><ele>478.1428571428572</ele><time>2026-04-06T09:48:32.448Z</time></trkpt><trkpt lat="45.5670022" lon="11.1487731"><ele>478.00000000000006</ele><time>2026-04-06T09:48:35.396Z</time></trkpt><trkpt lat="45.566927" lon="11.1488122"><ele>478.0</ele><time>2026-04-06T09:48:37.433Z</time></trkpt><trkpt lat="45.5668236" lon="11.1488359"><ele>477.99999999999994</ele><time>2026-04-06T09:48:39.439Z</time></trkpt><trkpt lat="45.5667184" lon="11.1488461"><ele>477.99999999999994</ele><time>2026-04-06T09:48:41.448Z</time></trkpt><trkpt lat="45.5666151" lon="11.1488669"><ele>478.0</ele><time>2026-04-06T09:48:43.4Z</time></trkpt><trkpt lat="45.5665166" lon="11.1488884"><ele>478.0</ele><time>2026-04-06T09:48:45.397Z</time></trkpt><trkpt lat="45.5664272" lon="11.1489132"><ele>478.0</ele><time>2026-04-06T09:48:47.403Z</time></trkpt><trkpt lat="45.5663515" lon="11.1489244"><ele>477.99999999999994</ele><time>2026-04-06T09:48:49.416Z</time></trkpt><trkpt lat="45.5662745" lon="11.1489403"><ele>477.99999999999994</ele><time>2026-04-06T09:48:51.373Z</time></trkpt><trkpt lat="45.5661733" lon="11.1489542"><ele>478.0</ele><time>2026-04-06T09:48:53.414Z</time></trkpt><trkpt lat="45.5660593" lon="11.1489649"><ele>478.0</ele><time>2026-04-06T09:48:55.403Z</time></trkpt><trkpt lat="45.5659483" lon="11.1489777"><ele>477.50000000000006</ele><time>2026-04-06T09:48:57.422Z</time></trkpt><trkpt lat="45.5658484" lon="11.1489981"><ele>477.0</ele><time>2026-04-06T09:48:59.461Z</time></trkpt><trkpt lat="45.5657539" lon="11.1490233"><ele>476.5</ele><time>2026-04-06T09:49:01.426Z</time></trkpt><trkpt lat="45.5656699" lon="11.1490555"><ele>476.0</ele><time>2026-04-06T09:49:03.437Z</time></trkpt><trkpt lat="45.5656005" lon="11.149071"><ele>475.50000000000006</ele><time>2026-04-06T09:49:05.369Z</time></trkpt><trkpt lat="45.5655212" lon="11.1490831"><ele>475.0</ele><time>2026-04-06T09:49:08.417Z</time></trkpt><trkpt lat="45.5654503" lon="11.1491494"><ele>474.33333333333337</ele><time>2026-04-06T09:49:11.383Z</time></trkpt><trkpt lat="45.5653872" lon="11.1491732"><ele>473.6666666666667</ele><time>2026-04-06T09:49:13.375Z</time></trkpt><trkpt lat="45.5653193" lon="11.1491925"><ele>473.0</ele><time>2026-04-06T09:49:15.389Z</time></trkpt><trkpt lat="45.5652432" lon="11.1492172"><ele>472.33333333333337</ele><time>2026-04-06T09:49:17.374Z</time></trkpt><trkpt lat="45.5651639" lon="11.1492437"><ele>471.6666666666667</ele><time>2026-04-06T09:49:19.387Z</time></trkpt><trkpt lat="45.5650244" lon="11.1492695"><ele>471.0</ele><time>2026-04-06T09:49:22.395Z</time></trkpt><trkpt lat="45.5649262" lon="11.1492953"><ele>471.0</ele><time>2026-04-06T09:49:25.423Z</time></trkpt><trkpt lat="45.5648394" lon="11.1493294"><ele>471.0</ele><time>2026-04-06T09:49:27.436Z</time></trkpt><trkpt lat="45.5647428" lon="11.149368"><ele>471.0</ele><time>2026-04-06T09:49:29.442Z</time></trkpt><trkpt lat="45.5646562" lon="11.1493957"><ele>471.0</ele><time>2026-04-06T09:49:31.418Z</time></trkpt><trkpt lat="45.5645742" lon="11.1494142"><ele>471.0</ele><time>2026-04-06T09:49:33.378Z</time></trkpt><trkpt lat="45.5644974" lon="11.1494484"><ele>471.0</ele><time>2026-04-06T09:49:35.434Z</time></trkpt><trkpt lat="45.5644279" lon="11.149495"><ele>470.8333333333333</ele><time>2026-04-06T09:49:37.379Z</time></trkpt><trkpt lat="45.5643388" lon="11.1495454"><ele>470.66666666666663</ele><time>2026-04-06T09:49:40.467Z</time></trkpt><trkpt lat="45.5642561" lon="11.149557"><ele>470.5</ele><time>2026-04-06T09:49:43.418Z</time></trkpt><trkpt lat="45.5642007" lon="11.1496"><ele>470.3333333333333</ele><time>2026-04-06T09:49:54.373Z</time></trkpt><trkpt lat="45.5642362" lon="11.1496787"><ele>470.16666666666663</ele><time>2026-04-06T09:50:06.394Z</time></trkpt><trkpt lat="45.5641574" lon="11.149697"><ele>470.0</ele><time>2026-04-06T09:50:11.372Z</time></trkpt><trkpt lat="45.5640528" lon="11.1497222"><ele>469.99999999999994</ele><time>2026-04-06T09:50:14.436Z</time></trkpt><trkpt lat="45.5639714" lon="11.1497452"><ele>470.0</ele><time>2026-04-06T09:50:16.375Z</time></trkpt><trkpt lat="45.5638822" lon="11.1497696"><ele>470.0</ele><time>2026-04-06T09:50:18.373Z</time></trkpt><trkpt lat="45.5638016" lon="11.1497936"><ele>470.0</ele><time>2026-04-06T09:50:20.373Z</time></trkpt><trkpt lat="45.5637233" lon="11.1498196"><ele>469.99999999999994</ele><time>2026-04-06T09:50:22.415Z</time></trkpt><trkpt lat="45.5636446" lon="11.1498383"><ele>470.0</ele><time>2026-04-06T09:50:24.43Z</time></trkpt><trkpt lat="45.563568" lon="11.1498669"><ele>469.49999999999994</ele><time>2026-04-06T09:50:26.382Z</time></trkpt><trkpt lat="45.5634917" lon="11.1498867"><ele>469.0</ele><time>2026-04-06T09:50:28.385Z</time></trkpt><trkpt lat="45.5633825" lon="11.1498891"><ele>468.5</ele><time>2026-04-06T09:50:31.411Z</time></trkpt><trkpt lat="45.5633096" lon="11.1498819"><ele>468.0</ele><time>2026-04-06T09:50:33.421Z</time></trkpt><trkpt lat="45.563223" lon="11.1498645"><ele>467.49999999999994</ele><time>2026-04-06T09:50:35.432Z</time></trkpt><trkpt lat="45.5631366" lon="11.1498415"><ele>467.0</ele><time>2026-04-06T09:50:37.379Z</time></trkpt><trkpt lat="45.5630364" lon="11.1498321"><ele>467.0</ele><time>2026-04-06T09:50:39.379Z</time></trkpt><trkpt lat="45.5629423" lon="11.1498636"><ele>467.00000000000006</ele><time>2026-04-06T09:50:41.429Z</time></trkpt><trkpt lat="45.5628723" lon="11.1499174"><ele>467.00000000000006</ele><time>2026-04-06T09:50:43.362Z</time></trkpt><trkpt lat="45.5627921" lon="11.1499889"><ele>467.0</ele><time>2026-04-06T09:50:45.408Z</time></trkpt><trkpt lat="45.5627175" lon="11.1500641"><ele>467.0</ele><time>2026-04-06T09:50:47.432Z</time></trkpt><trkpt lat="45.5626319" lon="11.1501389"><ele>465.99999999999994</ele><time>2026-04-06T09:50:49.427Z</time></trkpt><trkpt lat="45.5625332" lon="11.1501849"><ele>465.0</ele><time>2026-04-06T09:50:51.369Z</time></trkpt><trkpt lat="45.5624579" lon="11.1502112"><ele>464.0</ele><time>2026-04-06T09:50:53.371Z</time></trkpt><trkpt lat="45.5623935" lon="11.1502119"><ele>463.0</ele><time>2026-04-06T09:50:59.367Z</time></trkpt><trkpt lat="45.5624451" lon="11.1501324"><ele>461.99999999999994</ele><time>2026-04-06T09:52:31.372Z</time></trkpt><trkpt lat="45.5623828" lon="11.1501543"><ele>461.0</ele><time>2026-04-06T09:52:36.409Z</time></trkpt><trkpt lat="45.5623134" lon="11.1501795"><ele>460.99999999999994</ele><time>2026-04-06T09:52:38.431Z</time></trkpt><trkpt lat="45.5622329" lon="11.1501748"><ele>461.0</ele><time>2026-04-06T09:52:40.376Z</time></trkpt><trkpt lat="45.5621438" lon="11.1501736"><ele>461.0</ele><time>2026-04-06T09:52:42.399Z</time></trkpt><trkpt lat="45.5620693" lon="11.150167"><ele>461.0</ele><time>2026-04-06T09:52:44.408Z</time></trkpt><trkpt lat="45.5619956" lon="11.1501612"><ele>460.99999999999994</ele><time>2026-04-06T09:52:46.437Z</time></trkpt><trkpt lat="45.561922" lon="11.1501412"><ele>461.0</ele><time>2026-04-06T09:52:48.408Z</time></trkpt><trkpt lat="45.5618566" lon="11.1501355"><ele>461.14285714285717</ele><time>2026-04-06T09:52:50.404Z</time></trkpt><trkpt lat="45.561784" lon="11.1501351"><ele>461.28571428571433</ele><time>2026-04-06T09:52:52.43Z</time></trkpt><trkpt lat="45.5617173" lon="11.1501427"><ele>461.42857142857144</ele><time>2026-04-06T09:52:54.377Z</time></trkpt><trkpt lat="45.5616486" lon="11.15014"><ele>461.57142857142856</ele><time>2026-04-06T09:52:56.485Z</time></trkpt><trkpt lat="45.5615779" lon="11.1501519"><ele>461.7142857142857</ele><time>2026-04-06T09:52:59.241Z</time></trkpt><trkpt lat="45.5614956" lon="11.1501813"><ele>461.8571428571429</ele><time>2026-04-06T09:53:00.425Z</time></trkpt><trkpt lat="45.5614175" lon="11.1502099"><ele>462.0</ele><time>2026-04-06T09:53:02.407Z</time></trkpt><trkpt lat="45.5613371" lon="11.1502314"><ele>462.0</ele><time>2026-04-06T09:53:04.408Z</time></trkpt><trkpt lat="45.5612623" lon="11.1502565"><ele>462.0</ele><time>2026-04-06T09:53:06.408Z</time></trkpt><trkpt lat="45.5611867" lon="11.1502798"><ele>462.0</ele><time>2026-04-06T09:53:08.385Z</time></trkpt><trkpt lat="45.5611072" lon="11.1502966"><ele>462.0</ele><time>2026-04-06T09:53:10.399Z</time></trkpt><trkpt lat="45.5610292" lon="11.1503171"><ele>462.0</ele><time>2026-04-06T09:53:12.398Z</time></trkpt><trkpt lat="45.5609514" lon="11.1503367"><ele>462.0</ele><time>2026-04-06T09:53:14.41Z</time></trkpt><trkpt lat="45.5608632" lon="11.1503464"><ele>461.6</ele><time>2026-04-06T09:53:16.417Z</time></trkpt><trkpt lat="45.5607743" lon="11.1503388"><ele>461.20000000000005</ele><time>2026-04-06T09:53:18.433Z</time></trkpt><trkpt lat="45.5606849" lon="11.1503208"><ele>460.8</ele><time>2026-04-06T09:53:20.396Z</time></trkpt><trkpt lat="45.5605881" lon="11.1503108"><ele>460.4</ele><time>2026-04-06T09:53:22.395Z</time></trkpt><trkpt lat="45.5604892" lon="11.150291"><ele>460.0</ele><time>2026-04-06T09:53:24.377Z</time></trkpt><trkpt lat="45.5603886" lon="11.1502752"><ele>459.50000000000006</ele><time>2026-04-06T09:53:26.379Z</time></trkpt><trkpt lat="45.5602831" lon="11.1502488"><ele>459.0</ele><time>2026-04-06T09:53:28.418Z</time></trkpt><trkpt lat="45.5602" lon="11.1502039"><ele>458.5</ele><time>2026-04-06T09:53:30.413Z</time></trkpt><trkpt lat="45.5601186" lon="11.1501684"><ele>458.0</ele><time>2026-04-06T09:53:33.238Z</time></trkpt><trkpt lat="45.5600398" lon="11.1501329"><ele>457.50000000000006</ele><time>2026-04-06T09:53:34.402Z</time></trkpt><trkpt lat="45.5599689" lon="11.1501231"><ele>457.0</ele><time>2026-04-06T09:53:36.423Z</time></trkpt><trkpt lat="45.5598594" lon="11.150109"><ele>457.00000000000006</ele><time>2026-04-06T09:53:39.42Z</time></trkpt><trkpt lat="45.5597773" lon="11.1501286"><ele>457.0</ele><time>2026-04-06T09:53:41.395Z</time></trkpt><trkpt lat="45.5597126" lon="11.1501381"><ele>457.0</ele><time>2026-04-06T09:53:43.411Z</time></trkpt><trkpt lat="45.5596324" lon="11.1501719"><ele>457.0</ele><time>2026-04-06T09:53:45.404Z</time></trkpt><trkpt lat="45.5595458" lon="11.1502309"><ele>457.00000000000006</ele><time>2026-04-06T09:53:47.375Z</time></trkpt><trkpt lat="45.5594644" lon="11.1502784"><ele>457.0</ele><time>2026-04-06T09:53:49.403Z</time></trkpt><trkpt lat="45.5593501" lon="11.1503452"><ele>456.6666666666667</ele><time>2026-04-06T09:53:51.42Z</time></trkpt><trkpt lat="45.5592887" lon="11.1503824"><ele>456.33333333333337</ele><time>2026-04-06T09:53:52.433Z</time></trkpt><trkpt lat="45.5592211" lon="11.150432"><ele>456.0</ele><time>2026-04-06T09:53:53.434Z</time></trkpt><trkpt lat="45.5591592" lon="11.1504746"><ele>455.66666666666663</ele><time>2026-04-06T09:53:54.43Z</time></trkpt><trkpt lat="45.5590826" lon="11.1505209"><ele>455.3333333333333</ele><time>2026-04-06T09:53:55.43Z</time></trkpt><trkpt lat="45.5590028" lon="11.1505755"><ele>455.0</ele><time>2026-04-06T09:53:56.426Z</time></trkpt><trkpt lat="45.5589343" lon="11.1506123"><ele>454.99999999999994</ele><time>2026-04-06T09:53:57.4Z</time></trkpt><trkpt lat="45.558847" lon="11.1506509"><ele>455.0</ele><time>2026-04-06T09:53:58.451Z</time></trkpt><trkpt lat="45.558769" lon="11.1506719"><ele>455.0</ele><time>2026-04-06T09:53:59.416Z</time></trkpt><trkpt lat="45.5586911" lon="11.1506861"><ele>455.0</ele><time>2026-04-06T09:54:00.428Z</time></trkpt><trkpt lat="45.5586169" lon="11.1506994"><ele>454.99999999999994</ele><time>2026-04-06T09:54:01.499Z</time></trkpt><trkpt lat="45.5585176" lon="11.1507487"><ele>455.0</ele><time>2026-04-06T09:54:03.449Z</time></trkpt><trkpt lat="45.5585563" lon="11.1508468"><ele>453.8</ele><time>2026-04-06T09:54:06.422Z</time></trkpt><trkpt lat="45.5586146" lon="11.1509588"><ele>452.6</ele><time>2026-04-06T09:54:08.42Z</time></trkpt><trkpt lat="45.5586904" lon="11.1510776"><ele>451.4</ele><time>2026-04-06T09:54:10.406Z</time></trkpt><trkpt lat="45.5587421" lon="11.1512044"><ele>450.2</ele><time>2026-04-06T09:54:12.405Z</time></trkpt><trkpt lat="45.5587987" lon="11.1513314"><ele>449.0</ele><time>2026-04-06T09:54:14.399Z</time></trkpt><trkpt lat="45.5588411" lon="11.1514043"><ele>449.0</ele><time>2026-04-06T09:54:15.409Z</time></trkpt><trkpt lat="45.558914" lon="11.1515312"><ele>449.0</ele><time>2026-04-06T09:54:17.427Z</time></trkpt><trkpt lat="45.5589748" lon="11.1516464"><ele>449.0</ele><time>2026-04-06T09:54:19.413Z</time></trkpt><trkpt lat="45.5590461" lon="11.1517791"><ele>449.0</ele><time>2026-04-06T09:54:21.424Z</time></trkpt><trkpt lat="45.5591188" lon="11.1519126"><ele>448.2</ele><time>2026-04-06T09:54:23.408Z</time></trkpt><trkpt lat="45.5593099" lon="11.1520131"><ele>447.4</ele><time>2026-04-06T09:54:26.393Z</time></trkpt><trkpt lat="45.5593787" lon="11.1520367"><ele>446.6</ele><time>2026-04-06T09:54:27.405Z</time></trkpt><trkpt lat="45.5594426" lon="11.1520516"><ele>445.8</ele><time>2026-04-06T09:54:28.423Z</time></trkpt><trkpt lat="45.5595152" lon="11.1520476"><ele>445.0</ele><time>2026-04-06T09:54:29.4Z</time></trkpt><trkpt lat="45.5595901" lon="11.1520419"><ele>445.0</ele><time>2026-04-06T09:54:30.41Z</time></trkpt><trkpt lat="45.5596601" lon="11.1520402"><ele>445.0</ele><time>2026-04-06T09:54:31.434Z</time></trkpt><trkpt lat="45.5597516" lon="11.1520514"><ele>445.0</ele><time>2026-04-06T09:54:32.419Z</time></trkpt><trkpt lat="45.5598295" lon="11.152049"><ele>445.0</ele><time>2026-04-06T09:54:33.52Z</time></trkpt><trkpt lat="45.5599683" lon="11.1520534"><ele>445.0</ele><time>2026-04-06T09:54:35.372Z</time></trkpt><trkpt lat="45.5601121" lon="11.1520508"><ele>445.00000000000006</ele><time>2026-04-06T09:54:37.449Z</time></trkpt><trkpt lat="45.5601892" lon="11.1520388"><ele>445.0</ele><time>2026-04-06T09:54:38.425Z</time></trkpt><trkpt lat="45.5602667" lon="11.1520431"><ele>445.0</ele><time>2026-04-06T09:54:39.39Z</time></trkpt><trkpt lat="45.5603405" lon="11.1520478"><ele>445.0</ele><time>2026-04-06T09:54:40.375Z</time></trkpt><trkpt lat="45.5604624" lon="11.152064"><ele>445.00000000000006</ele><time>2026-04-06T09:54:42.423Z</time></trkpt><trkpt lat="45.5605296" lon="11.1520758"><ele>445.0</ele><time>2026-04-06T09:54:43.378Z</time></trkpt><trkpt lat="45.560594" lon="11.152079"><ele>445.4</ele><time>2026-04-06T09:54:44.381Z</time></trkpt><trkpt lat="45.5607219" lon="11.1520753"><ele>445.8</ele><time>2026-04-06T09:54:46.431Z</time></trkpt><trkpt lat="45.5607873" lon="11.1520782"><ele>446.20000000000005</ele><time>2026-04-06T09:54:47.477Z</time></trkpt><trkpt lat="45.560906" lon="11.1520969"><ele>446.6</ele><time>2026-04-06T09:54:49.415Z</time></trkpt><trkpt lat="45.5609779" lon="11.152095"><ele>447.0</ele><time>2026-04-06T09:54:50.398Z</time></trkpt><trkpt lat="45.5610937" lon="11.1520909"><ele>446.40000000000003</ele><time>2026-04-06T09:54:52.429Z</time></trkpt><trkpt lat="45.5612003" lon="11.1520826"><ele>445.80000000000007</ele><time>2026-04-06T09:54:54.409Z</time></trkpt><trkpt lat="45.5612977" lon="11.1520884"><ele>445.2</ele><time>2026-04-06T09:54:56.438Z</time></trkpt><trkpt lat="45.5613963" lon="11.152078"><ele>444.6</ele><time>2026-04-06T09:54:58.366Z</time></trkpt><trkpt lat="45.5614803" lon="11.1520711"><ele>444.0</ele><time>2026-04-06T09:55:00.403Z</time></trkpt><trkpt lat="45.5615663" lon="11.1520761"><ele>444.0</ele><time>2026-04-06T09:55:02.434Z</time></trkpt><trkpt lat="45.5616518" lon="11.1520779"><ele>444.0</ele><time>2026-04-06T09:55:04.372Z</time></trkpt><trkpt lat="45.5617234" lon="11.152103"><ele>444.0</ele><time>2026-04-06T09:55:06.366Z</time></trkpt><trkpt lat="45.5617961" lon="11.1521166"><ele>444.0</ele><time>2026-04-06T09:55:08.404Z</time></trkpt><trkpt lat="45.561859" lon="11.1521259"><ele>444.0</ele><time>2026-04-06T09:55:10.395Z</time></trkpt><trkpt lat="45.5619404" lon="11.1521477"><ele>444.0</ele><time>2026-04-06T09:55:12.409Z</time></trkpt><trkpt lat="45.5620307" lon="11.152174"><ele>444.3333333333333</ele><time>2026-04-06T09:55:14.393Z</time></trkpt><trkpt lat="45.5621243" lon="11.1521556"><ele>444.66666666666663</ele><time>2026-04-06T09:55:16.44Z</time></trkpt><trkpt lat="45.5622117" lon="11.1521713"><ele>445.0</ele><time>2026-04-06T09:55:18.371Z</time></trkpt><trkpt lat="45.562294" lon="11.1521751"><ele>445.3333333333333</ele><time>2026-04-06T09:55:20.421Z</time></trkpt><trkpt lat="45.562385" lon="11.152167"><ele>445.66666666666663</ele><time>2026-04-06T09:55:22.39Z</time></trkpt><trkpt lat="45.5624622" lon="11.1521715"><ele>446.0</ele><time>2026-04-06T09:55:24.464Z</time></trkpt><trkpt lat="45.5625364" lon="11.1521813"><ele>445.99999999999994</ele><time>2026-04-06T09:55:26.374Z</time></trkpt><trkpt lat="45.5626153" lon="11.1521924"><ele>446.0</ele><time>2026-04-06T09:55:28.483Z</time></trkpt><trkpt lat="45.5626975" lon="11.1521966"><ele>446.0</ele><time>2026-04-06T09:55:30.406Z</time></trkpt><trkpt lat="45.5627867" lon="11.1522024"><ele>446.0</ele><time>2026-04-06T09:55:32.416Z</time></trkpt><trkpt lat="45.5628639" lon="11.1522005"><ele>445.99999999999994</ele><time>2026-04-06T09:55:34.48Z</time></trkpt><trkpt lat="45.5629451" lon="11.1521947"><ele>446.0</ele><time>2026-04-06T09:55:36.378Z</time></trkpt><trkpt lat="45.5630389" lon="11.1521851"><ele>446.8</ele><time>2026-04-06T09:55:38.415Z</time></trkpt><trkpt lat="45.5631212" lon="11.1521858"><ele>447.6</ele><time>2026-04-06T09:55:40.414Z</time></trkpt><trkpt lat="45.5632233" lon="11.1521839"><ele>448.4</ele><time>2026-04-06T09:55:42.424Z</time></trkpt><trkpt lat="45.5633103" lon="11.1521938"><ele>449.2</ele><time>2026-04-06T09:55:44.367Z</time></trkpt><trkpt lat="45.5634041" lon="11.1522035"><ele>450.0</ele><time>2026-04-06T09:55:46.458Z</time></trkpt><trkpt lat="45.5635051" lon="11.1521974"><ele>450.0</ele><time>2026-04-06T09:55:48.423Z</time></trkpt><trkpt lat="45.5636357" lon="11.1521983"><ele>450.0</ele><time>2026-04-06T09:55:50.423Z</time></trkpt><trkpt lat="45.5637409" lon="11.1521982"><ele>450.0</ele><time>2026-04-06T09:55:52.376Z</time></trkpt><trkpt lat="45.5638963" lon="11.1522171"><ele>450.0</ele><time>2026-04-06T09:55:55.415Z</time></trkpt><trkpt lat="45.5639869" lon="11.1522203"><ele>449.4</ele><time>2026-04-06T09:55:57.379Z</time></trkpt><trkpt lat="45.5640782" lon="11.152231"><ele>448.8</ele><time>2026-04-06T09:55:59.413Z</time></trkpt><trkpt lat="45.564189" lon="11.1522281"><ele>448.20000000000005</ele><time>2026-04-06T09:56:01.411Z</time></trkpt><trkpt lat="45.5642772" lon="11.1522146"><ele>447.6</ele><time>2026-04-06T09:56:03.405Z</time></trkpt><trkpt lat="45.5643805" lon="11.1522324"><ele>447.0</ele><time>2026-04-06T09:56:05.408Z</time></trkpt><trkpt lat="45.5644905" lon="11.1522221"><ele>447.40000000000003</ele><time>2026-04-06T09:56:07.413Z</time></trkpt><trkpt lat="45.5645836" lon="11.1522268"><ele>447.80000000000007</ele><time>2026-04-06T09:56:09.379Z</time></trkpt><trkpt lat="45.5646782" lon="11.1522367"><ele>448.2</ele><time>2026-04-06T09:56:11.427Z</time></trkpt><trkpt lat="45.5647731" lon="11.1522376"><ele>448.6</ele><time>2026-04-06T09:56:13.365Z</time></trkpt><trkpt lat="45.5648639" lon="11.1522342"><ele>449.0</ele><time>2026-04-06T09:56:15.397Z</time></trkpt><trkpt lat="45.5649523" lon="11.1522325"><ele>448.99999999999994</ele><time>2026-04-06T09:56:17.417Z</time></trkpt><trkpt lat="45.5650197" lon="11.1522285"><ele>449.0</ele><time>2026-04-06T09:56:18.472Z</time></trkpt><trkpt lat="45.5651168" lon="11.1522381"><ele>449.0</ele><time>2026-04-06T09:56:20.379Z</time></trkpt><trkpt lat="45.5652161" lon="11.1522405"><ele>449.0</ele><time>2026-04-06T09:56:22.533Z</time></trkpt><trkpt lat="45.5652913" lon="11.1522535"><ele>448.99999999999994</ele><time>2026-04-06T09:56:24.38Z</time></trkpt><trkpt lat="45.5653864" lon="11.1522344"><ele>449.0</ele><time>2026-04-06T09:56:26.374Z</time></trkpt><trkpt lat="45.5654834" lon="11.1522418"><ele>448.79999999999995</ele><time>2026-04-06T09:56:28.383Z</time></trkpt><trkpt lat="45.565585" lon="11.1522542"><ele>448.59999999999997</ele><time>2026-04-06T09:56:30.369Z</time></trkpt><trkpt lat="45.565682" lon="11.1522657"><ele>448.4</ele><time>2026-04-06T09:56:32.378Z</time></trkpt><trkpt lat="45.5657654" lon="11.152278"><ele>448.2</ele><time>2026-04-06T09:56:34.38Z</time></trkpt><trkpt lat="45.5658551" lon="11.1523002"><ele>448.0</ele><time>2026-04-06T09:56:36.362Z</time></trkpt><trkpt lat="45.5659251" lon="11.1523748"><ele>448.0</ele><time>2026-04-06T09:56:38.41Z</time></trkpt><trkpt lat="45.5659589" lon="11.1524999"><ele>447.99999999999994</ele><time>2026-04-06T09:56:40.38Z</time></trkpt><trkpt lat="45.5659706" lon="11.1526356"><ele>447.99999999999994</ele><time>2026-04-06T09:56:42.407Z</time></trkpt><trkpt lat="45.56598" lon="11.1527667"><ele>448.0</ele><time>2026-04-06T09:56:44.378Z</time></trkpt><trkpt lat="45.5660027" lon="11.1529127"><ele>448.0</ele><time>2026-04-06T09:56:47.233Z</time></trkpt><trkpt lat="45.5660093" lon="11.1530395"><ele>448.00000000000006</ele><time>2026-04-06T09:56:48.414Z</time></trkpt><trkpt lat="45.5660258" lon="11.1531286"><ele>448.0</ele><time>2026-04-06T09:56:53.95Z</time></trkpt><trkpt lat="45.5660395" lon="11.1533039"><ele>448.0</ele><time>2026-04-06T09:56:55.365Z</time></trkpt><trkpt lat="45.5660409" lon="11.1533946"><ele>448.0</ele><time>2026-04-06T09:56:58.395Z</time></trkpt><trkpt lat="45.5660344" lon="11.1534858"><ele>448.00000000000006</ele><time>2026-04-06T09:57:07.364Z</time></trkpt><trkpt lat="45.5660415" lon="11.1535805"><ele>448.0</ele><time>2026-04-06T09:57:26.457Z</time></trkpt><trkpt lat="45.566062" lon="11.1537142"><ele>448.2</ele><time>2026-04-06T09:57:29.371Z</time></trkpt><trkpt lat="45.5660635" lon="11.1538503"><ele>448.4</ele><time>2026-04-06T09:57:31.398Z</time></trkpt><trkpt lat="45.5660516" lon="11.1539617"><ele>448.59999999999997</ele><time>2026-04-06T09:57:33.408Z</time></trkpt><trkpt lat="45.5660064" lon="11.1540752"><ele>448.79999999999995</ele><time>2026-04-06T09:57:35.374Z</time></trkpt><trkpt lat="45.5659577" lon="11.154214"><ele>449.0</ele><time>2026-04-06T09:57:38.375Z</time></trkpt><trkpt lat="45.5659186" lon="11.1543332"><ele>448.99999999999994</ele><time>2026-04-06T09:57:40.442Z</time></trkpt><trkpt lat="45.56587" lon="11.1544319"><ele>449.0</ele><time>2026-04-06T09:57:42.447Z</time></trkpt><trkpt lat="45.5657865" lon="11.1545083"><ele>449.0</ele><time>2026-04-06T09:57:44.373Z</time></trkpt><trkpt lat="45.5657632" lon="11.1545932"><ele>449.0</ele><time>2026-04-06T09:57:46.383Z</time></trkpt><trkpt lat="45.5657334" lon="11.1546875"><ele>448.99999999999994</ele><time>2026-04-06T09:57:48.443Z</time></trkpt><trkpt lat="45.5656732" lon="11.1547866"><ele>449.0</ele><time>2026-04-06T09:57:51.447Z</time></trkpt><trkpt lat="45.5656286" lon="11.1548632"><ele>449.16666666666663</ele><time>2026-04-06T09:57:53.366Z</time></trkpt><trkpt lat="45.5655606" lon="11.1549498"><ele>449.3333333333333</ele><time>2026-04-06T09:57:56.443Z</time></trkpt><trkpt lat="45.5654841" lon="11.1550287"><ele>449.5</ele><time>2026-04-06T09:57:59.445Z</time></trkpt><trkpt lat="45.5654297" lon="11.1550767"><ele>449.66666666666663</ele><time>2026-04-06T09:58:01.437Z</time></trkpt><trkpt lat="45.5653525" lon="11.1551489"><ele>449.8333333333333</ele><time>2026-04-06T09:58:04.408Z</time></trkpt><trkpt lat="45.5652777" lon="11.1552287"><ele>450.0</ele><time>2026-04-06T09:58:07.377Z</time></trkpt><trkpt lat="45.5652062" lon="11.1553068"><ele>450.00000000000006</ele><time>2026-04-06T09:58:10.406Z</time></trkpt><trkpt lat="45.5651605" lon="11.1553778"><ele>450.0</ele><time>2026-04-06T09:58:12.401Z</time></trkpt><trkpt lat="45.5651027" lon="11.1554498"><ele>450.00000000000006</ele><time>2026-04-06T09:58:15.47Z</time></trkpt><trkpt lat="45.5650491" lon="11.1555058"><ele>450.00000000000006</ele><time>2026-04-06T09:58:18.419Z</time></trkpt><trkpt lat="45.5649935" lon="11.1555652"><ele>450.0</ele><time>2026-04-06T09:58:21.413Z</time></trkpt><trkpt lat="45.5649412" lon="11.155627"><ele>450.00000000000006</ele><time>2026-04-06T09:58:24.376Z</time></trkpt><trkpt lat="45.5648814" lon="11.1556749"><ele>450.00000000000006</ele><time>2026-04-06T09:58:27.476Z</time></trkpt><trkpt lat="45.5648161" lon="11.155723"><ele>451.1666666666667</ele><time>2026-04-06T09:58:30.381Z</time></trkpt><trkpt lat="45.5647412" lon="11.1557885"><ele>452.33333333333337</ele><time>2026-04-06T09:58:34.373Z</time></trkpt><trkpt lat="45.5646835" lon="11.1558483"><ele>453.5</ele><time>2026-04-06T09:58:37.381Z</time></trkpt><trkpt lat="45.5646223" lon="11.1559002"><ele>454.6666666666667</ele><time>2026-04-06T09:58:40.387Z</time></trkpt><trkpt lat="45.564559" lon="11.1559547"><ele>455.83333333333337</ele><time>2026-04-06T09:58:43.396Z</time></trkpt><trkpt lat="45.5644943" lon="11.1560127"><ele>457.0</ele><time>2026-04-06T09:58:46.373Z</time></trkpt><trkpt lat="45.564436" lon="11.1560786"><ele>457.00000000000006</ele><time>2026-04-06T09:58:49.422Z</time></trkpt><trkpt lat="45.5643815" lon="11.1561574"><ele>457.0</ele><time>2026-04-06T09:58:53.404Z</time></trkpt><trkpt lat="45.5643163" lon="11.1561839"><ele>457.00000000000006</ele><time>2026-04-06T09:58:56.439Z</time></trkpt><trkpt lat="45.5642441" lon="11.1562285"><ele>457.00000000000006</ele><time>2026-04-06T09:59:00.413Z</time></trkpt><trkpt lat="45.5641703" lon="11.15627"><ele>457.0</ele><time>2026-04-06T09:59:04.424Z</time></trkpt><trkpt lat="45.5641015" lon="11.1562793"><ele>457.00000000000006</ele><time>2026-04-06T09:59:07.409Z</time></trkpt><trkpt lat="45.5640329" lon="11.1562809"><ele>457.00000000000006</ele><time>2026-04-06T09:59:10.425Z</time></trkpt><trkpt lat="45.5639565" lon="11.1562986"><ele>457.00000000000006</ele><time>2026-04-06T09:59:14.426Z</time></trkpt><trkpt lat="45.5639023" lon="11.1563513"><ele>457.0</ele><time>2026-04-06T09:59:17.395Z</time></trkpt><trkpt lat="45.5638838" lon="11.1564397"><ele>457.00000000000006</ele><time>2026-04-06T09:59:21.484Z</time></trkpt><trkpt lat="45.563859" lon="11.1565258"><ele>457.00000000000006</ele><time>2026-04-06T09:59:27.369Z</time></trkpt><trkpt lat="45.5638017" lon="11.1565813"><ele>457.0</ele><time>2026-04-06T09:59:31.419Z</time></trkpt><trkpt lat="45.5637609" lon="11.1566498"><ele>457.00000000000006</ele><time>2026-04-06T09:59:38.368Z</time></trkpt><trkpt lat="45.5638218" lon="11.1566945"><ele>457.00000000000006</ele><time>2026-04-06T09:59:49.365Z</time></trkpt><trkpt lat="45.5638157" lon="11.1567904"><ele>457.00000000000006</ele><time>2026-04-06T10:00:00.376Z</time></trkpt><trkpt lat="45.5637852" lon="11.1567025"><ele>457.0</ele><time>2026-04-06T10:00:10.363Z</time></trkpt><trkpt lat="45.5637357" lon="11.1566448"><ele>457.0</ele><time>2026-04-06T10:00:15.38Z</time></trkpt><trkpt lat="45.5637407" lon="11.1564155"><ele>457.0</ele><time>2026-04-06T10:04:46.587Z</time></trkpt><trkpt lat="45.5637436" lon="11.1565214"><ele>457.00000000000006</ele><time>2026-04-06T10:13:12.368Z</time></trkpt><trkpt lat="45.5638035" lon="11.1565626"><ele>457.0</ele><time>2026-04-06T10:28:58.399Z</time></trkpt><trkpt lat="45.5638284" lon="11.1566463"><ele>458.8571428571429</ele><time>2026-04-06T10:29:04.375Z</time></trkpt><trkpt lat="45.56387" lon="11.1567471"><ele>460.7142857142857</ele><time>2026-04-06T10:29:08.443Z</time></trkpt><trkpt lat="45.5638737" lon="11.1568391"><ele>462.57142857142856</ele><time>2026-04-06T10:29:11.399Z</time></trkpt><trkpt lat="45.5638758" lon="11.1569473"><ele>464.42857142857144</ele><time>2026-04-06T10:29:16.418Z</time></trkpt><trkpt lat="45.5638606" lon="11.1570646"><ele>466.2857142857142</ele><time>2026-04-06T10:29:21.408Z</time></trkpt><trkpt lat="45.5637974" lon="11.1571208"><ele>468.1428571428571</ele><time>2026-04-06T10:29:26.375Z</time></trkpt><trkpt lat="45.5637793" lon="11.1572092"><ele>470.0</ele><time>2026-04-06T10:30:43.491Z</time></trkpt><trkpt lat="45.5637645" lon="11.1572981"><ele>470.0</ele><time>2026-04-06T10:30:48.424Z</time></trkpt><trkpt lat="45.5636991" lon="11.1573357"><ele>470.0</ele><time>2026-04-06T10:30:53.407Z</time></trkpt><trkpt lat="45.5637634" lon="11.1573886"><ele>470.0</ele><time>2026-04-06T10:47:18.462Z</time></trkpt><trkpt lat="45.5637126" lon="11.1573348"><ele>470.0</ele><time>2026-04-06T10:47:55.379Z</time></trkpt><trkpt lat="45.5639503" lon="11.1573263"><ele>470.0</ele><time>2026-04-06T10:56:56.373Z</time></trkpt><trkpt lat="45.5637927" lon="11.1572948"><ele>469.99999999999994</ele><time>2026-04-06T10:57:00.378Z</time></trkpt><trkpt lat="45.5637038" lon="11.1572879"><ele>470.0</ele><time>2026-04-06T10:57:08.396Z</time></trkpt><trkpt lat="45.5637713" lon="11.1573448"><ele>470.0</ele><time>2026-04-06T10:58:30.385Z</time></trkpt><trkpt lat="45.563834" lon="11.1572774"><ele>470.0</ele><time>2026-04-06T10:58:35.431Z</time></trkpt><trkpt lat="45.5638711" lon="11.1571395"><ele>469.99999999999994</ele><time>2026-04-06T10:58:39.488Z</time></trkpt><trkpt lat="45.5639008" lon="11.1570445"><ele>470.0</ele><time>2026-04-06T10:58:42.41Z</time></trkpt><trkpt lat="45.5639093" lon="11.1569462"><ele>470.0</ele><time>2026-04-06T10:58:45.507Z</time></trkpt><trkpt lat="45.5639138" lon="11.1568482"><ele>469.99999999999994</ele><time>2026-04-06T10:58:48.435Z</time></trkpt><trkpt lat="45.5639327" lon="11.1567473"><ele>470.0</ele><time>2026-04-06T10:58:52.385Z</time></trkpt><trkpt lat="45.5638986" lon="11.1566447"><ele>470.0</ele><time>2026-04-06T10:58:58.367Z</time></trkpt><trkpt lat="45.5638496" lon="11.1565773"><ele>469.99999999999994</ele><time>2026-04-06T10:59:01.446Z</time></trkpt><trkpt lat="45.5639091" lon="11.1566114"><ele>470.0</ele><time>2026-04-06T11:02:48.39Z</time></trkpt><trkpt lat="45.5639699" lon="11.1566641"><ele>470.0</ele><time>2026-04-06T11:03:13.431Z</time></trkpt><trkpt lat="45.5639905" lon="11.1567668"><ele>469.99999999999994</ele><time>2026-04-06T11:03:19.441Z</time></trkpt><trkpt lat="45.5639652" lon="11.1568869"><ele>470.0</ele><time>2026-04-06T11:03:22.433Z</time></trkpt><trkpt lat="45.563957" lon="11.1569951"><ele>470.0</ele><time>2026-04-06T11:03:24.43Z</time></trkpt><trkpt lat="45.5639759" lon="11.1571043"><ele>470.0</ele><time>2026-04-06T11:03:26.44Z</time></trkpt><trkpt lat="45.56397" lon="11.1572091"><ele>469.99999999999994</ele><time>2026-04-06T11:03:28.439Z</time></trkpt><trkpt lat="45.5639757" lon="11.1573033"><ele>470.0</ele><time>2026-04-06T11:03:30.43Z</time></trkpt><trkpt lat="45.5639968" lon="11.1573956"><ele>471.8333333333333</ele><time>2026-04-06T11:03:32.432Z</time></trkpt><trkpt lat="45.5640197" lon="11.1574865"><ele>473.66666666666663</ele><time>2026-04-06T11:03:34.479Z</time></trkpt><trkpt lat="45.5640366" lon="11.1575848"><ele>475.5</ele><time>2026-04-06T11:03:36.438Z</time></trkpt><trkpt lat="45.5640486" lon="11.1577293"><ele>477.33333333333337</ele><time>2026-04-06T11:03:39.446Z</time></trkpt><trkpt lat="45.5640322" lon="11.1578391"><ele>479.1666666666667</ele><time>2026-04-06T11:03:42.382Z</time></trkpt><trkpt lat="45.5640346" lon="11.1579359"><ele>481.0</ele><time>2026-04-06T11:03:45.41Z</time></trkpt><trkpt lat="45.5640551" lon="11.1580375"><ele>481.00000000000006</ele><time>2026-04-06T11:03:48.386Z</time></trkpt><trkpt lat="45.5640993" lon="11.1581018"><ele>481.0</ele><time>2026-04-06T11:03:51.395Z</time></trkpt><trkpt lat="45.5641665" lon="11.1580414"><ele>481.0</ele><time>2026-04-06T11:03:55.41Z</time></trkpt><trkpt lat="45.5641806" lon="11.1579349"><ele>481.0</ele><time>2026-04-06T11:03:59.396Z</time></trkpt><trkpt lat="45.5641697" lon="11.1578222"><ele>481.00000000000006</ele><time>2026-04-06T11:04:04.397Z</time></trkpt><trkpt lat="45.5641669" lon="11.1577073"><ele>481.0</ele><time>2026-04-06T11:04:09.433Z</time></trkpt><trkpt lat="45.5641639" lon="11.1575922"><ele>480.99999999999994</ele><time>2026-04-06T11:04:13.424Z</time></trkpt><trkpt lat="45.564184" lon="11.1574942"><ele>481.0</ele><time>2026-04-06T11:04:17.424Z</time></trkpt><trkpt lat="45.5642412" lon="11.1574396"><ele>480.99999999999994</ele><time>2026-04-06T11:04:21.502Z</time></trkpt><trkpt lat="45.564235" lon="11.1575535"><ele>480.99999999999994</ele><time>2026-04-06T11:04:27.395Z</time></trkpt><trkpt lat="45.564221" lon="11.1576475"><ele>481.0</ele><time>2026-04-06T11:04:31.387Z</time></trkpt><trkpt lat="45.5642057" lon="11.1577501"><ele>480.99999999999994</ele><time>2026-04-06T11:04:35.437Z</time></trkpt><trkpt lat="45.5642097" lon="11.1578571"><ele>480.99999999999994</ele><time>2026-04-06T11:04:39.489Z</time></trkpt><trkpt lat="45.564206" lon="11.1579559"><ele>480.99999999999994</ele><time>2026-04-06T11:04:44.481Z</time></trkpt><trkpt lat="45.5642104" lon="11.1580519"><ele>481.0</ele><time>2026-04-06T11:04:48.413Z</time></trkpt><trkpt lat="45.5641916" lon="11.1581586"><ele>480.99999999999994</ele><time>2026-04-06T11:04:52.404Z</time></trkpt><trkpt lat="45.5642141" lon="11.1582483"><ele>480.99999999999994</ele><time>2026-04-06T11:04:56.477Z</time></trkpt><trkpt lat="45.5642016" lon="11.1583441"><ele>481.0</ele><time>2026-04-06T11:05:00.383Z</time></trkpt><trkpt lat="45.5641891" lon="11.1584501"><ele>480.99999999999994</ele><time>2026-04-06T11:05:05.411Z</time></trkpt><trkpt lat="45.5641741" lon="11.1585497"><ele>480.99999999999994</ele><time>2026-04-06T11:05:10.417Z</time></trkpt><trkpt lat="45.5641411" lon="11.158653"><ele>482.2857142857142</ele><time>2026-04-06T11:05:17.419Z</time></trkpt><trkpt lat="45.5641228" lon="11.1587627"><ele>483.57142857142856</ele><time>2026-04-06T11:05:21.433Z</time></trkpt><trkpt lat="45.5641284" lon="11.1588568"><ele>484.85714285714283</ele><time>2026-04-06T11:05:25.435Z</time></trkpt><trkpt lat="45.5641289" lon="11.1589526"><ele>486.1428571428571</ele><time>2026-04-06T11:05:30.383Z</time></trkpt><trkpt lat="45.5641281" lon="11.1590588"><ele>487.42857142857144</ele><time>2026-04-06T11:05:35.432Z</time></trkpt><trkpt lat="45.5641274" lon="11.1591641"><ele>488.7142857142857</ele><time>2026-04-06T11:05:39.436Z</time></trkpt><trkpt lat="45.5641633" lon="11.1592471"><ele>490.0</ele><time>2026-04-06T11:05:44.427Z</time></trkpt><trkpt lat="45.5642231" lon="11.159281"><ele>490.00000000000006</ele><time>2026-04-06T11:05:47.437Z</time></trkpt><trkpt lat="45.5642829" lon="11.1592471"><ele>490.0</ele><time>2026-04-06T11:05:50.448Z</time></trkpt><trkpt lat="45.5642952" lon="11.1591012"><ele>490.0</ele><time>2026-04-06T11:05:56.433Z</time></trkpt><trkpt lat="45.5642794" lon="11.1589966"><ele>490.0</ele><time>2026-04-06T11:06:00.409Z</time></trkpt><trkpt lat="45.5642652" lon="11.1589018"><ele>490.00000000000006</ele><time>2026-04-06T11:06:04.403Z</time></trkpt><trkpt lat="45.5642672" lon="11.1587841"><ele>490.0</ele><time>2026-04-06T11:06:09.436Z</time></trkpt><trkpt lat="45.5642509" lon="11.1586802"><ele>490.0</ele><time>2026-04-06T11:06:14.392Z</time></trkpt><trkpt lat="45.564264" lon="11.1585751"><ele>490.0</ele><time>2026-04-06T11:06:19.401Z</time></trkpt><trkpt lat="45.5643016" lon="11.1584898"><ele>490.0</ele><time>2026-04-06T11:06:23.427Z</time></trkpt><trkpt lat="45.5643407" lon="11.1583938"><ele>490.0</ele><time>2026-04-06T11:06:28.424Z</time></trkpt><trkpt lat="45.5643818" lon="11.1583177"><ele>490.0</ele><time>2026-04-06T11:06:32.382Z</time></trkpt><trkpt lat="45.5644274" lon="11.1582442"><ele>490.0</ele><time>2026-04-06T11:06:36.372Z</time></trkpt><trkpt lat="45.5644788" lon="11.1581838"><ele>490.0</ele><time>2026-04-06T11:06:41.451Z</time></trkpt><trkpt lat="45.5644669" lon="11.1580937"><ele>488.7142857142857</ele><time>2026-04-06T11:06:45.421Z</time></trkpt><trkpt lat="45.5644771" lon="11.1579803"><ele>487.42857142857144</ele><time>2026-04-06T11:06:50.37Z</time></trkpt><trkpt lat="45.5644798" lon="11.1578847"><ele>486.1428571428571</ele><time>2026-04-06T11:06:54.433Z</time></trkpt><trkpt lat="45.5644858" lon="11.1577879"><ele>484.85714285714283</ele><time>2026-04-06T11:06:58.486Z</time></trkpt><trkpt lat="45.5645218" lon="11.1577083"><ele>483.57142857142856</ele><time>2026-04-06T11:07:02.411Z</time></trkpt><trkpt lat="45.5645895" lon="11.1577487"><ele>482.2857142857142</ele><time>2026-04-06T11:07:10.369Z</time></trkpt><trkpt lat="45.5645435" lon="11.1578256"><ele>480.99999999999994</ele><time>2026-04-06T11:07:16.375Z</time></trkpt><trkpt lat="45.5645395" lon="11.1579272"><ele>480.99999999999994</ele><time>2026-04-06T11:07:20.447Z</time></trkpt><trkpt lat="45.5645674" lon="11.1580144"><ele>481.0</ele><time>2026-04-06T11:07:25.377Z</time></trkpt><trkpt lat="45.5645268" lon="11.1581001"><ele>480.99999999999994</ele><time>2026-04-06T11:07:29.431Z</time></trkpt><trkpt lat="45.5644924" lon="11.1581929"><ele>480.99999999999994</ele><time>2026-04-06T11:07:35.375Z</time></trkpt><trkpt lat="45.5644779" lon="11.1582982"><ele>481.0</ele><time>2026-04-06T11:07:40.373Z</time></trkpt><trkpt lat="45.5644677" lon="11.1583971"><ele>480.99999999999994</ele><time>2026-04-06T11:07:45.473Z</time></trkpt><trkpt lat="45.5644937" lon="11.1584977"><ele>480.99999999999994</ele><time>2026-04-06T11:07:49.375Z</time></trkpt><trkpt lat="45.5645075" lon="11.1586319"><ele>482.2857142857142</ele><time>2026-04-06T11:07:55.377Z</time></trkpt><trkpt lat="45.5644771" lon="11.1587273"><ele>483.57142857142856</ele><time>2026-04-06T11:08:01.418Z</time></trkpt><trkpt lat="45.564476" lon="11.15882"><ele>484.85714285714283</ele><time>2026-04-06T11:08:04.398Z</time></trkpt><trkpt lat="45.564488" lon="11.1589125"><ele>486.1428571428571</ele><time>2026-04-06T11:08:09.431Z</time></trkpt><trkpt lat="45.5644912" lon="11.15901"><ele>487.42857142857144</ele><time>2026-04-06T11:08:13.402Z</time></trkpt><trkpt lat="45.5645149" lon="11.159097"><ele>488.7142857142857</ele><time>2026-04-06T11:08:17.427Z</time></trkpt><trkpt lat="45.5645339" lon="11.159184"><ele>490.0</ele><time>2026-04-06T11:08:21.429Z</time></trkpt><trkpt lat="45.5645404" lon="11.1592789"><ele>491.33333333333337</ele><time>2026-04-06T11:08:25.376Z</time></trkpt><trkpt lat="45.5645311" lon="11.1593885"><ele>492.6666666666667</ele><time>2026-04-06T11:08:29.436Z</time></trkpt><trkpt lat="45.5645278" lon="11.1594809"><ele>494.0</ele><time>2026-04-06T11:08:33.432Z</time></trkpt><trkpt lat="45.5645269" lon="11.1595862"><ele>495.33333333333337</ele><time>2026-04-06T11:08:38.428Z</time></trkpt><trkpt lat="45.5645045" lon="11.1597025"><ele>496.6666666666667</ele><time>2026-04-06T11:08:43.371Z</time></trkpt><trkpt lat="45.5644831" lon="11.15981"><ele>498.0</ele><time>2026-04-06T11:08:47.414Z</time></trkpt><trkpt lat="45.564452" lon="11.1599052"><ele>499.1428571428571</ele><time>2026-04-06T11:08:52.523Z</time></trkpt><trkpt lat="45.5644105" lon="11.1599843"><ele>500.2857142857142</ele><time>2026-04-06T11:08:57.417Z</time></trkpt><trkpt lat="45.5643789" lon="11.1600845"><ele>501.42857142857144</ele><time>2026-04-06T11:09:02.373Z</time></trkpt><trkpt lat="45.5643437" lon="11.1601871"><ele>502.57142857142856</ele><time>2026-04-06T11:09:07.383Z</time></trkpt><trkpt lat="45.5643212" lon="11.1602904"><ele>503.7142857142857</ele><time>2026-04-06T11:09:12.409Z</time></trkpt><trkpt lat="45.5642883" lon="11.1603828"><ele>504.8571428571429</ele><time>2026-04-06T11:09:17.382Z</time></trkpt><trkpt lat="45.5642649" lon="11.1604703"><ele>506.00000000000006</ele><time>2026-04-06T11:09:21.413Z</time></trkpt><trkpt lat="45.5642151" lon="11.1605334"><ele>505.99999999999994</ele><time>2026-04-06T11:09:25.433Z</time></trkpt><trkpt lat="45.5642061" lon="11.1606458"><ele>506.0</ele><time>2026-04-06T11:09:30.376Z</time></trkpt><trkpt lat="45.5642064" lon="11.160757"><ele>506.0</ele><time>2026-04-06T11:09:35.421Z</time></trkpt><trkpt lat="45.5642197" lon="11.1608517"><ele>506.0</ele><time>2026-04-06T11:09:38.442Z</time></trkpt><trkpt lat="45.5642111" lon="11.1609995"><ele>505.99999999999994</ele><time>2026-04-06T11:09:43.415Z</time></trkpt><trkpt lat="45.5641969" lon="11.1611064"><ele>506.0</ele><time>2026-04-06T11:09:47.426Z</time></trkpt><trkpt lat="45.5641968" lon="11.1612037"><ele>507.49999999999994</ele><time>2026-04-06T11:09:52.436Z</time></trkpt><trkpt lat="45.5642058" lon="11.1612989"><ele>509.0</ele><time>2026-04-06T11:09:55.386Z</time></trkpt><trkpt lat="45.5642302" lon="11.1613829"><ele>510.5</ele><time>2026-04-06T11:10:00.422Z</time></trkpt><trkpt lat="45.5641925" lon="11.1615376"><ele>512.0</ele><time>2026-04-06T11:10:06.388Z</time></trkpt><trkpt lat="45.5642216" lon="11.1616347"><ele>513.5</ele><time>2026-04-06T11:10:12.5Z</time></trkpt><trkpt lat="45.5642045" lon="11.161766"><ele>515.0</ele><time>2026-04-06T11:10:16.44Z</time></trkpt><trkpt lat="45.5641906" lon="11.161874"><ele>515.6666666666666</ele><time>2026-04-06T11:10:19.442Z</time></trkpt><trkpt lat="45.5641817" lon="11.1619839"><ele>516.3333333333333</ele><time>2026-04-06T11:10:23.432Z</time></trkpt><trkpt lat="45.5642137" lon="11.1621141"><ele>517.0</ele><time>2026-04-06T11:10:28.451Z</time></trkpt><trkpt lat="45.564228" lon="11.1622056"><ele>517.6666666666666</ele><time>2026-04-06T11:10:32.447Z</time></trkpt><trkpt lat="45.5642489" lon="11.1623104"><ele>518.3333333333334</ele><time>2026-04-06T11:10:36.471Z</time></trkpt><trkpt lat="45.5642816" lon="11.1624082"><ele>519.0</ele><time>2026-04-06T11:10:40.466Z</time></trkpt><trkpt lat="45.5642961" lon="11.1625051"><ele>519.3333333333334</ele><time>2026-04-06T11:10:44.384Z</time></trkpt><trkpt lat="45.564294" lon="11.1626455"><ele>519.6666666666666</ele><time>2026-04-06T11:11:36.437Z</time></trkpt><trkpt lat="45.5643066" lon="11.1627449"><ele>520.0</ele><time>2026-04-06T11:11:40.443Z</time></trkpt><trkpt lat="45.5643034" lon="11.1628416"><ele>520.3333333333333</ele><time>2026-04-06T11:11:44.496Z</time></trkpt><trkpt lat="45.5643108" lon="11.1629455"><ele>520.6666666666666</ele><time>2026-04-06T11:11:48.48Z</time></trkpt><trkpt lat="45.5643209" lon="11.1630395"><ele>521.0</ele><time>2026-04-06T11:11:52.492Z</time></trkpt><trkpt lat="45.5643243" lon="11.1631507"><ele>521.1428571428571</ele><time>2026-04-06T11:11:56.406Z</time></trkpt><trkpt lat="45.564338" lon="11.1632495"><ele>521.2857142857143</ele><time>2026-04-06T11:12:01.508Z</time></trkpt><trkpt lat="45.5643568" lon="11.163365"><ele>521.4285714285714</ele><time>2026-04-06T11:12:08.452Z</time></trkpt><trkpt lat="45.564385" lon="11.1634526"><ele>521.5714285714286</ele><time>2026-04-06T11:12:13.373Z</time></trkpt><trkpt lat="45.5643982" lon="11.1635424"><ele>521.7142857142857</ele><time>2026-04-06T11:12:18.375Z</time></trkpt><trkpt lat="45.5643988" lon="11.1636478"><ele>521.8571428571429</ele><time>2026-04-06T11:12:24.422Z</time></trkpt><trkpt lat="45.5644053" lon="11.1637387"><ele>522.0</ele><time>2026-04-06T11:12:28.457Z</time></trkpt><trkpt lat="45.5644191" lon="11.163844"><ele>522.0</ele><time>2026-04-06T11:12:32.378Z</time></trkpt><trkpt lat="45.5644316" lon="11.1639374"><ele>522.0</ele><time>2026-04-06T11:12:35.379Z</time></trkpt><trkpt lat="45.5644297" lon="11.1640306"><ele>522.0</ele><time>2026-04-06T11:12:38.38Z</time></trkpt><trkpt lat="45.5644287" lon="11.1641438"><ele>522.0</ele><time>2026-04-06T11:12:42.379Z</time></trkpt><trkpt lat="45.5644495" lon="11.1642402"><ele>522.0</ele><time>2026-04-06T11:12:47.477Z</time></trkpt><trkpt lat="45.5644675" lon="11.1643467"><ele>522.0</ele><time>2026-04-06T11:12:54.417Z</time></trkpt><trkpt lat="45.564474" lon="11.1644592"><ele>522.0</ele><time>2026-04-06T11:12:58.441Z</time></trkpt><trkpt lat="45.5644707" lon="11.1645534"><ele>522.2857142857143</ele><time>2026-04-06T11:13:02.42Z</time></trkpt><trkpt lat="45.5644798" lon="11.1646542"><ele>522.5714285714286</ele><time>2026-04-06T11:13:07.424Z</time></trkpt><trkpt lat="45.5644865" lon="11.1647507"><ele>522.8571428571429</ele><time>2026-04-06T11:13:11.414Z</time></trkpt><trkpt lat="45.5644799" lon="11.1648517"><ele>523.1428571428571</ele><time>2026-04-06T11:13:15.48Z</time></trkpt><trkpt lat="45.5644762" lon="11.1649581"><ele>523.4285714285714</ele><time>2026-04-06T11:13:22.41Z</time></trkpt><trkpt lat="45.5644685" lon="11.1650581"><ele>523.7142857142858</ele><time>2026-04-06T11:13:27.388Z</time></trkpt><trkpt lat="45.564471" lon="11.1651502"><ele>524.0</ele><time>2026-04-06T11:13:30.51Z</time></trkpt><trkpt lat="45.5644837" lon="11.1652416"><ele>524.4285714285714</ele><time>2026-04-06T11:13:34.454Z</time></trkpt><trkpt lat="45.564468" lon="11.1653288"><ele>524.8571428571429</ele><time>2026-04-06T11:13:38.437Z</time></trkpt><trkpt lat="45.5644509" lon="11.1654352"><ele>525.2857142857143</ele><time>2026-04-06T11:13:43.463Z</time></trkpt><trkpt lat="45.5644345" lon="11.165547"><ele>525.7142857142858</ele><time>2026-04-06T11:13:48.404Z</time></trkpt><trkpt lat="45.5644267" lon="11.1656445"><ele>526.1428571428571</ele><time>2026-04-06T11:13:52.421Z</time></trkpt><trkpt lat="45.5644229" lon="11.1657383"><ele>526.5714285714287</ele><time>2026-04-06T11:13:56.382Z</time></trkpt><trkpt lat="45.5644294" lon="11.1658393"><ele>527.0</ele><time>2026-04-06T11:14:00.406Z</time></trkpt><trkpt lat="45.564425" lon="11.1659508"><ele>528.7142857142858</ele><time>2026-04-06T11:14:05.48Z</time></trkpt><trkpt lat="45.5643986" lon="11.1660357"><ele>530.4285714285714</ele><time>2026-04-06T11:14:09.446Z</time></trkpt><trkpt lat="45.5643767" lon="11.1661341"><ele>532.1428571428571</ele><time>2026-04-06T11:14:14.409Z</time></trkpt><trkpt lat="45.564342" lon="11.1662243"><ele>533.8571428571429</ele><time>2026-04-06T11:14:20.411Z</time></trkpt><trkpt lat="45.5643153" lon="11.1663215"><ele>535.5714285714286</ele><time>2026-04-06T11:14:24.401Z</time></trkpt><trkpt lat="45.5642983" lon="11.1664133"><ele>537.2857142857143</ele><time>2026-04-06T11:14:28.415Z</time></trkpt><trkpt lat="45.5642573" lon="11.1664965"><ele>539.0</ele><time>2026-04-06T11:14:33.377Z</time></trkpt><trkpt lat="45.5642258" lon="11.1665935"><ele>540.7142857142857</ele><time>2026-04-06T11:14:38.382Z</time></trkpt><trkpt lat="45.5641924" lon="11.1666859"><ele>542.4285714285714</ele><time>2026-04-06T11:14:43.439Z</time></trkpt><trkpt lat="45.5641572" lon="11.1667856"><ele>544.1428571428571</ele><time>2026-04-06T11:14:47.5Z</time></trkpt><trkpt lat="45.5641241" lon="11.1668773"><ele>545.8571428571429</ele><time>2026-04-06T11:14:51.409Z</time></trkpt><trkpt lat="45.5640969" lon="11.1669636"><ele>547.5714285714286</ele><time>2026-04-06T11:14:56.459Z</time></trkpt><trkpt lat="45.5640456" lon="11.1670418"><ele>549.2857142857142</ele><time>2026-04-06T11:15:01.397Z</time></trkpt><trkpt lat="45.5640016" lon="11.1671353"><ele>551.0</ele><time>2026-04-06T11:15:06.421Z</time></trkpt><trkpt lat="45.5639804" lon="11.1672206"><ele>550.9999999999999</ele><time>2026-04-06T11:15:10.416Z</time></trkpt><trkpt lat="45.5639408" lon="11.167298"><ele>551.0</ele><time>2026-04-06T11:15:14.487Z</time></trkpt><trkpt lat="45.5638912" lon="11.1673626"><ele>551.0</ele><time>2026-04-06T11:15:19.451Z</time></trkpt><trkpt lat="45.5638845" lon="11.1674553"><ele>551.0</ele><time>2026-04-06T11:15:24.421Z</time></trkpt><trkpt lat="45.5638748" lon="11.1675687"><ele>551.0</ele><time>2026-04-06T11:15:29.416Z</time></trkpt><trkpt lat="45.5638584" lon="11.1676632"><ele>550.9999999999999</ele><time>2026-04-06T11:15:32.429Z</time></trkpt><trkpt lat="45.5638384" lon="11.1677538"><ele>551.0</ele><time>2026-04-06T11:15:35.372Z</time></trkpt><trkpt lat="45.5638297" lon="11.1678453"><ele>553.5714285714286</ele><time>2026-04-06T11:15:38.385Z</time></trkpt><trkpt lat="45.5638189" lon="11.1679402"><ele>556.1428571428571</ele><time>2026-04-06T11:15:42.372Z</time></trkpt><trkpt lat="45.563796" lon="11.1680309"><ele>558.7142857142858</ele><time>2026-04-06T11:15:46.376Z</time></trkpt><trkpt lat="45.5637651" lon="11.168127"><ele>561.2857142857142</ele><time>2026-04-06T11:15:50.432Z</time></trkpt><trkpt lat="45.5637457" lon="11.1682421"><ele>563.8571428571429</ele><time>2026-04-06T11:15:55.432Z</time></trkpt><trkpt lat="45.5637312" lon="11.1683509"><ele>566.4285714285714</ele><time>2026-04-06T11:16:00.424Z</time></trkpt><trkpt lat="45.5637043" lon="11.1684332"><ele>569.0</ele><time>2026-04-06T11:16:04.418Z</time></trkpt><trkpt lat="45.5637045" lon="11.1685388"><ele>567.5714285714287</ele><time>2026-04-06T11:16:07.409Z</time></trkpt><trkpt lat="45.5637247" lon="11.1686498"><ele>566.1428571428571</ele><time>2026-04-06T11:16:11.416Z</time></trkpt><trkpt lat="45.563727" lon="11.1687561"><ele>564.7142857142858</ele><time>2026-04-06T11:16:16.424Z</time></trkpt><trkpt lat="45.5637256" lon="11.1688585"><ele>563.2857142857143</ele><time>2026-04-06T11:16:20.419Z</time></trkpt><trkpt lat="45.5637018" lon="11.1689564"><ele>561.8571428571429</ele><time>2026-04-06T11:16:25.427Z</time></trkpt><trkpt lat="45.5636686" lon="11.169048"><ele>560.4285714285714</ele><time>2026-04-06T11:16:30.434Z</time></trkpt><trkpt lat="45.5636364" lon="11.1691388"><ele>559.0</ele><time>2026-04-06T11:16:34.444Z</time></trkpt><trkpt lat="45.5636024" lon="11.1692162"><ele>559.0</ele><time>2026-04-06T11:16:38.43Z</time></trkpt><trkpt lat="45.5635801" lon="11.1693253"><ele>559.0</ele><time>2026-04-06T11:16:44.436Z</time></trkpt><trkpt lat="45.563593" lon="11.1694143"><ele>559.0</ele><time>2026-04-06T11:16:48.439Z</time></trkpt><trkpt lat="45.5635802" lon="11.1695034"><ele>559.0</ele><time>2026-04-06T11:16:53.377Z</time></trkpt><trkpt lat="45.5635741" lon="11.1696155"><ele>559.0</ele><time>2026-04-06T11:16:57.434Z</time></trkpt><trkpt lat="45.5635704" lon="11.1697056"><ele>559.0</ele><time>2026-04-06T11:17:01.444Z</time></trkpt><trkpt lat="45.5635654" lon="11.1698037"><ele>559.0</ele><time>2026-04-06T11:17:05.381Z</time></trkpt><trkpt lat="45.5635571" lon="11.1699079"><ele>559.7142857142858</ele><time>2026-04-06T11:17:09.436Z</time></trkpt><trkpt lat="45.5635488" lon="11.1700143"><ele>560.4285714285714</ele><time>2026-04-06T11:17:13.439Z</time></trkpt><trkpt lat="45.5635538" lon="11.170116"><ele>561.1428571428571</ele><time>2026-04-06T11:17:17.444Z</time></trkpt><trkpt lat="45.5635447" lon="11.1702101"><ele>561.8571428571429</ele><time>2026-04-06T11:17:21.445Z</time></trkpt><trkpt lat="45.5635493" lon="11.1703039"><ele>562.5714285714286</ele><time>2026-04-06T11:17:25.437Z</time></trkpt><trkpt lat="45.5635523" lon="11.1704184"><ele>563.2857142857143</ele><time>2026-04-06T11:17:29.47Z</time></trkpt><trkpt lat="45.5635721" lon="11.1705195"><ele>564.0</ele><time>2026-04-06T11:17:33.469Z</time></trkpt><trkpt lat="45.5635901" lon="11.1706288"><ele>564.5714285714286</ele><time>2026-04-06T11:17:38.417Z</time></trkpt><trkpt lat="45.5636098" lon="11.1707293"><ele>565.1428571428571</ele><time>2026-04-06T11:17:43.42Z</time></trkpt><trkpt lat="45.5636356" lon="11.1708173"><ele>565.7142857142857</ele><time>2026-04-06T11:17:47.415Z</time></trkpt><trkpt lat="45.5636527" lon="11.1709111"><ele>566.2857142857142</ele><time>2026-04-06T11:17:51.429Z</time></trkpt><trkpt lat="45.5636678" lon="11.1709987"><ele>566.8571428571428</ele><time>2026-04-06T11:17:55.429Z</time></trkpt><trkpt lat="45.5636813" lon="11.1711014"><ele>567.4285714285714</ele><time>2026-04-06T11:18:00.432Z</time></trkpt><trkpt lat="45.5637036" lon="11.1712037"><ele>568.0</ele><time>2026-04-06T11:18:05.485Z</time></trkpt><trkpt lat="45.5637031" lon="11.1713095"><ele>572.7142857142857</ele><time>2026-04-06T11:18:09.379Z</time></trkpt><trkpt lat="45.5637081" lon="11.1714123"><ele>577.4285714285713</ele><time>2026-04-06T11:18:13.411Z</time></trkpt><trkpt lat="45.5637253" lon="11.1715121"><ele>582.1428571428571</ele><time>2026-04-06T11:18:17.42Z</time></trkpt><trkpt lat="45.5637287" lon="11.1716075"><ele>586.8571428571429</ele><time>2026-04-06T11:18:21.431Z</time></trkpt><trkpt lat="45.5637566" lon="11.1717144"><ele>591.5714285714287</ele><time>2026-04-06T11:18:25.433Z</time></trkpt><trkpt lat="45.5637842" lon="11.1718174"><ele>596.2857142857142</ele><time>2026-04-06T11:18:29.386Z</time></trkpt><trkpt lat="45.5638219" lon="11.171895"><ele>601.0</ele><time>2026-04-06T11:18:34.389Z</time></trkpt><trkpt lat="45.5638659" lon="11.1719898"><ele>601.0</ele><time>2026-04-06T11:18:38.425Z</time></trkpt><trkpt lat="45.5639147" lon="11.1720994"><ele>601.0</ele><time>2026-04-06T11:18:42.427Z</time></trkpt><trkpt lat="45.5639553" lon="11.1721938"><ele>601.0</ele><time>2026-04-06T11:18:46.422Z</time></trkpt><trkpt lat="45.5639678" lon="11.1722978"><ele>601.0</ele><time>2026-04-06T11:18:51.447Z</time></trkpt><trkpt lat="45.5639394" lon="11.1723854"><ele>601.0</ele><time>2026-04-06T11:18:55.4Z</time></trkpt><trkpt lat="45.5638694" lon="11.1724034"><ele>601.0</ele><time>2026-04-06T11:18:59.419Z</time></trkpt><trkpt lat="45.5637924" lon="11.172413"><ele>602.5</ele><time>2026-04-06T11:19:04.385Z</time></trkpt><trkpt lat="45.563723" lon="11.1724118"><ele>604.0</ele><time>2026-04-06T11:19:07.388Z</time></trkpt><trkpt lat="45.5636405" lon="11.1724289"><ele>605.5</ele><time>2026-04-06T11:19:11.426Z</time></trkpt><trkpt lat="45.5635697" lon="11.17245"><ele>607.0</ele><time>2026-04-06T11:19:14.429Z</time></trkpt><trkpt lat="45.5634719" lon="11.1724774"><ele>608.5</ele><time>2026-04-06T11:19:18.432Z</time></trkpt><trkpt lat="45.5633981" lon="11.1724877"><ele>610.0</ele><time>2026-04-06T11:19:21.408Z</time></trkpt><trkpt lat="45.5633128" lon="11.1724986"><ele>606.6666666666667</ele><time>2026-04-06T11:19:24.463Z</time></trkpt><trkpt lat="45.5632301" lon="11.1725062"><ele>603.3333333333334</ele><time>2026-04-06T11:19:27.424Z</time></trkpt><trkpt lat="45.563151" lon="11.1725444"><ele>600.0</ele><time>2026-04-06T11:19:30.423Z</time></trkpt><trkpt lat="45.5630664" lon="11.172581"><ele>596.6666666666666</ele><time>2026-04-06T11:19:33.424Z</time></trkpt><trkpt lat="45.5629864" lon="11.1726185"><ele>593.3333333333333</ele><time>2026-04-06T11:19:36.436Z</time></trkpt><trkpt lat="45.5629118" lon="11.1726888"><ele>590.0</ele><time>2026-04-06T11:19:39.449Z</time></trkpt><trkpt lat="45.5628599" lon="11.1727866"><ele>587.3333333333333</ele><time>2026-04-06T11:19:42.379Z</time></trkpt><trkpt lat="45.562811" lon="11.1728543"><ele>584.6666666666666</ele><time>2026-04-06T11:19:44.433Z</time></trkpt><trkpt lat="45.562765" lon="11.1729506"><ele>582.0</ele><time>2026-04-06T11:19:47.413Z</time></trkpt><trkpt lat="45.5626972" lon="11.1730115"><ele>579.3333333333334</ele><time>2026-04-06T11:19:50.423Z</time></trkpt><trkpt lat="45.562636" lon="11.1730357"><ele>576.6666666666667</ele><time>2026-04-06T11:19:52.381Z</time></trkpt><trkpt lat="45.5625571" lon="11.1730582"><ele>574.0</ele><time>2026-04-06T11:19:55.381Z</time></trkpt><trkpt lat="45.5624728" lon="11.1730606"><ele>574.0</ele><time>2026-04-06T11:19:58.363Z</time></trkpt><trkpt lat="45.5623907" lon="11.1730662"><ele>574.0</ele><time>2026-04-06T11:20:01.431Z</time></trkpt><trkpt lat="45.5623068" lon="11.1730844"><ele>574.0</ele><time>2026-04-06T11:20:04.387Z</time></trkpt><trkpt lat="45.5622324" lon="11.1731271"><ele>574.0</ele><time>2026-04-06T11:20:07.398Z</time></trkpt><trkpt lat="45.5621697" lon="11.1731765"><ele>574.0</ele><time>2026-04-06T11:20:10.406Z</time></trkpt><trkpt lat="45.5621101" lon="11.1732153"><ele>574.0</ele><time>2026-04-06T11:20:13.477Z</time></trkpt><trkpt lat="45.5620477" lon="11.1732764"><ele>576.2857142857143</ele><time>2026-04-06T11:20:17.379Z</time></trkpt><trkpt lat="45.56199" lon="11.1733536"><ele>578.5714285714286</ele><time>2026-04-06T11:20:21.434Z</time></trkpt><trkpt lat="45.5619432" lon="11.1734267"><ele>580.8571428571429</ele><time>2026-04-06T11:20:25.426Z</time></trkpt><trkpt lat="45.5618807" lon="11.1735013"><ele>583.1428571428571</ele><time>2026-04-06T11:20:28.431Z</time></trkpt><trkpt lat="45.5618263" lon="11.1735699"><ele>585.4285714285714</ele><time>2026-04-06T11:20:31.375Z</time></trkpt><trkpt lat="45.5617855" lon="11.1736486"><ele>587.7142857142858</ele><time>2026-04-06T11:20:34.379Z</time></trkpt><trkpt lat="45.5617552" lon="11.1737478"><ele>590.0</ele><time>2026-04-06T11:20:37.42Z</time></trkpt><trkpt lat="45.5617429" lon="11.1738481"><ele>590.0</ele><time>2026-04-06T11:20:40.432Z</time></trkpt><trkpt lat="45.5617251" lon="11.17395"><ele>590.0</ele><time>2026-04-06T11:20:43.425Z</time></trkpt><trkpt lat="45.5617044" lon="11.174063"><ele>590.0</ele><time>2026-04-06T11:20:46.423Z</time></trkpt><trkpt lat="45.5616981" lon="11.1741658"><ele>590.0</ele><time>2026-04-06T11:20:49.445Z</time></trkpt><trkpt lat="45.561727" lon="11.1742844"><ele>590.0</ele><time>2026-04-06T11:20:52.41Z</time></trkpt><trkpt lat="45.5617536" lon="11.1744032"><ele>590.0</ele><time>2026-04-06T11:20:55.433Z</time></trkpt><trkpt lat="45.5617805" lon="11.1745084"><ele>592.5</ele><time>2026-04-06T11:20:58.377Z</time></trkpt><trkpt lat="45.5617945" lon="11.1746148"><ele>595.0</ele><time>2026-04-06T11:21:01.445Z</time></trkpt><trkpt lat="45.5618108" lon="11.1747231"><ele>597.5</ele><time>2026-04-06T11:21:05.432Z</time></trkpt><trkpt lat="45.5618444" lon="11.1748377"><ele>600.0</ele><time>2026-04-06T11:21:09.431Z</time></trkpt><trkpt lat="45.5618575" lon="11.1749295"><ele>602.5</ele><time>2026-04-06T11:21:13.427Z</time></trkpt><trkpt lat="45.5618797" lon="11.1750254"><ele>605.0</ele><time>2026-04-06T11:21:17.385Z</time></trkpt><trkpt lat="45.5619044" lon="11.175126"><ele>607.4285714285714</ele><time>2026-04-06T11:21:21.439Z</time></trkpt><trkpt lat="45.561925" lon="11.1752372"><ele>609.8571428571429</ele><time>2026-04-06T11:21:25.414Z</time></trkpt><trkpt lat="45.5619081" lon="11.17533"><ele>612.2857142857142</ele><time>2026-04-06T11:21:28.412Z</time></trkpt><trkpt lat="45.5618671" lon="11.1754198"><ele>614.7142857142858</ele><time>2026-04-06T11:21:33.409Z</time></trkpt><trkpt lat="45.5617969" lon="11.1754527"><ele>617.1428571428572</ele><time>2026-04-06T11:21:38.41Z</time></trkpt><trkpt lat="45.5617302" lon="11.1754676"><ele>619.5714285714286</ele><time>2026-04-06T11:21:44.412Z</time></trkpt><trkpt lat="45.5616672" lon="11.1754482"><ele>622.0</ele><time>2026-04-06T11:21:50.37Z</time></trkpt><trkpt lat="45.5615973" lon="11.1754146"><ele>622.0</ele><time>2026-04-06T11:22:02.415Z</time></trkpt><trkpt lat="45.561552" lon="11.1753475"><ele>622.0</ele><time>2026-04-06T11:22:06.388Z</time></trkpt><trkpt lat="45.5615238" lon="11.1752608"><ele>622.0</ele><time>2026-04-06T11:22:10.376Z</time></trkpt><trkpt lat="45.561473" lon="11.1751975"><ele>622.0</ele><time>2026-04-06T11:22:15.387Z</time></trkpt><trkpt lat="45.561425" lon="11.1750913"><ele>622.0</ele><time>2026-04-06T11:22:18.38Z</time></trkpt><trkpt lat="45.5613828" lon="11.1750236"><ele>622.0</ele><time>2026-04-06T11:22:21.429Z</time></trkpt><trkpt lat="45.5613116" lon="11.1749592"><ele>622.0</ele><time>2026-04-06T11:22:25.434Z</time></trkpt><trkpt lat="45.5612418" lon="11.1749375"><ele>621.4285714285714</ele><time>2026-04-06T11:22:28.443Z</time></trkpt><trkpt lat="45.5611715" lon="11.1749386"><ele>620.8571428571429</ele><time>2026-04-06T11:22:32.448Z</time></trkpt><trkpt lat="45.5611283" lon="11.1750067"><ele>620.2857142857143</ele><time>2026-04-06T11:22:37.437Z</time></trkpt><trkpt lat="45.5610829" lon="11.1750757"><ele>619.7142857142858</ele><time>2026-04-06T11:22:41.428Z</time></trkpt><trkpt lat="45.5610243" lon="11.1751308"><ele>619.1428571428571</ele><time>2026-04-06T11:22:45.428Z</time></trkpt><trkpt lat="45.560985" lon="11.1752036"><ele>618.5714285714287</ele><time>2026-04-06T11:22:51.493Z</time></trkpt><trkpt lat="45.5609581" lon="11.1753009"><ele>618.0</ele><time>2026-04-06T11:22:55.402Z</time></trkpt><trkpt lat="45.5609136" lon="11.1753884"><ele>618.0000000000001</ele><time>2026-04-06T11:23:00.384Z</time></trkpt><trkpt lat="45.5608813" lon="11.1754711"><ele>618.0</ele><time>2026-04-06T11:23:05.399Z</time></trkpt><trkpt lat="45.5608493" lon="11.1755635"><ele>618.0</ele><time>2026-04-06T11:23:10.403Z</time></trkpt><trkpt lat="45.5608199" lon="11.1756732"><ele>618.0</ele><time>2026-04-06T11:23:16.406Z</time></trkpt><trkpt lat="45.560775" lon="11.175745"><ele>618.0</ele><time>2026-04-06T11:23:21.375Z</time></trkpt><trkpt lat="45.5607595" lon="11.1758452"><ele>618.0000000000001</ele><time>2026-04-06T11:23:26.416Z</time></trkpt><trkpt lat="45.560752" lon="11.1759358"><ele>618.0</ele><time>2026-04-06T11:23:30.386Z</time></trkpt><trkpt lat="45.5607416" lon="11.1760251"><ele>620.5714285714287</ele><time>2026-04-06T11:23:34.41Z</time></trkpt><trkpt lat="45.5607428" lon="11.1761403"><ele>623.1428571428571</ele><time>2026-04-06T11:23:38.419Z</time></trkpt><trkpt lat="45.560741" lon="11.1762376"><ele>625.7142857142858</ele><time>2026-04-06T11:23:42.438Z</time></trkpt><trkpt lat="45.5607404" lon="11.1763518"><ele>628.2857142857143</ele><time>2026-04-06T11:23:47.375Z</time></trkpt><trkpt lat="45.560686" lon="11.1764127"><ele>630.8571428571429</ele><time>2026-04-06T11:23:52.39Z</time></trkpt><trkpt lat="45.5606768" lon="11.1765032"><ele>633.4285714285714</ele><time>2026-04-06T11:23:56.376Z</time></trkpt><trkpt lat="45.5606697" lon="11.1766074"><ele>636.0</ele><time>2026-04-06T11:24:00.418Z</time></trkpt><trkpt lat="45.5606475" lon="11.176736"><ele>637.4285714285714</ele><time>2026-04-06T11:24:06.415Z</time></trkpt><trkpt lat="45.5606547" lon="11.1768438"><ele>638.8571428571429</ele><time>2026-04-06T11:24:11.38Z</time></trkpt><trkpt lat="45.5606604" lon="11.1769465"><ele>640.2857142857143</ele><time>2026-04-06T11:24:14.418Z</time></trkpt><trkpt lat="45.5606383" lon="11.1770442"><ele>641.7142857142858</ele><time>2026-04-06T11:24:18.381Z</time></trkpt><trkpt lat="45.56062" lon="11.1771367"><ele>643.1428571428571</ele><time>2026-04-06T11:24:22.425Z</time></trkpt><trkpt lat="45.5605812" lon="11.1772298"><ele>644.5714285714287</ele><time>2026-04-06T11:24:27.377Z</time></trkpt><trkpt lat="45.5605717" lon="11.1773313"><ele>646.0</ele><time>2026-04-06T11:24:32.424Z</time></trkpt><trkpt lat="45.5605639" lon="11.1774233"><ele>646.5714285714287</ele><time>2026-04-06T11:24:36.378Z</time></trkpt><trkpt lat="45.5605736" lon="11.1775132"><ele>647.1428571428571</ele><time>2026-04-06T11:24:39.451Z</time></trkpt><trkpt lat="45.5605552" lon="11.1776227"><ele>647.7142857142858</ele><time>2026-04-06T11:24:44.427Z</time></trkpt><trkpt lat="45.5604985" lon="11.1776675"><ele>648.2857142857143</ele><time>2026-04-06T11:24:48.377Z</time></trkpt><trkpt lat="45.560424" lon="11.1776876"><ele>648.8571428571429</ele><time>2026-04-06T11:24:53.434Z</time></trkpt><trkpt lat="45.5603524" lon="11.1777132"><ele>649.4285714285714</ele><time>2026-04-06T11:24:58.391Z</time></trkpt><trkpt lat="45.5602904" lon="11.1777445"><ele>650.0</ele><time>2026-04-06T11:25:03.391Z</time></trkpt><trkpt lat="45.5602174" lon="11.1777777"><ele>650.0</ele><time>2026-04-06T11:25:08.418Z</time></trkpt><trkpt lat="45.5601517" lon="11.1778138"><ele>650.0</ele><time>2026-04-06T11:25:11.418Z</time></trkpt><trkpt lat="45.5600869" lon="11.1778526"><ele>650.0</ele><time>2026-04-06T11:25:14.417Z</time></trkpt><trkpt lat="45.5600225" lon="11.1778999"><ele>650.0</ele><time>2026-04-06T11:25:19.426Z</time></trkpt><trkpt lat="45.5599786" lon="11.1779814"><ele>650.0</ele><time>2026-04-06T11:25:24.435Z</time></trkpt><trkpt lat="45.5599215" lon="11.1780214"><ele>650.0</ele><time>2026-04-06T11:25:29.379Z</time></trkpt><trkpt lat="45.559872" lon="11.1780821"><ele>650.0</ele><time>2026-04-06T11:25:33.409Z</time></trkpt><trkpt lat="45.5598442" lon="11.1781711"><ele>649.8</ele><time>2026-04-06T11:25:38.377Z</time></trkpt><trkpt lat="45.5598234" lon="11.1782628"><ele>649.6</ele><time>2026-04-06T11:25:44.382Z</time></trkpt><trkpt lat="45.5598457" lon="11.1783587"><ele>649.4000000000001</ele><time>2026-04-06T11:25:49.458Z</time></trkpt><trkpt lat="45.5599016" lon="11.1784038"><ele>649.2</ele><time>2026-04-06T11:25:53.429Z</time></trkpt><trkpt lat="45.5599744" lon="11.1783798"><ele>649.0</ele><time>2026-04-06T11:25:58.424Z</time></trkpt><trkpt lat="45.5601727" lon="11.1783636"><ele>648.9999999999999</ele><time>2026-04-06T11:26:13.378Z</time></trkpt><trkpt lat="45.5602382" lon="11.1783385"><ele>649.0</ele><time>2026-04-06T11:26:17.43Z</time></trkpt><trkpt lat="45.5603144" lon="11.1783215"><ele>649.0</ele><time>2026-04-06T11:26:22.445Z</time></trkpt><trkpt lat="45.5603798" lon="11.1783065"><ele>649.0</ele><time>2026-04-06T11:26:26.427Z</time></trkpt><trkpt lat="45.5604796" lon="11.1783078"><ele>649.0</ele><time>2026-04-06T11:26:31.388Z</time></trkpt><trkpt lat="45.5605432" lon="11.1782931"><ele>648.9999999999999</ele><time>2026-04-06T11:26:35.422Z</time></trkpt><trkpt lat="45.5606121" lon="11.1782806"><ele>649.0</ele><time>2026-04-06T11:26:39.397Z</time></trkpt><trkpt lat="45.5606748" lon="11.1782274"><ele>649.1666666666667</ele><time>2026-04-06T11:26:43.405Z</time></trkpt><trkpt lat="45.5607287" lon="11.1781588"><ele>649.3333333333334</ele><time>2026-04-06T11:26:47.407Z</time></trkpt><trkpt lat="45.5607712" lon="11.1780783"><ele>649.5</ele><time>2026-04-06T11:26:51.378Z</time></trkpt><trkpt lat="45.5608085" lon="11.177983"><ele>649.6666666666666</ele><time>2026-04-06T11:26:55.414Z</time></trkpt><trkpt lat="45.5608373" lon="11.1778745"><ele>649.8333333333333</ele><time>2026-04-06T11:26:59.417Z</time></trkpt><trkpt lat="45.5608682" lon="11.1777756"><ele>650.0</ele><time>2026-04-06T11:27:03.412Z</time></trkpt><trkpt lat="45.5608936" lon="11.1776718"><ele>650.0</ele><time>2026-04-06T11:27:07.496Z</time></trkpt><trkpt lat="45.5609063" lon="11.1775589"><ele>650.0</ele><time>2026-04-06T11:27:11.421Z</time></trkpt><trkpt lat="45.5609228" lon="11.1774462"><ele>650.0</ele><time>2026-04-06T11:27:15.427Z</time></trkpt><trkpt lat="45.5609346" lon="11.1773368"><ele>650.0</ele><time>2026-04-06T11:27:19.487Z</time></trkpt><trkpt lat="45.5609409" lon="11.177243"><ele>650.0</ele><time>2026-04-06T11:27:22.377Z</time></trkpt><trkpt lat="45.560951" lon="11.1771413"><ele>650.0</ele><time>2026-04-06T11:27:26.479Z</time></trkpt><trkpt lat="45.5609506" lon="11.1770444"><ele>650.0</ele><time>2026-04-06T11:27:30.423Z</time></trkpt><trkpt lat="45.5609835" lon="11.1769522"><ele>649.3333333333333</ele><time>2026-04-06T11:27:34.438Z</time></trkpt><trkpt lat="45.5610371" lon="11.1768666"><ele>648.6666666666666</ele><time>2026-04-06T11:27:38.427Z</time></trkpt><trkpt lat="45.561076" lon="11.1767829"><ele>648.0</ele><time>2026-04-06T11:27:41.434Z</time></trkpt><trkpt lat="45.5611266" lon="11.1766932"><ele>647.3333333333334</ele><time>2026-04-06T11:27:45.441Z</time></trkpt><trkpt lat="45.561172" lon="11.176583"><ele>646.6666666666667</ele><time>2026-04-06T11:27:49.39Z</time></trkpt><trkpt lat="45.5611999" lon="11.176488"><ele>646.0</ele><time>2026-04-06T11:27:52.382Z</time></trkpt><trkpt lat="45.5612205" lon="11.1763992"><ele>645.5714285714287</ele><time>2026-04-06T11:27:55.386Z</time></trkpt><trkpt lat="45.5612392" lon="11.1762933"><ele>645.1428571428571</ele><time>2026-04-06T11:27:59.418Z</time></trkpt><trkpt lat="45.5612567" lon="11.1761999"><ele>644.7142857142858</ele><time>2026-04-06T11:28:02.384Z</time></trkpt><trkpt lat="45.561305" lon="11.1761249"><ele>644.2857142857143</ele><time>2026-04-06T11:28:06.414Z</time></trkpt><trkpt lat="45.5613728" lon="11.1760938"><ele>643.8571428571429</ele><time>2026-04-06T11:28:10.423Z</time></trkpt><trkpt lat="45.5614376" lon="11.1761098"><ele>643.4285714285714</ele><time>2026-04-06T11:28:14.381Z</time></trkpt><trkpt lat="45.5614982" lon="11.1761557"><ele>643.0</ele><time>2026-04-06T11:28:17.412Z</time></trkpt><trkpt lat="45.5615674" lon="11.1762208"><ele>643.0</ele><time>2026-04-06T11:28:21.426Z</time></trkpt><trkpt lat="45.5616231" lon="11.1762674"><ele>643.0</ele><time>2026-04-06T11:28:24.412Z</time></trkpt><trkpt lat="45.5616862" lon="11.1763095"><ele>643.0</ele><time>2026-04-06T11:28:27.382Z</time></trkpt><trkpt lat="45.5617211" lon="11.1763998"><ele>643.0</ele><time>2026-04-06T11:28:32.48Z</time></trkpt><trkpt lat="45.561665" lon="11.1764703"><ele>643.0</ele><time>2026-04-06T11:28:38.473Z</time></trkpt><trkpt lat="45.5615921" lon="11.1764031"><ele>643.0</ele><time>2026-04-06T11:28:39.418Z</time></trkpt><trkpt lat="45.5615213" lon="11.1763691"><ele>643.0</ele><time>2026-04-06T11:28:44.426Z</time></trkpt><trkpt lat="45.5614515" lon="11.1763434"><ele>643.0</ele><time>2026-04-06T11:28:49.378Z</time></trkpt><trkpt lat="45.5613921" lon="11.1763793"><ele>643.0</ele><time>2026-04-06T11:28:54.495Z</time></trkpt><trkpt lat="45.5613457" lon="11.1764488"><ele>643.0</ele><time>2026-04-06T11:28:59.423Z</time></trkpt><trkpt lat="45.5613032" lon="11.1765337"><ele>643.0</ele><time>2026-04-06T11:29:04.435Z</time></trkpt><trkpt lat="45.5612618" lon="11.1766371"><ele>643.0</ele><time>2026-04-06T11:29:09.45Z</time></trkpt><trkpt lat="45.561235" lon="11.1767308"><ele>643.0</ele><time>2026-04-06T11:29:14.427Z</time></trkpt><trkpt lat="45.5612136" lon="11.176834"><ele>643.0</ele><time>2026-04-06T11:29:19.504Z</time></trkpt><trkpt lat="45.5612161" lon="11.1769367"><ele>647.0</ele><time>2026-04-06T11:29:23.467Z</time></trkpt><trkpt lat="45.5612173" lon="11.1770544"><ele>651.0</ele><time>2026-04-06T11:29:28.417Z</time></trkpt><trkpt lat="45.5612195" lon="11.1771478"><ele>655.0</ele><time>2026-04-06T11:29:32.47Z</time></trkpt><trkpt lat="45.5612272" lon="11.1772563"><ele>659.0</ele><time>2026-04-06T11:29:37.419Z</time></trkpt><trkpt lat="45.5612504" lon="11.1773682"><ele>663.0</ele><time>2026-04-06T11:29:42.4Z</time></trkpt><trkpt lat="45.5612785" lon="11.1774766"><ele>667.0</ele><time>2026-04-06T11:29:46.434Z</time></trkpt><trkpt lat="45.5613063" lon="11.1775634"><ele>669.2857142857143</ele><time>2026-04-06T11:29:49.405Z</time></trkpt><trkpt lat="45.5613505" lon="11.1776491"><ele>671.5714285714286</ele><time>2026-04-06T11:29:53.418Z</time></trkpt><trkpt lat="45.5613959" lon="11.1777127"><ele>673.8571428571429</ele><time>2026-04-06T11:29:57.385Z</time></trkpt><trkpt lat="45.5614526" lon="11.1777696"><ele>676.1428571428571</ele><time>2026-04-06T11:30:03.437Z</time></trkpt><trkpt lat="45.5614525" lon="11.1778645"><ele>678.4285714285714</ele><time>2026-04-06T11:30:10.4Z</time></trkpt><trkpt lat="45.5614424" lon="11.1779587"><ele>680.7142857142858</ele><time>2026-04-06T11:30:14.492Z</time></trkpt><trkpt lat="45.5613915" lon="11.1780477"><ele>683.0</ele><time>2026-04-06T11:30:22.378Z</time></trkpt><trkpt lat="45.5613412" lon="11.1781253"><ele>684.2857142857143</ele><time>2026-04-06T11:30:27.436Z</time></trkpt><trkpt lat="45.5613008" lon="11.1782052"><ele>685.5714285714286</ele><time>2026-04-06T11:30:32.461Z</time></trkpt><trkpt lat="45.5612867" lon="11.1782969"><ele>686.8571428571429</ele><time>2026-04-06T11:30:36.441Z</time></trkpt><trkpt lat="45.5612706" lon="11.1783862"><ele>688.1428571428571</ele><time>2026-04-06T11:30:39.436Z</time></trkpt><trkpt lat="45.5612543" lon="11.1784747"><ele>689.4285714285714</ele><time>2026-04-06T11:30:43.422Z</time></trkpt><trkpt lat="45.561242" lon="11.178575"><ele>690.7142857142857</ele><time>2026-04-06T11:30:48.409Z</time></trkpt><trkpt lat="45.561241" lon="11.1786689"><ele>692.0</ele><time>2026-04-06T11:30:52.406Z</time></trkpt><trkpt lat="45.5612682" lon="11.178757"><ele>692.0</ele><time>2026-04-06T11:30:56.402Z</time></trkpt><trkpt lat="45.5612911" lon="11.1788585"><ele>692.0</ele><time>2026-04-06T11:31:01.481Z</time></trkpt><trkpt lat="45.5613065" lon="11.1789562"><ele>692.0</ele><time>2026-04-06T11:31:06.415Z</time></trkpt><trkpt lat="45.5613199" lon="11.1790582"><ele>692.0</ele><time>2026-04-06T11:31:10.486Z</time></trkpt><trkpt lat="45.5613283" lon="11.1791549"><ele>692.0</ele><time>2026-04-06T11:31:14.422Z</time></trkpt><trkpt lat="45.5613288" lon="11.179266"><ele>692.0</ele><time>2026-04-06T11:31:19.415Z</time></trkpt><trkpt lat="45.5613187" lon="11.1793619"><ele>692.0</ele><time>2026-04-06T11:31:24.392Z</time></trkpt><trkpt lat="45.5612531" lon="11.1793854"><ele>690.7142857142857</ele><time>2026-04-06T11:31:31.386Z</time></trkpt><trkpt lat="45.5611843" lon="11.1793945"><ele>689.4285714285714</ele><time>2026-04-06T11:31:36.368Z</time></trkpt><trkpt lat="45.5611107" lon="11.1793833"><ele>688.1428571428571</ele><time>2026-04-06T11:31:41.377Z</time></trkpt><trkpt lat="45.5610449" lon="11.1793707"><ele>686.8571428571429</ele><time>2026-04-06T11:31:45.428Z</time></trkpt><trkpt lat="45.5609773" lon="11.1793742"><ele>685.5714285714286</ele><time>2026-04-06T11:31:49.436Z</time></trkpt><trkpt lat="45.5608998" lon="11.1793808"><ele>684.2857142857143</ele><time>2026-04-06T11:31:54.453Z</time></trkpt><trkpt lat="45.5608357" lon="11.1794213"><ele>683.0</ele><time>2026-04-06T11:32:01.454Z</time></trkpt><trkpt lat="45.5607857" lon="11.1794862"><ele>683.0</ele><time>2026-04-06T11:32:06.375Z</time></trkpt><trkpt lat="45.56075" lon="11.1795719"><ele>683.0</ele><time>2026-04-06T11:32:11.475Z</time></trkpt><trkpt lat="45.5607186" lon="11.1796678"><ele>683.0</ele><time>2026-04-06T11:32:18.424Z</time></trkpt><trkpt lat="45.5606866" lon="11.1797686"><ele>683.0</ele><time>2026-04-06T11:32:22.383Z</time></trkpt><trkpt lat="45.5606884" lon="11.1798694"><ele>683.0</ele><time>2026-04-06T11:32:26.448Z</time></trkpt><trkpt lat="45.5606996" lon="11.1799807"><ele>683.0</ele><time>2026-04-06T11:32:31.413Z</time></trkpt><trkpt lat="45.560739" lon="11.1800789"><ele>685.2857142857143</ele><time>2026-04-06T11:32:35.425Z</time></trkpt><trkpt lat="45.560767" lon="11.1801821"><ele>687.5714285714286</ele><time>2026-04-06T11:32:39.409Z</time></trkpt><trkpt lat="45.5607936" lon="11.1802736"><ele>689.8571428571429</ele><time>2026-04-06T11:32:43.434Z</time></trkpt><trkpt lat="45.5608252" lon="11.1803677"><ele>692.1428571428571</ele><time>2026-04-06T11:32:47.419Z</time></trkpt><trkpt lat="45.5608467" lon="11.1804799"><ele>694.4285714285714</ele><time>2026-04-06T11:32:51.429Z</time></trkpt><trkpt lat="45.5608676" lon="11.1805691"><ele>696.7142857142857</ele><time>2026-04-06T11:32:55.443Z</time></trkpt><trkpt lat="45.5608732" lon="11.1806643"><ele>699.0</ele><time>2026-04-06T11:33:00.392Z</time></trkpt><trkpt lat="45.560894" lon="11.1807617"><ele>699.0</ele><time>2026-04-06T11:33:05.453Z</time></trkpt><trkpt lat="45.5609354" lon="11.1808324"><ele>699.0</ele><time>2026-04-06T11:33:10.427Z</time></trkpt><trkpt lat="45.5609958" lon="11.1808897"><ele>699.0</ele><time>2026-04-06T11:33:15.422Z</time></trkpt><trkpt lat="45.5610367" lon="11.1808174"><ele>699.0</ele><time>2026-04-06T11:33:24.414Z</time></trkpt><trkpt lat="45.561012" lon="11.1807273"><ele>699.0</ele><time>2026-04-06T11:33:29.424Z</time></trkpt><trkpt lat="45.5609719" lon="11.1806392"><ele>699.0</ele><time>2026-04-06T11:33:34.425Z</time></trkpt><trkpt lat="45.560939" lon="11.180551"><ele>699.0</ele><time>2026-04-06T11:33:38.432Z</time></trkpt><trkpt lat="45.5609077" lon="11.1804698"><ele>699.0</ele><time>2026-04-06T11:33:41.411Z</time></trkpt><trkpt lat="45.5609061" lon="11.1803595"><ele>699.0</ele><time>2026-04-06T11:33:46.426Z</time></trkpt><trkpt lat="45.5608983" lon="11.180254"><ele>699.0</ele><time>2026-04-06T11:33:50.429Z</time></trkpt><trkpt lat="45.5609138" lon="11.1801545"><ele>699.0</ele><time>2026-04-06T11:33:55.435Z</time></trkpt><trkpt lat="45.5609114" lon="11.1800638"><ele>699.0</ele><time>2026-04-06T11:33:59.446Z</time></trkpt><trkpt lat="45.560934" lon="11.1799624"><ele>699.0</ele><time>2026-04-06T11:34:05.382Z</time></trkpt><trkpt lat="45.5609879" lon="11.1798825"><ele>699.0</ele><time>2026-04-06T11:34:10.392Z</time></trkpt><trkpt lat="45.5610588" lon="11.1798344"><ele>699.0</ele><time>2026-04-06T11:34:15.439Z</time></trkpt><trkpt lat="45.5611285" lon="11.1798205"><ele>699.0</ele><time>2026-04-06T11:34:21.439Z</time></trkpt><trkpt lat="45.5610801" lon="11.1798785"><ele>699.0</ele><time>2026-04-06T11:34:27.41Z</time></trkpt><trkpt lat="45.5610273" lon="11.1799278"><ele>699.0</ele><time>2026-04-06T11:34:31.384Z</time></trkpt><trkpt lat="45.5610053" lon="11.1800231"><ele>699.0</ele><time>2026-04-06T11:34:37.435Z</time></trkpt><trkpt lat="45.5609988" lon="11.1801141"><ele>699.0</ele><time>2026-04-06T11:34:40.473Z</time></trkpt><trkpt lat="45.5610107" lon="11.1802114"><ele>699.0</ele><time>2026-04-06T11:34:43.446Z</time></trkpt><trkpt lat="45.5610359" lon="11.1802953"><ele>699.0</ele><time>2026-04-06T11:34:46.39Z</time></trkpt><trkpt lat="45.5610772" lon="11.1803852"><ele>699.0</ele><time>2026-04-06T11:34:50.382Z</time></trkpt><trkpt lat="45.5611095" lon="11.1804663"><ele>699.0</ele><time>2026-04-06T11:34:55.371Z</time></trkpt><trkpt lat="45.5611447" lon="11.180559"><ele>699.0</ele><time>2026-04-06T11:35:01.437Z</time></trkpt><trkpt lat="45.561179" lon="11.1806418"><ele>699.0</ele><time>2026-04-06T11:35:05.418Z</time></trkpt><trkpt lat="45.5612038" lon="11.1807298"><ele>699.0</ele><time>2026-04-06T11:35:09.379Z</time></trkpt><trkpt lat="45.5612448" lon="11.1808228"><ele>699.0</ele><time>2026-04-06T11:35:12.42Z</time></trkpt><trkpt lat="45.5612983" lon="11.1809105"><ele>703.0</ele><time>2026-04-06T11:35:16.418Z</time></trkpt><trkpt lat="45.5613397" lon="11.1809832"><ele>707.0</ele><time>2026-04-06T11:35:19.386Z</time></trkpt><trkpt lat="45.5613846" lon="11.1810747"><ele>711.0</ele><time>2026-04-06T11:35:23.378Z</time></trkpt><trkpt lat="45.561437" lon="11.1811602"><ele>715.0</ele><time>2026-04-06T11:35:27.411Z</time></trkpt><trkpt lat="45.5614714" lon="11.1812444"><ele>719.0</ele><time>2026-04-06T11:35:30.414Z</time></trkpt><trkpt lat="45.5615123" lon="11.1813287"><ele>723.0</ele><time>2026-04-06T11:35:33.371Z</time></trkpt><trkpt lat="45.5615543" lon="11.1814139"><ele>727.0</ele><time>2026-04-06T11:35:36.424Z</time></trkpt><trkpt lat="45.5616021" lon="11.181514"><ele>727.1428571428571</ele><time>2026-04-06T11:35:40.415Z</time></trkpt><trkpt lat="45.5616494" lon="11.1816074"><ele>727.2857142857143</ele><time>2026-04-06T11:35:44.422Z</time></trkpt><trkpt lat="45.5616867" lon="11.1816905"><ele>727.4285714285714</ele><time>2026-04-06T11:35:47.419Z</time></trkpt><trkpt lat="45.5617229" lon="11.1817694"><ele>727.5714285714286</ele><time>2026-04-06T11:35:50.432Z</time></trkpt><trkpt lat="45.5617476" lon="11.181862"><ele>727.7142857142858</ele><time>2026-04-06T11:35:53.433Z</time></trkpt><trkpt lat="45.5617501" lon="11.1819759"><ele>727.8571428571429</ele><time>2026-04-06T11:35:57.403Z</time></trkpt><trkpt lat="45.5616947" lon="11.1820457"><ele>728.0</ele><time>2026-04-06T11:36:03.4Z</time></trkpt><trkpt lat="45.561622" lon="11.1820544"><ele>728.0</ele><time>2026-04-06T11:36:08.404Z</time></trkpt><trkpt lat="45.5615597" lon="11.182107"><ele>728.0</ele><time>2026-04-06T11:36:12.414Z</time></trkpt><trkpt lat="45.5614859" lon="11.1820854"><ele>728.0</ele><time>2026-04-06T11:36:15.417Z</time></trkpt><trkpt lat="45.5614207" lon="11.1820779"><ele>728.0</ele><time>2026-04-06T11:36:18.392Z</time></trkpt><trkpt lat="45.5613452" lon="11.1820667"><ele>728.0</ele><time>2026-04-06T11:36:22.405Z</time></trkpt><trkpt lat="45.5612702" lon="11.1820631"><ele>728.0</ele><time>2026-04-06T11:36:26.422Z</time></trkpt><trkpt lat="45.5612056" lon="11.1820977"><ele>728.0</ele><time>2026-04-06T11:36:31.386Z</time></trkpt><trkpt lat="45.5611437" lon="11.182127"><ele>728.1428571428571</ele><time>2026-04-06T11:36:36.418Z</time></trkpt><trkpt lat="45.5610728" lon="11.1821532"><ele>728.2857142857142</ele><time>2026-04-06T11:36:40.487Z</time></trkpt><trkpt lat="45.561029" lon="11.1822318"><ele>728.4285714285714</ele><time>2026-04-06T11:36:45.45Z</time></trkpt><trkpt lat="45.5609963" lon="11.1823287"><ele>728.5714285714286</ele><time>2026-04-06T11:36:50.462Z</time></trkpt><trkpt lat="45.561018" lon="11.1824195"><ele>728.7142857142857</ele><time>2026-04-06T11:36:54.444Z</time></trkpt><trkpt lat="45.5610084" lon="11.1825127"><ele>728.8571428571429</ele><time>2026-04-06T11:36:58.443Z</time></trkpt><trkpt lat="45.5609725" lon="11.1826178"><ele>729.0</ele><time>2026-04-06T11:37:03.443Z</time></trkpt><trkpt lat="45.5609322" lon="11.1826917"><ele>729.0</ele><time>2026-04-06T11:37:07.431Z</time></trkpt><trkpt lat="45.5609203" lon="11.1827914"><ele>729.0</ele><time>2026-04-06T11:37:12.448Z</time></trkpt><trkpt lat="45.5608536" lon="11.1828425"><ele>729.0</ele><time>2026-04-06T11:37:16.373Z</time></trkpt><trkpt lat="45.5607861" lon="11.1828544"><ele>729.0</ele><time>2026-04-06T11:37:19.375Z</time></trkpt><trkpt lat="45.5607209" lon="11.1829211"><ele>729.0</ele><time>2026-04-06T11:37:23.382Z</time></trkpt><trkpt lat="45.5606737" lon="11.182987"><ele>729.0</ele><time>2026-04-06T11:37:27.439Z</time></trkpt><trkpt lat="45.5606037" lon="11.1830221"><ele>729.0</ele><time>2026-04-06T11:37:31.402Z</time></trkpt><trkpt lat="45.5605604" lon="11.1831077"><ele>729.0</ele><time>2026-04-06T11:37:35.419Z</time></trkpt><trkpt lat="45.5605661" lon="11.1832004"><ele>729.0</ele><time>2026-04-06T11:37:40.422Z</time></trkpt><trkpt lat="45.560631" lon="11.1831648"><ele>729.0</ele><time>2026-04-06T11:38:04.43Z</time></trkpt><trkpt lat="45.5606947" lon="11.1831247"><ele>729.0</ele><time>2026-04-06T11:38:10.376Z</time></trkpt><trkpt lat="45.5607418" lon="11.1831845"><ele>729.0</ele><time>2026-04-06T11:38:34.428Z</time></trkpt><trkpt lat="45.5607781" lon="11.1832624"><ele>729.0</ele><time>2026-04-06T11:41:26.395Z</time></trkpt><trkpt lat="45.5606727" lon="11.1831605"><ele>729.0</ele><time>2026-04-06T11:42:06.378Z</time></trkpt><trkpt lat="45.5607273" lon="11.1832414"><ele>729.0</ele><time>2026-04-06T11:42:42.382Z</time></trkpt><trkpt lat="45.5607979" lon="11.1832352"><ele>729.0</ele><time>2026-04-06T11:43:24.389Z</time></trkpt><trkpt lat="45.5608668" lon="11.1832055"><ele>729.0</ele><time>2026-04-06T11:43:42.378Z</time></trkpt><trkpt lat="45.5609139" lon="11.183137"><ele>729.0</ele><time>2026-04-06T11:43:50.38Z</time></trkpt><trkpt lat="45.5609334" lon="11.1830489"><ele>729.0</ele><time>2026-04-06T11:44:25.378Z</time></trkpt><trkpt lat="45.5608801" lon="11.1831284"><ele>729.0</ele><time>2026-04-06T11:55:10.412Z</time></trkpt><trkpt lat="45.5609496" lon="11.1830655"><ele>729.0</ele><time>2026-04-06T11:55:52.367Z</time></trkpt><trkpt lat="45.5608165" lon="11.1829985"><ele>729.0</ele><time>2026-04-06T12:03:39.383Z</time></trkpt><trkpt lat="45.5608611" lon="11.1831051"><ele>729.0</ele><time>2026-04-06T12:04:55.373Z</time></trkpt><trkpt lat="45.560838" lon="11.1831916"><ele>729.0</ele><time>2026-04-06T12:05:02.37Z</time></trkpt><trkpt lat="45.5607885" lon="11.1832774"><ele>729.0</ele><time>2026-04-06T12:05:06.413Z</time></trkpt><trkpt lat="45.5607132" lon="11.183311"><ele>729.6666666666666</ele><time>2026-04-06T12:05:09.417Z</time></trkpt><trkpt lat="45.5606486" lon="11.1833252"><ele>730.3333333333334</ele><time>2026-04-06T12:05:11.426Z</time></trkpt><trkpt lat="45.5605739" lon="11.1833157"><ele>731.0</ele><time>2026-04-06T12:05:13.412Z</time></trkpt><trkpt lat="45.5605049" lon="11.183292"><ele>731.6666666666667</ele><time>2026-04-06T12:05:15.377Z</time></trkpt><trkpt lat="45.5604323" lon="11.1832871"><ele>732.3333333333334</ele><time>2026-04-06T12:05:19.411Z</time></trkpt><trkpt lat="45.5603567" lon="11.1832421"><ele>733.0</ele><time>2026-04-06T12:05:24.393Z</time></trkpt><trkpt lat="45.5602957" lon="11.1831498"><ele>733.0</ele><time>2026-04-06T12:05:27.383Z</time></trkpt><trkpt lat="45.5602473" lon="11.1830634"><ele>733.0</ele><time>2026-04-06T12:05:29.38Z</time></trkpt><trkpt lat="45.5601679" lon="11.1829165"><ele>733.0</ele><time>2026-04-06T12:05:32.407Z</time></trkpt><trkpt lat="45.5601378" lon="11.1828287"><ele>733.0</ele><time>2026-04-06T12:05:35.37Z</time></trkpt><trkpt lat="45.5600857" lon="11.1827336"><ele>733.0</ele><time>2026-04-06T12:05:38.408Z</time></trkpt><trkpt lat="45.5600451" lon="11.1826362"><ele>733.0</ele><time>2026-04-06T12:05:41.423Z</time></trkpt><trkpt lat="45.5600032" lon="11.1825535"><ele>732.9999999999999</ele><time>2026-04-06T12:05:44.411Z</time></trkpt><trkpt lat="45.559953" lon="11.1824519"><ele>733.0</ele><time>2026-04-06T12:05:48.381Z</time></trkpt><trkpt lat="45.5598991" lon="11.1823641"><ele>733.0</ele><time>2026-04-06T12:05:51.486Z</time></trkpt><trkpt lat="45.5598587" lon="11.1822874"><ele>733.0</ele><time>2026-04-06T12:05:54.416Z</time></trkpt><trkpt lat="45.5598121" lon="11.182221"><ele>733.0</ele><time>2026-04-06T12:05:58.437Z</time></trkpt><trkpt lat="45.5597635" lon="11.1821576"><ele>732.9999999999999</ele><time>2026-04-06T12:06:01.443Z</time></trkpt><trkpt lat="45.559697" lon="11.1821486"><ele>733.0</ele><time>2026-04-06T12:06:05.415Z</time></trkpt><trkpt lat="45.5596301" lon="11.1821635"><ele>731.8333333333334</ele><time>2026-04-06T12:06:08.404Z</time></trkpt><trkpt lat="45.5595354" lon="11.1821706"><ele>730.6666666666667</ele><time>2026-04-06T12:06:11.426Z</time></trkpt><trkpt lat="45.5594664" lon="11.1821764"><ele>729.5</ele><time>2026-04-06T12:06:13.425Z</time></trkpt><trkpt lat="45.5593795" lon="11.1821942"><ele>728.3333333333334</ele><time>2026-04-06T12:06:15.43Z</time></trkpt><trkpt lat="45.559296" lon="11.1822055"><ele>727.1666666666666</ele><time>2026-04-06T12:06:17.393Z</time></trkpt><trkpt lat="45.5592141" lon="11.1821775"><ele>726.0</ele><time>2026-04-06T12:06:19.392Z</time></trkpt><trkpt lat="45.5591347" lon="11.182141"><ele>726.0</ele><time>2026-04-06T12:06:21.436Z</time></trkpt><trkpt lat="45.5590764" lon="11.1820725"><ele>726.0</ele><time>2026-04-06T12:06:23.376Z</time></trkpt><trkpt lat="45.5589996" lon="11.1819884"><ele>726.0</ele><time>2026-04-06T12:06:26.478Z</time></trkpt><trkpt lat="45.5589296" lon="11.1819194"><ele>726.0</ele><time>2026-04-06T12:06:28.391Z</time></trkpt><trkpt lat="45.558876" lon="11.1818436"><ele>726.0</ele><time>2026-04-06T12:06:30.373Z</time></trkpt><trkpt lat="45.558805" lon="11.1817821"><ele>726.0</ele><time>2026-04-06T12:06:32.432Z</time></trkpt><trkpt lat="45.5587428" lon="11.1817365"><ele>724.1666666666666</ele><time>2026-04-06T12:06:34.484Z</time></trkpt><trkpt lat="45.558686" lon="11.1816799"><ele>722.3333333333334</ele><time>2026-04-06T12:06:36.415Z</time></trkpt><trkpt lat="45.5586226" lon="11.181638"><ele>720.5</ele><time>2026-04-06T12:06:38.431Z</time></trkpt><trkpt lat="45.5585552" lon="11.1815908"><ele>718.6666666666667</ele><time>2026-04-06T12:06:40.446Z</time></trkpt><trkpt lat="45.5584907" lon="11.1815417"><ele>716.8333333333334</ele><time>2026-04-06T12:06:42.421Z</time></trkpt><trkpt lat="45.5584299" lon="11.1814831"><ele>715.0</ele><time>2026-04-06T12:06:44.503Z</time></trkpt><trkpt lat="45.5583417" lon="11.1814196"><ele>715.0</ele><time>2026-04-06T12:06:47.491Z</time></trkpt><trkpt lat="45.558286" lon="11.1813751"><ele>715.0</ele><time>2026-04-06T12:06:49.426Z</time></trkpt><trkpt lat="45.5582138" lon="11.1813248"><ele>715.0</ele><time>2026-04-06T12:06:52.412Z</time></trkpt><trkpt lat="45.5581484" lon="11.1812971"><ele>715.0</ele><time>2026-04-06T12:06:56.396Z</time></trkpt><trkpt lat="45.5580773" lon="11.1812731"><ele>715.0</ele><time>2026-04-06T12:06:59.382Z</time></trkpt><trkpt lat="45.5580103" lon="11.1812343"><ele>715.0</ele><time>2026-04-06T12:07:02.446Z</time></trkpt><trkpt lat="45.5579393" lon="11.1812213"><ele>715.0</ele><time>2026-04-06T12:07:04.378Z</time></trkpt><trkpt lat="45.5578612" lon="11.1811867"><ele>719.1666666666667</ele><time>2026-04-06T12:07:06.428Z</time></trkpt><trkpt lat="45.5577957" lon="11.1811814"><ele>723.3333333333334</ele><time>2026-04-06T12:07:08.439Z</time></trkpt><trkpt lat="45.5577436" lon="11.1811116"><ele>727.5</ele><time>2026-04-06T12:07:11.462Z</time></trkpt><trkpt lat="45.557663" lon="11.1810938"><ele>731.6666666666666</ele><time>2026-04-06T12:07:14.405Z</time></trkpt><trkpt lat="45.5575804" lon="11.1811145"><ele>735.8333333333333</ele><time>2026-04-06T12:07:18.413Z</time></trkpt><trkpt lat="45.5575143" lon="11.1810834"><ele>740.0</ele><time>2026-04-06T12:07:31.38Z</time></trkpt><trkpt lat="45.5574522" lon="11.181013"><ele>740.0</ele><time>2026-04-06T12:07:35.421Z</time></trkpt><trkpt lat="45.557395" lon="11.1809409"><ele>740.0</ele><time>2026-04-06T12:07:40.377Z</time></trkpt><trkpt lat="45.5573973" lon="11.1808473"><ele>740.0</ele><time>2026-04-06T12:08:15.38Z</time></trkpt><trkpt lat="45.5574189" lon="11.1807116"><ele>740.0</ele><time>2026-04-06T12:08:17.38Z</time></trkpt><trkpt lat="45.5574332" lon="11.1805797"><ele>740.0</ele><time>2026-04-06T12:08:19.408Z</time></trkpt><trkpt lat="45.55742" lon="11.180486"><ele>740.0</ele><time>2026-04-06T12:08:22.4Z</time></trkpt><trkpt lat="45.5574163" lon="11.1803837"><ele>738.3333333333333</ele><time>2026-04-06T12:08:32.381Z</time></trkpt><trkpt lat="45.5574344" lon="11.1802754"><ele>736.6666666666666</ele><time>2026-04-06T12:08:34.387Z</time></trkpt><trkpt lat="45.5574559" lon="11.1801592"><ele>735.0</ele><time>2026-04-06T12:08:36.425Z</time></trkpt><trkpt lat="45.5575143" lon="11.1800614"><ele>733.3333333333334</ele><time>2026-04-06T12:08:38.433Z</time></trkpt><trkpt lat="45.5575397" lon="11.1799373"><ele>731.6666666666667</ele><time>2026-04-06T12:08:40.428Z</time></trkpt><trkpt lat="45.5575431" lon="11.1798151"><ele>730.0</ele><time>2026-04-06T12:08:42.431Z</time></trkpt><trkpt lat="45.5575372" lon="11.1797101"><ele>729.6</ele><time>2026-04-06T12:08:44.435Z</time></trkpt><trkpt lat="45.5575172" lon="11.179551"><ele>729.2</ele><time>2026-04-06T12:08:46.433Z</time></trkpt><trkpt lat="45.5575014" lon="11.1794053"><ele>728.8</ele><time>2026-04-06T12:08:48.39Z</time></trkpt><trkpt lat="45.5575021" lon="11.1792696"><ele>728.4</ele><time>2026-04-06T12:08:50.383Z</time></trkpt><trkpt lat="45.557492" lon="11.1790823"><ele>728.0</ele><time>2026-04-06T12:08:52.409Z</time></trkpt><trkpt lat="45.557477" lon="11.1789283"><ele>728.0</ele><time>2026-04-06T12:08:54.475Z</time></trkpt><trkpt lat="45.5574867" lon="11.1788364"><ele>728.0</ele><time>2026-04-06T12:08:55.394Z</time></trkpt><trkpt lat="45.5575125" lon="11.1787335"><ele>728.0</ele><time>2026-04-06T12:08:56.378Z</time></trkpt><trkpt lat="45.5575187" lon="11.1786386"><ele>728.0</ele><time>2026-04-06T12:08:57.422Z</time></trkpt><trkpt lat="45.5574951" lon="11.1784829"><ele>728.0</ele><time>2026-04-06T12:08:59.416Z</time></trkpt><trkpt lat="45.5574982" lon="11.178366"><ele>728.0</ele><time>2026-04-06T12:09:01.402Z</time></trkpt><trkpt lat="45.5574947" lon="11.1782348"><ele>728.5999999999999</ele><time>2026-04-06T12:09:03.373Z</time></trkpt><trkpt lat="45.5574865" lon="11.1781358"><ele>729.1999999999999</ele><time>2026-04-06T12:09:05.419Z</time></trkpt><trkpt lat="45.5575126" lon="11.1780095"><ele>729.8</ele><time>2026-04-06T12:09:07.386Z</time></trkpt><trkpt lat="45.5575307" lon="11.1778585"><ele>730.4</ele><time>2026-04-06T12:09:09.404Z</time></trkpt><trkpt lat="45.5575402" lon="11.1777346"><ele>731.0</ele><time>2026-04-06T12:09:11.412Z</time></trkpt><trkpt lat="45.557557" lon="11.1775925"><ele>731.0</ele><time>2026-04-06T12:09:13.414Z</time></trkpt><trkpt lat="45.5575718" lon="11.1774589"><ele>731.0</ele><time>2026-04-06T12:09:15.405Z</time></trkpt><trkpt lat="45.5575884" lon="11.177341"><ele>731.0</ele><time>2026-04-06T12:09:17.409Z</time></trkpt><trkpt lat="45.5575963" lon="11.1772148"><ele>731.0</ele><time>2026-04-06T12:09:19.405Z</time></trkpt><trkpt lat="45.5575992" lon="11.1771135"><ele>731.0</ele><time>2026-04-06T12:09:21.385Z</time></trkpt><trkpt lat="45.5575992" lon="11.1770145"><ele>731.0</ele><time>2026-04-06T12:09:23.443Z</time></trkpt><trkpt lat="45.5575901" lon="11.1768973"><ele>730.5</ele><time>2026-04-06T12:09:25.44Z</time></trkpt><trkpt lat="45.5575874" lon="11.1767806"><ele>730.0</ele><time>2026-04-06T12:09:27.426Z</time></trkpt><trkpt lat="45.5575839" lon="11.1766714"><ele>729.5</ele><time>2026-04-06T12:09:29.423Z</time></trkpt><trkpt lat="45.5575601" lon="11.1765455"><ele>729.0</ele><time>2026-04-06T12:09:31.399Z</time></trkpt><trkpt lat="45.557532" lon="11.1763859"><ele>728.5</ele><time>2026-04-06T12:09:33.405Z</time></trkpt><trkpt lat="45.5574897" lon="11.1763005"><ele>728.0</ele><time>2026-04-06T12:09:34.42Z</time></trkpt><trkpt lat="45.55745" lon="11.1762151"><ele>726.0</ele><time>2026-04-06T12:09:35.426Z</time></trkpt><trkpt lat="45.5574319" lon="11.176128"><ele>724.0</ele><time>2026-04-06T12:09:36.414Z</time></trkpt><trkpt lat="45.5574028" lon="11.1759686"><ele>722.0</ele><time>2026-04-06T12:09:38.402Z</time></trkpt><trkpt lat="45.5573977" lon="11.1758698"><ele>720.0</ele><time>2026-04-06T12:09:39.419Z</time></trkpt><trkpt lat="45.5573717" lon="11.1756795"><ele>718.0</ele><time>2026-04-06T12:09:41.423Z</time></trkpt><trkpt lat="45.5573545" lon="11.1755875"><ele>717.1666666666667</ele><time>2026-04-06T12:09:42.416Z</time></trkpt><trkpt lat="45.5573415" lon="11.1754759"><ele>716.3333333333334</ele><time>2026-04-06T12:09:44.413Z</time></trkpt><trkpt lat="45.5573194" lon="11.1753911"><ele>715.5</ele><time>2026-04-06T12:09:45.381Z</time></trkpt><trkpt lat="45.5573228" lon="11.1752469"><ele>714.6666666666666</ele><time>2026-04-06T12:09:47.406Z</time></trkpt><trkpt lat="45.5572928" lon="11.175138"><ele>713.8333333333333</ele><time>2026-04-06T12:09:49.413Z</time></trkpt><trkpt lat="45.5572686" lon="11.1750525"><ele>713.0</ele><time>2026-04-06T12:09:50.435Z</time></trkpt><trkpt lat="45.5572522" lon="11.1749429"><ele>713.0</ele><time>2026-04-06T12:09:52.433Z</time></trkpt><trkpt lat="45.5572293" lon="11.1748587"><ele>713.0</ele><time>2026-04-06T12:09:54.426Z</time></trkpt><trkpt lat="45.5572087" lon="11.17475"><ele>713.0</ele><time>2026-04-06T12:09:56.423Z</time></trkpt><trkpt lat="45.5571936" lon="11.1746413"><ele>713.0</ele><time>2026-04-06T12:09:58.426Z</time></trkpt><trkpt lat="45.557166" lon="11.1744484"><ele>713.0</ele><time>2026-04-06T12:10:01.435Z</time></trkpt><trkpt lat="45.5571477" lon="11.1743368"><ele>713.0</ele><time>2026-04-06T12:10:03.4Z</time></trkpt><trkpt lat="45.5571436" lon="11.1742039"><ele>712.6666666666666</ele><time>2026-04-06T12:10:06.408Z</time></trkpt><trkpt lat="45.5571311" lon="11.1740598"><ele>712.3333333333333</ele><time>2026-04-06T12:10:09.423Z</time></trkpt><trkpt lat="45.5570948" lon="11.1739448"><ele>712.0</ele><time>2026-04-06T12:10:11.409Z</time></trkpt><trkpt lat="45.5570374" lon="11.1738599"><ele>711.6666666666666</ele><time>2026-04-06T12:10:13.392Z</time></trkpt><trkpt lat="45.5569806" lon="11.1737976"><ele>711.3333333333334</ele><time>2026-04-06T12:10:15.376Z</time></trkpt><trkpt lat="45.5569146" lon="11.1737707"><ele>711.0</ele><time>2026-04-06T12:10:18.389Z</time></trkpt><trkpt lat="45.5568608" lon="11.1738315"><ele>710.7142857142858</ele><time>2026-04-06T12:10:23.403Z</time></trkpt><trkpt lat="45.5568355" lon="11.173914"><ele>710.4285714285714</ele><time>2026-04-06T12:10:27.405Z</time></trkpt><trkpt lat="45.5568286" lon="11.1740051"><ele>710.1428571428571</ele><time>2026-04-06T12:10:31.382Z</time></trkpt><trkpt lat="45.5568139" lon="11.1740969"><ele>709.8571428571429</ele><time>2026-04-06T12:10:36.38Z</time></trkpt><trkpt lat="45.5567842" lon="11.1741895"><ele>709.5714285714286</ele><time>2026-04-06T12:10:42.442Z</time></trkpt><trkpt lat="45.5567667" lon="11.1742789"><ele>709.2857142857143</ele><time>2026-04-06T12:10:47.485Z</time></trkpt><trkpt lat="45.5567611" lon="11.1743701"><ele>709.0</ele><time>2026-04-06T12:10:52.49Z</time></trkpt><trkpt lat="45.5566991" lon="11.1744438"><ele>710.8571428571429</ele><time>2026-04-06T12:10:58.395Z</time></trkpt><trkpt lat="45.5566912" lon="11.1745345"><ele>712.7142857142858</ele><time>2026-04-06T12:11:04.376Z</time></trkpt><trkpt lat="45.5566967" lon="11.174629"><ele>714.5714285714287</ele><time>2026-04-06T12:11:12.377Z</time></trkpt><trkpt lat="45.5567169" lon="11.1747282"><ele>716.4285714285714</ele><time>2026-04-06T12:11:16.441Z</time></trkpt><trkpt lat="45.5567303" lon="11.174831"><ele>718.2857142857142</ele><time>2026-04-06T12:11:21.377Z</time></trkpt><trkpt lat="45.5567402" lon="11.1749281"><ele>720.1428571428572</ele><time>2026-04-06T12:11:27.374Z</time></trkpt><trkpt lat="45.5566879" lon="11.1749989"><ele>722.0</ele><time>2026-04-06T12:11:34.384Z</time></trkpt><trkpt lat="45.5566788" lon="11.1750898"><ele>723.7142857142858</ele><time>2026-04-06T12:11:41.432Z</time></trkpt><trkpt lat="45.5566418" lon="11.1751894"><ele>725.4285714285713</ele><time>2026-04-06T12:11:48.377Z</time></trkpt><trkpt lat="45.5565986" lon="11.1752762"><ele>727.1428571428571</ele><time>2026-04-06T12:11:55.377Z</time></trkpt><trkpt lat="45.5565906" lon="11.1753711"><ele>728.8571428571429</ele><time>2026-04-06T12:12:02.472Z</time></trkpt><trkpt lat="45.5565951" lon="11.1754691"><ele>730.5714285714287</ele><time>2026-04-06T12:12:07.381Z</time></trkpt><trkpt lat="45.5566089" lon="11.1755578"><ele>732.2857142857142</ele><time>2026-04-06T12:12:11.374Z</time></trkpt><trkpt lat="45.5566253" lon="11.1756673"><ele>734.0</ele><time>2026-04-06T12:12:16.424Z</time></trkpt><trkpt lat="45.5566198" lon="11.1757676"><ele>735.4285714285714</ele><time>2026-04-06T12:12:22.384Z</time></trkpt><trkpt lat="45.5566244" lon="11.1758596"><ele>736.8571428571429</ele><time>2026-04-06T12:12:28.385Z</time></trkpt><trkpt lat="45.5566184" lon="11.1759612"><ele>738.2857142857143</ele><time>2026-04-06T12:12:34.405Z</time></trkpt><trkpt lat="45.556599" lon="11.1760479"><ele>739.7142857142858</ele><time>2026-04-06T12:12:39.378Z</time></trkpt><trkpt lat="45.5566011" lon="11.1761488"><ele>741.1428571428571</ele><time>2026-04-06T12:12:46.376Z</time></trkpt><trkpt lat="45.5565955" lon="11.1762423"><ele>742.5714285714287</ele><time>2026-04-06T12:12:51.409Z</time></trkpt><trkpt lat="45.5565765" lon="11.1763316"><ele>744.0</ele><time>2026-04-06T12:12:56.378Z</time></trkpt><trkpt lat="45.5565668" lon="11.1764253"><ele>744.7142857142858</ele><time>2026-04-06T12:13:01.422Z</time></trkpt><trkpt lat="45.5565541" lon="11.1765226"><ele>745.4285714285714</ele><time>2026-04-06T12:13:07.403Z</time></trkpt><trkpt lat="45.5565358" lon="11.176625"><ele>746.1428571428571</ele><time>2026-04-06T12:13:13.375Z</time></trkpt><trkpt lat="45.5564828" lon="11.1766908"><ele>746.8571428571429</ele><time>2026-04-06T12:13:18.429Z</time></trkpt><trkpt lat="45.5564414" lon="11.1767702"><ele>747.5714285714286</ele><time>2026-04-06T12:13:24.4Z</time></trkpt><trkpt lat="45.5563954" lon="11.1768465"><ele>748.2857142857143</ele><time>2026-04-06T12:13:30.465Z</time></trkpt><trkpt lat="45.556346" lon="11.1769191"><ele>749.0</ele><time>2026-04-06T12:13:36.415Z</time></trkpt><trkpt lat="45.5562998" lon="11.1770018"><ele>749.0</ele><time>2026-04-06T12:13:42.425Z</time></trkpt><trkpt lat="45.5562812" lon="11.1770966"><ele>749.0</ele><time>2026-04-06T12:13:48.372Z</time></trkpt><trkpt lat="45.5562191" lon="11.1771574"><ele>749.0</ele><time>2026-04-06T12:13:53.386Z</time></trkpt><trkpt lat="45.5561597" lon="11.1772169"><ele>749.0</ele><time>2026-04-06T12:13:58.411Z</time></trkpt><trkpt lat="45.556093" lon="11.1772492"><ele>749.0</ele><time>2026-04-06T12:14:03.373Z</time></trkpt><trkpt lat="45.5560486" lon="11.1773309"><ele>749.0</ele><time>2026-04-06T12:14:11.374Z</time></trkpt><trkpt lat="45.5559839" lon="11.177372"><ele>749.0</ele><time>2026-04-06T12:14:16.372Z</time></trkpt><trkpt lat="45.5559038" lon="11.1774086"><ele>751.8571428571429</ele><time>2026-04-06T12:14:23.372Z</time></trkpt><trkpt lat="45.5558517" lon="11.1774837"><ele>754.7142857142858</ele><time>2026-04-06T12:14:30.377Z</time></trkpt><trkpt lat="45.5557807" lon="11.1775287"><ele>757.5714285714286</ele><time>2026-04-06T12:14:36.372Z</time></trkpt><trkpt lat="45.5557104" lon="11.1775409"><ele>760.4285714285714</ele><time>2026-04-06T12:14:43.438Z</time></trkpt><trkpt lat="45.5556492" lon="11.1775688"><ele>763.2857142857143</ele><time>2026-04-06T12:14:48.376Z</time></trkpt><trkpt lat="45.5555852" lon="11.1776263"><ele>766.1428571428571</ele><time>2026-04-06T12:14:52.387Z</time></trkpt><trkpt lat="45.5555228" lon="11.1776792"><ele>769.0</ele><time>2026-04-06T12:14:57.386Z</time></trkpt><trkpt lat="45.5554693" lon="11.1777334"><ele>769.0</ele><time>2026-04-06T12:15:01.444Z</time></trkpt><trkpt lat="45.5554062" lon="11.1777884"><ele>769.0</ele><time>2026-04-06T12:15:06.44Z</time></trkpt><trkpt lat="45.5553493" lon="11.1778509"><ele>769.0</ele><time>2026-04-06T12:15:12.376Z</time></trkpt><trkpt lat="45.5553088" lon="11.1779198"><ele>769.0</ele><time>2026-04-06T12:15:17.39Z</time></trkpt><trkpt lat="45.5552582" lon="11.1779871"><ele>769.0</ele><time>2026-04-06T12:15:22.38Z</time></trkpt><trkpt lat="45.555212" lon="11.1780493"><ele>769.0</ele><time>2026-04-06T12:15:26.435Z</time></trkpt><trkpt lat="45.555164" lon="11.1781278"><ele>769.0</ele><time>2026-04-06T12:15:32.44Z</time></trkpt><trkpt lat="45.5551076" lon="11.1781942"><ele>770.8571428571428</ele><time>2026-04-06T12:15:38.376Z</time></trkpt><trkpt lat="45.5550576" lon="11.1782593"><ele>772.7142857142858</ele><time>2026-04-06T12:15:43.432Z</time></trkpt><trkpt lat="45.5549732" lon="11.1782967"><ele>774.5714285714286</ele><time>2026-04-06T12:16:03.385Z</time></trkpt><trkpt lat="45.5549023" lon="11.1783331"><ele>776.4285714285713</ele><time>2026-04-06T12:16:08.409Z</time></trkpt><trkpt lat="45.5548371" lon="11.1783619"><ele>778.2857142857142</ele><time>2026-04-06T12:16:12.379Z</time></trkpt><trkpt lat="45.5547784" lon="11.1784053"><ele>780.1428571428571</ele><time>2026-04-06T12:16:16.374Z</time></trkpt><trkpt lat="45.5547139" lon="11.1784589"><ele>782.0</ele><time>2026-04-06T12:16:20.426Z</time></trkpt><trkpt lat="45.5547073" lon="11.1785794"><ele>782.0000000000001</ele><time>2026-04-06T12:17:56.436Z</time></trkpt><trkpt lat="45.5546525" lon="11.1786746"><ele>782.0</ele><time>2026-04-06T12:18:01.373Z</time></trkpt><trkpt lat="45.5545889" lon="11.1787428"><ele>782.0</ele><time>2026-04-06T12:18:05.439Z</time></trkpt><trkpt lat="45.5545297" lon="11.1788191"><ele>782.0</ele><time>2026-04-06T12:18:09.377Z</time></trkpt><trkpt lat="45.5544586" lon="11.1788807"><ele>782.0000000000001</ele><time>2026-04-06T12:18:13.418Z</time></trkpt><trkpt lat="45.554385" lon="11.1789323"><ele>782.0</ele><time>2026-04-06T12:18:17.427Z</time></trkpt><trkpt lat="45.5543306" lon="11.179016"><ele>782.1428571428571</ele><time>2026-04-06T12:18:21.419Z</time></trkpt><trkpt lat="45.554284" lon="11.179105"><ele>782.2857142857142</ele><time>2026-04-06T12:18:25.419Z</time></trkpt><trkpt lat="45.5542313" lon="11.1791664"><ele>782.4285714285713</ele><time>2026-04-06T12:18:28.377Z</time></trkpt><trkpt lat="45.5541542" lon="11.1792077"><ele>782.5714285714286</ele><time>2026-04-06T12:18:31.429Z</time></trkpt><trkpt lat="45.5540822" lon="11.1792378"><ele>782.7142857142858</ele><time>2026-04-06T12:18:34.381Z</time></trkpt><trkpt lat="45.5540218" lon="11.1792802"><ele>782.8571428571428</ele><time>2026-04-06T12:18:37.432Z</time></trkpt><trkpt lat="45.5539589" lon="11.1793313"><ele>783.0</ele><time>2026-04-06T12:18:40.43Z</time></trkpt><trkpt lat="45.553903" lon="11.1793872"><ele>783.0</ele><time>2026-04-06T12:18:43.378Z</time></trkpt><trkpt lat="45.5538297" lon="11.1794327"><ele>783.0</ele><time>2026-04-06T12:18:46.421Z</time></trkpt><trkpt lat="45.553766" lon="11.1794752"><ele>783.0</ele><time>2026-04-06T12:18:48.431Z</time></trkpt><trkpt lat="45.5536863" lon="11.1795014"><ele>783.0</ele><time>2026-04-06T12:18:50.379Z</time></trkpt><trkpt lat="45.5536175" lon="11.1795157"><ele>783.0</ele><time>2026-04-06T12:18:51.435Z</time></trkpt><trkpt lat="45.5535002" lon="11.1795296"><ele>783.0</ele><time>2026-04-06T12:18:53.39Z</time></trkpt><trkpt lat="45.5533947" lon="11.1795444"><ele>780.8</ele><time>2026-04-06T12:18:55.439Z</time></trkpt><trkpt lat="45.5532777" lon="11.1795697"><ele>778.5999999999999</ele><time>2026-04-06T12:18:57.376Z</time></trkpt><trkpt lat="45.5531696" lon="11.1795942"><ele>776.4000000000001</ele><time>2026-04-06T12:18:59.416Z</time></trkpt><trkpt lat="45.5530419" lon="11.1796292"><ele>774.2</ele><time>2026-04-06T12:19:01.383Z</time></trkpt><trkpt lat="45.552974" lon="11.179641"><ele>772.0</ele><time>2026-04-06T12:19:02.374Z</time></trkpt><trkpt lat="45.552878" lon="11.1795941"><ele>770.6666666666666</ele><time>2026-04-06T12:19:04.379Z</time></trkpt><trkpt lat="45.5528117" lon="11.1795401"><ele>769.3333333333333</ele><time>2026-04-06T12:19:06.37Z</time></trkpt><trkpt lat="45.552787" lon="11.1794072"><ele>768.0</ele><time>2026-04-06T12:19:08.378Z</time></trkpt><trkpt lat="45.5527146" lon="11.1793685"><ele>766.6666666666666</ele><time>2026-04-06T12:19:09.377Z</time></trkpt><trkpt lat="45.5526474" lon="11.1793882"><ele>765.3333333333333</ele><time>2026-04-06T12:19:11.38Z</time></trkpt><trkpt lat="45.5526113" lon="11.1794759"><ele>764.0</ele><time>2026-04-06T12:19:15.378Z</time></trkpt><trkpt lat="45.5526181" lon="11.1795726"><ele>764.0</ele><time>2026-04-06T12:19:18.37Z</time></trkpt><trkpt lat="45.5526204" lon="11.1796694"><ele>764.0</ele><time>2026-04-06T12:19:20.377Z</time></trkpt><trkpt lat="45.5525935" lon="11.1797517"><ele>764.0</ele><time>2026-04-06T12:19:22.382Z</time></trkpt><trkpt lat="45.5525825" lon="11.1798695"><ele>764.0</ele><time>2026-04-06T12:19:25.381Z</time></trkpt><trkpt lat="45.5525999" lon="11.1800025"><ele>764.0</ele><time>2026-04-06T12:19:28.37Z</time></trkpt><trkpt lat="45.552631" lon="11.180118"><ele>764.0</ele><time>2026-04-06T12:19:30.379Z</time></trkpt><trkpt lat="45.5526596" lon="11.1802569"><ele>764.6</ele><time>2026-04-06T12:19:32.382Z</time></trkpt><trkpt lat="45.5527462" lon="11.1803875"><ele>765.2</ele><time>2026-04-06T12:19:34.39Z</time></trkpt><trkpt lat="45.5527688" lon="11.1804738"><ele>765.8000000000001</ele><time>2026-04-06T12:19:35.384Z</time></trkpt><trkpt lat="45.552815" lon="11.1806063"><ele>766.4000000000001</ele><time>2026-04-06T12:19:37.381Z</time></trkpt><trkpt lat="45.552906" lon="11.180742"><ele>767.0</ele><time>2026-04-06T12:19:39.397Z</time></trkpt><trkpt lat="45.552946" lon="11.1808224"><ele>767.8333333333333</ele><time>2026-04-06T12:19:40.424Z</time></trkpt><trkpt lat="45.5529874" lon="11.1809374"><ele>768.6666666666666</ele><time>2026-04-06T12:19:42.422Z</time></trkpt><trkpt lat="45.5529622" lon="11.181069"><ele>769.5</ele><time>2026-04-06T12:19:45.425Z</time></trkpt><trkpt lat="45.5529255" lon="11.1811827"><ele>770.3333333333333</ele><time>2026-04-06T12:19:46.425Z</time></trkpt><trkpt lat="45.5529327" lon="11.1813028"><ele>771.1666666666666</ele><time>2026-04-06T12:19:47.386Z</time></trkpt><trkpt lat="45.5529153" lon="11.181406"><ele>772.0</ele><time>2026-04-06T12:19:48.392Z</time></trkpt><trkpt lat="45.5529157" lon="11.1815314"><ele>771.9999999999999</ele><time>2026-04-06T12:19:49.429Z</time></trkpt><trkpt lat="45.5529004" lon="11.1816266"><ele>772.0</ele><time>2026-04-06T12:19:50.434Z</time></trkpt><trkpt lat="45.5528779" lon="11.1817678"><ele>772.0</ele><time>2026-04-06T12:19:52.432Z</time></trkpt><trkpt lat="45.5529077" lon="11.1819053"><ele>772.0</ele><time>2026-04-06T12:19:53.413Z</time></trkpt><trkpt lat="45.5529227" lon="11.1819944"><ele>771.9999999999999</ele><time>2026-04-06T12:19:54.384Z</time></trkpt><trkpt lat="45.5529413" lon="11.1821387"><ele>772.0</ele><time>2026-04-06T12:19:56.417Z</time></trkpt><trkpt lat="45.5529499" lon="11.1822586"><ele>770.3333333333333</ele><time>2026-04-06T12:19:58.377Z</time></trkpt><trkpt lat="45.5529504" lon="11.1824154"><ele>768.6666666666666</ele><time>2026-04-06T12:20:00.378Z</time></trkpt><trkpt lat="45.5529692" lon="11.1825595"><ele>767.0</ele><time>2026-04-06T12:20:02.437Z</time></trkpt><trkpt lat="45.5530117" lon="11.1826398"><ele>765.3333333333333</ele><time>2026-04-06T12:20:03.429Z</time></trkpt><trkpt lat="45.5530616" lon="11.1827318"><ele>763.6666666666666</ele><time>2026-04-06T12:20:05.429Z</time></trkpt><trkpt lat="45.5530201" lon="11.1828006"><ele>762.0</ele><time>2026-04-06T12:20:10.477Z</time></trkpt><trkpt lat="45.553" lon="11.1828967"><ele>762.0</ele><time>2026-04-06T12:20:13.416Z</time></trkpt><trkpt lat="45.5530308" lon="11.183016"><ele>762.0</ele><time>2026-04-06T12:20:18.374Z</time></trkpt><trkpt lat="45.5530419" lon="11.1831167"><ele>762.0</ele><time>2026-04-06T12:20:22.437Z</time></trkpt><trkpt lat="45.5530576" lon="11.1832153"><ele>762.0</ele><time>2026-04-06T12:20:26.435Z</time></trkpt><trkpt lat="45.5530936" lon="11.1833065"><ele>762.0</ele><time>2026-04-06T12:20:31.375Z</time></trkpt><trkpt lat="45.5531243" lon="11.1833927"><ele>762.0</ele><time>2026-04-06T12:20:36.384Z</time></trkpt><trkpt lat="45.553164" lon="11.1834708"><ele>762.0</ele><time>2026-04-06T12:20:40.38Z</time></trkpt><trkpt lat="45.5531631" lon="11.1836018"><ele>761.1666666666666</ele><time>2026-04-06T12:20:44.445Z</time></trkpt><trkpt lat="45.5531841" lon="11.1837013"><ele>760.3333333333334</ele><time>2026-04-06T12:20:47.412Z</time></trkpt><trkpt lat="45.5532146" lon="11.1837892"><ele>759.5</ele><time>2026-04-06T12:20:55.423Z</time></trkpt><trkpt lat="45.5532563" lon="11.1838729"><ele>758.6666666666667</ele><time>2026-04-06T12:21:02.378Z</time></trkpt><trkpt lat="45.5531926" lon="11.1839299"><ele>757.8333333333334</ele><time>2026-04-06T12:21:07.384Z</time></trkpt><trkpt lat="45.5531244" lon="11.1839464"><ele>757.0</ele><time>2026-04-06T12:21:12.412Z</time></trkpt><trkpt lat="45.5530337" lon="11.1839682"><ele>757.0</ele><time>2026-04-06T12:21:15.369Z</time></trkpt><trkpt lat="45.5529664" lon="11.1839822"><ele>757.0</ele><time>2026-04-06T12:21:17.377Z</time></trkpt><trkpt lat="45.5528879" lon="11.184008"><ele>757.0</ele><time>2026-04-06T12:21:19.386Z</time></trkpt><trkpt lat="45.5528187" lon="11.1840592"><ele>757.0</ele><time>2026-04-06T12:21:21.381Z</time></trkpt><trkpt lat="45.5527516" lon="11.1841196"><ele>757.0</ele><time>2026-04-06T12:21:24.414Z</time></trkpt><trkpt lat="45.552698" lon="11.1841969"><ele>757.0</ele><time>2026-04-06T12:21:28.378Z</time></trkpt><trkpt lat="45.552659" lon="11.1842745"><ele>757.0</ele><time>2026-04-06T12:21:32.375Z</time></trkpt><trkpt lat="45.5525929" lon="11.184359"><ele>756.6666666666667</ele><time>2026-04-06T12:21:36.377Z</time></trkpt><trkpt lat="45.5525351" lon="11.1844218"><ele>756.3333333333334</ele><time>2026-04-06T12:21:39.375Z</time></trkpt><trkpt lat="45.5524741" lon="11.1844879"><ele>756.0</ele><time>2026-04-06T12:21:42.369Z</time></trkpt><trkpt lat="45.5524054" lon="11.1845575"><ele>755.6666666666666</ele><time>2026-04-06T12:21:44.378Z</time></trkpt><trkpt lat="45.5523799" lon="11.1846839"><ele>755.3333333333333</ele><time>2026-04-06T12:21:45.378Z</time></trkpt><trkpt lat="45.5523267" lon="11.1847673"><ele>755.0</ele><time>2026-04-06T12:21:47.377Z</time></trkpt><trkpt lat="45.5523065" lon="11.1848569"><ele>755.0</ele><time>2026-04-06T12:21:49.382Z</time></trkpt><trkpt lat="45.5522474" lon="11.1849087"><ele>755.0</ele><time>2026-04-06T12:21:51.384Z</time></trkpt><trkpt lat="45.5521875" lon="11.1849738"><ele>755.0</ele><time>2026-04-06T12:21:53.377Z</time></trkpt><trkpt lat="45.5521352" lon="11.1850656"><ele>755.0</ele><time>2026-04-06T12:21:55.377Z</time></trkpt><trkpt lat="45.5520642" lon="11.1852337"><ele>755.0</ele><time>2026-04-06T12:21:57.377Z</time></trkpt><trkpt lat="45.5519879" lon="11.1853355"><ele>749.6666666666666</ele><time>2026-04-06T12:21:59.388Z</time></trkpt><trkpt lat="45.5518961" lon="11.1853969"><ele>744.3333333333333</ele><time>2026-04-06T12:22:01.391Z</time></trkpt><trkpt lat="45.5518473" lon="11.1854928"><ele>739.0</ele><time>2026-04-06T12:22:03.415Z</time></trkpt><trkpt lat="45.55182" lon="11.185604"><ele>733.6666666666666</ele><time>2026-04-06T12:22:05.403Z</time></trkpt><trkpt lat="45.5518222" lon="11.1857332"><ele>728.3333333333334</ele><time>2026-04-06T12:22:07.383Z</time></trkpt><trkpt lat="45.5518428" lon="11.1858343"><ele>723.0</ele><time>2026-04-06T12:22:09.39Z</time></trkpt><trkpt lat="45.5518728" lon="11.1859571"><ele>723.0</ele><time>2026-04-06T12:22:12.601Z</time></trkpt><trkpt lat="45.5518985" lon="11.1860656"><ele>723.0</ele><time>2026-04-06T12:22:14.385Z</time></trkpt><trkpt lat="45.5519236" lon="11.1861709"><ele>723.0</ele><time>2026-04-06T12:22:16.367Z</time></trkpt><trkpt lat="45.551951" lon="11.1862641"><ele>723.0</ele><time>2026-04-06T12:22:19.379Z</time></trkpt><trkpt lat="45.5519738" lon="11.1863816"><ele>723.0</ele><time>2026-04-06T12:22:22.38Z</time></trkpt><trkpt lat="45.5520081" lon="11.1864616"><ele>723.0</ele><time>2026-04-06T12:22:24.383Z</time></trkpt><trkpt lat="45.5520579" lon="11.1865486"><ele>724.6666666666666</ele><time>2026-04-06T12:22:26.428Z</time></trkpt><trkpt lat="45.5521414" lon="11.1866741"><ele>726.3333333333334</ele><time>2026-04-06T12:22:28.384Z</time></trkpt><trkpt lat="45.5521675" lon="11.1867765"><ele>728.0</ele><time>2026-04-06T12:22:30.386Z</time></trkpt><trkpt lat="45.5522272" lon="11.186876"><ele>729.6666666666667</ele><time>2026-04-06T12:22:33.629Z</time></trkpt><trkpt lat="45.5522852" lon="11.1869365"><ele>731.3333333333334</ele><time>2026-04-06T12:22:35.376Z</time></trkpt><trkpt lat="45.5523543" lon="11.1869792"><ele>733.0</ele><time>2026-04-06T12:22:37.429Z</time></trkpt><trkpt lat="45.5524515" lon="11.1870553"><ele>733.0</ele><time>2026-04-06T12:22:39.385Z</time></trkpt><trkpt lat="45.5525606" lon="11.1871237"><ele>733.0</ele><time>2026-04-06T12:22:41.449Z</time></trkpt><trkpt lat="45.5526468" lon="11.1871952"><ele>733.0</ele><time>2026-04-06T12:22:43.447Z</time></trkpt><trkpt lat="45.5527362" lon="11.1872478"><ele>733.0</ele><time>2026-04-06T12:22:45.415Z</time></trkpt><trkpt lat="45.5529733" lon="11.1873074"><ele>729.8</ele><time>2026-04-06T12:22:59.376Z</time></trkpt><trkpt lat="45.5531187" lon="11.187345"><ele>726.5999999999999</ele><time>2026-04-06T12:23:02.379Z</time></trkpt><trkpt lat="45.5531942" lon="11.1874146"><ele>723.4000000000001</ele><time>2026-04-06T12:23:04.378Z</time></trkpt><trkpt lat="45.553208" lon="11.1875576"><ele>720.2</ele><time>2026-04-06T12:23:05.406Z</time></trkpt><trkpt lat="45.553235" lon="11.1876503"><ele>717.0</ele><time>2026-04-06T12:23:06.425Z</time></trkpt><trkpt lat="45.5532716" lon="11.1877403"><ele>717.0</ele><time>2026-04-06T12:23:07.397Z</time></trkpt><trkpt lat="45.5533098" lon="11.1878424"><ele>717.0</ele><time>2026-04-06T12:23:08.417Z</time></trkpt><trkpt lat="45.5533526" lon="11.1879359"><ele>717.0</ele><time>2026-04-06T12:23:09.41Z</time></trkpt><trkpt lat="45.5533937" lon="11.188034"><ele>717.0</ele><time>2026-04-06T12:23:10.407Z</time></trkpt><trkpt lat="45.5534572" lon="11.1881269"><ele>717.0</ele><time>2026-04-06T12:23:11.414Z</time></trkpt><trkpt lat="45.5535142" lon="11.1882346"><ele>717.0</ele><time>2026-04-06T12:23:12.397Z</time></trkpt><trkpt lat="45.55357" lon="11.1883362"><ele>719.6666666666666</ele><time>2026-04-06T12:23:13.412Z</time></trkpt><trkpt lat="45.5536158" lon="11.1884609"><ele>722.3333333333334</ele><time>2026-04-06T12:23:14.411Z</time></trkpt><trkpt lat="45.5536571" lon="11.1885889"><ele>725.0</ele><time>2026-04-06T12:23:15.374Z</time></trkpt><trkpt lat="45.5536839" lon="11.1887184"><ele>727.6666666666667</ele><time>2026-04-06T12:23:16.377Z</time></trkpt><trkpt lat="45.5536948" lon="11.1888108"><ele>730.3333333333334</ele><time>2026-04-06T12:23:17.379Z</time></trkpt><trkpt lat="45.5537136" lon="11.1889129"><ele>733.0</ele><time>2026-04-06T12:23:19.37Z</time></trkpt><trkpt lat="45.5537037" lon="11.1888157"><ele>730.7142857142857</ele><time>2026-04-06T12:24:11.372Z</time></trkpt><trkpt lat="45.5536996" lon="11.1887242"><ele>728.4285714285714</ele><time>2026-04-06T12:24:16.38Z</time></trkpt><trkpt lat="45.5536833" lon="11.1886362"><ele>726.1428571428571</ele><time>2026-04-06T12:24:29.9Z</time></trkpt><trkpt lat="45.553663" lon="11.1885271"><ele>723.8571428571429</ele><time>2026-04-06T12:24:39.381Z</time></trkpt><trkpt lat="45.553643" lon="11.1884138"><ele>721.5714285714286</ele><time>2026-04-06T12:24:42.385Z</time></trkpt><trkpt lat="45.553624" lon="11.188309"><ele>719.2857142857142</ele><time>2026-04-06T12:24:44.389Z</time></trkpt><trkpt lat="45.5535922" lon="11.1882062"><ele>717.0</ele><time>2026-04-06T12:24:46.402Z</time></trkpt><trkpt lat="45.5535518" lon="11.1881208"><ele>717.0</ele><time>2026-04-06T12:24:48.385Z</time></trkpt><trkpt lat="45.5535126" lon="11.1880478"><ele>717.0</ele><time>2026-04-06T12:24:50.386Z</time></trkpt><trkpt lat="45.5534697" lon="11.1879621"><ele>717.0</ele><time>2026-04-06T12:24:53.388Z</time></trkpt><trkpt lat="45.5534075" lon="11.1878123"><ele>717.0</ele><time>2026-04-06T12:24:57.379Z</time></trkpt><trkpt lat="45.5533802" lon="11.1877217"><ele>717.0</ele><time>2026-04-06T12:25:01.376Z</time></trkpt><trkpt lat="45.5533429" lon="11.1876441"><ele>717.0</ele><time>2026-04-06T12:25:05.37Z</time></trkpt><trkpt lat="45.5532921" lon="11.1875556"><ele>717.0</ele><time>2026-04-06T12:25:09.384Z</time></trkpt><trkpt lat="45.5532559" lon="11.1874516"><ele>717.0</ele><time>2026-04-06T12:25:13.43Z</time></trkpt><trkpt lat="45.5532166" lon="11.1873615"><ele>717.0</ele><time>2026-04-06T12:25:17.421Z</time></trkpt><trkpt lat="45.553156" lon="11.1872951"><ele>717.0</ele><time>2026-04-06T12:25:21.425Z</time></trkpt><trkpt lat="45.5530851" lon="11.1872666"><ele>717.0</ele><time>2026-04-06T12:25:25.379Z</time></trkpt><trkpt lat="45.5530112" lon="11.1872872"><ele>717.0</ele><time>2026-04-06T12:25:31.379Z</time></trkpt><trkpt lat="45.5529411" lon="11.1873169"><ele>714.6</ele><time>2026-04-06T12:25:34.386Z</time></trkpt><trkpt lat="45.5528725" lon="11.1873526"><ele>712.2</ele><time>2026-04-06T12:25:36.38Z</time></trkpt><trkpt lat="45.5527779" lon="11.1873848"><ele>709.8</ele><time>2026-04-06T12:25:38.384Z</time></trkpt><trkpt lat="45.5526493" lon="11.1874195"><ele>707.4</ele><time>2026-04-06T12:25:40.381Z</time></trkpt><trkpt lat="45.5525297" lon="11.1874749"><ele>705.0</ele><time>2026-04-06T12:25:42.385Z</time></trkpt><trkpt lat="45.5524645" lon="11.187512"><ele>705.0</ele><time>2026-04-06T12:25:43.393Z</time></trkpt><trkpt lat="45.5523529" lon="11.1875451"><ele>705.0</ele><time>2026-04-06T12:25:45.372Z</time></trkpt><trkpt lat="45.5522427" lon="11.1875838"><ele>705.0</ele><time>2026-04-06T12:25:47.379Z</time></trkpt><trkpt lat="45.5521836" lon="11.1876174"><ele>705.0</ele><time>2026-04-06T12:25:48.402Z</time></trkpt><trkpt lat="45.552074" lon="11.1876684"><ele>705.0</ele><time>2026-04-06T12:25:50.38Z</time></trkpt><trkpt lat="45.5519852" lon="11.1877211"><ele>704.6666666666666</ele><time>2026-04-06T12:25:52.388Z</time></trkpt><trkpt lat="45.5519095" lon="11.1877552"><ele>704.3333333333334</ele><time>2026-04-06T12:25:54.376Z</time></trkpt><trkpt lat="45.55184" lon="11.1878072"><ele>704.0</ele><time>2026-04-06T12:25:57.417Z</time></trkpt><trkpt lat="45.5517697" lon="11.1878084"><ele>703.6666666666667</ele><time>2026-04-06T12:26:00.376Z</time></trkpt><trkpt lat="45.5516741" lon="11.1878048"><ele>703.3333333333334</ele><time>2026-04-06T12:26:03.38Z</time></trkpt><trkpt lat="45.551592" lon="11.1878486"><ele>703.0</ele><time>2026-04-06T12:26:05.369Z</time></trkpt><trkpt lat="45.5515263" lon="11.187969"><ele>703.0</ele><time>2026-04-06T12:26:07.38Z</time></trkpt><trkpt lat="45.55148" lon="11.1880547"><ele>703.0</ele><time>2026-04-06T12:26:09.375Z</time></trkpt><trkpt lat="45.551424" lon="11.1881439"><ele>703.0</ele><time>2026-04-06T12:26:11.378Z</time></trkpt><trkpt lat="45.5513748" lon="11.188226"><ele>703.0</ele><time>2026-04-06T12:26:13.384Z</time></trkpt><trkpt lat="45.5513116" lon="11.1883136"><ele>703.0</ele><time>2026-04-06T12:26:16.376Z</time></trkpt><trkpt lat="45.5512557" lon="11.1883992"><ele>703.0</ele><time>2026-04-06T12:26:19.385Z</time></trkpt><trkpt lat="45.5512041" lon="11.18848"><ele>702.5</ele><time>2026-04-06T12:26:22.375Z</time></trkpt><trkpt lat="45.5511358" lon="11.188538"><ele>702.0</ele><time>2026-04-06T12:26:25.379Z</time></trkpt><trkpt lat="45.5510679" lon="11.1885748"><ele>701.5</ele><time>2026-04-06T12:26:27.379Z</time></trkpt><trkpt lat="45.5509952" lon="11.1886116"><ele>701.0</ele><time>2026-04-06T12:26:29.375Z</time></trkpt><trkpt lat="45.5509308" lon="11.1886366"><ele>700.5</ele><time>2026-04-06T12:26:31.379Z</time></trkpt><trkpt lat="45.5508529" lon="11.1886528"><ele>700.0</ele><time>2026-04-06T12:26:33.387Z</time></trkpt><trkpt lat="45.5507634" lon="11.1886385"><ele>700.0</ele><time>2026-04-06T12:26:35.378Z</time></trkpt><trkpt lat="45.5506827" lon="11.1886321"><ele>700.0</ele><time>2026-04-06T12:26:37.416Z</time></trkpt><trkpt lat="45.5505963" lon="11.1886017"><ele>700.0</ele><time>2026-04-06T12:26:39.381Z</time></trkpt><trkpt lat="45.5504944" lon="11.1885883"><ele>700.0</ele><time>2026-04-06T12:26:41.384Z</time></trkpt><trkpt lat="45.5503856" lon="11.1885853"><ele>700.0</ele><time>2026-04-06T12:26:43.386Z</time></trkpt><trkpt lat="45.5502619" lon="11.1885818"><ele>699.0</ele><time>2026-04-06T12:26:45.412Z</time></trkpt><trkpt lat="45.5501881" lon="11.1885889"><ele>698.0</ele><time>2026-04-06T12:26:46.384Z</time></trkpt><trkpt lat="45.5500608" lon="11.1886058"><ele>697.0</ele><time>2026-04-06T12:26:48.382Z</time></trkpt><trkpt lat="45.5499741" lon="11.1886224"><ele>696.0</ele><time>2026-04-06T12:26:49.385Z</time></trkpt><trkpt lat="45.5498941" lon="11.188655"><ele>695.0</ele><time>2026-04-06T12:26:50.383Z</time></trkpt><trkpt lat="45.5498236" lon="11.1886568"><ele>694.0</ele><time>2026-04-06T12:26:51.385Z</time></trkpt><trkpt lat="45.5497674" lon="11.1887286"><ele>694.0</ele><time>2026-04-06T12:26:52.381Z</time></trkpt><trkpt lat="45.5496889" lon="11.1887811"><ele>694.0</ele><time>2026-04-06T12:26:53.386Z</time></trkpt><trkpt lat="45.5496311" lon="11.1888428"><ele>694.0</ele><time>2026-04-06T12:26:54.392Z</time></trkpt><trkpt lat="45.5495616" lon="11.1889026"><ele>694.0</ele><time>2026-04-06T12:26:55.454Z</time></trkpt><trkpt lat="45.5494574" lon="11.1890062"><ele>694.0</ele><time>2026-04-06T12:26:57.38Z</time></trkpt><trkpt lat="45.5494016" lon="11.1890638"><ele>694.0</ele><time>2026-04-06T12:26:58.385Z</time></trkpt><trkpt lat="45.5493512" lon="11.1891257"><ele>691.1666666666667</ele><time>2026-04-06T12:26:59.381Z</time></trkpt><trkpt lat="45.5493087" lon="11.1891946"><ele>688.3333333333334</ele><time>2026-04-06T12:27:00.39Z</time></trkpt><trkpt lat="45.5492052" lon="11.1893112"><ele>685.5</ele><time>2026-04-06T12:27:02.385Z</time></trkpt><trkpt lat="45.5491371" lon="11.1893672"><ele>682.6666666666666</ele><time>2026-04-06T12:27:03.399Z</time></trkpt><trkpt lat="45.5490722" lon="11.1894007"><ele>679.8333333333333</ele><time>2026-04-06T12:27:04.388Z</time></trkpt><trkpt lat="45.5490049" lon="11.18944"><ele>677.0</ele><time>2026-04-06T12:27:05.382Z</time></trkpt><trkpt lat="45.5489324" lon="11.1894736"><ele>677.0</ele><time>2026-04-06T12:27:06.483Z</time></trkpt><trkpt lat="45.5488676" lon="11.1895087"><ele>677.0</ele><time>2026-04-06T12:27:07.427Z</time></trkpt><trkpt lat="45.548757" lon="11.1895944"><ele>677.0</ele><time>2026-04-06T12:27:09.398Z</time></trkpt><trkpt lat="45.5486929" lon="11.1896272"><ele>677.0</ele><time>2026-04-06T12:27:10.379Z</time></trkpt><trkpt lat="45.5486259" lon="11.1896339"><ele>677.0</ele><time>2026-04-06T12:27:11.383Z</time></trkpt><trkpt lat="45.5485641" lon="11.1896133"><ele>677.0</ele><time>2026-04-06T12:27:12.379Z</time></trkpt><trkpt lat="45.5484624" lon="11.1896108"><ele>674.3333333333333</ele><time>2026-04-06T12:27:14.378Z</time></trkpt><trkpt lat="45.5483541" lon="11.1895882"><ele>671.6666666666666</ele><time>2026-04-06T12:27:16.419Z</time></trkpt><trkpt lat="45.5482601" lon="11.1895625"><ele>669.0</ele><time>2026-04-06T12:27:17.406Z</time></trkpt><trkpt lat="45.5481819" lon="11.1895733"><ele>666.3333333333334</ele><time>2026-04-06T12:27:18.457Z</time></trkpt><trkpt lat="45.5481108" lon="11.1895628"><ele>663.6666666666667</ele><time>2026-04-06T12:27:19.414Z</time></trkpt><trkpt lat="45.5480384" lon="11.1895923"><ele>661.0</ele><time>2026-04-06T12:27:20.441Z</time></trkpt><trkpt lat="45.54796" lon="11.1896437"><ele>661.0</ele><time>2026-04-06T12:27:21.405Z</time></trkpt><trkpt lat="45.5478992" lon="11.1897051"><ele>661.0</ele><time>2026-04-06T12:27:22.478Z</time></trkpt><trkpt lat="45.5478344" lon="11.1897594"><ele>661.0</ele><time>2026-04-06T12:27:23.382Z</time></trkpt><trkpt lat="45.5477421" lon="11.1898263"><ele>661.0</ele><time>2026-04-06T12:27:24.386Z</time></trkpt><trkpt lat="45.5476639" lon="11.1898721"><ele>661.0</ele><time>2026-04-06T12:27:25.374Z</time></trkpt><trkpt lat="45.547578" lon="11.1899408"><ele>661.0</ele><time>2026-04-06T12:27:26.384Z</time></trkpt><trkpt lat="45.5474858" lon="11.1900171"><ele>659.4</ele><time>2026-04-06T12:27:27.442Z</time></trkpt><trkpt lat="45.5474027" lon="11.1900518"><ele>657.8</ele><time>2026-04-06T12:27:28.426Z</time></trkpt><trkpt lat="45.5473015" lon="11.1901143"><ele>656.1999999999999</ele><time>2026-04-06T12:27:29.374Z</time></trkpt><trkpt lat="45.5472208" lon="11.1901853"><ele>654.5999999999999</ele><time>2026-04-06T12:27:30.382Z</time></trkpt><trkpt lat="45.5471362" lon="11.1902323"><ele>653.0</ele><time>2026-04-06T12:27:31.382Z</time></trkpt><trkpt lat="45.5470685" lon="11.1902506"><ele>651.8333333333333</ele><time>2026-04-06T12:27:32.382Z</time></trkpt><trkpt lat="45.5469829" lon="11.1902886"><ele>650.6666666666666</ele><time>2026-04-06T12:27:33.38Z</time></trkpt><trkpt lat="45.5469024" lon="11.1903463"><ele>649.5</ele><time>2026-04-06T12:27:34.38Z</time></trkpt><trkpt lat="45.5468257" lon="11.1904066"><ele>648.3333333333334</ele><time>2026-04-06T12:27:35.382Z</time></trkpt><trkpt lat="45.5467471" lon="11.1904787"><ele>647.1666666666667</ele><time>2026-04-06T12:27:36.38Z</time></trkpt><trkpt lat="45.5466899" lon="11.190537"><ele>646.0</ele><time>2026-04-06T12:27:37.377Z</time></trkpt><trkpt lat="45.546592" lon="11.1905758"><ele>646.0</ele><time>2026-04-06T12:27:39.381Z</time></trkpt><trkpt lat="45.5465237" lon="11.1906023"><ele>646.0</ele><time>2026-04-06T12:27:41.374Z</time></trkpt><trkpt lat="45.54644" lon="11.190642"><ele>646.0</ele><time>2026-04-06T12:27:44.38Z</time></trkpt><trkpt lat="45.546353" lon="11.1906957"><ele>646.0</ele><time>2026-04-06T12:27:47.379Z</time></trkpt><trkpt lat="45.5462788" lon="11.1907084"><ele>646.0</ele><time>2026-04-06T12:27:49.371Z</time></trkpt><trkpt lat="45.5462106" lon="11.1907452"><ele>646.0</ele><time>2026-04-06T12:27:52.375Z</time></trkpt><trkpt lat="45.5461501" lon="11.1907926"><ele>649.1666666666667</ele><time>2026-04-06T12:27:55.379Z</time></trkpt><trkpt lat="45.5460838" lon="11.1908247"><ele>652.3333333333334</ele><time>2026-04-06T12:27:59.382Z</time></trkpt><trkpt lat="45.5460201" lon="11.1908548"><ele>655.5</ele><time>2026-04-06T12:28:01.378Z</time></trkpt><trkpt lat="45.545955" lon="11.1908811"><ele>658.6666666666666</ele><time>2026-04-06T12:28:03.376Z</time></trkpt><trkpt lat="45.5458872" lon="11.1909344"><ele>661.8333333333333</ele><time>2026-04-06T12:28:06.392Z</time></trkpt><trkpt lat="45.5458205" lon="11.1909944"><ele>665.0</ele><time>2026-04-06T12:28:09.379Z</time></trkpt><trkpt lat="45.5457342" lon="11.1910437"><ele>665.0</ele><time>2026-04-06T12:28:12.38Z</time></trkpt><trkpt lat="45.5456688" lon="11.1910834"><ele>665.0</ele><time>2026-04-06T12:28:14.384Z</time></trkpt><trkpt lat="45.5456019" lon="11.1911198"><ele>665.0</ele><time>2026-04-06T12:28:16.382Z</time></trkpt><trkpt lat="45.545525" lon="11.1911538"><ele>665.0</ele><time>2026-04-06T12:28:18.378Z</time></trkpt><trkpt lat="45.5454243" lon="11.1911534"><ele>665.0</ele><time>2026-04-06T12:28:21.385Z</time></trkpt><trkpt lat="45.5453148" lon="11.191131"><ele>665.0</ele><time>2026-04-06T12:28:23.379Z</time></trkpt><trkpt lat="45.5452253" lon="11.1911232"><ele>665.0</ele><time>2026-04-06T12:28:25.378Z</time></trkpt><trkpt lat="45.5451455" lon="11.1911164"><ele>665.0</ele><time>2026-04-06T12:28:27.38Z</time></trkpt><trkpt lat="45.5450624" lon="11.1910873"><ele>665.0</ele><time>2026-04-06T12:28:29.38Z</time></trkpt><trkpt lat="45.5449987" lon="11.1910644"><ele>665.0</ele><time>2026-04-06T12:28:31.375Z</time></trkpt><trkpt lat="45.5449182" lon="11.191006"><ele>665.0</ele><time>2026-04-06T12:28:34.374Z</time></trkpt><trkpt lat="45.5448295" lon="11.1909804"><ele>665.0</ele><time>2026-04-06T12:28:37.379Z</time></trkpt><trkpt lat="45.5447399" lon="11.1909678"><ele>665.0</ele><time>2026-04-06T12:28:40.379Z</time></trkpt><trkpt lat="45.5446471" lon="11.1909445"><ele>665.0</ele><time>2026-04-06T12:28:43.379Z</time></trkpt><trkpt lat="45.5445571" lon="11.1909091"><ele>665.0</ele><time>2026-04-06T12:28:46.394Z</time></trkpt><trkpt lat="45.5444718" lon="11.1909062"><ele>665.0</ele><time>2026-04-06T12:28:49.38Z</time></trkpt><trkpt lat="45.5444076" lon="11.190915"><ele>665.0</ele><time>2026-04-06T12:28:51.378Z</time></trkpt><trkpt lat="45.5443399" lon="11.1909293"><ele>665.0</ele><time>2026-04-06T12:28:54.378Z</time></trkpt><trkpt lat="45.5442648" lon="11.1909692"><ele>664.5</ele><time>2026-04-06T12:28:56.382Z</time></trkpt><trkpt lat="45.5442008" lon="11.1910156"><ele>664.0</ele><time>2026-04-06T12:28:58.377Z</time></trkpt><trkpt lat="45.5441172" lon="11.1910662"><ele>663.5</ele><time>2026-04-06T12:29:00.38Z</time></trkpt><trkpt lat="45.5440469" lon="11.1910876"><ele>663.0</ele><time>2026-04-06T12:29:01.383Z</time></trkpt><trkpt lat="45.5439457" lon="11.1911562"><ele>662.5</ele><time>2026-04-06T12:29:03.42Z</time></trkpt><trkpt lat="45.5438761" lon="11.1912039"><ele>662.0</ele><time>2026-04-06T12:29:04.381Z</time></trkpt><trkpt lat="45.5438111" lon="11.1912735"><ele>662.0</ele><time>2026-04-06T12:29:05.436Z</time></trkpt><trkpt lat="45.5437419" lon="11.1912932"><ele>662.0</ele><time>2026-04-06T12:29:06.381Z</time></trkpt><trkpt lat="45.5436739" lon="11.1913192"><ele>662.0</ele><time>2026-04-06T12:29:07.379Z</time></trkpt><trkpt lat="45.543547" lon="11.191385"><ele>662.0</ele><time>2026-04-06T12:29:09.385Z</time></trkpt><trkpt lat="45.543482" lon="11.1914337"><ele>662.0</ele><time>2026-04-06T12:29:10.383Z</time></trkpt><trkpt lat="45.5433485" lon="11.1914589"><ele>659.8333333333333</ele><time>2026-04-06T12:29:12.386Z</time></trkpt><trkpt lat="45.5432641" lon="11.1914507"><ele>657.6666666666666</ele><time>2026-04-06T12:29:13.383Z</time></trkpt><trkpt lat="45.5432016" lon="11.191421"><ele>655.5</ele><time>2026-04-06T12:29:14.392Z</time></trkpt><trkpt lat="45.5431232" lon="11.1914429"><ele>653.3333333333334</ele><time>2026-04-06T12:29:16.383Z</time></trkpt><trkpt lat="45.5430091" lon="11.1914026"><ele>651.1666666666667</ele><time>2026-04-06T12:29:20.486Z</time></trkpt><trkpt lat="45.5429267" lon="11.191384"><ele>649.0</ele><time>2026-04-06T12:29:22.429Z</time></trkpt><trkpt lat="45.5428107" lon="11.1913724"><ele>649.6666666666667</ele><time>2026-04-06T12:29:24.382Z</time></trkpt><trkpt lat="45.5427128" lon="11.1913783"><ele>650.3333333333334</ele><time>2026-04-06T12:29:26.39Z</time></trkpt><trkpt lat="45.5426496" lon="11.1914022"><ele>651.0</ele><time>2026-04-06T12:29:27.375Z</time></trkpt><trkpt lat="45.542576" lon="11.1914843"><ele>651.6666666666666</ele><time>2026-04-06T12:29:29.38Z</time></trkpt><trkpt lat="45.5425165" lon="11.1915304"><ele>652.3333333333333</ele><time>2026-04-06T12:29:30.498Z</time></trkpt><trkpt lat="45.5424652" lon="11.1915961"><ele>653.0</ele><time>2026-04-06T12:29:31.461Z</time></trkpt><trkpt lat="45.5424255" lon="11.1916786"><ele>653.0</ele><time>2026-04-06T12:29:32.395Z</time></trkpt><trkpt lat="45.5423794" lon="11.1917458"><ele>653.0</ele><time>2026-04-06T12:29:33.496Z</time></trkpt><trkpt lat="45.5422612" lon="11.1918388"><ele>653.0</ele><time>2026-04-06T12:29:35.486Z</time></trkpt><trkpt lat="45.5421622" lon="11.1918899"><ele>653.0</ele><time>2026-04-06T12:29:37.433Z</time></trkpt><trkpt lat="45.5420943" lon="11.1919358"><ele>653.0</ele><time>2026-04-06T12:29:38.423Z</time></trkpt><trkpt lat="45.5420289" lon="11.1919727"><ele>651.3333333333333</ele><time>2026-04-06T12:29:39.411Z</time></trkpt><trkpt lat="45.5419647" lon="11.1920258"><ele>649.6666666666666</ele><time>2026-04-06T12:29:40.405Z</time></trkpt><trkpt lat="45.5419005" lon="11.1920596"><ele>648.0</ele><time>2026-04-06T12:29:41.46Z</time></trkpt><trkpt lat="45.541785" lon="11.1921255"><ele>646.3333333333334</ele><time>2026-04-06T12:29:43.385Z</time></trkpt><trkpt lat="45.5417226" lon="11.1921441"><ele>644.6666666666667</ele><time>2026-04-06T12:29:44.419Z</time></trkpt><trkpt lat="45.5416128" lon="11.1921482"><ele>643.0</ele><time>2026-04-06T12:29:46.421Z</time></trkpt><trkpt lat="45.5415373" lon="11.1921374"><ele>643.0</ele><time>2026-04-06T12:29:48.375Z</time></trkpt><trkpt lat="45.5414491" lon="11.1921651"><ele>643.0</ele><time>2026-04-06T12:29:50.385Z</time></trkpt><trkpt lat="45.5413649" lon="11.1922095"><ele>643.0</ele><time>2026-04-06T12:29:52.424Z</time></trkpt><trkpt lat="45.541271" lon="11.192253"><ele>643.0</ele><time>2026-04-06T12:29:54.418Z</time></trkpt><trkpt lat="45.5411723" lon="11.1923011"><ele>643.0</ele><time>2026-04-06T12:29:56.414Z</time></trkpt><trkpt lat="45.5410687" lon="11.1923174"><ele>644.4</ele><time>2026-04-06T12:29:58.401Z</time></trkpt><trkpt lat="45.5409761" lon="11.1923483"><ele>645.8</ele><time>2026-04-06T12:30:00.483Z</time></trkpt><trkpt lat="45.5408684" lon="11.1924148"><ele>647.2</ele><time>2026-04-06T12:30:02.45Z</time></trkpt><trkpt lat="45.5407525" lon="11.1925265"><ele>648.6</ele><time>2026-04-06T12:30:04.414Z</time></trkpt><trkpt lat="45.5407061" lon="11.1926004"><ele>650.0</ele><time>2026-04-06T12:30:05.4Z</time></trkpt><trkpt lat="45.5406257" lon="11.1927075"><ele>650.0</ele><time>2026-04-06T12:30:07.492Z</time></trkpt><trkpt lat="45.540521" lon="11.1927284"><ele>650.0</ele><time>2026-04-06T12:30:09.406Z</time></trkpt><trkpt lat="45.5404037" lon="11.1926599"><ele>650.0</ele><time>2026-04-06T12:30:12.383Z</time></trkpt><trkpt lat="45.5403229" lon="11.1925979"><ele>650.0</ele><time>2026-04-06T12:30:15.464Z</time></trkpt><trkpt lat="45.5402639" lon="11.192565"><ele>650.0</ele><time>2026-04-06T12:30:17.381Z</time></trkpt><trkpt lat="45.5401868" lon="11.1925417"><ele>649.1428571428571</ele><time>2026-04-06T12:30:19.466Z</time></trkpt><trkpt lat="45.5401017" lon="11.192516"><ele>648.2857142857143</ele><time>2026-04-06T12:30:22.438Z</time></trkpt><trkpt lat="45.5400309" lon="11.192485"><ele>647.4285714285714</ele><time>2026-04-06T12:30:24.421Z</time></trkpt><trkpt lat="45.5399705" lon="11.1924554"><ele>646.5714285714286</ele><time>2026-04-06T12:30:26.429Z</time></trkpt><trkpt lat="45.5399071" lon="11.1924274"><ele>645.7142857142858</ele><time>2026-04-06T12:30:28.415Z</time></trkpt><trkpt lat="45.5398432" lon="11.1924077"><ele>644.8571428571429</ele><time>2026-04-06T12:30:30.408Z</time></trkpt><trkpt lat="45.539771" lon="11.1923671"><ele>644.0</ele><time>2026-04-06T12:30:34.426Z</time></trkpt><trkpt lat="45.5397187" lon="11.192442"><ele>644.0</ele><time>2026-04-06T12:30:43.486Z</time></trkpt><trkpt lat="45.5396569" lon="11.1924681"><ele>644.0</ele><time>2026-04-06T12:30:49.412Z</time></trkpt><trkpt lat="45.5395989" lon="11.192507"><ele>644.0</ele><time>2026-04-06T12:30:56.377Z</time></trkpt><trkpt lat="45.5395352" lon="11.1925317"><ele>644.0</ele><time>2026-04-06T12:31:02.376Z</time></trkpt><trkpt lat="45.5394808" lon="11.1925863"><ele>644.0</ele><time>2026-04-06T12:31:08.476Z</time></trkpt><trkpt lat="45.5394321" lon="11.1926447"><ele>644.0</ele><time>2026-04-06T12:31:12.431Z</time></trkpt><trkpt lat="45.5393868" lon="11.1927221"><ele>644.0</ele><time>2026-04-06T12:31:16.432Z</time></trkpt><trkpt lat="45.5394256" lon="11.1927994"><ele>644.0</ele><time>2026-04-06T12:31:24.402Z</time></trkpt><trkpt lat="45.5394947" lon="11.1928084"><ele>644.0</ele><time>2026-04-06T12:31:30.399Z</time></trkpt><trkpt lat="45.539561" lon="11.1928264"><ele>644.0</ele><time>2026-04-06T12:31:40.372Z</time></trkpt><trkpt lat="45.539627" lon="11.1928282"><ele>644.0</ele><time>2026-04-06T12:31:47.42Z</time></trkpt><trkpt lat="45.5396913" lon="11.1928679"><ele>644.0</ele><time>2026-04-06T12:31:55.418Z</time></trkpt><trkpt lat="45.5397612" lon="11.1929152"><ele>644.0</ele><time>2026-04-06T12:32:02.387Z</time></trkpt><trkpt lat="45.5398276" lon="11.1929533"><ele>644.0</ele><time>2026-04-06T12:32:10.377Z</time></trkpt><trkpt lat="45.5398674" lon="11.1930266"><ele>644.0</ele><time>2026-04-06T12:32:15.376Z</time></trkpt><trkpt lat="45.5399213" lon="11.1930959"><ele>644.0</ele><time>2026-04-06T12:32:22.39Z</time></trkpt><trkpt lat="45.5399847" lon="11.1931554"><ele>644.0</ele><time>2026-04-06T12:32:32.383Z</time></trkpt><trkpt lat="45.5400317" lon="11.1932211"><ele>644.0</ele><time>2026-04-06T12:32:36.377Z</time></trkpt><trkpt lat="45.5400521" lon="11.1933069"><ele>644.0</ele><time>2026-04-06T12:32:40.408Z</time></trkpt><trkpt lat="45.5401125" lon="11.1933678"><ele>644.0</ele><time>2026-04-06T12:32:46.375Z</time></trkpt><trkpt lat="45.5401693" lon="11.1934362"><ele>644.0</ele><time>2026-04-06T12:32:53.374Z</time></trkpt><trkpt lat="45.5402063" lon="11.1935181"><ele>647.1428571428571</ele><time>2026-04-06T12:32:57.429Z</time></trkpt><trkpt lat="45.5402401" lon="11.1936189"><ele>650.2857142857142</ele><time>2026-04-06T12:33:02.38Z</time></trkpt><trkpt lat="45.540273" lon="11.1936969"><ele>653.4285714285714</ele><time>2026-04-06T12:33:08.431Z</time></trkpt><trkpt lat="45.5402917" lon="11.1937849"><ele>656.5714285714286</ele><time>2026-04-06T12:33:15.434Z</time></trkpt><trkpt lat="45.5403186" lon="11.1938858"><ele>659.7142857142857</ele><time>2026-04-06T12:33:23.37Z</time></trkpt><trkpt lat="45.5403308" lon="11.193989"><ele>662.8571428571429</ele><time>2026-04-06T12:33:28.386Z</time></trkpt><trkpt lat="45.5403327" lon="11.1940941"><ele>666.0</ele><time>2026-04-06T12:33:34.433Z</time></trkpt><trkpt lat="45.5403458" lon="11.1941908"><ele>669.5</ele><time>2026-04-06T12:33:42.376Z</time></trkpt><trkpt lat="45.5402893" lon="11.1941319"><ele>673.0</ele><time>2026-04-06T12:34:05.376Z</time></trkpt><trkpt lat="45.5402098" lon="11.1940972"><ele>676.5</ele><time>2026-04-06T12:34:14.377Z</time></trkpt><trkpt lat="45.5401354" lon="11.1941"><ele>680.0</ele><time>2026-04-06T12:34:20.384Z</time></trkpt><trkpt lat="45.5400502" lon="11.1941073"><ele>683.5</ele><time>2026-04-06T12:34:23.38Z</time></trkpt><trkpt lat="45.5399689" lon="11.1941208"><ele>687.0</ele><time>2026-04-06T12:34:25.383Z</time></trkpt><trkpt lat="45.5398757" lon="11.1941451"><ele>687.0</ele><time>2026-04-06T12:34:28.392Z</time></trkpt><trkpt lat="45.5397825" lon="11.1941321"><ele>687.0</ele><time>2026-04-06T12:34:29.382Z</time></trkpt><trkpt lat="45.5396713" lon="11.194163"><ele>687.0</ele><time>2026-04-06T12:34:31.382Z</time></trkpt><trkpt lat="45.5395397" lon="11.1942354"><ele>687.0</ele><time>2026-04-06T12:34:33.417Z</time></trkpt><trkpt lat="45.5394704" lon="11.194281"><ele>687.0</ele><time>2026-04-06T12:34:34.404Z</time></trkpt><trkpt lat="45.5394083" lon="11.1943197"><ele>686.0</ele><time>2026-04-06T12:34:35.439Z</time></trkpt><trkpt lat="45.5393396" lon="11.1943271"><ele>685.0</ele><time>2026-04-06T12:34:36.374Z</time></trkpt><trkpt lat="45.539229" lon="11.1943126"><ele>684.0</ele><time>2026-04-06T12:34:38.426Z</time></trkpt><trkpt lat="45.539136" lon="11.1942872"><ele>683.0</ele><time>2026-04-06T12:34:39.422Z</time></trkpt><trkpt lat="45.5390299" lon="11.1942842"><ele>682.0</ele><time>2026-04-06T12:34:41.423Z</time></trkpt><trkpt lat="45.5389374" lon="11.1943092"><ele>682.0</ele><time>2026-04-06T12:34:43.413Z</time></trkpt><trkpt lat="45.5388744" lon="11.1943066"><ele>682.0</ele><time>2026-04-06T12:34:49.383Z</time></trkpt><trkpt lat="45.5388226" lon="11.1942545"><ele>682.0</ele><time>2026-04-06T12:34:56.377Z</time></trkpt><trkpt lat="45.5387426" lon="11.1942022"><ele>682.0</ele><time>2026-04-06T12:34:59.403Z</time></trkpt><trkpt lat="45.5386416" lon="11.1941572"><ele>682.0</ele><time>2026-04-06T12:35:01.37Z</time></trkpt><trkpt lat="45.5385595" lon="11.1941637"><ele>682.0</ele><time>2026-04-06T12:35:03.451Z</time></trkpt><trkpt lat="45.538494" lon="11.1941507"><ele>681.1428571428571</ele><time>2026-04-06T12:35:06.378Z</time></trkpt><trkpt lat="45.538423" lon="11.1941676"><ele>680.2857142857143</ele><time>2026-04-06T12:35:09.377Z</time></trkpt><trkpt lat="45.5383718" lon="11.194241"><ele>679.4285714285714</ele><time>2026-04-06T12:35:13.398Z</time></trkpt><trkpt lat="45.5383074" lon="11.1942753"><ele>678.5714285714286</ele><time>2026-04-06T12:35:16.417Z</time></trkpt><trkpt lat="45.5382249" lon="11.1943096"><ele>677.7142857142857</ele><time>2026-04-06T12:35:20.468Z</time></trkpt><trkpt lat="45.538159" lon="11.1943468"><ele>676.8571428571429</ele><time>2026-04-06T12:35:23.422Z</time></trkpt><trkpt lat="45.5381121" lon="11.1944176"><ele>676.0</ele><time>2026-04-06T12:35:26.434Z</time></trkpt><trkpt lat="45.5380785" lon="11.1944971"><ele>676.0</ele><time>2026-04-06T12:35:29.426Z</time></trkpt><trkpt lat="45.5380397" lon="11.194584"><ele>676.0</ele><time>2026-04-06T12:35:33.432Z</time></trkpt><trkpt lat="45.5380068" lon="11.1946631"><ele>676.0</ele><time>2026-04-06T12:35:38.441Z</time></trkpt><trkpt lat="45.537974" lon="11.194749"><ele>676.0</ele><time>2026-04-06T12:35:43.371Z</time></trkpt><trkpt lat="45.5379217" lon="11.194815"><ele>676.0</ele><time>2026-04-06T12:35:47.437Z</time></trkpt><trkpt lat="45.5378832" lon="11.194901"><ele>676.0</ele><time>2026-04-06T12:35:51.378Z</time></trkpt><trkpt lat="45.5378303" lon="11.1949695"><ele>676.0</ele><time>2026-04-06T12:35:55.438Z</time></trkpt><trkpt lat="45.537793" lon="11.1950487"><ele>677.3333333333334</ele><time>2026-04-06T12:35:58.382Z</time></trkpt><trkpt lat="45.5377344" lon="11.1950988"><ele>678.6666666666667</ele><time>2026-04-06T12:36:01.444Z</time></trkpt><trkpt lat="45.5376697" lon="11.1950943"><ele>680.0</ele><time>2026-04-06T12:36:03.44Z</time></trkpt><trkpt lat="45.5376008" lon="11.1951046"><ele>681.3333333333334</ele><time>2026-04-06T12:36:05.408Z</time></trkpt><trkpt lat="45.5375324" lon="11.1951284"><ele>682.6666666666666</ele><time>2026-04-06T12:36:08.419Z</time></trkpt><trkpt lat="45.5374391" lon="11.1951611"><ele>684.0</ele><time>2026-04-06T12:36:11.432Z</time></trkpt><trkpt lat="45.5373269" lon="11.1952161"><ele>684.0</ele><time>2026-04-06T12:36:13.423Z</time></trkpt><trkpt lat="45.5372587" lon="11.1952407"><ele>684.0</ele><time>2026-04-06T12:36:14.429Z</time></trkpt><trkpt lat="45.5371885" lon="11.1952873"><ele>684.0</ele><time>2026-04-06T12:36:15.434Z</time></trkpt><trkpt lat="45.5371239" lon="11.1953135"><ele>684.0</ele><time>2026-04-06T12:36:16.445Z</time></trkpt><trkpt lat="45.5370037" lon="11.1953435"><ele>684.0</ele><time>2026-04-06T12:36:18.426Z</time></trkpt><trkpt lat="45.5369125" lon="11.1953275"><ele>684.0</ele><time>2026-04-06T12:36:20.428Z</time></trkpt><trkpt lat="45.5368055" lon="11.195341"><ele>682.3333333333334</ele><time>2026-04-06T12:36:22.437Z</time></trkpt><trkpt lat="45.5367021" lon="11.195371"><ele>680.6666666666666</ele><time>2026-04-06T12:36:24.387Z</time></trkpt><trkpt lat="45.5366166" lon="11.1954013"><ele>679.0</ele><time>2026-04-06T12:36:26.435Z</time></trkpt><trkpt lat="45.5365487" lon="11.1954307"><ele>677.3333333333333</ele><time>2026-04-06T12:36:29.444Z</time></trkpt><trkpt lat="45.5364692" lon="11.1954568"><ele>675.6666666666666</ele><time>2026-04-06T12:36:33.385Z</time></trkpt><trkpt lat="45.536398" lon="11.195506"><ele>674.0</ele><time>2026-04-06T12:36:37.439Z</time></trkpt><trkpt lat="45.5363173" lon="11.1955425"><ele>674.0000000000001</ele><time>2026-04-06T12:36:41.448Z</time></trkpt><trkpt lat="45.5362552" lon="11.1955794"><ele>674.0</ele><time>2026-04-06T12:36:44.388Z</time></trkpt><trkpt lat="45.5361832" lon="11.1956173"><ele>674.0</ele><time>2026-04-06T12:36:49.441Z</time></trkpt><trkpt lat="45.5361098" lon="11.1956319"><ele>674.0</ele><time>2026-04-06T12:36:52.457Z</time></trkpt><trkpt lat="45.5360416" lon="11.1956955"><ele>674.0</ele><time>2026-04-06T12:36:56.442Z</time></trkpt><trkpt lat="45.5359805" lon="11.1957241"><ele>674.0000000000001</ele><time>2026-04-06T12:37:23.425Z</time></trkpt><trkpt lat="45.5359094" lon="11.1957415"><ele>674.0</ele><time>2026-04-06T12:37:26.38Z</time></trkpt><trkpt lat="45.5358437" lon="11.1956874"><ele>672.0</ele><time>2026-04-06T12:37:27.381Z</time></trkpt><trkpt lat="45.5356307" lon="11.1955311"><ele>670.0</ele><time>2026-04-06T12:37:29.39Z</time></trkpt><trkpt lat="45.5355534" lon="11.1955108"><ele>668.0</ele><time>2026-04-06T12:37:30.416Z</time></trkpt><trkpt lat="45.5354673" lon="11.1954981"><ele>666.0</ele><time>2026-04-06T12:37:31.43Z</time></trkpt><trkpt lat="45.5353922" lon="11.1954893"><ele>663.8</ele><time>2026-04-06T12:37:32.473Z</time></trkpt><trkpt lat="45.5352719" lon="11.1955188"><ele>661.5999999999999</ele><time>2026-04-06T12:37:34.447Z</time></trkpt><trkpt lat="45.535209" lon="11.1955277"><ele>659.4</ele><time>2026-04-06T12:37:35.429Z</time></trkpt><trkpt lat="45.5351135" lon="11.1955389"><ele>657.2</ele><time>2026-04-06T12:37:37.446Z</time></trkpt><trkpt lat="45.5350257" lon="11.1955792"><ele>655.0</ele><time>2026-04-06T12:37:40.375Z</time></trkpt><trkpt lat="45.5349522" lon="11.1956205"><ele>655.7142857142858</ele><time>2026-04-06T12:37:42.438Z</time></trkpt><trkpt lat="45.5348784" lon="11.1956728"><ele>656.4285714285714</ele><time>2026-04-06T12:37:44.373Z</time></trkpt><trkpt lat="45.5348206" lon="11.195719"><ele>657.1428571428571</ele><time>2026-04-06T12:37:46.442Z</time></trkpt><trkpt lat="45.5347593" lon="11.1957402"><ele>657.8571428571429</ele><time>2026-04-06T12:37:48.447Z</time></trkpt><trkpt lat="45.5346976" lon="11.1957706"><ele>658.5714285714286</ele><time>2026-04-06T12:37:50.436Z</time></trkpt><trkpt lat="45.5346358" lon="11.1958337"><ele>659.2857142857143</ele><time>2026-04-06T12:37:54.445Z</time></trkpt><trkpt lat="45.5345801" lon="11.1958964"><ele>660.0</ele><time>2026-04-06T12:37:59.379Z</time></trkpt><trkpt lat="45.5345142" lon="11.1959134"><ele>660.0000000000001</ele><time>2026-04-06T12:38:03.381Z</time></trkpt><trkpt lat="45.5344648" lon="11.195971"><ele>660.0</ele><time>2026-04-06T12:38:12.379Z</time></trkpt><trkpt lat="45.5344166" lon="11.1958993"><ele>660.0</ele><time>2026-04-06T12:54:12.383Z</time></trkpt><trkpt lat="45.5344644" lon="11.1959603"><ele>660.0</ele><time>2026-04-06T13:00:59.374Z</time></trkpt><trkpt lat="45.5344211" lon="11.1958444"><ele>660.0</ele><time>2026-04-06T13:17:10.382Z</time></trkpt><trkpt lat="45.534466" lon="11.1959105"><ele>660.0000000000001</ele><time>2026-04-06T13:18:01.383Z</time></trkpt><trkpt lat="45.5344166" lon="11.1959763"><ele>660.0</ele><time>2026-04-06T13:19:35.406Z</time></trkpt><trkpt lat="45.5343965" lon="11.1960698"><ele>660.0</ele><time>2026-04-06T13:19:39.412Z</time></trkpt><trkpt lat="45.5343621" lon="11.1961705"><ele>660.0</ele><time>2026-04-06T13:19:43.382Z</time></trkpt><trkpt lat="45.5343221" lon="11.1962596"><ele>660.0</ele><time>2026-04-06T13:19:46.379Z</time></trkpt><trkpt lat="45.5342838" lon="11.1963443"><ele>660.0</ele><time>2026-04-06T13:19:49.379Z</time></trkpt><trkpt lat="45.5342439" lon="11.1964236"><ele>660.0</ele><time>2026-04-06T13:19:52.384Z</time></trkpt><trkpt lat="45.5341958" lon="11.1965255"><ele>660.0</ele><time>2026-04-06T13:19:55.375Z</time></trkpt><trkpt lat="45.5341566" lon="11.1966212"><ele>662.8</ele><time>2026-04-06T13:19:58.377Z</time></trkpt><trkpt lat="45.5341113" lon="11.1967334"><ele>665.6</ele><time>2026-04-06T13:20:01.371Z</time></trkpt><trkpt lat="45.5340727" lon="11.1968463"><ele>668.4000000000001</ele><time>2026-04-06T13:20:03.377Z</time></trkpt><trkpt lat="45.5340443" lon="11.1969743"><ele>671.2</ele><time>2026-04-06T13:20:05.386Z</time></trkpt><trkpt lat="45.5340192" lon="11.1970986"><ele>674.0</ele><time>2026-04-06T13:20:07.375Z</time></trkpt><trkpt lat="45.5340208" lon="11.1972504"><ele>675.25</ele><time>2026-04-06T13:20:09.384Z</time></trkpt><trkpt lat="45.5340129" lon="11.1974086"><ele>676.5</ele><time>2026-04-06T13:20:11.378Z</time></trkpt><trkpt lat="45.5339937" lon="11.1975854"><ele>677.75</ele><time>2026-04-06T13:20:12.381Z</time></trkpt><trkpt lat="45.5339709" lon="11.1977494"><ele>679.0</ele><time>2026-04-06T13:20:14.378Z</time></trkpt><trkpt lat="45.5339518" lon="11.1978903"><ele>679.0</ele><time>2026-04-06T13:20:16.382Z</time></trkpt><trkpt lat="45.5339658" lon="11.1979936"><ele>679.0</ele><time>2026-04-06T13:20:18.38Z</time></trkpt><trkpt lat="45.5339711" lon="11.1981188"><ele>679.0</ele><time>2026-04-06T13:20:20.375Z</time></trkpt><trkpt lat="45.5339578" lon="11.1982146"><ele>679.0</ele><time>2026-04-06T13:20:22.384Z</time></trkpt><trkpt lat="45.5339526" lon="11.1983305"><ele>679.0</ele><time>2026-04-06T13:20:24.368Z</time></trkpt><trkpt lat="45.533966" lon="11.1984262"><ele>679.0</ele><time>2026-04-06T13:20:26.377Z</time></trkpt><trkpt lat="45.5339343" lon="11.1985484"><ele>678.6</ele><time>2026-04-06T13:20:28.403Z</time></trkpt><trkpt lat="45.5338725" lon="11.1986386"><ele>678.2</ele><time>2026-04-06T13:20:30.44Z</time></trkpt><trkpt lat="45.5337934" lon="11.1986979"><ele>677.8000000000001</ele><time>2026-04-06T13:20:32.38Z</time></trkpt><trkpt lat="45.5337157" lon="11.1988086"><ele>677.4000000000001</ele><time>2026-04-06T13:20:34.378Z</time></trkpt><trkpt lat="45.5336076" lon="11.1989271"><ele>677.0</ele><time>2026-04-06T13:20:36.389Z</time></trkpt><trkpt lat="45.5335635" lon="11.1990096"><ele>672.3333333333333</ele><time>2026-04-06T13:20:37.405Z</time></trkpt><trkpt lat="45.5335182" lon="11.1990832"><ele>667.6666666666666</ele><time>2026-04-06T13:20:38.41Z</time></trkpt><trkpt lat="45.5334679" lon="11.1991654"><ele>663.0</ele><time>2026-04-06T13:20:39.381Z</time></trkpt><trkpt lat="45.5334057" lon="11.1992482"><ele>658.3333333333334</ele><time>2026-04-06T13:20:40.411Z</time></trkpt><trkpt lat="45.5333557" lon="11.199325"><ele>653.6666666666667</ele><time>2026-04-06T13:20:41.402Z</time></trkpt><trkpt lat="45.5333148" lon="11.1994036"><ele>649.0</ele><time>2026-04-06T13:20:42.409Z</time></trkpt><trkpt lat="45.5332785" lon="11.1995085"><ele>649.0</ele><time>2026-04-06T13:20:43.417Z</time></trkpt><trkpt lat="45.5332251" lon="11.1995901"><ele>649.0</ele><time>2026-04-06T13:20:44.378Z</time></trkpt><trkpt lat="45.5331764" lon="11.1996778"><ele>649.0</ele><time>2026-04-06T13:20:45.414Z</time></trkpt><trkpt lat="45.5331404" lon="11.1997795"><ele>649.0</ele><time>2026-04-06T13:20:46.379Z</time></trkpt><trkpt lat="45.5331049" lon="11.1998715"><ele>649.0</ele><time>2026-04-06T13:20:47.415Z</time></trkpt><trkpt lat="45.5330838" lon="11.1999897"><ele>649.0</ele><time>2026-04-06T13:20:48.413Z</time></trkpt><trkpt lat="45.5330663" lon="11.2000809"><ele>650.8333333333334</ele><time>2026-04-06T13:20:49.425Z</time></trkpt><trkpt lat="45.5330215" lon="11.200183"><ele>652.6666666666667</ele><time>2026-04-06T13:20:50.415Z</time></trkpt><trkpt lat="45.532989" lon="11.2002799"><ele>654.5</ele><time>2026-04-06T13:20:51.397Z</time></trkpt><trkpt lat="45.5329629" lon="11.200366"><ele>656.3333333333334</ele><time>2026-04-06T13:20:52.422Z</time></trkpt><trkpt lat="45.5329439" lon="11.200533"><ele>658.1666666666666</ele><time>2026-04-06T13:20:54.425Z</time></trkpt><trkpt lat="45.532938" lon="11.2006425"><ele>660.0</ele><time>2026-04-06T13:20:56.427Z</time></trkpt><trkpt lat="45.532922" lon="11.2007432"><ele>658.8571428571429</ele><time>2026-04-06T13:20:59.382Z</time></trkpt><trkpt lat="45.5328607" lon="11.2007782"><ele>657.7142857142858</ele><time>2026-04-06T13:21:02.371Z</time></trkpt><trkpt lat="45.5327812" lon="11.2007818"><ele>656.5714285714287</ele><time>2026-04-06T13:21:05.373Z</time></trkpt><trkpt lat="45.5327103" lon="11.2007875"><ele>655.4285714285714</ele><time>2026-04-06T13:21:07.375Z</time></trkpt><trkpt lat="45.532643" lon="11.2008148"><ele>654.2857142857142</ele><time>2026-04-06T13:21:09.38Z</time></trkpt><trkpt lat="45.5325643" lon="11.2008522"><ele>653.1428571428572</ele><time>2026-04-06T13:21:12.384Z</time></trkpt><trkpt lat="45.5324878" lon="11.2008689"><ele>652.0</ele><time>2026-04-06T13:21:15.375Z</time></trkpt><trkpt lat="45.5324233" lon="11.2009034"><ele>652.0</ele><time>2026-04-06T13:21:18.379Z</time></trkpt><trkpt lat="45.5323628" lon="11.200941"><ele>652.0</ele><time>2026-04-06T13:21:22.376Z</time></trkpt><trkpt lat="45.5322913" lon="11.2009826"><ele>652.0</ele><time>2026-04-06T13:21:25.387Z</time></trkpt><trkpt lat="45.5322343" lon="11.201023"><ele>652.0</ele><time>2026-04-06T13:21:27.383Z</time></trkpt><trkpt lat="45.532179" lon="11.2010764"><ele>652.0</ele><time>2026-04-06T13:21:29.381Z</time></trkpt><trkpt lat="45.5321132" lon="11.2011576"><ele>652.0</ele><time>2026-04-06T13:21:32.377Z</time></trkpt><trkpt lat="45.5320675" lon="11.201238"><ele>652.0</ele><time>2026-04-06T13:21:35.375Z</time></trkpt><trkpt lat="45.5320001" lon="11.2013179"><ele>652.0</ele><time>2026-04-06T13:21:38.375Z</time></trkpt><trkpt lat="45.5319495" lon="11.2013843"><ele>652.0</ele><time>2026-04-06T13:21:40.385Z</time></trkpt><trkpt lat="45.5318961" lon="11.2014467"><ele>652.0</ele><time>2026-04-06T13:21:42.379Z</time></trkpt><trkpt lat="45.531836" lon="11.2015058"><ele>652.0</ele><time>2026-04-06T13:21:44.382Z</time></trkpt><trkpt lat="45.5317586" lon="11.2015859"><ele>652.0</ele><time>2026-04-06T13:21:47.385Z</time></trkpt><trkpt lat="45.5317062" lon="11.2016519"><ele>652.0</ele><time>2026-04-06T13:21:49.378Z</time></trkpt><trkpt lat="45.5316581" lon="11.2017164"><ele>652.0</ele><time>2026-04-06T13:21:51.38Z</time></trkpt><trkpt lat="45.5316172" lon="11.2018154"><ele>652.0</ele><time>2026-04-06T13:21:54.375Z</time></trkpt><trkpt lat="45.5316018" lon="11.2019199"><ele>652.0</ele><time>2026-04-06T13:21:57.38Z</time></trkpt><trkpt lat="45.5315896" lon="11.2020105"><ele>652.0</ele><time>2026-04-06T13:22:00.374Z</time></trkpt><trkpt lat="45.5315738" lon="11.202105"><ele>652.0</ele><time>2026-04-06T13:22:03.41Z</time></trkpt><trkpt lat="45.5315716" lon="11.2022213"><ele>652.0</ele><time>2026-04-06T13:22:07.38Z</time></trkpt><trkpt lat="45.5315692" lon="11.2023267"><ele>652.0</ele><time>2026-04-06T13:22:10.402Z</time></trkpt><trkpt lat="45.5315828" lon="11.2024379"><ele>652.0</ele><time>2026-04-06T13:22:14.38Z</time></trkpt><trkpt lat="45.5316412" lon="11.2024776"><ele>652.8</ele><time>2026-04-06T13:22:19.415Z</time></trkpt><trkpt lat="45.5316896" lon="11.2025417"><ele>653.6</ele><time>2026-04-06T13:22:24.397Z</time></trkpt><trkpt lat="45.531711" lon="11.2026476"><ele>654.4</ele><time>2026-04-06T13:22:29.415Z</time></trkpt><trkpt lat="45.5316905" lon="11.2027712"><ele>655.1999999999999</ele><time>2026-04-06T13:22:32.38Z</time></trkpt><trkpt lat="45.5316066" lon="11.2029083"><ele>656.0</ele><time>2026-04-06T13:22:34.379Z</time></trkpt><trkpt lat="45.5315126" lon="11.2030139"><ele>656.0</ele><time>2026-04-06T13:22:36.379Z</time></trkpt><trkpt lat="45.5313939" lon="11.2031111"><ele>656.0</ele><time>2026-04-06T13:22:38.413Z</time></trkpt><trkpt lat="45.53128" lon="11.2031901"><ele>656.0</ele><time>2026-04-06T13:22:40.425Z</time></trkpt><trkpt lat="45.5312295" lon="11.2032523"><ele>656.0</ele><time>2026-04-06T13:22:42.421Z</time></trkpt><trkpt lat="45.5311685" lon="11.2033035"><ele>656.0</ele><time>2026-04-06T13:22:44.376Z</time></trkpt><trkpt lat="45.5310964" lon="11.2033436"><ele>654.6666666666666</ele><time>2026-04-06T13:22:46.41Z</time></trkpt><trkpt lat="45.531032" lon="11.2033678"><ele>653.3333333333333</ele><time>2026-04-06T13:22:48.429Z</time></trkpt><trkpt lat="45.5309382" lon="11.2034001"><ele>652.0</ele><time>2026-04-06T13:22:51.435Z</time></trkpt><trkpt lat="45.5308662" lon="11.2034255"><ele>650.6666666666666</ele><time>2026-04-06T13:22:53.408Z</time></trkpt><trkpt lat="45.5307893" lon="11.2034694"><ele>649.3333333333334</ele><time>2026-04-06T13:22:55.395Z</time></trkpt><trkpt lat="45.5307133" lon="11.2035275"><ele>648.0</ele><time>2026-04-06T13:22:57.412Z</time></trkpt><trkpt lat="45.5305439" lon="11.2036455"><ele>648.0</ele><time>2026-04-06T13:23:00.412Z</time></trkpt><trkpt lat="45.5304756" lon="11.203677"><ele>648.0</ele><time>2026-04-06T13:23:01.37Z</time></trkpt><trkpt lat="45.5304128" lon="11.2037103"><ele>648.0</ele><time>2026-04-06T13:23:02.416Z</time></trkpt><trkpt lat="45.5303419" lon="11.2037468"><ele>648.0</ele><time>2026-04-06T13:23:03.414Z</time></trkpt><trkpt lat="45.5302705" lon="11.2037833"><ele>648.0</ele><time>2026-04-06T13:23:04.428Z</time></trkpt><trkpt lat="45.5301978" lon="11.2038352"><ele>648.0</ele><time>2026-04-06T13:23:05.417Z</time></trkpt><trkpt lat="45.5301123" lon="11.2038938"><ele>647.0</ele><time>2026-04-06T13:23:06.429Z</time></trkpt><trkpt lat="45.5300425" lon="11.20395"><ele>646.0</ele><time>2026-04-06T13:23:07.429Z</time></trkpt><trkpt lat="45.5299715" lon="11.2039979"><ele>645.0</ele><time>2026-04-06T13:23:08.426Z</time></trkpt><trkpt lat="45.5298694" lon="11.204041"><ele>644.0</ele><time>2026-04-06T13:23:09.426Z</time></trkpt><trkpt lat="45.5298001" lon="11.2040976"><ele>643.0</ele><time>2026-04-06T13:23:10.411Z</time></trkpt><trkpt lat="45.5297377" lon="11.204159"><ele>642.0</ele><time>2026-04-06T13:23:11.42Z</time></trkpt><trkpt lat="45.5296729" lon="11.2042183"><ele>641.6666666666666</ele><time>2026-04-06T13:23:12.442Z</time></trkpt><trkpt lat="45.5296009" lon="11.2042727"><ele>641.3333333333334</ele><time>2026-04-06T13:23:13.421Z</time></trkpt><trkpt lat="45.5295329" lon="11.2043254"><ele>641.0</ele><time>2026-04-06T13:23:14.427Z</time></trkpt><trkpt lat="45.5294649" lon="11.2043751"><ele>640.6666666666667</ele><time>2026-04-06T13:23:15.409Z</time></trkpt><trkpt lat="45.5293917" lon="11.2044287"><ele>640.3333333333334</ele><time>2026-04-06T13:23:16.397Z</time></trkpt><trkpt lat="45.529313" lon="11.2044785"><ele>640.0</ele><time>2026-04-06T13:23:17.412Z</time></trkpt><trkpt lat="45.5292428" lon="11.2045226"><ele>638.8333333333334</ele><time>2026-04-06T13:23:18.427Z</time></trkpt><trkpt lat="45.5291622" lon="11.2045722"><ele>637.6666666666667</ele><time>2026-04-06T13:23:19.413Z</time></trkpt><trkpt lat="45.5290955" lon="11.204615"><ele>636.5</ele><time>2026-04-06T13:23:20.426Z</time></trkpt><trkpt lat="45.5290349" lon="11.2046545"><ele>635.3333333333334</ele><time>2026-04-06T13:23:21.369Z</time></trkpt><trkpt lat="45.5289653" lon="11.2046996"><ele>634.1666666666666</ele><time>2026-04-06T13:23:22.372Z</time></trkpt><trkpt lat="45.5288545" lon="11.2047888"><ele>633.0</ele><time>2026-04-06T13:23:24.372Z</time></trkpt><trkpt lat="45.5287728" lon="11.2048749"><ele>633.3333333333334</ele><time>2026-04-06T13:23:26.374Z</time></trkpt><trkpt lat="45.5286943" lon="11.2049747"><ele>633.6666666666666</ele><time>2026-04-06T13:23:28.368Z</time></trkpt><trkpt lat="45.5286321" lon="11.205067"><ele>634.0</ele><time>2026-04-06T13:23:30.378Z</time></trkpt><trkpt lat="45.5285657" lon="11.2051273"><ele>634.3333333333333</ele><time>2026-04-06T13:23:32.372Z</time></trkpt><trkpt lat="45.5285062" lon="11.2052077"><ele>634.6666666666666</ele><time>2026-04-06T13:23:34.387Z</time></trkpt><trkpt lat="45.5284461" lon="11.205263"><ele>635.0</ele><time>2026-04-06T13:23:36.378Z</time></trkpt><trkpt lat="45.528385" lon="11.2053152"><ele>634.9999999999999</ele><time>2026-04-06T13:23:38.379Z</time></trkpt><trkpt lat="45.5283114" lon="11.2053523"><ele>635.0</ele><time>2026-04-06T13:23:40.379Z</time></trkpt><trkpt lat="45.5282457" lon="11.2054012"><ele>635.0</ele><time>2026-04-06T13:23:42.375Z</time></trkpt><trkpt lat="45.5281677" lon="11.205456"><ele>635.0</ele><time>2026-04-06T13:23:44.368Z</time></trkpt><trkpt lat="45.5281094" lon="11.2055183"><ele>635.0</ele><time>2026-04-06T13:23:46.373Z</time></trkpt><trkpt lat="45.5280537" lon="11.2055651"><ele>634.9999999999999</ele><time>2026-04-06T13:23:48.376Z</time></trkpt><trkpt lat="45.527994" lon="11.2056071"><ele>635.0</ele><time>2026-04-06T13:23:50.378Z</time></trkpt><trkpt lat="45.5279094" lon="11.2056577"><ele>634.7142857142857</ele><time>2026-04-06T13:23:53.383Z</time></trkpt><trkpt lat="45.5278287" lon="11.2056794"><ele>634.4285714285714</ele><time>2026-04-06T13:23:56.378Z</time></trkpt><trkpt lat="45.5277437" lon="11.2057007"><ele>634.1428571428571</ele><time>2026-04-06T13:24:01.379Z</time></trkpt><trkpt lat="45.5276782" lon="11.2056862"><ele>633.8571428571429</ele><time>2026-04-06T13:24:04.416Z</time></trkpt><trkpt lat="45.5275977" lon="11.2056954"><ele>633.5714285714286</ele><time>2026-04-06T13:24:07.419Z</time></trkpt><trkpt lat="45.5275345" lon="11.2056979"><ele>633.2857142857142</ele><time>2026-04-06T13:24:09.404Z</time></trkpt><trkpt lat="45.5274701" lon="11.2056932"><ele>633.0</ele><time>2026-04-06T13:24:11.384Z</time></trkpt><trkpt lat="45.5273925" lon="11.2056848"><ele>633.0</ele><time>2026-04-06T13:24:13.413Z</time></trkpt><trkpt lat="45.5273115" lon="11.2056832"><ele>633.0</ele><time>2026-04-06T13:24:15.38Z</time></trkpt><trkpt lat="45.5272146" lon="11.2056674"><ele>633.0</ele><time>2026-04-06T13:24:17.41Z</time></trkpt><trkpt lat="45.527104" lon="11.205656"><ele>633.0</ele><time>2026-04-06T13:24:19.405Z</time></trkpt><trkpt lat="45.5269912" lon="11.2056397"><ele>633.0</ele><time>2026-04-06T13:24:21.372Z</time></trkpt><trkpt lat="45.5269263" lon="11.2056441"><ele>632.1666666666666</ele><time>2026-04-06T13:24:22.394Z</time></trkpt><trkpt lat="45.5268578" lon="11.2056465"><ele>631.3333333333334</ele><time>2026-04-06T13:24:23.409Z</time></trkpt><trkpt lat="45.5267821" lon="11.2056505"><ele>630.5</ele><time>2026-04-06T13:24:24.369Z</time></trkpt><trkpt lat="45.5267018" lon="11.2056552"><ele>629.6666666666667</ele><time>2026-04-06T13:24:25.39Z</time></trkpt><trkpt lat="45.5266237" lon="11.2056582"><ele>628.8333333333334</ele><time>2026-04-06T13:24:26.378Z</time></trkpt><trkpt lat="45.5265494" lon="11.2056649"><ele>628.0</ele><time>2026-04-06T13:24:27.422Z</time></trkpt><trkpt lat="45.5264629" lon="11.2056691"><ele>627.8333333333334</ele><time>2026-04-06T13:24:28.411Z</time></trkpt><trkpt lat="45.5263811" lon="11.2056839"><ele>627.6666666666667</ele><time>2026-04-06T13:24:29.414Z</time></trkpt><trkpt lat="45.5263016" lon="11.2056831"><ele>627.5</ele><time>2026-04-06T13:24:30.407Z</time></trkpt><trkpt lat="45.5262221" lon="11.2056895"><ele>627.3333333333334</ele><time>2026-04-06T13:24:31.422Z</time></trkpt><trkpt lat="45.526159" lon="11.2057013"><ele>627.1666666666666</ele><time>2026-04-06T13:24:32.418Z</time></trkpt><trkpt lat="45.5260859" lon="11.2057146"><ele>627.0</ele><time>2026-04-06T13:24:33.485Z</time></trkpt><trkpt lat="45.5260086" lon="11.2057186"><ele>627.6</ele><time>2026-04-06T13:24:34.424Z</time></trkpt><trkpt lat="45.5258794" lon="11.2057429"><ele>628.2</ele><time>2026-04-06T13:24:36.483Z</time></trkpt><trkpt lat="45.525769" lon="11.2057676"><ele>628.8</ele><time>2026-04-06T13:24:38.378Z</time></trkpt><trkpt lat="45.525685" lon="11.2057854"><ele>629.4</ele><time>2026-04-06T13:24:40.38Z</time></trkpt><trkpt lat="45.5256186" lon="11.2058129"><ele>630.0</ele><time>2026-04-06T13:24:42.373Z</time></trkpt><trkpt lat="45.5255493" lon="11.2058509"><ele>630.0</ele><time>2026-04-06T13:24:46.378Z</time></trkpt><trkpt lat="45.5254788" lon="11.205874"><ele>630.0</ele><time>2026-04-06T13:24:49.373Z</time></trkpt><trkpt lat="45.5254017" lon="11.2059137"><ele>630.0</ele><time>2026-04-06T13:24:52.373Z</time></trkpt><trkpt lat="45.525322" lon="11.2059762"><ele>630.0</ele><time>2026-04-06T13:24:55.381Z</time></trkpt><trkpt lat="45.5252641" lon="11.2060258"><ele>630.0</ele><time>2026-04-06T13:24:57.375Z</time></trkpt><trkpt lat="45.525206" lon="11.206077"><ele>630.0</ele><time>2026-04-06T13:24:59.379Z</time></trkpt><trkpt lat="45.5251413" lon="11.2061159"><ele>629.8333333333334</ele><time>2026-04-06T13:25:01.38Z</time></trkpt><trkpt lat="45.5250524" lon="11.2061551"><ele>629.6666666666666</ele><time>2026-04-06T13:25:04.373Z</time></trkpt><trkpt lat="45.5249791" lon="11.2061288"><ele>629.5</ele><time>2026-04-06T13:25:06.377Z</time></trkpt><trkpt lat="45.5248968" lon="11.2061217"><ele>629.3333333333333</ele><time>2026-04-06T13:25:08.371Z</time></trkpt><trkpt lat="45.5248164" lon="11.206112"><ele>629.1666666666666</ele><time>2026-04-06T13:25:11.383Z</time></trkpt><trkpt lat="45.5247358" lon="11.2060897"><ele>629.0</ele><time>2026-04-06T13:25:14.378Z</time></trkpt><trkpt lat="45.5246749" lon="11.2060633"><ele>629.0</ele><time>2026-04-06T13:25:17.383Z</time></trkpt><trkpt lat="45.5246149" lon="11.2060331"><ele>629.0</ele><time>2026-04-06T13:25:20.401Z</time></trkpt><trkpt lat="45.5245452" lon="11.2059954"><ele>629.0</ele><time>2026-04-06T13:25:23.407Z</time></trkpt><trkpt lat="45.5244771" lon="11.2059729"><ele>629.0</ele><time>2026-04-06T13:25:25.374Z</time></trkpt><trkpt lat="45.5243905" lon="11.2059787"><ele>629.0</ele><time>2026-04-06T13:25:28.399Z</time></trkpt><trkpt lat="45.5242956" lon="11.2059769"><ele>629.0</ele><time>2026-04-06T13:25:31.376Z</time></trkpt><trkpt lat="45.5242096" lon="11.2059791"><ele>629.1666666666666</ele><time>2026-04-06T13:25:34.375Z</time></trkpt><trkpt lat="45.524123" lon="11.2059884"><ele>629.3333333333333</ele><time>2026-04-06T13:25:37.416Z</time></trkpt><trkpt lat="45.5240466" lon="11.2060207"><ele>629.5</ele><time>2026-04-06T13:25:40.391Z</time></trkpt><trkpt lat="45.5239718" lon="11.2060498"><ele>629.6666666666666</ele><time>2026-04-06T13:25:43.417Z</time></trkpt><trkpt lat="45.5238921" lon="11.2060635"><ele>629.8333333333334</ele><time>2026-04-06T13:25:46.407Z</time></trkpt><trkpt lat="45.5238281" lon="11.2060764"><ele>630.0</ele><time>2026-04-06T13:25:48.406Z</time></trkpt><trkpt lat="45.5237648" lon="11.206076"><ele>629.8333333333334</ele><time>2026-04-06T13:25:50.411Z</time></trkpt><trkpt lat="45.5236822" lon="11.2060934"><ele>629.6666666666666</ele><time>2026-04-06T13:25:53.42Z</time></trkpt><trkpt lat="45.5236112" lon="11.2061455"><ele>629.5</ele><time>2026-04-06T13:25:55.393Z</time></trkpt><trkpt lat="45.5235186" lon="11.2062248"><ele>629.3333333333333</ele><time>2026-04-06T13:25:57.398Z</time></trkpt><trkpt lat="45.5234599" lon="11.2062672"><ele>629.1666666666666</ele><time>2026-04-06T13:25:58.453Z</time></trkpt><trkpt lat="45.5233911" lon="11.2063181"><ele>629.0</ele><time>2026-04-06T13:25:59.427Z</time></trkpt><trkpt lat="45.523329" lon="11.2063706"><ele>629.0</ele><time>2026-04-06T13:26:00.412Z</time></trkpt><trkpt lat="45.5232272" lon="11.2064158"><ele>629.0</ele><time>2026-04-06T13:26:01.413Z</time></trkpt><trkpt lat="45.5231214" lon="11.2064394"><ele>629.0</ele><time>2026-04-06T13:26:02.379Z</time></trkpt><trkpt lat="45.5229241" lon="11.2065039"><ele>629.0</ele><time>2026-04-06T13:26:04.45Z</time></trkpt><trkpt lat="45.5228191" lon="11.2065389"><ele>629.0</ele><time>2026-04-06T13:26:05.385Z</time></trkpt><trkpt lat="45.5226589" lon="11.2064689"><ele>629.0</ele><time>2026-04-06T13:26:07.485Z</time></trkpt><trkpt lat="45.5225672" lon="11.2064269"><ele>629.0</ele><time>2026-04-06T13:26:08.485Z</time></trkpt><trkpt lat="45.5223017" lon="11.2062756"><ele>629.0</ele><time>2026-04-06T13:26:10.38Z</time></trkpt><trkpt lat="45.5221439" lon="11.2062215"><ele>629.0</ele><time>2026-04-06T13:26:11.384Z</time></trkpt><trkpt lat="45.5220202" lon="11.2061737"><ele>629.0</ele><time>2026-04-06T13:26:12.381Z</time></trkpt><trkpt lat="45.5219243" lon="11.2061148"><ele>629.0</ele><time>2026-04-06T13:26:13.386Z</time></trkpt><trkpt lat="45.5218054" lon="11.2060861"><ele>627.5</ele><time>2026-04-06T13:26:14.389Z</time></trkpt><trkpt lat="45.5216841" lon="11.2060837"><ele>626.0</ele><time>2026-04-06T13:26:15.424Z</time></trkpt><trkpt lat="45.5215349" lon="11.2061256"><ele>624.5</ele><time>2026-04-06T13:26:16.427Z</time></trkpt><trkpt lat="45.5214065" lon="11.2061447"><ele>623.0</ele><time>2026-04-06T13:26:17.377Z</time></trkpt><trkpt lat="45.5212723" lon="11.2061598"><ele>620.0</ele><time>2026-04-06T13:26:18.383Z</time></trkpt><trkpt lat="45.521138" lon="11.2061634"><ele>617.0</ele><time>2026-04-06T13:26:19.378Z</time></trkpt><trkpt lat="45.521006" lon="11.2061479"><ele>614.0</ele><time>2026-04-06T13:26:20.384Z</time></trkpt><trkpt lat="45.5209056" lon="11.2061375"><ele>611.0</ele><time>2026-04-06T13:26:21.382Z</time></trkpt><trkpt lat="45.5207789" lon="11.2061263"><ele>611.0</ele><time>2026-04-06T13:26:22.38Z</time></trkpt><trkpt lat="45.5206584" lon="11.2061433"><ele>611.0</ele><time>2026-04-06T13:26:23.381Z</time></trkpt><trkpt lat="45.5205459" lon="11.2061502"><ele>611.0</ele><time>2026-04-06T13:26:24.375Z</time></trkpt><trkpt lat="45.5204361" lon="11.2061484"><ele>611.0</ele><time>2026-04-06T13:26:25.377Z</time></trkpt><trkpt lat="45.5203239" lon="11.2061378"><ele>607.4</ele><time>2026-04-06T13:26:26.382Z</time></trkpt><trkpt lat="45.5202439" lon="11.2061322"><ele>603.8</ele><time>2026-04-06T13:26:27.375Z</time></trkpt><trkpt lat="45.5201455" lon="11.2061217"><ele>600.1999999999999</ele><time>2026-04-06T13:26:28.387Z</time></trkpt><trkpt lat="45.520037" lon="11.2061299"><ele>596.6</ele><time>2026-04-06T13:26:29.375Z</time></trkpt><trkpt lat="45.5199475" lon="11.2061666"><ele>593.0</ele><time>2026-04-06T13:26:30.385Z</time></trkpt><trkpt lat="45.5198507" lon="11.2061906"><ele>593.0</ele><time>2026-04-06T13:26:31.38Z</time></trkpt><trkpt lat="45.5197886" lon="11.2062158"><ele>593.0</ele><time>2026-04-06T13:26:32.366Z</time></trkpt><trkpt lat="45.519676" lon="11.2062925"><ele>593.0</ele><time>2026-04-06T13:26:34.374Z</time></trkpt><trkpt lat="45.519592" lon="11.2063805"><ele>593.0</ele><time>2026-04-06T13:26:36.384Z</time></trkpt><trkpt lat="45.5195436" lon="11.2064503"><ele>593.0</ele><time>2026-04-06T13:26:38.374Z</time></trkpt><trkpt lat="45.5195213" lon="11.2065672"><ele>593.0</ele><time>2026-04-06T13:26:41.368Z</time></trkpt><trkpt lat="45.519516" lon="11.2066776"><ele>594.2857142857142</ele><time>2026-04-06T13:26:44.379Z</time></trkpt><trkpt lat="45.5195002" lon="11.2067754"><ele>595.5714285714286</ele><time>2026-04-06T13:26:47.377Z</time></trkpt><trkpt lat="45.519479" lon="11.2068604"><ele>596.8571428571429</ele><time>2026-04-06T13:26:50.381Z</time></trkpt><trkpt lat="45.519454" lon="11.2069639"><ele>598.1428571428571</ele><time>2026-04-06T13:26:54.399Z</time></trkpt><trkpt lat="45.5194319" lon="11.207055"><ele>599.4285714285714</ele><time>2026-04-06T13:26:58.408Z</time></trkpt><trkpt lat="45.5194211" lon="11.2071565"><ele>600.7142857142857</ele><time>2026-04-06T13:27:02.424Z</time></trkpt><trkpt lat="45.5194051" lon="11.2072533"><ele>602.0</ele><time>2026-04-06T13:27:08.411Z</time></trkpt><trkpt lat="45.519387" lon="11.2073502"><ele>603.1428571428571</ele><time>2026-04-06T13:27:15.371Z</time></trkpt><trkpt lat="45.5193509" lon="11.2074314"><ele>604.2857142857142</ele><time>2026-04-06T13:27:21.375Z</time></trkpt><trkpt lat="45.5193107" lon="11.2075219"><ele>605.4285714285714</ele><time>2026-04-06T13:27:28.387Z</time></trkpt><trkpt lat="45.5192426" lon="11.2075878"><ele>606.5714285714286</ele><time>2026-04-06T13:27:33.414Z</time></trkpt><trkpt lat="45.51919" lon="11.2076788"><ele>607.7142857142857</ele><time>2026-04-06T13:27:39.378Z</time></trkpt><trkpt lat="45.5191303" lon="11.2077183"><ele>608.8571428571429</ele><time>2026-04-06T13:27:45.429Z</time></trkpt><trkpt lat="45.5190734" lon="11.2077601"><ele>610.0</ele><time>2026-04-06T13:27:48.379Z</time></trkpt><trkpt lat="45.5190169" lon="11.2078"><ele>610.0</ele><time>2026-04-06T13:27:50.378Z</time></trkpt><trkpt lat="45.5189583" lon="11.2078533"><ele>610.0</ele><time>2026-04-06T13:27:53.42Z</time></trkpt><trkpt lat="45.5189214" lon="11.2079428"><ele>610.0</ele><time>2026-04-06T13:27:58.373Z</time></trkpt><trkpt lat="45.5188844" lon="11.2080341"><ele>610.0</ele><time>2026-04-06T13:28:03.429Z</time></trkpt><trkpt lat="45.5188392" lon="11.2081284"><ele>610.0</ele><time>2026-04-06T13:28:07.421Z</time></trkpt><trkpt lat="45.518779" lon="11.2081743"><ele>610.0</ele><time>2026-04-06T13:28:09.416Z</time></trkpt><trkpt lat="45.5187193" lon="11.2082279"><ele>610.0</ele><time>2026-04-06T13:28:11.375Z</time></trkpt><trkpt lat="45.5186638" lon="11.2083144"><ele>612.5</ele><time>2026-04-06T13:28:14.408Z</time></trkpt><trkpt lat="45.5186172" lon="11.2084039"><ele>615.0</ele><time>2026-04-06T13:28:17.412Z</time></trkpt><trkpt lat="45.5185662" lon="11.2084925"><ele>617.5</ele><time>2026-04-06T13:28:20.45Z</time></trkpt><trkpt lat="45.5185241" lon="11.2085679"><ele>620.0</ele><time>2026-04-06T13:28:23.403Z</time></trkpt><trkpt lat="45.5184413" lon="11.2086345"><ele>622.5</ele><time>2026-04-06T13:28:27.441Z</time></trkpt><trkpt lat="45.5183554" lon="11.2086987"><ele>625.0</ele><time>2026-04-06T13:28:30.416Z</time></trkpt><trkpt lat="45.5182837" lon="11.2087514"><ele>625.0</ele><time>2026-04-06T13:28:33.375Z</time></trkpt><trkpt lat="45.5182168" lon="11.2088055"><ele>625.0</ele><time>2026-04-06T13:28:36.394Z</time></trkpt><trkpt lat="45.5181429" lon="11.2088516"><ele>625.0</ele><time>2026-04-06T13:28:39.436Z</time></trkpt><trkpt lat="45.5180728" lon="11.208893"><ele>625.0</ele><time>2026-04-06T13:28:41.385Z</time></trkpt><trkpt lat="45.5180006" lon="11.2089691"><ele>625.0</ele><time>2026-04-06T13:28:45.371Z</time></trkpt><trkpt lat="45.5179309" lon="11.2090292"><ele>625.0</ele><time>2026-04-06T13:28:49.417Z</time></trkpt><trkpt lat="45.5178607" lon="11.2090728"><ele>626.0000000000001</ele><time>2026-04-06T13:28:52.374Z</time></trkpt><trkpt lat="45.5178017" lon="11.209121"><ele>627.0</ele><time>2026-04-06T13:28:55.409Z</time></trkpt><trkpt lat="45.5177349" lon="11.2091646"><ele>628.0</ele><time>2026-04-06T13:28:58.41Z</time></trkpt><trkpt lat="45.5176848" lon="11.2092311"><ele>629.0</ele><time>2026-04-06T13:29:02.373Z</time></trkpt><trkpt lat="45.5176476" lon="11.209324"><ele>630.0</ele><time>2026-04-06T13:29:05.421Z</time></trkpt><trkpt lat="45.5176838" lon="11.2094138"><ele>631.0000000000001</ele><time>2026-04-06T13:29:10.382Z</time></trkpt><trkpt lat="45.5177108" lon="11.2095065"><ele>632.0</ele><time>2026-04-06T13:29:16.423Z</time></trkpt><trkpt lat="45.5176877" lon="11.2096007"><ele>632.0000000000001</ele><time>2026-04-06T13:29:21.374Z</time></trkpt><trkpt lat="45.5176993" lon="11.2096943"><ele>632.0</ele><time>2026-04-06T13:29:25.373Z</time></trkpt><trkpt lat="45.5177388" lon="11.2097806"><ele>632.0</ele><time>2026-04-06T13:29:28.396Z</time></trkpt><trkpt lat="45.5177298" lon="11.2098717"><ele>632.0</ele><time>2026-04-06T13:29:31.374Z</time></trkpt><trkpt lat="45.5177699" lon="11.2099576"><ele>632.0</ele><time>2026-04-06T13:29:35.368Z</time></trkpt><trkpt lat="45.5177585" lon="11.2100889"><ele>632.0000000000001</ele><time>2026-04-06T13:29:38.373Z</time></trkpt><trkpt lat="45.517788" lon="11.2101895"><ele>632.0</ele><time>2026-04-06T13:29:40.369Z</time></trkpt><trkpt lat="45.5179086" lon="11.2102541"><ele>626.1666666666666</ele><time>2026-04-06T13:29:41.381Z</time></trkpt><trkpt lat="45.5179672" lon="11.2103382"><ele>620.3333333333333</ele><time>2026-04-06T13:29:43.405Z</time></trkpt><trkpt lat="45.5180597" lon="11.2104178"><ele>614.5</ele><time>2026-04-06T13:29:45.37Z</time></trkpt><trkpt lat="45.5180233" lon="11.2105004"><ele>608.6666666666666</ele><time>2026-04-06T13:29:48.368Z</time></trkpt><trkpt lat="45.5180269" lon="11.210599"><ele>602.8333333333334</ele><time>2026-04-06T13:29:51.404Z</time></trkpt><trkpt lat="45.5180525" lon="11.2107023"><ele>597.0</ele><time>2026-04-06T13:29:54.377Z</time></trkpt><trkpt lat="45.5180651" lon="11.2108106"><ele>597.0</ele><time>2026-04-06T13:29:57.367Z</time></trkpt><trkpt lat="45.5180678" lon="11.2109104"><ele>597.0</ele><time>2026-04-06T13:30:00.372Z</time></trkpt><trkpt lat="45.5180287" lon="11.2110171"><ele>597.0</ele><time>2026-04-06T13:30:03.365Z</time></trkpt><trkpt lat="45.5179912" lon="11.2111149"><ele>597.0</ele><time>2026-04-06T13:30:06.37Z</time></trkpt><trkpt lat="45.5179286" lon="11.2112145"><ele>597.0</ele><time>2026-04-06T13:30:09.408Z</time></trkpt><trkpt lat="45.5178771" lon="11.2113183"><ele>597.0</ele><time>2026-04-06T13:30:12.369Z</time></trkpt><trkpt lat="45.5178314" lon="11.211393"><ele>602.5</ele><time>2026-04-06T13:30:16.376Z</time></trkpt><trkpt lat="45.5178159" lon="11.2114916"><ele>608.0</ele><time>2026-04-06T13:30:22.365Z</time></trkpt><trkpt lat="45.517765" lon="11.211578"><ele>613.5</ele><time>2026-04-06T13:30:26.415Z</time></trkpt><trkpt lat="45.5177429" lon="11.2116843"><ele>619.0</ele><time>2026-04-06T13:30:29.381Z</time></trkpt><trkpt lat="45.5176724" lon="11.2118107"><ele>624.5</ele><time>2026-04-06T13:30:30.409Z</time></trkpt><trkpt lat="45.5176392" lon="11.211915"><ele>630.0</ele><time>2026-04-06T13:30:31.416Z</time></trkpt><trkpt lat="45.5175989" lon="11.2120142"><ele>630.0</ele><time>2026-04-06T13:30:32.381Z</time></trkpt><trkpt lat="45.5175252" lon="11.2121786"><ele>630.0</ele><time>2026-04-06T13:30:34.43Z</time></trkpt><trkpt lat="45.5174316" lon="11.2123138"><ele>630.0</ele><time>2026-04-06T13:30:36.435Z</time></trkpt><trkpt lat="45.517381" lon="11.2123783"><ele>630.0</ele><time>2026-04-06T13:30:37.422Z</time></trkpt><trkpt lat="45.5173031" lon="11.2124705"><ele>630.0</ele><time>2026-04-06T13:30:39.381Z</time></trkpt><trkpt lat="45.5172551" lon="11.2125416"><ele>631.4285714285714</ele><time>2026-04-06T13:30:41.372Z</time></trkpt><trkpt lat="45.517198" lon="11.2125905"><ele>632.8571428571429</ele><time>2026-04-06T13:30:43.424Z</time></trkpt><trkpt lat="45.5171189" lon="11.2126444"><ele>634.2857142857142</ele><time>2026-04-06T13:30:48.374Z</time></trkpt><trkpt lat="45.5170667" lon="11.2127024"><ele>635.7142857142858</ele><time>2026-04-06T13:30:52.368Z</time></trkpt><trkpt lat="45.5170002" lon="11.2127391"><ele>637.1428571428571</ele><time>2026-04-06T13:30:56.422Z</time></trkpt><trkpt lat="45.516941" lon="11.2128006"><ele>638.5714285714286</ele><time>2026-04-06T13:31:01.373Z</time></trkpt><trkpt lat="45.516914" lon="11.2128871"><ele>640.0</ele><time>2026-04-06T13:31:04.389Z</time></trkpt><trkpt lat="45.516873" lon="11.212992"><ele>640.0</ele><time>2026-04-06T13:31:06.403Z</time></trkpt><trkpt lat="45.5168334" lon="11.2131194"><ele>640.0</ele><time>2026-04-06T13:31:08.403Z</time></trkpt><trkpt lat="45.5167879" lon="11.2133469"><ele>640.0</ele><time>2026-04-06T13:31:11.408Z</time></trkpt><trkpt lat="45.5167499" lon="11.2134327"><ele>640.0</ele><time>2026-04-06T13:31:12.397Z</time></trkpt><trkpt lat="45.5167101" lon="11.2135598"><ele>640.0</ele><time>2026-04-06T13:31:14.417Z</time></trkpt><trkpt lat="45.5166695" lon="11.2136364"><ele>636.2</ele><time>2026-04-06T13:31:15.406Z</time></trkpt><trkpt lat="45.5166055" lon="11.2137566"><ele>632.4</ele><time>2026-04-06T13:31:17.413Z</time></trkpt><trkpt lat="45.516549" lon="11.2138062"><ele>628.6</ele><time>2026-04-06T13:31:18.415Z</time></trkpt><trkpt lat="45.5164663" lon="11.2139133"><ele>624.8</ele><time>2026-04-06T13:31:20.41Z</time></trkpt><trkpt lat="45.5163868" lon="11.2139888"><ele>621.0</ele><time>2026-04-06T13:31:22.437Z</time></trkpt><trkpt lat="45.5163102" lon="11.2140228"><ele>620.0</ele><time>2026-04-06T13:31:25.422Z</time></trkpt><trkpt lat="45.5162596" lon="11.2141031"><ele>619.0</ele><time>2026-04-06T13:31:28.38Z</time></trkpt><trkpt lat="45.5161774" lon="11.2141301"><ele>618.0</ele><time>2026-04-06T13:31:30.426Z</time></trkpt><trkpt lat="45.516109" lon="11.2141762"><ele>617.0</ele><time>2026-04-06T13:31:32.369Z</time></trkpt><trkpt lat="45.5160075" lon="11.2142364"><ele>616.0</ele><time>2026-04-06T13:31:34.389Z</time></trkpt><trkpt lat="45.5158964" lon="11.2142983"><ele>616.0</ele><time>2026-04-06T13:31:36.435Z</time></trkpt><trkpt lat="45.5158077" lon="11.2143213"><ele>616.0</ele><time>2026-04-06T13:31:38.367Z</time></trkpt><trkpt lat="45.5157341" lon="11.2143697"><ele>616.0</ele><time>2026-04-06T13:31:40.366Z</time></trkpt><trkpt lat="45.5156537" lon="11.2144221"><ele>616.0</ele><time>2026-04-06T13:31:42.424Z</time></trkpt><trkpt lat="45.5155949" lon="11.2144661"><ele>616.0</ele><time>2026-04-06T13:31:44.424Z</time></trkpt><trkpt lat="45.5155408" lon="11.214516"><ele>616.0</ele><time>2026-04-06T13:31:46.424Z</time></trkpt><trkpt lat="45.5154862" lon="11.2145731"><ele>616.0</ele><time>2026-04-06T13:31:48.366Z</time></trkpt><trkpt lat="45.5154157" lon="11.2146609"><ele>616.0</ele><time>2026-04-06T13:31:50.425Z</time></trkpt><trkpt lat="45.5153482" lon="11.2147567"><ele>616.0</ele><time>2026-04-06T13:31:51.394Z</time></trkpt><trkpt lat="45.5152457" lon="11.2148271"><ele>616.0</ele><time>2026-04-06T13:31:54.446Z</time></trkpt><trkpt lat="45.5151709" lon="11.214858"><ele>616.0</ele><time>2026-04-06T13:31:56.439Z</time></trkpt><trkpt lat="45.515076" lon="11.2148763"><ele>616.3333333333334</ele><time>2026-04-06T13:32:00.391Z</time></trkpt><trkpt lat="45.5149874" lon="11.2149309"><ele>616.6666666666667</ele><time>2026-04-06T13:32:02.395Z</time></trkpt><trkpt lat="45.5148793" lon="11.2149321"><ele>617.0</ele><time>2026-04-06T13:32:04.393Z</time></trkpt><trkpt lat="45.5148118" lon="11.214892"><ele>617.3333333333334</ele><time>2026-04-06T13:32:07.371Z</time></trkpt><trkpt lat="45.5147305" lon="11.2148655"><ele>617.6666666666666</ele><time>2026-04-06T13:32:11.377Z</time></trkpt><trkpt lat="45.5146524" lon="11.2148407"><ele>618.0</ele><time>2026-04-06T13:32:14.38Z</time></trkpt><trkpt lat="45.5145748" lon="11.214814"><ele>614.6</ele><time>2026-04-06T13:32:16.377Z</time></trkpt><trkpt lat="45.5145126" lon="11.2147188"><ele>611.1999999999999</ele><time>2026-04-06T13:32:18.374Z</time></trkpt><trkpt lat="45.5144268" lon="11.2145998"><ele>607.8</ele><time>2026-04-06T13:32:20.367Z</time></trkpt><trkpt lat="45.5143306" lon="11.2145049"><ele>604.4</ele><time>2026-04-06T13:32:22.372Z</time></trkpt><trkpt lat="45.5142711" lon="11.2143881"><ele>601.0</ele><time>2026-04-06T13:32:24.368Z</time></trkpt><trkpt lat="45.5141729" lon="11.214356"><ele>601.0</ele><time>2026-04-06T13:32:26.371Z</time></trkpt><trkpt lat="45.5140753" lon="11.2142725"><ele>601.0</ele><time>2026-04-06T13:32:28.368Z</time></trkpt><trkpt lat="45.5139776" lon="11.2141469"><ele>601.0</ele><time>2026-04-06T13:32:30.371Z</time></trkpt><trkpt lat="45.5139299" lon="11.2140868"><ele>601.0</ele><time>2026-04-06T13:32:31.375Z</time></trkpt><trkpt lat="45.5138416" lon="11.2139671"><ele>601.0</ele><time>2026-04-06T13:32:33.373Z</time></trkpt><trkpt lat="45.5137745" lon="11.2139331"><ele>602.1666666666667</ele><time>2026-04-06T13:32:36.366Z</time></trkpt><trkpt lat="45.5137177" lon="11.2140078"><ele>603.3333333333334</ele><time>2026-04-06T13:32:38.377Z</time></trkpt><trkpt lat="45.5136237" lon="11.2140452"><ele>604.5</ele><time>2026-04-06T13:32:40.434Z</time></trkpt><trkpt lat="45.5135709" lon="11.213987"><ele>605.6666666666666</ele><time>2026-04-06T13:32:42.369Z</time></trkpt><trkpt lat="45.5134974" lon="11.2139763"><ele>606.8333333333333</ele><time>2026-04-06T13:32:45.368Z</time></trkpt><trkpt lat="45.513424" lon="11.2140225"><ele>608.0</ele><time>2026-04-06T13:32:48.374Z</time></trkpt><trkpt lat="45.5133552" lon="11.2141086"><ele>605.0</ele><time>2026-04-06T13:32:50.377Z</time></trkpt><trkpt lat="45.5132845" lon="11.2141566"><ele>602.0</ele><time>2026-04-06T13:32:51.375Z</time></trkpt><trkpt lat="45.5132145" lon="11.2141633"><ele>599.0</ele><time>2026-04-06T13:32:52.375Z</time></trkpt><trkpt lat="45.5130958" lon="11.2141532"><ele>596.0</ele><time>2026-04-06T13:32:54.424Z</time></trkpt><trkpt lat="45.5130323" lon="11.2141337"><ele>593.0</ele><time>2026-04-06T13:32:55.375Z</time></trkpt><trkpt lat="45.5129341" lon="11.2141272"><ele>590.0</ele><time>2026-04-06T13:32:57.43Z</time></trkpt><trkpt lat="45.5128684" lon="11.2141433"><ele>587.6</ele><time>2026-04-06T13:32:58.478Z</time></trkpt><trkpt lat="45.5127849" lon="11.2142343"><ele>585.2</ele><time>2026-04-06T13:35:13.373Z</time></trkpt><trkpt lat="45.5127026" lon="11.2142906"><ele>582.8</ele><time>2026-04-06T13:35:15.378Z</time></trkpt><trkpt lat="45.51264" lon="11.2143479"><ele>580.4</ele><time>2026-04-06T13:35:16.437Z</time></trkpt><trkpt lat="45.5125756" lon="11.2144054"><ele>578.0</ele><time>2026-04-06T13:35:17.386Z</time></trkpt><trkpt lat="45.5124587" lon="11.2145026"><ele>578.0</ele><time>2026-04-06T13:35:19.388Z</time></trkpt><trkpt lat="45.5123934" lon="11.2145544"><ele>578.0</ele><time>2026-04-06T13:35:20.391Z</time></trkpt><trkpt lat="45.5123092" lon="11.2145836"><ele>578.0</ele><time>2026-04-06T13:35:21.455Z</time></trkpt><trkpt lat="45.5122429" lon="11.2146098"><ele>578.0</ele><time>2026-04-06T13:35:22.43Z</time></trkpt><trkpt lat="45.5121366" lon="11.2146721"><ele>578.0</ele><time>2026-04-06T13:35:24.436Z</time></trkpt><trkpt lat="45.5120645" lon="11.2147223"><ele>578.0</ele><time>2026-04-06T13:35:26.379Z</time></trkpt><trkpt lat="45.5119971" lon="11.2147931"><ele>578.4285714285714</ele><time>2026-04-06T13:35:29.371Z</time></trkpt><trkpt lat="45.5119537" lon="11.2148676"><ele>578.8571428571429</ele><time>2026-04-06T13:35:33.37Z</time></trkpt><trkpt lat="45.5119136" lon="11.2149565"><ele>579.2857142857142</ele><time>2026-04-06T13:35:37.385Z</time></trkpt><trkpt lat="45.5118757" lon="11.2150667"><ele>579.7142857142858</ele><time>2026-04-06T13:35:43.378Z</time></trkpt><trkpt lat="45.51184" lon="11.215174"><ele>580.1428571428571</ele><time>2026-04-06T13:35:46.374Z</time></trkpt><trkpt lat="45.511838" lon="11.2152722"><ele>580.5714285714286</ele><time>2026-04-06T13:35:49.375Z</time></trkpt><trkpt lat="45.5118249" lon="11.2153628"><ele>581.0</ele><time>2026-04-06T13:35:52.371Z</time></trkpt><trkpt lat="45.5117975" lon="11.2154808"><ele>581.0</ele><time>2026-04-06T13:35:56.379Z</time></trkpt><trkpt lat="45.5117414" lon="11.2155695"><ele>581.0</ele><time>2026-04-06T13:35:59.425Z</time></trkpt><trkpt lat="45.5117606" lon="11.2156722"><ele>581.0</ele><time>2026-04-06T13:36:06.402Z</time></trkpt><trkpt lat="45.5117379" lon="11.215775"><ele>581.0</ele><time>2026-04-06T13:36:12.367Z</time></trkpt><trkpt lat="45.5117395" lon="11.2158812"><ele>581.0</ele><time>2026-04-06T13:36:17.383Z</time></trkpt><trkpt lat="45.5117068" lon="11.2159613"><ele>581.0</ele><time>2026-04-06T13:36:21.371Z</time></trkpt><trkpt lat="45.511686" lon="11.2160684"><ele>581.0</ele><time>2026-04-06T13:36:26.368Z</time></trkpt><trkpt lat="45.5116661" lon="11.2161618"><ele>581.0</ele><time>2026-04-06T13:36:34.451Z</time></trkpt><trkpt lat="45.5116366" lon="11.2162552"><ele>581.0</ele><time>2026-04-06T13:36:40.418Z</time></trkpt><trkpt lat="45.5115781" lon="11.2163262"><ele>581.0</ele><time>2026-04-06T13:36:45.425Z</time></trkpt><trkpt lat="45.5115136" lon="11.2163921"><ele>581.0</ele><time>2026-04-06T13:36:49.423Z</time></trkpt><trkpt lat="45.5114477" lon="11.2164693"><ele>581.0</ele><time>2026-04-06T13:36:53.406Z</time></trkpt><trkpt lat="45.5113899" lon="11.2165191"><ele>581.0</ele><time>2026-04-06T13:36:56.418Z</time></trkpt><trkpt lat="45.5113091" lon="11.2165743"><ele>581.0</ele><time>2026-04-06T13:36:59.433Z</time></trkpt><trkpt lat="45.5112425" lon="11.2166331"><ele>581.0</ele><time>2026-04-06T13:37:01.413Z</time></trkpt><trkpt lat="45.5111702" lon="11.2166866"><ele>581.0</ele><time>2026-04-06T13:37:04.445Z</time></trkpt><trkpt lat="45.5111004" lon="11.2167257"><ele>581.0</ele><time>2026-04-06T13:37:06.427Z</time></trkpt><trkpt lat="45.5110289" lon="11.2167718"><ele>581.0</ele><time>2026-04-06T13:37:08.44Z</time></trkpt><trkpt lat="45.5109418" lon="11.21683"><ele>581.0</ele><time>2026-04-06T13:37:10.465Z</time></trkpt><trkpt lat="45.5108573" lon="11.2168804"><ele>582.0</ele><time>2026-04-06T13:37:12.424Z</time></trkpt><trkpt lat="45.5107504" lon="11.2169246"><ele>583.0</ele><time>2026-04-06T13:37:14.425Z</time></trkpt><trkpt lat="45.5106128" lon="11.2169414"><ele>584.0</ele><time>2026-04-06T13:37:16.376Z</time></trkpt><trkpt lat="45.5105193" lon="11.2169501"><ele>585.0</ele><time>2026-04-06T13:37:18.415Z</time></trkpt><trkpt lat="45.5104226" lon="11.2169689"><ele>586.0</ele><time>2026-04-06T13:37:20.378Z</time></trkpt><trkpt lat="45.5103535" lon="11.2170016"><ele>586.1666666666667</ele><time>2026-04-06T13:37:22.372Z</time></trkpt><trkpt lat="45.5102893" lon="11.2170058"><ele>586.3333333333334</ele><time>2026-04-06T13:37:23.426Z</time></trkpt><trkpt lat="45.5101966" lon="11.2170203"><ele>586.5</ele><time>2026-04-06T13:37:25.386Z</time></trkpt><trkpt lat="45.5101153" lon="11.2170288"><ele>586.6666666666666</ele><time>2026-04-06T13:37:27.38Z</time></trkpt><trkpt lat="45.5100467" lon="11.2170217"><ele>586.8333333333333</ele><time>2026-04-06T13:37:29.375Z</time></trkpt><trkpt lat="45.5099603" lon="11.2169971"><ele>587.0</ele><time>2026-04-06T13:37:32.39Z</time></trkpt><trkpt lat="45.509873" lon="11.2169965"><ele>587.0</ele><time>2026-04-06T13:37:35.4Z</time></trkpt><trkpt lat="45.5099423" lon="11.2170441"><ele>587.0</ele><time>2026-04-06T13:37:46.369Z</time></trkpt><trkpt lat="45.5100101" lon="11.2170754"><ele>587.0</ele><time>2026-04-06T13:37:55.375Z</time></trkpt><trkpt lat="45.5100985" lon="11.2170823"><ele>587.0</ele><time>2026-04-06T13:38:28.37Z</time></trkpt><trkpt lat="45.5100207" lon="11.217041"><ele>587.0</ele><time>2026-04-06T13:38:56.384Z</time></trkpt><trkpt lat="45.5099337" lon="11.2169964"><ele>587.0</ele><time>2026-04-06T13:38:59.424Z</time></trkpt><trkpt lat="45.5098457" lon="11.2169683"><ele>587.0</ele><time>2026-04-06T13:39:01.367Z</time></trkpt><trkpt lat="45.5097594" lon="11.2169362"><ele>587.0</ele><time>2026-04-06T13:39:03.436Z</time></trkpt><trkpt lat="45.5096836" lon="11.2169163"><ele>587.0</ele><time>2026-04-06T13:39:05.381Z</time></trkpt><trkpt lat="45.5096189" lon="11.2169033"><ele>587.0</ele><time>2026-04-06T13:39:07.429Z</time></trkpt><trkpt lat="45.5095529" lon="11.2168851"><ele>587.0</ele><time>2026-04-06T13:39:10.437Z</time></trkpt><trkpt lat="45.5094843" lon="11.2168711"><ele>587.0</ele><time>2026-04-06T13:39:14.483Z</time></trkpt><trkpt lat="45.5094194" lon="11.2168459"><ele>587.0</ele><time>2026-04-06T13:39:18.412Z</time></trkpt><trkpt lat="45.5093392" lon="11.2168082"><ele>586.7142857142858</ele><time>2026-04-06T13:39:22.379Z</time></trkpt><trkpt lat="45.5092616" lon="11.2167726"><ele>586.4285714285714</ele><time>2026-04-06T13:39:25.402Z</time></trkpt><trkpt lat="45.5091947" lon="11.2167433"><ele>586.1428571428571</ele><time>2026-04-06T13:39:28.431Z</time></trkpt><trkpt lat="45.5091211" lon="11.2167092"><ele>585.8571428571429</ele><time>2026-04-06T13:39:32.424Z</time></trkpt><trkpt lat="45.5090568" lon="11.2166894"><ele>585.5714285714286</ele><time>2026-04-06T13:39:36.42Z</time></trkpt><trkpt lat="45.5089865" lon="11.2166659"><ele>585.2857142857143</ele><time>2026-04-06T13:39:39.406Z</time></trkpt><trkpt lat="45.5089192" lon="11.2166782"><ele>585.0</ele><time>2026-04-06T13:39:43.416Z</time></trkpt><trkpt lat="45.5088353" lon="11.2166436"><ele>585.0</ele><time>2026-04-06T13:39:47.372Z</time></trkpt><trkpt lat="45.508772" lon="11.2166223"><ele>585.0</ele><time>2026-04-06T13:39:49.417Z</time></trkpt><trkpt lat="45.5086682" lon="11.2165973"><ele>585.0</ele><time>2026-04-06T13:39:52.42Z</time></trkpt><trkpt lat="45.5085858" lon="11.2165729"><ele>585.0</ele><time>2026-04-06T13:39:55.39Z</time></trkpt><trkpt lat="45.5085016" lon="11.2165706"><ele>585.0</ele><time>2026-04-06T13:39:57.423Z</time></trkpt><trkpt lat="45.5083974" lon="11.2165951"><ele>585.0</ele><time>2026-04-06T13:39:59.378Z</time></trkpt><trkpt lat="45.508285" lon="11.2166381"><ele>584.0</ele><time>2026-04-06T13:40:01.387Z</time></trkpt><trkpt lat="45.5081944" lon="11.2167073"><ele>583.0</ele><time>2026-04-06T13:40:03.417Z</time></trkpt><trkpt lat="45.5081182" lon="11.2167747"><ele>582.0</ele><time>2026-04-06T13:40:05.432Z</time></trkpt><trkpt lat="45.5080683" lon="11.21685"><ele>581.0</ele><time>2026-04-06T13:40:09.382Z</time></trkpt><trkpt lat="45.5080075" lon="11.2168898"><ele>580.0</ele><time>2026-04-06T13:40:12.372Z</time></trkpt><trkpt lat="45.5079349" lon="11.2169453"><ele>579.0</ele><time>2026-04-06T13:40:15.384Z</time></trkpt><trkpt lat="45.5078737" lon="11.216988"><ele>578.0</ele><time>2026-04-06T13:40:18.378Z</time></trkpt><trkpt lat="45.5078046" lon="11.2170283"><ele>577.0</ele><time>2026-04-06T13:40:21.383Z</time></trkpt><trkpt lat="45.507733" lon="11.2170479"><ele>576.0</ele><time>2026-04-06T13:40:24.38Z</time></trkpt><trkpt lat="45.507658" lon="11.2170381"><ele>575.0</ele><time>2026-04-06T13:40:27.38Z</time></trkpt><trkpt lat="45.5075656" lon="11.2170467"><ele>574.0</ele><time>2026-04-06T13:40:30.383Z</time></trkpt><trkpt lat="45.5075" lon="11.2170633"><ele>573.0</ele><time>2026-04-06T13:40:32.376Z</time></trkpt><trkpt lat="45.5074228" lon="11.2170783"><ele>573.0</ele><time>2026-04-06T13:40:34.368Z</time></trkpt><trkpt lat="45.507347" lon="11.2171004"><ele>573.0</ele><time>2026-04-06T13:40:36.428Z</time></trkpt><trkpt lat="45.5072607" lon="11.2171144"><ele>573.0</ele><time>2026-04-06T13:40:38.447Z</time></trkpt><trkpt lat="45.5071614" lon="11.217132"><ele>573.0</ele><time>2026-04-06T13:40:40.429Z</time></trkpt><trkpt lat="45.5070742" lon="11.2171493"><ele>573.0</ele><time>2026-04-06T13:40:42.419Z</time></trkpt><trkpt lat="45.507002" lon="11.2171609"><ele>573.0</ele><time>2026-04-06T13:40:44.371Z</time></trkpt><trkpt lat="45.5068753" lon="11.2172228"><ele>573.1999999999999</ele><time>2026-04-06T13:40:47.411Z</time></trkpt><trkpt lat="45.5067822" lon="11.2172458"><ele>573.4</ele><time>2026-04-06T13:40:49.408Z</time></trkpt><trkpt lat="45.5066948" lon="11.2172803"><ele>573.5999999999999</ele><time>2026-04-06T13:40:51.405Z</time></trkpt><trkpt lat="45.506605" lon="11.2173122"><ele>573.8</ele><time>2026-04-06T13:40:53.371Z</time></trkpt><trkpt lat="45.5065219" lon="11.217344"><ele>574.0</ele><time>2026-04-06T13:40:55.37Z</time></trkpt><trkpt lat="45.5064328" lon="11.2173724"><ele>574.0</ele><time>2026-04-06T13:40:57.472Z</time></trkpt><trkpt lat="45.50637" lon="11.2173889"><ele>574.0</ele><time>2026-04-06T13:40:58.407Z</time></trkpt><trkpt lat="45.5062827" lon="11.2174265"><ele>574.0</ele><time>2026-04-06T13:41:00.416Z</time></trkpt><trkpt lat="45.5061768" lon="11.2174735"><ele>574.0</ele><time>2026-04-06T13:41:02.408Z</time></trkpt><trkpt lat="45.5060868" lon="11.2175409"><ele>574.0</ele><time>2026-04-06T13:41:04.412Z</time></trkpt><trkpt lat="45.5060247" lon="11.2175586"><ele>574.0</ele><time>2026-04-06T13:41:05.426Z</time></trkpt><trkpt lat="45.5059081" lon="11.2175953"><ele>573.3333333333334</ele><time>2026-04-06T13:41:07.419Z</time></trkpt><trkpt lat="45.5058419" lon="11.2176074"><ele>572.6666666666667</ele><time>2026-04-06T13:41:08.408Z</time></trkpt><trkpt lat="45.5057547" lon="11.2176362"><ele>572.0</ele><time>2026-04-06T13:41:10.391Z</time></trkpt><trkpt lat="45.505666" lon="11.2176608"><ele>571.3333333333334</ele><time>2026-04-06T13:41:12.426Z</time></trkpt><trkpt lat="45.5055846" lon="11.2176891"><ele>570.6666666666666</ele><time>2026-04-06T13:41:14.373Z</time></trkpt><trkpt lat="45.5054937" lon="11.217702"><ele>570.0</ele><time>2026-04-06T13:41:17.43Z</time></trkpt><trkpt lat="45.5054226" lon="11.217717"><ele>569.8333333333334</ele><time>2026-04-06T13:41:20.383Z</time></trkpt><trkpt lat="45.5053468" lon="11.2177249"><ele>569.6666666666666</ele><time>2026-04-06T13:41:22.434Z</time></trkpt><trkpt lat="45.5052564" lon="11.2177384"><ele>569.5</ele><time>2026-04-06T13:41:24.431Z</time></trkpt><trkpt lat="45.5051894" lon="11.217738"><ele>569.3333333333333</ele><time>2026-04-06T13:41:25.417Z</time></trkpt><trkpt lat="45.5051248" lon="11.217748"><ele>569.1666666666666</ele><time>2026-04-06T13:41:26.443Z</time></trkpt><trkpt lat="45.5049942" lon="11.217766"><ele>569.0</ele><time>2026-04-06T13:41:28.406Z</time></trkpt><trkpt lat="45.5048995" lon="11.217768"><ele>569.0</ele><time>2026-04-06T13:41:29.488Z</time></trkpt><trkpt lat="45.5048148" lon="11.2177681"><ele>569.0</ele><time>2026-04-06T13:41:30.391Z</time></trkpt><trkpt lat="45.5047426" lon="11.2177642"><ele>569.0</ele><time>2026-04-06T13:41:31.484Z</time></trkpt><trkpt lat="45.5046679" lon="11.2177546"><ele>569.0</ele><time>2026-04-06T13:41:32.4Z</time></trkpt><trkpt lat="45.5045907" lon="11.2177549"><ele>569.0</ele><time>2026-04-06T13:41:33.397Z</time></trkpt><trkpt lat="45.5044606" lon="11.2177637"><ele>569.0</ele><time>2026-04-06T13:41:35.426Z</time></trkpt><trkpt lat="45.5043956" lon="11.2177707"><ele>567.25</ele><time>2026-04-06T13:41:36.382Z</time></trkpt><trkpt lat="45.504331" lon="11.2177156"><ele>565.5</ele><time>2026-04-06T13:41:38.473Z</time></trkpt><trkpt lat="45.5041927" lon="11.2176677"><ele>563.75</ele><time>2026-04-06T13:41:40.377Z</time></trkpt><trkpt lat="45.5040413" lon="11.2175711"><ele>562.0</ele><time>2026-04-06T13:41:42.468Z</time></trkpt><trkpt lat="45.5039588" lon="11.2175229"><ele>562.0</ele><time>2026-04-06T13:41:43.484Z</time></trkpt><trkpt lat="45.5038867" lon="11.2174573"><ele>562.0</ele><time>2026-04-06T13:41:44.406Z</time></trkpt><trkpt lat="45.5037956" lon="11.2173805"><ele>562.0</ele><time>2026-04-06T13:41:46.399Z</time></trkpt><trkpt lat="45.5037244" lon="11.2173335"><ele>562.0</ele><time>2026-04-06T13:41:47.409Z</time></trkpt><trkpt lat="45.5036488" lon="11.2172982"><ele>562.0</ele><time>2026-04-06T13:41:48.481Z</time></trkpt><trkpt lat="45.5035679" lon="11.2172765"><ele>562.0</ele><time>2026-04-06T13:41:49.4Z</time></trkpt><trkpt lat="45.5034815" lon="11.2172625"><ele>561.0</ele><time>2026-04-06T13:41:50.36Z</time></trkpt><trkpt lat="45.5033914" lon="11.2172821"><ele>560.0</ele><time>2026-04-06T13:41:51.4Z</time></trkpt><trkpt lat="45.5033018" lon="11.217296"><ele>559.0</ele><time>2026-04-06T13:41:52.382Z</time></trkpt><trkpt lat="45.5032311" lon="11.2173309"><ele>558.0</ele><time>2026-04-06T13:41:53.379Z</time></trkpt><trkpt lat="45.5031474" lon="11.2173516"><ele>557.0</ele><time>2026-04-06T13:41:54.382Z</time></trkpt><trkpt lat="45.5030674" lon="11.2173655"><ele>556.0</ele><time>2026-04-06T13:41:55.398Z</time></trkpt><trkpt lat="45.5029868" lon="11.2173815"><ele>555.1666666666667</ele><time>2026-04-06T13:41:56.371Z</time></trkpt><trkpt lat="45.5029082" lon="11.217397"><ele>554.3333333333334</ele><time>2026-04-06T13:41:57.421Z</time></trkpt><trkpt lat="45.5028406" lon="11.2174162"><ele>553.5</ele><time>2026-04-06T13:41:58.388Z</time></trkpt><trkpt lat="45.5026969" lon="11.2174444"><ele>552.6666666666666</ele><time>2026-04-06T13:42:00.376Z</time></trkpt><trkpt lat="45.5026278" lon="11.2174608"><ele>551.8333333333333</ele><time>2026-04-06T13:42:01.406Z</time></trkpt><trkpt lat="45.502556" lon="11.2174849"><ele>551.0</ele><time>2026-04-06T13:42:02.38Z</time></trkpt><trkpt lat="45.5024865" lon="11.217503"><ele>551.0</ele><time>2026-04-06T13:42:03.449Z</time></trkpt><trkpt lat="45.5024184" lon="11.2175033"><ele>551.0</ele><time>2026-04-06T13:42:04.484Z</time></trkpt><trkpt lat="45.5023518" lon="11.2175259"><ele>551.0</ele><time>2026-04-06T13:42:05.423Z</time></trkpt><trkpt lat="45.5022658" lon="11.217571"><ele>551.0</ele><time>2026-04-06T13:42:07.413Z</time></trkpt><trkpt lat="45.5021871" lon="11.2176035"><ele>551.0</ele><time>2026-04-06T13:42:09.396Z</time></trkpt><trkpt lat="45.5021076" lon="11.2176401"><ele>551.0</ele><time>2026-04-06T13:42:11.416Z</time></trkpt><trkpt lat="45.5020367" lon="11.2176586"><ele>549.6</ele><time>2026-04-06T13:42:13.368Z</time></trkpt><trkpt lat="45.5019367" lon="11.2176811"><ele>548.2</ele><time>2026-04-06T13:42:15.4Z</time></trkpt><trkpt lat="45.5018296" lon="11.217724"><ele>546.8</ele><time>2026-04-06T13:42:17.379Z</time></trkpt><trkpt lat="45.5017096" lon="11.21772"><ele>545.4</ele><time>2026-04-06T13:42:19.39Z</time></trkpt><trkpt lat="45.5015961" lon="11.2177571"><ele>544.0</ele><time>2026-04-06T13:42:21.381Z</time></trkpt><trkpt lat="45.5015306" lon="11.2177822"><ele>544.0</ele><time>2026-04-06T13:42:22.388Z</time></trkpt><trkpt lat="45.5014537" lon="11.2178045"><ele>544.0</ele><time>2026-04-06T13:42:23.367Z</time></trkpt><trkpt lat="45.5013794" lon="11.2178182"><ele>544.0</ele><time>2026-04-06T13:42:24.381Z</time></trkpt><trkpt lat="45.5012876" lon="11.2178148"><ele>544.0</ele><time>2026-04-06T13:42:25.38Z</time></trkpt><trkpt lat="45.5011986" lon="11.2178092"><ele>544.0</ele><time>2026-04-06T13:42:26.387Z</time></trkpt><trkpt lat="45.5010928" lon="11.2178123"><ele>544.0</ele><time>2026-04-06T13:42:27.376Z</time></trkpt><trkpt lat="45.5010151" lon="11.2178177"><ele>541.8</ele><time>2026-04-06T13:42:28.38Z</time></trkpt><trkpt lat="45.5009207" lon="11.2178201"><ele>539.5999999999999</ele><time>2026-04-06T13:42:29.381Z</time></trkpt><trkpt lat="45.5008214" lon="11.2177814"><ele>537.4</ele><time>2026-04-06T13:42:30.38Z</time></trkpt><trkpt lat="45.5007291" lon="11.2177714"><ele>535.1999999999999</ele><time>2026-04-06T13:42:31.384Z</time></trkpt><trkpt lat="45.5006398" lon="11.2177748"><ele>533.0</ele><time>2026-04-06T13:42:32.379Z</time></trkpt><trkpt lat="45.5005436" lon="11.2177766"><ele>533.0</ele><time>2026-04-06T13:42:33.376Z</time></trkpt><trkpt lat="45.5004403" lon="11.2178071"><ele>533.0</ele><time>2026-04-06T13:42:34.379Z</time></trkpt><trkpt lat="45.5003478" lon="11.217845"><ele>533.0</ele><time>2026-04-06T13:42:35.389Z</time></trkpt><trkpt lat="45.5002604" lon="11.2178959"><ele>533.0</ele><time>2026-04-06T13:42:36.377Z</time></trkpt><trkpt lat="45.5001683" lon="11.2179502"><ele>533.0</ele><time>2026-04-06T13:42:37.381Z</time></trkpt><trkpt lat="45.5000746" lon="11.2180144"><ele>531.4</ele><time>2026-04-06T13:42:38.383Z</time></trkpt><trkpt lat="45.4999852" lon="11.2180839"><ele>529.8</ele><time>2026-04-06T13:42:39.364Z</time></trkpt><trkpt lat="45.4999003" lon="11.2181438"><ele>528.2</ele><time>2026-04-06T13:42:40.386Z</time></trkpt><trkpt lat="45.4998027" lon="11.2181954"><ele>526.6</ele><time>2026-04-06T13:42:41.385Z</time></trkpt><trkpt lat="45.4997022" lon="11.218229"><ele>525.0</ele><time>2026-04-06T13:42:42.38Z</time></trkpt><trkpt lat="45.4995938" lon="11.2182737"><ele>524.4</ele><time>2026-04-06T13:42:43.375Z</time></trkpt><trkpt lat="45.499489" lon="11.2183042"><ele>523.8</ele><time>2026-04-06T13:42:44.382Z</time></trkpt><trkpt lat="45.4993775" lon="11.2183364"><ele>523.2</ele><time>2026-04-06T13:42:45.381Z</time></trkpt><trkpt lat="45.4992687" lon="11.2183699"><ele>522.6</ele><time>2026-04-06T13:42:46.385Z</time></trkpt><trkpt lat="45.4991757" lon="11.2183957"><ele>522.0</ele><time>2026-04-06T13:42:47.384Z</time></trkpt><trkpt lat="45.4990839" lon="11.2184333"><ele>522.0</ele><time>2026-04-06T13:42:48.371Z</time></trkpt><trkpt lat="45.4990135" lon="11.2184543"><ele>522.0</ele><time>2026-04-06T13:42:49.378Z</time></trkpt><trkpt lat="45.4989252" lon="11.218507"><ele>522.0</ele><time>2026-04-06T13:42:50.365Z</time></trkpt><trkpt lat="45.498863" lon="11.2185261"><ele>522.0</ele><time>2026-04-06T13:42:51.379Z</time></trkpt><trkpt lat="45.498781" lon="11.2185522"><ele>522.0</ele><time>2026-04-06T13:42:54.374Z</time></trkpt><trkpt lat="45.4987" lon="11.2185825"><ele>522.0</ele><time>2026-04-06T13:42:57.379Z</time></trkpt><trkpt lat="45.4986115" lon="11.2186214"><ele>522.3333333333334</ele><time>2026-04-06T13:43:00.364Z</time></trkpt><trkpt lat="45.4985418" lon="11.2186713"><ele>522.6666666666666</ele><time>2026-04-06T13:43:03.374Z</time></trkpt><trkpt lat="45.4984803" lon="11.2187223"><ele>523.0</ele><time>2026-04-06T13:43:06.374Z</time></trkpt><trkpt lat="45.4983983" lon="11.2187562"><ele>523.3333333333333</ele><time>2026-04-06T13:43:10.403Z</time></trkpt><trkpt lat="45.4983306" lon="11.2187553"><ele>523.6666666666666</ele><time>2026-04-06T13:43:13.389Z</time></trkpt><trkpt lat="45.4982511" lon="11.2187628"><ele>524.0</ele><time>2026-04-06T13:43:16.575Z</time></trkpt><trkpt lat="45.4981788" lon="11.218781"><ele>524.0</ele><time>2026-04-06T13:43:19.405Z</time></trkpt><trkpt lat="45.4981128" lon="11.2188503"><ele>524.0</ele><time>2026-04-06T13:43:23.395Z</time></trkpt><trkpt lat="45.4980391" lon="11.2188962"><ele>524.0</ele><time>2026-04-06T13:43:26.418Z</time></trkpt><trkpt lat="45.4979831" lon="11.2189578"><ele>524.0</ele><time>2026-04-06T13:43:29.431Z</time></trkpt><trkpt lat="45.4979064" lon="11.218998"><ele>524.0</ele><time>2026-04-06T13:43:32.402Z</time></trkpt><trkpt lat="45.4978148" lon="11.2190152"><ele>524.0</ele><time>2026-04-06T13:43:35.398Z</time></trkpt><trkpt lat="45.4977365" lon="11.2190389"><ele>524.8</ele><time>2026-04-06T13:43:38.414Z</time></trkpt><trkpt lat="45.4976568" lon="11.2190918"><ele>525.5999999999999</ele><time>2026-04-06T13:43:41.375Z</time></trkpt><trkpt lat="45.4975889" lon="11.2191242"><ele>526.4</ele><time>2026-04-06T13:43:43.374Z</time></trkpt><trkpt lat="45.4975209" lon="11.2191766"><ele>527.1999999999999</ele><time>2026-04-06T13:43:45.469Z</time></trkpt><trkpt lat="45.497415" lon="11.2192633"><ele>528.0</ele><time>2026-04-06T13:43:47.43Z</time></trkpt><trkpt lat="45.4973149" lon="11.2193711"><ele>528.0</ele><time>2026-04-06T13:43:49.437Z</time></trkpt><trkpt lat="45.497186" lon="11.2194978"><ele>528.0</ele><time>2026-04-06T13:43:52.403Z</time></trkpt><trkpt lat="45.4971048" lon="11.2195236"><ele>528.0</ele><time>2026-04-06T13:43:54.371Z</time></trkpt><trkpt lat="45.4970287" lon="11.2195373"><ele>528.0</ele><time>2026-04-06T13:43:57.408Z</time></trkpt><trkpt lat="45.4969507" lon="11.2195591"><ele>528.0</ele><time>2026-04-06T13:44:00.377Z</time></trkpt><trkpt lat="45.4968502" lon="11.2195775"><ele>526.8333333333334</ele><time>2026-04-06T13:44:03.39Z</time></trkpt><trkpt lat="45.4967684" lon="11.2195963"><ele>525.6666666666666</ele><time>2026-04-06T13:44:05.419Z</time></trkpt><trkpt lat="45.4966838" lon="11.219618"><ele>524.5</ele><time>2026-04-06T13:44:07.395Z</time></trkpt><trkpt lat="45.4966205" lon="11.2196261"><ele>523.3333333333333</ele><time>2026-04-06T13:44:08.404Z</time></trkpt><trkpt lat="45.496532" lon="11.2196455"><ele>522.1666666666666</ele><time>2026-04-06T13:44:10.37Z</time></trkpt><trkpt lat="45.4964106" lon="11.2196787"><ele>521.0</ele><time>2026-04-06T13:44:12.472Z</time></trkpt><trkpt lat="45.4963316" lon="11.2196841"><ele>521.0</ele><time>2026-04-06T13:44:13.397Z</time></trkpt><trkpt lat="45.4962659" lon="11.2196927"><ele>521.0</ele><time>2026-04-06T13:44:14.411Z</time></trkpt><trkpt lat="45.4960967" lon="11.2197605"><ele>521.0</ele><time>2026-04-06T13:44:17.486Z</time></trkpt><trkpt lat="45.4959862" lon="11.2198635"><ele>521.0</ele><time>2026-04-06T13:44:19.435Z</time></trkpt><trkpt lat="45.4959391" lon="11.2199275"><ele>521.0</ele><time>2026-04-06T13:44:20.412Z</time></trkpt><trkpt lat="45.495874" lon="11.219969"><ele>520.1666666666666</ele><time>2026-04-06T13:44:21.477Z</time></trkpt><trkpt lat="45.4958068" lon="11.2200514"><ele>519.3333333333333</ele><time>2026-04-06T13:44:22.415Z</time></trkpt><trkpt lat="45.4957477" lon="11.220115"><ele>518.5</ele><time>2026-04-06T13:44:23.381Z</time></trkpt><trkpt lat="45.4956656" lon="11.2201829"><ele>517.6666666666666</ele><time>2026-04-06T13:44:24.385Z</time></trkpt><trkpt lat="45.4955994" lon="11.2202575"><ele>516.8333333333334</ele><time>2026-04-06T13:44:25.409Z</time></trkpt><trkpt lat="45.4955229" lon="11.2203219"><ele>516.0</ele><time>2026-04-06T13:44:26.477Z</time></trkpt><trkpt lat="45.4954545" lon="11.2203753"><ele>514.1666666666666</ele><time>2026-04-06T13:44:27.43Z</time></trkpt><trkpt lat="45.4953827" lon="11.2204262"><ele>512.3333333333334</ele><time>2026-04-06T13:44:28.491Z</time></trkpt><trkpt lat="45.4953085" lon="11.2204846"><ele>510.5</ele><time>2026-04-06T13:44:29.412Z</time></trkpt><trkpt lat="45.4952292" lon="11.2205451"><ele>508.6666666666667</ele><time>2026-04-06T13:44:30.418Z</time></trkpt><trkpt lat="45.4951493" lon="11.2206063"><ele>506.83333333333337</ele><time>2026-04-06T13:44:31.48Z</time></trkpt><trkpt lat="45.4950671" lon="11.2206693"><ele>505.0</ele><time>2026-04-06T13:44:32.413Z</time></trkpt><trkpt lat="45.4949742" lon="11.2207197"><ele>505.00000000000006</ele><time>2026-04-06T13:44:33.448Z</time></trkpt><trkpt lat="45.4948863" lon="11.2207674"><ele>505.0</ele><time>2026-04-06T13:44:34.485Z</time></trkpt><trkpt lat="45.4948175" lon="11.2208134"><ele>505.0</ele><time>2026-04-06T13:44:35.427Z</time></trkpt><trkpt lat="45.4947569" lon="11.2208576"><ele>505.0</ele><time>2026-04-06T13:44:36.452Z</time></trkpt><trkpt lat="45.4946543" lon="11.22095"><ele>505.00000000000006</ele><time>2026-04-06T13:44:38.371Z</time></trkpt><trkpt lat="45.4945877" lon="11.2209984"><ele>505.0</ele><time>2026-04-06T13:44:39.492Z</time></trkpt><trkpt lat="45.4945137" lon="11.2210199"><ele>504.00000000000006</ele><time>2026-04-06T13:44:40.462Z</time></trkpt><trkpt lat="45.4944396" lon="11.221066"><ele>503.0</ele><time>2026-04-06T13:44:41.488Z</time></trkpt><trkpt lat="45.4943588" lon="11.2211327"><ele>502.0</ele><time>2026-04-06T13:44:42.434Z</time></trkpt><trkpt lat="45.4942824" lon="11.2212075"><ele>501.0</ele><time>2026-04-06T13:44:43.417Z</time></trkpt><trkpt lat="45.4942089" lon="11.2212508"><ele>500.00000000000006</ele><time>2026-04-06T13:44:44.412Z</time></trkpt><trkpt lat="45.4941459" lon="11.2212948"><ele>499.0</ele><time>2026-04-06T13:44:45.422Z</time></trkpt><trkpt lat="45.4940376" lon="11.2213132"><ele>499.0</ele><time>2026-04-06T13:44:47.457Z</time></trkpt><trkpt lat="45.4939371" lon="11.2213021"><ele>499.0</ele><time>2026-04-06T13:44:49.418Z</time></trkpt><trkpt lat="45.4938316" lon="11.2212807"><ele>499.0</ele><time>2026-04-06T13:44:51.4Z</time></trkpt><trkpt lat="45.4937631" lon="11.2212414"><ele>499.0</ele><time>2026-04-06T13:44:52.416Z</time></trkpt><trkpt lat="45.4936788" lon="11.2211757"><ele>499.0</ele><time>2026-04-06T13:44:53.449Z</time></trkpt><trkpt lat="45.4936151" lon="11.2211092"><ele>499.00000000000006</ele><time>2026-04-06T13:44:54.39Z</time></trkpt><trkpt lat="45.4935318" lon="11.221057"><ele>499.0</ele><time>2026-04-06T13:44:55.375Z</time></trkpt><trkpt lat="45.4934444" lon="11.2210083"><ele>499.0</ele><time>2026-04-06T13:44:56.404Z</time></trkpt><trkpt lat="45.4933751" lon="11.2209593"><ele>499.0</ele><time>2026-04-06T13:44:57.373Z</time></trkpt><trkpt lat="45.4932999" lon="11.2209147"><ele>499.00000000000006</ele><time>2026-04-06T13:44:58.425Z</time></trkpt><trkpt lat="45.4932284" lon="11.2208772"><ele>499.0</ele><time>2026-04-06T13:44:59.428Z</time></trkpt><trkpt lat="45.4931316" lon="11.2208206"><ele>499.00000000000006</ele><time>2026-04-06T13:45:01.426Z</time></trkpt><trkpt lat="45.4930189" lon="11.220785"><ele>499.0</ele><time>2026-04-06T13:45:03.439Z</time></trkpt><trkpt lat="45.492931" lon="11.2207656"><ele>499.0</ele><time>2026-04-06T13:45:04.43Z</time></trkpt><trkpt lat="45.4928684" lon="11.2207376"><ele>499.0</ele><time>2026-04-06T13:45:05.439Z</time></trkpt><trkpt lat="45.4928015" lon="11.2207226"><ele>499.00000000000006</ele><time>2026-04-06T13:45:06.419Z</time></trkpt><trkpt lat="45.4927197" lon="11.220716"><ele>499.0</ele><time>2026-04-06T13:45:07.427Z</time></trkpt><trkpt lat="45.4925947" lon="11.2206921"><ele>499.2</ele><time>2026-04-06T13:45:09.399Z</time></trkpt><trkpt lat="45.4924713" lon="11.2206758"><ele>499.4</ele><time>2026-04-06T13:45:11.4Z</time></trkpt><trkpt lat="45.4923462" lon="11.2206489"><ele>499.6</ele><time>2026-04-06T13:45:13.414Z</time></trkpt><trkpt lat="45.4922467" lon="11.2206469"><ele>499.8</ele><time>2026-04-06T13:45:15.432Z</time></trkpt><trkpt lat="45.4921817" lon="11.2206579"><ele>500.0</ele><time>2026-04-06T13:45:16.433Z</time></trkpt><trkpt lat="45.492068" lon="11.2206951"><ele>496.66666666666663</ele><time>2026-04-06T13:45:18.41Z</time></trkpt><trkpt lat="45.4919658" lon="11.2207746"><ele>493.3333333333333</ele><time>2026-04-06T13:45:20.405Z</time></trkpt><trkpt lat="45.4918995" lon="11.2208181"><ele>490.0</ele><time>2026-04-06T13:45:21.411Z</time></trkpt><trkpt lat="45.4918176" lon="11.2208822"><ele>486.66666666666663</ele><time>2026-04-06T13:45:22.431Z</time></trkpt><trkpt lat="45.4917577" lon="11.2209415"><ele>483.3333333333333</ele><time>2026-04-06T13:45:23.431Z</time></trkpt><trkpt lat="45.4917077" lon="11.2210016"><ele>480.0</ele><time>2026-04-06T13:45:24.428Z</time></trkpt><trkpt lat="45.4916533" lon="11.221069"><ele>480.0</ele><time>2026-04-06T13:45:25.425Z</time></trkpt><trkpt lat="45.49159" lon="11.2211396"><ele>480.0</ele><time>2026-04-06T13:45:26.407Z</time></trkpt><trkpt lat="45.4915155" lon="11.2212074"><ele>480.0</ele><time>2026-04-06T13:45:27.409Z</time></trkpt><trkpt lat="45.4914429" lon="11.2212741"><ele>480.0</ele><time>2026-04-06T13:45:28.415Z</time></trkpt><trkpt lat="45.4913747" lon="11.2213362"><ele>480.0</ele><time>2026-04-06T13:45:29.371Z</time></trkpt><trkpt lat="45.4912903" lon="11.2214067"><ele>480.0</ele><time>2026-04-06T13:45:30.379Z</time></trkpt><trkpt lat="45.491195" lon="11.2214754"><ele>479.1666666666667</ele><time>2026-04-06T13:45:32.419Z</time></trkpt><trkpt lat="45.4911354" lon="11.2215389"><ele>478.33333333333337</ele><time>2026-04-06T13:45:35.417Z</time></trkpt><trkpt lat="45.4910782" lon="11.2215932"><ele>477.5</ele><time>2026-04-06T13:45:37.372Z</time></trkpt><trkpt lat="45.4910131" lon="11.221679"><ele>476.6666666666667</ele><time>2026-04-06T13:45:39.375Z</time></trkpt><trkpt lat="45.4909632" lon="11.2217483"><ele>475.83333333333337</ele><time>2026-04-06T13:45:41.372Z</time></trkpt><trkpt lat="45.4909155" lon="11.2218364"><ele>475.0</ele><time>2026-04-06T13:45:43.373Z</time></trkpt><trkpt lat="45.4908678" lon="11.2219228"><ele>475.0</ele><time>2026-04-06T13:45:46.383Z</time></trkpt><trkpt lat="45.490823" lon="11.2220119"><ele>475.00000000000006</ele><time>2026-04-06T13:45:50.377Z</time></trkpt><trkpt lat="45.4908021" lon="11.2221263"><ele>475.0</ele><time>2026-04-06T13:45:54.377Z</time></trkpt><trkpt lat="45.4907924" lon="11.2222151"><ele>475.0</ele><time>2026-04-06T13:45:57.377Z</time></trkpt><trkpt lat="45.4907721" lon="11.2223137"><ele>475.00000000000006</ele><time>2026-04-06T13:46:01.373Z</time></trkpt><trkpt lat="45.4907328" lon="11.222396"><ele>475.0</ele><time>2026-04-06T13:46:04.381Z</time></trkpt><trkpt lat="45.4907015" lon="11.2224947"><ele>475.0</ele><time>2026-04-06T13:46:08.377Z</time></trkpt><trkpt lat="45.4906858" lon="11.2225858"><ele>474.8571428571429</ele><time>2026-04-06T13:46:12.38Z</time></trkpt><trkpt lat="45.4906523" lon="11.2226625"><ele>474.7142857142858</ele><time>2026-04-06T13:46:15.374Z</time></trkpt><trkpt lat="45.4906052" lon="11.2227282"><ele>474.57142857142856</ele><time>2026-04-06T13:46:17.374Z</time></trkpt><trkpt lat="45.4905555" lon="11.2228041"><ele>474.42857142857144</ele><time>2026-04-06T13:46:20.373Z</time></trkpt><trkpt lat="45.4905049" lon="11.2228723"><ele>474.2857142857143</ele><time>2026-04-06T13:46:23.368Z</time></trkpt><trkpt lat="45.4904331" lon="11.2229505"><ele>474.1428571428571</ele><time>2026-04-06T13:46:27.375Z</time></trkpt><trkpt lat="45.4903514" lon="11.2229767"><ele>473.99999999999994</ele><time>2026-04-06T13:46:30.376Z</time></trkpt><trkpt lat="45.4902842" lon="11.222994"><ele>474.0</ele><time>2026-04-06T13:46:33.373Z</time></trkpt><trkpt lat="45.4902083" lon="11.2230199"><ele>474.0</ele><time>2026-04-06T13:46:37.375Z</time></trkpt><trkpt lat="45.490144" lon="11.2230261"><ele>474.0</ele><time>2026-04-06T13:46:39.395Z</time></trkpt><trkpt lat="45.4900689" lon="11.22306"><ele>474.0</ele><time>2026-04-06T13:46:41.377Z</time></trkpt><trkpt lat="45.489978" lon="11.2231356"><ele>474.0</ele><time>2026-04-06T13:46:43.377Z</time></trkpt><trkpt lat="45.4898987" lon="11.2232177"><ele>474.0</ele><time>2026-04-06T13:46:45.375Z</time></trkpt><trkpt lat="45.4898153" lon="11.2232843"><ele>473.8571428571428</ele><time>2026-04-06T13:46:47.383Z</time></trkpt><trkpt lat="45.4897114" lon="11.2233526"><ele>473.71428571428567</ele><time>2026-04-06T13:46:49.38Z</time></trkpt><trkpt lat="45.489652" lon="11.2233881"><ele>473.57142857142856</ele><time>2026-04-06T13:46:50.447Z</time></trkpt><trkpt lat="45.4895925" lon="11.2234248"><ele>473.4285714285714</ele><time>2026-04-06T13:46:51.369Z</time></trkpt><trkpt lat="45.4895279" lon="11.2234556"><ele>473.2857142857142</ele><time>2026-04-06T13:46:52.387Z</time></trkpt><trkpt lat="45.4894698" lon="11.2234944"><ele>473.14285714285717</ele><time>2026-04-06T13:46:53.386Z</time></trkpt><trkpt lat="45.4894001" lon="11.223526"><ele>473.0</ele><time>2026-04-06T13:46:54.375Z</time></trkpt><trkpt lat="45.4893378" lon="11.223556"><ele>472.99999999999994</ele><time>2026-04-06T13:46:55.384Z</time></trkpt><trkpt lat="45.4892723" lon="11.2235897"><ele>473.0</ele><time>2026-04-06T13:46:56.373Z</time></trkpt><trkpt lat="45.4892087" lon="11.22363"><ele>473.0</ele><time>2026-04-06T13:46:57.369Z</time></trkpt><trkpt lat="45.4891147" lon="11.2236908"><ele>473.0</ele><time>2026-04-06T13:46:59.377Z</time></trkpt><trkpt lat="45.4890191" lon="11.2237409"><ele>472.99999999999994</ele><time>2026-04-06T13:47:01.379Z</time></trkpt><trkpt lat="45.4889369" lon="11.2237787"><ele>473.0</ele><time>2026-04-06T13:47:04.428Z</time></trkpt><trkpt lat="45.4889053" lon="11.2236629"><ele>473.0</ele><time>2026-04-06T13:47:06.37Z</time></trkpt><trkpt lat="45.4888995" lon="11.2235393"><ele>472.99999999999994</ele><time>2026-04-06T13:47:09.364Z</time></trkpt><trkpt lat="45.4888809" lon="11.2234373"><ele>472.99999999999994</ele><time>2026-04-06T13:47:10.372Z</time></trkpt><trkpt lat="45.4888022" lon="11.2233108"><ele>473.0</ele><time>2026-04-06T13:47:12.369Z</time></trkpt><trkpt lat="45.4887221" lon="11.2232786"><ele>473.0</ele><time>2026-04-06T13:47:14.367Z</time></trkpt><trkpt lat="45.4886188" lon="11.2232513"><ele>472.25</ele><time>2026-04-06T13:47:16.377Z</time></trkpt><trkpt lat="45.4887065" lon="11.2231556"><ele>471.5</ele><time>2026-04-06T13:47:21.365Z</time></trkpt><trkpt lat="45.4888202" lon="11.2230865"><ele>470.75</ele><time>2026-04-06T13:47:22.368Z</time></trkpt><trkpt lat="45.4889056" lon="11.2230168"><ele>470.0</ele><time>2026-04-06T13:47:23.37Z</time></trkpt><trkpt lat="45.4890172" lon="11.2229097"><ele>467.6</ele><time>2026-04-06T13:47:24.375Z</time></trkpt><trkpt lat="45.4890832" lon="11.2227746"><ele>465.2</ele><time>2026-04-06T13:47:25.379Z</time></trkpt><trkpt lat="45.4891321" lon="11.2226335"><ele>462.79999999999995</ele><time>2026-04-06T13:47:26.377Z</time></trkpt><trkpt lat="45.4891358" lon="11.2225057"><ele>460.4</ele><time>2026-04-06T13:47:27.386Z</time></trkpt><trkpt lat="45.4891414" lon="11.2223772"><ele>458.0</ele><time>2026-04-06T13:47:28.404Z</time></trkpt><trkpt lat="45.4891501" lon="11.2222643"><ele>456.59999999999997</ele><time>2026-04-06T13:47:29.391Z</time></trkpt><trkpt lat="45.4891712" lon="11.2221631"><ele>455.19999999999993</ele><time>2026-04-06T13:47:30.367Z</time></trkpt><trkpt lat="45.4891998" lon="11.2219987"><ele>453.8</ele><time>2026-04-06T13:47:32.392Z</time></trkpt><trkpt lat="45.4891654" lon="11.2218887"><ele>452.4</ele><time>2026-04-06T13:47:34.376Z</time></trkpt><trkpt lat="45.4890564" lon="11.2219019"><ele>451.0</ele><time>2026-04-06T13:47:36.377Z</time></trkpt><trkpt lat="45.4889913" lon="11.2219291"><ele>451.00000000000006</ele><time>2026-04-06T13:47:37.385Z</time></trkpt><trkpt lat="45.4889225" lon="11.2219032"><ele>451.0</ele><time>2026-04-06T13:47:38.379Z</time></trkpt><trkpt lat="45.4888585" lon="11.2218205"><ele>451.0</ele><time>2026-04-06T13:47:39.384Z</time></trkpt><trkpt lat="45.4887914" lon="11.2217435"><ele>451.0</ele><time>2026-04-06T13:47:40.377Z</time></trkpt><trkpt lat="45.488729" lon="11.22166"><ele>451.00000000000006</ele><time>2026-04-06T13:47:41.376Z</time></trkpt><trkpt lat="45.4886597" lon="11.221585"><ele>451.0</ele><time>2026-04-06T13:47:42.393Z</time></trkpt><trkpt lat="45.4885727" lon="11.221515"><ele>447.6</ele><time>2026-04-06T13:47:43.401Z</time></trkpt><trkpt lat="45.4884804" lon="11.2214464"><ele>444.20000000000005</ele><time>2026-04-06T13:47:44.42Z</time></trkpt><trkpt lat="45.48839" lon="11.2213832"><ele>440.79999999999995</ele><time>2026-04-06T13:47:45.374Z</time></trkpt><trkpt lat="45.4882978" lon="11.2213309"><ele>437.4</ele><time>2026-04-06T13:47:46.411Z</time></trkpt><trkpt lat="45.4881989" lon="11.2212807"><ele>434.0</ele><time>2026-04-06T13:47:47.44Z</time></trkpt><trkpt lat="45.4881088" lon="11.2212283"><ele>434.0</ele><time>2026-04-06T13:47:48.424Z</time></trkpt><trkpt lat="45.4880073" lon="11.2212038"><ele>434.0</ele><time>2026-04-06T13:47:49.403Z</time></trkpt><trkpt lat="45.4879058" lon="11.2212062"><ele>434.0</ele><time>2026-04-06T13:47:50.415Z</time></trkpt><trkpt lat="45.4878123" lon="11.2212221"><ele>434.0</ele><time>2026-04-06T13:47:51.387Z</time></trkpt><trkpt lat="45.4877173" lon="11.2212294"><ele>434.0</ele><time>2026-04-06T13:47:52.414Z</time></trkpt><trkpt lat="45.4876352" lon="11.2212296"><ele>432.6</ele><time>2026-04-06T13:47:53.403Z</time></trkpt><trkpt lat="45.4875475" lon="11.2212468"><ele>431.2</ele><time>2026-04-06T13:47:54.404Z</time></trkpt><trkpt lat="45.4874594" lon="11.2212906"><ele>429.80000000000007</ele><time>2026-04-06T13:47:55.415Z</time></trkpt><trkpt lat="45.4873667" lon="11.2213687"><ele>428.40000000000003</ele><time>2026-04-06T13:47:56.408Z</time></trkpt><trkpt lat="45.4872835" lon="11.221451"><ele>427.0</ele><time>2026-04-06T13:47:57.387Z</time></trkpt><trkpt lat="45.4871912" lon="11.2215425"><ele>423.0</ele><time>2026-04-06T13:47:58.484Z</time></trkpt><trkpt lat="45.4870938" lon="11.221642"><ele>419.0</ele><time>2026-04-06T13:47:59.387Z</time></trkpt><trkpt lat="45.4870177" lon="11.2217505"><ele>415.0</ele><time>2026-04-06T13:48:00.487Z</time></trkpt><trkpt lat="45.4868715" lon="11.2218206"><ele>411.0</ele><time>2026-04-06T13:48:01.419Z</time></trkpt><trkpt lat="45.4867672" lon="11.221906"><ele>411.0</ele><time>2026-04-06T13:48:02.387Z</time></trkpt><trkpt lat="45.4866533" lon="11.2219825"><ele>411.0</ele><time>2026-04-06T13:48:03.411Z</time></trkpt><trkpt lat="45.4865127" lon="11.2220271"><ele>411.0</ele><time>2026-04-06T13:48:04.404Z</time></trkpt><trkpt lat="45.4863747" lon="11.2220687"><ele>411.0</ele><time>2026-04-06T13:48:05.441Z</time></trkpt><trkpt lat="45.4862429" lon="11.2221257"><ele>411.0</ele><time>2026-04-06T13:48:06.449Z</time></trkpt><trkpt lat="45.4861125" lon="11.222198"><ele>411.0</ele><time>2026-04-06T13:48:07.43Z</time></trkpt><trkpt lat="45.4859807" lon="11.2222668"><ele>411.0</ele><time>2026-04-06T13:48:08.425Z</time></trkpt><trkpt lat="45.4858494" lon="11.2223306"><ele>411.0</ele><time>2026-04-06T13:48:09.425Z</time></trkpt><trkpt lat="45.4857242" lon="11.2223966"><ele>411.0</ele><time>2026-04-06T13:48:10.414Z</time></trkpt><trkpt lat="45.4856268" lon="11.2224702"><ele>411.0</ele><time>2026-04-06T13:48:11.472Z</time></trkpt><trkpt lat="45.4855285" lon="11.2225546"><ele>411.0</ele><time>2026-04-06T13:48:12.404Z</time></trkpt><trkpt lat="45.4854506" lon="11.2226234"><ele>411.0</ele><time>2026-04-06T13:48:13.457Z</time></trkpt><trkpt lat="45.4853565" lon="11.2227142"><ele>411.0</ele><time>2026-04-06T13:48:14.43Z</time></trkpt><trkpt lat="45.4853063" lon="11.2227797"><ele>410.20000000000005</ele><time>2026-04-06T13:48:15.442Z</time></trkpt><trkpt lat="45.4852289" lon="11.2228836"><ele>409.40000000000003</ele><time>2026-04-06T13:48:16.419Z</time></trkpt><trkpt lat="45.4851876" lon="11.2230068"><ele>408.6</ele><time>2026-04-06T13:48:18.428Z</time></trkpt><trkpt lat="45.4851778" lon="11.2231197"><ele>407.8</ele><time>2026-04-06T13:48:20.44Z</time></trkpt><trkpt lat="45.4851111" lon="11.2232229"><ele>407.0</ele><time>2026-04-06T13:48:22.379Z</time></trkpt><trkpt lat="45.4850288" lon="11.2232984"><ele>407.0</ele><time>2026-04-06T13:48:23.441Z</time></trkpt><trkpt lat="45.4849512" lon="11.2233982"><ele>407.0</ele><time>2026-04-06T13:48:25.435Z</time></trkpt><trkpt lat="45.4848723" lon="11.223465"><ele>407.0</ele><time>2026-04-06T13:48:26.432Z</time></trkpt><trkpt lat="45.4848052" lon="11.2234994"><ele>407.0</ele><time>2026-04-06T13:48:27.461Z</time></trkpt><trkpt lat="45.4847138" lon="11.2235241"><ele>407.0</ele><time>2026-04-06T13:48:29.402Z</time></trkpt><trkpt lat="45.4846114" lon="11.2234568"><ele>406.49999999999994</ele><time>2026-04-06T13:48:31.414Z</time></trkpt><trkpt lat="45.4845379" lon="11.2233987"><ele>406.0</ele><time>2026-04-06T13:48:33.405Z</time></trkpt><trkpt lat="45.4844404" lon="11.2234101"><ele>405.5</ele><time>2026-04-06T13:48:35.417Z</time></trkpt><trkpt lat="45.4843461" lon="11.22346"><ele>405.0</ele><time>2026-04-06T13:48:37.408Z</time></trkpt><trkpt lat="45.4842631" lon="11.2235137"><ele>404.49999999999994</ele><time>2026-04-06T13:48:39.376Z</time></trkpt><trkpt lat="45.4841946" lon="11.2235553"><ele>404.0</ele><time>2026-04-06T13:48:41.381Z</time></trkpt><trkpt lat="45.484141" lon="11.2236093"><ele>404.0</ele><time>2026-04-06T13:48:43.383Z</time></trkpt><trkpt lat="45.484094" lon="11.2236693"><ele>404.0</ele><time>2026-04-06T13:48:46.378Z</time></trkpt><trkpt lat="45.4840251" lon="11.2237237"><ele>404.0</ele><time>2026-04-06T13:48:51.426Z</time></trkpt><trkpt lat="45.483998" lon="11.2238252"><ele>404.0</ele><time>2026-04-06T13:48:55.424Z</time></trkpt><trkpt lat="45.4840091" lon="11.2239148"><ele>404.0</ele><time>2026-04-06T13:48:59.425Z</time></trkpt><trkpt lat="45.4840158" lon="11.2240089"><ele>404.0</ele><time>2026-04-06T13:49:03.423Z</time></trkpt><trkpt lat="45.4840233" lon="11.2241084"><ele>404.0</ele><time>2026-04-06T13:49:10.402Z</time></trkpt><trkpt lat="45.4839535" lon="11.2241598"><ele>403.7142857142857</ele><time>2026-04-06T13:49:14.387Z</time></trkpt><trkpt lat="45.4838908" lon="11.2241916"><ele>403.42857142857144</ele><time>2026-04-06T13:49:17.389Z</time></trkpt><trkpt lat="45.4838253" lon="11.2242262"><ele>403.1428571428571</ele><time>2026-04-06T13:49:20.376Z</time></trkpt><trkpt lat="45.4837538" lon="11.2242753"><ele>402.8571428571429</ele><time>2026-04-06T13:49:23.384Z</time></trkpt><trkpt lat="45.4837076" lon="11.2243372"><ele>402.5714285714286</ele><time>2026-04-06T13:49:27.381Z</time></trkpt><trkpt lat="45.483666" lon="11.2244177"><ele>402.2857142857143</ele><time>2026-04-06T13:49:30.378Z</time></trkpt><trkpt lat="45.4836061" lon="11.2244665"><ele>402.0</ele><time>2026-04-06T13:49:32.378Z</time></trkpt><trkpt lat="45.4835511" lon="11.224536"><ele>404.4285714285714</ele><time>2026-04-06T13:49:35.381Z</time></trkpt><trkpt lat="45.4835082" lon="11.2246183"><ele>406.8571428571429</ele><time>2026-04-06T13:49:40.367Z</time></trkpt><trkpt lat="45.4834872" lon="11.224706"><ele>409.2857142857143</ele><time>2026-04-06T13:49:44.378Z</time></trkpt><trkpt lat="45.4834674" lon="11.2248027"><ele>411.71428571428567</ele><time>2026-04-06T13:49:48.375Z</time></trkpt><trkpt lat="45.4834517" lon="11.2249164"><ele>414.1428571428571</ele><time>2026-04-06T13:49:52.386Z</time></trkpt><trkpt lat="45.4834293" lon="11.2250027"><ele>416.57142857142856</ele><time>2026-04-06T13:49:55.406Z</time></trkpt><trkpt lat="45.483413" lon="11.2251201"><ele>419.0</ele><time>2026-04-06T13:49:58.373Z</time></trkpt><trkpt lat="45.4834362" lon="11.2252108"><ele>418.99999999999994</ele><time>2026-04-06T13:50:01.411Z</time></trkpt><trkpt lat="45.4834359" lon="11.225321"><ele>419.0</ele><time>2026-04-06T13:50:04.383Z</time></trkpt><trkpt lat="45.4834317" lon="11.2254333"><ele>419.0</ele><time>2026-04-06T13:50:07.374Z</time></trkpt><trkpt lat="45.4833853" lon="11.2255255"><ele>419.0</ele><time>2026-04-06T13:50:09.417Z</time></trkpt><trkpt lat="45.483348" lon="11.2256056"><ele>418.99999999999994</ele><time>2026-04-06T13:50:11.43Z</time></trkpt><trkpt lat="45.4833312" lon="11.225714"><ele>419.0</ele><time>2026-04-06T13:50:14.425Z</time></trkpt><trkpt lat="45.4832876" lon="11.2258241"><ele>417.66666666666663</ele><time>2026-04-06T13:50:17.368Z</time></trkpt><trkpt lat="45.4832272" lon="11.2259322"><ele>416.3333333333333</ele><time>2026-04-06T13:50:20.453Z</time></trkpt><trkpt lat="45.4831778" lon="11.2260114"><ele>415.0</ele><time>2026-04-06T13:50:22.369Z</time></trkpt><trkpt lat="45.4831149" lon="11.226097"><ele>413.66666666666663</ele><time>2026-04-06T13:50:25.414Z</time></trkpt><trkpt lat="45.4830474" lon="11.2261757"><ele>412.3333333333333</ele><time>2026-04-06T13:50:28.429Z</time></trkpt><trkpt lat="45.4829832" lon="11.2262535"><ele>411.0</ele><time>2026-04-06T13:50:32.425Z</time></trkpt><trkpt lat="45.4829241" lon="11.2263375"><ele>413.85714285714283</ele><time>2026-04-06T13:50:35.413Z</time></trkpt><trkpt lat="45.4828696" lon="11.2263982"><ele>416.71428571428567</ele><time>2026-04-06T13:50:38.373Z</time></trkpt><trkpt lat="45.4828217" lon="11.2264737"><ele>419.57142857142856</ele><time>2026-04-06T13:50:41.432Z</time></trkpt><trkpt lat="45.4827812" lon="11.2265516"><ele>422.42857142857144</ele><time>2026-04-06T13:50:45.427Z</time></trkpt><trkpt lat="45.4827274" lon="11.2266452"><ele>425.2857142857143</ele><time>2026-04-06T13:50:49.371Z</time></trkpt><trkpt lat="45.4826763" lon="11.2267109"><ele>428.14285714285717</ele><time>2026-04-06T13:50:51.455Z</time></trkpt><trkpt lat="45.4826265" lon="11.2267787"><ele>431.0</ele><time>2026-04-06T13:50:53.368Z</time></trkpt><trkpt lat="45.4825957" lon="11.2268709"><ele>430.99999999999994</ele><time>2026-04-06T13:50:57.423Z</time></trkpt><trkpt lat="45.4825621" lon="11.2269513"><ele>431.0</ele><time>2026-04-06T13:51:00.385Z</time></trkpt><trkpt lat="45.4825127" lon="11.227022"><ele>431.0</ele><time>2026-04-06T13:51:02.378Z</time></trkpt><trkpt lat="45.4824669" lon="11.2271039"><ele>431.0</ele><time>2026-04-06T13:51:04.376Z</time></trkpt><trkpt lat="45.4823925" lon="11.2272133"><ele>430.99999999999994</ele><time>2026-04-06T13:51:06.419Z</time></trkpt><trkpt lat="45.4823322" lon="11.2272943"><ele>431.0</ele><time>2026-04-06T13:51:08.431Z</time></trkpt><trkpt lat="45.4822657" lon="11.2273671"><ele>431.42857142857144</ele><time>2026-04-06T13:51:11.413Z</time></trkpt><trkpt lat="45.482206" lon="11.2274492"><ele>431.85714285714283</ele><time>2026-04-06T13:51:14.442Z</time></trkpt><trkpt lat="45.4821483" lon="11.227508"><ele>432.2857142857143</ele><time>2026-04-06T13:51:16.4Z</time></trkpt><trkpt lat="45.4820864" lon="11.2275605"><ele>432.7142857142857</ele><time>2026-04-06T13:51:18.431Z</time></trkpt><trkpt lat="45.4820193" lon="11.2276001"><ele>433.1428571428571</ele><time>2026-04-06T13:51:20.434Z</time></trkpt><trkpt lat="45.4819588" lon="11.2276454"><ele>433.57142857142856</ele><time>2026-04-06T13:51:22.446Z</time></trkpt><trkpt lat="45.4819003" lon="11.2276927"><ele>434.0</ele><time>2026-04-06T13:51:25.43Z</time></trkpt><trkpt lat="45.4818406" lon="11.2277603"><ele>434.0</ele><time>2026-04-06T13:51:29.428Z</time></trkpt><trkpt lat="45.4817753" lon="11.2278254"><ele>434.0</ele><time>2026-04-06T13:51:33.42Z</time></trkpt><trkpt lat="45.4817432" lon="11.2279099"><ele>434.0</ele><time>2026-04-06T13:51:37.448Z</time></trkpt><trkpt lat="45.4817761" lon="11.2279995"><ele>434.0</ele><time>2026-04-06T13:51:42.399Z</time></trkpt><trkpt lat="45.4817279" lon="11.2280625"><ele>434.0</ele><time>2026-04-06T13:51:47.373Z</time></trkpt><trkpt lat="45.4817181" lon="11.2281653"><ele>434.0</ele><time>2026-04-06T13:51:51.399Z</time></trkpt><trkpt lat="45.4816803" lon="11.2282858"><ele>434.0</ele><time>2026-04-06T13:51:54.381Z</time></trkpt><trkpt lat="45.4816446" lon="11.2283969"><ele>431.85714285714283</ele><time>2026-04-06T13:51:57.376Z</time></trkpt><trkpt lat="45.4815825" lon="11.2284716"><ele>429.7142857142857</ele><time>2026-04-06T13:52:01.421Z</time></trkpt><trkpt lat="45.4815524" lon="11.2285622"><ele>427.57142857142856</ele><time>2026-04-06T13:52:05.372Z</time></trkpt><trkpt lat="45.4815144" lon="11.2286509"><ele>425.42857142857144</ele><time>2026-04-06T13:52:10.43Z</time></trkpt><trkpt lat="45.4814596" lon="11.2287366"><ele>423.2857142857143</ele><time>2026-04-06T13:52:14.367Z</time></trkpt><trkpt lat="45.4814378" lon="11.2288287"><ele>421.1428571428571</ele><time>2026-04-06T13:52:18.376Z</time></trkpt><trkpt lat="45.4813919" lon="11.2288995"><ele>419.0</ele><time>2026-04-06T13:52:22.414Z</time></trkpt><trkpt lat="45.4813559" lon="11.2289775"><ele>417.1428571428571</ele><time>2026-04-06T13:52:26.378Z</time></trkpt><trkpt lat="45.4812964" lon="11.2290268"><ele>415.2857142857143</ele><time>2026-04-06T13:52:30.425Z</time></trkpt><trkpt lat="45.4812663" lon="11.2291164"><ele>413.42857142857144</ele><time>2026-04-06T13:52:34.452Z</time></trkpt><trkpt lat="45.481214" lon="11.2291898"><ele>411.57142857142856</ele><time>2026-04-06T13:52:39.367Z</time></trkpt><trkpt lat="45.4811526" lon="11.2292526"><ele>409.7142857142857</ele><time>2026-04-06T13:52:43.375Z</time></trkpt><trkpt lat="45.4811011" lon="11.2293395"><ele>407.85714285714283</ele><time>2026-04-06T13:52:46.374Z</time></trkpt><trkpt lat="45.4810583" lon="11.229422"><ele>406.0</ele><time>2026-04-06T13:52:49.403Z</time></trkpt><trkpt lat="45.4810146" lon="11.2295175"><ele>409.2857142857143</ele><time>2026-04-06T13:52:52.379Z</time></trkpt><trkpt lat="45.4809725" lon="11.2295921"><ele>412.57142857142856</ele><time>2026-04-06T13:52:55.431Z</time></trkpt><trkpt lat="45.4809198" lon="11.2296708"><ele>415.8571428571429</ele><time>2026-04-06T13:52:58.447Z</time></trkpt><trkpt lat="45.480887" lon="11.2297623"><ele>419.1428571428571</ele><time>2026-04-06T13:53:02.421Z</time></trkpt><trkpt lat="45.4808437" lon="11.229834"><ele>422.42857142857144</ele><time>2026-04-06T13:53:05.43Z</time></trkpt><trkpt lat="45.4807913" lon="11.2299177"><ele>425.7142857142857</ele><time>2026-04-06T13:53:09.43Z</time></trkpt><trkpt lat="45.4807673" lon="11.2300027"><ele>429.0</ele><time>2026-04-06T13:53:13.432Z</time></trkpt><trkpt lat="45.4807221" lon="11.230101"><ele>429.0</ele><time>2026-04-06T13:53:17.426Z</time></trkpt><trkpt lat="45.4806897" lon="11.2301906"><ele>429.0</ele><time>2026-04-06T13:53:21.402Z</time></trkpt><trkpt lat="45.4806647" lon="11.2302886"><ele>429.0</ele><time>2026-04-06T13:53:25.416Z</time></trkpt><trkpt lat="45.4806516" lon="11.2303851"><ele>429.0</ele><time>2026-04-06T13:53:29.42Z</time></trkpt><trkpt lat="45.4806112" lon="11.2304896"><ele>429.0</ele><time>2026-04-06T13:53:34.431Z</time></trkpt><trkpt lat="45.4805558" lon="11.2305658"><ele>429.0</ele><time>2026-04-06T13:53:38.417Z</time></trkpt><trkpt lat="45.4805108" lon="11.2306487"><ele>429.0</ele><time>2026-04-06T13:53:42.423Z</time></trkpt><trkpt lat="45.4804888" lon="11.2307354"><ele>426.8333333333333</ele><time>2026-04-06T13:53:45.418Z</time></trkpt><trkpt lat="45.4804743" lon="11.2308385"><ele>424.66666666666663</ele><time>2026-04-06T13:53:48.425Z</time></trkpt><trkpt lat="45.4804715" lon="11.2309669"><ele>422.5</ele><time>2026-04-06T13:53:51.42Z</time></trkpt><trkpt lat="45.480469" lon="11.2310788"><ele>420.3333333333333</ele><time>2026-04-06T13:53:53.42Z</time></trkpt><trkpt lat="45.4804679" lon="11.2312546"><ele>418.16666666666663</ele><time>2026-04-06T13:53:56.457Z</time></trkpt><trkpt lat="45.480465" lon="11.2313737"><ele>416.0</ele><time>2026-04-06T13:53:58.421Z</time></trkpt><trkpt lat="45.4804639" lon="11.2314915"><ele>415.16666666666663</ele><time>2026-04-06T13:54:00.423Z</time></trkpt><trkpt lat="45.4804642" lon="11.2316043"><ele>414.3333333333333</ele><time>2026-04-06T13:54:02.399Z</time></trkpt><trkpt lat="45.4804504" lon="11.2316969"><ele>413.5</ele><time>2026-04-06T13:54:04.426Z</time></trkpt><trkpt lat="45.4803779" lon="11.2317645"><ele>412.66666666666663</ele><time>2026-04-06T13:54:07.398Z</time></trkpt><trkpt lat="45.4802994" lon="11.2317495"><ele>411.8333333333333</ele><time>2026-04-06T13:54:10.434Z</time></trkpt><trkpt lat="45.4802202" lon="11.2317177"><ele>411.0</ele><time>2026-04-06T13:54:13.438Z</time></trkpt><trkpt lat="45.4801488" lon="11.2316853"><ele>412.85714285714283</ele><time>2026-04-06T13:54:15.47Z</time></trkpt><trkpt lat="45.4800792" lon="11.231665"><ele>414.71428571428567</ele><time>2026-04-06T13:54:17.378Z</time></trkpt><trkpt lat="45.4800123" lon="11.2316447"><ele>416.57142857142856</ele><time>2026-04-06T13:54:19.371Z</time></trkpt><trkpt lat="45.4799485" lon="11.2316073"><ele>418.42857142857144</ele><time>2026-04-06T13:54:21.437Z</time></trkpt><trkpt lat="45.4798806" lon="11.2315882"><ele>420.2857142857143</ele><time>2026-04-06T13:54:23.411Z</time></trkpt><trkpt lat="45.4798141" lon="11.2315695"><ele>422.14285714285717</ele><time>2026-04-06T13:54:25.437Z</time></trkpt><trkpt lat="45.4797513" lon="11.2315169"><ele>424.0</ele><time>2026-04-06T13:54:27.432Z</time></trkpt><trkpt lat="45.4796803" lon="11.2314657"><ele>424.50000000000006</ele><time>2026-04-06T13:54:30.406Z</time></trkpt><trkpt lat="45.4796144" lon="11.2314441"><ele>425.0</ele><time>2026-04-06T13:54:32.394Z</time></trkpt><trkpt lat="45.4795454" lon="11.2314126"><ele>425.5</ele><time>2026-04-06T13:54:34.4Z</time></trkpt><trkpt lat="45.4794725" lon="11.2313931"><ele>426.0</ele><time>2026-04-06T13:54:36.383Z</time></trkpt><trkpt lat="45.4793936" lon="11.2313834"><ele>426.50000000000006</ele><time>2026-04-06T13:54:38.367Z</time></trkpt><trkpt lat="45.4792966" lon="11.2313493"><ele>427.0</ele><time>2026-04-06T13:54:40.401Z</time></trkpt><trkpt lat="45.4791863" lon="11.2313055"><ele>427.00000000000006</ele><time>2026-04-06T13:54:42.378Z</time></trkpt><trkpt lat="45.4790711" lon="11.231267"><ele>427.0</ele><time>2026-04-06T13:54:44.382Z</time></trkpt><trkpt lat="45.4790079" lon="11.2312374"><ele>427.0</ele><time>2026-04-06T13:54:45.371Z</time></trkpt><trkpt lat="45.4789473" lon="11.2312071"><ele>427.0</ele><time>2026-04-06T13:54:46.395Z</time></trkpt><trkpt lat="45.4788834" lon="11.231192"><ele>427.00000000000006</ele><time>2026-04-06T13:54:47.371Z</time></trkpt><trkpt lat="45.4788199" lon="11.2311725"><ele>427.0</ele><time>2026-04-06T13:54:48.383Z</time></trkpt><trkpt lat="45.4786941" lon="11.2311209"><ele>425.6666666666667</ele><time>2026-04-06T13:54:50.419Z</time></trkpt><trkpt lat="45.4786347" lon="11.2310879"><ele>424.33333333333337</ele><time>2026-04-06T13:54:51.479Z</time></trkpt><trkpt lat="45.4785433" lon="11.2310577"><ele>423.0</ele><time>2026-04-06T13:54:53.414Z</time></trkpt><trkpt lat="45.4784484" lon="11.2309737"><ele>421.66666666666663</ele><time>2026-04-06T13:54:55.374Z</time></trkpt><trkpt lat="45.478405" lon="11.230905"><ele>420.3333333333333</ele><time>2026-04-06T13:54:57.373Z</time></trkpt><trkpt lat="45.4784051" lon="11.2308099"><ele>419.0</ele><time>2026-04-06T13:55:01.374Z</time></trkpt><trkpt lat="45.4784097" lon="11.2307091"><ele>420.71428571428567</ele><time>2026-04-06T13:55:10.427Z</time></trkpt><trkpt lat="45.4784088" lon="11.2306034"><ele>422.42857142857144</ele><time>2026-04-06T13:55:15.43Z</time></trkpt><trkpt lat="45.4784123" lon="11.2305024"><ele>424.1428571428571</ele><time>2026-04-06T13:55:20.429Z</time></trkpt><trkpt lat="45.4784116" lon="11.230387"><ele>425.85714285714283</ele><time>2026-04-06T13:55:25.442Z</time></trkpt><trkpt lat="45.4784115" lon="11.2302838"><ele>427.57142857142856</ele><time>2026-04-06T13:55:30.438Z</time></trkpt><trkpt lat="45.4784303" lon="11.2301761"><ele>429.2857142857143</ele><time>2026-04-06T13:55:36.375Z</time></trkpt><trkpt lat="45.4784258" lon="11.2300729"><ele>431.0</ele><time>2026-04-06T13:55:41.434Z</time></trkpt><trkpt lat="45.4784086" lon="11.2299827"><ele>430.99999999999994</ele><time>2026-04-06T13:55:46.373Z</time></trkpt><trkpt lat="45.4784159" lon="11.2298603"><ele>431.0</ele><time>2026-04-06T13:55:52.402Z</time></trkpt><trkpt lat="45.4784152" lon="11.229761"><ele>431.0</ele><time>2026-04-06T13:55:58.406Z</time></trkpt><trkpt lat="45.478364" lon="11.2296956"><ele>431.0</ele><time>2026-04-06T13:56:04.376Z</time></trkpt><trkpt lat="45.4782946" lon="11.2296372"><ele>430.99999999999994</ele><time>2026-04-06T13:56:09.417Z</time></trkpt><trkpt lat="45.4782318" lon="11.229573"><ele>431.0</ele><time>2026-04-06T13:56:13.373Z</time></trkpt><trkpt lat="45.4781807" lon="11.2295036"><ele>431.66666666666663</ele><time>2026-04-06T13:56:16.393Z</time></trkpt><trkpt lat="45.4781152" lon="11.2293854"><ele>432.3333333333333</ele><time>2026-04-06T13:56:17.414Z</time></trkpt><trkpt lat="45.4780748" lon="11.2293163"><ele>433.0</ele><time>2026-04-06T13:56:19.377Z</time></trkpt><trkpt lat="45.4780344" lon="11.2292006"><ele>433.66666666666663</ele><time>2026-04-06T13:56:22.438Z</time></trkpt><trkpt lat="45.4779951" lon="11.229098"><ele>434.3333333333333</ele><time>2026-04-06T13:56:25.42Z</time></trkpt><trkpt lat="45.4779667" lon="11.2289898"><ele>435.0</ele><time>2026-04-06T13:56:28.374Z</time></trkpt><trkpt lat="45.4779822" lon="11.2288781"><ele>435.0</ele><time>2026-04-06T13:56:31.377Z</time></trkpt><trkpt lat="45.4780177" lon="11.2287793"><ele>435.0</ele><time>2026-04-06T13:56:36.374Z</time></trkpt><trkpt lat="45.4780317" lon="11.2286865"><ele>435.0</ele><time>2026-04-06T13:56:41.377Z</time></trkpt><trkpt lat="45.4779876" lon="11.2286178"><ele>435.0</ele><time>2026-04-06T13:56:44.375Z</time></trkpt><trkpt lat="45.4779082" lon="11.2286668"><ele>435.0</ele><time>2026-04-06T13:56:47.382Z</time></trkpt><trkpt lat="45.4778534" lon="11.2287379"><ele>435.0</ele><time>2026-04-06T13:56:49.439Z</time></trkpt><trkpt lat="45.4777714" lon="11.2288012"><ele>433.0</ele><time>2026-04-06T13:56:51.43Z</time></trkpt><trkpt lat="45.4776733" lon="11.2288686"><ele>431.0</ele><time>2026-04-06T13:56:53.379Z</time></trkpt><trkpt lat="45.4775753" lon="11.2289213"><ele>429.0</ele><time>2026-04-06T13:56:55.378Z</time></trkpt><trkpt lat="45.4774913" lon="11.2289762"><ele>427.0</ele><time>2026-04-06T13:56:57.382Z</time></trkpt><trkpt lat="45.4773873" lon="11.2290303"><ele>425.0</ele><time>2026-04-06T13:56:59.443Z</time></trkpt><trkpt lat="45.477271" lon="11.2290619"><ele>424.99999999999994</ele><time>2026-04-06T13:57:01.364Z</time></trkpt><trkpt lat="45.4771559" lon="11.2291048"><ele>425.0</ele><time>2026-04-06T13:57:03.38Z</time></trkpt><trkpt lat="45.4770906" lon="11.229108"><ele>425.0</ele><time>2026-04-06T13:57:04.375Z</time></trkpt><trkpt lat="45.4770193" lon="11.229117"><ele>425.0</ele><time>2026-04-06T13:57:05.377Z</time></trkpt><trkpt lat="45.4769546" lon="11.2291269"><ele>424.99999999999994</ele><time>2026-04-06T13:57:06.385Z</time></trkpt><trkpt lat="45.4768858" lon="11.2291562"><ele>425.0</ele><time>2026-04-06T13:57:07.38Z</time></trkpt><trkpt lat="45.4768111" lon="11.2291957"><ele>422.4</ele><time>2026-04-06T13:57:08.375Z</time></trkpt><trkpt lat="45.4767368" lon="11.2292351"><ele>419.8</ele><time>2026-04-06T13:57:09.374Z</time></trkpt><trkpt lat="45.476652" lon="11.2292835"><ele>417.20000000000005</ele><time>2026-04-06T13:57:10.379Z</time></trkpt><trkpt lat="45.476564" lon="11.2293236"><ele>414.6</ele><time>2026-04-06T13:57:11.38Z</time></trkpt><trkpt lat="45.4764761" lon="11.2293658"><ele>412.0</ele><time>2026-04-06T13:57:12.366Z</time></trkpt><trkpt lat="45.4763876" lon="11.2294225"><ele>412.00000000000006</ele><time>2026-04-06T13:57:13.374Z</time></trkpt><trkpt lat="45.4762958" lon="11.2294721"><ele>412.0</ele><time>2026-04-06T13:57:14.38Z</time></trkpt><trkpt lat="45.4762174" lon="11.2295154"><ele>412.0</ele><time>2026-04-06T13:57:15.378Z</time></trkpt><trkpt lat="45.4761488" lon="11.2295391"><ele>412.0</ele><time>2026-04-06T13:57:16.375Z</time></trkpt><trkpt lat="45.4760504" lon="11.2295601"><ele>412.00000000000006</ele><time>2026-04-06T13:57:18.374Z</time></trkpt><trkpt lat="45.4759855" lon="11.229587"><ele>412.0</ele><time>2026-04-06T13:57:23.369Z</time></trkpt><trkpt lat="45.4759133" lon="11.2295513"><ele>409.0</ele><time>2026-04-06T13:57:29.382Z</time></trkpt><trkpt lat="45.4758371" lon="11.2295017"><ele>406.0</ele><time>2026-04-06T13:57:31.376Z</time></trkpt><trkpt lat="45.4757381" lon="11.2294827"><ele>403.0</ele><time>2026-04-06T13:57:33.371Z</time></trkpt><trkpt lat="45.4756357" lon="11.2294674"><ele>400.0</ele><time>2026-04-06T13:57:35.378Z</time></trkpt><trkpt lat="45.475518" lon="11.229449"><ele>397.0</ele><time>2026-04-06T13:57:37.377Z</time></trkpt><trkpt lat="45.4754537" lon="11.2294474"><ele>396.6666666666667</ele><time>2026-04-06T13:57:38.37Z</time></trkpt><trkpt lat="45.4753904" lon="11.2294556"><ele>396.33333333333337</ele><time>2026-04-06T13:57:39.375Z</time></trkpt><trkpt lat="45.4753152" lon="11.2294768"><ele>396.0</ele><time>2026-04-06T13:57:40.414Z</time></trkpt><trkpt lat="45.475203" lon="11.2294456"><ele>395.66666666666663</ele><time>2026-04-06T13:57:42.409Z</time></trkpt><trkpt lat="45.4751482" lon="11.2294003"><ele>395.3333333333333</ele><time>2026-04-06T13:57:43.403Z</time></trkpt><trkpt lat="45.4750903" lon="11.2293337"><ele>395.0</ele><time>2026-04-06T13:57:44.42Z</time></trkpt><trkpt lat="45.4750039" lon="11.2292417"><ele>394.99999999999994</ele><time>2026-04-06T13:57:46.407Z</time></trkpt><trkpt lat="45.4749148" lon="11.2292133"><ele>395.0</ele><time>2026-04-06T13:57:48.414Z</time></trkpt><trkpt lat="45.474829" lon="11.2291857"><ele>395.0</ele><time>2026-04-06T13:57:50.414Z</time></trkpt><trkpt lat="45.4747668" lon="11.2292065"><ele>395.0</ele><time>2026-04-06T13:57:53.381Z</time></trkpt><trkpt lat="45.4746805" lon="11.2291887"><ele>394.99999999999994</ele><time>2026-04-06T13:57:57.376Z</time></trkpt><trkpt lat="45.4746109" lon="11.2291606"><ele>395.0</ele><time>2026-04-06T13:58:00.362Z</time></trkpt><trkpt lat="45.4745291" lon="11.2291313"><ele>393.8</ele><time>2026-04-06T13:58:02.376Z</time></trkpt><trkpt lat="45.474434" lon="11.2290957"><ele>392.6</ele><time>2026-04-06T13:58:04.434Z</time></trkpt><trkpt lat="45.4743309" lon="11.2290759"><ele>391.4</ele><time>2026-04-06T13:58:06.375Z</time></trkpt><trkpt lat="45.4742295" lon="11.2290707"><ele>390.2</ele><time>2026-04-06T13:58:08.435Z</time></trkpt><trkpt lat="45.4741232" lon="11.2290643"><ele>389.0</ele><time>2026-04-06T13:58:10.374Z</time></trkpt><trkpt lat="45.4740141" lon="11.2290788"><ele>388.99999999999994</ele><time>2026-04-06T13:58:12.379Z</time></trkpt><trkpt lat="45.4739153" lon="11.2291519"><ele>389.0</ele><time>2026-04-06T13:58:15.425Z</time></trkpt><trkpt lat="45.4738275" lon="11.2291527"><ele>389.0</ele><time>2026-04-06T13:58:17.407Z</time></trkpt><trkpt lat="45.4737374" lon="11.2291309"><ele>389.0</ele><time>2026-04-06T13:58:19.435Z</time></trkpt><trkpt lat="45.4736761" lon="11.2291058"><ele>388.99999999999994</ele><time>2026-04-06T13:58:21.42Z</time></trkpt><trkpt lat="45.4736147" lon="11.2290728"><ele>389.0</ele><time>2026-04-06T13:58:23.452Z</time></trkpt><trkpt lat="45.4735506" lon="11.2290608"><ele>387.3333333333333</ele><time>2026-04-06T13:58:26.396Z</time></trkpt><trkpt lat="45.4734511" lon="11.2289752"><ele>385.66666666666663</ele><time>2026-04-06T13:58:30.419Z</time></trkpt><trkpt lat="45.4733902" lon="11.2289391"><ele>384.0</ele><time>2026-04-06T13:58:33.416Z</time></trkpt><trkpt lat="45.4733365" lon="11.2289945"><ele>382.3333333333333</ele><time>2026-04-06T13:58:36.404Z</time></trkpt><trkpt lat="45.4733266" lon="11.2290922"><ele>380.66666666666663</ele><time>2026-04-06T13:58:39.41Z</time></trkpt><trkpt lat="45.4733376" lon="11.22921"><ele>379.0</ele><time>2026-04-06T13:58:42.382Z</time></trkpt><trkpt lat="45.4734013" lon="11.2292738"><ele>379.0</ele><time>2026-04-06T13:58:45.436Z</time></trkpt><trkpt lat="45.47343" lon="11.2293639"><ele>379.0</ele><time>2026-04-06T13:58:49.426Z</time></trkpt><trkpt lat="45.4733663" lon="11.2294442"><ele>379.0</ele><time>2026-04-06T13:58:52.436Z</time></trkpt><trkpt lat="45.4732742" lon="11.229434"><ele>379.0</ele><time>2026-04-06T13:58:55.43Z</time></trkpt><trkpt lat="45.473184" lon="11.2293702"><ele>379.0</ele><time>2026-04-06T13:58:58.424Z</time></trkpt><trkpt lat="45.4730885" lon="11.2293154"><ele>379.0</ele><time>2026-04-06T13:59:00.42Z</time></trkpt><trkpt lat="45.4730017" lon="11.2292646"><ele>379.0</ele><time>2026-04-06T13:59:03.396Z</time></trkpt><trkpt lat="45.4729323" lon="11.2292284"><ele>379.0</ele><time>2026-04-06T13:59:06.419Z</time></trkpt><trkpt lat="45.4728572" lon="11.2291762"><ele>379.0</ele><time>2026-04-06T13:59:10.443Z</time></trkpt><trkpt lat="45.4727858" lon="11.2291305"><ele>379.0</ele><time>2026-04-06T13:59:13.446Z</time></trkpt><trkpt lat="45.4727223" lon="11.2291916"><ele>379.0</ele><time>2026-04-06T13:59:16.421Z</time></trkpt><trkpt lat="45.4726591" lon="11.2291376"><ele>377.5</ele><time>2026-04-06T13:59:20.378Z</time></trkpt><trkpt lat="45.4726038" lon="11.2290911"><ele>376.0</ele><time>2026-04-06T13:59:22.375Z</time></trkpt><trkpt lat="45.4725311" lon="11.2290619"><ele>374.5</ele><time>2026-04-06T13:59:24.365Z</time></trkpt><trkpt lat="45.4724715" lon="11.2289987"><ele>373.0</ele><time>2026-04-06T13:59:26.375Z</time></trkpt><trkpt lat="45.4724288" lon="11.228898"><ele>371.5</ele><time>2026-04-06T13:59:28.371Z</time></trkpt><trkpt lat="45.4723631" lon="11.2288349"><ele>370.0</ele><time>2026-04-06T13:59:30.378Z</time></trkpt><trkpt lat="45.4722559" lon="11.2288161"><ele>366.6</ele><time>2026-04-06T13:59:32.376Z</time></trkpt><trkpt lat="45.472167" lon="11.2287393"><ele>363.2</ele><time>2026-04-06T13:59:34.376Z</time></trkpt><trkpt lat="45.4720632" lon="11.2286978"><ele>359.79999999999995</ele><time>2026-04-06T13:59:36.378Z</time></trkpt><trkpt lat="45.4719605" lon="11.2286989"><ele>356.4</ele><time>2026-04-06T13:59:39.371Z</time></trkpt><trkpt lat="45.4718672" lon="11.2286792"><ele>353.0</ele><time>2026-04-06T13:59:41.368Z</time></trkpt><trkpt lat="45.4717763" lon="11.2286192"><ele>352.0</ele><time>2026-04-06T13:59:43.367Z</time></trkpt><trkpt lat="45.4716472" lon="11.2285642"><ele>351.0</ele><time>2026-04-06T13:59:45.37Z</time></trkpt><trkpt lat="45.4715791" lon="11.2285457"><ele>350.0</ele><time>2026-04-06T13:59:46.372Z</time></trkpt><trkpt lat="45.4714925" lon="11.2284695"><ele>349.0</ele><time>2026-04-06T13:59:48.426Z</time></trkpt><trkpt lat="45.4713882" lon="11.2284338"><ele>348.0</ele><time>2026-04-06T13:59:50.406Z</time></trkpt><trkpt lat="45.4713125" lon="11.2283996"><ele>348.3333333333333</ele><time>2026-04-06T13:59:52.409Z</time></trkpt><trkpt lat="45.4712572" lon="11.228338"><ele>348.6666666666667</ele><time>2026-04-06T13:59:55.374Z</time></trkpt><trkpt lat="45.4712103" lon="11.2282533"><ele>349.0</ele><time>2026-04-06T13:59:57.39Z</time></trkpt><trkpt lat="45.4711631" lon="11.2281818"><ele>349.33333333333337</ele><time>2026-04-06T14:01:01.425Z</time></trkpt><trkpt lat="45.4711329" lon="11.2280608"><ele>349.6666666666667</ele><time>2026-04-06T14:01:04.381Z</time></trkpt><trkpt lat="45.4711766" lon="11.2279472"><ele>350.0</ele><time>2026-04-06T14:01:07.425Z</time></trkpt><trkpt lat="45.4712282" lon="11.2278654"><ele>345.4</ele><time>2026-04-06T14:01:09.427Z</time></trkpt><trkpt lat="45.4712775" lon="11.2277849"><ele>340.8</ele><time>2026-04-06T14:01:12.451Z</time></trkpt><trkpt lat="45.4712304" lon="11.2277139"><ele>336.20000000000005</ele><time>2026-04-06T14:01:16.434Z</time></trkpt><trkpt lat="45.4711421" lon="11.227644"><ele>331.6</ele><time>2026-04-06T14:01:18.435Z</time></trkpt><trkpt lat="45.4710566" lon="11.2275919"><ele>327.0</ele><time>2026-04-06T14:01:20.379Z</time></trkpt><trkpt lat="45.470928" lon="11.2275903"><ele>326.8333333333333</ele><time>2026-04-06T14:01:22.421Z</time></trkpt><trkpt lat="45.4708347" lon="11.2276237"><ele>326.6666666666667</ele><time>2026-04-06T14:01:24.41Z</time></trkpt><trkpt lat="45.4707381" lon="11.227641"><ele>326.5</ele><time>2026-04-06T14:01:26.411Z</time></trkpt><trkpt lat="45.4706703" lon="11.2276456"><ele>326.33333333333337</ele><time>2026-04-06T14:01:27.384Z</time></trkpt><trkpt lat="45.4706071" lon="11.227642"><ele>326.1666666666667</ele><time>2026-04-06T14:01:28.424Z</time></trkpt><trkpt lat="45.4705319" lon="11.2276587"><ele>326.0</ele><time>2026-04-06T14:01:29.418Z</time></trkpt><trkpt lat="45.4704473" lon="11.2277064"><ele>325.0</ele><time>2026-04-06T14:01:31.409Z</time></trkpt><trkpt lat="45.4703279" lon="11.2277395"><ele>324.0</ele><time>2026-04-06T14:01:33.427Z</time></trkpt><trkpt lat="45.4702617" lon="11.2277833"><ele>323.0</ele><time>2026-04-06T14:01:34.475Z</time></trkpt><trkpt lat="45.4701329" lon="11.2278584"><ele>322.0</ele><time>2026-04-06T14:01:36.42Z</time></trkpt><trkpt lat="45.4700209" lon="11.2278946"><ele>321.0</ele><time>2026-04-06T14:01:38.419Z</time></trkpt><trkpt lat="45.4699297" lon="11.2279151"><ele>321.0</ele><time>2026-04-06T14:01:40.422Z</time></trkpt><trkpt lat="45.4698437" lon="11.2279523"><ele>321.0</ele><time>2026-04-06T14:01:43.374Z</time></trkpt><trkpt lat="45.4697611" lon="11.2279563"><ele>321.0</ele><time>2026-04-06T14:01:45.427Z</time></trkpt><trkpt lat="45.4696865" lon="11.2279494"><ele>321.0</ele><time>2026-04-06T14:01:47.427Z</time></trkpt><trkpt lat="45.4696082" lon="11.2279464"><ele>321.0</ele><time>2026-04-06T14:01:50.382Z</time></trkpt><trkpt lat="45.4695332" lon="11.2279273"><ele>321.0</ele><time>2026-04-06T14:01:52.38Z</time></trkpt><trkpt lat="45.4694364" lon="11.2279193"><ele>321.4285714285714</ele><time>2026-04-06T14:01:54.371Z</time></trkpt><trkpt lat="45.4693616" lon="11.2279008"><ele>321.85714285714283</ele><time>2026-04-06T14:01:57.433Z</time></trkpt><trkpt lat="45.4692878" lon="11.227876"><ele>322.2857142857143</ele><time>2026-04-06T14:02:01.379Z</time></trkpt><trkpt lat="45.4692233" lon="11.2278674"><ele>322.71428571428567</ele><time>2026-04-06T14:02:03.475Z</time></trkpt><trkpt lat="45.469152" lon="11.2278201"><ele>323.1428571428571</ele><time>2026-04-06T14:02:07.374Z</time></trkpt><trkpt lat="45.4691312" lon="11.2277261"><ele>323.57142857142856</ele><time>2026-04-06T14:02:10.431Z</time></trkpt><trkpt lat="45.4690827" lon="11.2276592"><ele>324.0</ele><time>2026-04-06T14:02:13.432Z</time></trkpt><trkpt lat="45.4690414" lon="11.2275865"><ele>324.0</ele><time>2026-04-06T14:02:16.37Z</time></trkpt><trkpt lat="45.4690237" lon="11.2274898"><ele>324.0</ele><time>2026-04-06T14:02:19.431Z</time></trkpt><trkpt lat="45.4690323" lon="11.2273968"><ele>324.0</ele><time>2026-04-06T14:02:21.45Z</time></trkpt><trkpt lat="45.4690446" lon="11.2272814"><ele>324.0</ele><time>2026-04-06T14:02:23.443Z</time></trkpt><trkpt lat="45.468971" lon="11.2272212"><ele>324.0</ele><time>2026-04-06T14:02:25.436Z</time></trkpt><trkpt lat="45.4688959" lon="11.2271691"><ele>324.0</ele><time>2026-04-06T14:02:27.438Z</time></trkpt><trkpt lat="45.4688346" lon="11.2271442"><ele>319.4</ele><time>2026-04-06T14:02:28.429Z</time></trkpt><trkpt lat="45.4687492" lon="11.2271305"><ele>314.79999999999995</ele><time>2026-04-06T14:02:30.396Z</time></trkpt><trkpt lat="45.4686323" lon="11.2271013"><ele>310.20000000000005</ele><time>2026-04-06T14:02:32.422Z</time></trkpt><trkpt lat="45.4685251" lon="11.2270468"><ele>305.6</ele><time>2026-04-06T14:02:34.416Z</time></trkpt><trkpt lat="45.4684638" lon="11.2270114"><ele>301.0</ele><time>2026-04-06T14:02:35.413Z</time></trkpt><trkpt lat="45.4683906" lon="11.2269886"><ele>301.0</ele><time>2026-04-06T14:02:36.432Z</time></trkpt><trkpt lat="45.4682615" lon="11.2269789"><ele>301.0</ele><time>2026-04-06T14:02:38.381Z</time></trkpt><trkpt lat="45.4681393" lon="11.2269609"><ele>301.0</ele><time>2026-04-06T14:02:40.376Z</time></trkpt><trkpt lat="45.4680559" lon="11.22691"><ele>301.0</ele><time>2026-04-06T14:02:42.434Z</time></trkpt><trkpt lat="45.4679559" lon="11.2268747"><ele>301.0</ele><time>2026-04-06T14:02:44.424Z</time></trkpt><trkpt lat="45.4678875" lon="11.2268337"><ele>300.16666666666663</ele><time>2026-04-06T14:02:45.433Z</time></trkpt><trkpt lat="45.4677849" lon="11.2267423"><ele>299.3333333333333</ele><time>2026-04-06T14:02:47.422Z</time></trkpt><trkpt lat="45.4677389" lon="11.226678"><ele>298.5</ele><time>2026-04-06T14:02:49.368Z</time></trkpt><trkpt lat="45.4676831" lon="11.2266198"><ele>297.6666666666667</ele><time>2026-04-06T14:02:50.435Z</time></trkpt><trkpt lat="45.4676201" lon="11.2265919"><ele>296.83333333333337</ele><time>2026-04-06T14:02:51.425Z</time></trkpt><trkpt lat="45.4675669" lon="11.2265351"><ele>296.0</ele><time>2026-04-06T14:02:52.432Z</time></trkpt><trkpt lat="45.4674761" lon="11.226407"><ele>293.40000000000003</ele><time>2026-04-06T14:02:54.448Z</time></trkpt><trkpt lat="45.4674071" lon="11.2263549"><ele>290.8</ele><time>2026-04-06T14:02:56.432Z</time></trkpt><trkpt lat="45.4673298" lon="11.2261722"><ele>288.20000000000005</ele><time>2026-04-06T14:02:59.371Z</time></trkpt><trkpt lat="45.4673143" lon="11.2260638"><ele>285.6</ele><time>2026-04-06T14:03:00.374Z</time></trkpt><trkpt lat="45.4672859" lon="11.2259608"><ele>283.0</ele><time>2026-04-06T14:03:01.444Z</time></trkpt><trkpt lat="45.4672624" lon="11.2258501"><ele>283.0</ele><time>2026-04-06T14:03:03.447Z</time></trkpt><trkpt lat="45.4672428" lon="11.2259357"><ele>283.0</ele><time>2026-04-06T14:03:11.413Z</time></trkpt><trkpt lat="45.4672396" lon="11.2260561"><ele>283.0</ele><time>2026-04-06T14:03:13.375Z</time></trkpt><trkpt lat="45.4672017" lon="11.2261915"><ele>283.0</ele><time>2026-04-06T14:03:15.37Z</time></trkpt><trkpt lat="45.4671933" lon="11.2263432"><ele>283.0</ele><time>2026-04-06T14:03:17.378Z</time></trkpt><trkpt lat="45.4671847" lon="11.2264964"><ele>285.16666666666663</ele><time>2026-04-06T14:03:19.384Z</time></trkpt><trkpt lat="45.4671756" lon="11.226642"><ele>287.3333333333333</ele><time>2026-04-06T14:03:21.383Z</time></trkpt><trkpt lat="45.4671873" lon="11.2267824"><ele>289.5</ele><time>2026-04-06T14:03:23.376Z</time></trkpt><trkpt lat="45.4671747" lon="11.2268731"><ele>291.6666666666667</ele><time>2026-04-06T14:03:25.375Z</time></trkpt><trkpt lat="45.4671514" lon="11.2269767"><ele>293.83333333333337</ele><time>2026-04-06T14:03:27.379Z</time></trkpt><trkpt lat="45.4671303" lon="11.2270647"><ele>296.0</ele><time>2026-04-06T14:03:29.364Z</time></trkpt><trkpt lat="45.4671139" lon="11.2271581"><ele>290.5</ele><time>2026-04-06T14:03:31.374Z</time></trkpt><trkpt lat="45.4671024" lon="11.2272481"><ele>285.0</ele><time>2026-04-06T14:03:33.371Z</time></trkpt><trkpt lat="45.4670872" lon="11.2273653"><ele>279.5</ele><time>2026-04-06T14:03:36.377Z</time></trkpt><trkpt lat="45.4670663" lon="11.2274908"><ele>274.0</ele><time>2026-04-06T14:03:39.37Z</time></trkpt><trkpt lat="45.4670608" lon="11.2275819"><ele>268.5</ele><time>2026-04-06T14:03:41.375Z</time></trkpt><trkpt lat="45.4670463" lon="11.2277064"><ele>263.0</ele><time>2026-04-06T14:03:44.374Z</time></trkpt><trkpt lat="45.4670385" lon="11.2278157"><ele>263.0</ele><time>2026-04-06T14:03:46.373Z</time></trkpt><trkpt lat="45.4670182" lon="11.2279096"><ele>263.0</ele><time>2026-04-06T14:03:48.372Z</time></trkpt><trkpt lat="45.4669973" lon="11.2280206"><ele>263.0</ele><time>2026-04-06T14:03:50.383Z</time></trkpt><trkpt lat="45.4669774" lon="11.2281206"><ele>263.0</ele><time>2026-04-06T14:03:52.372Z</time></trkpt><trkpt lat="45.4669673" lon="11.2282446"><ele>263.0</ele><time>2026-04-06T14:03:54.431Z</time></trkpt><trkpt lat="45.4669722" lon="11.2284262"><ele>263.0</ele><time>2026-04-06T14:03:57.447Z</time></trkpt><trkpt lat="45.466965" lon="11.2285319"><ele>264.5</ele><time>2026-04-06T14:03:59.373Z</time></trkpt><trkpt lat="45.4669539" lon="11.2286471"><ele>266.0</ele><time>2026-04-06T14:04:02.437Z</time></trkpt><trkpt lat="45.4669411" lon="11.2287448"><ele>267.5</ele><time>2026-04-06T14:04:05.38Z</time></trkpt><trkpt lat="45.4669452" lon="11.2288665"><ele>269.0</ele><time>2026-04-06T14:04:09.396Z</time></trkpt><trkpt lat="45.4669393" lon="11.2289701"><ele>270.5</ele><time>2026-04-06T14:04:12.368Z</time></trkpt><trkpt lat="45.4668952" lon="11.229042"><ele>272.0</ele><time>2026-04-06T14:04:16.41Z</time></trkpt><trkpt lat="45.4669002" lon="11.2291558"><ele>274.5</ele><time>2026-04-06T14:04:20.364Z</time></trkpt><trkpt lat="45.4668838" lon="11.229276"><ele>277.0</ele><time>2026-04-06T14:04:24.386Z</time></trkpt><trkpt lat="45.4668533" lon="11.2293629"><ele>279.5</ele><time>2026-04-06T14:04:27.377Z</time></trkpt><trkpt lat="45.4667738" lon="11.2294186"><ele>282.0</ele><time>2026-04-06T14:04:32.377Z</time></trkpt><trkpt lat="45.4666826" lon="11.2294368"><ele>284.5</ele><time>2026-04-06T14:04:35.375Z</time></trkpt><trkpt lat="45.4665989" lon="11.229443"><ele>287.0</ele><time>2026-04-06T14:04:38.37Z</time></trkpt><trkpt lat="45.46651" lon="11.2294542"><ele>287.0</ele><time>2026-04-06T14:04:41.379Z</time></trkpt><trkpt lat="45.4664273" lon="11.229476"><ele>287.0</ele><time>2026-04-06T14:04:44.367Z</time></trkpt><trkpt lat="45.4663354" lon="11.2295245"><ele>287.0</ele><time>2026-04-06T14:04:46.378Z</time></trkpt><trkpt lat="45.466179" lon="11.2295652"><ele>287.0</ele><time>2026-04-06T14:04:48.376Z</time></trkpt><trkpt lat="45.4661168" lon="11.2296355"><ele>287.0</ele><time>2026-04-06T14:04:49.379Z</time></trkpt><trkpt lat="45.466037" lon="11.2297567"><ele>288.0</ele><time>2026-04-06T14:04:51.417Z</time></trkpt><trkpt lat="45.4659767" lon="11.2298094"><ele>289.0</ele><time>2026-04-06T14:04:52.423Z</time></trkpt><trkpt lat="45.4659153" lon="11.2299057"><ele>290.0</ele><time>2026-04-06T14:04:55.372Z</time></trkpt><trkpt lat="45.4658624" lon="11.2299716"><ele>291.0</ele><time>2026-04-06T14:04:58.426Z</time></trkpt><trkpt lat="45.4658614" lon="11.230071"><ele>292.0</ele><time>2026-04-06T14:05:01.38Z</time></trkpt><trkpt lat="45.4658772" lon="11.23019"><ele>293.0</ele><time>2026-04-06T14:05:04.377Z</time></trkpt><trkpt lat="45.4658341" lon="11.2302719"><ele>293.0</ele><time>2026-04-06T14:05:09.371Z</time></trkpt><trkpt lat="45.465765" lon="11.2302738"><ele>293.0</ele><time>2026-04-06T14:05:12.394Z</time></trkpt><trkpt lat="45.4656602" lon="11.230256"><ele>293.0</ele><time>2026-04-06T14:05:15.38Z</time></trkpt><trkpt lat="45.4655955" lon="11.2302697"><ele>293.0</ele><time>2026-04-06T14:05:17.381Z</time></trkpt><trkpt lat="45.465519" lon="11.2302582"><ele>293.0</ele><time>2026-04-06T14:05:23.425Z</time></trkpt><trkpt lat="45.4654512" lon="11.2302722"><ele>293.0</ele><time>2026-04-06T14:05:26.361Z</time></trkpt><trkpt lat="45.4653837" lon="11.2302949"><ele>291.83333333333337</ele><time>2026-04-06T14:05:29.373Z</time></trkpt><trkpt lat="45.4653149" lon="11.2303579"><ele>290.6666666666667</ele><time>2026-04-06T14:05:33.375Z</time></trkpt><trkpt lat="45.4652654" lon="11.2304474"><ele>289.5</ele><time>2026-04-06T14:05:38.396Z</time></trkpt><trkpt lat="45.4652003" lon="11.2305122"><ele>288.3333333333333</ele><time>2026-04-06T14:05:42.377Z</time></trkpt><trkpt lat="45.4651411" lon="11.2305573"><ele>287.16666666666663</ele><time>2026-04-06T14:05:45.419Z</time></trkpt><trkpt lat="45.4650695" lon="11.2306019"><ele>286.0</ele><time>2026-04-06T14:05:49.391Z</time></trkpt><trkpt lat="45.4650048" lon="11.2306446"><ele>285.57142857142856</ele><time>2026-04-06T14:05:52.393Z</time></trkpt><trkpt lat="45.4649459" lon="11.2306953"><ele>285.1428571428571</ele><time>2026-04-06T14:05:56.447Z</time></trkpt><trkpt lat="45.4648773" lon="11.2307424"><ele>284.7142857142857</ele><time>2026-04-06T14:06:00.38Z</time></trkpt><trkpt lat="45.4648083" lon="11.2307784"><ele>284.2857142857143</ele><time>2026-04-06T14:06:04.418Z</time></trkpt><trkpt lat="45.4647314" lon="11.2308112"><ele>283.8571428571429</ele><time>2026-04-06T14:06:09.375Z</time></trkpt><trkpt lat="45.4646719" lon="11.2308536"><ele>283.42857142857144</ele><time>2026-04-06T14:06:12.379Z</time></trkpt><trkpt lat="45.4646146" lon="11.2309034"><ele>283.0</ele><time>2026-04-06T14:06:16.435Z</time></trkpt><trkpt lat="45.4645564" lon="11.230973"><ele>283.0</ele><time>2026-04-06T14:06:20.398Z</time></trkpt><trkpt lat="45.4645028" lon="11.2310245"><ele>283.0</ele><time>2026-04-06T14:06:24.421Z</time></trkpt><trkpt lat="45.4644517" lon="11.231087"><ele>283.0</ele><time>2026-04-06T14:06:28.369Z</time></trkpt><trkpt lat="45.464395" lon="11.2311328"><ele>283.0</ele><time>2026-04-06T14:06:31.381Z</time></trkpt><trkpt lat="45.4643338" lon="11.2312268"><ele>283.0</ele><time>2026-04-06T14:06:35.387Z</time></trkpt><trkpt lat="45.4642718" lon="11.2313104"><ele>283.0</ele><time>2026-04-06T14:06:38.522Z</time></trkpt><trkpt lat="45.4642313" lon="11.2314191"><ele>285.8333333333333</ele><time>2026-04-06T14:06:41.414Z</time></trkpt><trkpt lat="45.4641992" lon="11.2314977"><ele>288.66666666666663</ele><time>2026-04-06T14:06:43.425Z</time></trkpt><trkpt lat="45.4641722" lon="11.2316015"><ele>291.5</ele><time>2026-04-06T14:06:45.432Z</time></trkpt><trkpt lat="45.4641785" lon="11.2317009"><ele>294.3333333333333</ele><time>2026-04-06T14:06:46.371Z</time></trkpt><trkpt lat="45.464152" lon="11.2318606"><ele>297.1666666666667</ele><time>2026-04-06T14:06:48.378Z</time></trkpt><trkpt lat="45.4641588" lon="11.2320182"><ele>300.0</ele><time>2026-04-06T14:06:50.372Z</time></trkpt><trkpt lat="45.4641114" lon="11.232135"><ele>300.0</ele><time>2026-04-06T14:06:52.362Z</time></trkpt><trkpt lat="45.4640699" lon="11.2322363"><ele>300.0</ele><time>2026-04-06T14:06:54.431Z</time></trkpt><trkpt lat="45.4640318" lon="11.2323329"><ele>300.0</ele><time>2026-04-06T14:06:56.436Z</time></trkpt><trkpt lat="45.4639658" lon="11.2322824"><ele>300.0</ele><time>2026-04-06T14:06:58.38Z</time></trkpt><trkpt lat="45.4638227" lon="11.2323005"><ele>300.0</ele><time>2026-04-06T14:06:59.379Z</time></trkpt><trkpt lat="45.4637416" lon="11.2323017"><ele>295.4</ele><time>2026-04-06T14:07:01.41Z</time></trkpt><trkpt lat="45.4636777" lon="11.2323007"><ele>290.8</ele><time>2026-04-06T14:07:02.402Z</time></trkpt><trkpt lat="45.4635549" lon="11.2322647"><ele>286.2</ele><time>2026-04-06T14:07:04.376Z</time></trkpt><trkpt lat="45.4634819" lon="11.2322011"><ele>281.6</ele><time>2026-04-06T14:07:05.416Z</time></trkpt><trkpt lat="45.4633983" lon="11.2321565"><ele>277.0</ele><time>2026-04-06T14:07:07.426Z</time></trkpt><trkpt lat="45.4632957" lon="11.2321626"><ele>277.0</ele><time>2026-04-06T14:07:09.37Z</time></trkpt><trkpt lat="45.4632307" lon="11.2322106"><ele>277.0</ele><time>2026-04-06T14:07:10.377Z</time></trkpt><trkpt lat="45.4631411" lon="11.2322837"><ele>277.0</ele><time>2026-04-06T14:07:11.419Z</time></trkpt><trkpt lat="45.4631062" lon="11.2323674"><ele>277.0</ele><time>2026-04-06T14:07:12.438Z</time></trkpt><trkpt lat="45.4630187" lon="11.2324667"><ele>277.0</ele><time>2026-04-06T14:07:13.367Z</time></trkpt><trkpt lat="45.4629755" lon="11.2325544"><ele>277.0</ele><time>2026-04-06T14:07:14.384Z</time></trkpt><trkpt lat="45.4629084" lon="11.2326353"><ele>277.7142857142857</ele><time>2026-04-06T14:07:15.379Z</time></trkpt><trkpt lat="45.4628521" lon="11.2327014"><ele>278.4285714285714</ele><time>2026-04-06T14:07:16.427Z</time></trkpt><trkpt lat="45.462784" lon="11.232775"><ele>279.1428571428571</ele><time>2026-04-06T14:07:18.429Z</time></trkpt><trkpt lat="45.4627918" lon="11.2328735"><ele>279.85714285714283</ele><time>2026-04-06T14:07:20.374Z</time></trkpt><trkpt lat="45.4627829" lon="11.2329625"><ele>280.57142857142856</ele><time>2026-04-06T14:07:23.431Z</time></trkpt><trkpt lat="45.4627818" lon="11.233062"><ele>281.2857142857143</ele><time>2026-04-06T14:07:28.374Z</time></trkpt><trkpt lat="45.4628013" lon="11.2331566"><ele>282.0</ele><time>2026-04-06T14:07:31.368Z</time></trkpt><trkpt lat="45.4628263" lon="11.233248"><ele>282.42857142857144</ele><time>2026-04-06T14:07:35.383Z</time></trkpt><trkpt lat="45.4628466" lon="11.2333358"><ele>282.85714285714283</ele><time>2026-04-06T14:07:40.368Z</time></trkpt><trkpt lat="45.462881" lon="11.2334154"><ele>283.2857142857143</ele><time>2026-04-06T14:07:44.377Z</time></trkpt><trkpt lat="45.4629042" lon="11.2335003"><ele>283.7142857142857</ele><time>2026-04-06T14:07:49.387Z</time></trkpt><trkpt lat="45.462905" lon="11.2336024"><ele>284.14285714285717</ele><time>2026-04-06T14:07:57.378Z</time></trkpt><trkpt lat="45.462916" lon="11.2337122"><ele>284.57142857142856</ele><time>2026-04-06T14:08:02.369Z</time></trkpt><trkpt lat="45.4629337" lon="11.2338037"><ele>285.0</ele><time>2026-04-06T14:08:06.378Z</time></trkpt><trkpt lat="45.4629714" lon="11.2338788"><ele>289.0</ele><time>2026-04-06T14:08:09.376Z</time></trkpt><trkpt lat="45.4629921" lon="11.2339712"><ele>293.0</ele><time>2026-04-06T14:08:13.369Z</time></trkpt><trkpt lat="45.4630473" lon="11.2340429"><ele>297.0</ele><time>2026-04-06T14:08:17.38Z</time></trkpt><trkpt lat="45.4631023" lon="11.2341078"><ele>301.0</ele><time>2026-04-06T14:08:24.427Z</time></trkpt><trkpt lat="45.4631651" lon="11.2341491"><ele>305.0</ele><time>2026-04-06T14:08:31.432Z</time></trkpt><trkpt lat="45.4633453" lon="11.2341617"><ele>305.0</ele><time>2026-04-06T14:08:48.374Z</time></trkpt><trkpt lat="45.4634083" lon="11.23419"><ele>305.0</ele><time>2026-04-06T14:08:56.371Z</time></trkpt><trkpt lat="45.463478" lon="11.2342061"><ele>305.0</ele><time>2026-04-06T14:09:04.366Z</time></trkpt><trkpt lat="45.4635345" lon="11.2342461"><ele>305.0</ele><time>2026-04-06T14:09:09.376Z</time></trkpt><trkpt lat="45.4636006" lon="11.2342708"><ele>305.0</ele><time>2026-04-06T14:09:16.375Z</time></trkpt><trkpt lat="45.4636473" lon="11.2343388"><ele>305.0</ele><time>2026-04-06T14:09:22.369Z</time></trkpt><trkpt lat="45.4636885" lon="11.2344073"><ele>305.0</ele><time>2026-04-06T14:09:28.365Z</time></trkpt><trkpt lat="45.4637077" lon="11.2344935"><ele>305.0</ele><time>2026-04-06T14:09:34.377Z</time></trkpt><trkpt lat="45.4637213" lon="11.2345919"><ele>305.0</ele><time>2026-04-06T14:09:39.369Z</time></trkpt><trkpt lat="45.463746" lon="11.2346911"><ele>305.0</ele><time>2026-04-06T14:09:44.376Z</time></trkpt><trkpt lat="45.4637731" lon="11.2347857"><ele>305.0</ele><time>2026-04-06T14:09:49.367Z</time></trkpt><trkpt lat="45.4637817" lon="11.2348867"><ele>305.0</ele><time>2026-04-06T14:09:55.374Z</time></trkpt><trkpt lat="45.4637958" lon="11.2349826"><ele>305.0</ele><time>2026-04-06T14:10:00.368Z</time></trkpt><trkpt lat="45.4638137" lon="11.2350709"><ele>305.0</ele><time>2026-04-06T14:10:04.374Z</time></trkpt><trkpt lat="45.4638488" lon="11.2351662"><ele>307.7142857142857</ele><time>2026-04-06T14:10:08.371Z</time></trkpt><trkpt lat="45.4638674" lon="11.2352636"><ele>310.4285714285714</ele><time>2026-04-06T14:10:12.372Z</time></trkpt><trkpt lat="45.4638834" lon="11.2353528"><ele>313.1428571428571</ele><time>2026-04-06T14:10:15.37Z</time></trkpt><trkpt lat="45.463893" lon="11.2354576"><ele>315.8571428571429</ele><time>2026-04-06T14:10:18.371Z</time></trkpt><trkpt lat="45.4638867" lon="11.2355515"><ele>318.57142857142856</ele><time>2026-04-06T14:10:22.375Z</time></trkpt><trkpt lat="45.4638724" lon="11.2356572"><ele>321.2857142857143</ele><time>2026-04-06T14:10:27.369Z</time></trkpt><trkpt lat="45.463867" lon="11.2357535"><ele>324.0</ele><time>2026-04-06T14:10:33.376Z</time></trkpt><trkpt lat="45.4638645" lon="11.2358515"><ele>325.0</ele><time>2026-04-06T14:10:38.367Z</time></trkpt><trkpt lat="45.4638813" lon="11.235947"><ele>326.0</ele><time>2026-04-06T14:10:42.389Z</time></trkpt><trkpt lat="45.4638931" lon="11.236038"><ele>327.0</ele><time>2026-04-06T14:10:46.368Z</time></trkpt><trkpt lat="45.4639091" lon="11.236137"><ele>328.0</ele><time>2026-04-06T14:10:50.374Z</time></trkpt><trkpt lat="45.4638939" lon="11.2362378"><ele>329.0</ele><time>2026-04-06T14:10:56.383Z</time></trkpt><trkpt lat="45.4638708" lon="11.2363226"><ele>330.0</ele><time>2026-04-06T14:11:00.375Z</time></trkpt><trkpt lat="45.4638952" lon="11.2364138"><ele>331.0</ele><time>2026-04-06T14:11:05.379Z</time></trkpt><trkpt lat="45.4639164" lon="11.2365037"><ele>331.2857142857143</ele><time>2026-04-06T14:11:12.381Z</time></trkpt><trkpt lat="45.4639479" lon="11.2366188"><ele>331.57142857142856</ele><time>2026-04-06T14:11:24.368Z</time></trkpt><trkpt lat="45.4639821" lon="11.2367163"><ele>331.8571428571429</ele><time>2026-04-06T14:11:28.376Z</time></trkpt><trkpt lat="45.4640194" lon="11.2367916"><ele>332.1428571428571</ele><time>2026-04-06T14:11:33.405Z</time></trkpt><trkpt lat="45.4640772" lon="11.236855"><ele>332.4285714285714</ele><time>2026-04-06T14:11:38.374Z</time></trkpt><trkpt lat="45.4640557" lon="11.2369606"><ele>332.7142857142857</ele><time>2026-04-06T14:11:48.367Z</time></trkpt><trkpt lat="45.4640563" lon="11.2370555"><ele>333.0</ele><time>2026-04-06T14:11:53.37Z</time></trkpt><trkpt lat="45.4640124" lon="11.2371405"><ele>333.0</ele><time>2026-04-06T14:11:59.368Z</time></trkpt><trkpt lat="45.4640109" lon="11.2372569"><ele>333.0</ele><time>2026-04-06T14:12:04.373Z</time></trkpt><trkpt lat="45.463985" lon="11.2373405"><ele>333.0</ele><time>2026-04-06T14:12:08.406Z</time></trkpt><trkpt lat="45.4639588" lon="11.2374394"><ele>333.0</ele><time>2026-04-06T14:12:13.41Z</time></trkpt><trkpt lat="45.4639426" lon="11.2375389"><ele>333.0</ele><time>2026-04-06T14:12:17.383Z</time></trkpt><trkpt lat="45.4639185" lon="11.2376234"><ele>333.0</ele><time>2026-04-06T14:12:21.417Z</time></trkpt><trkpt lat="45.4638845" lon="11.2377064"><ele>333.0</ele><time>2026-04-06T14:12:25.428Z</time></trkpt><trkpt lat="45.4638169" lon="11.2377965"><ele>333.0</ele><time>2026-04-06T14:12:31.426Z</time></trkpt><trkpt lat="45.4637929" lon="11.2378845"><ele>333.0</ele><time>2026-04-06T14:12:36.38Z</time></trkpt><trkpt lat="45.4637255" lon="11.2379467"><ele>333.0</ele><time>2026-04-06T14:12:41.367Z</time></trkpt><trkpt lat="45.463655" lon="11.2380019"><ele>333.0</ele><time>2026-04-06T14:12:47.438Z</time></trkpt><trkpt lat="45.4636081" lon="11.2380877"><ele>333.0</ele><time>2026-04-06T14:12:51.425Z</time></trkpt><trkpt lat="45.463541" lon="11.2381453"><ele>333.0</ele><time>2026-04-06T14:12:54.373Z</time></trkpt><trkpt lat="45.4634876" lon="11.2382156"><ele>333.0</ele><time>2026-04-06T14:12:58.369Z</time></trkpt><trkpt lat="45.4634448" lon="11.2382942"><ele>333.0</ele><time>2026-04-06T14:13:04.366Z</time></trkpt><trkpt lat="45.4633779" lon="11.2383484"><ele>333.0</ele><time>2026-04-06T14:13:08.364Z</time></trkpt><trkpt lat="45.46331" lon="11.2383806"><ele>333.0</ele><time>2026-04-06T14:13:12.366Z</time></trkpt><trkpt lat="45.4632467" lon="11.2384199"><ele>333.0</ele><time>2026-04-06T14:13:15.364Z</time></trkpt><trkpt lat="45.4631861" lon="11.2384594"><ele>333.0</ele><time>2026-04-06T14:13:18.37Z</time></trkpt><trkpt lat="45.4631591" lon="11.2385543"><ele>333.0</ele><time>2026-04-06T14:13:22.361Z</time></trkpt><trkpt lat="45.4631312" lon="11.2386468"><ele>333.0</ele><time>2026-04-06T14:13:26.366Z</time></trkpt><trkpt lat="45.4630948" lon="11.2387351"><ele>333.0</ele><time>2026-04-06T14:13:28.364Z</time></trkpt><trkpt lat="45.4630392" lon="11.2388094"><ele>333.0</ele><time>2026-04-06T14:13:31.362Z</time></trkpt><trkpt lat="45.4629846" lon="11.2388919"><ele>333.0</ele><time>2026-04-06T14:13:35.364Z</time></trkpt><trkpt lat="45.4629069" lon="11.2389562"><ele>333.0</ele><time>2026-04-06T14:13:38.373Z</time></trkpt><trkpt lat="45.462847" lon="11.2389995"><ele>333.0</ele><time>2026-04-06T14:13:41.368Z</time></trkpt><trkpt lat="45.4628024" lon="11.2390693"><ele>333.2857142857143</ele><time>2026-04-06T14:13:44.381Z</time></trkpt><trkpt lat="45.4627733" lon="11.2391577"><ele>333.57142857142856</ele><time>2026-04-06T14:13:48.365Z</time></trkpt><trkpt lat="45.4627317" lon="11.239234"><ele>333.85714285714283</ele><time>2026-04-06T14:13:52.362Z</time></trkpt><trkpt lat="45.4626863" lon="11.2393088"><ele>334.1428571428571</ele><time>2026-04-06T14:13:56.362Z</time></trkpt><trkpt lat="45.4626349" lon="11.2393662"><ele>334.42857142857144</ele><time>2026-04-06T14:13:59.364Z</time></trkpt><trkpt lat="45.462589" lon="11.2394576"><ele>334.71428571428567</ele><time>2026-04-06T14:14:04.365Z</time></trkpt><trkpt lat="45.4625479" lon="11.2395491"><ele>335.0</ele><time>2026-04-06T14:14:10.364Z</time></trkpt><trkpt lat="45.4624979" lon="11.2396169"><ele>334.99999999999994</ele><time>2026-04-06T14:14:14.374Z</time></trkpt><trkpt lat="45.462457" lon="11.239706"><ele>335.0</ele><time>2026-04-06T14:14:20.373Z</time></trkpt><trkpt lat="45.4624207" lon="11.2397882"><ele>335.0</ele><time>2026-04-06T14:14:25.373Z</time></trkpt><trkpt lat="45.4623923" lon="11.2398747"><ele>335.0</ele><time>2026-04-06T14:14:33.367Z</time></trkpt><trkpt lat="45.4623448" lon="11.239947"><ele>335.0</ele><time>2026-04-06T14:14:43.365Z</time></trkpt><trkpt lat="45.4624094" lon="11.2399069"><ele>334.99999999999994</ele><time>2026-04-06T14:15:21.369Z</time></trkpt><trkpt lat="45.4623329" lon="11.2398999"><ele>335.0</ele><time>2026-04-06T14:16:32.449Z</time></trkpt><trkpt lat="45.462236" lon="11.2398778"><ele>335.0</ele><time>2026-04-06T14:17:00.383Z</time></trkpt><trkpt lat="45.4621643" lon="11.2398792"><ele>335.0</ele><time>2026-04-06T14:17:02.37Z</time></trkpt><trkpt lat="45.4622224" lon="11.2399348"><ele>335.0</ele><time>2026-04-06T14:17:08.363Z</time></trkpt><trkpt lat="45.4622912" lon="11.2399675"><ele>335.0</ele><time>2026-04-06T14:17:13.376Z</time></trkpt><trkpt lat="45.4623069" lon="11.2398557"><ele>335.0</ele><time>2026-04-06T14:17:29.379Z</time></trkpt><trkpt lat="45.4623497" lon="11.2397692"><ele>335.0</ele><time>2026-04-06T14:17:31.469Z</time></trkpt><trkpt lat="45.4624307" lon="11.2396654"><ele>335.0</ele><time>2026-04-06T14:17:33.366Z</time></trkpt><trkpt lat="45.4625287" lon="11.2395484"><ele>335.0</ele><time>2026-04-06T14:17:35.372Z</time></trkpt><trkpt lat="45.4625941" lon="11.2394304"><ele>335.0</ele><time>2026-04-06T14:17:37.372Z</time></trkpt><trkpt lat="45.4626442" lon="11.2393403"><ele>335.0</ele><time>2026-04-06T14:17:39.37Z</time></trkpt><trkpt lat="45.4626841" lon="11.2392697"><ele>335.0</ele><time>2026-04-06T14:17:41.364Z</time></trkpt><trkpt lat="45.4626586" lon="11.239179"><ele>335.0</ele><time>2026-04-06T14:17:45.37Z</time></trkpt><trkpt lat="45.4625948" lon="11.2391784"><ele>335.0</ele><time>2026-04-06T14:17:50.364Z</time></trkpt><trkpt lat="45.4625128" lon="11.2391944"><ele>335.0</ele><time>2026-04-06T14:17:54.371Z</time></trkpt><trkpt lat="45.4624477" lon="11.2392079"><ele>335.0</ele><time>2026-04-06T14:17:56.403Z</time></trkpt><trkpt lat="45.4623741" lon="11.2392157"><ele>335.0</ele><time>2026-04-06T14:17:58.368Z</time></trkpt><trkpt lat="45.4622911" lon="11.2392418"><ele>335.0</ele><time>2026-04-06T14:18:00.399Z</time></trkpt><trkpt lat="45.4622198" lon="11.2392769"><ele>335.0</ele><time>2026-04-06T14:18:02.406Z</time></trkpt><trkpt lat="45.4621557" lon="11.2393056"><ele>333.83333333333337</ele><time>2026-04-06T14:18:04.421Z</time></trkpt><trkpt lat="45.4620778" lon="11.2393478"><ele>332.6666666666667</ele><time>2026-04-06T14:18:07.363Z</time></trkpt><trkpt lat="45.4619986" lon="11.2394495"><ele>331.5</ele><time>2026-04-06T14:18:11.445Z</time></trkpt><trkpt lat="45.4619306" lon="11.2395216"><ele>330.3333333333333</ele><time>2026-04-06T14:18:14.416Z</time></trkpt><trkpt lat="45.4618732" lon="11.2395612"><ele>329.16666666666663</ele><time>2026-04-06T14:18:16.436Z</time></trkpt><trkpt lat="45.4618265" lon="11.2396285"><ele>328.0</ele><time>2026-04-06T14:18:18.426Z</time></trkpt><trkpt lat="45.4617816" lon="11.2397194"><ele>329.59999999999997</ele><time>2026-04-06T14:18:20.373Z</time></trkpt><trkpt lat="45.4617308" lon="11.2398228"><ele>331.2</ele><time>2026-04-06T14:18:22.371Z</time></trkpt><trkpt lat="45.4616511" lon="11.2399321"><ele>332.8</ele><time>2026-04-06T14:18:24.364Z</time></trkpt><trkpt lat="45.461607" lon="11.2400001"><ele>334.4</ele><time>2026-04-06T14:18:25.367Z</time></trkpt><trkpt lat="45.4615322" lon="11.240147"><ele>336.0</ele><time>2026-04-06T14:18:27.363Z</time></trkpt><trkpt lat="45.4614948" lon="11.240233"><ele>336.0</ele><time>2026-04-06T14:18:28.366Z</time></trkpt><trkpt lat="45.4614698" lon="11.2403349"><ele>336.0</ele><time>2026-04-06T14:18:29.364Z</time></trkpt><trkpt lat="45.4614353" lon="11.2404238"><ele>336.0</ele><time>2026-04-06T14:18:30.371Z</time></trkpt><trkpt lat="45.4613798" lon="11.2405038"><ele>336.0</ele><time>2026-04-06T14:18:31.368Z</time></trkpt><trkpt lat="45.4613375" lon="11.2405822"><ele>336.0</ele><time>2026-04-06T14:18:32.42Z</time></trkpt><trkpt lat="45.4612735" lon="11.2406579"><ele>336.0</ele><time>2026-04-06T14:18:33.459Z</time></trkpt><trkpt lat="45.4612001" lon="11.24075"><ele>334.0</ele><time>2026-04-06T14:18:34.418Z</time></trkpt><trkpt lat="45.4611389" lon="11.2408168"><ele>332.0</ele><time>2026-04-06T14:18:35.431Z</time></trkpt><trkpt lat="45.4610867" lon="11.240901"><ele>330.0</ele><time>2026-04-06T14:18:36.431Z</time></trkpt><trkpt lat="45.4610087" lon="11.2409668"><ele>328.0</ele><time>2026-04-06T14:18:37.421Z</time></trkpt><trkpt lat="45.4609437" lon="11.2410485"><ele>326.0</ele><time>2026-04-06T14:18:38.427Z</time></trkpt><trkpt lat="45.4608589" lon="11.2411483"><ele>324.0</ele><time>2026-04-06T14:18:39.434Z</time></trkpt><trkpt lat="45.4607698" lon="11.2412619"><ele>324.0</ele><time>2026-04-06T14:18:40.419Z</time></trkpt><trkpt lat="45.4607195" lon="11.2413974"><ele>324.0</ele><time>2026-04-06T14:18:41.411Z</time></trkpt><trkpt lat="45.4606858" lon="11.2415475"><ele>324.0</ele><time>2026-04-06T14:18:42.43Z</time></trkpt><trkpt lat="45.4606302" lon="11.2416793"><ele>324.0</ele><time>2026-04-06T14:18:43.423Z</time></trkpt><trkpt lat="45.4605762" lon="11.2417963"><ele>324.0</ele><time>2026-04-06T14:18:44.38Z</time></trkpt><trkpt lat="45.4604286" lon="11.2419955"><ele>322.2</ele><time>2026-04-06T14:18:46.437Z</time></trkpt><trkpt lat="45.4603421" lon="11.2420792"><ele>320.4</ele><time>2026-04-06T14:18:47.427Z</time></trkpt><trkpt lat="45.4602626" lon="11.242154"><ele>318.6</ele><time>2026-04-06T14:18:48.36Z</time></trkpt><trkpt lat="45.4601736" lon="11.2422093"><ele>316.8</ele><time>2026-04-06T14:18:49.367Z</time></trkpt><trkpt lat="45.4600791" lon="11.2422413"><ele>315.0</ele><time>2026-04-06T14:18:50.369Z</time></trkpt><trkpt lat="45.4599897" lon="11.2422881"><ele>315.0</ele><time>2026-04-06T14:18:51.375Z</time></trkpt><trkpt lat="45.4599031" lon="11.2422888"><ele>315.0</ele><time>2026-04-06T14:18:52.37Z</time></trkpt><trkpt lat="45.4598206" lon="11.2422916"><ele>315.0</ele><time>2026-04-06T14:18:53.367Z</time></trkpt><trkpt lat="45.4597358" lon="11.2423157"><ele>315.0</ele><time>2026-04-06T14:18:54.368Z</time></trkpt><trkpt lat="45.4596484" lon="11.2423263"><ele>315.0</ele><time>2026-04-06T14:18:55.369Z</time></trkpt><trkpt lat="45.4595711" lon="11.242338"><ele>315.0</ele><time>2026-04-06T14:18:56.368Z</time></trkpt><trkpt lat="45.4594998" lon="11.2423542"><ele>314.6</ele><time>2026-04-06T14:18:57.368Z</time></trkpt><trkpt lat="45.4594095" lon="11.2423465"><ele>314.2</ele><time>2026-04-06T14:18:58.365Z</time></trkpt><trkpt lat="45.459327" lon="11.2423508"><ele>313.8</ele><time>2026-04-06T14:18:59.368Z</time></trkpt><trkpt lat="45.459251" lon="11.2423421"><ele>313.4</ele><time>2026-04-06T14:19:00.367Z</time></trkpt><trkpt lat="45.4591581" lon="11.2423759"><ele>313.0</ele><time>2026-04-06T14:19:01.372Z</time></trkpt><trkpt lat="45.4590483" lon="11.2423757"><ele>313.0</ele><time>2026-04-06T14:19:02.372Z</time></trkpt><trkpt lat="45.4589728" lon="11.2423908"><ele>313.0</ele><time>2026-04-06T14:19:03.371Z</time></trkpt><trkpt lat="45.4589066" lon="11.2424032"><ele>313.0</ele><time>2026-04-06T14:19:04.368Z</time></trkpt><trkpt lat="45.4588165" lon="11.2424153"><ele>313.0</ele><time>2026-04-06T14:19:05.365Z</time></trkpt><trkpt lat="45.4587132" lon="11.2424074"><ele>313.0</ele><time>2026-04-06T14:19:06.363Z</time></trkpt><trkpt lat="45.4586365" lon="11.2424058"><ele>313.0</ele><time>2026-04-06T14:19:07.366Z</time></trkpt><trkpt lat="45.4585644" lon="11.2424113"><ele>312.16666666666663</ele><time>2026-04-06T14:19:08.379Z</time></trkpt><trkpt lat="45.4584914" lon="11.2424321"><ele>311.3333333333333</ele><time>2026-04-06T14:19:09.375Z</time></trkpt><trkpt lat="45.4584215" lon="11.242447"><ele>310.5</ele><time>2026-04-06T14:19:10.379Z</time></trkpt><trkpt lat="45.4583379" lon="11.2424756"><ele>309.6666666666667</ele><time>2026-04-06T14:19:11.384Z</time></trkpt><trkpt lat="45.4582657" lon="11.2425003"><ele>308.83333333333337</ele><time>2026-04-06T14:19:12.376Z</time></trkpt><trkpt lat="45.4581848" lon="11.2425189"><ele>308.0</ele><time>2026-04-06T14:19:13.379Z</time></trkpt><trkpt lat="45.4581107" lon="11.2425444"><ele>308.0</ele><time>2026-04-06T14:19:14.377Z</time></trkpt><trkpt lat="45.4580373" lon="11.2425774"><ele>308.0</ele><time>2026-04-06T14:19:15.376Z</time></trkpt><trkpt lat="45.4579621" lon="11.2426109"><ele>308.0</ele><time>2026-04-06T14:19:16.368Z</time></trkpt><trkpt lat="45.4578887" lon="11.2426243"><ele>308.0</ele><time>2026-04-06T14:19:17.36Z</time></trkpt><trkpt lat="45.4578158" lon="11.2426545"><ele>308.0</ele><time>2026-04-06T14:19:18.371Z</time></trkpt><trkpt lat="45.4577447" lon="11.2426819"><ele>308.0</ele><time>2026-04-06T14:19:19.382Z</time></trkpt><trkpt lat="45.4576723" lon="11.2427212"><ele>306.83333333333337</ele><time>2026-04-06T14:19:20.37Z</time></trkpt><trkpt lat="45.4575968" lon="11.2427582"><ele>305.6666666666667</ele><time>2026-04-06T14:19:21.374Z</time></trkpt><trkpt lat="45.4575184" lon="11.2427998"><ele>304.5</ele><time>2026-04-06T14:19:22.373Z</time></trkpt><trkpt lat="45.4574438" lon="11.242829"><ele>303.3333333333333</ele><time>2026-04-06T14:19:23.383Z</time></trkpt><trkpt lat="45.4573641" lon="11.242851"><ele>302.16666666666663</ele><time>2026-04-06T14:19:24.372Z</time></trkpt><trkpt lat="45.4572891" lon="11.2428733"><ele>301.0</ele><time>2026-04-06T14:19:25.375Z</time></trkpt><trkpt lat="45.4572032" lon="11.2428988"><ele>301.0</ele><time>2026-04-06T14:19:26.371Z</time></trkpt><trkpt lat="45.4571299" lon="11.2429177"><ele>301.0</ele><time>2026-04-06T14:19:27.376Z</time></trkpt><trkpt lat="45.4570071" lon="11.242927"><ele>301.0</ele><time>2026-04-06T14:19:29.381Z</time></trkpt><trkpt lat="45.4568974" lon="11.2428746"><ele>301.0</ele><time>2026-04-06T14:19:31.367Z</time></trkpt><trkpt lat="45.4568398" lon="11.2428382"><ele>301.0</ele><time>2026-04-06T14:19:32.374Z</time></trkpt><trkpt lat="45.4567518" lon="11.2427963"><ele>300.5</ele><time>2026-04-06T14:19:34.376Z</time></trkpt><trkpt lat="45.4566637" lon="11.2427443"><ele>300.0</ele><time>2026-04-06T14:19:36.379Z</time></trkpt><trkpt lat="45.4565698" lon="11.2427018"><ele>299.5</ele><time>2026-04-06T14:19:38.364Z</time></trkpt><trkpt lat="45.4564919" lon="11.2426851"><ele>299.0</ele><time>2026-04-06T14:19:39.371Z</time></trkpt><trkpt lat="45.4564264" lon="11.2426382"><ele>298.5</ele><time>2026-04-06T14:19:41.37Z</time></trkpt><trkpt lat="45.4563679" lon="11.2425945"><ele>298.0</ele><time>2026-04-06T14:19:43.365Z</time></trkpt><trkpt lat="45.4563106" lon="11.242554"><ele>299.1428571428571</ele><time>2026-04-06T14:19:45.363Z</time></trkpt><trkpt lat="45.4562383" lon="11.2425094"><ele>300.2857142857143</ele><time>2026-04-06T14:19:48.426Z</time></trkpt><trkpt lat="45.4561745" lon="11.2424595"><ele>301.42857142857144</ele><time>2026-04-06T14:19:50.375Z</time></trkpt><trkpt lat="45.4561071" lon="11.2424072"><ele>302.57142857142856</ele><time>2026-04-06T14:19:52.375Z</time></trkpt><trkpt lat="45.4560379" lon="11.2424175"><ele>303.7142857142857</ele><time>2026-04-06T14:19:55.411Z</time></trkpt><trkpt lat="45.4560158" lon="11.242519"><ele>304.85714285714283</ele><time>2026-04-06T14:19:58.411Z</time></trkpt><trkpt lat="45.4560642" lon="11.2425952"><ele>306.0</ele><time>2026-04-06T14:20:02.421Z</time></trkpt><trkpt lat="45.4561253" lon="11.2426314"><ele>306.0</ele><time>2026-04-06T14:20:06.365Z</time></trkpt><trkpt lat="45.4561923" lon="11.2426639"><ele>306.0</ele><time>2026-04-06T14:20:12.382Z</time></trkpt><trkpt lat="45.4562535" lon="11.2426972"><ele>306.0</ele><time>2026-04-06T14:20:16.373Z</time></trkpt><trkpt lat="45.4563072" lon="11.2427472"><ele>306.0</ele><time>2026-04-06T14:20:20.386Z</time></trkpt><trkpt lat="45.4563631" lon="11.2428202"><ele>306.0</ele><time>2026-04-06T14:20:25.405Z</time></trkpt><trkpt lat="45.4563852" lon="11.2429119"><ele>306.0</ele><time>2026-04-06T14:20:28.444Z</time></trkpt><trkpt lat="45.4563734" lon="11.2430238"><ele>306.0</ele><time>2026-04-06T14:20:32.421Z</time></trkpt><trkpt lat="45.456357" lon="11.2431326"><ele>307.1666666666667</ele><time>2026-04-06T14:20:36.424Z</time></trkpt><trkpt lat="45.4563499" lon="11.2432503"><ele>308.3333333333333</ele><time>2026-04-06T14:20:40.494Z</time></trkpt><trkpt lat="45.4563495" lon="11.2433585"><ele>309.5</ele><time>2026-04-06T14:20:43.413Z</time></trkpt><trkpt lat="45.45635" lon="11.2434516"><ele>310.66666666666663</ele><time>2026-04-06T14:20:46.414Z</time></trkpt><trkpt lat="45.4563552" lon="11.2435961"><ele>311.8333333333333</ele><time>2026-04-06T14:20:50.476Z</time></trkpt><trkpt lat="45.4563513" lon="11.2436914"><ele>313.0</ele><time>2026-04-06T14:20:54.208Z</time></trkpt><trkpt lat="45.4563598" lon="11.2437805"><ele>313.0</ele><time>2026-04-06T14:20:55.493Z</time></trkpt><trkpt lat="45.4563786" lon="11.2438833"><ele>313.0</ele><time>2026-04-06T14:20:57.428Z</time></trkpt><trkpt lat="45.4563991" lon="11.2440094"><ele>313.0</ele><time>2026-04-06T14:20:59.406Z</time></trkpt><trkpt lat="45.4564221" lon="11.2441678"><ele>313.0</ele><time>2026-04-06T14:21:01.451Z</time></trkpt><trkpt lat="45.4564397" lon="11.2442634"><ele>313.0</ele><time>2026-04-06T14:21:02.377Z</time></trkpt><trkpt lat="45.4564891" lon="11.2444364"><ele>312.16666666666663</ele><time>2026-04-06T14:21:04.41Z</time></trkpt><trkpt lat="45.4565241" lon="11.2445568"><ele>311.3333333333333</ele><time>2026-04-06T14:21:05.413Z</time></trkpt><trkpt lat="45.4565578" lon="11.2446568"><ele>310.5</ele><time>2026-04-06T14:21:06.399Z</time></trkpt><trkpt lat="45.4565918" lon="11.2447625"><ele>309.6666666666667</ele><time>2026-04-06T14:21:07.409Z</time></trkpt><trkpt lat="45.4566275" lon="11.2448664"><ele>308.83333333333337</ele><time>2026-04-06T14:21:08.41Z</time></trkpt><trkpt lat="45.4566689" lon="11.2449813"><ele>308.0</ele><time>2026-04-06T14:21:09.401Z</time></trkpt><trkpt lat="45.456696" lon="11.2450946"><ele>308.0</ele><time>2026-04-06T14:21:10.403Z</time></trkpt><trkpt lat="45.4567305" lon="11.2451946"><ele>308.0</ele><time>2026-04-06T14:21:11.417Z</time></trkpt><trkpt lat="45.4568035" lon="11.2452901"><ele>308.0</ele><time>2026-04-06T14:21:13.412Z</time></trkpt><trkpt lat="45.4568533" lon="11.2453522"><ele>308.0</ele><time>2026-04-06T14:21:14.437Z</time></trkpt><trkpt lat="45.4569013" lon="11.2455195"><ele>308.0</ele><time>2026-04-06T14:21:16.417Z</time></trkpt><trkpt lat="45.4568717" lon="11.2457095"><ele>306.6666666666667</ele><time>2026-04-06T14:21:18.39Z</time></trkpt><trkpt lat="45.4568338" lon="11.2458038"><ele>305.33333333333337</ele><time>2026-04-06T14:21:19.406Z</time></trkpt><trkpt lat="45.4568106" lon="11.245905"><ele>304.0</ele><time>2026-04-06T14:21:20.414Z</time></trkpt><trkpt lat="45.4567851" lon="11.2460173"><ele>302.6666666666667</ele><time>2026-04-06T14:21:21.421Z</time></trkpt><trkpt lat="45.456757" lon="11.2461243"><ele>301.3333333333333</ele><time>2026-04-06T14:21:22.417Z</time></trkpt><trkpt lat="45.4567254" lon="11.2462473"><ele>300.0</ele><time>2026-04-06T14:21:23.419Z</time></trkpt><trkpt lat="45.4567043" lon="11.2463662"><ele>298.8333333333333</ele><time>2026-04-06T14:21:24.42Z</time></trkpt><trkpt lat="45.4566863" lon="11.2464857"><ele>297.6666666666667</ele><time>2026-04-06T14:21:25.427Z</time></trkpt><trkpt lat="45.4566699" lon="11.2466034"><ele>296.5</ele><time>2026-04-06T14:21:26.439Z</time></trkpt><trkpt lat="45.4566411" lon="11.2467222"><ele>295.33333333333337</ele><time>2026-04-06T14:21:27.431Z</time></trkpt><trkpt lat="45.4566093" lon="11.2468369"><ele>294.1666666666667</ele><time>2026-04-06T14:21:28.424Z</time></trkpt><trkpt lat="45.4565674" lon="11.2469492"><ele>293.0</ele><time>2026-04-06T14:21:29.427Z</time></trkpt><trkpt lat="45.4565188" lon="11.2470508"><ele>293.0</ele><time>2026-04-06T14:21:30.449Z</time></trkpt><trkpt lat="45.4564578" lon="11.2471412"><ele>293.0</ele><time>2026-04-06T14:21:31.367Z</time></trkpt><trkpt lat="45.4563972" lon="11.2472258"><ele>293.0</ele><time>2026-04-06T14:21:32.363Z</time></trkpt><trkpt lat="45.4563403" lon="11.2473224"><ele>293.0</ele><time>2026-04-06T14:21:33.397Z</time></trkpt><trkpt lat="45.4562694" lon="11.2474092"><ele>293.0</ele><time>2026-04-06T14:21:34.372Z</time></trkpt><trkpt lat="45.456212" lon="11.2474879"><ele>293.0</ele><time>2026-04-06T14:21:35.371Z</time></trkpt><trkpt lat="45.4561461" lon="11.2475688"><ele>292.0</ele><time>2026-04-06T14:21:36.375Z</time></trkpt><trkpt lat="45.4560797" lon="11.247645"><ele>291.0</ele><time>2026-04-06T14:21:37.376Z</time></trkpt><trkpt lat="45.4560072" lon="11.2477096"><ele>290.0</ele><time>2026-04-06T14:21:38.379Z</time></trkpt><trkpt lat="45.4559403" lon="11.2477751"><ele>289.0</ele><time>2026-04-06T14:21:39.37Z</time></trkpt><trkpt lat="45.4558769" lon="11.2478416"><ele>288.0</ele><time>2026-04-06T14:21:40.373Z</time></trkpt><trkpt lat="45.4558031" lon="11.2478979"><ele>287.0</ele><time>2026-04-06T14:21:41.383Z</time></trkpt><trkpt lat="45.4557395" lon="11.2479446"><ele>287.0</ele><time>2026-04-06T14:21:42.374Z</time></trkpt><trkpt lat="45.4556563" lon="11.2479871"><ele>287.0</ele><time>2026-04-06T14:21:43.363Z</time></trkpt><trkpt lat="45.4555889" lon="11.248031"><ele>287.0</ele><time>2026-04-06T14:21:44.38Z</time></trkpt><trkpt lat="45.4555298" lon="11.2480691"><ele>287.0</ele><time>2026-04-06T14:21:45.38Z</time></trkpt><trkpt lat="45.4554201" lon="11.2481504"><ele>287.0</ele><time>2026-04-06T14:21:47.378Z</time></trkpt><trkpt lat="45.4553343" lon="11.2482427"><ele>287.1666666666667</ele><time>2026-04-06T14:21:49.38Z</time></trkpt><trkpt lat="45.455239" lon="11.2483276"><ele>287.33333333333337</ele><time>2026-04-06T14:21:51.386Z</time></trkpt><trkpt lat="45.4551664" lon="11.2484212"><ele>287.5</ele><time>2026-04-06T14:21:54.259Z</time></trkpt><trkpt lat="45.4551094" lon="11.2485022"><ele>287.6666666666667</ele><time>2026-04-06T14:21:55.369Z</time></trkpt><trkpt lat="45.4550557" lon="11.248584"><ele>287.8333333333333</ele><time>2026-04-06T14:21:57.42Z</time></trkpt><trkpt lat="45.4550154" lon="11.2486573"><ele>288.0</ele><time>2026-04-06T14:21:59.41Z</time></trkpt><trkpt lat="45.4549243" lon="11.2487555"><ele>288.0</ele><time>2026-04-06T14:22:02.372Z</time></trkpt><trkpt lat="45.4548449" lon="11.2488254"><ele>288.0</ele><time>2026-04-06T14:22:04.372Z</time></trkpt><trkpt lat="45.4547563" lon="11.24893"><ele>288.0</ele><time>2026-04-06T14:22:07.407Z</time></trkpt><trkpt lat="45.4547022" lon="11.248979"><ele>288.0</ele><time>2026-04-06T14:22:09.37Z</time></trkpt><trkpt lat="45.4546313" lon="11.2490378"><ele>288.0</ele><time>2026-04-06T14:22:12.406Z</time></trkpt><trkpt lat="45.4545643" lon="11.249106"><ele>288.0</ele><time>2026-04-06T14:22:15.434Z</time></trkpt><trkpt lat="45.4545086" lon="11.2491935"><ele>288.6666666666667</ele><time>2026-04-06T14:22:18.414Z</time></trkpt><trkpt lat="45.4544702" lon="11.2493148"><ele>289.3333333333333</ele><time>2026-04-06T14:22:21.418Z</time></trkpt><trkpt lat="45.4544398" lon="11.2494115"><ele>290.0</ele><time>2026-04-06T14:22:24.428Z</time></trkpt><trkpt lat="45.4544098" lon="11.2495205"><ele>290.66666666666663</ele><time>2026-04-06T14:22:27.461Z</time></trkpt><trkpt lat="45.454387" lon="11.2496288"><ele>291.3333333333333</ele><time>2026-04-06T14:22:30.415Z</time></trkpt><trkpt lat="45.4543829" lon="11.2497205"><ele>292.0</ele><time>2026-04-06T14:22:33.406Z</time></trkpt><trkpt lat="45.4543824" lon="11.2498115"><ele>293.42857142857144</ele><time>2026-04-06T14:22:36.373Z</time></trkpt><trkpt lat="45.4543574" lon="11.2499287"><ele>294.8571428571429</ele><time>2026-04-06T14:22:40.423Z</time></trkpt><trkpt lat="45.4543397" lon="11.2500197"><ele>296.28571428571433</ele><time>2026-04-06T14:22:43.369Z</time></trkpt><trkpt lat="45.4543154" lon="11.250103"><ele>297.7142857142857</ele><time>2026-04-06T14:22:45.413Z</time></trkpt><trkpt lat="45.4542983" lon="11.250203"><ele>299.14285714285717</ele><time>2026-04-06T14:22:47.42Z</time></trkpt><trkpt lat="45.4543078" lon="11.2503046"><ele>300.5714285714286</ele><time>2026-04-06T14:22:49.427Z</time></trkpt><trkpt lat="45.4543149" lon="11.250427"><ele>302.0</ele><time>2026-04-06T14:22:51.429Z</time></trkpt><trkpt lat="45.4543236" lon="11.2505953"><ele>301.1666666666667</ele><time>2026-04-06T14:22:53.428Z</time></trkpt><trkpt lat="45.4543426" lon="11.25071"><ele>300.33333333333337</ele><time>2026-04-06T14:22:54.431Z</time></trkpt><trkpt lat="45.4543974" lon="11.2508524"><ele>299.5</ele><time>2026-04-06T14:22:55.442Z</time></trkpt><trkpt lat="45.4543815" lon="11.2509696"><ele>298.6666666666667</ele><time>2026-04-06T14:22:56.441Z</time></trkpt><trkpt lat="45.4543472" lon="11.2510799"><ele>297.8333333333333</ele><time>2026-04-06T14:22:57.376Z</time></trkpt><trkpt lat="45.4543128" lon="11.2511717"><ele>297.0</ele><time>2026-04-06T14:22:58.379Z</time></trkpt><trkpt lat="45.4542611" lon="11.2512697"><ele>297.0</ele><time>2026-04-06T14:22:59.413Z</time></trkpt><trkpt lat="45.4541939" lon="11.2513482"><ele>297.0</ele><time>2026-04-06T14:23:00.374Z</time></trkpt><trkpt lat="45.4541498" lon="11.2514424"><ele>297.0</ele><time>2026-04-06T14:23:01.371Z</time></trkpt><trkpt lat="45.4540924" lon="11.2515507"><ele>297.0</ele><time>2026-04-06T14:23:02.445Z</time></trkpt><trkpt lat="45.4540316" lon="11.2516546"><ele>297.0</ele><time>2026-04-06T14:23:03.439Z</time></trkpt><trkpt lat="45.4539721" lon="11.2517654"><ele>296.4</ele><time>2026-04-06T14:23:04.379Z</time></trkpt><trkpt lat="45.4539185" lon="11.251934"><ele>295.79999999999995</ele><time>2026-04-06T14:23:06.442Z</time></trkpt><trkpt lat="45.4538668" lon="11.2520419"><ele>295.2</ele><time>2026-04-06T14:23:08.438Z</time></trkpt><trkpt lat="45.4537987" lon="11.2520683"><ele>294.59999999999997</ele><time>2026-04-06T14:23:10.372Z</time></trkpt><trkpt lat="45.4537072" lon="11.2519503"><ele>294.0</ele><time>2026-04-06T14:23:12.371Z</time></trkpt><trkpt lat="45.4536339" lon="11.2519129"><ele>294.0</ele><time>2026-04-06T14:23:14.401Z</time></trkpt><trkpt lat="45.4535462" lon="11.251939"><ele>294.0</ele><time>2026-04-06T14:23:18.37Z</time></trkpt><trkpt lat="45.4534741" lon="11.2519656"><ele>294.0</ele><time>2026-04-06T14:23:22.404Z</time></trkpt><trkpt lat="45.4533879" lon="11.2519587"><ele>294.0</ele><time>2026-04-06T14:23:25.411Z</time></trkpt><trkpt lat="45.4533094" lon="11.2519596"><ele>294.0</ele><time>2026-04-06T14:23:28.426Z</time></trkpt><trkpt lat="45.4532312" lon="11.2519734"><ele>294.0</ele><time>2026-04-06T14:23:31.42Z</time></trkpt><trkpt lat="45.4531552" lon="11.251992"><ele>294.0</ele><time>2026-04-06T14:23:34.418Z</time></trkpt><trkpt lat="45.453081" lon="11.2520226"><ele>294.0</ele><time>2026-04-06T14:23:37.427Z</time></trkpt><trkpt lat="45.4529861" lon="11.2520549"><ele>294.0</ele><time>2026-04-06T14:23:41.413Z</time></trkpt><trkpt lat="45.4528767" lon="11.2520797"><ele>294.0</ele><time>2026-04-06T14:23:45.429Z</time></trkpt><trkpt lat="45.4528026" lon="11.2521105"><ele>294.0</ele><time>2026-04-06T14:23:48.429Z</time></trkpt><trkpt lat="45.4527284" lon="11.2521437"><ele>294.0</ele><time>2026-04-06T14:23:51.433Z</time></trkpt><trkpt lat="45.4526879" lon="11.2522373"><ele>293.5</ele><time>2026-04-06T14:23:54.429Z</time></trkpt><trkpt lat="45.4526753" lon="11.252346"><ele>293.0</ele><time>2026-04-06T14:23:56.433Z</time></trkpt><trkpt lat="45.4526497" lon="11.252478"><ele>292.5</ele><time>2026-04-06T14:23:59.434Z</time></trkpt><trkpt lat="45.4526156" lon="11.2525953"><ele>292.0</ele><time>2026-04-06T14:24:02.429Z</time></trkpt><trkpt lat="45.4525721" lon="11.2527147"><ele>291.5</ele><time>2026-04-06T14:24:05.431Z</time></trkpt><trkpt lat="45.4525021" lon="11.2527891"><ele>291.0</ele><time>2026-04-06T14:24:07.441Z</time></trkpt><trkpt lat="45.4524363" lon="11.2528107"><ele>291.0</ele><time>2026-04-06T14:24:08.424Z</time></trkpt><trkpt lat="45.4523415" lon="11.2528891"><ele>291.0</ele><time>2026-04-06T14:24:10.435Z</time></trkpt><trkpt lat="45.4522366" lon="11.2530047"><ele>291.0</ele><time>2026-04-06T14:24:12.441Z</time></trkpt><trkpt lat="45.4521792" lon="11.2530637"><ele>291.0</ele><time>2026-04-06T14:24:13.449Z</time></trkpt><trkpt lat="45.4521199" lon="11.2531147"><ele>291.0</ele><time>2026-04-06T14:24:14.434Z</time></trkpt><trkpt lat="45.4520588" lon="11.2531609"><ele>289.0</ele><time>2026-04-06T14:24:15.439Z</time></trkpt><trkpt lat="45.451976" lon="11.2532075"><ele>287.0</ele><time>2026-04-06T14:24:16.438Z</time></trkpt><trkpt lat="45.4518958" lon="11.253258"><ele>285.0</ele><time>2026-04-06T14:24:17.442Z</time></trkpt><trkpt lat="45.4517968" lon="11.2532964"><ele>283.0</ele><time>2026-04-06T14:24:18.441Z</time></trkpt><trkpt lat="45.4517098" lon="11.2533276"><ele>281.0</ele><time>2026-04-06T14:24:19.44Z</time></trkpt><trkpt lat="45.4516158" lon="11.2533429"><ele>281.0</ele><time>2026-04-06T14:24:20.44Z</time></trkpt><trkpt lat="45.4515316" lon="11.2533564"><ele>281.0</ele><time>2026-04-06T14:24:21.445Z</time></trkpt><trkpt lat="45.4514602" lon="11.253366"><ele>281.0</ele><time>2026-04-06T14:24:22.371Z</time></trkpt><trkpt lat="45.4513682" lon="11.2533682"><ele>281.0</ele><time>2026-04-06T14:24:23.459Z</time></trkpt><trkpt lat="45.4512884" lon="11.2533767"><ele>281.0</ele><time>2026-04-06T14:24:24.462Z</time></trkpt><trkpt lat="45.451213" lon="11.253387"><ele>281.0</ele><time>2026-04-06T14:24:25.433Z</time></trkpt><trkpt lat="45.4511406" lon="11.2533971"><ele>280.33333333333337</ele><time>2026-04-06T14:24:26.405Z</time></trkpt><trkpt lat="45.4510693" lon="11.2534122"><ele>279.6666666666667</ele><time>2026-04-06T14:24:27.419Z</time></trkpt><trkpt lat="45.4509818" lon="11.2534142"><ele>279.0</ele><time>2026-04-06T14:24:28.415Z</time></trkpt><trkpt lat="45.4508843" lon="11.2534138"><ele>278.3333333333333</ele><time>2026-04-06T14:24:29.413Z</time></trkpt><trkpt lat="45.4508002" lon="11.2534095"><ele>277.66666666666663</ele><time>2026-04-06T14:24:30.406Z</time></trkpt><trkpt lat="45.4507015" lon="11.2534074"><ele>277.0</ele><time>2026-04-06T14:24:31.411Z</time></trkpt><trkpt lat="45.450592" lon="11.2534244"><ele>277.0</ele><time>2026-04-06T14:24:32.404Z</time></trkpt><trkpt lat="45.450499" lon="11.2534418"><ele>277.0</ele><time>2026-04-06T14:24:33.392Z</time></trkpt><trkpt lat="45.4504058" lon="11.2534606"><ele>277.0</ele><time>2026-04-06T14:24:34.372Z</time></trkpt><trkpt lat="45.4502955" lon="11.2534463"><ele>277.0</ele><time>2026-04-06T14:24:35.413Z</time></trkpt><trkpt lat="45.450195" lon="11.253447"><ele>277.0</ele><time>2026-04-06T14:24:36.421Z</time></trkpt><trkpt lat="45.4501004" lon="11.2534019"><ele>276.2</ele><time>2026-04-06T14:24:37.417Z</time></trkpt><trkpt lat="45.4500165" lon="11.2533373"><ele>275.4</ele><time>2026-04-06T14:24:38.471Z</time></trkpt><trkpt lat="45.4499291" lon="11.2532903"><ele>274.6</ele><time>2026-04-06T14:24:39.4Z</time></trkpt><trkpt lat="45.4498316" lon="11.2532347"><ele>273.8</ele><time>2026-04-06T14:24:40.463Z</time></trkpt><trkpt lat="45.4497303" lon="11.2532895"><ele>273.0</ele><time>2026-04-06T14:24:42.372Z</time></trkpt><trkpt lat="45.449672" lon="11.2533744"><ele>273.8</ele><time>2026-04-06T14:24:43.38Z</time></trkpt><trkpt lat="45.4496163" lon="11.2534419"><ele>274.6</ele><time>2026-04-06T14:24:44.379Z</time></trkpt><trkpt lat="45.4495386" lon="11.2535442"><ele>275.4</ele><time>2026-04-06T14:24:46.38Z</time></trkpt><trkpt lat="45.4495001" lon="11.2536228"><ele>276.2</ele><time>2026-04-06T14:24:48.373Z</time></trkpt><trkpt lat="45.4494298" lon="11.2536684"><ele>277.0</ele><time>2026-04-06T14:24:50.39Z</time></trkpt><trkpt lat="45.4492929" lon="11.2537457"><ele>277.0</ele><time>2026-04-06T14:24:53.385Z</time></trkpt><trkpt lat="45.4492122" lon="11.2537875"><ele>277.0</ele><time>2026-04-06T14:24:55.371Z</time></trkpt><trkpt lat="45.4491361" lon="11.2538304"><ele>277.0</ele><time>2026-04-06T14:24:57.368Z</time></trkpt><trkpt lat="45.4490522" lon="11.2538732"><ele>277.0</ele><time>2026-04-06T14:24:59.437Z</time></trkpt><trkpt lat="45.448983" lon="11.2538759"><ele>277.0</ele><time>2026-04-06T14:25:01.454Z</time></trkpt><trkpt lat="45.4489016" lon="11.2538706"><ele>277.0</ele><time>2026-04-06T14:25:03.368Z</time></trkpt><trkpt lat="45.4488064" lon="11.2538681"><ele>276.16666666666663</ele><time>2026-04-06T14:25:06.452Z</time></trkpt><trkpt lat="45.4487362" lon="11.2538512"><ele>275.3333333333333</ele><time>2026-04-06T14:25:08.437Z</time></trkpt><trkpt lat="45.4486555" lon="11.2538425"><ele>274.5</ele><time>2026-04-06T14:25:10.427Z</time></trkpt><trkpt lat="45.4485748" lon="11.2538299"><ele>273.6666666666667</ele><time>2026-04-06T14:25:12.439Z</time></trkpt><trkpt lat="45.448496" lon="11.2538077"><ele>272.83333333333337</ele><time>2026-04-06T14:25:14.45Z</time></trkpt><trkpt lat="45.4484203" lon="11.2537883"><ele>272.0</ele><time>2026-04-06T14:25:16.455Z</time></trkpt><trkpt lat="45.4483415" lon="11.2537763"><ele>272.0</ele><time>2026-04-06T14:25:18.408Z</time></trkpt><trkpt lat="45.4482488" lon="11.2537568"><ele>272.0</ele><time>2026-04-06T14:25:20.397Z</time></trkpt><trkpt lat="45.4481425" lon="11.2537402"><ele>272.0</ele><time>2026-04-06T14:25:22.417Z</time></trkpt><trkpt lat="45.4480419" lon="11.2537759"><ele>272.0</ele><time>2026-04-06T14:25:24.401Z</time></trkpt><trkpt lat="45.4479766" lon="11.2538025"><ele>272.0</ele><time>2026-04-06T14:25:25.431Z</time></trkpt><trkpt lat="45.4479163" lon="11.2538576"><ele>272.0</ele><time>2026-04-06T14:25:26.38Z</time></trkpt><trkpt lat="45.4478694" lon="11.2539189"><ele>270.8</ele><time>2026-04-06T14:25:27.423Z</time></trkpt><trkpt lat="45.4477885" lon="11.2540288"><ele>269.6</ele><time>2026-04-06T14:25:29.38Z</time></trkpt><trkpt lat="45.4477309" lon="11.2540923"><ele>268.40000000000003</ele><time>2026-04-06T14:25:30.382Z</time></trkpt><trkpt lat="45.4476559" lon="11.2542326"><ele>267.2</ele><time>2026-04-06T14:25:32.43Z</time></trkpt><trkpt lat="45.4475643" lon="11.2543587"><ele>266.0</ele><time>2026-04-06T14:25:34.373Z</time></trkpt><trkpt lat="45.4474971" lon="11.2544773"><ele>266.0</ele><time>2026-04-06T14:25:36.378Z</time></trkpt><trkpt lat="45.4474458" lon="11.2545912"><ele>266.0</ele><time>2026-04-06T14:25:38.429Z</time></trkpt><trkpt lat="45.4473894" lon="11.2547005"><ele>266.0</ele><time>2026-04-06T14:25:40.364Z</time></trkpt><trkpt lat="45.4473452" lon="11.2548378"><ele>266.0</ele><time>2026-04-06T14:25:42.403Z</time></trkpt><trkpt lat="45.4472828" lon="11.2549744"><ele>266.0</ele><time>2026-04-06T14:25:44.381Z</time></trkpt><trkpt lat="45.4472153" lon="11.2550916"><ele>266.8</ele><time>2026-04-06T14:25:46.432Z</time></trkpt><trkpt lat="45.4471292" lon="11.2551877"><ele>267.6</ele><time>2026-04-06T14:25:48.44Z</time></trkpt><trkpt lat="45.4470294" lon="11.2552726"><ele>268.4</ele><time>2026-04-06T14:25:50.446Z</time></trkpt><trkpt lat="45.4469226" lon="11.2553282"><ele>269.2</ele><time>2026-04-06T14:25:52.439Z</time></trkpt><trkpt lat="45.4468606" lon="11.2553443"><ele>270.0</ele><time>2026-04-06T14:25:53.454Z</time></trkpt><trkpt lat="45.446742" lon="11.2553881"><ele>270.0</ele><time>2026-04-06T14:25:55.448Z</time></trkpt><trkpt lat="45.44667" lon="11.2554213"><ele>270.0</ele><time>2026-04-06T14:25:56.437Z</time></trkpt><trkpt lat="45.4466035" lon="11.2555063"><ele>270.0</ele><time>2026-04-06T14:25:57.369Z</time></trkpt><trkpt lat="45.4465382" lon="11.2555507"><ele>270.0</ele><time>2026-04-06T14:25:58.423Z</time></trkpt><trkpt lat="45.4464599" lon="11.2556005"><ele>270.0</ele><time>2026-04-06T14:25:59.425Z</time></trkpt><trkpt lat="45.4463768" lon="11.2555989"><ele>270.0</ele><time>2026-04-06T14:26:00.377Z</time></trkpt><trkpt lat="45.4462995" lon="11.2556301"><ele>268.5</ele><time>2026-04-06T14:26:01.378Z</time></trkpt><trkpt lat="45.4462243" lon="11.2556749"><ele>267.0</ele><time>2026-04-06T14:26:02.445Z</time></trkpt><trkpt lat="45.4461606" lon="11.2557025"><ele>265.5</ele><time>2026-04-06T14:26:03.441Z</time></trkpt><trkpt lat="45.4460677" lon="11.2557562"><ele>264.0</ele><time>2026-04-06T14:26:05.429Z</time></trkpt><trkpt lat="45.4460138" lon="11.2558484"><ele>262.5</ele><time>2026-04-06T14:26:07.443Z</time></trkpt><trkpt lat="45.4459795" lon="11.2559573"><ele>261.0</ele><time>2026-04-06T14:26:09.385Z</time></trkpt><trkpt lat="45.4459517" lon="11.256099"><ele>261.0</ele><time>2026-04-06T14:26:11.379Z</time></trkpt><trkpt lat="45.4459356" lon="11.2562513"><ele>261.0</ele><time>2026-04-06T14:26:13.439Z</time></trkpt><trkpt lat="45.4459345" lon="11.2564856"><ele>261.0</ele><time>2026-04-06T14:26:16.371Z</time></trkpt><trkpt lat="45.4459406" lon="11.2566402"><ele>261.0</ele><time>2026-04-06T14:26:18.407Z</time></trkpt><trkpt lat="45.4459248" lon="11.2567866"><ele>260.8</ele><time>2026-04-06T14:26:20.424Z</time></trkpt><trkpt lat="45.4459042" lon="11.2569303"><ele>260.6</ele><time>2026-04-06T14:26:22.404Z</time></trkpt><trkpt lat="45.4458858" lon="11.2570767"><ele>260.4</ele><time>2026-04-06T14:26:24.381Z</time></trkpt><trkpt lat="45.4459034" lon="11.2572479"><ele>260.2</ele><time>2026-04-06T14:26:26.407Z</time></trkpt><trkpt lat="45.4459267" lon="11.2573337"><ele>260.0</ele><time>2026-04-06T14:26:27.37Z</time></trkpt><trkpt lat="45.4459841" lon="11.2574797"><ele>260.6</ele><time>2026-04-06T14:26:29.382Z</time></trkpt><trkpt lat="45.446029" lon="11.257596"><ele>261.2</ele><time>2026-04-06T14:26:31.379Z</time></trkpt><trkpt lat="45.4460796" lon="11.2577116"><ele>261.8</ele><time>2026-04-06T14:26:33.406Z</time></trkpt><trkpt lat="45.4461287" lon="11.257836"><ele>262.4</ele><time>2026-04-06T14:26:35.43Z</time></trkpt><trkpt lat="45.4461858" lon="11.2579619"><ele>263.0</ele><time>2026-04-06T14:26:37.487Z</time></trkpt><trkpt lat="45.4462214" lon="11.2580567"><ele>258.2</ele><time>2026-04-06T14:26:38.398Z</time></trkpt><trkpt lat="45.446319" lon="11.2582035"><ele>253.4</ele><time>2026-04-06T14:26:40.37Z</time></trkpt><trkpt lat="45.4463492" lon="11.2582842"><ele>248.59999999999997</ele><time>2026-04-06T14:26:41.38Z</time></trkpt><trkpt lat="45.4464045" lon="11.2583603"><ele>243.79999999999998</ele><time>2026-04-06T14:26:42.378Z</time></trkpt><trkpt lat="45.4464331" lon="11.2584665"><ele>239.0</ele><time>2026-04-06T14:26:44.369Z</time></trkpt><trkpt lat="45.4464936" lon="11.2586192"><ele>239.0</ele><time>2026-04-06T14:26:46.369Z</time></trkpt><trkpt lat="45.4465225" lon="11.2587268"><ele>238.99999999999997</ele><time>2026-04-06T14:26:48.371Z</time></trkpt><trkpt lat="45.446572" lon="11.2588144"><ele>238.99999999999997</ele><time>2026-04-06T14:26:50.377Z</time></trkpt><trkpt lat="45.4466173" lon="11.2589298"><ele>239.0</ele><time>2026-04-06T14:26:52.374Z</time></trkpt><trkpt lat="45.4466439" lon="11.2590193"><ele>239.0</ele><time>2026-04-06T14:26:53.387Z</time></trkpt><trkpt lat="45.4466182" lon="11.2592143"><ele>238.66666666666669</ele><time>2026-04-06T14:26:55.437Z</time></trkpt><trkpt lat="45.4466266" lon="11.2593215"><ele>238.33333333333334</ele><time>2026-04-06T14:26:56.441Z</time></trkpt><trkpt lat="45.4466107" lon="11.2594495"><ele>238.0</ele><time>2026-04-06T14:26:57.431Z</time></trkpt><trkpt lat="45.4466026" lon="11.2595673"><ele>237.66666666666669</ele><time>2026-04-06T14:26:58.452Z</time></trkpt><trkpt lat="45.4465908" lon="11.2596793"><ele>237.33333333333334</ele><time>2026-04-06T14:26:59.407Z</time></trkpt><trkpt lat="45.4465877" lon="11.2598027"><ele>237.0</ele><time>2026-04-06T14:27:00.401Z</time></trkpt><trkpt lat="45.4465814" lon="11.2599189"><ele>238.28571428571425</ele><time>2026-04-06T14:27:01.373Z</time></trkpt><trkpt lat="45.4465616" lon="11.2600311"><ele>239.57142857142856</ele><time>2026-04-06T14:27:02.366Z</time></trkpt><trkpt lat="45.4465419" lon="11.2601505"><ele>240.85714285714286</ele><time>2026-04-06T14:27:03.369Z</time></trkpt><trkpt lat="45.4465356" lon="11.2602424"><ele>242.14285714285714</ele><time>2026-04-06T14:27:04.371Z</time></trkpt><trkpt lat="45.4464933" lon="11.2603382"><ele>243.42857142857144</ele><time>2026-04-06T14:27:05.372Z</time></trkpt><trkpt lat="45.4464496" lon="11.2604088"><ele>244.71428571428575</ele><time>2026-04-06T14:27:06.38Z</time></trkpt><trkpt lat="45.4463899" lon="11.2604626"><ele>246.00000000000003</ele><time>2026-04-06T14:27:07.455Z</time></trkpt><trkpt lat="45.4462845" lon="11.2605342"><ele>246.0</ele><time>2026-04-06T14:27:09.382Z</time></trkpt><trkpt lat="45.4461701" lon="11.2605628"><ele>246.00000000000003</ele><time>2026-04-06T14:27:11.448Z</time></trkpt><trkpt lat="45.4460891" lon="11.2605617"><ele>246.00000000000003</ele><time>2026-04-06T14:27:13.431Z</time></trkpt><trkpt lat="45.4460044" lon="11.2605493"><ele>246.0</ele><time>2026-04-06T14:27:15.373Z</time></trkpt><trkpt lat="45.4459057" lon="11.2605301"><ele>246.0</ele><time>2026-04-06T14:27:17.431Z</time></trkpt><trkpt lat="45.44583" lon="11.2605422"><ele>246.0</ele><time>2026-04-06T14:27:19.374Z</time></trkpt><trkpt lat="45.4457511" lon="11.2605453"><ele>246.0</ele><time>2026-04-06T14:27:21.378Z</time></trkpt><trkpt lat="45.4456629" lon="11.2605438"><ele>246.0</ele><time>2026-04-06T14:27:23.433Z</time></trkpt><trkpt lat="45.4455727" lon="11.2605301"><ele>246.0</ele><time>2026-04-06T14:27:25.51Z</time></trkpt><trkpt lat="45.4455008" lon="11.2605149"><ele>246.0</ele><time>2026-04-06T14:27:27.421Z</time></trkpt><trkpt lat="45.4454119" lon="11.2604849"><ele>246.0</ele><time>2026-04-06T14:27:29.495Z</time></trkpt><trkpt lat="45.4453409" lon="11.2604534"><ele>245.0</ele><time>2026-04-06T14:27:31.414Z</time></trkpt><trkpt lat="45.4452438" lon="11.2604259"><ele>244.00000000000003</ele><time>2026-04-06T14:27:33.426Z</time></trkpt><trkpt lat="45.4451387" lon="11.2603828"><ele>243.00000000000003</ele><time>2026-04-06T14:27:35.402Z</time></trkpt><trkpt lat="45.4450236" lon="11.2603475"><ele>242.0</ele><time>2026-04-06T14:27:37.399Z</time></trkpt><trkpt lat="45.4449083" lon="11.2603168"><ele>241.0</ele><time>2026-04-06T14:27:39.417Z</time></trkpt><trkpt lat="45.4447846" lon="11.2602551"><ele>241.0</ele><time>2026-04-06T14:27:41.495Z</time></trkpt><trkpt lat="45.4446485" lon="11.2602338"><ele>241.0</ele><time>2026-04-06T14:27:43.377Z</time></trkpt><trkpt lat="45.4445207" lon="11.2602473"><ele>241.0</ele><time>2026-04-06T14:27:45.403Z</time></trkpt><trkpt lat="45.4444021" lon="11.2602576"><ele>241.0</ele><time>2026-04-06T14:27:47.412Z</time></trkpt><trkpt lat="45.4442843" lon="11.260276"><ele>239.83333333333331</ele><time>2026-04-06T14:27:49.382Z</time></trkpt><trkpt lat="45.4441778" lon="11.2603082"><ele>238.66666666666666</ele><time>2026-04-06T14:27:51.379Z</time></trkpt><trkpt lat="45.4441118" lon="11.2603292"><ele>237.5</ele><time>2026-04-06T14:27:52.425Z</time></trkpt><trkpt lat="45.4440455" lon="11.2603307"><ele>236.33333333333331</ele><time>2026-04-06T14:27:53.414Z</time></trkpt><trkpt lat="45.443958" lon="11.2603643"><ele>235.16666666666666</ele><time>2026-04-06T14:27:54.382Z</time></trkpt><trkpt lat="45.4438814" lon="11.2603934"><ele>234.0</ele><time>2026-04-06T14:27:55.374Z</time></trkpt><trkpt lat="45.4437987" lon="11.2603957"><ele>234.39999999999998</ele><time>2026-04-06T14:27:56.379Z</time></trkpt><trkpt lat="45.4437316" lon="11.2603971"><ele>234.79999999999998</ele><time>2026-04-06T14:27:57.433Z</time></trkpt><trkpt lat="45.4436684" lon="11.2603954"><ele>235.20000000000002</ele><time>2026-04-06T14:27:58.478Z</time></trkpt><trkpt lat="45.4435115" lon="11.260416"><ele>235.60000000000002</ele><time>2026-04-06T14:28:00.377Z</time></trkpt><trkpt lat="45.4433896" lon="11.2603556"><ele>236.0</ele><time>2026-04-06T14:28:02.486Z</time></trkpt><trkpt lat="45.4433304" lon="11.2603227"><ele>236.0</ele><time>2026-04-06T14:28:03.401Z</time></trkpt><trkpt lat="45.4432277" lon="11.260316"><ele>236.00000000000003</ele><time>2026-04-06T14:28:05.375Z</time></trkpt><trkpt lat="45.4431742" lon="11.2604628"><ele>236.00000000000003</ele><time>2026-04-06T14:28:07.381Z</time></trkpt><trkpt lat="45.4431371" lon="11.2605498"><ele>236.0</ele><time>2026-04-06T14:28:08.377Z</time></trkpt><trkpt lat="45.4430861" lon="11.2607129"><ele>236.0</ele><time>2026-04-06T14:28:10.432Z</time></trkpt><trkpt lat="45.4430097" lon="11.2608542"><ele>236.50000000000003</ele><time>2026-04-06T14:28:12.414Z</time></trkpt><trkpt lat="45.442942" lon="11.2609368"><ele>237.0</ele><time>2026-04-06T14:28:14.495Z</time></trkpt><trkpt lat="45.4429005" lon="11.2610173"><ele>237.5</ele><time>2026-04-06T14:28:16.372Z</time></trkpt><trkpt lat="45.4428874" lon="11.2611247"><ele>238.0</ele><time>2026-04-06T14:28:18.386Z</time></trkpt><trkpt lat="45.442831" lon="11.2612899"><ele>238.50000000000003</ele><time>2026-04-06T14:28:21.369Z</time></trkpt><trkpt lat="45.4428167" lon="11.2613892"><ele>239.0</ele><time>2026-04-06T14:28:23.395Z</time></trkpt><trkpt lat="45.44281" lon="11.261483"><ele>237.00000000000003</ele><time>2026-04-06T14:28:25.412Z</time></trkpt><trkpt lat="45.4427719" lon="11.2615746"><ele>235.0</ele><time>2026-04-06T14:28:27.442Z</time></trkpt><trkpt lat="45.4427243" lon="11.2616684"><ele>233.00000000000003</ele><time>2026-04-06T14:28:30.409Z</time></trkpt><trkpt lat="45.4426891" lon="11.2617464"><ele>231.00000000000003</ele><time>2026-04-06T14:28:35.443Z</time></trkpt><trkpt lat="45.4426621" lon="11.2618374"><ele>229.0</ele><time>2026-04-06T14:28:39.426Z</time></trkpt><trkpt lat="45.4426487" lon="11.2619302"><ele>227.00000000000003</ele><time>2026-04-06T14:28:42.374Z</time></trkpt><trkpt lat="45.4426628" lon="11.2620606"><ele>225.00000000000003</ele><time>2026-04-06T14:28:46.441Z</time></trkpt><trkpt lat="45.442673" lon="11.2621684"><ele>225.0</ele><time>2026-04-06T14:28:49.416Z</time></trkpt><trkpt lat="45.4427081" lon="11.2622702"><ele>225.0</ele><time>2026-04-06T14:28:52.37Z</time></trkpt><trkpt lat="45.4427054" lon="11.2623656"><ele>225.0</ele><time>2026-04-06T14:28:55.377Z</time></trkpt><trkpt lat="45.4426579" lon="11.2624585"><ele>225.0</ele><time>2026-04-06T14:46:10.368Z</time></trkpt><trkpt lat="45.4425675" lon="11.26248"><ele>225.0</ele><time>2026-04-06T14:46:12.382Z</time></trkpt><trkpt lat="45.4424046" lon="11.2624817"><ele>223.0</ele><time>2026-04-06T14:46:15.451Z</time></trkpt><trkpt lat="45.4423008" lon="11.262434"><ele>221.0</ele><time>2026-04-06T14:46:17.431Z</time></trkpt><trkpt lat="45.4422379" lon="11.262416"><ele>219.0</ele><time>2026-04-06T14:46:18.435Z</time></trkpt><trkpt lat="45.4421655" lon="11.2624047"><ele>217.0</ele><time>2026-04-06T14:46:19.428Z</time></trkpt><trkpt lat="45.4420867" lon="11.2624095"><ele>215.0</ele><time>2026-04-06T14:46:20.427Z</time></trkpt><trkpt lat="45.4420068" lon="11.2624206"><ele>213.0</ele><time>2026-04-06T14:46:21.434Z</time></trkpt><trkpt lat="45.441934" lon="11.2624092"><ele>214.8</ele><time>2026-04-06T14:46:22.432Z</time></trkpt><trkpt lat="45.4418542" lon="11.2624066"><ele>216.60000000000002</ele><time>2026-04-06T14:46:23.425Z</time></trkpt><trkpt lat="45.4417736" lon="11.2623896"><ele>218.39999999999998</ele><time>2026-04-06T14:46:24.427Z</time></trkpt><trkpt lat="45.4416947" lon="11.262356"><ele>220.2</ele><time>2026-04-06T14:46:25.422Z</time></trkpt><trkpt lat="45.4415876" lon="11.2623136"><ele>222.0</ele><time>2026-04-06T14:46:26.419Z</time></trkpt><trkpt lat="45.4414895" lon="11.2622673"><ele>222.0</ele><time>2026-04-06T14:46:27.427Z</time></trkpt><trkpt lat="45.4413848" lon="11.2622272"><ele>222.0</ele><time>2026-04-06T14:46:28.422Z</time></trkpt><trkpt lat="45.4413075" lon="11.2622017"><ele>222.0</ele><time>2026-04-06T14:46:29.422Z</time></trkpt><trkpt lat="45.4412386" lon="11.2621894"><ele>222.0</ele><time>2026-04-06T14:46:30.42Z</time></trkpt><trkpt lat="45.4411615" lon="11.2621704"><ele>222.0</ele><time>2026-04-06T14:46:31.377Z</time></trkpt><trkpt lat="45.4410596" lon="11.2621419"><ele>222.0</ele><time>2026-04-06T14:46:32.376Z</time></trkpt><trkpt lat="45.4409936" lon="11.2621147"><ele>221.33333333333334</ele><time>2026-04-06T14:46:33.429Z</time></trkpt><trkpt lat="45.4409197" lon="11.2621301"><ele>220.66666666666669</ele><time>2026-04-06T14:46:34.443Z</time></trkpt><trkpt lat="45.440843" lon="11.2621586"><ele>220.0</ele><time>2026-04-06T14:46:35.424Z</time></trkpt><trkpt lat="45.4407618" lon="11.2622209"><ele>219.33333333333334</ele><time>2026-04-06T14:46:36.433Z</time></trkpt><trkpt lat="45.4406756" lon="11.2622759"><ele>218.66666666666669</ele><time>2026-04-06T14:46:37.373Z</time></trkpt><trkpt lat="45.440635" lon="11.2623777"><ele>218.0</ele><time>2026-04-06T14:46:38.415Z</time></trkpt><trkpt lat="45.4405638" lon="11.2624682"><ele>213.4</ele><time>2026-04-06T14:46:39.413Z</time></trkpt><trkpt lat="45.4404662" lon="11.2625532"><ele>208.8</ele><time>2026-04-06T14:46:40.444Z</time></trkpt><trkpt lat="45.4403899" lon="11.2625883"><ele>204.2</ele><time>2026-04-06T14:46:41.426Z</time></trkpt><trkpt lat="45.4403145" lon="11.2626378"><ele>199.6</ele><time>2026-04-06T14:46:42.387Z</time></trkpt><trkpt lat="45.4402468" lon="11.2626864"><ele>195.0</ele><time>2026-04-06T14:46:43.425Z</time></trkpt><trkpt lat="45.4401224" lon="11.2626875"><ele>195.0</ele><time>2026-04-06T14:46:45.42Z</time></trkpt><trkpt lat="45.4400441" lon="11.2626179"><ele>195.0</ele><time>2026-04-06T14:46:46.421Z</time></trkpt><trkpt lat="45.4399444" lon="11.2626412"><ele>195.0</ele><time>2026-04-06T14:46:48.44Z</time></trkpt><trkpt lat="45.4398818" lon="11.2626617"><ele>195.0</ele><time>2026-04-06T14:46:49.433Z</time></trkpt><trkpt lat="45.4398085" lon="11.2627657"><ele>195.0</ele><time>2026-04-06T14:46:51.396Z</time></trkpt><trkpt lat="45.4397586" lon="11.2628533"><ele>195.0</ele><time>2026-04-06T14:46:53.388Z</time></trkpt><trkpt lat="45.4396701" lon="11.2629422"><ele>195.66666666666666</ele><time>2026-04-06T14:46:55.383Z</time></trkpt><trkpt lat="45.4395918" lon="11.2630052"><ele>196.33333333333331</ele><time>2026-04-06T14:46:56.373Z</time></trkpt><trkpt lat="45.4395319" lon="11.2630653"><ele>197.0</ele><time>2026-04-06T14:46:58.403Z</time></trkpt><trkpt lat="45.4394596" lon="11.2631111"><ele>197.66666666666666</ele><time>2026-04-06T14:47:00.368Z</time></trkpt><trkpt lat="45.4393721" lon="11.263146"><ele>198.33333333333331</ele><time>2026-04-06T14:47:02.402Z</time></trkpt><trkpt lat="45.4392803" lon="11.26318"><ele>199.0</ele><time>2026-04-06T14:47:04.38Z</time></trkpt><trkpt lat="45.4392105" lon="11.2632178"><ele>196.39999999999998</ele><time>2026-04-06T14:47:06.375Z</time></trkpt><trkpt lat="45.4391432" lon="11.2632227"><ele>193.8</ele><time>2026-04-06T14:47:08.424Z</time></trkpt><trkpt lat="45.439009" lon="11.2632083"><ele>191.2</ele><time>2026-04-06T14:47:11.37Z</time></trkpt><trkpt lat="45.438931" lon="11.2632308"><ele>188.60000000000002</ele><time>2026-04-06T14:47:12.419Z</time></trkpt><trkpt lat="45.4388552" lon="11.2632196"><ele>186.0</ele><time>2026-04-06T14:47:15.415Z</time></trkpt><trkpt lat="45.4386924" lon="11.2632846"><ele>185.33333333333334</ele><time>2026-04-06T14:47:19.369Z</time></trkpt><trkpt lat="45.4386151" lon="11.2632943"><ele>184.66666666666666</ele><time>2026-04-06T14:47:20.374Z</time></trkpt><trkpt lat="45.4385451" lon="11.2632786"><ele>184.0</ele><time>2026-04-06T14:47:21.418Z</time></trkpt><trkpt lat="45.4384793" lon="11.2632598"><ele>183.33333333333331</ele><time>2026-04-06T14:47:22.409Z</time></trkpt><trkpt lat="45.4383499" lon="11.2631988"><ele>182.66666666666666</ele><time>2026-04-06T14:47:24.423Z</time></trkpt><trkpt lat="45.4382713" lon="11.2631701"><ele>182.0</ele><time>2026-04-06T14:47:26.42Z</time></trkpt><trkpt lat="45.4382053" lon="11.2631208"><ele>182.0</ele><time>2026-04-06T14:47:27.418Z</time></trkpt><trkpt lat="45.438096" lon="11.2631406"><ele>182.0</ele><time>2026-04-06T14:47:29.419Z</time></trkpt><trkpt lat="45.4380516" lon="11.2630674"><ele>182.0</ele><time>2026-04-06T14:47:31.428Z</time></trkpt><trkpt lat="45.4379983" lon="11.2631356"><ele>182.0</ele><time>2026-04-06T14:47:32.374Z</time></trkpt><trkpt lat="45.43792" lon="11.2630843"><ele>182.0</ele><time>2026-04-06T14:47:33.438Z</time></trkpt><trkpt lat="45.4377863" lon="11.2630266"><ele>182.71428571428572</ele><time>2026-04-06T14:47:35.429Z</time></trkpt><trkpt lat="45.4377394" lon="11.2629665"><ele>183.42857142857144</ele><time>2026-04-06T14:47:37.421Z</time></trkpt><trkpt lat="45.4376691" lon="11.2629517"><ele>184.14285714285714</ele><time>2026-04-06T14:47:39.372Z</time></trkpt><trkpt lat="45.4375981" lon="11.2629313"><ele>184.85714285714286</ele><time>2026-04-06T14:47:42.43Z</time></trkpt><trkpt lat="45.4375351" lon="11.2629046"><ele>185.57142857142858</ele><time>2026-04-06T14:47:45.405Z</time></trkpt><trkpt lat="45.4374645" lon="11.2628436"><ele>186.28571428571428</ele><time>2026-04-06T14:47:48.426Z</time></trkpt><trkpt lat="45.4374101" lon="11.262768"><ele>187.0</ele><time>2026-04-06T14:47:51.433Z</time></trkpt><trkpt lat="45.4373292" lon="11.262688"><ele>187.0</ele><time>2026-04-06T14:47:54.421Z</time></trkpt><trkpt lat="45.4372716" lon="11.2626357"><ele>187.0</ele><time>2026-04-06T14:47:56.43Z</time></trkpt><trkpt lat="45.4372323" lon="11.2625535"><ele>187.0</ele><time>2026-04-06T14:47:58.445Z</time></trkpt><trkpt lat="45.4371827" lon="11.2624711"><ele>187.0</ele><time>2026-04-06T14:48:02.392Z</time></trkpt><trkpt lat="45.4371343" lon="11.2623871"><ele>187.0</ele><time>2026-04-06T14:48:07.413Z</time></trkpt><trkpt lat="45.4370933" lon="11.2623123"><ele>187.0</ele><time>2026-04-06T14:48:11.394Z</time></trkpt><trkpt lat="45.4370554" lon="11.2622258"><ele>187.0</ele><time>2026-04-06T14:48:12.41Z</time></trkpt><trkpt lat="45.4370357" lon="11.2620873"><ele>185.0</ele><time>2026-04-06T14:48:14.404Z</time></trkpt><trkpt lat="45.4370137" lon="11.2620029"><ele>183.0</ele><time>2026-04-06T14:48:15.412Z</time></trkpt><trkpt lat="45.4370136" lon="11.2618951"><ele>181.0</ele><time>2026-04-06T14:48:16.413Z</time></trkpt><trkpt lat="45.4370182" lon="11.2618033"><ele>179.0</ele><time>2026-04-06T14:48:17.376Z</time></trkpt><trkpt lat="45.4370306" lon="11.2616675"><ele>177.0</ele><time>2026-04-06T14:48:19.414Z</time></trkpt><trkpt lat="45.4370768" lon="11.2615315"><ele>175.0</ele><time>2026-04-06T14:48:21.416Z</time></trkpt><trkpt lat="45.437112" lon="11.2613632"><ele>174.4</ele><time>2026-04-06T14:48:23.407Z</time></trkpt><trkpt lat="45.437104" lon="11.2611964"><ele>173.8</ele><time>2026-04-06T14:48:25.421Z</time></trkpt><trkpt lat="45.4371049" lon="11.2610986"><ele>173.2</ele><time>2026-04-06T14:48:26.407Z</time></trkpt><trkpt lat="45.4370886" lon="11.2609487"><ele>172.6</ele><time>2026-04-06T14:48:28.415Z</time></trkpt><trkpt lat="45.4370571" lon="11.2607989"><ele>172.0</ele><time>2026-04-06T14:48:30.424Z</time></trkpt><trkpt lat="45.437012" lon="11.2606693"><ele>173.75</ele><time>2026-04-06T14:48:32.424Z</time></trkpt><trkpt lat="45.4369591" lon="11.260541"><ele>175.5</ele><time>2026-04-06T14:48:34.371Z</time></trkpt><trkpt lat="45.4367509" lon="11.2604768"><ele>177.25</ele><time>2026-04-06T14:48:37.379Z</time></trkpt><trkpt lat="45.436672" lon="11.2604606"><ele>179.0</ele><time>2026-04-06T14:48:38.399Z</time></trkpt><trkpt lat="45.4365555" lon="11.2604682"><ele>179.0</ele><time>2026-04-06T14:48:39.43Z</time></trkpt><trkpt lat="45.4364744" lon="11.2604691"><ele>179.0</ele><time>2026-04-06T14:48:40.366Z</time></trkpt><trkpt lat="45.4363977" lon="11.2604767"><ele>179.0</ele><time>2026-04-06T14:48:41.37Z</time></trkpt><trkpt lat="45.436322" lon="11.2604754"><ele>179.0</ele><time>2026-04-06T14:48:42.44Z</time></trkpt><trkpt lat="45.4362607" lon="11.2604376"><ele>179.0</ele><time>2026-04-06T14:48:43.423Z</time></trkpt><trkpt lat="45.4361918" lon="11.2604096"><ele>179.0</ele><time>2026-04-06T14:48:44.364Z</time></trkpt><trkpt lat="45.4361053" lon="11.2603854"><ele>174.79999999999998</ele><time>2026-04-06T14:48:45.426Z</time></trkpt><trkpt lat="45.4360223" lon="11.2603715"><ele>170.6</ele><time>2026-04-06T14:48:46.429Z</time></trkpt><trkpt lat="45.4359584" lon="11.2603603"><ele>166.4</ele><time>2026-04-06T14:48:47.369Z</time></trkpt><trkpt lat="45.4358381" lon="11.2603829"><ele>162.2</ele><time>2026-04-06T14:48:49.443Z</time></trkpt><trkpt lat="45.4357492" lon="11.2603331"><ele>158.0</ele><time>2026-04-06T14:48:51.43Z</time></trkpt><trkpt lat="45.4356655" lon="11.2602768"><ele>158.0</ele><time>2026-04-06T14:48:52.423Z</time></trkpt><trkpt lat="45.4356169" lon="11.2602054"><ele>158.0</ele><time>2026-04-06T14:48:53.433Z</time></trkpt><trkpt lat="45.4355357" lon="11.2601468"><ele>158.0</ele><time>2026-04-06T14:48:54.426Z</time></trkpt><trkpt lat="45.4354869" lon="11.2600656"><ele>158.0</ele><time>2026-04-06T14:48:55.43Z</time></trkpt><trkpt lat="45.4354397" lon="11.259908"><ele>158.0</ele><time>2026-04-06T14:48:57.428Z</time></trkpt><trkpt lat="45.4354025" lon="11.2598353"><ele>158.0</ele><time>2026-04-06T14:48:58.421Z</time></trkpt><trkpt lat="45.4353485" lon="11.2597401"><ele>154.6</ele><time>2026-04-06T14:48:59.378Z</time></trkpt><trkpt lat="45.4352976" lon="11.2596666"><ele>151.20000000000002</ele><time>2026-04-06T14:49:00.377Z</time></trkpt><trkpt lat="45.4352251" lon="11.2595872"><ele>147.8</ele><time>2026-04-06T14:49:01.415Z</time></trkpt><trkpt lat="45.4351678" lon="11.2594718"><ele>144.4</ele><time>2026-04-06T14:49:02.38Z</time></trkpt><trkpt lat="45.4351244" lon="11.2593288"><ele>141.0</ele><time>2026-04-06T14:49:03.439Z</time></trkpt><trkpt lat="45.4351023" lon="11.2591983"><ele>141.0</ele><time>2026-04-06T14:49:04.431Z</time></trkpt><trkpt lat="45.4349997" lon="11.2590301"><ele>141.0</ele><time>2026-04-06T14:49:06.43Z</time></trkpt><trkpt lat="45.4349465" lon="11.2588497"><ele>141.0</ele><time>2026-04-06T14:49:07.42Z</time></trkpt><trkpt lat="45.4348945" lon="11.2587725"><ele>141.0</ele><time>2026-04-06T14:49:08.422Z</time></trkpt><trkpt lat="45.4348359" lon="11.2586814"><ele>141.4</ele><time>2026-04-06T14:49:09.4Z</time></trkpt><trkpt lat="45.4348011" lon="11.2585491"><ele>141.8</ele><time>2026-04-06T14:49:10.395Z</time></trkpt><trkpt lat="45.4347842" lon="11.2584444"><ele>142.20000000000002</ele><time>2026-04-06T14:49:11.397Z</time></trkpt><trkpt lat="45.4347546" lon="11.2583343"><ele>142.6</ele><time>2026-04-06T14:49:12.375Z</time></trkpt><trkpt lat="45.4347252" lon="11.2581458"><ele>143.0</ele><time>2026-04-06T14:49:14.399Z</time></trkpt><trkpt lat="45.4346897" lon="11.2580679"><ele>140.66666666666666</ele><time>2026-04-06T14:49:15.401Z</time></trkpt><trkpt lat="45.4346552" lon="11.2579895"><ele>138.33333333333331</ele><time>2026-04-06T14:49:16.385Z</time></trkpt><trkpt lat="45.4345376" lon="11.2579178"><ele>136.0</ele><time>2026-04-06T14:49:18.397Z</time></trkpt><trkpt lat="45.4344714" lon="11.2579336"><ele>133.66666666666666</ele><time>2026-04-06T14:49:19.414Z</time></trkpt><trkpt lat="45.4344038" lon="11.2579616"><ele>131.33333333333334</ele><time>2026-04-06T14:49:20.408Z</time></trkpt><trkpt lat="45.4343345" lon="11.2579572"><ele>129.0</ele><time>2026-04-06T14:49:21.41Z</time></trkpt><trkpt lat="45.4342694" lon="11.257941"><ele>128.8</ele><time>2026-04-06T14:49:22.418Z</time></trkpt><trkpt lat="45.434156" lon="11.2579569"><ele>128.60000000000002</ele><time>2026-04-06T14:49:24.411Z</time></trkpt><trkpt lat="45.4340945" lon="11.2579199"><ele>128.4</ele><time>2026-04-06T14:49:25.395Z</time></trkpt><trkpt lat="45.4340244" lon="11.2578995"><ele>128.20000000000002</ele><time>2026-04-06T14:49:26.448Z</time></trkpt><trkpt lat="45.4339155" lon="11.2578551"><ele>128.0</ele><time>2026-04-06T14:49:28.417Z</time></trkpt><trkpt lat="45.4338249" lon="11.257813"><ele>128.66666666666666</ele><time>2026-04-06T14:49:30.423Z</time></trkpt><trkpt lat="45.4337225" lon="11.2577711"><ele>129.33333333333331</ele><time>2026-04-06T14:49:32.439Z</time></trkpt><trkpt lat="45.4336501" lon="11.2577514"><ele>130.0</ele><time>2026-04-06T14:49:34.371Z</time></trkpt><trkpt lat="45.4335349" lon="11.2577203"><ele>130.66666666666666</ele><time>2026-04-06T14:49:37.372Z</time></trkpt><trkpt lat="45.433464" lon="11.2576945"><ele>131.33333333333334</ele><time>2026-04-06T14:49:39.373Z</time></trkpt><trkpt lat="45.4333983" lon="11.2576783"><ele>132.0</ele><time>2026-04-06T14:49:41.426Z</time></trkpt><trkpt lat="45.4333354" lon="11.2576583"><ele>132.0</ele><time>2026-04-06T14:49:43.432Z</time></trkpt><trkpt lat="45.4332452" lon="11.2576351"><ele>132.0</ele><time>2026-04-06T14:49:46.422Z</time></trkpt><trkpt lat="45.4331817" lon="11.2576213"><ele>132.0</ele><time>2026-04-06T14:49:48.429Z</time></trkpt><trkpt lat="45.4330889" lon="11.2576162"><ele>132.0</ele><time>2026-04-06T14:49:51.441Z</time></trkpt><trkpt lat="45.4330191" lon="11.2575881"><ele>132.0</ele><time>2026-04-06T14:49:55.375Z</time></trkpt><trkpt lat="45.4329473" lon="11.2575772"><ele>132.0</ele><time>2026-04-06T14:50:00.423Z</time></trkpt><trkpt lat="45.4328717" lon="11.2575462"><ele>132.85714285714286</ele><time>2026-04-06T14:50:05.434Z</time></trkpt><trkpt lat="45.432804" lon="11.257551"><ele>133.71428571428572</ele><time>2026-04-06T14:50:09.441Z</time></trkpt><trkpt lat="45.4327399" lon="11.2575514"><ele>134.57142857142858</ele><time>2026-04-06T14:50:12.433Z</time></trkpt><trkpt lat="45.4326746" lon="11.2575573"><ele>135.42857142857144</ele><time>2026-04-06T14:50:16.391Z</time></trkpt><trkpt lat="45.4326008" lon="11.2575645"><ele>136.2857142857143</ele><time>2026-04-06T14:50:21.397Z</time></trkpt><trkpt lat="45.4325371" lon="11.2575766"><ele>137.14285714285714</ele><time>2026-04-06T14:50:25.404Z</time></trkpt><trkpt lat="45.4324691" lon="11.2576028"><ele>138.0</ele><time>2026-04-06T14:50:30.366Z</time></trkpt><trkpt lat="45.4324001" lon="11.2576245"><ele>138.0</ele><time>2026-04-06T14:50:36.406Z</time></trkpt><trkpt lat="45.4323211" lon="11.2576204"><ele>138.0</ele><time>2026-04-06T14:50:41.371Z</time></trkpt><trkpt lat="45.4322471" lon="11.2576547"><ele>138.0</ele><time>2026-04-06T14:50:46.379Z</time></trkpt><trkpt lat="45.4321828" lon="11.2576662"><ele>138.0</ele><time>2026-04-06T14:50:51.377Z</time></trkpt><trkpt lat="45.4321192" lon="11.2576858"><ele>138.0</ele><time>2026-04-06T14:51:00.449Z</time></trkpt><trkpt lat="45.4320791" lon="11.2577744"><ele>138.0</ele><time>2026-04-06T14:51:09.411Z</time></trkpt><trkpt lat="45.4320105" lon="11.2577722"><ele>138.0</ele><time>2026-04-06T14:51:14.366Z</time></trkpt><trkpt lat="45.4319408" lon="11.257782"><ele>139.0</ele><time>2026-04-06T14:51:19.42Z</time></trkpt><trkpt lat="45.4318708" lon="11.2577984"><ele>140.0</ele><time>2026-04-06T14:51:28.41Z</time></trkpt><trkpt lat="45.431797" lon="11.2578321"><ele>141.0</ele><time>2026-04-06T14:51:34.421Z</time></trkpt><trkpt lat="45.4317626" lon="11.2579154"><ele>142.0</ele><time>2026-04-06T14:51:41.373Z</time></trkpt><trkpt lat="45.4317564" lon="11.2580115"><ele>143.0</ele><time>2026-04-06T14:51:46.445Z</time></trkpt><trkpt lat="45.4317039" lon="11.2580672"><ele>144.0</ele><time>2026-04-06T14:51:50.423Z</time></trkpt><trkpt lat="45.4316589" lon="11.2581386"><ele>145.0</ele><time>2026-04-06T14:51:55.375Z</time></trkpt><trkpt lat="45.4316353" lon="11.2582296"><ele>145.16666666666669</ele><time>2026-04-06T14:51:59.436Z</time></trkpt><trkpt lat="45.4316174" lon="11.2583199"><ele>145.33333333333334</ele><time>2026-04-06T14:52:03.423Z</time></trkpt><trkpt lat="45.4315437" lon="11.2583794"><ele>145.5</ele><time>2026-04-06T14:52:07.435Z</time></trkpt><trkpt lat="45.4314794" lon="11.2584421"><ele>145.66666666666666</ele><time>2026-04-06T14:52:10.369Z</time></trkpt><trkpt lat="45.4313778" lon="11.2584905"><ele>145.83333333333331</ele><time>2026-04-06T14:52:13.393Z</time></trkpt><trkpt lat="45.4313096" lon="11.2585459"><ele>146.0</ele><time>2026-04-06T14:52:16.388Z</time></trkpt><trkpt lat="45.4312501" lon="11.2585902"><ele>146.83333333333331</ele><time>2026-04-06T14:52:20.375Z</time></trkpt><trkpt lat="45.431171" lon="11.2586054"><ele>147.66666666666666</ele><time>2026-04-06T14:52:23.423Z</time></trkpt><trkpt lat="45.4310899" lon="11.2586234"><ele>148.5</ele><time>2026-04-06T14:52:25.416Z</time></trkpt><trkpt lat="45.4310147" lon="11.2586563"><ele>149.33333333333334</ele><time>2026-04-06T14:52:27.385Z</time></trkpt><trkpt lat="45.4309308" lon="11.2586514"><ele>150.16666666666669</ele><time>2026-04-06T14:52:30.414Z</time></trkpt><trkpt lat="45.4308424" lon="11.258635"><ele>151.0</ele><time>2026-04-06T14:52:33.393Z</time></trkpt><trkpt lat="45.4307661" lon="11.2586368"><ele>151.0</ele><time>2026-04-06T14:52:36.367Z</time></trkpt><trkpt lat="45.4306863" lon="11.2586089"><ele>151.0</ele><time>2026-04-06T14:52:39.419Z</time></trkpt><trkpt lat="45.4306104" lon="11.2585428"><ele>151.0</ele><time>2026-04-06T14:52:42.37Z</time></trkpt><trkpt lat="45.430531" lon="11.2584993"><ele>151.0</ele><time>2026-04-06T14:52:45.371Z</time></trkpt><trkpt lat="45.4304687" lon="11.258414"><ele>151.0</ele><time>2026-04-06T14:52:49.414Z</time></trkpt><trkpt lat="45.4304135" lon="11.2583371"><ele>151.0</ele><time>2026-04-06T14:52:52.366Z</time></trkpt><trkpt lat="45.4303502" lon="11.2582955"><ele>149.33333333333334</ele><time>2026-04-06T14:52:55.414Z</time></trkpt><trkpt lat="45.4303064" lon="11.2581968"><ele>147.66666666666669</ele><time>2026-04-06T14:53:01.37Z</time></trkpt><trkpt lat="45.4302592" lon="11.2581287"><ele>146.0</ele><time>2026-04-06T14:53:03.366Z</time></trkpt><trkpt lat="45.4302065" lon="11.2580633"><ele>144.33333333333334</ele><time>2026-04-06T14:53:05.427Z</time></trkpt><trkpt lat="45.4301392" lon="11.2580042"><ele>142.66666666666666</ele><time>2026-04-06T14:53:08.375Z</time></trkpt><trkpt lat="45.4300489" lon="11.2579431"><ele>141.0</ele><time>2026-04-06T14:53:10.368Z</time></trkpt><trkpt lat="45.430011" lon="11.2578394"><ele>140.75</ele><time>2026-04-06T14:53:11.366Z</time></trkpt><trkpt lat="45.4299092" lon="11.2577178"><ele>140.5</ele><time>2026-04-06T14:53:13.434Z</time></trkpt><trkpt lat="45.4298856" lon="11.2576128"><ele>140.25</ele><time>2026-04-06T14:53:14.417Z</time></trkpt><trkpt lat="45.4297553" lon="11.2574959"><ele>140.0</ele><time>2026-04-06T14:53:16.454Z</time></trkpt><trkpt lat="45.429668" lon="11.2574865"><ele>139.33333333333331</ele><time>2026-04-06T14:53:17.407Z</time></trkpt><trkpt lat="45.4295877" lon="11.2574689"><ele>138.66666666666666</ele><time>2026-04-06T14:53:18.384Z</time></trkpt><trkpt lat="45.4294952" lon="11.2574534"><ele>138.0</ele><time>2026-04-06T14:53:19.367Z</time></trkpt><trkpt lat="45.4294095" lon="11.2574507"><ele>137.33333333333334</ele><time>2026-04-06T14:53:20.398Z</time></trkpt><trkpt lat="45.429313" lon="11.257435"><ele>136.66666666666669</ele><time>2026-04-06T14:53:21.392Z</time></trkpt><trkpt lat="45.429236" lon="11.2574239"><ele>136.0</ele><time>2026-04-06T14:53:22.397Z</time></trkpt><trkpt lat="45.4291582" lon="11.2574157"><ele>136.0</ele><time>2026-04-06T14:53:23.397Z</time></trkpt><trkpt lat="45.4290777" lon="11.2574081"><ele>136.0</ele><time>2026-04-06T14:53:24.398Z</time></trkpt><trkpt lat="45.4290113" lon="11.2574044"><ele>136.0</ele><time>2026-04-06T14:53:25.389Z</time></trkpt><trkpt lat="45.4289311" lon="11.2573892"><ele>136.0</ele><time>2026-04-06T14:53:26.405Z</time></trkpt><trkpt lat="45.428848" lon="11.2573765"><ele>136.0</ele><time>2026-04-06T14:53:27.399Z</time></trkpt><trkpt lat="45.4287661" lon="11.2573499"><ele>136.0</ele><time>2026-04-06T14:53:28.394Z</time></trkpt><trkpt lat="45.4286845" lon="11.257329"><ele>135.0</ele><time>2026-04-06T14:53:29.408Z</time></trkpt><trkpt lat="45.428555" lon="11.2572894"><ele>134.0</ele><time>2026-04-06T14:53:31.43Z</time></trkpt><trkpt lat="45.4284871" lon="11.2572589"><ele>133.0</ele><time>2026-04-06T14:53:33.407Z</time></trkpt><trkpt lat="45.4283432" lon="11.2571962"><ele>132.0</ele><time>2026-04-06T14:53:34.409Z</time></trkpt><trkpt lat="45.4282378" lon="11.2571352"><ele>131.71428571428572</ele><time>2026-04-06T14:53:36.403Z</time></trkpt><trkpt lat="45.4281657" lon="11.2571053"><ele>131.42857142857144</ele><time>2026-04-06T14:53:39.371Z</time></trkpt><trkpt lat="45.4281037" lon="11.2571681"><ele>131.14285714285717</ele><time>2026-04-06T14:53:42.416Z</time></trkpt><trkpt lat="45.4280363" lon="11.2572209"><ele>130.85714285714286</ele><time>2026-04-06T14:53:44.377Z</time></trkpt><trkpt lat="45.427964" lon="11.2572493"><ele>130.57142857142858</ele><time>2026-04-06T14:53:46.365Z</time></trkpt><trkpt lat="45.4279037" lon="11.2572902"><ele>130.2857142857143</ele><time>2026-04-06T14:53:49.407Z</time></trkpt><trkpt lat="45.4278367" lon="11.2573158"><ele>130.0</ele><time>2026-04-06T14:53:53.449Z</time></trkpt><trkpt lat="45.4277658" lon="11.2573369"><ele>131.42857142857144</ele><time>2026-04-06T14:53:58.411Z</time></trkpt><trkpt lat="45.4276973" lon="11.2573677"><ele>132.85714285714286</ele><time>2026-04-06T14:54:04.412Z</time></trkpt><trkpt lat="45.4276403" lon="11.257417"><ele>134.28571428571428</ele><time>2026-04-06T14:54:09.418Z</time></trkpt><trkpt lat="45.4275717" lon="11.2574516"><ele>135.71428571428572</ele><time>2026-04-06T14:54:14.357Z</time></trkpt><trkpt lat="45.4275061" lon="11.2574891"><ele>137.14285714285714</ele><time>2026-04-06T14:54:20.394Z</time></trkpt><trkpt lat="45.427439" lon="11.2575159"><ele>138.57142857142858</ele><time>2026-04-06T14:54:25.371Z</time></trkpt><trkpt lat="45.427376" lon="11.2575234"><ele>140.0</ele><time>2026-04-06T14:54:32.403Z</time></trkpt><trkpt lat="45.427312" lon="11.2575535"><ele>140.0</ele><time>2026-04-06T14:54:36.369Z</time></trkpt><trkpt lat="45.4272642" lon="11.2576135"><ele>140.0</ele><time>2026-04-06T14:54:41.398Z</time></trkpt><trkpt lat="45.4271994" lon="11.2576629"><ele>140.0</ele><time>2026-04-06T14:54:47.365Z</time></trkpt><trkpt lat="45.4271282" lon="11.2576958"><ele>140.0</ele><time>2026-04-06T14:54:54.367Z</time></trkpt><trkpt lat="45.4270822" lon="11.2577791"><ele>140.0</ele><time>2026-04-06T14:55:03.37Z</time></trkpt><trkpt lat="45.4270273" lon="11.2578434"><ele>140.0</ele><time>2026-04-06T14:55:09.396Z</time></trkpt><trkpt lat="45.4269728" lon="11.2578929"><ele>140.0</ele><time>2026-04-06T14:55:14.407Z</time></trkpt><trkpt lat="45.4269345" lon="11.2579699"><ele>141.42857142857142</ele><time>2026-04-06T14:55:18.383Z</time></trkpt><trkpt lat="45.4268866" lon="11.2580398"><ele>142.85714285714286</ele><time>2026-04-06T14:55:24.374Z</time></trkpt><trkpt lat="45.4268182" lon="11.2580742"><ele>144.28571428571428</ele><time>2026-04-06T14:55:29.413Z</time></trkpt><trkpt lat="45.4267484" lon="11.25809"><ele>145.71428571428572</ele><time>2026-04-06T14:55:35.439Z</time></trkpt><trkpt lat="45.4266921" lon="11.2581331"><ele>147.14285714285714</ele><time>2026-04-06T14:55:40.369Z</time></trkpt><trkpt lat="45.4266104" lon="11.2581508"><ele>148.57142857142856</ele><time>2026-04-06T14:55:46.418Z</time></trkpt><trkpt lat="45.4265419" lon="11.2581802"><ele>150.0</ele><time>2026-04-06T14:55:51.417Z</time></trkpt><trkpt lat="45.4264734" lon="11.2582041"><ele>150.42857142857142</ele><time>2026-04-06T14:55:55.364Z</time></trkpt><trkpt lat="45.4264095" lon="11.2582414"><ele>150.85714285714286</ele><time>2026-04-06T14:55:59.444Z</time></trkpt><trkpt lat="45.4263367" lon="11.2582427"><ele>151.28571428571428</ele><time>2026-04-06T14:56:03.424Z</time></trkpt><trkpt lat="45.4262847" lon="11.2583028"><ele>151.71428571428572</ele><time>2026-04-06T14:56:09.39Z</time></trkpt><trkpt lat="45.4262155" lon="11.2583375"><ele>152.14285714285714</ele><time>2026-04-06T14:56:13.4Z</time></trkpt><trkpt lat="45.4261508" lon="11.2583638"><ele>152.57142857142856</ele><time>2026-04-06T14:56:16.379Z</time></trkpt><trkpt lat="45.4260971" lon="11.2584234"><ele>153.0</ele><time>2026-04-06T14:56:20.396Z</time></trkpt><trkpt lat="45.4260334" lon="11.2584662"><ele>154.0</ele><time>2026-04-06T14:56:25.41Z</time></trkpt><trkpt lat="45.4259706" lon="11.2584206"><ele>155.0</ele><time>2026-04-06T14:56:30.411Z</time></trkpt><trkpt lat="45.4259496" lon="11.2583259"><ele>156.0</ele><time>2026-04-06T14:56:34.412Z</time></trkpt><trkpt lat="45.4259118" lon="11.2582387"><ele>157.0</ele><time>2026-04-06T14:56:39.414Z</time></trkpt><trkpt lat="45.4258656" lon="11.2581567"><ele>158.0</ele><time>2026-04-06T14:56:43.4Z</time></trkpt><trkpt lat="45.4258226" lon="11.258079"><ele>159.0</ele><time>2026-04-06T14:56:46.408Z</time></trkpt><trkpt lat="45.4257833" lon="11.2580078"><ele>160.0</ele><time>2026-04-06T14:56:49.389Z</time></trkpt><trkpt lat="45.4257374" lon="11.2579388"><ele>160.16666666666669</ele><time>2026-04-06T14:56:52.418Z</time></trkpt><trkpt lat="45.4256949" lon="11.2578658"><ele>160.33333333333334</ele><time>2026-04-06T14:56:55.427Z</time></trkpt><trkpt lat="45.4256536" lon="11.2577655"><ele>160.5</ele><time>2026-04-06T14:56:59.399Z</time></trkpt><trkpt lat="45.4255926" lon="11.2576774"><ele>160.66666666666666</ele><time>2026-04-06T14:57:03.416Z</time></trkpt><trkpt lat="45.4255406" lon="11.2575795"><ele>160.83333333333331</ele><time>2026-04-06T14:57:07.415Z</time></trkpt><trkpt lat="45.4254896" lon="11.2575035"><ele>161.0</ele><time>2026-04-06T14:57:10.427Z</time></trkpt><trkpt lat="45.425435" lon="11.2574172"><ele>161.5</ele><time>2026-04-06T14:57:13.421Z</time></trkpt><trkpt lat="45.4253929" lon="11.2573331"><ele>162.0</ele><time>2026-04-06T14:57:16.416Z</time></trkpt><trkpt lat="45.42534" lon="11.2572519"><ele>162.5</ele><time>2026-04-06T14:57:19.398Z</time></trkpt><trkpt lat="45.4252884" lon="11.2571781"><ele>163.0</ele><time>2026-04-06T14:57:22.372Z</time></trkpt><trkpt lat="45.4252323" lon="11.2570911"><ele>163.5</ele><time>2026-04-06T14:57:25.388Z</time></trkpt><trkpt lat="45.4251703" lon="11.2570274"><ele>164.0</ele><time>2026-04-06T14:57:28.403Z</time></trkpt><trkpt lat="45.4251072" lon="11.256981"><ele>164.28571428571428</ele><time>2026-04-06T14:57:31.429Z</time></trkpt><trkpt lat="45.4250349" lon="11.2569749"><ele>164.57142857142856</ele><time>2026-04-06T14:57:34.408Z</time></trkpt><trkpt lat="45.4249662" lon="11.2569677"><ele>164.85714285714283</ele><time>2026-04-06T14:57:37.412Z</time></trkpt><trkpt lat="45.4248844" lon="11.2569611"><ele>165.14285714285714</ele><time>2026-04-06T14:57:41.413Z</time></trkpt><trkpt lat="45.4248142" lon="11.2569636"><ele>165.42857142857144</ele><time>2026-04-06T14:57:44.412Z</time></trkpt><trkpt lat="45.4247481" lon="11.2569834"><ele>165.7142857142857</ele><time>2026-04-06T14:57:47.384Z</time></trkpt><trkpt lat="45.4246733" lon="11.2570032"><ele>166.0</ele><time>2026-04-06T14:57:50.407Z</time></trkpt><trkpt lat="45.4246047" lon="11.2570082"><ele>166.5</ele><time>2026-04-06T14:57:54.414Z</time></trkpt><trkpt lat="45.4245349" lon="11.2570402"><ele>167.0</ele><time>2026-04-06T14:57:57.423Z</time></trkpt><trkpt lat="45.4244652" lon="11.2570512"><ele>167.5</ele><time>2026-04-06T14:58:00.378Z</time></trkpt><trkpt lat="45.4243827" lon="11.2570694"><ele>168.0</ele><time>2026-04-06T14:58:03.434Z</time></trkpt><trkpt lat="45.4242953" lon="11.2570712"><ele>168.5</ele><time>2026-04-06T14:58:06.413Z</time></trkpt><trkpt lat="45.4242139" lon="11.2570847"><ele>169.0</ele><time>2026-04-06T14:58:09.377Z</time></trkpt><trkpt lat="45.4241381" lon="11.2570858"><ele>169.0</ele><time>2026-04-06T14:58:12.448Z</time></trkpt><trkpt lat="45.4240635" lon="11.2570906"><ele>169.0</ele><time>2026-04-06T14:58:16.374Z</time></trkpt><trkpt lat="45.4240203" lon="11.2571643"><ele>169.0</ele><time>2026-04-06T14:58:18.365Z</time></trkpt><trkpt lat="45.4240025" lon="11.2572799"><ele>169.0</ele><time>2026-04-06T14:58:20.38Z</time></trkpt><trkpt lat="45.4239696" lon="11.2573644"><ele>169.0</ele><time>2026-04-06T14:58:21.406Z</time></trkpt><trkpt lat="45.4239714" lon="11.2575153"><ele>169.0</ele><time>2026-04-06T14:58:23.433Z</time></trkpt><trkpt lat="45.4239124" lon="11.2576347"><ele>168.2</ele><time>2026-04-06T14:58:25.379Z</time></trkpt><trkpt lat="45.4238006" lon="11.2576763"><ele>167.39999999999998</ele><time>2026-04-06T14:58:27.432Z</time></trkpt><trkpt lat="45.4236857" lon="11.2576813"><ele>166.6</ele><time>2026-04-06T14:58:29.362Z</time></trkpt><trkpt lat="45.4235699" lon="11.2576734"><ele>165.8</ele><time>2026-04-06T14:58:31.375Z</time></trkpt><trkpt lat="45.4235043" lon="11.2576669"><ele>165.0</ele><time>2026-04-06T14:58:32.37Z</time></trkpt><trkpt lat="45.4233908" lon="11.2576861"><ele>165.0</ele><time>2026-04-06T14:58:34.382Z</time></trkpt><trkpt lat="45.423269" lon="11.2577236"><ele>165.0</ele><time>2026-04-06T14:58:36.377Z</time></trkpt><trkpt lat="45.4231734" lon="11.2577825"><ele>165.0</ele><time>2026-04-06T14:58:38.381Z</time></trkpt><trkpt lat="45.4230903" lon="11.2578399"><ele>165.0</ele><time>2026-04-06T14:58:40.383Z</time></trkpt><trkpt lat="45.4230096" lon="11.2578393"><ele>165.0</ele><time>2026-04-06T14:58:42.366Z</time></trkpt><trkpt lat="45.4229348" lon="11.2578266"><ele>163.16666666666666</ele><time>2026-04-06T14:58:44.379Z</time></trkpt><trkpt lat="45.4228579" lon="11.257814"><ele>161.33333333333334</ele><time>2026-04-06T14:58:46.367Z</time></trkpt><trkpt lat="45.4227923" lon="11.2578362"><ele>159.5</ele><time>2026-04-06T15:10:18.364Z</time></trkpt><trkpt lat="45.4227009" lon="11.2578503"><ele>157.66666666666669</ele><time>2026-04-06T15:10:20.366Z</time></trkpt><trkpt lat="45.4226277" lon="11.2578674"><ele>155.83333333333334</ele><time>2026-04-06T15:10:21.369Z</time></trkpt><trkpt lat="45.4225625" lon="11.2578917"><ele>154.0</ele><time>2026-04-06T15:10:22.371Z</time></trkpt><trkpt lat="45.4224873" lon="11.2579209"><ele>154.0</ele><time>2026-04-06T15:10:23.377Z</time></trkpt><trkpt lat="45.4224096" lon="11.2579421"><ele>154.0</ele><time>2026-04-06T15:10:24.374Z</time></trkpt><trkpt lat="45.4222885" lon="11.2579869"><ele>154.0</ele><time>2026-04-06T15:10:26.405Z</time></trkpt><trkpt lat="45.4222063" lon="11.258029"><ele>154.0</ele><time>2026-04-06T15:10:28.405Z</time></trkpt><trkpt lat="45.4221327" lon="11.2580613"><ele>154.0</ele><time>2026-04-06T15:10:46.418Z</time></trkpt><trkpt lat="45.4221252" lon="11.2581689"><ele>154.0</ele><time>2026-04-06T15:10:49.398Z</time></trkpt><trkpt lat="45.4221016" lon="11.2582689"><ele>152.66666666666669</ele><time>2026-04-06T15:10:52.41Z</time></trkpt><trkpt lat="45.4221055" lon="11.258402"><ele>151.33333333333334</ele><time>2026-04-06T15:10:54.412Z</time></trkpt><trkpt lat="45.4221078" lon="11.2585123"><ele>150.0</ele><time>2026-04-06T15:10:56.412Z</time></trkpt><trkpt lat="45.4221" lon="11.2586213"><ele>148.66666666666666</ele><time>2026-04-06T15:10:58.418Z</time></trkpt><trkpt lat="45.4220976" lon="11.2587462"><ele>147.33333333333331</ele><time>2026-04-06T15:11:00.418Z</time></trkpt><trkpt lat="45.4220759" lon="11.2588625"><ele>146.0</ele><time>2026-04-06T15:11:02.374Z</time></trkpt><trkpt lat="45.4220553" lon="11.2589938"><ele>145.6</ele><time>2026-04-06T15:11:04.365Z</time></trkpt><trkpt lat="45.4220252" lon="11.2591327"><ele>145.2</ele><time>2026-04-06T15:11:06.376Z</time></trkpt><trkpt lat="45.4219614" lon="11.2592627"><ele>144.8</ele><time>2026-04-06T15:11:09.366Z</time></trkpt><trkpt lat="45.4218755" lon="11.2593203"><ele>144.4</ele><time>2026-04-06T15:11:11.365Z</time></trkpt><trkpt lat="45.4217684" lon="11.2593709"><ele>144.0</ele><time>2026-04-06T15:11:13.383Z</time></trkpt><trkpt lat="45.4216791" lon="11.2594174"><ele>144.0</ele><time>2026-04-06T15:11:15.411Z</time></trkpt><trkpt lat="45.4215826" lon="11.2594383"><ele>144.0</ele><time>2026-04-06T15:11:17.397Z</time></trkpt><trkpt lat="45.4215036" lon="11.2594587"><ele>144.0</ele><time>2026-04-06T15:11:19.367Z</time></trkpt><trkpt lat="45.4214545" lon="11.2595261"><ele>144.0</ele><time>2026-04-06T15:11:21.402Z</time></trkpt><trkpt lat="45.42139" lon="11.2595444"><ele>144.0</ele><time>2026-04-06T15:11:23.401Z</time></trkpt><trkpt lat="45.421326" lon="11.2595744"><ele>144.0</ele><time>2026-04-06T15:11:25.4Z</time></trkpt><trkpt lat="45.4212426" lon="11.2596327"><ele>142.16666666666666</ele><time>2026-04-06T15:11:28.408Z</time></trkpt><trkpt lat="45.4211732" lon="11.2596643"><ele>140.33333333333334</ele><time>2026-04-06T15:11:30.425Z</time></trkpt><trkpt lat="45.4210952" lon="11.2596549"><ele>138.5</ele><time>2026-04-06T15:11:32.372Z</time></trkpt><trkpt lat="45.4210176" lon="11.2596051"><ele>136.66666666666669</ele><time>2026-04-06T15:11:34.414Z</time></trkpt><trkpt lat="45.4209238" lon="11.2595618"><ele>134.83333333333334</ele><time>2026-04-06T15:11:36.37Z</time></trkpt><trkpt lat="45.4208523" lon="11.2595307"><ele>133.0</ele><time>2026-04-06T15:11:38.377Z</time></trkpt><trkpt lat="45.4207782" lon="11.2594736"><ele>133.0</ele><time>2026-04-06T15:11:41.409Z</time></trkpt><trkpt lat="45.420706" lon="11.2594535"><ele>133.0</ele><time>2026-04-06T15:11:43.379Z</time></trkpt><trkpt lat="45.4206227" lon="11.2594074"><ele>133.0</ele><time>2026-04-06T15:11:45.415Z</time></trkpt><trkpt lat="45.4205145" lon="11.259387"><ele>133.0</ele><time>2026-04-06T15:11:48.408Z</time></trkpt><trkpt lat="45.4204383" lon="11.2593827"><ele>133.0</ele><time>2026-04-06T15:11:50.363Z</time></trkpt><trkpt lat="45.4203675" lon="11.2593697"><ele>133.0</ele><time>2026-04-06T15:11:52.424Z</time></trkpt><trkpt lat="45.4203057" lon="11.259343"><ele>131.5</ele><time>2026-04-06T15:11:54.424Z</time></trkpt><trkpt lat="45.4202151" lon="11.2592929"><ele>130.0</ele><time>2026-04-06T15:11:57.362Z</time></trkpt><trkpt lat="45.4201792" lon="11.259189"><ele>128.5</ele><time>2026-04-06T15:12:04.407Z</time></trkpt><trkpt lat="45.420128" lon="11.2590859"><ele>127.0</ele><time>2026-04-06T15:12:08.409Z</time></trkpt><trkpt lat="45.4200941" lon="11.2589824"><ele>125.50000000000001</ele><time>2026-04-06T15:12:11.417Z</time></trkpt><trkpt lat="45.4200752" lon="11.2588683"><ele>124.0</ele><time>2026-04-06T15:12:14.367Z</time></trkpt><trkpt lat="45.4200827" lon="11.2587448"><ele>123.50000000000001</ele><time>2026-04-06T15:12:17.373Z</time></trkpt><trkpt lat="45.4200764" lon="11.2586114"><ele>123.0</ele><time>2026-04-06T15:12:20.392Z</time></trkpt><trkpt lat="45.4201048" lon="11.2585017"><ele>122.5</ele><time>2026-04-06T15:12:22.367Z</time></trkpt><trkpt lat="45.4200832" lon="11.2583424"><ele>122.0</ele><time>2026-04-06T15:12:25.406Z</time></trkpt><trkpt lat="45.420049" lon="11.2582494"><ele>121.50000000000001</ele><time>2026-04-06T15:12:27.402Z</time></trkpt><trkpt lat="45.4199989" lon="11.2581532"><ele>121.0</ele><time>2026-04-06T15:12:30.369Z</time></trkpt><trkpt lat="45.419941" lon="11.258105"><ele>119.83333333333334</ele><time>2026-04-06T15:12:33.426Z</time></trkpt><trkpt lat="45.419863" lon="11.2580585"><ele>118.66666666666667</ele><time>2026-04-06T15:12:36.389Z</time></trkpt><trkpt lat="45.419787" lon="11.2580093"><ele>117.5</ele><time>2026-04-06T15:12:39.406Z</time></trkpt><trkpt lat="45.4197192" lon="11.2580466"><ele>116.33333333333334</ele><time>2026-04-06T15:12:43.395Z</time></trkpt><trkpt lat="45.4196335" lon="11.2581076"><ele>115.16666666666667</ele><time>2026-04-06T15:12:47.365Z</time></trkpt><trkpt lat="45.4195476" lon="11.2581587"><ele>114.0</ele><time>2026-04-06T15:12:49.378Z</time></trkpt><trkpt lat="45.419475" lon="11.2582085"><ele>113.66666666666667</ele><time>2026-04-06T15:12:51.374Z</time></trkpt><trkpt lat="45.4194112" lon="11.2582764"><ele>113.33333333333334</ele><time>2026-04-06T15:12:53.381Z</time></trkpt><trkpt lat="45.4193615" lon="11.2583368"><ele>113.0</ele><time>2026-04-06T15:12:58.399Z</time></trkpt><trkpt lat="45.4192997" lon="11.2583604"><ele>112.66666666666667</ele><time>2026-04-06T15:13:04.419Z</time></trkpt><trkpt lat="45.4192463" lon="11.2584385"><ele>112.33333333333334</ele><time>2026-04-06T15:13:11.396Z</time></trkpt><trkpt lat="45.4191585" lon="11.2584528"><ele>112.0</ele><time>2026-04-06T15:13:14.4Z</time></trkpt><trkpt lat="45.4190666" lon="11.2584463"><ele>112.0</ele><time>2026-04-06T15:13:17.407Z</time></trkpt><trkpt lat="45.4190293" lon="11.2583543"><ele>112.0</ele><time>2026-04-06T15:13:22.422Z</time></trkpt><trkpt lat="45.4190474" lon="11.2582547"><ele>112.0</ele><time>2026-04-06T15:13:25.419Z</time></trkpt><trkpt lat="45.4190448" lon="11.2581522"><ele>112.0</ele><time>2026-04-06T15:13:27.368Z</time></trkpt><trkpt lat="45.4190468" lon="11.2580214"><ele>112.0</ele><time>2026-04-06T15:13:29.408Z</time></trkpt><trkpt lat="45.4190287" lon="11.2579279"><ele>112.0</ele><time>2026-04-06T15:13:31.424Z</time></trkpt><trkpt lat="45.4190413" lon="11.2578308"><ele>112.0</ele><time>2026-04-06T15:13:35.416Z</time></trkpt><trkpt lat="45.4191037" lon="11.2577998"><ele>109.8</ele><time>2026-04-06T15:13:38.417Z</time></trkpt><trkpt lat="45.4191715" lon="11.2576752"><ele>107.6</ele><time>2026-04-06T15:13:39.416Z</time></trkpt><trkpt lat="45.4192711" lon="11.2575021"><ele>105.39999999999999</ele><time>2026-04-06T15:13:42.419Z</time></trkpt><trkpt lat="45.4193479" lon="11.2574395"><ele>103.19999999999999</ele><time>2026-04-06T15:13:44.384Z</time></trkpt><trkpt lat="45.419425" lon="11.2573709"><ele>101.0</ele><time>2026-04-06T15:13:46.391Z</time></trkpt><trkpt lat="45.4194937" lon="11.257322"><ele>101.33333333333333</ele><time>2026-04-06T15:13:47.396Z</time></trkpt><trkpt lat="45.4195439" lon="11.257196"><ele>101.66666666666666</ele><time>2026-04-06T15:13:50.404Z</time></trkpt><trkpt lat="45.4196174" lon="11.257099"><ele>102.0</ele><time>2026-04-06T15:13:52.414Z</time></trkpt><trkpt lat="45.4196782" lon="11.2570426"><ele>102.33333333333334</ele><time>2026-04-06T15:13:54.37Z</time></trkpt><trkpt lat="45.4197234" lon="11.2569771"><ele>102.66666666666667</ele><time>2026-04-06T15:13:56.407Z</time></trkpt><trkpt lat="45.4197927" lon="11.2569317"><ele>103.0</ele><time>2026-04-06T15:13:59.405Z</time></trkpt><trkpt lat="45.4198482" lon="11.2568399"><ele>102.99999999999999</ele><time>2026-04-06T15:14:03.399Z</time></trkpt><trkpt lat="45.4199097" lon="11.2567788"><ele>103.0</ele><time>2026-04-06T15:14:07.419Z</time></trkpt><trkpt lat="45.4199555" lon="11.2566968"><ele>103.0</ele><time>2026-04-06T15:14:10.402Z</time></trkpt><trkpt lat="45.4199986" lon="11.2566198"><ele>103.0</ele><time>2026-04-06T15:14:12.412Z</time></trkpt><trkpt lat="45.4200415" lon="11.2565333"><ele>103.0</ele><time>2026-04-06T15:14:14.403Z</time></trkpt><trkpt lat="45.420087" lon="11.2564558"><ele>102.99999999999999</ele><time>2026-04-06T15:14:16.418Z</time></trkpt><trkpt lat="45.4200617" lon="11.2563478"><ele>103.0</ele><time>2026-04-06T15:14:20.416Z</time></trkpt><trkpt lat="45.4200718" lon="11.2562519"><ele>102.16666666666667</ele><time>2026-04-06T15:14:22.374Z</time></trkpt><trkpt lat="45.4200029" lon="11.2561657"><ele>101.33333333333334</ele><time>2026-04-06T15:14:25.401Z</time></trkpt><trkpt lat="45.4199396" lon="11.2561235"><ele>100.5</ele><time>2026-04-06T15:14:27.366Z</time></trkpt><trkpt lat="45.4198707" lon="11.2560514"><ele>99.66666666666666</ele><time>2026-04-06T15:14:31.409Z</time></trkpt><trkpt lat="45.4198104" lon="11.2559821"><ele>98.83333333333333</ele><time>2026-04-06T15:14:36.408Z</time></trkpt><trkpt lat="45.4197632" lon="11.2559088"><ele>98.0</ele><time>2026-04-06T15:14:40.417Z</time></trkpt><trkpt lat="45.419711" lon="11.255841"><ele>97.99999999999999</ele><time>2026-04-06T15:15:05.421Z</time></trkpt><trkpt lat="45.4197281" lon="11.2557542"><ele>98.0</ele><time>2026-04-06T15:15:10.388Z</time></trkpt><trkpt lat="45.4197235" lon="11.2556414"><ele>98.0</ele><time>2026-04-06T15:15:16.407Z</time></trkpt><trkpt lat="45.4197" lon="11.2555335"><ele>98.0</ele><time>2026-04-06T15:15:19.411Z</time></trkpt><trkpt lat="45.4196594" lon="11.2554312"><ele>97.99999999999999</ele><time>2026-04-06T15:15:23.403Z</time></trkpt><trkpt lat="45.4196286" lon="11.2553076"><ele>98.0</ele><time>2026-04-06T15:15:26.414Z</time></trkpt><trkpt lat="45.4196416" lon="11.25518"><ele>96.83333333333333</ele><time>2026-04-06T15:15:30.364Z</time></trkpt><trkpt lat="45.4196375" lon="11.2550734"><ele>95.66666666666666</ele><time>2026-04-06T15:15:33.404Z</time></trkpt><trkpt lat="45.4196273" lon="11.2549596"><ele>94.5</ele><time>2026-04-06T15:15:36.41Z</time></trkpt><trkpt lat="45.4196411" lon="11.2548506"><ele>93.33333333333333</ele><time>2026-04-06T15:15:39.412Z</time></trkpt><trkpt lat="45.4196474" lon="11.2547447"><ele>92.16666666666666</ele><time>2026-04-06T15:15:42.418Z</time></trkpt><trkpt lat="45.4196646" lon="11.2546459"><ele>91.0</ele><time>2026-04-06T15:15:46.422Z</time></trkpt><trkpt lat="45.419675" lon="11.2545226"><ele>91.0</ele><time>2026-04-06T15:15:50.361Z</time></trkpt><trkpt lat="45.4197104" lon="11.2544174"><ele>91.0</ele><time>2026-04-06T15:15:53.365Z</time></trkpt><trkpt lat="45.4197578" lon="11.2543456"><ele>91.0</ele><time>2026-04-06T15:15:57.368Z</time></trkpt><trkpt lat="45.4198261" lon="11.2542904"><ele>91.0</ele><time>2026-04-06T15:16:00.387Z</time></trkpt><trkpt lat="45.41989" lon="11.2542411"><ele>91.0</ele><time>2026-04-06T15:16:03.415Z</time></trkpt><trkpt lat="45.4199514" lon="11.2541645"><ele>91.0</ele><time>2026-04-06T15:16:07.438Z</time></trkpt><trkpt lat="45.4200157" lon="11.2541155"><ele>91.0</ele><time>2026-04-06T15:16:11.419Z</time></trkpt><trkpt lat="45.420075" lon="11.2540169"><ele>91.0</ele><time>2026-04-06T15:16:15.412Z</time></trkpt><trkpt lat="45.4201592" lon="11.2539632"><ele>91.0</ele><time>2026-04-06T15:16:18.43Z</time></trkpt><trkpt lat="45.4202309" lon="11.2539283"><ele>91.0</ele><time>2026-04-06T15:16:20.372Z</time></trkpt><trkpt lat="45.4203055" lon="11.2538507"><ele>91.0</ele><time>2026-04-06T15:16:22.373Z</time></trkpt><trkpt lat="45.4204052" lon="11.2537952"><ele>90.16666666666666</ele><time>2026-04-06T15:16:24.369Z</time></trkpt><trkpt lat="45.4204655" lon="11.2537445"><ele>89.33333333333333</ele><time>2026-04-06T15:16:25.414Z</time></trkpt><trkpt lat="45.4205209" lon="11.2536794"><ele>88.5</ele><time>2026-04-06T15:16:26.421Z</time></trkpt><trkpt lat="45.4205729" lon="11.2536183"><ele>87.66666666666667</ele><time>2026-04-06T15:16:27.442Z</time></trkpt><trkpt lat="45.4206914" lon="11.2535042"><ele>86.83333333333334</ele><time>2026-04-06T15:16:29.428Z</time></trkpt><trkpt lat="45.4207301" lon="11.2534329"><ele>86.0</ele><time>2026-04-06T15:16:30.42Z</time></trkpt><trkpt lat="45.4208121" lon="11.2533333"><ele>86.00000000000001</ele><time>2026-04-06T15:16:32.386Z</time></trkpt><trkpt lat="45.4208469" lon="11.2532471"><ele>86.0</ele><time>2026-04-06T15:16:35.369Z</time></trkpt><trkpt lat="45.4209091" lon="11.2531936"><ele>86.0</ele><time>2026-04-06T15:16:38.389Z</time></trkpt><trkpt lat="45.4209673" lon="11.2531283"><ele>86.0</ele><time>2026-04-06T15:16:41.377Z</time></trkpt><trkpt lat="45.4210101" lon="11.2530342"><ele>86.0</ele><time>2026-04-06T15:16:44.363Z</time></trkpt><trkpt lat="45.4210799" lon="11.2530199"><ele>86.00000000000001</ele><time>2026-04-06T15:16:46.363Z</time></trkpt><trkpt lat="45.4211392" lon="11.2529751"><ele>86.0</ele><time>2026-04-06T15:16:49.392Z</time></trkpt><trkpt lat="45.4211856" lon="11.2528629"><ele>85.42857142857143</ele><time>2026-04-06T15:16:52.366Z</time></trkpt><trkpt lat="45.4212072" lon="11.2527775"><ele>84.85714285714286</ele><time>2026-04-06T15:16:54.369Z</time></trkpt><trkpt lat="45.4211999" lon="11.2526876"><ele>84.28571428571428</ele><time>2026-04-06T15:16:58.402Z</time></trkpt><trkpt lat="45.4212049" lon="11.2525782"><ele>83.71428571428572</ele><time>2026-04-06T15:17:01.363Z</time></trkpt><trkpt lat="45.4212337" lon="11.2524967"><ele>83.14285714285714</ele><time>2026-04-06T15:17:04.402Z</time></trkpt><trkpt lat="45.421271" lon="11.2523905"><ele>82.57142857142857</ele><time>2026-04-06T15:17:07.392Z</time></trkpt><trkpt lat="45.4213255" lon="11.2523172"><ele>82.0</ele><time>2026-04-06T15:17:09.37Z</time></trkpt><trkpt lat="45.4213609" lon="11.2521955"><ele>78.39999999999999</ele><time>2026-04-06T15:17:12.367Z</time></trkpt><trkpt lat="45.4214217" lon="11.252096"><ele>74.8</ele><time>2026-04-06T15:17:13.421Z</time></trkpt><trkpt lat="45.4213597" lon="11.252021"><ele>71.2</ele><time>2026-04-06T15:17:14.387Z</time></trkpt><trkpt lat="45.421468" lon="11.2518498"><ele>67.6</ele><time>2026-04-06T15:17:18.372Z</time></trkpt><trkpt lat="45.4214802" lon="11.2517003"><ele>64.0</ele><time>2026-04-06T15:17:20.365Z</time></trkpt><trkpt lat="45.4214911" lon="11.2515717"><ele>63.99999999999999</ele><time>2026-04-06T15:17:21.367Z</time></trkpt><trkpt lat="45.4215896" lon="11.2515105"><ele>64.0</ele><time>2026-04-06T15:17:23.415Z</time></trkpt><trkpt lat="45.421629" lon="11.2514123"><ele>64.0</ele><time>2026-04-06T15:17:25.361Z</time></trkpt><trkpt lat="45.4216705" lon="11.2513167"><ele>64.0</ele><time>2026-04-06T15:17:28.366Z</time></trkpt><trkpt lat="45.4216812" lon="11.2512128"><ele>63.99999999999999</ele><time>2026-04-06T15:17:31.417Z</time></trkpt><trkpt lat="45.4216683" lon="11.2511239"><ele>64.0</ele><time>2026-04-06T15:17:34.362Z</time></trkpt><trkpt lat="45.4215973" lon="11.2510941"><ele>62.33333333333333</ele><time>2026-04-06T15:17:36.359Z</time></trkpt><trkpt lat="45.4215019" lon="11.251051"><ele>60.666666666666664</ele><time>2026-04-06T15:17:38.408Z</time></trkpt><trkpt lat="45.4214339" lon="11.250995"><ele>59.0</ele><time>2026-04-06T15:17:40.378Z</time></trkpt><trkpt lat="45.4213729" lon="11.2509428"><ele>57.33333333333333</ele><time>2026-04-06T15:17:42.362Z</time></trkpt><trkpt lat="45.4213076" lon="11.2508983"><ele>55.666666666666664</ele><time>2026-04-06T15:17:44.411Z</time></trkpt><trkpt lat="45.4212652" lon="11.2508246"><ele>54.0</ele><time>2026-04-06T15:17:46.417Z</time></trkpt><trkpt lat="45.42118" lon="11.2508274"><ele>51.166666666666664</ele><time>2026-04-06T15:17:48.371Z</time></trkpt><trkpt lat="45.4210996" lon="11.2507985"><ele>48.333333333333336</ele><time>2026-04-06T15:17:51.372Z</time></trkpt><trkpt lat="45.4210071" lon="11.2506998"><ele>45.5</ele><time>2026-04-06T15:17:53.424Z</time></trkpt><trkpt lat="45.4209372" lon="11.2507259"><ele>42.66666666666667</ele><time>2026-04-06T15:17:56.373Z</time></trkpt><trkpt lat="45.4208727" lon="11.2507559"><ele>39.833333333333336</ele><time>2026-04-06T15:17:59.369Z</time></trkpt><trkpt lat="45.4208188" lon="11.250657"><ele>37.0</ele><time>2026-04-06T15:18:05.372Z</time></trkpt><trkpt lat="45.4207435" lon="11.250636"><ele>36.66666666666667</ele><time>2026-04-06T15:18:07.379Z</time></trkpt><trkpt lat="45.4206705" lon="11.250598"><ele>36.333333333333336</ele><time>2026-04-06T15:18:09.415Z</time></trkpt><trkpt lat="45.420607" lon="11.2505334"><ele>36.0</ele><time>2026-04-06T15:18:11.426Z</time></trkpt><trkpt lat="45.4205666" lon="11.2504405"><ele>35.666666666666664</ele><time>2026-04-06T15:18:13.422Z</time></trkpt><trkpt lat="45.4205395" lon="11.2503443"><ele>35.33333333333333</ele><time>2026-04-06T15:18:15.419Z</time></trkpt><trkpt lat="45.4205406" lon="11.2502387"><ele>35.0</ele><time>2026-04-06T15:18:17.371Z</time></trkpt><trkpt lat="45.4205747" lon="11.2501481"><ele>35.0</ele><time>2026-04-06T15:18:19.409Z</time></trkpt><trkpt lat="45.4206235" lon="11.2500886"><ele>35.0</ele><time>2026-04-06T15:18:23.375Z</time></trkpt><trkpt lat="45.4205721" lon="11.2500024"><ele>35.0</ele><time>2026-04-06T15:18:27.368Z</time></trkpt><trkpt lat="45.4206042" lon="11.2496903"><ele>35.0</ele><time>2026-04-06T15:18:29.439Z</time></trkpt><trkpt lat="45.4205618" lon="11.2495779"><ele>34.8</ele><time>2026-04-06T15:18:33.375Z</time></trkpt><trkpt lat="45.4205811" lon="11.2494513"><ele>34.6</ele><time>2026-04-06T15:18:38.379Z</time></trkpt><trkpt lat="45.420625" lon="11.2493676"><ele>34.4</ele><time>2026-04-06T15:18:40.382Z</time></trkpt><trkpt lat="45.4206336" lon="11.2492636"><ele>34.2</ele><time>2026-04-06T15:18:45.371Z</time></trkpt><trkpt lat="45.4206434" lon="11.249154"><ele>34.0</ele><time>2026-04-06T15:18:49.384Z</time></trkpt><trkpt lat="45.4205878" lon="11.2489543"><ele>34.0</ele><time>2026-04-06T15:18:53.365Z</time></trkpt><trkpt lat="45.4205926" lon="11.2488412"><ele>34.0</ele><time>2026-04-06T15:18:55.369Z</time></trkpt><trkpt lat="45.4205928" lon="11.2487485"><ele>34.0</ele><time>2026-04-06T15:18:57.39Z</time></trkpt><trkpt lat="45.4206095" lon="11.2486535"><ele>34.0</ele><time>2026-04-06T15:19:00.378Z</time></trkpt><trkpt lat="45.4206168" lon="11.2485512"><ele>34.0</ele><time>2026-04-06T15:19:06.402Z</time></trkpt><trkpt lat="45.420655" lon="11.2484597"><ele>34.0</ele><time>2026-04-06T15:19:09.375Z</time></trkpt><trkpt lat="45.4207613" lon="11.248251"><ele>33.99999999999999</ele><time>2026-04-06T15:19:10.381Z</time></trkpt><trkpt lat="45.4206863" lon="11.2482076"><ele>34.0</ele><time>2026-04-06T15:19:15.368Z</time></trkpt><trkpt lat="45.4206169" lon="11.2481684"><ele>34.0</ele><time>2026-04-06T15:19:23.399Z</time></trkpt><trkpt lat="45.4205537" lon="11.2481742"><ele>34.0</ele><time>2026-04-06T15:19:29.367Z</time></trkpt><trkpt lat="45.4204814" lon="11.2481804"><ele>34.0</ele><time>2026-04-06T15:19:34.407Z</time></trkpt><trkpt lat="45.4204188" lon="11.2481504"><ele>33.99999999999999</ele><time>2026-04-06T15:19:37.368Z</time></trkpt><trkpt lat="45.4203597" lon="11.2480979"><ele>34.0</ele><time>2026-04-06T15:19:41.46Z</time></trkpt><trkpt lat="45.4202949" lon="11.2480672"><ele>33.66666666666667</ele><time>2026-04-06T15:19:47.366Z</time></trkpt><trkpt lat="45.4202247" lon="11.2481204"><ele>33.333333333333336</ele><time>2026-04-06T15:19:50.406Z</time></trkpt><trkpt lat="45.420177" lon="11.2480491"><ele>33.0</ele><time>2026-04-06T15:19:54.375Z</time></trkpt><trkpt lat="45.4201666" lon="11.2479338"><ele>32.666666666666664</ele><time>2026-04-06T15:19:57.374Z</time></trkpt><trkpt lat="45.4201812" lon="11.247816"><ele>32.33333333333333</ele><time>2026-04-06T15:20:00.413Z</time></trkpt><trkpt lat="45.4201955" lon="11.2477191"><ele>32.0</ele><time>2026-04-06T15:20:03.419Z</time></trkpt><trkpt lat="45.4201992" lon="11.2476121"><ele>32.0</ele><time>2026-04-06T15:20:07.417Z</time></trkpt><trkpt lat="45.4202062" lon="11.2474958"><ele>32.0</ele><time>2026-04-06T15:20:10.399Z</time></trkpt><trkpt lat="45.420241" lon="11.2473858"><ele>32.0</ele><time>2026-04-06T15:20:12.423Z</time></trkpt><trkpt lat="45.4203107" lon="11.2473668"><ele>32.0</ele><time>2026-04-06T15:20:13.413Z</time></trkpt><trkpt lat="45.4204823" lon="11.2473413"><ele>32.0</ele><time>2026-04-06T15:20:19.363Z</time></trkpt><trkpt lat="45.4205816" lon="11.2472736"><ele>31.999999999999996</ele><time>2026-04-06T15:20:24.388Z</time></trkpt><trkpt lat="45.4206598" lon="11.2472024"><ele>32.0</ele><time>2026-04-06T15:20:26.362Z</time></trkpt><trkpt lat="45.4207607" lon="11.2471411"><ele>32.0</ele><time>2026-04-06T15:20:28.369Z</time></trkpt><trkpt lat="45.4208475" lon="11.2471556"><ele>32.0</ele><time>2026-04-06T15:20:30.412Z</time></trkpt><trkpt lat="45.4209241" lon="11.2471921"><ele>31.999999999999996</ele><time>2026-04-06T15:20:32.416Z</time></trkpt><trkpt lat="45.4209835" lon="11.24725"><ele>32.0</ele><time>2026-04-06T15:20:34.369Z</time></trkpt><trkpt lat="45.4210499" lon="11.247298"><ele>31.999999999999996</ele><time>2026-04-06T15:20:36.371Z</time></trkpt><trkpt lat="45.4211255" lon="11.2473263"><ele>32.0</ele><time>2026-04-06T15:20:39.411Z</time></trkpt><trkpt lat="45.4211937" lon="11.2472789"><ele>32.0</ele><time>2026-04-06T15:20:42.376Z</time></trkpt><trkpt lat="45.4212551" lon="11.2472185"><ele>32.0</ele><time>2026-04-06T15:20:44.373Z</time></trkpt><trkpt lat="45.4213319" lon="11.2471746"><ele>31.999999999999996</ele><time>2026-04-06T15:20:46.379Z</time></trkpt><trkpt lat="45.4214368" lon="11.2471356"><ele>32.0</ele><time>2026-04-06T15:20:48.39Z</time></trkpt><trkpt lat="45.4215379" lon="11.2471208"><ele>31.75</ele><time>2026-04-06T15:20:50.366Z</time></trkpt><trkpt lat="45.421624" lon="11.2471548"><ele>31.5</ele><time>2026-04-06T15:20:52.396Z</time></trkpt><trkpt lat="45.4217073" lon="11.2471985"><ele>31.25</ele><time>2026-04-06T15:20:54.404Z</time></trkpt><trkpt lat="45.4217791" lon="11.2472513"><ele>31.0</ele><time>2026-04-06T15:20:56.395Z</time></trkpt><trkpt lat="45.4219829" lon="11.2471215"><ele>31.0</ele><time>2026-04-06T15:20:58.361Z</time></trkpt><trkpt lat="45.4221382" lon="11.247103"><ele>31.0</ele><time>2026-04-06T15:21:00.365Z</time></trkpt><trkpt lat="45.4223584" lon="11.2471023"><ele>31.0</ele><time>2026-04-06T15:21:11.405Z</time></trkpt><trkpt lat="45.4224552" lon="11.2471156"><ele>31.0</ele><time>2026-04-06T15:21:13.415Z</time></trkpt><trkpt lat="45.4225237" lon="11.2471442"><ele>31.0</ele><time>2026-04-06T15:21:15.405Z</time></trkpt><trkpt lat="45.4226001" lon="11.2471511"><ele>31.0</ele><time>2026-04-06T15:21:19.394Z</time></trkpt><trkpt lat="45.4226622" lon="11.2471311"><ele>31.0</ele><time>2026-04-06T15:21:22.409Z</time></trkpt><trkpt lat="45.4228665" lon="11.2470699"><ele>31.0</ele><time>2026-04-06T15:21:24.404Z</time></trkpt><trkpt lat="45.4229843" lon="11.2470421"><ele>31.0</ele><time>2026-04-06T15:21:26.366Z</time></trkpt><trkpt lat="45.4231758" lon="11.2470388"><ele>31.0</ele><time>2026-04-06T15:21:34.373Z</time></trkpt><trkpt lat="45.423242" lon="11.2470614"><ele>31.0</ele><time>2026-04-06T15:21:37.368Z</time></trkpt><trkpt lat="45.423366" lon="11.2470779"><ele>31.0</ele><time>2026-04-06T15:21:41.412Z</time></trkpt><trkpt lat="45.4235358" lon="11.2470005"><ele>31.0</ele><time>2026-04-06T15:21:42.429Z</time></trkpt><trkpt lat="45.4236" lon="11.2469187"><ele>31.0</ele><time>2026-04-06T15:21:46.416Z</time></trkpt><trkpt lat="45.4236937" lon="11.2468934"><ele>31.0</ele><time>2026-04-06T15:21:48.403Z</time></trkpt><trkpt lat="45.4238056" lon="11.2468825"><ele>31.0</ele><time>2026-04-06T15:21:50.419Z</time></trkpt><trkpt lat="45.4239174" lon="11.2468742"><ele>31.0</ele><time>2026-04-06T15:21:52.412Z</time></trkpt><trkpt lat="45.4239807" lon="11.2469327"><ele>31.5</ele><time>2026-04-06T15:21:54.427Z</time></trkpt><trkpt lat="45.424064" lon="11.2469487"><ele>32.0</ele><time>2026-04-06T15:21:58.413Z</time></trkpt><trkpt lat="45.4241403" lon="11.2469614"><ele>32.5</ele><time>2026-04-06T15:22:01.439Z</time></trkpt><trkpt lat="45.4244256" lon="11.2469135"><ele>33.0</ele><time>2026-04-06T15:22:05.373Z</time></trkpt><trkpt lat="45.4243732" lon="11.2468273"><ele>33.0</ele><time>2026-04-06T15:22:09.436Z</time></trkpt><trkpt lat="45.4243751" lon="11.2467222"><ele>33.0</ele><time>2026-04-06T15:22:11.425Z</time></trkpt><trkpt lat="45.4243966" lon="11.2465968"><ele>33.0</ele><time>2026-04-06T15:22:13.407Z</time></trkpt><trkpt lat="45.4244101" lon="11.2465048"><ele>33.0</ele><time>2026-04-06T15:22:15.437Z</time></trkpt><trkpt lat="45.4244389" lon="11.2463983"><ele>33.0</ele><time>2026-04-06T15:22:18.386Z</time></trkpt><trkpt lat="45.4244678" lon="11.2460425"><ele>32.6</ele><time>2026-04-06T15:22:21.394Z</time></trkpt><trkpt lat="45.4245381" lon="11.2459287"><ele>32.199999999999996</ele><time>2026-04-06T15:22:23.374Z</time></trkpt><trkpt lat="45.4246096" lon="11.2458425"><ele>31.8</ele><time>2026-04-06T15:22:25.419Z</time></trkpt><trkpt lat="45.4246802" lon="11.245784"><ele>31.4</ele><time>2026-04-06T15:22:27.4Z</time></trkpt><trkpt lat="45.4247962" lon="11.2457324"><ele>31.0</ele><time>2026-04-06T15:22:30.411Z</time></trkpt><trkpt lat="45.4248806" lon="11.2457022"><ele>31.000000000000004</ele><time>2026-04-06T15:22:32.41Z</time></trkpt><trkpt lat="45.4249629" lon="11.2456761"><ele>31.0</ele><time>2026-04-06T15:22:34.408Z</time></trkpt><trkpt lat="45.425045" lon="11.2456445"><ele>31.0</ele><time>2026-04-06T15:22:36.416Z</time></trkpt><trkpt lat="45.4251252" lon="11.2456145"><ele>31.0</ele><time>2026-04-06T15:22:38.447Z</time></trkpt><trkpt lat="45.4252108" lon="11.2455811"><ele>31.000000000000004</ele><time>2026-04-06T15:22:40.406Z</time></trkpt><trkpt lat="45.4252991" lon="11.2455427"><ele>31.0</ele><time>2026-04-06T15:22:42.415Z</time></trkpt><trkpt lat="45.4253863" lon="11.2454987"><ele>30.8</ele><time>2026-04-06T15:22:44.458Z</time></trkpt><trkpt lat="45.4254771" lon="11.245463"><ele>30.6</ele><time>2026-04-06T15:22:46.408Z</time></trkpt><trkpt lat="45.4255819" lon="11.2454417"><ele>30.4</ele><time>2026-04-06T15:22:48.369Z</time></trkpt><trkpt lat="45.4256581" lon="11.2454249"><ele>30.2</ele><time>2026-04-06T15:22:50.377Z</time></trkpt><trkpt lat="45.4257579" lon="11.24539"><ele>30.0</ele><time>2026-04-06T15:22:52.373Z</time></trkpt><trkpt lat="45.4258582" lon="11.2453386"><ele>30.0</ele><time>2026-04-06T15:22:54.372Z</time></trkpt><trkpt lat="45.4259423" lon="11.2452993"><ele>30.0</ele><time>2026-04-06T15:22:56.376Z</time></trkpt><trkpt lat="45.4260268" lon="11.2452783"><ele>30.0</ele><time>2026-04-06T15:22:58.37Z</time></trkpt><trkpt lat="45.4261032" lon="11.2452615"><ele>30.0</ele><time>2026-04-06T15:23:00.376Z</time></trkpt><trkpt lat="45.4261904" lon="11.2452187"><ele>30.0</ele><time>2026-04-06T15:23:02.381Z</time></trkpt><trkpt lat="45.4262623" lon="11.2452064"><ele>30.0</ele><time>2026-04-06T15:23:03.377Z</time></trkpt><trkpt lat="45.4263555" lon="11.245182"><ele>30.166666666666668</ele><time>2026-04-06T15:23:05.375Z</time></trkpt><trkpt lat="45.4264118" lon="11.2451346"><ele>30.333333333333336</ele><time>2026-04-06T15:23:07.381Z</time></trkpt><trkpt lat="45.4264914" lon="11.2451044"><ele>30.5</ele><time>2026-04-06T15:23:09.366Z</time></trkpt><trkpt lat="45.4265847" lon="11.2450582"><ele>30.666666666666668</ele><time>2026-04-06T15:23:11.376Z</time></trkpt><trkpt lat="45.426693" lon="11.2450232"><ele>30.833333333333336</ele><time>2026-04-06T15:23:13.373Z</time></trkpt><trkpt lat="45.4267769" lon="11.2450006"><ele>31.0</ele><time>2026-04-06T15:23:15.369Z</time></trkpt><trkpt lat="45.4268626" lon="11.2449542"><ele>31.000000000000004</ele><time>2026-04-06T15:23:17.371Z</time></trkpt><trkpt lat="45.4269443" lon="11.2449102"><ele>31.0</ele><time>2026-04-06T15:23:19.373Z</time></trkpt><trkpt lat="45.4270237" lon="11.2448805"><ele>31.0</ele><time>2026-04-06T15:23:21.387Z</time></trkpt><trkpt lat="45.4270728" lon="11.244937"><ele>31.0</ele><time>2026-04-06T15:23:24.389Z</time></trkpt><trkpt lat="45.4270743" lon="11.2450879"><ele>31.000000000000004</ele><time>2026-04-06T15:23:26.396Z</time></trkpt><trkpt lat="45.4270746" lon="11.245228"><ele>31.0</ele><time>2026-04-06T15:23:28.4Z</time></trkpt><trkpt lat="45.4270788" lon="11.2453534"><ele>31.000000000000004</ele><time>2026-04-06T15:23:30.403Z</time></trkpt><trkpt lat="45.4270881" lon="11.2454631"><ele>31.0</ele><time>2026-04-06T15:23:32.433Z</time></trkpt><trkpt lat="45.4270959" lon="11.2455753"><ele>31.0</ele><time>2026-04-06T15:23:34.406Z</time></trkpt><trkpt lat="45.4270859" lon="11.2457016"><ele>31.0</ele><time>2026-04-06T15:23:37.367Z</time></trkpt><trkpt lat="45.4271192" lon="11.2457794"><ele>31.000000000000004</ele><time>2026-04-06T15:23:38.385Z</time></trkpt><trkpt lat="45.4271335" lon="11.2458987"><ele>31.0</ele><time>2026-04-06T15:23:41.363Z</time></trkpt><trkpt lat="45.4271928" lon="11.2460247"><ele>31.166666666666668</ele><time>2026-04-06T15:23:43.406Z</time></trkpt><trkpt lat="45.4271825" lon="11.2461521"><ele>31.333333333333336</ele><time>2026-04-06T15:23:45.369Z</time></trkpt><trkpt lat="45.4271843" lon="11.2462691"><ele>31.5</ele><time>2026-04-06T15:23:47.435Z</time></trkpt><trkpt lat="45.4271948" lon="11.2464067"><ele>31.666666666666664</ele><time>2026-04-06T15:23:50.421Z</time></trkpt><trkpt lat="45.4272109" lon="11.2465037"><ele>31.833333333333332</ele><time>2026-04-06T15:23:52.373Z</time></trkpt><trkpt lat="45.4272399" lon="11.2466269"><ele>32.0</ele><time>2026-04-06T15:23:54.411Z</time></trkpt><trkpt lat="45.4272645" lon="11.2467387"><ele>32.5</ele><time>2026-04-06T15:23:56.402Z</time></trkpt><trkpt lat="45.4272801" lon="11.2468277"><ele>33.0</ele><time>2026-04-06T15:23:58.415Z</time></trkpt><trkpt lat="45.4272975" lon="11.2469214"><ele>33.5</ele><time>2026-04-06T15:24:00.408Z</time></trkpt><trkpt lat="45.4273197" lon="11.2470131"><ele>34.0</ele><time>2026-04-06T15:24:02.422Z</time></trkpt><trkpt lat="45.4273523" lon="11.2471534"><ele>34.5</ele><time>2026-04-06T15:24:05.406Z</time></trkpt><trkpt lat="45.4273855" lon="11.2472811"><ele>35.0</ele><time>2026-04-06T15:24:08.426Z</time></trkpt><trkpt lat="45.4274065" lon="11.2474011"><ele>35.33333333333333</ele><time>2026-04-06T15:24:11.408Z</time></trkpt><trkpt lat="45.4274277" lon="11.247514"><ele>35.666666666666664</ele><time>2026-04-06T15:24:14.412Z</time></trkpt><trkpt lat="45.4274513" lon="11.2476205"><ele>36.0</ele><time>2026-04-06T15:24:17.377Z</time></trkpt><trkpt lat="45.4274874" lon="11.2477303"><ele>36.333333333333336</ele><time>2026-04-06T15:24:20.404Z</time></trkpt><trkpt lat="45.4275154" lon="11.247857"><ele>36.66666666666667</ele><time>2026-04-06T15:24:23.406Z</time></trkpt><trkpt lat="45.4275302" lon="11.2479519"><ele>37.0</ele><time>2026-04-06T15:24:25.412Z</time></trkpt><trkpt lat="45.4275536" lon="11.2480616"><ele>37.66666666666667</ele><time>2026-04-06T15:24:28.363Z</time></trkpt><trkpt lat="45.4275913" lon="11.2481716"><ele>38.333333333333336</ele><time>2026-04-06T15:24:31.413Z</time></trkpt><trkpt lat="45.4276213" lon="11.2482815"><ele>39.0</ele><time>2026-04-06T15:24:34.382Z</time></trkpt><trkpt lat="45.4276593" lon="11.2483775"><ele>39.666666666666664</ele><time>2026-04-06T15:24:37.423Z</time></trkpt><trkpt lat="45.4277088" lon="11.2484629"><ele>40.33333333333333</ele><time>2026-04-06T15:24:40.426Z</time></trkpt><trkpt lat="45.4277632" lon="11.2485225"><ele>41.0</ele><time>2026-04-06T15:24:43.39Z</time></trkpt><trkpt lat="45.4277815" lon="11.2486092"><ele>40.99999999999999</ele><time>2026-04-06T15:24:49.371Z</time></trkpt><trkpt lat="45.4277567" lon="11.2487207"><ele>41.0</ele><time>2026-04-06T15:24:53.374Z</time></trkpt><trkpt lat="45.4277017" lon="11.248793"><ele>41.0</ele><time>2026-04-06T15:24:57.416Z</time></trkpt><trkpt lat="45.4276482" lon="11.2488531"><ele>41.0</ele><time>2026-04-06T15:25:00.4Z</time></trkpt><trkpt lat="45.4275858" lon="11.248918"><ele>41.0</ele><time>2026-04-06T15:25:03.398Z</time></trkpt><trkpt lat="45.4275456" lon="11.2489927"><ele>40.99999999999999</ele><time>2026-04-06T15:25:06.404Z</time></trkpt><trkpt lat="45.4275936" lon="11.2490565"><ele>41.0</ele><time>2026-04-06T15:25:11.414Z</time></trkpt><trkpt lat="45.4276619" lon="11.2490931"><ele>42.5</ele><time>2026-04-06T15:25:15.415Z</time></trkpt><trkpt lat="45.4277345" lon="11.2491396"><ele>44.0</ele><time>2026-04-06T15:25:19.377Z</time></trkpt><trkpt lat="45.427947" lon="11.2491485"><ele>45.5</ele><time>2026-04-06T15:25:27.37Z</time></trkpt><trkpt lat="45.4280323" lon="11.2491644"><ele>47.0</ele><time>2026-04-06T15:25:29.387Z</time></trkpt><trkpt lat="45.4281142" lon="11.2491567"><ele>47.0</ele><time>2026-04-06T15:25:31.414Z</time></trkpt><trkpt lat="45.4281901" lon="11.2491531"><ele>47.0</ele><time>2026-04-06T15:25:33.415Z</time></trkpt><trkpt lat="45.4283146" lon="11.2491276"><ele>47.0</ele><time>2026-04-06T15:25:36.414Z</time></trkpt><trkpt lat="45.4283968" lon="11.2491077"><ele>47.0</ele><time>2026-04-06T15:25:38.411Z</time></trkpt><trkpt lat="45.4285467" lon="11.2491121"><ele>47.0</ele><time>2026-04-06T15:25:43.433Z</time></trkpt><trkpt lat="45.4286099" lon="11.2491332"><ele>47.0</ele><time>2026-04-06T15:25:45.366Z</time></trkpt><trkpt lat="45.4286871" lon="11.2491678"><ele>47.0</ele><time>2026-04-06T15:25:48.421Z</time></trkpt><trkpt lat="45.428769" lon="11.2492461"><ele>47.0</ele><time>2026-04-06T15:25:51.425Z</time></trkpt><trkpt lat="45.4288475" lon="11.2493212"><ele>47.0</ele><time>2026-04-06T15:25:53.407Z</time></trkpt><trkpt lat="45.4289211" lon="11.2493932"><ele>47.0</ele><time>2026-04-06T15:25:55.42Z</time></trkpt><trkpt lat="45.4290131" lon="11.2494804"><ele>47.0</ele><time>2026-04-06T15:25:57.398Z</time></trkpt><trkpt lat="45.4290965" lon="11.2495688"><ele>47.0</ele><time>2026-04-06T15:25:59.387Z</time></trkpt><trkpt lat="45.4291595" lon="11.2496357"><ele>47.0</ele><time>2026-04-06T15:26:01.393Z</time></trkpt><trkpt lat="45.4292483" lon="11.2497334"><ele>47.0</ele><time>2026-04-06T15:26:03.377Z</time></trkpt><trkpt lat="45.429329" lon="11.2498159"><ele>47.0</ele><time>2026-04-06T15:26:05.415Z</time></trkpt><trkpt lat="45.429374" lon="11.2498904"><ele>47.0</ele><time>2026-04-06T15:26:07.397Z</time></trkpt><trkpt lat="45.4294176" lon="11.2499683"><ele>47.0</ele><time>2026-04-06T15:26:08.37Z</time></trkpt><trkpt lat="45.4294806" lon="11.2500244"><ele>47.0</ele><time>2026-04-06T15:26:10.4Z</time></trkpt><trkpt lat="45.4295379" lon="11.2500787"><ele>47.0</ele><time>2026-04-06T15:26:12.406Z</time></trkpt><trkpt lat="45.4295967" lon="11.2501498"><ele>47.0</ele><time>2026-04-06T15:26:14.41Z</time></trkpt><trkpt lat="45.4296651" lon="11.2502262"><ele>47.0</ele><time>2026-04-06T15:26:17.422Z</time></trkpt><trkpt lat="45.429726" lon="11.2502946"><ele>46.5</ele><time>2026-04-06T15:26:19.425Z</time></trkpt><trkpt lat="45.4297828" lon="11.2503665"><ele>46.0</ele><time>2026-04-06T15:26:21.422Z</time></trkpt><trkpt lat="45.4298434" lon="11.2504679"><ele>45.5</ele><time>2026-04-06T15:26:23.41Z</time></trkpt><trkpt lat="45.4298806" lon="11.2505451"><ele>45.0</ele><time>2026-04-06T15:26:25.405Z</time></trkpt><trkpt lat="45.4299165" lon="11.2506359"><ele>44.5</ele><time>2026-04-06T15:26:27.417Z</time></trkpt><trkpt lat="45.4299601" lon="11.2507467"><ele>44.0</ele><time>2026-04-06T15:26:29.414Z</time></trkpt><trkpt lat="45.4300136" lon="11.2508678"><ele>44.0</ele><time>2026-04-06T15:26:31.372Z</time></trkpt><trkpt lat="45.4300811" lon="11.2509801"><ele>44.0</ele><time>2026-04-06T15:26:33.417Z</time></trkpt><trkpt lat="45.4301612" lon="11.2510412"><ele>44.0</ele><time>2026-04-06T15:26:35.417Z</time></trkpt><trkpt lat="45.4302697" lon="11.251051"><ele>44.0</ele><time>2026-04-06T15:26:39.418Z</time></trkpt><trkpt lat="45.4304029" lon="11.2510598"><ele>44.0</ele><time>2026-04-06T15:26:43.422Z</time></trkpt><trkpt lat="45.4304864" lon="11.2510447"><ele>44.33333333333333</ele><time>2026-04-06T15:26:45.426Z</time></trkpt><trkpt lat="45.4305725" lon="11.2510263"><ele>44.666666666666664</ele><time>2026-04-06T15:26:47.381Z</time></trkpt><trkpt lat="45.4306765" lon="11.2510089"><ele>45.0</ele><time>2026-04-06T15:26:50.401Z</time></trkpt><trkpt lat="45.4307471" lon="11.2509985"><ele>45.333333333333336</ele><time>2026-04-06T15:26:52.373Z</time></trkpt><trkpt lat="45.4308122" lon="11.2509779"><ele>45.66666666666667</ele><time>2026-04-06T15:26:54.392Z</time></trkpt><trkpt lat="45.4308891" lon="11.2509701"><ele>46.0</ele><time>2026-04-06T15:26:56.391Z</time></trkpt><trkpt lat="45.4309569" lon="11.2509636"><ele>46.0</ele><time>2026-04-06T15:26:58.394Z</time></trkpt><trkpt lat="45.4310252" lon="11.2509433"><ele>46.0</ele><time>2026-04-06T15:27:01.391Z</time></trkpt><trkpt lat="45.4310862" lon="11.2509211"><ele>46.0</ele><time>2026-04-06T15:27:05.402Z</time></trkpt><trkpt lat="45.431136" lon="11.2508655"><ele>46.0</ele><time>2026-04-06T15:27:08.411Z</time></trkpt><trkpt lat="45.4311727" lon="11.2507869"><ele>46.0</ele><time>2026-04-06T15:27:11.383Z</time></trkpt><trkpt lat="45.4312243" lon="11.2506921"><ele>46.0</ele><time>2026-04-06T15:27:13.404Z</time></trkpt><trkpt lat="45.4312959" lon="11.2505667"><ele>45.599999999999994</ele><time>2026-04-06T15:27:15.404Z</time></trkpt><trkpt lat="45.4313537" lon="11.2504465"><ele>45.2</ele><time>2026-04-06T15:27:17.404Z</time></trkpt><trkpt lat="45.4314049" lon="11.2503399"><ele>44.8</ele><time>2026-04-06T15:27:19.413Z</time></trkpt><trkpt lat="45.4314409" lon="11.2502635"><ele>44.400000000000006</ele><time>2026-04-06T15:27:20.405Z</time></trkpt><trkpt lat="45.4315154" lon="11.2501373"><ele>44.0</ele><time>2026-04-06T15:27:22.415Z</time></trkpt><trkpt lat="45.4315718" lon="11.2500279"><ele>44.0</ele><time>2026-04-06T15:27:24.401Z</time></trkpt><trkpt lat="45.4316076" lon="11.2499506"><ele>44.0</ele><time>2026-04-06T15:27:25.409Z</time></trkpt><trkpt lat="45.4316777" lon="11.2498516"><ele>44.0</ele><time>2026-04-06T15:27:27.41Z</time></trkpt><trkpt lat="45.4317466" lon="11.2497607"><ele>44.0</ele><time>2026-04-06T15:27:29.412Z</time></trkpt><trkpt lat="45.4318194" lon="11.2496966"><ele>44.0</ele><time>2026-04-06T15:27:31.409Z</time></trkpt><trkpt lat="45.4319206" lon="11.2495917"><ele>43.33333333333333</ele><time>2026-04-06T15:27:33.409Z</time></trkpt><trkpt lat="45.4319914" lon="11.2495342"><ele>42.666666666666664</ele><time>2026-04-06T15:27:35.421Z</time></trkpt><trkpt lat="45.4320803" lon="11.2494833"><ele>42.0</ele><time>2026-04-06T15:27:37.422Z</time></trkpt><trkpt lat="45.4321869" lon="11.2494379"><ele>41.333333333333336</ele><time>2026-04-06T15:27:39.418Z</time></trkpt><trkpt lat="45.4322591" lon="11.2494277"><ele>40.66666666666667</ele><time>2026-04-06T15:27:41.367Z</time></trkpt><trkpt lat="45.4323366" lon="11.249412"><ele>40.0</ele><time>2026-04-06T15:27:43.433Z</time></trkpt><trkpt lat="45.4324145" lon="11.2493896"><ele>40.0</ele><time>2026-04-06T15:27:45.433Z</time></trkpt><trkpt lat="45.4325037" lon="11.2493752"><ele>40.0</ele><time>2026-04-06T15:27:47.372Z</time></trkpt><trkpt lat="45.4325839" lon="11.2493402"><ele>40.0</ele><time>2026-04-06T15:27:49.437Z</time></trkpt><trkpt lat="45.4326861" lon="11.249314"><ele>40.0</ele><time>2026-04-06T15:27:51.412Z</time></trkpt><trkpt lat="45.4327623" lon="11.2493096"><ele>40.0</ele><time>2026-04-06T15:27:53.398Z</time></trkpt><trkpt lat="45.4328462" lon="11.2493107"><ele>40.0</ele><time>2026-04-06T15:27:55.363Z</time></trkpt><trkpt lat="45.4329597" lon="11.249323"><ele>40.2</ele><time>2026-04-06T15:27:57.365Z</time></trkpt><trkpt lat="45.4331369" lon="11.2493162"><ele>40.4</ele><time>2026-04-06T15:28:00.412Z</time></trkpt><trkpt lat="45.4332092" lon="11.2493081"><ele>40.599999999999994</ele><time>2026-04-06T15:28:01.399Z</time></trkpt><trkpt lat="45.4333018" lon="11.2492922"><ele>40.8</ele><time>2026-04-06T15:28:04.368Z</time></trkpt><trkpt lat="45.4333803" lon="11.2492648"><ele>41.0</ele><time>2026-04-06T15:28:07.415Z</time></trkpt><trkpt lat="45.4334693" lon="11.2492583"><ele>41.0</ele><time>2026-04-06T15:28:09.417Z</time></trkpt><trkpt lat="45.4335521" lon="11.2492482"><ele>41.0</ele><time>2026-04-06T15:28:11.429Z</time></trkpt><trkpt lat="45.4336253" lon="11.2492488"><ele>41.0</ele><time>2026-04-06T15:28:13.435Z</time></trkpt><trkpt lat="45.4337047" lon="11.2492567"><ele>41.0</ele><time>2026-04-06T15:28:15.422Z</time></trkpt><trkpt lat="45.4337773" lon="11.2492588"><ele>41.0</ele><time>2026-04-06T15:28:17.423Z</time></trkpt><trkpt lat="45.4339298" lon="11.2492569"><ele>41.666666666666664</ele><time>2026-04-06T15:28:21.43Z</time></trkpt><trkpt lat="45.4340147" lon="11.2492338"><ele>42.33333333333333</ele><time>2026-04-06T15:28:24.409Z</time></trkpt><trkpt lat="45.4340905" lon="11.2492281"><ele>43.0</ele><time>2026-04-06T15:28:26.37Z</time></trkpt><trkpt lat="45.4341666" lon="11.2492146"><ele>43.666666666666664</ele><time>2026-04-06T15:28:28.388Z</time></trkpt><trkpt lat="45.4342442" lon="11.2491909"><ele>44.333333333333336</ele><time>2026-04-06T15:28:31.378Z</time></trkpt><trkpt lat="45.4343173" lon="11.249163"><ele>45.0</ele><time>2026-04-06T15:28:33.397Z</time></trkpt><trkpt lat="45.4343969" lon="11.2491434"><ele>45.0</ele><time>2026-04-06T15:28:35.388Z</time></trkpt><trkpt lat="45.4345023" lon="11.2491064"><ele>45.0</ele><time>2026-04-06T15:28:37.396Z</time></trkpt><trkpt lat="45.4345658" lon="11.2490631"><ele>45.0</ele><time>2026-04-06T15:28:38.397Z</time></trkpt><trkpt lat="45.4346914" lon="11.249006"><ele>45.0</ele><time>2026-04-06T15:28:40.403Z</time></trkpt><trkpt lat="45.4347942" lon="11.248991"><ele>45.0</ele><time>2026-04-06T15:28:42.401Z</time></trkpt><trkpt lat="45.4348979" lon="11.248959"><ele>44.2</ele><time>2026-04-06T15:28:44.402Z</time></trkpt><trkpt lat="45.4349863" lon="11.2489421"><ele>43.4</ele><time>2026-04-06T15:28:46.409Z</time></trkpt><trkpt lat="45.4350885" lon="11.2489184"><ele>42.599999999999994</ele><time>2026-04-06T15:28:47.409Z</time></trkpt><trkpt lat="45.4352047" lon="11.2488477"><ele>41.8</ele><time>2026-04-06T15:28:53.411Z</time></trkpt><trkpt lat="45.4352844" lon="11.2488335"><ele>41.0</ele><time>2026-04-06T15:28:55.425Z</time></trkpt><trkpt lat="45.4353521" lon="11.2488213"><ele>41.0</ele><time>2026-04-06T15:28:57.427Z</time></trkpt><trkpt lat="45.4354179" lon="11.248779"><ele>41.0</ele><time>2026-04-06T15:28:59.415Z</time></trkpt><trkpt lat="45.435481" lon="11.24873"><ele>41.0</ele><time>2026-04-06T15:29:01.394Z</time></trkpt><trkpt lat="45.4355511" lon="11.2486811"><ele>41.0</ele><time>2026-04-06T15:29:03.42Z</time></trkpt><trkpt lat="45.4356261" lon="11.2486428"><ele>41.0</ele><time>2026-04-06T15:29:05.411Z</time></trkpt><trkpt lat="45.4356966" lon="11.2486071"><ele>41.0</ele><time>2026-04-06T15:29:07.413Z</time></trkpt><trkpt lat="45.4357676" lon="11.248575"><ele>41.666666666666664</ele><time>2026-04-06T15:29:09.412Z</time></trkpt><trkpt lat="45.4358442" lon="11.2485484"><ele>42.33333333333333</ele><time>2026-04-06T15:29:11.419Z</time></trkpt><trkpt lat="45.4359105" lon="11.2485118"><ele>43.0</ele><time>2026-04-06T15:29:13.419Z</time></trkpt><trkpt lat="45.4359721" lon="11.2484869"><ele>43.666666666666664</ele><time>2026-04-06T15:29:15.428Z</time></trkpt><trkpt lat="45.4360666" lon="11.24844"><ele>44.333333333333336</ele><time>2026-04-06T15:29:18.428Z</time></trkpt><trkpt lat="45.4361387" lon="11.2484012"><ele>45.0</ele><time>2026-04-06T15:29:20.409Z</time></trkpt><trkpt lat="45.436203" lon="11.2483678"><ele>45.0</ele><time>2026-04-06T15:29:22.423Z</time></trkpt><trkpt lat="45.4362645" lon="11.2483391"><ele>45.0</ele><time>2026-04-06T15:29:24.415Z</time></trkpt><trkpt lat="45.4363301" lon="11.2483096"><ele>45.0</ele><time>2026-04-06T15:29:26.415Z</time></trkpt><trkpt lat="45.4363999" lon="11.2482872"><ele>45.0</ele><time>2026-04-06T15:29:28.436Z</time></trkpt><trkpt lat="45.4364614" lon="11.248253"><ele>45.0</ele><time>2026-04-06T15:29:30.382Z</time></trkpt><trkpt lat="45.4365363" lon="11.2482221"><ele>45.0</ele><time>2026-04-06T15:29:32.396Z</time></trkpt><trkpt lat="45.4366127" lon="11.2482025"><ele>45.0</ele><time>2026-04-06T15:29:34.386Z</time></trkpt><trkpt lat="45.4366845" lon="11.2481791"><ele>45.0</ele><time>2026-04-06T15:29:36.391Z</time></trkpt><trkpt lat="45.4367567" lon="11.2481541"><ele>45.0</ele><time>2026-04-06T15:29:38.4Z</time></trkpt><trkpt lat="45.4368272" lon="11.2481342"><ele>45.0</ele><time>2026-04-06T15:29:40.379Z</time></trkpt><trkpt lat="45.4368986" lon="11.2481077"><ele>45.0</ele><time>2026-04-06T15:29:42.377Z</time></trkpt><trkpt lat="45.4369662" lon="11.2480788"><ele>45.0</ele><time>2026-04-06T15:29:44.393Z</time></trkpt><trkpt lat="45.4370556" lon="11.248033"><ele>45.0</ele><time>2026-04-06T15:29:47.402Z</time></trkpt><trkpt lat="45.4371245" lon="11.2480157"><ele>45.666666666666664</ele><time>2026-04-06T15:29:49.399Z</time></trkpt><trkpt lat="45.4371932" lon="11.2479978"><ele>46.33333333333333</ele><time>2026-04-06T15:29:52.418Z</time></trkpt><trkpt lat="45.4372544" lon="11.2479617"><ele>47.0</ele><time>2026-04-06T15:29:59.366Z</time></trkpt><trkpt lat="45.4373381" lon="11.2478735"><ele>47.666666666666664</ele><time>2026-04-06T15:31:03.416Z</time></trkpt><trkpt lat="45.4374441" lon="11.2477851"><ele>48.33333333333333</ele><time>2026-04-06T15:31:06.425Z</time></trkpt><trkpt lat="45.4375162" lon="11.2477389"><ele>49.0</ele><time>2026-04-06T15:31:08.433Z</time></trkpt><trkpt lat="45.4375836" lon="11.2476908"><ele>49.0</ele><time>2026-04-06T15:31:10.435Z</time></trkpt><trkpt lat="45.4376587" lon="11.2476365"><ele>49.0</ele><time>2026-04-06T15:31:12.423Z</time></trkpt><trkpt lat="45.4377335" lon="11.2475894"><ele>49.0</ele><time>2026-04-06T15:31:14.418Z</time></trkpt><trkpt lat="45.4377945" lon="11.2475367"><ele>49.0</ele><time>2026-04-06T15:31:16.371Z</time></trkpt><trkpt lat="45.4378547" lon="11.2474822"><ele>49.0</ele><time>2026-04-06T15:31:18.426Z</time></trkpt><trkpt lat="45.4379093" lon="11.2474308"><ele>49.0</ele><time>2026-04-06T15:31:20.4Z</time></trkpt><trkpt lat="45.4379623" lon="11.2473788"><ele>49.0</ele><time>2026-04-06T15:31:22.369Z</time></trkpt><trkpt lat="45.4380269" lon="11.2472945"><ele>48.83333333333333</ele><time>2026-04-06T15:31:25.393Z</time></trkpt><trkpt lat="45.4380703" lon="11.2472256"><ele>48.666666666666664</ele><time>2026-04-06T15:31:27.401Z</time></trkpt><trkpt lat="45.4381431" lon="11.2471497"><ele>48.5</ele><time>2026-04-06T15:31:29.403Z</time></trkpt><trkpt lat="45.4382211" lon="11.2470756"><ele>48.33333333333333</ele><time>2026-04-06T15:31:31.402Z</time></trkpt><trkpt lat="45.4383077" lon="11.2469845"><ele>48.166666666666664</ele><time>2026-04-06T15:31:33.403Z</time></trkpt><trkpt lat="45.4383661" lon="11.2469448"><ele>48.0</ele><time>2026-04-06T15:31:34.404Z</time></trkpt><trkpt lat="45.4384356" lon="11.2468868"><ele>48.0</ele><time>2026-04-06T15:31:36.403Z</time></trkpt><trkpt lat="45.4385178" lon="11.2468157"><ele>48.0</ele><time>2026-04-06T15:31:38.397Z</time></trkpt><trkpt lat="45.4385914" lon="11.2467402"><ele>48.0</ele><time>2026-04-06T15:31:40.395Z</time></trkpt><trkpt lat="45.4386619" lon="11.2466847"><ele>48.0</ele><time>2026-04-06T15:31:43.368Z</time></trkpt><trkpt lat="45.4387262" lon="11.2466016"><ele>48.0</ele><time>2026-04-06T15:31:44.378Z</time></trkpt><trkpt lat="45.4387979" lon="11.2465408"><ele>48.0</ele><time>2026-04-06T15:31:46.428Z</time></trkpt><trkpt lat="45.4388574" lon="11.2464705"><ele>48.166666666666664</ele><time>2026-04-06T15:31:48.365Z</time></trkpt><trkpt lat="45.4389396" lon="11.2463679"><ele>48.33333333333333</ele><time>2026-04-06T15:31:50.367Z</time></trkpt><trkpt lat="45.4389995" lon="11.2463027"><ele>48.5</ele><time>2026-04-06T15:31:52.414Z</time></trkpt><trkpt lat="45.4390614" lon="11.246242"><ele>48.666666666666664</ele><time>2026-04-06T15:31:54.42Z</time></trkpt><trkpt lat="45.439117" lon="11.2461875"><ele>48.83333333333333</ele><time>2026-04-06T15:31:56.408Z</time></trkpt><trkpt lat="45.439176" lon="11.2461352"><ele>49.0</ele><time>2026-04-06T15:31:58.397Z</time></trkpt><trkpt lat="45.4392633" lon="11.2460644"><ele>48.99999999999999</ele><time>2026-04-06T15:32:01.394Z</time></trkpt><trkpt lat="45.4393339" lon="11.2460003"><ele>49.0</ele><time>2026-04-06T15:32:03.381Z</time></trkpt><trkpt lat="45.4393985" lon="11.2459311"><ele>49.0</ele><time>2026-04-06T15:32:05.402Z</time></trkpt><trkpt lat="45.439481" lon="11.245847"><ele>49.0</ele><time>2026-04-06T15:32:08.405Z</time></trkpt><trkpt lat="45.4395477" lon="11.2457652"><ele>48.99999999999999</ele><time>2026-04-06T15:32:10.409Z</time></trkpt><trkpt lat="45.439604" lon="11.2456835"><ele>49.0</ele><time>2026-04-06T15:32:12.371Z</time></trkpt><trkpt lat="45.4396581" lon="11.245605"><ele>49.33333333333333</ele><time>2026-04-06T15:32:14.368Z</time></trkpt><trkpt lat="45.4397053" lon="11.2455255"><ele>49.666666666666664</ele><time>2026-04-06T15:32:16.417Z</time></trkpt><trkpt lat="45.4397488" lon="11.2454478"><ele>50.0</ele><time>2026-04-06T15:32:18.41Z</time></trkpt><trkpt lat="45.4397947" lon="11.2453663"><ele>50.33333333333333</ele><time>2026-04-06T15:32:20.45Z</time></trkpt><trkpt lat="45.4398494" lon="11.2452673"><ele>50.666666666666664</ele><time>2026-04-06T15:32:23.406Z</time></trkpt><trkpt lat="45.4398799" lon="11.2451771"><ele>51.0</ele><time>2026-04-06T15:32:26.404Z</time></trkpt><trkpt lat="45.4399048" lon="11.2450604"><ele>51.0</ele><time>2026-04-06T15:32:29.399Z</time></trkpt><trkpt lat="45.4398976" lon="11.2449452"><ele>51.0</ele><time>2026-04-06T15:32:32.41Z</time></trkpt><trkpt lat="45.4399141" lon="11.2448502"><ele>51.0</ele><time>2026-04-06T15:32:34.411Z</time></trkpt><trkpt lat="45.439927" lon="11.244722"><ele>51.0</ele><time>2026-04-06T15:32:37.416Z</time></trkpt><trkpt lat="45.4399484" lon="11.2446067"><ele>51.0</ele><time>2026-04-06T15:32:40.439Z</time></trkpt><trkpt lat="45.4399851" lon="11.2445084"><ele>51.0</ele><time>2026-04-06T15:32:42.415Z</time></trkpt><trkpt lat="45.4400077" lon="11.2444225"><ele>51.0</ele><time>2026-04-06T15:32:44.453Z</time></trkpt><trkpt lat="45.4400066" lon="11.2443111"><ele>51.0</ele><time>2026-04-06T15:32:47.415Z</time></trkpt><trkpt lat="45.4400154" lon="11.2442153"><ele>51.0</ele><time>2026-04-06T15:32:49.383Z</time></trkpt><trkpt lat="45.4400251" lon="11.2440812"><ele>51.0</ele><time>2026-04-06T15:32:52.411Z</time></trkpt><trkpt lat="45.4400392" lon="11.2439777"><ele>51.0</ele><time>2026-04-06T15:32:54.42Z</time></trkpt><trkpt lat="45.4400402" lon="11.2438605"><ele>51.0</ele><time>2026-04-06T15:32:56.415Z</time></trkpt><trkpt lat="45.4400374" lon="11.2437344"><ele>51.0</ele><time>2026-04-06T15:32:58.414Z</time></trkpt><trkpt lat="45.440044" lon="11.2435927"><ele>51.0</ele><time>2026-04-06T15:33:00.408Z</time></trkpt><trkpt lat="45.4400478" lon="11.2434441"><ele>51.0</ele><time>2026-04-06T15:33:02.41Z</time></trkpt><trkpt lat="45.4400322" lon="11.2433264"><ele>51.0</ele><time>2026-04-06T15:33:04.414Z</time></trkpt><trkpt lat="45.4400182" lon="11.2431767"><ele>51.0</ele><time>2026-04-06T15:33:06.429Z</time></trkpt><trkpt lat="45.4399989" lon="11.2430626"><ele>51.0</ele><time>2026-04-06T15:33:08.435Z</time></trkpt><trkpt lat="45.4399885" lon="11.2429159"><ele>51.0</ele><time>2026-04-06T15:33:10.424Z</time></trkpt><trkpt lat="45.440008" lon="11.2427784"><ele>51.0</ele><time>2026-04-06T15:33:12.388Z</time></trkpt><trkpt lat="45.4400148" lon="11.242681"><ele>51.0</ele><time>2026-04-06T15:33:14.36Z</time></trkpt><trkpt lat="45.4400288" lon="11.2425602"><ele>51.0</ele><time>2026-04-06T15:33:16.401Z</time></trkpt><trkpt lat="45.4400669" lon="11.2424125"><ele>51.0</ele><time>2026-04-06T15:33:18.371Z</time></trkpt><trkpt lat="45.4400833" lon="11.2423078"><ele>51.0</ele><time>2026-04-06T15:33:20.405Z</time></trkpt><trkpt lat="45.4401035" lon="11.2421831"><ele>51.0</ele><time>2026-04-06T15:33:22.366Z</time></trkpt><trkpt lat="45.4401237" lon="11.2420965"><ele>51.0</ele><time>2026-04-06T15:33:24.403Z</time></trkpt><trkpt lat="45.4401679" lon="11.2419588"><ele>51.0</ele><time>2026-04-06T15:33:26.392Z</time></trkpt><trkpt lat="45.4401933" lon="11.241837"><ele>51.0</ele><time>2026-04-06T15:33:28.415Z</time></trkpt><trkpt lat="45.440225" lon="11.2416665"><ele>50.666666666666664</ele><time>2026-04-06T15:33:30.375Z</time></trkpt><trkpt lat="45.4402541" lon="11.241565"><ele>50.33333333333333</ele><time>2026-04-06T15:33:31.371Z</time></trkpt><trkpt lat="45.4402795" lon="11.2414765"><ele>50.0</ele><time>2026-04-06T15:33:33.416Z</time></trkpt><trkpt lat="45.4403139" lon="11.2413552"><ele>49.666666666666664</ele><time>2026-04-06T15:33:35.417Z</time></trkpt><trkpt lat="45.4403221" lon="11.2412624"><ele>49.33333333333333</ele><time>2026-04-06T15:33:37.366Z</time></trkpt><trkpt lat="45.4403389" lon="11.2411659"><ele>49.0</ele><time>2026-04-06T15:33:39.365Z</time></trkpt><trkpt lat="45.440333" lon="11.2410186"><ele>48.99999999999999</ele><time>2026-04-06T15:33:41.39Z</time></trkpt><trkpt lat="45.4403664" lon="11.2408973"><ele>49.0</ele><time>2026-04-06T15:33:43.38Z</time></trkpt><trkpt lat="45.4403824" lon="11.2407905"><ele>49.0</ele><time>2026-04-06T15:33:45.363Z</time></trkpt><trkpt lat="45.4404064" lon="11.2406713"><ele>49.0</ele><time>2026-04-06T15:33:47.404Z</time></trkpt><trkpt lat="45.4404361" lon="11.2405797"><ele>48.99999999999999</ele><time>2026-04-06T15:33:48.403Z</time></trkpt><trkpt lat="45.440477" lon="11.2404757"><ele>49.0</ele><time>2026-04-06T15:33:49.41Z</time></trkpt><trkpt lat="45.4405135" lon="11.2403497"><ele>49.0</ele><time>2026-04-06T15:33:51.412Z</time></trkpt><trkpt lat="45.4405481" lon="11.2402462"><ele>49.0</ele><time>2026-04-06T15:33:52.39Z</time></trkpt><trkpt lat="45.4405431" lon="11.2401428"><ele>49.0</ele><time>2026-04-06T15:33:54.404Z</time></trkpt><trkpt lat="45.4405546" lon="11.2400321"><ele>49.0</ele><time>2026-04-06T15:33:57.366Z</time></trkpt><trkpt lat="45.4405951" lon="11.2399136"><ele>49.0</ele><time>2026-04-06T15:33:59.365Z</time></trkpt><trkpt lat="45.4406526" lon="11.2397237"><ele>48.400000000000006</ele><time>2026-04-06T15:34:01.411Z</time></trkpt><trkpt lat="45.4406863" lon="11.2395913"><ele>47.8</ele><time>2026-04-06T15:34:04.378Z</time></trkpt><trkpt lat="45.4407008" lon="11.2394746"><ele>47.2</ele><time>2026-04-06T15:34:06.422Z</time></trkpt><trkpt lat="45.4407551" lon="11.2392959"><ele>46.599999999999994</ele><time>2026-04-06T15:34:08.368Z</time></trkpt><trkpt lat="45.440797" lon="11.239179"><ele>46.0</ele><time>2026-04-06T15:34:10.425Z</time></trkpt><trkpt lat="45.4408395" lon="11.2390314"><ele>45.5</ele><time>2026-04-06T15:34:12.428Z</time></trkpt><trkpt lat="45.4408805" lon="11.2389176"><ele>45.0</ele><time>2026-04-06T15:34:14.414Z</time></trkpt><trkpt lat="45.440942" lon="11.2387633"><ele>44.5</ele><time>2026-04-06T15:34:16.391Z</time></trkpt><trkpt lat="45.4409959" lon="11.2386678"><ele>44.0</ele><time>2026-04-06T15:34:18.39Z</time></trkpt><trkpt lat="45.4410427" lon="11.2385914"><ele>43.5</ele><time>2026-04-06T15:34:20.389Z</time></trkpt><trkpt lat="45.4410686" lon="11.2384909"><ele>43.0</ele><time>2026-04-06T15:34:21.392Z</time></trkpt><trkpt lat="45.4411312" lon="11.2383569"><ele>43.0</ele><time>2026-04-06T15:34:23.417Z</time></trkpt><trkpt lat="45.4411909" lon="11.2382345"><ele>43.0</ele><time>2026-04-06T15:34:25.403Z</time></trkpt><trkpt lat="45.4412736" lon="11.2381024"><ele>43.0</ele><time>2026-04-06T15:34:27.381Z</time></trkpt><trkpt lat="45.4413398" lon="11.237994"><ele>43.0</ele><time>2026-04-06T15:34:29.372Z</time></trkpt><trkpt lat="45.4414135" lon="11.2378351"><ele>43.333333333333336</ele><time>2026-04-06T15:34:32.396Z</time></trkpt><trkpt lat="45.4414316" lon="11.2377278"><ele>43.66666666666667</ele><time>2026-04-06T15:34:34.412Z</time></trkpt><trkpt lat="45.4414526" lon="11.2376315"><ele>44.0</ele><time>2026-04-06T15:34:35.413Z</time></trkpt><trkpt lat="45.4414291" lon="11.2374987"><ele>44.333333333333336</ele><time>2026-04-06T15:34:38.381Z</time></trkpt><trkpt lat="45.4413761" lon="11.2374235"><ele>44.666666666666664</ele><time>2026-04-06T15:34:40.412Z</time></trkpt><trkpt lat="45.4413657" lon="11.2372873"><ele>45.0</ele><time>2026-04-06T15:34:42.371Z</time></trkpt><trkpt lat="45.4413287" lon="11.2371341"><ele>45.0</ele><time>2026-04-06T15:34:44.42Z</time></trkpt><trkpt lat="45.4413415" lon="11.237026"><ele>45.0</ele><time>2026-04-06T15:34:46.364Z</time></trkpt><trkpt lat="45.4413164" lon="11.2368996"><ele>45.0</ele><time>2026-04-06T15:34:48.366Z</time></trkpt><trkpt lat="45.4412372" lon="11.2367789"><ele>45.0</ele><time>2026-04-06T15:34:50.476Z</time></trkpt><trkpt lat="45.4411765" lon="11.2366569"><ele>45.0</ele><time>2026-04-06T15:34:52.412Z</time></trkpt><trkpt lat="45.4411202" lon="11.2365563"><ele>44.4</ele><time>2026-04-06T15:34:54.389Z</time></trkpt><trkpt lat="45.4410817" lon="11.236436"><ele>43.8</ele><time>2026-04-06T15:34:56.423Z</time></trkpt><trkpt lat="45.4410448" lon="11.2363238"><ele>43.2</ele><time>2026-04-06T15:34:58.434Z</time></trkpt><trkpt lat="45.4410031" lon="11.2362231"><ele>42.6</ele><time>2026-04-06T15:35:00.367Z</time></trkpt><trkpt lat="45.4409634" lon="11.236087"><ele>42.0</ele><time>2026-04-06T15:35:02.367Z</time></trkpt><trkpt lat="45.4409227" lon="11.2359606"><ele>42.0</ele><time>2026-04-06T15:35:04.42Z</time></trkpt><trkpt lat="45.4408976" lon="11.235849"><ele>42.0</ele><time>2026-04-06T15:35:06.361Z</time></trkpt><trkpt lat="45.4408563" lon="11.2357201"><ele>42.0</ele><time>2026-04-06T15:35:08.378Z</time></trkpt><trkpt lat="45.4407842" lon="11.2355905"><ele>42.0</ele><time>2026-04-06T15:35:10.424Z</time></trkpt><trkpt lat="45.4407568" lon="11.2355089"><ele>42.0</ele><time>2026-04-06T15:35:11.427Z</time></trkpt><trkpt lat="45.4407194" lon="11.2354234"><ele>42.0</ele><time>2026-04-06T15:35:12.424Z</time></trkpt><trkpt lat="45.4406713" lon="11.235298"><ele>42.0</ele><time>2026-04-06T15:35:14.388Z</time></trkpt><trkpt lat="45.4406308" lon="11.2351987"><ele>42.0</ele><time>2026-04-06T15:35:15.389Z</time></trkpt><trkpt lat="45.4405986" lon="11.2351156"><ele>42.0</ele><time>2026-04-06T15:35:16.389Z</time></trkpt><trkpt lat="45.4405582" lon="11.2349676"><ele>42.0</ele><time>2026-04-06T15:35:18.389Z</time></trkpt><trkpt lat="45.4404906" lon="11.2348397"><ele>42.0</ele><time>2026-04-06T15:35:20.398Z</time></trkpt><trkpt lat="45.4404211" lon="11.2347201"><ele>41.833333333333336</ele><time>2026-04-06T15:35:22.395Z</time></trkpt><trkpt lat="45.4403923" lon="11.2346399"><ele>41.666666666666664</ele><time>2026-04-06T15:35:23.408Z</time></trkpt><trkpt lat="45.4403569" lon="11.234554"><ele>41.5</ele><time>2026-04-06T15:35:25.409Z</time></trkpt><trkpt lat="45.4403095" lon="11.2344751"><ele>41.33333333333333</ele><time>2026-04-06T15:35:26.399Z</time></trkpt><trkpt lat="45.4402312" lon="11.2343414"><ele>41.166666666666664</ele><time>2026-04-06T15:35:28.394Z</time></trkpt><trkpt lat="45.440214" lon="11.2341934"><ele>41.0</ele><time>2026-04-06T15:35:30.416Z</time></trkpt><trkpt lat="45.4401371" lon="11.2340636"><ele>41.199999999999996</ele><time>2026-04-06T15:35:32.414Z</time></trkpt><trkpt lat="45.4400847" lon="11.2338851"><ele>41.4</ele><time>2026-04-06T15:35:34.41Z</time></trkpt><trkpt lat="45.4400715" lon="11.2336975"><ele>41.6</ele><time>2026-04-06T15:35:37.367Z</time></trkpt><trkpt lat="45.4400329" lon="11.2335992"><ele>41.8</ele><time>2026-04-06T15:35:39.56Z</time></trkpt><trkpt lat="45.4400556" lon="11.2334569"><ele>42.0</ele><time>2026-04-06T15:35:42.423Z</time></trkpt><trkpt lat="45.4400729" lon="11.2333378"><ele>42.0</ele><time>2026-04-06T15:35:44.372Z</time></trkpt><trkpt lat="45.440057" lon="11.2332239"><ele>42.0</ele><time>2026-04-06T15:35:46.426Z</time></trkpt><trkpt lat="45.440064" lon="11.2331006"><ele>42.0</ele><time>2026-04-06T15:35:48.425Z</time></trkpt><trkpt lat="45.4400935" lon="11.2330126"><ele>42.0</ele><time>2026-04-06T15:35:49.417Z</time></trkpt><trkpt lat="45.4401324" lon="11.232827"><ele>42.0</ele><time>2026-04-06T15:35:51.364Z</time></trkpt><trkpt lat="45.4401479" lon="11.2327298"><ele>42.0</ele><time>2026-04-06T15:35:52.373Z</time></trkpt><trkpt lat="45.4402003" lon="11.232593"><ele>41.666666666666664</ele><time>2026-04-06T15:35:54.372Z</time></trkpt><trkpt lat="45.4401799" lon="11.2324269"><ele>41.333333333333336</ele><time>2026-04-06T15:35:57.433Z</time></trkpt><trkpt lat="45.4402075" lon="11.2323448"><ele>41.0</ele><time>2026-04-06T15:35:58.427Z</time></trkpt><trkpt lat="45.4402139" lon="11.2322363"><ele>40.66666666666667</ele><time>2026-04-06T15:35:59.428Z</time></trkpt><trkpt lat="45.440216" lon="11.232114"><ele>40.333333333333336</ele><time>2026-04-06T15:36:02.365Z</time></trkpt><trkpt lat="45.4402334" lon="11.2319943"><ele>40.0</ele><time>2026-04-06T15:36:03.363Z</time></trkpt><trkpt lat="45.4402126" lon="11.2319035"><ele>40.0</ele><time>2026-04-06T15:36:05.389Z</time></trkpt><trkpt lat="45.4402064" lon="11.231751"><ele>40.0</ele><time>2026-04-06T15:36:08.371Z</time></trkpt><trkpt lat="45.4401878" lon="11.231658"><ele>40.0</ele><time>2026-04-06T15:36:13.374Z</time></trkpt><trkpt lat="45.440175" lon="11.2315335"><ele>40.0</ele><time>2026-04-06T15:36:15.375Z</time></trkpt><trkpt lat="45.4402067" lon="11.2314248"><ele>40.0</ele><time>2026-04-06T15:36:17.372Z</time></trkpt><trkpt lat="45.4402158" lon="11.2313003"><ele>40.0</ele><time>2026-04-06T15:36:20.363Z</time></trkpt><trkpt lat="45.4402206" lon="11.2311967"><ele>40.66666666666667</ele><time>2026-04-06T15:36:22.375Z</time></trkpt><trkpt lat="45.440228" lon="11.2310827"><ele>41.333333333333336</ele><time>2026-04-06T15:36:27.366Z</time></trkpt><trkpt lat="45.4402478" lon="11.230984"><ele>42.0</ele><time>2026-04-06T15:36:29.378Z</time></trkpt><trkpt lat="45.4402548" lon="11.2308689"><ele>42.666666666666664</ele><time>2026-04-06T15:36:32.373Z</time></trkpt><trkpt lat="45.4402518" lon="11.2307378"><ele>43.33333333333333</ele><time>2026-04-06T15:36:36.368Z</time></trkpt><trkpt lat="45.4402641" lon="11.2306304"><ele>44.0</ele><time>2026-04-06T15:36:38.394Z</time></trkpt><trkpt lat="45.4402563" lon="11.2304996"><ele>44.0</ele><time>2026-04-06T15:36:42.366Z</time></trkpt><trkpt lat="45.4402327" lon="11.2303763"><ele>44.0</ele><time>2026-04-06T15:36:47.366Z</time></trkpt><trkpt lat="45.4402265" lon="11.230274"><ele>44.0</ele><time>2026-04-06T15:36:49.365Z</time></trkpt><trkpt lat="45.4402493" lon="11.2301872"><ele>44.0</ele><time>2026-04-06T15:36:52.414Z</time></trkpt><trkpt lat="45.4402654" lon="11.2300665"><ele>44.0</ele><time>2026-04-06T15:36:56.363Z</time></trkpt><trkpt lat="45.4402809" lon="11.2299547"><ele>44.0</ele><time>2026-04-06T15:36:59.404Z</time></trkpt><trkpt lat="45.4402835" lon="11.2298497"><ele>43.800000000000004</ele><time>2026-04-06T15:37:02.409Z</time></trkpt><trkpt lat="45.4402849" lon="11.2297147"><ele>43.6</ele><time>2026-04-06T15:37:05.369Z</time></trkpt><trkpt lat="45.440282" lon="11.229589"><ele>43.4</ele><time>2026-04-06T15:37:07.404Z</time></trkpt><trkpt lat="45.4402939" lon="11.229483"><ele>43.2</ele><time>2026-04-06T15:37:09.404Z</time></trkpt><trkpt lat="45.4403055" lon="11.2293552"><ele>43.0</ele><time>2026-04-06T15:37:11.365Z</time></trkpt><trkpt lat="45.4403426" lon="11.2291754"><ele>43.0</ele><time>2026-04-06T15:37:13.365Z</time></trkpt><trkpt lat="45.4403057" lon="11.2290517"><ele>43.0</ele><time>2026-04-06T15:37:16.397Z</time></trkpt><trkpt lat="45.4403186" lon="11.2288914"><ele>43.0</ele><time>2026-04-06T15:37:18.364Z</time></trkpt><trkpt lat="45.4403224" lon="11.2288015"><ele>43.0</ele><time>2026-04-06T15:37:20.358Z</time></trkpt><trkpt lat="45.4403318" lon="11.2286341"><ele>43.0</ele><time>2026-04-06T15:37:21.425Z</time></trkpt><trkpt lat="45.4403483" lon="11.2284687"><ele>43.2</ele><time>2026-04-06T15:37:23.42Z</time></trkpt><trkpt lat="45.440398" lon="11.2283405"><ele>43.4</ele><time>2026-04-06T15:37:24.41Z</time></trkpt><trkpt lat="45.4404406" lon="11.2282227"><ele>43.6</ele><time>2026-04-06T15:37:25.403Z</time></trkpt><trkpt lat="45.4404796" lon="11.2280746"><ele>43.800000000000004</ele><time>2026-04-06T15:37:26.417Z</time></trkpt><trkpt lat="45.4405114" lon="11.2279248"><ele>44.0</ele><time>2026-04-06T15:37:27.414Z</time></trkpt><trkpt lat="45.4405467" lon="11.2277748"><ele>44.0</ele><time>2026-04-06T15:37:28.411Z</time></trkpt><trkpt lat="45.4405713" lon="11.227655"><ele>44.0</ele><time>2026-04-06T15:37:29.416Z</time></trkpt><trkpt lat="45.440581" lon="11.2275506"><ele>44.0</ele><time>2026-04-06T15:37:30.423Z</time></trkpt><trkpt lat="45.4405971" lon="11.227446"><ele>44.0</ele><time>2026-04-06T15:37:31.412Z</time></trkpt><trkpt lat="45.4406254" lon="11.2273128"><ele>44.0</ele><time>2026-04-06T15:37:32.424Z</time></trkpt><trkpt lat="45.4406578" lon="11.2272288"><ele>44.0</ele><time>2026-04-06T15:37:33.411Z</time></trkpt><trkpt lat="45.4406603" lon="11.2271088"><ele>43.666666666666664</ele><time>2026-04-06T15:37:35.415Z</time></trkpt><trkpt lat="45.4406891" lon="11.226995"><ele>43.33333333333333</ele><time>2026-04-06T15:37:36.431Z</time></trkpt><trkpt lat="45.4407307" lon="11.2268464"><ele>43.0</ele><time>2026-04-06T15:37:37.364Z</time></trkpt><trkpt lat="45.4407533" lon="11.2267485"><ele>42.666666666666664</ele><time>2026-04-06T15:37:38.421Z</time></trkpt><trkpt lat="45.4407333" lon="11.2266629"><ele>42.333333333333336</ele><time>2026-04-06T15:37:40.438Z</time></trkpt><trkpt lat="45.4407707" lon="11.2265168"><ele>42.0</ele><time>2026-04-06T15:37:42.408Z</time></trkpt><trkpt lat="45.4408097" lon="11.2263471"><ele>42.0</ele><time>2026-04-06T15:37:44.382Z</time></trkpt><trkpt lat="45.4408171" lon="11.2262553"><ele>42.0</ele><time>2026-04-06T15:37:45.389Z</time></trkpt><trkpt lat="45.4408429" lon="11.2261082"><ele>42.0</ele><time>2026-04-06T15:37:47.375Z</time></trkpt><trkpt lat="45.4408806" lon="11.2260087"><ele>42.0</ele><time>2026-04-06T15:37:48.402Z</time></trkpt><trkpt lat="45.4409169" lon="11.2259177"><ele>42.0</ele><time>2026-04-06T15:37:49.414Z</time></trkpt><trkpt lat="45.4409714" lon="11.2258341"><ele>42.0</ele><time>2026-04-06T15:37:50.366Z</time></trkpt><trkpt lat="45.4410472" lon="11.2257277"><ele>42.166666666666664</ele><time>2026-04-06T15:37:52.367Z</time></trkpt><trkpt lat="45.4410402" lon="11.2256279"><ele>42.333333333333336</ele><time>2026-04-06T15:37:53.367Z</time></trkpt><trkpt lat="45.441095" lon="11.2255308"><ele>42.5</ele><time>2026-04-06T15:37:56.365Z</time></trkpt><trkpt lat="45.4411219" lon="11.2254288"><ele>42.66666666666667</ele><time>2026-04-06T15:37:58.391Z</time></trkpt><trkpt lat="45.4411789" lon="11.2253318"><ele>42.833333333333336</ele><time>2026-04-06T15:38:01.37Z</time></trkpt><trkpt lat="45.4412367" lon="11.2252258"><ele>43.0</ele><time>2026-04-06T15:38:03.364Z</time></trkpt><trkpt lat="45.4412906" lon="11.225135"><ele>43.42857142857143</ele><time>2026-04-06T15:38:06.396Z</time></trkpt><trkpt lat="45.4413378" lon="11.2250662"><ele>43.85714285714286</ele><time>2026-04-06T15:38:08.427Z</time></trkpt><trkpt lat="45.4413822" lon="11.224988"><ele>44.28571428571429</ele><time>2026-04-06T15:38:10.372Z</time></trkpt><trkpt lat="45.4414397" lon="11.2249123"><ele>44.714285714285715</ele><time>2026-04-06T15:38:12.364Z</time></trkpt><trkpt lat="45.4414999" lon="11.2248252"><ele>45.14285714285714</ele><time>2026-04-06T15:38:15.403Z</time></trkpt><trkpt lat="45.441537" lon="11.2247506"><ele>45.57142857142858</ele><time>2026-04-06T15:38:17.401Z</time></trkpt><trkpt lat="45.4415759" lon="11.2246647"><ele>46.0</ele><time>2026-04-06T15:38:19.403Z</time></trkpt><trkpt lat="45.4416235" lon="11.2245736"><ele>46.0</ele><time>2026-04-06T15:38:21.423Z</time></trkpt><trkpt lat="45.4416666" lon="11.2244755"><ele>46.0</ele><time>2026-04-06T15:38:23.41Z</time></trkpt><trkpt lat="45.4417142" lon="11.2243719"><ele>46.0</ele><time>2026-04-06T15:38:25.402Z</time></trkpt><trkpt lat="45.4417671" lon="11.2242704"><ele>46.0</ele><time>2026-04-06T15:38:27.42Z</time></trkpt><trkpt lat="45.441812" lon="11.2241695"><ele>46.0</ele><time>2026-04-06T15:38:29.423Z</time></trkpt><trkpt lat="45.4418576" lon="11.2240655"><ele>46.0</ele><time>2026-04-06T15:38:31.407Z</time></trkpt><trkpt lat="45.4419012" lon="11.2239527"><ele>45.199999999999996</ele><time>2026-04-06T15:38:33.408Z</time></trkpt><trkpt lat="45.4419452" lon="11.2238099"><ele>44.4</ele><time>2026-04-06T15:38:35.39Z</time></trkpt><trkpt lat="45.4419718" lon="11.2237262"><ele>43.6</ele><time>2026-04-06T15:38:36.36Z</time></trkpt><trkpt lat="45.4420261" lon="11.2236274"><ele>42.8</ele><time>2026-04-06T15:38:39.364Z</time></trkpt><trkpt lat="45.4420828" lon="11.2234892"><ele>42.0</ele><time>2026-04-06T15:38:42.426Z</time></trkpt><trkpt lat="45.442128" lon="11.2233794"><ele>42.333333333333336</ele><time>2026-04-06T15:38:44.424Z</time></trkpt><trkpt lat="45.442155" lon="11.2232918"><ele>42.666666666666664</ele><time>2026-04-06T15:38:45.369Z</time></trkpt><trkpt lat="45.4421918" lon="11.2231871"><ele>43.0</ele><time>2026-04-06T15:38:47.439Z</time></trkpt><trkpt lat="45.4422076" lon="11.2230901"><ele>43.33333333333333</ele><time>2026-04-06T15:38:49.413Z</time></trkpt><trkpt lat="45.4422517" lon="11.2229861"><ele>43.666666666666664</ele><time>2026-04-06T15:38:51.417Z</time></trkpt><trkpt lat="45.4423016" lon="11.2228772"><ele>44.0</ele><time>2026-04-06T15:38:53.411Z</time></trkpt><trkpt lat="45.4423491" lon="11.2227554"><ele>44.0</ele><time>2026-04-06T15:38:55.401Z</time></trkpt><trkpt lat="45.4423848" lon="11.22266"><ele>44.0</ele><time>2026-04-06T15:38:57.397Z</time></trkpt><trkpt lat="45.4424292" lon="11.2225246"><ele>44.0</ele><time>2026-04-06T15:39:00.368Z</time></trkpt><trkpt lat="45.4424635" lon="11.2224322"><ele>44.0</ele><time>2026-04-06T15:39:02.388Z</time></trkpt><trkpt lat="45.4425102" lon="11.2223196"><ele>44.0</ele><time>2026-04-06T15:39:04.398Z</time></trkpt><trkpt lat="45.4425621" lon="11.2222285"><ele>44.0</ele><time>2026-04-06T15:39:06.402Z</time></trkpt><trkpt lat="45.4426203" lon="11.2221552"><ele>44.166666666666664</ele><time>2026-04-06T15:39:08.39Z</time></trkpt><trkpt lat="45.4427213" lon="11.2220505"><ele>44.33333333333333</ele><time>2026-04-06T15:39:10.371Z</time></trkpt><trkpt lat="45.4428074" lon="11.2220019"><ele>44.5</ele><time>2026-04-06T15:39:12.406Z</time></trkpt><trkpt lat="45.4428843" lon="11.221933"><ele>44.666666666666664</ele><time>2026-04-06T15:39:14.368Z</time></trkpt><trkpt lat="45.4429242" lon="11.2218613"><ele>44.833333333333336</ele><time>2026-04-06T15:39:15.365Z</time></trkpt><trkpt lat="45.4429856" lon="11.2217961"><ele>45.0</ele><time>2026-04-06T15:39:17.357Z</time></trkpt><trkpt lat="45.4430592" lon="11.2217291"><ele>45.0</ele><time>2026-04-06T15:39:19.415Z</time></trkpt><trkpt lat="45.4431318" lon="11.2216677"><ele>45.0</ele><time>2026-04-06T15:39:21.411Z</time></trkpt><trkpt lat="45.443209" lon="11.2215867"><ele>45.0</ele><time>2026-04-06T15:39:23.421Z</time></trkpt><trkpt lat="45.4433366" lon="11.2214982"><ele>45.0</ele><time>2026-04-06T15:39:26.365Z</time></trkpt><trkpt lat="45.4433933" lon="11.2214343"><ele>45.0</ele><time>2026-04-06T15:39:28.368Z</time></trkpt><trkpt lat="45.4434863" lon="11.221352"><ele>45.0</ele><time>2026-04-06T15:39:30.431Z</time></trkpt><trkpt lat="45.4435591" lon="11.2212593"><ele>45.0</ele><time>2026-04-06T15:39:32.375Z</time></trkpt><trkpt lat="45.4436619" lon="11.2211966"><ele>45.0</ele><time>2026-04-06T15:39:34.405Z</time></trkpt><trkpt lat="45.4437531" lon="11.2211361"><ele>45.0</ele><time>2026-04-06T15:39:36.387Z</time></trkpt><trkpt lat="45.4438349" lon="11.2210363"><ele>45.0</ele><time>2026-04-06T15:39:38.366Z</time></trkpt><trkpt lat="45.4439307" lon="11.2209885"><ele>45.5</ele><time>2026-04-06T15:39:40.396Z</time></trkpt><trkpt lat="45.4440041" lon="11.2209773"><ele>46.0</ele><time>2026-04-06T15:39:42.375Z</time></trkpt><trkpt lat="45.4440712" lon="11.2209472"><ele>46.5</ele><time>2026-04-06T15:39:44.367Z</time></trkpt><trkpt lat="45.4441629" lon="11.2209202"><ele>47.0</ele><time>2026-04-06T15:39:46.399Z</time></trkpt><trkpt lat="45.4442366" lon="11.2208933"><ele>47.5</ele><time>2026-04-06T15:39:48.372Z</time></trkpt><trkpt lat="45.4443693" lon="11.2208689"><ele>48.0</ele><time>2026-04-06T15:39:50.37Z</time></trkpt><trkpt lat="45.444448" lon="11.2208438"><ele>48.0</ele><time>2026-04-06T15:39:54.364Z</time></trkpt><trkpt lat="45.4445424" lon="11.2208125"><ele>48.0</ele><time>2026-04-06T15:39:56.382Z</time></trkpt><trkpt lat="45.44463" lon="11.22079"><ele>48.0</ele><time>2026-04-06T15:39:59.367Z</time></trkpt><trkpt lat="45.4447078" lon="11.2207662"><ele>48.0</ele><time>2026-04-06T15:40:01.371Z</time></trkpt><trkpt lat="45.4448038" lon="11.2207362"><ele>48.0</ele><time>2026-04-06T15:40:03.394Z</time></trkpt><trkpt lat="45.4448659" lon="11.2206981"><ele>48.0</ele><time>2026-04-06T15:40:05.393Z</time></trkpt><trkpt lat="45.4449568" lon="11.2206551"><ele>48.5</ele><time>2026-04-06T15:40:08.379Z</time></trkpt><trkpt lat="45.4450523" lon="11.220622"><ele>49.0</ele><time>2026-04-06T15:40:10.399Z</time></trkpt><trkpt lat="45.4451329" lon="11.2206101"><ele>49.5</ele><time>2026-04-06T15:40:12.395Z</time></trkpt><trkpt lat="45.4451968" lon="11.220598"><ele>50.0</ele><time>2026-04-06T15:40:18.407Z</time></trkpt><trkpt lat="45.4452594" lon="11.2205713"><ele>50.5</ele><time>2026-04-06T15:40:20.407Z</time></trkpt><trkpt lat="45.4453237" lon="11.2205505"><ele>51.0</ele><time>2026-04-06T15:40:23.387Z</time></trkpt><trkpt lat="45.4453992" lon="11.2205416"><ele>51.0</ele><time>2026-04-06T15:40:26.369Z</time></trkpt><trkpt lat="45.4454497" lon="11.2206147"><ele>51.0</ele><time>2026-04-06T15:40:34.372Z</time></trkpt><trkpt lat="45.4453945" lon="11.220666"><ele>51.0</ele><time>2026-04-06T15:40:38.412Z</time></trkpt><trkpt lat="45.4453325" lon="11.220722"><ele>51.0</ele><time>2026-04-06T15:40:42.409Z</time></trkpt><trkpt lat="45.4453068" lon="11.2208159"><ele>51.0</ele><time>2026-04-06T15:40:49.415Z</time></trkpt><trkpt lat="45.4452651" lon="11.2209568"><ele>51.0</ele><time>2026-04-06T16:15:06.37Z</time></trkpt><trkpt lat="45.445209" lon="11.2209126"><ele>51.0</ele><time>2026-04-06T16:15:21.367Z</time></trkpt><trkpt lat="45.445337" lon="11.2207415"><ele>51.0</ele><time>2026-04-06T16:15:31.423Z</time></trkpt><trkpt lat="45.4453693" lon="11.2206317"><ele>51.0</ele><time>2026-04-06T16:15:34.372Z</time></trkpt><trkpt lat="45.4454153" lon="11.2205358"><ele>51.0</ele><time>2026-04-06T16:15:36.364Z</time></trkpt><trkpt lat="45.4454782" lon="11.2204782"><ele>51.0</ele><time>2026-04-06T16:15:38.407Z</time></trkpt><trkpt lat="45.4455564" lon="11.220445"><ele>52.0</ele><time>2026-04-06T16:15:40.369Z</time></trkpt><trkpt lat="45.445727" lon="11.2203988"><ele>53.0</ele><time>2026-04-06T16:15:43.398Z</time></trkpt><trkpt lat="45.4457953" lon="11.2204018"><ele>54.0</ele><time>2026-04-06T16:15:44.401Z</time></trkpt><trkpt lat="45.4459057" lon="11.2204096"><ele>55.0</ele><time>2026-04-06T16:15:46.402Z</time></trkpt><trkpt lat="45.4460027" lon="11.2204325"><ele>54.99999999999999</ele><time>2026-04-06T16:15:48.391Z</time></trkpt><trkpt lat="45.4461066" lon="11.2204468"><ele>55.0</ele><time>2026-04-06T16:15:50.396Z</time></trkpt><trkpt lat="45.4461833" lon="11.220433"><ele>55.0</ele><time>2026-04-06T16:15:52.396Z</time></trkpt><trkpt lat="45.4462577" lon="11.2204197"><ele>55.0</ele><time>2026-04-06T16:15:54.403Z</time></trkpt><trkpt lat="45.4463438" lon="11.2204186"><ele>54.99999999999999</ele><time>2026-04-06T16:15:56.406Z</time></trkpt><trkpt lat="45.4464475" lon="11.2204202"><ele>55.0</ele><time>2026-04-06T16:15:58.397Z</time></trkpt><trkpt lat="45.4465147" lon="11.2204119"><ele>54.8</ele><time>2026-04-06T16:15:59.393Z</time></trkpt><trkpt lat="45.4466181" lon="11.2203939"><ele>54.6</ele><time>2026-04-06T16:16:01.384Z</time></trkpt><trkpt lat="45.4467075" lon="11.2203471"><ele>54.400000000000006</ele><time>2026-04-06T16:16:03.402Z</time></trkpt><trkpt lat="45.446808" lon="11.2203436"><ele>54.2</ele><time>2026-04-06T16:16:05.418Z</time></trkpt><trkpt lat="45.4468909" lon="11.2203534"><ele>54.0</ele><time>2026-04-06T16:16:07.401Z</time></trkpt><trkpt lat="45.4469819" lon="11.2203284"><ele>54.0</ele><time>2026-04-06T16:16:09.367Z</time></trkpt><trkpt lat="45.4472504" lon="11.2203534"><ele>54.0</ele><time>2026-04-06T16:16:15.379Z</time></trkpt><trkpt lat="45.4473439" lon="11.2203295"><ele>54.0</ele><time>2026-04-06T16:16:17.375Z</time></trkpt><trkpt lat="45.4475048" lon="11.2203402"><ele>54.0</ele><time>2026-04-06T16:16:21.396Z</time></trkpt><trkpt lat="45.4475903" lon="11.2203575"><ele>54.0</ele><time>2026-04-06T16:16:23.4Z</time></trkpt><trkpt lat="45.4477556" lon="11.2203657"><ele>54.0</ele><time>2026-04-06T16:16:27.359Z</time></trkpt><trkpt lat="45.4478375" lon="11.2203595"><ele>54.0</ele><time>2026-04-06T16:16:29.396Z</time></trkpt><trkpt lat="45.4480221" lon="11.2203566"><ele>54.666666666666664</ele><time>2026-04-06T16:16:34.392Z</time></trkpt><trkpt lat="45.4481039" lon="11.220338"><ele>55.33333333333333</ele><time>2026-04-06T16:16:36.402Z</time></trkpt><trkpt lat="45.448191" lon="11.220315"><ele>56.0</ele><time>2026-04-06T16:16:38.405Z</time></trkpt><trkpt lat="45.44827" lon="11.220292"><ele>56.666666666666664</ele><time>2026-04-06T16:16:40.396Z</time></trkpt><trkpt lat="45.448343" lon="11.2202505"><ele>57.33333333333333</ele><time>2026-04-06T16:16:42.404Z</time></trkpt><trkpt lat="45.4484283" lon="11.2201689"><ele>58.0</ele><time>2026-04-06T16:16:46.415Z</time></trkpt><trkpt lat="45.4484537" lon="11.2200466"><ele>58.0</ele><time>2026-04-06T16:16:49.37Z</time></trkpt><trkpt lat="45.4484678" lon="11.2199205"><ele>58.0</ele><time>2026-04-06T16:16:51.384Z</time></trkpt><trkpt lat="45.4484821" lon="11.2198045"><ele>58.0</ele><time>2026-04-06T16:16:52.411Z</time></trkpt><trkpt lat="45.4484989" lon="11.2196965"><ele>58.0</ele><time>2026-04-06T16:16:53.411Z</time></trkpt><trkpt lat="45.4485092" lon="11.2195389"><ele>58.0</ele><time>2026-04-06T16:16:55.412Z</time></trkpt><trkpt lat="45.4485244" lon="11.2193946"><ele>57.4</ele><time>2026-04-06T16:16:57.399Z</time></trkpt><trkpt lat="45.4485522" lon="11.2193104"><ele>56.8</ele><time>2026-04-06T16:16:58.405Z</time></trkpt><trkpt lat="45.4485852" lon="11.2191583"><ele>56.2</ele><time>2026-04-06T16:17:00.401Z</time></trkpt><trkpt lat="45.4486136" lon="11.219008"><ele>55.6</ele><time>2026-04-06T16:17:02.403Z</time></trkpt><trkpt lat="45.4486455" lon="11.2188778"><ele>55.0</ele><time>2026-04-06T16:17:04.406Z</time></trkpt><trkpt lat="45.4487057" lon="11.2187533"><ele>55.0</ele><time>2026-04-06T16:17:06.41Z</time></trkpt><trkpt lat="45.4487812" lon="11.2186128"><ele>55.0</ele><time>2026-04-06T16:17:08.4Z</time></trkpt><trkpt lat="45.4488299" lon="11.2185495"><ele>55.0</ele><time>2026-04-06T16:17:09.408Z</time></trkpt><trkpt lat="45.4489088" lon="11.2184541"><ele>55.0</ele><time>2026-04-06T16:17:11.422Z</time></trkpt><trkpt lat="45.4489923" lon="11.2183885"><ele>55.0</ele><time>2026-04-06T16:17:13.412Z</time></trkpt><trkpt lat="45.4491142" lon="11.2182978"><ele>55.0</ele><time>2026-04-06T16:17:15.39Z</time></trkpt><trkpt lat="45.4491898" lon="11.2182463"><ele>55.0</ele><time>2026-04-06T16:17:16.407Z</time></trkpt><trkpt lat="45.4492603" lon="11.2181854"><ele>55.0</ele><time>2026-04-06T16:17:18.409Z</time></trkpt><trkpt lat="45.44935" lon="11.2181405"><ele>55.0</ele><time>2026-04-06T16:17:20.375Z</time></trkpt><trkpt lat="45.4494556" lon="11.2180957"><ele>55.0</ele><time>2026-04-06T16:17:22.366Z</time></trkpt><trkpt lat="45.4495514" lon="11.2180413"><ele>55.4</ele><time>2026-04-06T16:17:24.36Z</time></trkpt><trkpt lat="45.4496639" lon="11.2180065"><ele>55.8</ele><time>2026-04-06T16:17:26.372Z</time></trkpt><trkpt lat="45.4497499" lon="11.2179655"><ele>56.2</ele><time>2026-04-06T16:17:28.361Z</time></trkpt><trkpt lat="45.4498607" lon="11.217902"><ele>56.6</ele><time>2026-04-06T16:17:30.384Z</time></trkpt><trkpt lat="45.4499186" lon="11.2178646"><ele>57.0</ele><time>2026-04-06T16:17:31.385Z</time></trkpt><trkpt lat="45.4500106" lon="11.2178282"><ele>57.0</ele><time>2026-04-06T16:17:33.398Z</time></trkpt><trkpt lat="45.4500782" lon="11.2177775"><ele>57.0</ele><time>2026-04-06T16:17:34.399Z</time></trkpt><trkpt lat="45.4501536" lon="11.2177376"><ele>57.0</ele><time>2026-04-06T16:17:35.393Z</time></trkpt><trkpt lat="45.4502405" lon="11.2176973"><ele>57.0</ele><time>2026-04-06T16:17:37.394Z</time></trkpt><trkpt lat="45.4503105" lon="11.2176675"><ele>57.0</ele><time>2026-04-06T16:17:39.371Z</time></trkpt><trkpt lat="45.4503962" lon="11.2176061"><ele>57.0</ele><time>2026-04-06T16:17:41.373Z</time></trkpt><trkpt lat="45.4504886" lon="11.2175695"><ele>57.8</ele><time>2026-04-06T16:17:43.385Z</time></trkpt><trkpt lat="45.4506049" lon="11.2175226"><ele>58.6</ele><time>2026-04-06T16:17:45.383Z</time></trkpt><trkpt lat="45.4507219" lon="11.2174578"><ele>59.39999999999999</ele><time>2026-04-06T16:17:47.388Z</time></trkpt><trkpt lat="45.4507838" lon="11.2174268"><ele>60.199999999999996</ele><time>2026-04-06T16:17:48.387Z</time></trkpt><trkpt lat="45.4508657" lon="11.2173667"><ele>61.0</ele><time>2026-04-06T16:17:50.404Z</time></trkpt><trkpt lat="45.4509242" lon="11.2173326"><ele>60.4</ele><time>2026-04-06T16:17:51.399Z</time></trkpt><trkpt lat="45.4510115" lon="11.2172918"><ele>59.8</ele><time>2026-04-06T16:17:53.401Z</time></trkpt><trkpt lat="45.451122" lon="11.2172023"><ele>59.199999999999996</ele><time>2026-04-06T16:17:55.407Z</time></trkpt><trkpt lat="45.4511872" lon="11.2171731"><ele>58.599999999999994</ele><time>2026-04-06T16:17:57.41Z</time></trkpt><trkpt lat="45.4513028" lon="11.2170939"><ele>58.0</ele><time>2026-04-06T16:18:00.366Z</time></trkpt><trkpt lat="45.4513817" lon="11.2170732"><ele>57.99999999999999</ele><time>2026-04-06T16:18:02.372Z</time></trkpt><trkpt lat="45.4514462" lon="11.217054"><ele>58.0</ele><time>2026-04-06T16:18:03.377Z</time></trkpt><trkpt lat="45.4515283" lon="11.2169745"><ele>58.0</ele><time>2026-04-06T16:18:04.412Z</time></trkpt><trkpt lat="45.4516079" lon="11.216921"><ele>58.0</ele><time>2026-04-06T16:18:06.413Z</time></trkpt><trkpt lat="45.4516923" lon="11.2168456"><ele>57.99999999999999</ele><time>2026-04-06T16:18:08.417Z</time></trkpt><trkpt lat="45.4517512" lon="11.2167875"><ele>58.0</ele><time>2026-04-06T16:18:09.407Z</time></trkpt><trkpt lat="45.451825" lon="11.2167125"><ele>57.99999999999999</ele><time>2026-04-06T16:18:11.411Z</time></trkpt><trkpt lat="45.4518779" lon="11.2166401"><ele>58.0</ele><time>2026-04-06T16:18:12.365Z</time></trkpt><trkpt lat="45.4519457" lon="11.2165469"><ele>58.0</ele><time>2026-04-06T16:18:14.372Z</time></trkpt><trkpt lat="45.4520083" lon="11.216448"><ele>58.0</ele><time>2026-04-06T16:18:16.395Z</time></trkpt><trkpt lat="45.4520623" lon="11.2163884"><ele>57.99999999999999</ele><time>2026-04-06T16:18:17.417Z</time></trkpt><trkpt lat="45.4521228" lon="11.2162667"><ele>58.0</ele><time>2026-04-06T16:18:19.372Z</time></trkpt><trkpt lat="45.4522454" lon="11.2160387"><ele>58.0</ele><time>2026-04-06T16:18:24.378Z</time></trkpt><trkpt lat="45.4523025" lon="11.2159737"><ele>58.0</ele><time>2026-04-06T16:18:25.381Z</time></trkpt><trkpt lat="45.4523669" lon="11.2158827"><ele>58.0</ele><time>2026-04-06T16:18:28.395Z</time></trkpt><trkpt lat="45.4524387" lon="11.2157878"><ele>58.0</ele><time>2026-04-06T16:18:29.401Z</time></trkpt><trkpt lat="45.4525351" lon="11.215685"><ele>58.0</ele><time>2026-04-06T16:18:31.389Z</time></trkpt><trkpt lat="45.4525901" lon="11.2155813"><ele>57.599999999999994</ele><time>2026-04-06T16:18:32.399Z</time></trkpt><trkpt lat="45.4526649" lon="11.2154639"><ele>57.199999999999996</ele><time>2026-04-06T16:18:34.382Z</time></trkpt><trkpt lat="45.4527449" lon="11.2154018"><ele>56.8</ele><time>2026-04-06T16:18:36.385Z</time></trkpt><trkpt lat="45.4527923" lon="11.2153319"><ele>56.4</ele><time>2026-04-06T16:18:38.37Z</time></trkpt><trkpt lat="45.4528834" lon="11.2152108"><ele>56.0</ele><time>2026-04-06T16:18:40.416Z</time></trkpt><trkpt lat="45.4529473" lon="11.2151435"><ele>56.4</ele><time>2026-04-06T16:18:42.405Z</time></trkpt><trkpt lat="45.4530301" lon="11.2149954"><ele>56.8</ele><time>2026-04-06T16:18:44.366Z</time></trkpt><trkpt lat="45.4530635" lon="11.214916"><ele>57.199999999999996</ele><time>2026-04-06T16:18:45.405Z</time></trkpt><trkpt lat="45.4530503" lon="11.2148124"><ele>57.599999999999994</ele><time>2026-04-06T16:18:47.402Z</time></trkpt><trkpt lat="45.4530432" lon="11.2147021"><ele>58.0</ele><time>2026-04-06T16:18:48.371Z</time></trkpt><trkpt lat="45.4529976" lon="11.2145612"><ele>57.25</ele><time>2026-04-06T16:18:50.369Z</time></trkpt><trkpt lat="45.4529423" lon="11.2144124"><ele>56.5</ele><time>2026-04-06T16:18:52.412Z</time></trkpt><trkpt lat="45.4529025" lon="11.214274"><ele>55.75</ele><time>2026-04-06T16:18:54.405Z</time></trkpt><trkpt lat="45.4528596" lon="11.2141246"><ele>55.0</ele><time>2026-04-06T16:18:56.409Z</time></trkpt><trkpt lat="45.4528087" lon="11.2139725"><ele>55.0</ele><time>2026-04-06T16:18:58.417Z</time></trkpt><trkpt lat="45.4527768" lon="11.2138228"><ele>55.0</ele><time>2026-04-06T16:19:00.411Z</time></trkpt><trkpt lat="45.4527484" lon="11.213661"><ele>55.0</ele><time>2026-04-06T16:19:02.425Z</time></trkpt><trkpt lat="45.4527101" lon="11.2134862"><ele>55.0</ele><time>2026-04-06T16:19:04.399Z</time></trkpt><trkpt lat="45.4526808" lon="11.2133258"><ele>55.0</ele><time>2026-04-06T16:19:06.407Z</time></trkpt><trkpt lat="45.452663" lon="11.2131693"><ele>55.0</ele><time>2026-04-06T16:19:08.435Z</time></trkpt><trkpt lat="45.4526493" lon="11.2129945"><ele>55.0</ele><time>2026-04-06T16:19:10.417Z</time></trkpt><trkpt lat="45.4526284" lon="11.2128659"><ele>55.0</ele><time>2026-04-06T16:19:12.406Z</time></trkpt><trkpt lat="45.4525939" lon="11.2127153"><ele>55.0</ele><time>2026-04-06T16:19:14.438Z</time></trkpt><trkpt lat="45.4525289" lon="11.2125845"><ele>55.33333333333333</ele><time>2026-04-06T16:19:16.369Z</time></trkpt><trkpt lat="45.4524856" lon="11.2124556"><ele>55.666666666666664</ele><time>2026-04-06T16:19:18.378Z</time></trkpt><trkpt lat="45.4524563" lon="11.2123693"><ele>56.0</ele><time>2026-04-06T16:19:20.423Z</time></trkpt><trkpt lat="45.4524167" lon="11.2122829"><ele>56.33333333333333</ele><time>2026-04-06T16:19:22.387Z</time></trkpt><trkpt lat="45.4523819" lon="11.2121833"><ele>56.666666666666664</ele><time>2026-04-06T16:19:24.375Z</time></trkpt><trkpt lat="45.4523062" lon="11.2120554"><ele>57.0</ele><time>2026-04-06T16:19:27.37Z</time></trkpt><trkpt lat="45.4522413" lon="11.211947"><ele>57.2</ele><time>2026-04-06T16:19:29.383Z</time></trkpt><trkpt lat="45.452192" lon="11.2118278"><ele>57.400000000000006</ele><time>2026-04-06T16:19:31.392Z</time></trkpt><trkpt lat="45.4521271" lon="11.2117057"><ele>57.599999999999994</ele><time>2026-04-06T16:19:33.376Z</time></trkpt><trkpt lat="45.4520649" lon="11.2116056"><ele>57.8</ele><time>2026-04-06T16:19:35.366Z</time></trkpt><trkpt lat="45.4520149" lon="11.211502"><ele>58.0</ele><time>2026-04-06T16:19:37.365Z</time></trkpt><trkpt lat="45.4519529" lon="11.2114223"><ele>58.166666666666664</ele><time>2026-04-06T16:19:39.376Z</time></trkpt><trkpt lat="45.4518986" lon="11.2113462"><ele>58.33333333333333</ele><time>2026-04-06T16:19:41.388Z</time></trkpt><trkpt lat="45.4518459" lon="11.2112592"><ele>58.5</ele><time>2026-04-06T16:19:43.395Z</time></trkpt><trkpt lat="45.4518038" lon="11.2111642"><ele>58.66666666666667</ele><time>2026-04-06T16:19:45.403Z</time></trkpt><trkpt lat="45.451746" lon="11.2110526"><ele>58.833333333333336</ele><time>2026-04-06T16:19:47.394Z</time></trkpt><trkpt lat="45.4517057" lon="11.2109538"><ele>59.0</ele><time>2026-04-06T16:19:49.404Z</time></trkpt><trkpt lat="45.4516712" lon="11.2108553"><ele>59.00000000000001</ele><time>2026-04-06T16:19:51.396Z</time></trkpt><trkpt lat="45.4516263" lon="11.2107683"><ele>59.0</ele><time>2026-04-06T16:19:53.396Z</time></trkpt><trkpt lat="45.4515893" lon="11.2106869"><ele>59.0</ele><time>2026-04-06T16:19:55.394Z</time></trkpt><trkpt lat="45.4515777" lon="11.2105695"><ele>59.0</ele><time>2026-04-06T16:19:57.412Z</time></trkpt><trkpt lat="45.4515315" lon="11.2104911"><ele>59.00000000000001</ele><time>2026-04-06T16:19:58.419Z</time></trkpt><trkpt lat="45.4515182" lon="11.2103946"><ele>59.0</ele><time>2026-04-06T16:19:59.374Z</time></trkpt><trkpt lat="45.4514776" lon="11.2102186"><ele>59.0</ele><time>2026-04-06T16:20:01.397Z</time></trkpt><trkpt lat="45.4514525" lon="11.210128"><ele>59.00000000000001</ele><time>2026-04-06T16:20:02.407Z</time></trkpt><trkpt lat="45.4514472" lon="11.2100357"><ele>59.00000000000001</ele><time>2026-04-06T16:20:03.409Z</time></trkpt><trkpt lat="45.451429" lon="11.2098482"><ele>59.0</ele><time>2026-04-06T16:20:05.375Z</time></trkpt><trkpt lat="45.4513953" lon="11.2097089"><ele>59.0</ele><time>2026-04-06T16:20:07.366Z</time></trkpt><trkpt lat="45.4513729" lon="11.209593"><ele>58.400000000000006</ele><time>2026-04-06T16:20:08.377Z</time></trkpt><trkpt lat="45.4513636" lon="11.2094464"><ele>57.800000000000004</ele><time>2026-04-06T16:20:10.383Z</time></trkpt><trkpt lat="45.4513507" lon="11.209347"><ele>57.199999999999996</ele><time>2026-04-06T16:20:11.385Z</time></trkpt><trkpt lat="45.4513429" lon="11.2091871"><ele>56.599999999999994</ele><time>2026-04-06T16:20:13.393Z</time></trkpt><trkpt lat="45.4513339" lon="11.2090391"><ele>56.0</ele><time>2026-04-06T16:20:15.394Z</time></trkpt><trkpt lat="45.4513397" lon="11.2089147"><ele>55.8</ele><time>2026-04-06T16:20:17.396Z</time></trkpt><trkpt lat="45.4513502" lon="11.2087885"><ele>55.599999999999994</ele><time>2026-04-06T16:20:19.363Z</time></trkpt><trkpt lat="45.4513594" lon="11.2086719"><ele>55.4</ele><time>2026-04-06T16:20:21.4Z</time></trkpt><trkpt lat="45.451382" lon="11.2085556"><ele>55.2</ele><time>2026-04-06T16:20:23.368Z</time></trkpt><trkpt lat="45.4514101" lon="11.2084346"><ele>55.0</ele><time>2026-04-06T16:20:25.376Z</time></trkpt><trkpt lat="45.4514585" lon="11.2082835"><ele>56.4</ele><time>2026-04-06T16:20:28.364Z</time></trkpt><trkpt lat="45.451505" lon="11.2081514"><ele>57.8</ele><time>2026-04-06T16:20:30.365Z</time></trkpt><trkpt lat="45.4515321" lon="11.2079968"><ele>59.2</ele><time>2026-04-06T16:20:32.38Z</time></trkpt><trkpt lat="45.4515438" lon="11.2078747"><ele>60.6</ele><time>2026-04-06T16:20:34.407Z</time></trkpt><trkpt lat="45.4515566" lon="11.2077605"><ele>62.0</ele><time>2026-04-06T16:20:36.365Z</time></trkpt><trkpt lat="45.4515575" lon="11.2076476"><ele>62.00000000000001</ele><time>2026-04-06T16:20:38.412Z</time></trkpt><trkpt lat="45.4516117" lon="11.2075318"><ele>62.0</ele><time>2026-04-06T16:20:41.434Z</time></trkpt><trkpt lat="45.4516709" lon="11.2074826"><ele>62.0</ele><time>2026-04-06T16:20:43.426Z</time></trkpt><trkpt lat="45.4517526" lon="11.2074433"><ele>62.0</ele><time>2026-04-06T16:20:46.407Z</time></trkpt><trkpt lat="45.4518281" lon="11.2073992"><ele>62.00000000000001</ele><time>2026-04-06T16:20:49.38Z</time></trkpt><trkpt lat="45.4519006" lon="11.2073674"><ele>62.0</ele><time>2026-04-06T16:20:51.371Z</time></trkpt><trkpt lat="45.4519892" lon="11.2073376"><ele>62.50000000000001</ele><time>2026-04-06T16:20:53.365Z</time></trkpt><trkpt lat="45.4520736" lon="11.2072797"><ele>63.0</ele><time>2026-04-06T16:20:55.372Z</time></trkpt><trkpt lat="45.4521421" lon="11.2072246"><ele>63.5</ele><time>2026-04-06T16:20:57.362Z</time></trkpt><trkpt lat="45.4522076" lon="11.2071666"><ele>64.0</ele><time>2026-04-06T16:20:59.373Z</time></trkpt><trkpt lat="45.4522893" lon="11.2070854"><ele>64.5</ele><time>2026-04-06T16:21:01.369Z</time></trkpt><trkpt lat="45.4523549" lon="11.2070213"><ele>65.0</ele><time>2026-04-06T16:21:03.369Z</time></trkpt><trkpt lat="45.4524116" lon="11.2069521"><ele>65.0</ele><time>2026-04-06T16:21:05.388Z</time></trkpt><trkpt lat="45.452491" lon="11.2069025"><ele>65.0</ele><time>2026-04-06T16:21:07.385Z</time></trkpt><trkpt lat="45.4525585" lon="11.2068744"><ele>65.0</ele><time>2026-04-06T16:21:09.386Z</time></trkpt><trkpt lat="45.4526195" lon="11.2068512"><ele>65.0</ele><time>2026-04-06T16:21:11.407Z</time></trkpt><trkpt lat="45.4526925" lon="11.2068321"><ele>65.0</ele><time>2026-04-06T16:21:13.396Z</time></trkpt><trkpt lat="45.452771" lon="11.2068131"><ele>65.0</ele><time>2026-04-06T16:21:15.403Z</time></trkpt><trkpt lat="45.4528544" lon="11.2067873"><ele>65.0</ele><time>2026-04-06T16:21:17.406Z</time></trkpt><trkpt lat="45.4529455" lon="11.2067503"><ele>65.0</ele><time>2026-04-06T16:21:19.404Z</time></trkpt><trkpt lat="45.4530199" lon="11.2067264"><ele>65.0</ele><time>2026-04-06T16:21:21.393Z</time></trkpt><trkpt lat="45.4531199" lon="11.2066917"><ele>65.0</ele><time>2026-04-06T16:21:23.356Z</time></trkpt><trkpt lat="45.4532174" lon="11.2066707"><ele>65.0</ele><time>2026-04-06T16:21:25.392Z</time></trkpt><trkpt lat="45.4533089" lon="11.2066569"><ele>64.6</ele><time>2026-04-06T16:21:27.397Z</time></trkpt><trkpt lat="45.4534029" lon="11.2066421"><ele>64.2</ele><time>2026-04-06T16:21:29.366Z</time></trkpt><trkpt lat="45.4534886" lon="11.2066214"><ele>63.8</ele><time>2026-04-06T16:21:31.367Z</time></trkpt><trkpt lat="45.4535695" lon="11.2066124"><ele>63.4</ele><time>2026-04-06T16:21:33.398Z</time></trkpt><trkpt lat="45.4536536" lon="11.206609"><ele>63.0</ele><time>2026-04-06T16:21:35.407Z</time></trkpt><trkpt lat="45.4538518" lon="11.2066055"><ele>63.0</ele><time>2026-04-06T16:21:40.402Z</time></trkpt><trkpt lat="45.4539196" lon="11.2065926"><ele>63.0</ele><time>2026-04-06T16:21:42.386Z</time></trkpt><trkpt lat="45.454031" lon="11.2065863"><ele>63.0</ele><time>2026-04-06T16:21:46.394Z</time></trkpt><trkpt lat="45.4540893" lon="11.2065225"><ele>63.0</ele><time>2026-04-06T16:21:50.417Z</time></trkpt><trkpt lat="45.4541205" lon="11.2064043"><ele>63.0</ele><time>2026-04-06T16:21:53.384Z</time></trkpt><trkpt lat="45.4541388" lon="11.2063182"><ele>63.0</ele><time>2026-04-06T16:21:55.382Z</time></trkpt><trkpt lat="45.4541519" lon="11.2061886"><ele>63.57142857142857</ele><time>2026-04-06T16:21:58.391Z</time></trkpt><trkpt lat="45.4541534" lon="11.2060951"><ele>64.14285714285714</ele><time>2026-04-06T16:22:00.395Z</time></trkpt><trkpt lat="45.4541567" lon="11.2060035"><ele>64.71428571428572</ele><time>2026-04-06T16:22:02.381Z</time></trkpt><trkpt lat="45.454147" lon="11.2058678"><ele>65.28571428571428</ele><time>2026-04-06T16:22:05.38Z</time></trkpt><trkpt lat="45.4541416" lon="11.2057661"><ele>65.85714285714286</ele><time>2026-04-06T16:22:07.404Z</time></trkpt><trkpt lat="45.4541415" lon="11.2056671"><ele>66.42857142857143</ele><time>2026-04-06T16:22:09.39Z</time></trkpt><trkpt lat="45.4541324" lon="11.2055722"><ele>67.0</ele><time>2026-04-06T16:22:11.376Z</time></trkpt><trkpt lat="45.4541112" lon="11.2054416"><ele>67.71428571428572</ele><time>2026-04-06T16:22:14.37Z</time></trkpt><trkpt lat="45.4540985" lon="11.2053492"><ele>68.42857142857143</ele><time>2026-04-06T16:22:16.367Z</time></trkpt><trkpt lat="45.4540622" lon="11.205223"><ele>69.14285714285714</ele><time>2026-04-06T16:22:19.399Z</time></trkpt><trkpt lat="45.4540382" lon="11.2051122"><ele>69.85714285714286</ele><time>2026-04-06T16:22:22.399Z</time></trkpt><trkpt lat="45.4540198" lon="11.2050202"><ele>70.57142857142857</ele><time>2026-04-06T16:22:24.405Z</time></trkpt><trkpt lat="45.4540005" lon="11.2049334"><ele>71.28571428571429</ele><time>2026-04-06T16:22:26.402Z</time></trkpt><trkpt lat="45.4539919" lon="11.2048329"><ele>72.0</ele><time>2026-04-06T16:22:28.407Z</time></trkpt><trkpt lat="45.4539955" lon="11.2047419"><ele>73.5</ele><time>2026-04-06T16:22:30.399Z</time></trkpt><trkpt lat="45.4540224" lon="11.2046145"><ele>75.0</ele><time>2026-04-06T16:22:33.388Z</time></trkpt><trkpt lat="45.4540631" lon="11.2045258"><ele>76.5</ele><time>2026-04-06T16:22:36.401Z</time></trkpt><trkpt lat="45.4541095" lon="11.2044284"><ele>78.0</ele><time>2026-04-06T16:22:39.396Z</time></trkpt><trkpt lat="45.4541483" lon="11.2043447"><ele>79.5</ele><time>2026-04-06T16:22:42.382Z</time></trkpt><trkpt lat="45.4541875" lon="11.2042436"><ele>81.0</ele><time>2026-04-06T16:22:45.413Z</time></trkpt><trkpt lat="45.4542202" lon="11.204129"><ele>82.66666666666667</ele><time>2026-04-06T16:22:48.416Z</time></trkpt><trkpt lat="45.4542309" lon="11.2039963"><ele>84.33333333333333</ele><time>2026-04-06T16:22:51.384Z</time></trkpt><trkpt lat="45.454242" lon="11.2039032"><ele>86.0</ele><time>2026-04-06T16:22:53.389Z</time></trkpt><trkpt lat="45.4542645" lon="11.2038021"><ele>87.66666666666666</ele><time>2026-04-06T16:22:55.404Z</time></trkpt><trkpt lat="45.4542876" lon="11.203708"><ele>89.33333333333333</ele><time>2026-04-06T16:22:57.414Z</time></trkpt><trkpt lat="45.4543389" lon="11.2036435"><ele>91.0</ele><time>2026-04-06T16:23:00.415Z</time></trkpt><trkpt lat="45.4544219" lon="11.2036404"><ele>91.0</ele><time>2026-04-06T16:23:03.408Z</time></trkpt><trkpt lat="45.4545114" lon="11.2036464"><ele>91.0</ele><time>2026-04-06T16:23:06.366Z</time></trkpt><trkpt lat="45.4545733" lon="11.203665"><ele>91.0</ele><time>2026-04-06T16:23:08.375Z</time></trkpt><trkpt lat="45.4546907" lon="11.2036787"><ele>91.0</ele><time>2026-04-06T16:23:13.406Z</time></trkpt><trkpt lat="45.454763" lon="11.2036905"><ele>91.0</ele><time>2026-04-06T16:23:16.387Z</time></trkpt><trkpt lat="45.4548363" lon="11.2037013"><ele>91.0</ele><time>2026-04-06T16:23:19.373Z</time></trkpt><trkpt lat="45.4549216" lon="11.2037057"><ele>91.42857142857143</ele><time>2026-04-06T16:23:22.386Z</time></trkpt><trkpt lat="45.454985" lon="11.2037282"><ele>91.85714285714286</ele><time>2026-04-06T16:23:24.37Z</time></trkpt><trkpt lat="45.4550481" lon="11.2037406"><ele>92.28571428571428</ele><time>2026-04-06T16:23:26.402Z</time></trkpt><trkpt lat="45.4551395" lon="11.2037523"><ele>92.71428571428572</ele><time>2026-04-06T16:23:29.382Z</time></trkpt><trkpt lat="45.4552028" lon="11.2037712"><ele>93.14285714285714</ele><time>2026-04-06T16:23:31.396Z</time></trkpt><trkpt lat="45.4552864" lon="11.2037948"><ele>93.57142857142857</ele><time>2026-04-06T16:23:34.399Z</time></trkpt><trkpt lat="45.455362" lon="11.2038011"><ele>94.0</ele><time>2026-04-06T16:23:37.394Z</time></trkpt><trkpt lat="45.4554368" lon="11.2037997"><ele>96.0</ele><time>2026-04-06T16:23:40.404Z</time></trkpt><trkpt lat="45.4555191" lon="11.2037815"><ele>98.0</ele><time>2026-04-06T16:23:43.408Z</time></trkpt><trkpt lat="45.4556037" lon="11.2037776"><ele>100.0</ele><time>2026-04-06T16:23:47.37Z</time></trkpt><trkpt lat="45.455677" lon="11.2037762"><ele>102.0</ele><time>2026-04-06T16:23:50.411Z</time></trkpt><trkpt lat="45.4557521" lon="11.2037547"><ele>104.00000000000001</ele><time>2026-04-06T16:23:53.394Z</time></trkpt><trkpt lat="45.4558308" lon="11.2037419"><ele>106.0</ele><time>2026-04-06T16:23:56.391Z</time></trkpt><trkpt lat="45.4559122" lon="11.2037214"><ele>106.00000000000001</ele><time>2026-04-06T16:24:01.407Z</time></trkpt><trkpt lat="45.4559882" lon="11.2036993"><ele>106.0</ele><time>2026-04-06T16:24:04.372Z</time></trkpt><trkpt lat="45.456067" lon="11.2036766"><ele>106.0</ele><time>2026-04-06T16:24:08.411Z</time></trkpt><trkpt lat="45.456147" lon="11.2036524"><ele>106.0</ele><time>2026-04-06T16:24:12.41Z</time></trkpt><trkpt lat="45.4562318" lon="11.2036287"><ele>106.00000000000001</ele><time>2026-04-06T16:24:17.398Z</time></trkpt><trkpt lat="45.4563067" lon="11.2035747"><ele>106.0</ele><time>2026-04-06T16:24:19.392Z</time></trkpt><trkpt lat="45.4563666" lon="11.2035217"><ele>107.33333333333334</ele><time>2026-04-06T16:24:22.356Z</time></trkpt><trkpt lat="45.4564035" lon="11.2034446"><ele>108.66666666666667</ele><time>2026-04-06T16:24:26.361Z</time></trkpt><trkpt lat="45.4564496" lon="11.2033313"><ele>110.0</ele><time>2026-04-06T16:24:30.365Z</time></trkpt><trkpt lat="45.4564988" lon="11.203274"><ele>111.33333333333334</ele><time>2026-04-06T16:24:34.387Z</time></trkpt><trkpt lat="45.4565476" lon="11.2031817"><ele>112.66666666666667</ele><time>2026-04-06T16:24:39.366Z</time></trkpt><trkpt lat="45.456599" lon="11.203103"><ele>114.0</ele><time>2026-04-06T16:24:42.39Z</time></trkpt><trkpt lat="45.4566419" lon="11.2030073"><ele>115.66666666666667</ele><time>2026-04-06T16:24:45.383Z</time></trkpt><trkpt lat="45.4566069" lon="11.202913"><ele>117.33333333333334</ele><time>2026-04-06T16:24:51.398Z</time></trkpt><trkpt lat="45.456551" lon="11.2028417"><ele>119.0</ele><time>2026-04-06T16:25:00.357Z</time></trkpt><trkpt lat="45.4565453" lon="11.2027328"><ele>120.66666666666667</ele><time>2026-04-06T16:25:03.379Z</time></trkpt><trkpt lat="45.4565902" lon="11.2026156"><ele>122.33333333333334</ele><time>2026-04-06T16:25:08.413Z</time></trkpt><trkpt lat="45.4566214" lon="11.2025373"><ele>124.0</ele><time>2026-04-06T16:25:10.369Z</time></trkpt><trkpt lat="45.4566818" lon="11.2024519"><ele>124.0</ele><time>2026-04-06T16:25:14.402Z</time></trkpt><trkpt lat="45.4567544" lon="11.202419"><ele>124.00000000000001</ele><time>2026-04-06T16:25:18.416Z</time></trkpt><trkpt lat="45.4568249" lon="11.2024439"><ele>124.0</ele><time>2026-04-06T16:25:22.419Z</time></trkpt><trkpt lat="45.4568767" lon="11.2024959"><ele>124.0</ele><time>2026-04-06T16:25:26.367Z</time></trkpt><trkpt lat="45.4569429" lon="11.2025678"><ele>124.00000000000001</ele><time>2026-04-06T16:25:32.409Z</time></trkpt><trkpt lat="45.456997" lon="11.2026439"><ele>124.0</ele><time>2026-04-06T16:25:37.367Z</time></trkpt><trkpt lat="45.4570637" lon="11.2026806"><ele>124.0</ele><time>2026-04-06T16:25:43.401Z</time></trkpt><trkpt lat="45.457139" lon="11.2026421"><ele>124.83333333333334</ele><time>2026-04-06T16:25:47.37Z</time></trkpt><trkpt lat="45.4572111" lon="11.202627"><ele>125.66666666666667</ele><time>2026-04-06T16:25:52.378Z</time></trkpt><trkpt lat="45.4572806" lon="11.2025983"><ele>126.5</ele><time>2026-04-06T16:25:55.38Z</time></trkpt><trkpt lat="45.4573326" lon="11.2025042"><ele>127.33333333333334</ele><time>2026-04-06T16:26:03.366Z</time></trkpt><trkpt lat="45.457376" lon="11.2024368"><ele>128.16666666666666</ele><time>2026-04-06T16:26:08.384Z</time></trkpt><trkpt lat="45.4573552" lon="11.2023342"><ele>129.0</ele><time>2026-04-06T16:26:15.367Z</time></trkpt><trkpt lat="45.4572871" lon="11.2022568"><ele>130.0</ele><time>2026-04-06T16:26:19.384Z</time></trkpt><trkpt lat="45.457245" lon="11.2021344"><ele>131.0</ele><time>2026-04-06T16:26:24.368Z</time></trkpt><trkpt lat="45.4572106" lon="11.2020408"><ele>132.0</ele><time>2026-04-06T16:26:27.358Z</time></trkpt><trkpt lat="45.4571782" lon="11.2019216"><ele>133.0</ele><time>2026-04-06T16:26:30.407Z</time></trkpt><trkpt lat="45.4571497" lon="11.2018297"><ele>134.0</ele><time>2026-04-06T16:26:33.395Z</time></trkpt><trkpt lat="45.457107" lon="11.2017518"><ele>135.0</ele><time>2026-04-06T16:26:37.389Z</time></trkpt><trkpt lat="45.4570808" lon="11.2016682"><ele>135.83333333333334</ele><time>2026-04-06T16:26:44.408Z</time></trkpt><trkpt lat="45.4571417" lon="11.2016042"><ele>136.66666666666666</ele><time>2026-04-06T16:26:47.364Z</time></trkpt><trkpt lat="45.4572207" lon="11.2015721"><ele>137.5</ele><time>2026-04-06T16:26:51.393Z</time></trkpt><trkpt lat="45.4572882" lon="11.2015202"><ele>138.33333333333331</ele><time>2026-04-06T16:26:55.391Z</time></trkpt><trkpt lat="45.4573576" lon="11.2014911"><ele>139.16666666666666</ele><time>2026-04-06T16:26:58.392Z</time></trkpt><trkpt lat="45.4574401" lon="11.2015071"><ele>140.0</ele><time>2026-04-06T16:27:01.438Z</time></trkpt><trkpt lat="45.457518" lon="11.2015008"><ele>141.33333333333331</ele><time>2026-04-06T16:27:04.381Z</time></trkpt><trkpt lat="45.4575898" lon="11.2014575"><ele>142.66666666666666</ele><time>2026-04-06T16:27:07.393Z</time></trkpt><trkpt lat="45.4576453" lon="11.2013919"><ele>144.0</ele><time>2026-04-06T16:27:11.404Z</time></trkpt><trkpt lat="45.4577111" lon="11.2013346"><ele>145.33333333333334</ele><time>2026-04-06T16:27:14.408Z</time></trkpt><trkpt lat="45.4577699" lon="11.2012881"><ele>146.66666666666669</ele><time>2026-04-06T16:27:17.403Z</time></trkpt><trkpt lat="45.4578512" lon="11.2012241"><ele>148.0</ele><time>2026-04-06T16:27:20.412Z</time></trkpt><trkpt lat="45.4579564" lon="11.2011997"><ele>148.8</ele><time>2026-04-06T16:27:24.378Z</time></trkpt><trkpt lat="45.4580889" lon="11.2011917"><ele>149.60000000000002</ele><time>2026-04-06T16:27:29.391Z</time></trkpt><trkpt lat="45.4581532" lon="11.201171"><ele>150.39999999999998</ele><time>2026-04-06T16:27:32.398Z</time></trkpt><trkpt lat="45.458231" lon="11.2011459"><ele>151.2</ele><time>2026-04-06T16:27:35.377Z</time></trkpt><trkpt lat="45.4583188" lon="11.2011157"><ele>152.0</ele><time>2026-04-06T16:27:38.382Z</time></trkpt><trkpt lat="45.4584061" lon="11.201083"><ele>152.0</ele><time>2026-04-06T16:27:41.396Z</time></trkpt><trkpt lat="45.4584665" lon="11.2010547"><ele>152.0</ele><time>2026-04-06T16:27:43.403Z</time></trkpt><trkpt lat="45.4585322" lon="11.2009876"><ele>152.0</ele><time>2026-04-06T16:27:46.377Z</time></trkpt><trkpt lat="45.4585952" lon="11.2009065"><ele>152.0</ele><time>2026-04-06T16:27:49.396Z</time></trkpt><trkpt lat="45.4586318" lon="11.200811"><ele>152.0</ele><time>2026-04-06T16:27:52.396Z</time></trkpt><trkpt lat="45.4586315" lon="11.2006999"><ele>152.0</ele><time>2026-04-06T16:27:55.362Z</time></trkpt><trkpt lat="45.4586501" lon="11.2005688"><ele>153.66666666666666</ele><time>2026-04-06T16:27:58.396Z</time></trkpt><trkpt lat="45.458653" lon="11.2004611"><ele>155.33333333333331</ele><time>2026-04-06T16:28:01.39Z</time></trkpt><trkpt lat="45.4586729" lon="11.2003426"><ele>157.0</ele><time>2026-04-06T16:28:04.385Z</time></trkpt><trkpt lat="45.458695" lon="11.2002276"><ele>158.66666666666666</ele><time>2026-04-06T16:28:07.396Z</time></trkpt><trkpt lat="45.4587127" lon="11.2001347"><ele>160.33333333333334</ele><time>2026-04-06T16:28:10.392Z</time></trkpt><trkpt lat="45.4587593" lon="11.2000511"><ele>162.0</ele><time>2026-04-06T16:28:13.403Z</time></trkpt><trkpt lat="45.4588155" lon="11.1999825"><ele>162.83333333333334</ele><time>2026-04-06T16:28:16.401Z</time></trkpt><trkpt lat="45.4588856" lon="11.199954"><ele>163.66666666666666</ele><time>2026-04-06T16:28:19.408Z</time></trkpt><trkpt lat="45.458961" lon="11.1999506"><ele>164.5</ele><time>2026-04-06T16:28:22.39Z</time></trkpt><trkpt lat="45.4590376" lon="11.1999157"><ele>165.33333333333331</ele><time>2026-04-06T16:28:25.407Z</time></trkpt><trkpt lat="45.4591759" lon="11.1999128"><ele>166.16666666666666</ele><time>2026-04-06T16:28:30.386Z</time></trkpt><trkpt lat="45.4592402" lon="11.1998809"><ele>167.0</ele><time>2026-04-06T16:28:32.399Z</time></trkpt><trkpt lat="45.4592932" lon="11.1998008"><ele>170.5</ele><time>2026-04-06T16:28:45.373Z</time></trkpt><trkpt lat="45.4592115" lon="11.199779"><ele>174.0</ele><time>2026-04-06T16:28:47.377Z</time></trkpt><trkpt lat="45.4591302" lon="11.1997546"><ele>177.5</ele><time>2026-04-06T16:28:49.384Z</time></trkpt><trkpt lat="45.4590454" lon="11.19974"><ele>181.0</ele><time>2026-04-06T16:28:51.383Z</time></trkpt><trkpt lat="45.4589707" lon="11.1997288"><ele>184.5</ele><time>2026-04-06T16:28:53.408Z</time></trkpt><trkpt lat="45.4588886" lon="11.1997085"><ele>188.0</ele><time>2026-04-06T16:28:56.439Z</time></trkpt><trkpt lat="45.4588504" lon="11.199629"><ele>188.0</ele><time>2026-04-06T16:28:59.385Z</time></trkpt><trkpt lat="45.4589236" lon="11.1995944"><ele>188.0</ele><time>2026-04-06T16:29:03.398Z</time></trkpt><trkpt lat="45.459033" lon="11.1995922"><ele>188.0</ele><time>2026-04-06T16:29:06.376Z</time></trkpt><trkpt lat="45.4591062" lon="11.1995814"><ele>188.0</ele><time>2026-04-06T16:29:08.397Z</time></trkpt><trkpt lat="45.4591716" lon="11.1995694"><ele>188.0</ele><time>2026-04-06T16:29:10.36Z</time></trkpt><trkpt lat="45.4592366" lon="11.199574"><ele>188.0</ele><time>2026-04-06T16:29:12.379Z</time></trkpt><trkpt lat="45.4593838" lon="11.1995832"><ele>188.0</ele><time>2026-04-06T16:29:16.376Z</time></trkpt><trkpt lat="45.4594666" lon="11.199586"><ele>188.0</ele><time>2026-04-06T16:29:18.405Z</time></trkpt><trkpt lat="45.4595475" lon="11.1996014"><ele>188.0</ele><time>2026-04-06T16:29:20.393Z</time></trkpt><trkpt lat="45.4596266" lon="11.1996076"><ele>188.0</ele><time>2026-04-06T16:29:22.39Z</time></trkpt><trkpt lat="45.4597099" lon="11.199618"><ele>188.0</ele><time>2026-04-06T16:29:24.411Z</time></trkpt><trkpt lat="45.4597811" lon="11.1996363"><ele>188.0</ele><time>2026-04-06T16:29:26.409Z</time></trkpt><trkpt lat="45.4598765" lon="11.1996659"><ele>189.2</ele><time>2026-04-06T16:29:29.398Z</time></trkpt><trkpt lat="45.4599461" lon="11.1996865"><ele>190.4</ele><time>2026-04-06T16:29:31.376Z</time></trkpt><trkpt lat="45.4600649" lon="11.1997348"><ele>191.6</ele><time>2026-04-06T16:29:33.377Z</time></trkpt><trkpt lat="45.4601424" lon="11.1997894"><ele>192.79999999999998</ele><time>2026-04-06T16:29:35.368Z</time></trkpt><trkpt lat="45.46025" lon="11.19982"><ele>194.0</ele><time>2026-04-06T16:29:38.4Z</time></trkpt><trkpt lat="45.4603457" lon="11.1998374"><ele>192.39999999999998</ele><time>2026-04-06T16:29:40.378Z</time></trkpt><trkpt lat="45.4604529" lon="11.1998677"><ele>190.8</ele><time>2026-04-06T16:29:43.383Z</time></trkpt><trkpt lat="45.4605493" lon="11.1998756"><ele>189.2</ele><time>2026-04-06T16:29:45.389Z</time></trkpt><trkpt lat="45.4606158" lon="11.1998766"><ele>187.60000000000002</ele><time>2026-04-06T16:29:46.364Z</time></trkpt><trkpt lat="45.4607357" lon="11.199909"><ele>186.0</ele><time>2026-04-06T16:29:48.416Z</time></trkpt><trkpt lat="45.4608436" lon="11.1999495"><ele>186.0</ele><time>2026-04-06T16:29:50.405Z</time></trkpt><trkpt lat="45.4609202" lon="11.2000065"><ele>186.0</ele><time>2026-04-06T16:29:52.432Z</time></trkpt><trkpt lat="45.4610066" lon="11.2000218"><ele>186.0</ele><time>2026-04-06T16:29:54.419Z</time></trkpt><trkpt lat="45.4611081" lon="11.200051"><ele>186.0</ele><time>2026-04-06T16:29:56.383Z</time></trkpt><trkpt lat="45.4612333" lon="11.2000418"><ele>186.0</ele><time>2026-04-06T16:29:59.366Z</time></trkpt><trkpt lat="45.4612983" lon="11.2000716"><ele>188.75</ele><time>2026-04-06T16:30:00.358Z</time></trkpt><trkpt lat="45.4613877" lon="11.2001151"><ele>191.5</ele><time>2026-04-06T16:30:02.379Z</time></trkpt><trkpt lat="45.4615754" lon="11.2001257"><ele>194.25</ele><time>2026-04-06T16:30:06.416Z</time></trkpt><trkpt lat="45.4616598" lon="11.2001684"><ele>197.0</ele><time>2026-04-06T16:30:08.402Z</time></trkpt><trkpt lat="45.461738" lon="11.2001893"><ele>197.00000000000003</ele><time>2026-04-06T16:30:10.389Z</time></trkpt><trkpt lat="45.4618094" lon="11.2002088"><ele>197.0</ele><time>2026-04-06T16:30:12.43Z</time></trkpt><trkpt lat="45.4618899" lon="11.2002349"><ele>197.0</ele><time>2026-04-06T16:30:14.403Z</time></trkpt><trkpt lat="45.4619845" lon="11.2002593"><ele>197.0</ele><time>2026-04-06T16:30:16.409Z</time></trkpt><trkpt lat="45.4620642" lon="11.2002705"><ele>197.00000000000003</ele><time>2026-04-06T16:30:18.391Z</time></trkpt><trkpt lat="45.4621463" lon="11.200268"><ele>197.0</ele><time>2026-04-06T16:30:20.382Z</time></trkpt><trkpt lat="45.462235" lon="11.2002801"><ele>198.00000000000003</ele><time>2026-04-06T16:30:22.4Z</time></trkpt><trkpt lat="45.4623204" lon="11.2002991"><ele>199.0</ele><time>2026-04-06T16:30:24.416Z</time></trkpt><trkpt lat="45.46239" lon="11.2002895"><ele>200.0</ele><time>2026-04-06T16:30:25.367Z</time></trkpt><trkpt lat="45.462487" lon="11.2003108"><ele>201.0</ele><time>2026-04-06T16:30:27.403Z</time></trkpt><trkpt lat="45.4625976" lon="11.2002909"><ele>202.00000000000003</ele><time>2026-04-06T16:30:29.399Z</time></trkpt><trkpt lat="45.462662" lon="11.2002749"><ele>203.0</ele><time>2026-04-06T16:30:30.382Z</time></trkpt><trkpt lat="45.4627611" lon="11.2002456"><ele>203.0</ele><time>2026-04-06T16:30:32.366Z</time></trkpt><trkpt lat="45.4628409" lon="11.2001757"><ele>203.0</ele><time>2026-04-06T16:30:34.419Z</time></trkpt><trkpt lat="45.4629478" lon="11.2001913"><ele>203.0</ele><time>2026-04-06T16:30:36.39Z</time></trkpt><trkpt lat="45.463018" lon="11.2001551"><ele>203.0</ele><time>2026-04-06T16:30:38.398Z</time></trkpt><trkpt lat="45.4629463" lon="11.2001106"><ele>203.0</ele><time>2026-04-06T16:30:53.36Z</time></trkpt><trkpt lat="45.4627748" lon="11.2000595"><ele>203.0</ele><time>2026-04-06T16:30:55.364Z</time></trkpt><trkpt lat="45.4626519" lon="11.1999966"><ele>203.0</ele><time>2026-04-06T16:30:57.37Z</time></trkpt><trkpt lat="45.4625611" lon="11.1999974"><ele>203.0</ele><time>2026-04-06T16:30:58.356Z</time></trkpt><trkpt lat="45.4624986" lon="11.2000396"><ele>203.0</ele><time>2026-04-06T16:31:01.375Z</time></trkpt><trkpt lat="45.4624063" lon="11.1999956"><ele>203.0</ele><time>2026-04-06T16:31:02.366Z</time></trkpt><trkpt lat="45.4623691" lon="11.1998941"><ele>203.0</ele><time>2026-04-06T16:31:03.374Z</time></trkpt><trkpt lat="45.4623887" lon="11.1997873"><ele>203.0</ele><time>2026-04-06T16:31:06.368Z</time></trkpt><trkpt lat="45.4626384" lon="11.1998342"><ele>203.0</ele><time>2026-04-06T16:31:11.369Z</time></trkpt><trkpt lat="45.4627713" lon="11.1998801"><ele>203.0</ele><time>2026-04-06T16:31:13.374Z</time></trkpt><trkpt lat="45.4628796" lon="11.1998477"><ele>203.0</ele><time>2026-04-06T16:31:15.373Z</time></trkpt><trkpt lat="45.4629817" lon="11.1998194"><ele>203.0</ele><time>2026-04-06T16:31:17.375Z</time></trkpt><trkpt lat="45.4630959" lon="11.1998028"><ele>203.0</ele><time>2026-04-06T16:31:19.373Z</time></trkpt><trkpt lat="45.4631792" lon="11.1997494"><ele>203.0</ele><time>2026-04-06T16:31:21.369Z</time></trkpt><trkpt lat="45.4632428" lon="11.1997353"><ele>206.66666666666669</ele><time>2026-04-06T16:31:23.388Z</time></trkpt><trkpt lat="45.4633193" lon="11.1996849"><ele>210.33333333333334</ele><time>2026-04-06T16:31:25.367Z</time></trkpt><trkpt lat="45.4634049" lon="11.1996564"><ele>214.0</ele><time>2026-04-06T16:31:27.401Z</time></trkpt><trkpt lat="45.4633989" lon="11.1995666"><ele>217.66666666666669</ele><time>2026-04-06T16:31:31.408Z</time></trkpt><trkpt lat="45.4633125" lon="11.1996032"><ele>221.33333333333334</ele><time>2026-04-06T16:31:35.364Z</time></trkpt><trkpt lat="45.4631999" lon="11.1996387"><ele>225.0</ele><time>2026-04-06T16:31:37.367Z</time></trkpt><trkpt lat="45.4630646" lon="11.1996875"><ele>225.0</ele><time>2026-04-06T16:31:39.401Z</time></trkpt><trkpt lat="45.4629507" lon="11.1997149"><ele>225.0</ele><time>2026-04-06T16:31:41.409Z</time></trkpt><trkpt lat="45.462883" lon="11.1997291"><ele>225.0</ele><time>2026-04-06T16:31:42.398Z</time></trkpt><trkpt lat="45.4628123" lon="11.1997075"><ele>225.0</ele><time>2026-04-06T16:31:44.385Z</time></trkpt><trkpt lat="45.4627452" lon="11.199656"><ele>225.0</ele><time>2026-04-06T16:31:46.388Z</time></trkpt><trkpt lat="45.46263" lon="11.1995842"><ele>224.83333333333334</ele><time>2026-04-06T16:31:48.406Z</time></trkpt><trkpt lat="45.462547" lon="11.1995929"><ele>224.66666666666669</ele><time>2026-04-06T16:31:50.405Z</time></trkpt><trkpt lat="45.4624783" lon="11.1995806"><ele>224.5</ele><time>2026-04-06T16:31:52.362Z</time></trkpt><trkpt lat="45.4623803" lon="11.1995399"><ele>224.33333333333334</ele><time>2026-04-06T16:31:54.366Z</time></trkpt><trkpt lat="45.4623126" lon="11.1995551"><ele>224.16666666666669</ele><time>2026-04-06T16:31:56.358Z</time></trkpt><trkpt lat="45.4622315" lon="11.1995066"><ele>224.0</ele><time>2026-04-06T16:31:58.37Z</time></trkpt><trkpt lat="45.4621491" lon="11.1993621"><ele>223.2</ele><time>2026-04-06T16:31:59.385Z</time></trkpt><trkpt lat="45.4620829" lon="11.1993225"><ele>222.39999999999998</ele><time>2026-04-06T16:32:01.42Z</time></trkpt><trkpt lat="45.4619863" lon="11.1992861"><ele>221.6</ele><time>2026-04-06T16:32:03.402Z</time></trkpt><trkpt lat="45.4618983" lon="11.1992586"><ele>220.8</ele><time>2026-04-06T16:32:05.41Z</time></trkpt><trkpt lat="45.4618055" lon="11.1991919"><ele>220.0</ele><time>2026-04-06T16:32:07.394Z</time></trkpt><trkpt lat="45.4616867" lon="11.1990982"><ele>220.0</ele><time>2026-04-06T16:32:09.392Z</time></trkpt><trkpt lat="45.4615985" lon="11.1991236"><ele>220.0</ele><time>2026-04-06T16:32:11.387Z</time></trkpt><trkpt lat="45.4615431" lon="11.1990685"><ele>220.0</ele><time>2026-04-06T16:32:13.374Z</time></trkpt><trkpt lat="45.4614521" lon="11.1990165"><ele>220.0</ele><time>2026-04-06T16:32:14.38Z</time></trkpt><trkpt lat="45.4613662" lon="11.1989229"><ele>220.0</ele><time>2026-04-06T16:32:17.363Z</time></trkpt><trkpt lat="45.4612497" lon="11.1989082"><ele>222.0</ele><time>2026-04-06T16:32:21.374Z</time></trkpt><trkpt lat="45.4611792" lon="11.1988642"><ele>224.0</ele><time>2026-04-06T16:32:23.385Z</time></trkpt><trkpt lat="45.4611451" lon="11.1987771"><ele>226.0</ele><time>2026-04-06T16:32:25.396Z</time></trkpt><trkpt lat="45.4612447" lon="11.1987133"><ele>228.0</ele><time>2026-04-06T16:32:29.393Z</time></trkpt><trkpt lat="45.4613769" lon="11.1987079"><ele>230.0</ele><time>2026-04-06T16:32:32.391Z</time></trkpt><trkpt lat="45.4615683" lon="11.1988255"><ele>231.6</ele><time>2026-04-06T16:32:35.397Z</time></trkpt><trkpt lat="45.4616622" lon="11.1988133"><ele>233.2</ele><time>2026-04-06T16:32:37.437Z</time></trkpt><trkpt lat="45.4617252" lon="11.1988108"><ele>234.8</ele><time>2026-04-06T16:32:38.405Z</time></trkpt><trkpt lat="45.4618273" lon="11.1988222"><ele>236.4</ele><time>2026-04-06T16:32:40.384Z</time></trkpt><trkpt lat="45.4619082" lon="11.1988592"><ele>238.0</ele><time>2026-04-06T16:32:42.4Z</time></trkpt><trkpt lat="45.4620218" lon="11.1988414"><ele>238.0</ele><time>2026-04-06T16:32:44.419Z</time></trkpt><trkpt lat="45.4621088" lon="11.1988526"><ele>238.0</ele><time>2026-04-06T16:32:46.371Z</time></trkpt><trkpt lat="45.4622077" lon="11.1988372"><ele>238.0</ele><time>2026-04-06T16:32:48.372Z</time></trkpt><trkpt lat="45.4622924" lon="11.1988558"><ele>238.0</ele><time>2026-04-06T16:32:50.379Z</time></trkpt><trkpt lat="45.4623815" lon="11.198868"><ele>238.0</ele><time>2026-04-06T16:32:52.374Z</time></trkpt><trkpt lat="45.4625467" lon="11.198882"><ele>238.14285714285714</ele><time>2026-04-06T16:32:56.368Z</time></trkpt><trkpt lat="45.4626045" lon="11.1988342"><ele>238.28571428571428</ele><time>2026-04-06T16:32:59.403Z</time></trkpt><trkpt lat="45.462532" lon="11.1987769"><ele>238.42857142857144</ele><time>2026-04-06T16:33:03.363Z</time></trkpt><trkpt lat="45.4624721" lon="11.1987282"><ele>238.57142857142858</ele><time>2026-04-06T16:33:06.362Z</time></trkpt><trkpt lat="45.4624014" lon="11.1986826"><ele>238.71428571428572</ele><time>2026-04-06T16:33:08.37Z</time></trkpt><trkpt lat="45.4623282" lon="11.1986437"><ele>238.8571428571429</ele><time>2026-04-06T16:33:10.375Z</time></trkpt><trkpt lat="45.4622643" lon="11.1986212"><ele>239.00000000000003</ele><time>2026-04-06T16:33:12.366Z</time></trkpt><trkpt lat="45.462176" lon="11.1986097"><ele>238.83333333333334</ele><time>2026-04-06T16:33:15.382Z</time></trkpt><trkpt lat="45.4621018" lon="11.1985821"><ele>238.66666666666669</ele><time>2026-04-06T16:33:17.409Z</time></trkpt><trkpt lat="45.4620134" lon="11.1985378"><ele>238.5</ele><time>2026-04-06T16:33:19.371Z</time></trkpt><trkpt lat="45.4619402" lon="11.1984835"><ele>238.33333333333331</ele><time>2026-04-06T16:33:21.367Z</time></trkpt><trkpt lat="45.4619039" lon="11.1984062"><ele>238.16666666666666</ele><time>2026-04-06T16:33:24.398Z</time></trkpt><trkpt lat="45.4619007" lon="11.198295"><ele>238.0</ele><time>2026-04-06T16:33:26.398Z</time></trkpt><trkpt lat="45.4619038" lon="11.1981982"><ele>238.99999999999997</ele><time>2026-04-06T16:33:28.373Z</time></trkpt><trkpt lat="45.4619122" lon="11.1980638"><ele>240.0</ele><time>2026-04-06T16:33:31.366Z</time></trkpt><trkpt lat="45.4619155" lon="11.1979603"><ele>241.0</ele><time>2026-04-06T16:33:33.376Z</time></trkpt><trkpt lat="45.46192" lon="11.1978566"><ele>242.0</ele><time>2026-04-06T16:33:35.395Z</time></trkpt><trkpt lat="45.4619301" lon="11.1977606"><ele>242.99999999999997</ele><time>2026-04-06T16:33:37.36Z</time></trkpt><trkpt lat="45.4619472" lon="11.1976621"><ele>244.0</ele><time>2026-04-06T16:33:39.398Z</time></trkpt><trkpt lat="45.4619672" lon="11.1975656"><ele>244.0</ele><time>2026-04-06T16:33:41.384Z</time></trkpt><trkpt lat="45.4619707" lon="11.1974163"><ele>243.99999999999997</ele><time>2026-04-06T16:33:45.363Z</time></trkpt><trkpt lat="45.4619751" lon="11.1973087"><ele>243.99999999999997</ele><time>2026-04-06T16:33:47.38Z</time></trkpt><trkpt lat="45.4619724" lon="11.1971784"><ele>244.0</ele><time>2026-04-06T16:33:49.403Z</time></trkpt><trkpt lat="45.4619762" lon="11.1970553"><ele>244.0</ele><time>2026-04-06T16:33:51.412Z</time></trkpt><trkpt lat="45.4619972" lon="11.1969238"><ele>242.99999999999997</ele><time>2026-04-06T16:33:53.383Z</time></trkpt><trkpt lat="45.4620122" lon="11.1967985"><ele>242.0</ele><time>2026-04-06T16:33:55.383Z</time></trkpt><trkpt lat="45.4619704" lon="11.1966835"><ele>241.0</ele><time>2026-04-06T16:33:57.378Z</time></trkpt><trkpt lat="45.4619393" lon="11.1966023"><ele>240.0</ele><time>2026-04-06T16:33:58.376Z</time></trkpt><trkpt lat="45.4618986" lon="11.1964607"><ele>238.99999999999997</ele><time>2026-04-06T16:34:00.393Z</time></trkpt><trkpt lat="45.4618762" lon="11.1963352"><ele>238.0</ele><time>2026-04-06T16:34:02.366Z</time></trkpt><trkpt lat="45.4618712" lon="11.1962062"><ele>236.8</ele><time>2026-04-06T16:34:04.364Z</time></trkpt><trkpt lat="45.4618968" lon="11.1960778"><ele>235.60000000000002</ele><time>2026-04-06T16:34:06.392Z</time></trkpt><trkpt lat="45.4619071" lon="11.1959495"><ele>234.39999999999998</ele><time>2026-04-06T16:34:08.372Z</time></trkpt><trkpt lat="45.4620438" lon="11.195946"><ele>233.2</ele><time>2026-04-06T16:34:12.402Z</time></trkpt><trkpt lat="45.4621578" lon="11.1959305"><ele>232.0</ele><time>2026-04-06T16:34:15.406Z</time></trkpt><trkpt lat="45.4622466" lon="11.1959129"><ele>230.39999999999998</ele><time>2026-04-06T16:34:17.366Z</time></trkpt><trkpt lat="45.4623258" lon="11.1958831"><ele>228.79999999999998</ele><time>2026-04-06T16:34:19.366Z</time></trkpt><trkpt lat="45.4624851" lon="11.1959143"><ele>227.2</ele><time>2026-04-06T16:34:22.43Z</time></trkpt><trkpt lat="45.4625726" lon="11.19589"><ele>225.6</ele><time>2026-04-06T16:34:23.367Z</time></trkpt><trkpt lat="45.4626586" lon="11.195851"><ele>224.0</ele><time>2026-04-06T16:34:24.375Z</time></trkpt><trkpt lat="45.4627301" lon="11.1958273"><ele>224.0</ele><time>2026-04-06T16:34:25.397Z</time></trkpt><trkpt lat="45.4628305" lon="11.1957774"><ele>224.0</ele><time>2026-04-06T16:34:26.397Z</time></trkpt><trkpt lat="45.4629336" lon="11.1957114"><ele>224.0</ele><time>2026-04-06T16:34:27.404Z</time></trkpt><trkpt lat="45.4630599" lon="11.1955003"><ele>224.0</ele><time>2026-04-06T16:34:28.41Z</time></trkpt><trkpt lat="45.463124" lon="11.1953942"><ele>218.25</ele><time>2026-04-06T16:34:29.417Z</time></trkpt><trkpt lat="45.4632052" lon="11.1953128"><ele>212.5</ele><time>2026-04-06T16:34:30.412Z</time></trkpt><trkpt lat="45.4633217" lon="11.1952671"><ele>206.75</ele><time>2026-04-06T16:34:31.357Z</time></trkpt><trkpt lat="45.4634413" lon="11.195092"><ele>201.0</ele><time>2026-04-06T16:34:32.406Z</time></trkpt><trkpt lat="45.4634755" lon="11.1949403"><ele>201.0</ele><time>2026-04-06T16:34:34.408Z</time></trkpt><trkpt lat="45.4634851" lon="11.1948456"><ele>201.0</ele><time>2026-04-06T16:34:37.362Z</time></trkpt><trkpt lat="45.4635577" lon="11.1948222"><ele>201.0</ele><time>2026-04-06T16:34:41.365Z</time></trkpt><trkpt lat="45.463603" lon="11.1947168"><ele>201.0</ele><time>2026-04-06T16:34:43.365Z</time></trkpt><trkpt lat="45.4635848" lon="11.1945456"><ele>201.0</ele><time>2026-04-06T16:34:45.367Z</time></trkpt><trkpt lat="45.4636212" lon="11.1943517"><ele>199.75</ele><time>2026-04-06T16:34:47.366Z</time></trkpt><trkpt lat="45.4636619" lon="11.1941635"><ele>198.5</ele><time>2026-04-06T16:34:49.392Z</time></trkpt><trkpt lat="45.4636513" lon="11.1939642"><ele>197.25</ele><time>2026-04-06T16:34:51.381Z</time></trkpt><trkpt lat="45.4636612" lon="11.1938612"><ele>196.0</ele><time>2026-04-06T16:34:53.393Z</time></trkpt><trkpt lat="45.4636177" lon="11.1935713"><ele>194.83333333333331</ele><time>2026-04-06T16:34:59.402Z</time></trkpt><trkpt lat="45.4635952" lon="11.1934172"><ele>193.66666666666666</ele><time>2026-04-06T16:35:01.408Z</time></trkpt><trkpt lat="45.4635781" lon="11.1933298"><ele>192.5</ele><time>2026-04-06T16:35:02.396Z</time></trkpt><trkpt lat="45.4635572" lon="11.1932354"><ele>191.33333333333331</ele><time>2026-04-06T16:35:03.41Z</time></trkpt><trkpt lat="45.4635279" lon="11.1931341"><ele>190.16666666666666</ele><time>2026-04-06T16:35:04.406Z</time></trkpt><trkpt lat="45.4634768" lon="11.1929911"><ele>189.0</ele><time>2026-04-06T16:35:06.399Z</time></trkpt><trkpt lat="45.4634299" lon="11.1928428"><ele>186.83333333333334</ele><time>2026-04-06T16:35:08.383Z</time></trkpt><trkpt lat="45.4634981" lon="11.1927788"><ele>184.66666666666666</ele><time>2026-04-06T16:35:16.406Z</time></trkpt><trkpt lat="45.4635672" lon="11.1927089"><ele>182.5</ele><time>2026-04-06T16:35:19.409Z</time></trkpt><trkpt lat="45.4635635" lon="11.1926156"><ele>180.33333333333331</ele><time>2026-04-06T16:35:28.363Z</time></trkpt><trkpt lat="45.4635238" lon="11.1925214"><ele>178.16666666666666</ele><time>2026-04-06T16:35:32.39Z</time></trkpt><trkpt lat="45.4634887" lon="11.1924364"><ele>176.0</ele><time>2026-04-06T16:35:35.402Z</time></trkpt><trkpt lat="45.4634404" lon="11.1923173"><ele>173.5</ele><time>2026-04-06T16:35:38.381Z</time></trkpt><trkpt lat="45.4633905" lon="11.192226"><ele>171.0</ele><time>2026-04-06T16:35:40.405Z</time></trkpt><trkpt lat="45.463342" lon="11.1921459"><ele>168.5</ele><time>2026-04-06T16:35:43.42Z</time></trkpt><trkpt lat="45.4633049" lon="11.1920416"><ele>166.0</ele><time>2026-04-06T16:35:46.383Z</time></trkpt><trkpt lat="45.4632629" lon="11.1919367"><ele>163.5</ele><time>2026-04-06T16:35:48.431Z</time></trkpt><trkpt lat="45.4632085" lon="11.1918578"><ele>161.0</ele><time>2026-04-06T16:35:50.416Z</time></trkpt><trkpt lat="45.4631713" lon="11.1917693"><ele>161.0</ele><time>2026-04-06T16:35:57.373Z</time></trkpt><trkpt lat="45.4632259" lon="11.1917007"><ele>161.0</ele><time>2026-04-06T16:36:09.363Z</time></trkpt><trkpt lat="45.463311" lon="11.1916499"><ele>161.0</ele><time>2026-04-06T16:36:13.397Z</time></trkpt><trkpt lat="45.4633584" lon="11.1915321"><ele>161.0</ele><time>2026-04-06T16:36:16.394Z</time></trkpt><trkpt lat="45.4634798" lon="11.1914704"><ele>161.0</ele><time>2026-04-06T16:36:18.371Z</time></trkpt><trkpt lat="45.4635472" lon="11.1913949"><ele>159.0</ele><time>2026-04-06T16:36:19.373Z</time></trkpt><trkpt lat="45.4636148" lon="11.191357"><ele>157.0</ele><time>2026-04-06T16:36:20.406Z</time></trkpt><trkpt lat="45.4637189" lon="11.1913486"><ele>155.0</ele><time>2026-04-06T16:36:22.394Z</time></trkpt><trkpt lat="45.4637877" lon="11.1913435"><ele>153.0</ele><time>2026-04-06T16:36:23.404Z</time></trkpt><trkpt lat="45.4639033" lon="11.1913507"><ele>151.0</ele><time>2026-04-06T16:36:25.404Z</time></trkpt><trkpt lat="45.4640092" lon="11.1912745"><ele>151.0</ele><time>2026-04-06T16:36:27.419Z</time></trkpt><trkpt lat="45.4640496" lon="11.1911136"><ele>151.0</ele><time>2026-04-06T16:36:29.403Z</time></trkpt><trkpt lat="45.4640693" lon="11.1909688"><ele>151.0</ele><time>2026-04-06T16:36:31.37Z</time></trkpt><trkpt lat="45.4640772" lon="11.190878"><ele>151.0</ele><time>2026-04-06T16:36:32.381Z</time></trkpt><trkpt lat="45.464091" lon="11.1907272"><ele>151.0</ele><time>2026-04-06T16:36:34.402Z</time></trkpt><trkpt lat="45.4640954" lon="11.1905745"><ele>151.0</ele><time>2026-04-06T16:36:36.408Z</time></trkpt><trkpt lat="45.4641066" lon="11.1904181"><ele>151.0</ele><time>2026-04-06T16:36:38.402Z</time></trkpt><trkpt lat="45.4641268" lon="11.1903326"><ele>151.0</ele><time>2026-04-06T16:36:39.364Z</time></trkpt><trkpt lat="45.4641492" lon="11.1901588"><ele>151.0</ele><time>2026-04-06T16:36:41.377Z</time></trkpt><trkpt lat="45.4641738" lon="11.1899748"><ele>151.0</ele><time>2026-04-06T16:36:43.394Z</time></trkpt><trkpt lat="45.4641625" lon="11.189828"><ele>151.25</ele><time>2026-04-06T16:36:45.411Z</time></trkpt><trkpt lat="45.4641787" lon="11.1896437"><ele>151.5</ele><time>2026-04-06T16:36:47.4Z</time></trkpt><trkpt lat="45.4641985" lon="11.1894853"><ele>151.75</ele><time>2026-04-06T16:36:49.407Z</time></trkpt><trkpt lat="45.4642406" lon="11.1893417"><ele>152.0</ele><time>2026-04-06T16:36:51.401Z</time></trkpt><trkpt lat="45.4642824" lon="11.1892032"><ele>152.0</ele><time>2026-04-06T16:36:53.415Z</time></trkpt><trkpt lat="45.4643491" lon="11.1890515"><ele>152.0</ele><time>2026-04-06T16:36:55.41Z</time></trkpt><trkpt lat="45.4643994" lon="11.1889829"><ele>152.0</ele><time>2026-04-06T16:36:56.398Z</time></trkpt><trkpt lat="45.4644799" lon="11.1888887"><ele>152.0</ele><time>2026-04-06T16:36:58.384Z</time></trkpt><trkpt lat="45.4645757" lon="11.1888153"><ele>152.0</ele><time>2026-04-06T16:37:00.402Z</time></trkpt><trkpt lat="45.4646713" lon="11.1887766"><ele>152.4</ele><time>2026-04-06T16:37:02.405Z</time></trkpt><trkpt lat="45.4647744" lon="11.1887571"><ele>152.79999999999998</ele><time>2026-04-06T16:37:04.407Z</time></trkpt><trkpt lat="45.4648722" lon="11.1886935"><ele>153.2</ele><time>2026-04-06T16:37:06.405Z</time></trkpt><trkpt lat="45.4649391" lon="11.1886254"><ele>153.6</ele><time>2026-04-06T16:37:08.401Z</time></trkpt><trkpt lat="45.4649467" lon="11.1885168"><ele>154.0</ele><time>2026-04-06T16:37:09.403Z</time></trkpt><trkpt lat="45.4649674" lon="11.1883566"><ele>154.0</ele><time>2026-04-06T16:37:11.375Z</time></trkpt><trkpt lat="45.4649822" lon="11.1882688"><ele>154.0</ele><time>2026-04-06T16:37:12.387Z</time></trkpt><trkpt lat="45.4650052" lon="11.1880998"><ele>154.0</ele><time>2026-04-06T16:37:14.359Z</time></trkpt><trkpt lat="45.4650208" lon="11.1880073"><ele>154.0</ele><time>2026-04-06T16:37:15.382Z</time></trkpt><trkpt lat="45.4650456" lon="11.1878641"><ele>154.0</ele><time>2026-04-06T16:37:17.39Z</time></trkpt><trkpt lat="45.4650828" lon="11.1876986"><ele>154.2</ele><time>2026-04-06T16:37:19.388Z</time></trkpt><trkpt lat="45.465127" lon="11.1875558"><ele>154.4</ele><time>2026-04-06T16:37:21.369Z</time></trkpt><trkpt lat="45.4651455" lon="11.1874034"><ele>154.6</ele><time>2026-04-06T16:37:23.399Z</time></trkpt><trkpt lat="45.4651672" lon="11.1872262"><ele>154.8</ele><time>2026-04-06T16:37:25.405Z</time></trkpt><trkpt lat="45.4651951" lon="11.1871411"><ele>155.0</ele><time>2026-04-06T16:37:26.417Z</time></trkpt><trkpt lat="45.4652719" lon="11.1870372"><ele>155.16666666666666</ele><time>2026-04-06T16:37:28.395Z</time></trkpt><trkpt lat="45.4653245" lon="11.1869803"><ele>155.33333333333331</ele><time>2026-04-06T16:37:29.427Z</time></trkpt><trkpt lat="45.4653728" lon="11.1868961"><ele>155.5</ele><time>2026-04-06T16:37:31.391Z</time></trkpt><trkpt lat="45.4654314" lon="11.1868395"><ele>155.66666666666666</ele><time>2026-04-06T16:37:32.387Z</time></trkpt><trkpt lat="45.465529" lon="11.1867862"><ele>155.83333333333334</ele><time>2026-04-06T16:37:34.384Z</time></trkpt><trkpt lat="45.4656336" lon="11.1867976"><ele>156.0</ele><time>2026-04-06T16:37:36.383Z</time></trkpt><trkpt lat="45.46574" lon="11.1867681"><ele>156.4</ele><time>2026-04-06T16:37:38.399Z</time></trkpt><trkpt lat="45.4658268" lon="11.1867915"><ele>156.8</ele><time>2026-04-06T16:37:40.4Z</time></trkpt><trkpt lat="45.4659327" lon="11.1866116"><ele>157.20000000000002</ele><time>2026-04-06T16:37:43.407Z</time></trkpt><trkpt lat="45.4659936" lon="11.1865388"><ele>157.6</ele><time>2026-04-06T16:37:44.414Z</time></trkpt><trkpt lat="45.4660563" lon="11.1864009"><ele>158.0</ele><time>2026-04-06T16:37:46.405Z</time></trkpt><trkpt lat="45.4661035" lon="11.1862833"><ele>158.33333333333331</ele><time>2026-04-06T16:37:48.373Z</time></trkpt><trkpt lat="45.4661552" lon="11.1861805"><ele>158.66666666666666</ele><time>2026-04-06T16:37:50.381Z</time></trkpt><trkpt lat="45.4663159" lon="11.1858796"><ele>159.0</ele><time>2026-04-06T16:37:56.36Z</time></trkpt><trkpt lat="45.466276" lon="11.1857129"><ele>159.8</ele><time>2026-04-06T16:37:57.403Z</time></trkpt><trkpt lat="45.4663485" lon="11.1855749"><ele>160.60000000000002</ele><time>2026-04-06T16:37:59.432Z</time></trkpt><trkpt lat="45.4663415" lon="11.1854215"><ele>161.4</ele><time>2026-04-06T16:38:01.368Z</time></trkpt><trkpt lat="45.4663592" lon="11.1852397"><ele>162.20000000000002</ele><time>2026-04-06T16:38:03.401Z</time></trkpt><trkpt lat="45.4663373" lon="11.1851437"><ele>163.0</ele><time>2026-04-06T16:38:05.404Z</time></trkpt><trkpt lat="45.4663053" lon="11.1849795"><ele>162.83333333333334</ele><time>2026-04-06T16:38:07.398Z</time></trkpt><trkpt lat="45.46638" lon="11.1848285"><ele>162.66666666666669</ele><time>2026-04-06T16:38:09.387Z</time></trkpt><trkpt lat="45.4664247" lon="11.1847607"><ele>162.5</ele><time>2026-04-06T16:38:10.401Z</time></trkpt><trkpt lat="45.4664481" lon="11.1846754"><ele>162.33333333333334</ele><time>2026-04-06T16:38:12.412Z</time></trkpt><trkpt lat="45.4664197" lon="11.1845893"><ele>162.16666666666666</ele><time>2026-04-06T16:38:14.439Z</time></trkpt><trkpt lat="45.4664809" lon="11.1844741"><ele>162.0</ele><time>2026-04-06T16:38:16.417Z</time></trkpt><trkpt lat="45.4665066" lon="11.1843449"><ele>162.0</ele><time>2026-04-06T16:38:18.414Z</time></trkpt><trkpt lat="45.4665724" lon="11.1842323"><ele>162.0</ele><time>2026-04-06T16:38:20.416Z</time></trkpt><trkpt lat="45.4666552" lon="11.184126"><ele>162.0</ele><time>2026-04-06T16:38:22.389Z</time></trkpt><trkpt lat="45.4667444" lon="11.1840423"><ele>162.0</ele><time>2026-04-06T16:38:24.384Z</time></trkpt><trkpt lat="45.4668165" lon="11.1839707"><ele>162.0</ele><time>2026-04-06T16:38:26.377Z</time></trkpt><trkpt lat="45.4669249" lon="11.1839602"><ele>162.2</ele><time>2026-04-06T16:38:28.374Z</time></trkpt><trkpt lat="45.467015" lon="11.1839722"><ele>162.39999999999998</ele><time>2026-04-06T16:38:30.394Z</time></trkpt><trkpt lat="45.4671383" lon="11.1839707"><ele>162.60000000000002</ele><time>2026-04-06T16:38:32.403Z</time></trkpt><trkpt lat="45.467205" lon="11.1839614"><ele>162.8</ele><time>2026-04-06T16:38:33.382Z</time></trkpt><trkpt lat="45.4673219" lon="11.1839667"><ele>163.0</ele><time>2026-04-06T16:38:35.394Z</time></trkpt><trkpt lat="45.4673871" lon="11.1839752"><ele>163.0</ele><time>2026-04-06T16:38:36.405Z</time></trkpt><trkpt lat="45.467502" lon="11.1839814"><ele>163.0</ele><time>2026-04-06T16:38:38.416Z</time></trkpt><trkpt lat="45.4676168" lon="11.1840054"><ele>163.0</ele><time>2026-04-06T16:38:40.403Z</time></trkpt><trkpt lat="45.467734" lon="11.1840125"><ele>163.0</ele><time>2026-04-06T16:38:42.388Z</time></trkpt><trkpt lat="45.4678002" lon="11.1840141"><ele>163.0</ele><time>2026-04-06T16:38:43.387Z</time></trkpt><trkpt lat="45.4678654" lon="11.1840102"><ele>163.66666666666669</ele><time>2026-04-06T16:38:44.39Z</time></trkpt><trkpt lat="45.4679806" lon="11.1840174"><ele>164.33333333333334</ele><time>2026-04-06T16:38:46.379Z</time></trkpt><trkpt lat="45.4680834" lon="11.1840584"><ele>165.0</ele><time>2026-04-06T16:38:48.399Z</time></trkpt><trkpt lat="45.4683135" lon="11.183858"><ele>165.2</ele><time>2026-04-06T16:38:56.41Z</time></trkpt><trkpt lat="45.4683208" lon="11.1836979"><ele>165.4</ele><time>2026-04-06T16:38:58.393Z</time></trkpt><trkpt lat="45.4683477" lon="11.1835282"><ele>165.60000000000002</ele><time>2026-04-06T16:39:00.404Z</time></trkpt><trkpt lat="45.4682991" lon="11.1834377"><ele>165.8</ele><time>2026-04-06T16:39:01.391Z</time></trkpt><trkpt lat="45.4682593" lon="11.183312"><ele>166.0</ele><time>2026-04-06T16:39:03.413Z</time></trkpt><trkpt lat="45.4682523" lon="11.1832224"><ele>166.0</ele><time>2026-04-06T16:39:04.405Z</time></trkpt><trkpt lat="45.468245" lon="11.1830751"><ele>166.0</ele><time>2026-04-06T16:39:06.399Z</time></trkpt><trkpt lat="45.4682558" lon="11.1829156"><ele>166.0</ele><time>2026-04-06T16:39:08.405Z</time></trkpt><trkpt lat="45.4682432" lon="11.1827739"><ele>166.0</ele><time>2026-04-06T16:39:10.408Z</time></trkpt><trkpt lat="45.4682358" lon="11.1826315"><ele>166.0</ele><time>2026-04-06T16:39:12.414Z</time></trkpt><trkpt lat="45.4682348" lon="11.1824644"><ele>166.0</ele><time>2026-04-06T16:39:14.407Z</time></trkpt><trkpt lat="45.4682326" lon="11.1823681"><ele>166.0</ele><time>2026-04-06T16:39:15.425Z</time></trkpt><trkpt lat="45.4682278" lon="11.1822365"><ele>166.0</ele><time>2026-04-06T16:39:17.408Z</time></trkpt><trkpt lat="45.4681993" lon="11.1821555"><ele>166.0</ele><time>2026-04-06T16:39:18.397Z</time></trkpt><trkpt lat="45.4681518" lon="11.1820272"><ele>166.0</ele><time>2026-04-06T16:39:20.414Z</time></trkpt><trkpt lat="45.4681502" lon="11.1819296"><ele>166.0</ele><time>2026-04-06T16:39:22.364Z</time></trkpt><trkpt lat="45.4681456" lon="11.1817582"><ele>166.0</ele><time>2026-04-06T16:39:26.392Z</time></trkpt><trkpt lat="45.4681378" lon="11.1815509"><ele>166.0</ele><time>2026-04-06T16:39:29.366Z</time></trkpt><trkpt lat="45.4681283" lon="11.1814227"><ele>166.0</ele><time>2026-04-06T16:39:31.379Z</time></trkpt><trkpt lat="45.4681106" lon="11.1812966"><ele>166.0</ele><time>2026-04-06T16:39:33.376Z</time></trkpt><trkpt lat="45.4680873" lon="11.1811428"><ele>166.0</ele><time>2026-04-06T16:39:35.374Z</time></trkpt><trkpt lat="45.4680656" lon="11.1810341"><ele>166.4</ele><time>2026-04-06T16:39:36.396Z</time></trkpt><trkpt lat="45.4680443" lon="11.1808882"><ele>166.8</ele><time>2026-04-06T16:39:38.358Z</time></trkpt><trkpt lat="45.4680215" lon="11.1807407"><ele>167.20000000000002</ele><time>2026-04-06T16:39:40.39Z</time></trkpt><trkpt lat="45.4680275" lon="11.1806351"><ele>167.60000000000002</ele><time>2026-04-06T16:39:42.403Z</time></trkpt><trkpt lat="45.4680169" lon="11.1805068"><ele>168.0</ele><time>2026-04-06T16:39:44.392Z</time></trkpt><trkpt lat="45.4680213" lon="11.1803877"><ele>168.16666666666666</ele><time>2026-04-06T16:39:47.392Z</time></trkpt><trkpt lat="45.4680429" lon="11.1802978"><ele>168.33333333333334</ele><time>2026-04-06T16:39:50.398Z</time></trkpt><trkpt lat="45.4680188" lon="11.180197"><ele>168.5</ele><time>2026-04-06T16:40:04.358Z</time></trkpt><trkpt lat="45.4680074" lon="11.1801025"><ele>168.66666666666669</ele><time>2026-04-06T16:40:06.357Z</time></trkpt><trkpt lat="45.4680047" lon="11.1799812"><ele>168.83333333333334</ele><time>2026-04-06T16:40:08.404Z</time></trkpt><trkpt lat="45.4680183" lon="11.1798524"><ele>169.0</ele><time>2026-04-06T16:40:10.379Z</time></trkpt><trkpt lat="45.4680462" lon="11.179745"><ele>169.0</ele><time>2026-04-06T16:40:11.372Z</time></trkpt><trkpt lat="45.4680555" lon="11.1795831"><ele>169.0</ele><time>2026-04-06T16:40:13.428Z</time></trkpt><trkpt lat="45.4680587" lon="11.1794858"><ele>169.0</ele><time>2026-04-06T16:40:14.408Z</time></trkpt><trkpt lat="45.4680801" lon="11.1793311"><ele>169.0</ele><time>2026-04-06T16:40:16.402Z</time></trkpt><trkpt lat="45.4680663" lon="11.1791609"><ele>169.0</ele><time>2026-04-06T16:40:18.403Z</time></trkpt><trkpt lat="45.4680953" lon="11.1789847"><ele>168.79999999999998</ele><time>2026-04-06T16:40:20.387Z</time></trkpt><trkpt lat="45.4680802" lon="11.1788769"><ele>168.6</ele><time>2026-04-06T16:40:22.409Z</time></trkpt><trkpt lat="45.4681058" lon="11.1787043"><ele>168.4</ele><time>2026-04-06T16:40:24.407Z</time></trkpt><trkpt lat="45.4681149" lon="11.1786088"><ele>168.2</ele><time>2026-04-06T16:40:25.399Z</time></trkpt><trkpt lat="45.4681331" lon="11.1783577"><ele>168.0</ele><time>2026-04-06T16:40:28.378Z</time></trkpt><trkpt lat="45.4681715" lon="11.1782016"><ele>168.0</ele><time>2026-04-06T16:40:31.381Z</time></trkpt><trkpt lat="45.4682365" lon="11.1781318"><ele>167.0</ele><time>2026-04-06T16:40:33.366Z</time></trkpt><trkpt lat="45.4683037" lon="11.1781798"><ele>167.0</ele><time>2026-04-06T16:40:36.386Z</time></trkpt><trkpt lat="45.4683903" lon="11.1780908"><ele>167.0</ele><time>2026-04-06T16:41:35.371Z</time></trkpt><trkpt lat="45.4684382" lon="11.1780113"><ele>167.0</ele><time>2026-04-06T16:41:42.387Z</time></trkpt></trkseg></trk></gpx>